<?xml version="1.0" encoding="UTF-8" standalone="no" ?>
<gpx xmlns="http://www.topografix.com/GPX/1/1" xmlns:xsi="http://www.w3.org/2001/XMLSchema-instance" xsi:schemaLocation="http://www.topografix.com/GPX/1/1 http://www.topografix.com/GPX/1/1/gpx.xsd" version="1.1" creator="VisuGPX - https://www.visugpx.com">
  <metadata>
    <name>22 08 16 col du Joly de Queige</name>
  </metadata>
  <trk>
    <name><![CDATA[Tracé 20220816-085950]]></name>
    <extensions>
      <line xmlns="http://www.topografix.com/GPX/gpx_style/0/2">
        <color>0000FF</color>
        <width>4</width>
      </line>
    </extensions>
    <trkseg>
      <trkpt lat="45.71853" lon="6.46499">
        <ele>674</ele>
        <time>2022-08-16T06:59:50Z</time>
      </trkpt>
      <trkpt lat="45.7185" lon="6.465">
        <ele>680</ele>
        <time>2022-08-16T06:59:52Z</time>
      </trkpt>
      <trkpt lat="45.7185" lon="6.46503">
        <ele>684</ele>
        <time>2022-08-16T06:59:53Z</time>
      </trkpt>
      <trkpt lat="45.7185" lon="6.46503">
        <ele>684</ele>
        <time>2022-08-16T06:59:54Z</time>
      </trkpt>
      <trkpt lat="45.71851" lon="6.46505">
        <ele>688</ele>
        <time>2022-08-16T06:59:55Z</time>
      </trkpt>
      <trkpt lat="45.71851" lon="6.46505">
        <ele>688</ele>
        <time>2022-08-16T06:59:59Z</time>
      </trkpt>
      <trkpt lat="45.71851" lon="6.46505">
        <ele>688</ele>
        <time>2022-08-16T07:00:03Z</time>
      </trkpt>
      <trkpt lat="45.71851" lon="6.46505">
        <ele>688</ele>
        <time>2022-08-16T07:00:07Z</time>
      </trkpt>
      <trkpt lat="45.71851" lon="6.46505">
        <ele>688</ele>
        <time>2022-08-16T07:00:11Z</time>
      </trkpt>
      <trkpt lat="45.71851" lon="6.46505">
        <ele>688</ele>
        <time>2022-08-16T07:00:15Z</time>
      </trkpt>
      <trkpt lat="45.71852" lon="6.46506">
        <ele>690</ele>
        <time>2022-08-16T07:00:17Z</time>
      </trkpt>
      <trkpt lat="45.71852" lon="6.46507">
        <ele>691</ele>
        <time>2022-08-16T07:00:18Z</time>
      </trkpt>
      <trkpt lat="45.71852" lon="6.46507">
        <ele>691</ele>
        <time>2022-08-16T07:00:19Z</time>
      </trkpt>
      <trkpt lat="45.71852" lon="6.46507">
        <ele>691</ele>
        <time>2022-08-16T07:00:20Z</time>
      </trkpt>
      <trkpt lat="45.71852" lon="6.46507">
        <ele>691</ele>
        <time>2022-08-16T07:00:24Z</time>
      </trkpt>
      <trkpt lat="45.71852" lon="6.46507">
        <ele>691</ele>
        <time>2022-08-16T07:00:28Z</time>
      </trkpt>
      <trkpt lat="45.71852" lon="6.46507">
        <ele>691</ele>
        <time>2022-08-16T07:00:32Z</time>
      </trkpt>
      <trkpt lat="45.71853" lon="6.46506">
        <ele>692</ele>
        <time>2022-08-16T07:00:36Z</time>
      </trkpt>
      <trkpt lat="45.71854" lon="6.46505">
        <ele>692</ele>
        <time>2022-08-16T07:00:37Z</time>
      </trkpt>
      <trkpt lat="45.71854" lon="6.46505">
        <ele>692</ele>
        <time>2022-08-16T07:00:38Z</time>
      </trkpt>
      <trkpt lat="45.71855" lon="6.46505">
        <ele>692</ele>
        <time>2022-08-16T07:00:39Z</time>
      </trkpt>
      <trkpt lat="45.71856" lon="6.46506">
        <ele>693</ele>
        <time>2022-08-16T07:00:40Z</time>
      </trkpt>
      <trkpt lat="45.71856" lon="6.46506">
        <ele>693</ele>
        <time>2022-08-16T07:00:41Z</time>
      </trkpt>
      <trkpt lat="45.71856" lon="6.46507">
        <ele>693</ele>
        <time>2022-08-16T07:00:42Z</time>
      </trkpt>
      <trkpt lat="45.71856" lon="6.46508">
        <ele>693</ele>
        <time>2022-08-16T07:00:43Z</time>
      </trkpt>
      <trkpt lat="45.71856" lon="6.4651">
        <ele>693</ele>
        <time>2022-08-16T07:00:44Z</time>
      </trkpt>
      <trkpt lat="45.71855" lon="6.46512">
        <ele>694</ele>
        <time>2022-08-16T07:00:45Z</time>
      </trkpt>
      <trkpt lat="45.71854" lon="6.46514">
        <ele>694</ele>
        <time>2022-08-16T07:00:46Z</time>
      </trkpt>
      <trkpt lat="45.71853" lon="6.46515">
        <ele>695</ele>
        <time>2022-08-16T07:00:47Z</time>
      </trkpt>
      <trkpt lat="45.71853" lon="6.46517">
        <ele>695</ele>
        <time>2022-08-16T07:00:48Z</time>
      </trkpt>
      <trkpt lat="45.71852" lon="6.46519">
        <ele>695</ele>
        <time>2022-08-16T07:00:49Z</time>
      </trkpt>
      <trkpt lat="45.71852" lon="6.46521">
        <ele>695</ele>
        <time>2022-08-16T07:00:50Z</time>
      </trkpt>
      <trkpt lat="45.71851" lon="6.46523">
        <ele>696</ele>
        <time>2022-08-16T07:00:51Z</time>
      </trkpt>
      <trkpt lat="45.7185" lon="6.46525">
        <ele>695</ele>
        <time>2022-08-16T07:00:52Z</time>
      </trkpt>
      <trkpt lat="45.71849" lon="6.46527">
        <ele>695</ele>
        <time>2022-08-16T07:00:53Z</time>
      </trkpt>
      <trkpt lat="45.71848" lon="6.46529">
        <ele>695</ele>
        <time>2022-08-16T07:00:54Z</time>
      </trkpt>
      <trkpt lat="45.71847" lon="6.46531">
        <ele>695</ele>
        <time>2022-08-16T07:00:55Z</time>
      </trkpt>
      <trkpt lat="45.71846" lon="6.46532">
        <ele>695</ele>
        <time>2022-08-16T07:00:56Z</time>
      </trkpt>
      <trkpt lat="45.71845" lon="6.46534">
        <ele>695</ele>
        <time>2022-08-16T07:00:57Z</time>
      </trkpt>
      <trkpt lat="45.71844" lon="6.46536">
        <ele>695</ele>
        <time>2022-08-16T07:00:58Z</time>
      </trkpt>
      <trkpt lat="45.71843" lon="6.46537">
        <ele>695</ele>
        <time>2022-08-16T07:00:59Z</time>
      </trkpt>
      <trkpt lat="45.71843" lon="6.46539">
        <ele>694</ele>
        <time>2022-08-16T07:01:00Z</time>
      </trkpt>
      <trkpt lat="45.71842" lon="6.46539">
        <ele>695</ele>
        <time>2022-08-16T07:01:01Z</time>
      </trkpt>
      <trkpt lat="45.71841" lon="6.4654">
        <ele>695</ele>
        <time>2022-08-16T07:01:02Z</time>
      </trkpt>
      <trkpt lat="45.7184" lon="6.46542">
        <ele>695</ele>
        <time>2022-08-16T07:01:03Z</time>
      </trkpt>
      <trkpt lat="45.71838" lon="6.46543">
        <ele>694</ele>
        <time>2022-08-16T07:01:04Z</time>
      </trkpt>
      <trkpt lat="45.71837" lon="6.46545">
        <ele>694</ele>
        <time>2022-08-16T07:01:05Z</time>
      </trkpt>
      <trkpt lat="45.71836" lon="6.46546">
        <ele>694</ele>
        <time>2022-08-16T07:01:06Z</time>
      </trkpt>
      <trkpt lat="45.71835" lon="6.46547">
        <ele>694</ele>
        <time>2022-08-16T07:01:07Z</time>
      </trkpt>
      <trkpt lat="45.71834" lon="6.46548">
        <ele>694</ele>
        <time>2022-08-16T07:01:08Z</time>
      </trkpt>
      <trkpt lat="45.71833" lon="6.46551">
        <ele>695</ele>
        <time>2022-08-16T07:01:09Z</time>
      </trkpt>
      <trkpt lat="45.71833" lon="6.46553">
        <ele>695</ele>
        <time>2022-08-16T07:01:10Z</time>
      </trkpt>
      <trkpt lat="45.71832" lon="6.46557">
        <ele>695</ele>
        <time>2022-08-16T07:01:11Z</time>
      </trkpt>
      <trkpt lat="45.71831" lon="6.46559">
        <ele>694</ele>
        <time>2022-08-16T07:01:12Z</time>
      </trkpt>
      <trkpt lat="45.71831" lon="6.46562">
        <ele>694</ele>
        <time>2022-08-16T07:01:13Z</time>
      </trkpt>
      <trkpt lat="45.7183" lon="6.46564">
        <ele>695</ele>
        <time>2022-08-16T07:01:14Z</time>
      </trkpt>
      <trkpt lat="45.7183" lon="6.46565">
        <ele>696</ele>
        <time>2022-08-16T07:01:15Z</time>
      </trkpt>
      <trkpt lat="45.7183" lon="6.46567">
        <ele>696</ele>
        <time>2022-08-16T07:01:16Z</time>
      </trkpt>
      <trkpt lat="45.7183" lon="6.4657">
        <ele>696</ele>
        <time>2022-08-16T07:01:17Z</time>
      </trkpt>
      <trkpt lat="45.7183" lon="6.46572">
        <ele>696</ele>
        <time>2022-08-16T07:01:18Z</time>
      </trkpt>
      <trkpt lat="45.71829" lon="6.46574">
        <ele>696</ele>
        <time>2022-08-16T07:01:19Z</time>
      </trkpt>
      <trkpt lat="45.71828" lon="6.46576">
        <ele>695</ele>
        <time>2022-08-16T07:01:20Z</time>
      </trkpt>
      <trkpt lat="45.71827" lon="6.46578">
        <ele>695</ele>
        <time>2022-08-16T07:01:21Z</time>
      </trkpt>
      <trkpt lat="45.71827" lon="6.4658">
        <ele>696</ele>
        <time>2022-08-16T07:01:22Z</time>
      </trkpt>
      <trkpt lat="45.71826" lon="6.46582">
        <ele>696</ele>
        <time>2022-08-16T07:01:23Z</time>
      </trkpt>
      <trkpt lat="45.71826" lon="6.46583">
        <ele>697</ele>
        <time>2022-08-16T07:01:24Z</time>
      </trkpt>
      <trkpt lat="45.71825" lon="6.46586">
        <ele>697</ele>
        <time>2022-08-16T07:01:25Z</time>
      </trkpt>
      <trkpt lat="45.71825" lon="6.46588">
        <ele>697</ele>
        <time>2022-08-16T07:01:26Z</time>
      </trkpt>
      <trkpt lat="45.71825" lon="6.4659">
        <ele>697</ele>
        <time>2022-08-16T07:01:27Z</time>
      </trkpt>
      <trkpt lat="45.71824" lon="6.46592">
        <ele>697</ele>
        <time>2022-08-16T07:01:28Z</time>
      </trkpt>
      <trkpt lat="45.71824" lon="6.46596">
        <ele>697</ele>
        <time>2022-08-16T07:01:29Z</time>
      </trkpt>
      <trkpt lat="45.71824" lon="6.46598">
        <ele>697</ele>
        <time>2022-08-16T07:01:30Z</time>
      </trkpt>
      <trkpt lat="45.71824" lon="6.466">
        <ele>697</ele>
        <time>2022-08-16T07:01:31Z</time>
      </trkpt>
      <trkpt lat="45.71824" lon="6.46603">
        <ele>697</ele>
        <time>2022-08-16T07:01:32Z</time>
      </trkpt>
      <trkpt lat="45.71824" lon="6.46605">
        <ele>697</ele>
        <time>2022-08-16T07:01:33Z</time>
      </trkpt>
      <trkpt lat="45.71824" lon="6.46608">
        <ele>697</ele>
        <time>2022-08-16T07:01:34Z</time>
      </trkpt>
      <trkpt lat="45.71824" lon="6.4661">
        <ele>697</ele>
        <time>2022-08-16T07:01:35Z</time>
      </trkpt>
      <trkpt lat="45.71824" lon="6.46612">
        <ele>697</ele>
        <time>2022-08-16T07:01:36Z</time>
      </trkpt>
      <trkpt lat="45.71823" lon="6.46614">
        <ele>697</ele>
        <time>2022-08-16T07:01:37Z</time>
      </trkpt>
      <trkpt lat="45.71823" lon="6.46616">
        <ele>696</ele>
        <time>2022-08-16T07:01:38Z</time>
      </trkpt>
      <trkpt lat="45.71823" lon="6.46619">
        <ele>696</ele>
        <time>2022-08-16T07:01:39Z</time>
      </trkpt>
      <trkpt lat="45.71823" lon="6.46621">
        <ele>696</ele>
        <time>2022-08-16T07:01:40Z</time>
      </trkpt>
      <trkpt lat="45.71823" lon="6.46624">
        <ele>696</ele>
        <time>2022-08-16T07:01:41Z</time>
      </trkpt>
      <trkpt lat="45.71824" lon="6.46627">
        <ele>696</ele>
        <time>2022-08-16T07:01:42Z</time>
      </trkpt>
      <trkpt lat="45.71824" lon="6.4663">
        <ele>697</ele>
        <time>2022-08-16T07:01:43Z</time>
      </trkpt>
      <trkpt lat="45.71824" lon="6.46632">
        <ele>697</ele>
        <time>2022-08-16T07:01:44Z</time>
      </trkpt>
      <trkpt lat="45.71824" lon="6.46634">
        <ele>697</ele>
        <time>2022-08-16T07:01:45Z</time>
      </trkpt>
      <trkpt lat="45.71823" lon="6.46636">
        <ele>697</ele>
        <time>2022-08-16T07:01:46Z</time>
      </trkpt>
      <trkpt lat="45.71823" lon="6.46638">
        <ele>696</ele>
        <time>2022-08-16T07:01:47Z</time>
      </trkpt>
      <trkpt lat="45.71823" lon="6.4664">
        <ele>697</ele>
        <time>2022-08-16T07:01:48Z</time>
      </trkpt>
      <trkpt lat="45.71823" lon="6.46643">
        <ele>697</ele>
        <time>2022-08-16T07:01:49Z</time>
      </trkpt>
      <trkpt lat="45.71823" lon="6.46645">
        <ele>698</ele>
        <time>2022-08-16T07:01:50Z</time>
      </trkpt>
      <trkpt lat="45.71823" lon="6.46648">
        <ele>698</ele>
        <time>2022-08-16T07:01:51Z</time>
      </trkpt>
      <trkpt lat="45.71822" lon="6.46651">
        <ele>698</ele>
        <time>2022-08-16T07:01:52Z</time>
      </trkpt>
      <trkpt lat="45.71822" lon="6.46653">
        <ele>698</ele>
        <time>2022-08-16T07:01:53Z</time>
      </trkpt>
      <trkpt lat="45.71821" lon="6.46656">
        <ele>699</ele>
        <time>2022-08-16T07:01:54Z</time>
      </trkpt>
      <trkpt lat="45.71821" lon="6.46658">
        <ele>700</ele>
        <time>2022-08-16T07:01:55Z</time>
      </trkpt>
      <trkpt lat="45.7182" lon="6.46661">
        <ele>700</ele>
        <time>2022-08-16T07:01:56Z</time>
      </trkpt>
      <trkpt lat="45.71819" lon="6.46663">
        <ele>700</ele>
        <time>2022-08-16T07:01:57Z</time>
      </trkpt>
      <trkpt lat="45.71819" lon="6.46665">
        <ele>700</ele>
        <time>2022-08-16T07:01:58Z</time>
      </trkpt>
      <trkpt lat="45.71818" lon="6.46668">
        <ele>700</ele>
        <time>2022-08-16T07:01:59Z</time>
      </trkpt>
      <trkpt lat="45.71817" lon="6.46672">
        <ele>700</ele>
        <time>2022-08-16T07:02:00Z</time>
      </trkpt>
      <trkpt lat="45.71816" lon="6.46674">
        <ele>700</ele>
        <time>2022-08-16T07:02:01Z</time>
      </trkpt>
      <trkpt lat="45.71816" lon="6.46676">
        <ele>700</ele>
        <time>2022-08-16T07:02:02Z</time>
      </trkpt>
      <trkpt lat="45.71815" lon="6.46678">
        <ele>700</ele>
        <time>2022-08-16T07:02:03Z</time>
      </trkpt>
      <trkpt lat="45.71814" lon="6.4668">
        <ele>700</ele>
        <time>2022-08-16T07:02:04Z</time>
      </trkpt>
      <trkpt lat="45.71813" lon="6.46682">
        <ele>700</ele>
        <time>2022-08-16T07:02:05Z</time>
      </trkpt>
      <trkpt lat="45.71812" lon="6.46683">
        <ele>701</ele>
        <time>2022-08-16T07:02:06Z</time>
      </trkpt>
      <trkpt lat="45.71812" lon="6.46686">
        <ele>700</ele>
        <time>2022-08-16T07:02:07Z</time>
      </trkpt>
      <trkpt lat="45.71811" lon="6.46688">
        <ele>700</ele>
        <time>2022-08-16T07:02:08Z</time>
      </trkpt>
      <trkpt lat="45.7181" lon="6.46689">
        <ele>701</ele>
        <time>2022-08-16T07:02:09Z</time>
      </trkpt>
      <trkpt lat="45.71808" lon="6.46689">
        <ele>701</ele>
        <time>2022-08-16T07:02:10Z</time>
      </trkpt>
      <trkpt lat="45.71807" lon="6.4669">
        <ele>700</ele>
        <time>2022-08-16T07:02:11Z</time>
      </trkpt>
      <trkpt lat="45.71805" lon="6.46691">
        <ele>701</ele>
        <time>2022-08-16T07:02:12Z</time>
      </trkpt>
      <trkpt lat="45.71803" lon="6.46693">
        <ele>702</ele>
        <time>2022-08-16T07:02:13Z</time>
      </trkpt>
      <trkpt lat="45.71801" lon="6.46694">
        <ele>702</ele>
        <time>2022-08-16T07:02:14Z</time>
      </trkpt>
      <trkpt lat="45.718" lon="6.46696">
        <ele>702</ele>
        <time>2022-08-16T07:02:15Z</time>
      </trkpt>
      <trkpt lat="45.71798" lon="6.46697">
        <ele>703</ele>
        <time>2022-08-16T07:02:16Z</time>
      </trkpt>
      <trkpt lat="45.71796" lon="6.46698">
        <ele>703</ele>
        <time>2022-08-16T07:02:17Z</time>
      </trkpt>
      <trkpt lat="45.71794" lon="6.46699">
        <ele>704</ele>
        <time>2022-08-16T07:02:18Z</time>
      </trkpt>
      <trkpt lat="45.71792" lon="6.467">
        <ele>704</ele>
        <time>2022-08-16T07:02:19Z</time>
      </trkpt>
      <trkpt lat="45.71791" lon="6.46701">
        <ele>704</ele>
        <time>2022-08-16T07:02:20Z</time>
      </trkpt>
      <trkpt lat="45.7179" lon="6.46702">
        <ele>704</ele>
        <time>2022-08-16T07:02:21Z</time>
      </trkpt>
      <trkpt lat="45.71788" lon="6.46703">
        <ele>703</ele>
        <time>2022-08-16T07:02:22Z</time>
      </trkpt>
      <trkpt lat="45.71787" lon="6.46704">
        <ele>703</ele>
        <time>2022-08-16T07:02:23Z</time>
      </trkpt>
      <trkpt lat="45.71786" lon="6.46705">
        <ele>703</ele>
        <time>2022-08-16T07:02:24Z</time>
      </trkpt>
      <trkpt lat="45.71784" lon="6.46706">
        <ele>703</ele>
        <time>2022-08-16T07:02:25Z</time>
      </trkpt>
      <trkpt lat="45.71783" lon="6.46708">
        <ele>704</ele>
        <time>2022-08-16T07:02:26Z</time>
      </trkpt>
      <trkpt lat="45.71783" lon="6.46709">
        <ele>704</ele>
        <time>2022-08-16T07:02:27Z</time>
      </trkpt>
      <trkpt lat="45.71781" lon="6.46711">
        <ele>704</ele>
        <time>2022-08-16T07:02:28Z</time>
      </trkpt>
      <trkpt lat="45.7178" lon="6.46713">
        <ele>704</ele>
        <time>2022-08-16T07:02:29Z</time>
      </trkpt>
      <trkpt lat="45.71779" lon="6.46715">
        <ele>704</ele>
        <time>2022-08-16T07:02:30Z</time>
      </trkpt>
      <trkpt lat="45.71777" lon="6.46717">
        <ele>704</ele>
        <time>2022-08-16T07:02:31Z</time>
      </trkpt>
      <trkpt lat="45.71776" lon="6.46719">
        <ele>704</ele>
        <time>2022-08-16T07:02:32Z</time>
      </trkpt>
      <trkpt lat="45.71775" lon="6.46721">
        <ele>704</ele>
        <time>2022-08-16T07:02:33Z</time>
      </trkpt>
      <trkpt lat="45.71773" lon="6.46723">
        <ele>705</ele>
        <time>2022-08-16T07:02:34Z</time>
      </trkpt>
      <trkpt lat="45.71772" lon="6.46724">
        <ele>705</ele>
        <time>2022-08-16T07:02:35Z</time>
      </trkpt>
      <trkpt lat="45.71771" lon="6.46726">
        <ele>705</ele>
        <time>2022-08-16T07:02:36Z</time>
      </trkpt>
      <trkpt lat="45.7177" lon="6.46728">
        <ele>706</ele>
        <time>2022-08-16T07:02:37Z</time>
      </trkpt>
      <trkpt lat="45.71769" lon="6.46731">
        <ele>706</ele>
        <time>2022-08-16T07:02:38Z</time>
      </trkpt>
      <trkpt lat="45.71768" lon="6.46733">
        <ele>706</ele>
        <time>2022-08-16T07:02:39Z</time>
      </trkpt>
      <trkpt lat="45.71768" lon="6.46735">
        <ele>706</ele>
        <time>2022-08-16T07:02:40Z</time>
      </trkpt>
      <trkpt lat="45.71767" lon="6.46737">
        <ele>706</ele>
        <time>2022-08-16T07:02:41Z</time>
      </trkpt>
      <trkpt lat="45.71767" lon="6.46739">
        <ele>706</ele>
        <time>2022-08-16T07:02:42Z</time>
      </trkpt>
      <trkpt lat="45.71766" lon="6.4674">
        <ele>706</ele>
        <time>2022-08-16T07:02:43Z</time>
      </trkpt>
      <trkpt lat="45.71766" lon="6.46742">
        <ele>706</ele>
        <time>2022-08-16T07:02:44Z</time>
      </trkpt>
      <trkpt lat="45.71765" lon="6.46744">
        <ele>706</ele>
        <time>2022-08-16T07:02:45Z</time>
      </trkpt>
      <trkpt lat="45.71765" lon="6.46746">
        <ele>706</ele>
        <time>2022-08-16T07:02:46Z</time>
      </trkpt>
      <trkpt lat="45.71764" lon="6.46748">
        <ele>706</ele>
        <time>2022-08-16T07:02:47Z</time>
      </trkpt>
      <trkpt lat="45.71764" lon="6.4675">
        <ele>706</ele>
        <time>2022-08-16T07:02:48Z</time>
      </trkpt>
      <trkpt lat="45.71763" lon="6.46753">
        <ele>706</ele>
        <time>2022-08-16T07:02:49Z</time>
      </trkpt>
      <trkpt lat="45.71763" lon="6.46754">
        <ele>705</ele>
        <time>2022-08-16T07:02:50Z</time>
      </trkpt>
      <trkpt lat="45.71762" lon="6.46756">
        <ele>706</ele>
        <time>2022-08-16T07:02:51Z</time>
      </trkpt>
      <trkpt lat="45.71761" lon="6.46758">
        <ele>706</ele>
        <time>2022-08-16T07:02:52Z</time>
      </trkpt>
      <trkpt lat="45.7176" lon="6.46761">
        <ele>706</ele>
        <time>2022-08-16T07:02:53Z</time>
      </trkpt>
      <trkpt lat="45.7176" lon="6.46764">
        <ele>707</ele>
        <time>2022-08-16T07:02:54Z</time>
      </trkpt>
      <trkpt lat="45.71759" lon="6.46766">
        <ele>706</ele>
        <time>2022-08-16T07:02:55Z</time>
      </trkpt>
      <trkpt lat="45.71759" lon="6.46769">
        <ele>706</ele>
        <time>2022-08-16T07:02:56Z</time>
      </trkpt>
      <trkpt lat="45.71759" lon="6.46771">
        <ele>706</ele>
        <time>2022-08-16T07:02:57Z</time>
      </trkpt>
      <trkpt lat="45.71759" lon="6.46773">
        <ele>706</ele>
        <time>2022-08-16T07:02:58Z</time>
      </trkpt>
      <trkpt lat="45.71732" lon="6.46839">
        <ele>725</ele>
        <time>2022-08-16T07:03:28Z</time>
      </trkpt>
      <trkpt lat="45.71732" lon="6.46841">
        <ele>725</ele>
        <time>2022-08-16T07:03:29Z</time>
      </trkpt>
      <trkpt lat="45.71731" lon="6.46844">
        <ele>723</ele>
        <time>2022-08-16T07:03:30Z</time>
      </trkpt>
      <trkpt lat="45.71731" lon="6.46846">
        <ele>723</ele>
        <time>2022-08-16T07:03:31Z</time>
      </trkpt>
      <trkpt lat="45.71731" lon="6.46849">
        <ele>722</ele>
        <time>2022-08-16T07:03:32Z</time>
      </trkpt>
      <trkpt lat="45.7173" lon="6.46851">
        <ele>722</ele>
        <time>2022-08-16T07:03:33Z</time>
      </trkpt>
      <trkpt lat="45.71728" lon="6.46852">
        <ele>722</ele>
        <time>2022-08-16T07:03:34Z</time>
      </trkpt>
      <trkpt lat="45.71727" lon="6.46855">
        <ele>723</ele>
        <time>2022-08-16T07:03:35Z</time>
      </trkpt>
      <trkpt lat="45.71727" lon="6.46858">
        <ele>723</ele>
        <time>2022-08-16T07:03:36Z</time>
      </trkpt>
      <trkpt lat="45.71727" lon="6.46861">
        <ele>722</ele>
        <time>2022-08-16T07:03:37Z</time>
      </trkpt>
      <trkpt lat="45.71725" lon="6.46863">
        <ele>722</ele>
        <time>2022-08-16T07:03:38Z</time>
      </trkpt>
      <trkpt lat="45.71725" lon="6.46866">
        <ele>722</ele>
        <time>2022-08-16T07:03:39Z</time>
      </trkpt>
      <trkpt lat="45.71725" lon="6.46869">
        <ele>722</ele>
        <time>2022-08-16T07:03:40Z</time>
      </trkpt>
      <trkpt lat="45.71723" lon="6.4687">
        <ele>722</ele>
        <time>2022-08-16T07:03:41Z</time>
      </trkpt>
      <trkpt lat="45.71722" lon="6.46872">
        <ele>723</ele>
        <time>2022-08-16T07:03:42Z</time>
      </trkpt>
      <trkpt lat="45.71722" lon="6.46874">
        <ele>723</ele>
        <time>2022-08-16T07:03:43Z</time>
      </trkpt>
      <trkpt lat="45.71721" lon="6.46876">
        <ele>723</ele>
        <time>2022-08-16T07:03:44Z</time>
      </trkpt>
      <trkpt lat="45.71721" lon="6.46878">
        <ele>723</ele>
        <time>2022-08-16T07:03:45Z</time>
      </trkpt>
      <trkpt lat="45.71721" lon="6.46881">
        <ele>723</ele>
        <time>2022-08-16T07:03:46Z</time>
      </trkpt>
      <trkpt lat="45.71721" lon="6.46883">
        <ele>723</ele>
        <time>2022-08-16T07:03:47Z</time>
      </trkpt>
      <trkpt lat="45.7172" lon="6.46885">
        <ele>723</ele>
        <time>2022-08-16T07:03:48Z</time>
      </trkpt>
      <trkpt lat="45.71719" lon="6.46887">
        <ele>723</ele>
        <time>2022-08-16T07:03:49Z</time>
      </trkpt>
      <trkpt lat="45.71718" lon="6.46889">
        <ele>723</ele>
        <time>2022-08-16T07:03:50Z</time>
      </trkpt>
      <trkpt lat="45.71718" lon="6.46891">
        <ele>724</ele>
        <time>2022-08-16T07:03:51Z</time>
      </trkpt>
      <trkpt lat="45.71718" lon="6.46893">
        <ele>724</ele>
        <time>2022-08-16T07:03:52Z</time>
      </trkpt>
      <trkpt lat="45.71717" lon="6.46895">
        <ele>724</ele>
        <time>2022-08-16T07:03:53Z</time>
      </trkpt>
      <trkpt lat="45.71717" lon="6.46897">
        <ele>724</ele>
        <time>2022-08-16T07:03:54Z</time>
      </trkpt>
      <trkpt lat="45.71717" lon="6.46898">
        <ele>724</ele>
        <time>2022-08-16T07:03:55Z</time>
      </trkpt>
      <trkpt lat="45.71716" lon="6.469">
        <ele>723</ele>
        <time>2022-08-16T07:03:56Z</time>
      </trkpt>
      <trkpt lat="45.71716" lon="6.46902">
        <ele>723</ele>
        <time>2022-08-16T07:03:57Z</time>
      </trkpt>
      <trkpt lat="45.71715" lon="6.46905">
        <ele>723</ele>
        <time>2022-08-16T07:03:58Z</time>
      </trkpt>
      <trkpt lat="45.71715" lon="6.46907">
        <ele>723</ele>
        <time>2022-08-16T07:03:59Z</time>
      </trkpt>
      <trkpt lat="45.71714" lon="6.46909">
        <ele>723</ele>
        <time>2022-08-16T07:04:00Z</time>
      </trkpt>
      <trkpt lat="45.71714" lon="6.46911">
        <ele>723</ele>
        <time>2022-08-16T07:04:01Z</time>
      </trkpt>
      <trkpt lat="45.71714" lon="6.46913">
        <ele>723</ele>
        <time>2022-08-16T07:04:02Z</time>
      </trkpt>
      <trkpt lat="45.71713" lon="6.46916">
        <ele>723</ele>
        <time>2022-08-16T07:04:03Z</time>
      </trkpt>
      <trkpt lat="45.71713" lon="6.46918">
        <ele>722</ele>
        <time>2022-08-16T07:04:04Z</time>
      </trkpt>
      <trkpt lat="45.71713" lon="6.4692">
        <ele>722</ele>
        <time>2022-08-16T07:04:05Z</time>
      </trkpt>
      <trkpt lat="45.71713" lon="6.46922">
        <ele>722</ele>
        <time>2022-08-16T07:04:06Z</time>
      </trkpt>
      <trkpt lat="45.71712" lon="6.46923">
        <ele>722</ele>
        <time>2022-08-16T07:04:07Z</time>
      </trkpt>
      <trkpt lat="45.71711" lon="6.46924">
        <ele>722</ele>
        <time>2022-08-16T07:04:08Z</time>
      </trkpt>
      <trkpt lat="45.71711" lon="6.46926">
        <ele>722</ele>
        <time>2022-08-16T07:04:09Z</time>
      </trkpt>
      <trkpt lat="45.71711" lon="6.46928">
        <ele>722</ele>
        <time>2022-08-16T07:04:10Z</time>
      </trkpt>
      <trkpt lat="45.7171" lon="6.4693">
        <ele>722</ele>
        <time>2022-08-16T07:04:11Z</time>
      </trkpt>
      <trkpt lat="45.7171" lon="6.46932">
        <ele>722</ele>
        <time>2022-08-16T07:04:12Z</time>
      </trkpt>
      <trkpt lat="45.7171" lon="6.46934">
        <ele>722</ele>
        <time>2022-08-16T07:04:13Z</time>
      </trkpt>
      <trkpt lat="45.71709" lon="6.46936">
        <ele>722</ele>
        <time>2022-08-16T07:04:14Z</time>
      </trkpt>
      <trkpt lat="45.71708" lon="6.46939">
        <ele>721</ele>
        <time>2022-08-16T07:04:15Z</time>
      </trkpt>
      <trkpt lat="45.71707" lon="6.46941">
        <ele>722</ele>
        <time>2022-08-16T07:04:16Z</time>
      </trkpt>
      <trkpt lat="45.71707" lon="6.46944">
        <ele>722</ele>
        <time>2022-08-16T07:04:17Z</time>
      </trkpt>
      <trkpt lat="45.71706" lon="6.46946">
        <ele>722</ele>
        <time>2022-08-16T07:04:18Z</time>
      </trkpt>
      <trkpt lat="45.71706" lon="6.46948">
        <ele>721</ele>
        <time>2022-08-16T07:04:19Z</time>
      </trkpt>
      <trkpt lat="45.71706" lon="6.4695">
        <ele>721</ele>
        <time>2022-08-16T07:04:20Z</time>
      </trkpt>
      <trkpt lat="45.71705" lon="6.46953">
        <ele>721</ele>
        <time>2022-08-16T07:04:21Z</time>
      </trkpt>
      <trkpt lat="45.71705" lon="6.46956">
        <ele>721</ele>
        <time>2022-08-16T07:04:22Z</time>
      </trkpt>
      <trkpt lat="45.71705" lon="6.46959">
        <ele>721</ele>
        <time>2022-08-16T07:04:23Z</time>
      </trkpt>
      <trkpt lat="45.71705" lon="6.46962">
        <ele>722</ele>
        <time>2022-08-16T07:04:24Z</time>
      </trkpt>
      <trkpt lat="45.71704" lon="6.46965">
        <ele>721</ele>
        <time>2022-08-16T07:04:25Z</time>
      </trkpt>
      <trkpt lat="45.71704" lon="6.46968">
        <ele>721</ele>
        <time>2022-08-16T07:04:26Z</time>
      </trkpt>
      <trkpt lat="45.71703" lon="6.46971">
        <ele>721</ele>
        <time>2022-08-16T07:04:27Z</time>
      </trkpt>
      <trkpt lat="45.71703" lon="6.46975">
        <ele>721</ele>
        <time>2022-08-16T07:04:28Z</time>
      </trkpt>
      <trkpt lat="45.71702" lon="6.46978">
        <ele>721</ele>
        <time>2022-08-16T07:04:29Z</time>
      </trkpt>
      <trkpt lat="45.71702" lon="6.46981">
        <ele>722</ele>
        <time>2022-08-16T07:04:30Z</time>
      </trkpt>
      <trkpt lat="45.71701" lon="6.46984">
        <ele>722</ele>
        <time>2022-08-16T07:04:31Z</time>
      </trkpt>
      <trkpt lat="45.71701" lon="6.46986">
        <ele>723</ele>
        <time>2022-08-16T07:04:32Z</time>
      </trkpt>
      <trkpt lat="45.717" lon="6.46988">
        <ele>723</ele>
        <time>2022-08-16T07:04:33Z</time>
      </trkpt>
      <trkpt lat="45.71699" lon="6.46991">
        <ele>724</ele>
        <time>2022-08-16T07:04:34Z</time>
      </trkpt>
      <trkpt lat="45.71699" lon="6.46993">
        <ele>725</ele>
        <time>2022-08-16T07:04:35Z</time>
      </trkpt>
      <trkpt lat="45.71698" lon="6.46994">
        <ele>725</ele>
        <time>2022-08-16T07:04:36Z</time>
      </trkpt>
      <trkpt lat="45.71697" lon="6.46996">
        <ele>725</ele>
        <time>2022-08-16T07:04:37Z</time>
      </trkpt>
      <trkpt lat="45.71696" lon="6.46998">
        <ele>725</ele>
        <time>2022-08-16T07:04:38Z</time>
      </trkpt>
      <trkpt lat="45.71696" lon="6.46999">
        <ele>725</ele>
        <time>2022-08-16T07:04:39Z</time>
      </trkpt>
      <trkpt lat="45.71696" lon="6.47001">
        <ele>726</ele>
        <time>2022-08-16T07:04:40Z</time>
      </trkpt>
      <trkpt lat="45.71695" lon="6.47002">
        <ele>726</ele>
        <time>2022-08-16T07:04:41Z</time>
      </trkpt>
      <trkpt lat="45.71694" lon="6.47004">
        <ele>726</ele>
        <time>2022-08-16T07:04:42Z</time>
      </trkpt>
      <trkpt lat="45.71693" lon="6.47006">
        <ele>726</ele>
        <time>2022-08-16T07:04:43Z</time>
      </trkpt>
      <trkpt lat="45.71693" lon="6.47007">
        <ele>726</ele>
        <time>2022-08-16T07:04:44Z</time>
      </trkpt>
      <trkpt lat="45.71692" lon="6.47009">
        <ele>726</ele>
        <time>2022-08-16T07:04:45Z</time>
      </trkpt>
      <trkpt lat="45.71692" lon="6.47011">
        <ele>727</ele>
        <time>2022-08-16T07:04:46Z</time>
      </trkpt>
      <trkpt lat="45.71692" lon="6.47012">
        <ele>727</ele>
        <time>2022-08-16T07:04:47Z</time>
      </trkpt>
      <trkpt lat="45.71691" lon="6.47014">
        <ele>727</ele>
        <time>2022-08-16T07:04:48Z</time>
      </trkpt>
      <trkpt lat="45.71691" lon="6.47016">
        <ele>727</ele>
        <time>2022-08-16T07:04:49Z</time>
      </trkpt>
      <trkpt lat="45.7169" lon="6.47018">
        <ele>727</ele>
        <time>2022-08-16T07:04:50Z</time>
      </trkpt>
      <trkpt lat="45.7169" lon="6.47019">
        <ele>727</ele>
        <time>2022-08-16T07:04:51Z</time>
      </trkpt>
      <trkpt lat="45.71689" lon="6.47021">
        <ele>727</ele>
        <time>2022-08-16T07:04:52Z</time>
      </trkpt>
      <trkpt lat="45.71688" lon="6.47024">
        <ele>726</ele>
        <time>2022-08-16T07:04:53Z</time>
      </trkpt>
      <trkpt lat="45.71687" lon="6.47026">
        <ele>726</ele>
        <time>2022-08-16T07:04:54Z</time>
      </trkpt>
      <trkpt lat="45.71687" lon="6.47028">
        <ele>727</ele>
        <time>2022-08-16T07:04:55Z</time>
      </trkpt>
      <trkpt lat="45.71686" lon="6.4703">
        <ele>727</ele>
        <time>2022-08-16T07:04:56Z</time>
      </trkpt>
      <trkpt lat="45.71685" lon="6.47032">
        <ele>727</ele>
        <time>2022-08-16T07:04:57Z</time>
      </trkpt>
      <trkpt lat="45.71684" lon="6.47034">
        <ele>727</ele>
        <time>2022-08-16T07:04:58Z</time>
      </trkpt>
      <trkpt lat="45.71682" lon="6.47035">
        <ele>728</ele>
        <time>2022-08-16T07:04:59Z</time>
      </trkpt>
      <trkpt lat="45.71681" lon="6.47037">
        <ele>729</ele>
        <time>2022-08-16T07:05:00Z</time>
      </trkpt>
      <trkpt lat="45.71679" lon="6.47038">
        <ele>730</ele>
        <time>2022-08-16T07:05:01Z</time>
      </trkpt>
      <trkpt lat="45.71677" lon="6.47039">
        <ele>731</ele>
        <time>2022-08-16T07:05:02Z</time>
      </trkpt>
      <trkpt lat="45.71675" lon="6.4704">
        <ele>731</ele>
        <time>2022-08-16T07:05:03Z</time>
      </trkpt>
      <trkpt lat="45.71673" lon="6.47042">
        <ele>731</ele>
        <time>2022-08-16T07:05:04Z</time>
      </trkpt>
      <trkpt lat="45.71671" lon="6.47043">
        <ele>731</ele>
        <time>2022-08-16T07:05:05Z</time>
      </trkpt>
      <trkpt lat="45.71669" lon="6.47044">
        <ele>732</ele>
        <time>2022-08-16T07:05:06Z</time>
      </trkpt>
      <trkpt lat="45.71667" lon="6.47046">
        <ele>732</ele>
        <time>2022-08-16T07:05:07Z</time>
      </trkpt>
      <trkpt lat="45.71666" lon="6.47048">
        <ele>733</ele>
        <time>2022-08-16T07:05:08Z</time>
      </trkpt>
      <trkpt lat="45.71665" lon="6.47051">
        <ele>734</ele>
        <time>2022-08-16T07:05:09Z</time>
      </trkpt>
      <trkpt lat="45.71663" lon="6.47054">
        <ele>734</ele>
        <time>2022-08-16T07:05:10Z</time>
      </trkpt>
      <trkpt lat="45.71663" lon="6.47056">
        <ele>735</ele>
        <time>2022-08-16T07:05:11Z</time>
      </trkpt>
      <trkpt lat="45.71662" lon="6.47059">
        <ele>735</ele>
        <time>2022-08-16T07:05:12Z</time>
      </trkpt>
      <trkpt lat="45.71661" lon="6.47062">
        <ele>735</ele>
        <time>2022-08-16T07:05:13Z</time>
      </trkpt>
      <trkpt lat="45.71661" lon="6.47065">
        <ele>736</ele>
        <time>2022-08-16T07:05:14Z</time>
      </trkpt>
      <trkpt lat="45.7166" lon="6.47068">
        <ele>736</ele>
        <time>2022-08-16T07:05:15Z</time>
      </trkpt>
      <trkpt lat="45.7166" lon="6.47071">
        <ele>736</ele>
        <time>2022-08-16T07:05:16Z</time>
      </trkpt>
      <trkpt lat="45.71659" lon="6.47074">
        <ele>736</ele>
        <time>2022-08-16T07:05:17Z</time>
      </trkpt>
      <trkpt lat="45.71659" lon="6.47077">
        <ele>736</ele>
        <time>2022-08-16T07:05:18Z</time>
      </trkpt>
      <trkpt lat="45.71658" lon="6.4708">
        <ele>735</ele>
        <time>2022-08-16T07:05:19Z</time>
      </trkpt>
      <trkpt lat="45.71658" lon="6.47082">
        <ele>736</ele>
        <time>2022-08-16T07:05:20Z</time>
      </trkpt>
      <trkpt lat="45.71658" lon="6.47085">
        <ele>736</ele>
        <time>2022-08-16T07:05:21Z</time>
      </trkpt>
      <trkpt lat="45.71657" lon="6.47087">
        <ele>736</ele>
        <time>2022-08-16T07:05:22Z</time>
      </trkpt>
      <trkpt lat="45.71657" lon="6.47089">
        <ele>736</ele>
        <time>2022-08-16T07:05:23Z</time>
      </trkpt>
      <trkpt lat="45.71656" lon="6.47092">
        <ele>737</ele>
        <time>2022-08-16T07:05:24Z</time>
      </trkpt>
      <trkpt lat="45.71656" lon="6.47094">
        <ele>737</ele>
        <time>2022-08-16T07:05:25Z</time>
      </trkpt>
      <trkpt lat="45.71656" lon="6.47096">
        <ele>736</ele>
        <time>2022-08-16T07:05:26Z</time>
      </trkpt>
      <trkpt lat="45.71655" lon="6.47098">
        <ele>737</ele>
        <time>2022-08-16T07:05:27Z</time>
      </trkpt>
      <trkpt lat="45.71654" lon="6.471">
        <ele>737</ele>
        <time>2022-08-16T07:05:28Z</time>
      </trkpt>
      <trkpt lat="45.71653" lon="6.47103">
        <ele>737</ele>
        <time>2022-08-16T07:05:29Z</time>
      </trkpt>
      <trkpt lat="45.71653" lon="6.47105">
        <ele>737</ele>
        <time>2022-08-16T07:05:30Z</time>
      </trkpt>
      <trkpt lat="45.71653" lon="6.47108">
        <ele>737</ele>
        <time>2022-08-16T07:05:31Z</time>
      </trkpt>
      <trkpt lat="45.71653" lon="6.47112">
        <ele>737</ele>
        <time>2022-08-16T07:05:32Z</time>
      </trkpt>
      <trkpt lat="45.71652" lon="6.47114">
        <ele>737</ele>
        <time>2022-08-16T07:05:33Z</time>
      </trkpt>
      <trkpt lat="45.71652" lon="6.47117">
        <ele>737</ele>
        <time>2022-08-16T07:05:34Z</time>
      </trkpt>
      <trkpt lat="45.71651" lon="6.4712">
        <ele>737</ele>
        <time>2022-08-16T07:05:35Z</time>
      </trkpt>
      <trkpt lat="45.71651" lon="6.47122">
        <ele>738</ele>
        <time>2022-08-16T07:05:36Z</time>
      </trkpt>
      <trkpt lat="45.7165" lon="6.47124">
        <ele>738</ele>
        <time>2022-08-16T07:05:37Z</time>
      </trkpt>
      <trkpt lat="45.71649" lon="6.47126">
        <ele>739</ele>
        <time>2022-08-16T07:05:38Z</time>
      </trkpt>
      <trkpt lat="45.71649" lon="6.47129">
        <ele>739</ele>
        <time>2022-08-16T07:05:39Z</time>
      </trkpt>
      <trkpt lat="45.71649" lon="6.47132">
        <ele>739</ele>
        <time>2022-08-16T07:05:40Z</time>
      </trkpt>
      <trkpt lat="45.71648" lon="6.47135">
        <ele>738</ele>
        <time>2022-08-16T07:05:41Z</time>
      </trkpt>
      <trkpt lat="45.71648" lon="6.47137">
        <ele>738</ele>
        <time>2022-08-16T07:05:42Z</time>
      </trkpt>
      <trkpt lat="45.71647" lon="6.47139">
        <ele>738</ele>
        <time>2022-08-16T07:05:43Z</time>
      </trkpt>
      <trkpt lat="45.71647" lon="6.47141">
        <ele>738</ele>
        <time>2022-08-16T07:05:44Z</time>
      </trkpt>
      <trkpt lat="45.71647" lon="6.47144">
        <ele>737</ele>
        <time>2022-08-16T07:05:45Z</time>
      </trkpt>
      <trkpt lat="45.71646" lon="6.47147">
        <ele>737</ele>
        <time>2022-08-16T07:05:46Z</time>
      </trkpt>
      <trkpt lat="45.71646" lon="6.4715">
        <ele>736</ele>
        <time>2022-08-16T07:05:47Z</time>
      </trkpt>
      <trkpt lat="45.71646" lon="6.47153">
        <ele>736</ele>
        <time>2022-08-16T07:05:48Z</time>
      </trkpt>
      <trkpt lat="45.71646" lon="6.47156">
        <ele>736</ele>
        <time>2022-08-16T07:05:49Z</time>
      </trkpt>
      <trkpt lat="45.71646" lon="6.47159">
        <ele>737</ele>
        <time>2022-08-16T07:05:50Z</time>
      </trkpt>
      <trkpt lat="45.71646" lon="6.47162">
        <ele>737</ele>
        <time>2022-08-16T07:05:51Z</time>
      </trkpt>
      <trkpt lat="45.71646" lon="6.47164">
        <ele>737</ele>
        <time>2022-08-16T07:05:52Z</time>
      </trkpt>
      <trkpt lat="45.71645" lon="6.47167">
        <ele>736</ele>
        <time>2022-08-16T07:05:53Z</time>
      </trkpt>
      <trkpt lat="45.71645" lon="6.47169">
        <ele>736</ele>
        <time>2022-08-16T07:05:54Z</time>
      </trkpt>
      <trkpt lat="45.71645" lon="6.47172">
        <ele>736</ele>
        <time>2022-08-16T07:05:55Z</time>
      </trkpt>
      <trkpt lat="45.71645" lon="6.47175">
        <ele>736</ele>
        <time>2022-08-16T07:05:56Z</time>
      </trkpt>
      <trkpt lat="45.71645" lon="6.47177">
        <ele>736</ele>
        <time>2022-08-16T07:05:57Z</time>
      </trkpt>
      <trkpt lat="45.71645" lon="6.47179">
        <ele>736</ele>
        <time>2022-08-16T07:05:58Z</time>
      </trkpt>
      <trkpt lat="45.71645" lon="6.47181">
        <ele>736</ele>
        <time>2022-08-16T07:05:59Z</time>
      </trkpt>
      <trkpt lat="45.71645" lon="6.47183">
        <ele>737</ele>
        <time>2022-08-16T07:06:00Z</time>
      </trkpt>
      <trkpt lat="45.71646" lon="6.47185">
        <ele>737</ele>
        <time>2022-08-16T07:06:01Z</time>
      </trkpt>
      <trkpt lat="45.71646" lon="6.47187">
        <ele>737</ele>
        <time>2022-08-16T07:06:02Z</time>
      </trkpt>
      <trkpt lat="45.71645" lon="6.47188">
        <ele>737</ele>
        <time>2022-08-16T07:06:03Z</time>
      </trkpt>
      <trkpt lat="45.71645" lon="6.47191">
        <ele>737</ele>
        <time>2022-08-16T07:06:04Z</time>
      </trkpt>
      <trkpt lat="45.71645" lon="6.47193">
        <ele>737</ele>
        <time>2022-08-16T07:06:05Z</time>
      </trkpt>
      <trkpt lat="45.71645" lon="6.47194">
        <ele>737</ele>
        <time>2022-08-16T07:06:06Z</time>
      </trkpt>
      <trkpt lat="45.71645" lon="6.47196">
        <ele>737</ele>
        <time>2022-08-16T07:06:07Z</time>
      </trkpt>
      <trkpt lat="45.71644" lon="6.47198">
        <ele>737</ele>
        <time>2022-08-16T07:06:08Z</time>
      </trkpt>
      <trkpt lat="45.71644" lon="6.472">
        <ele>736</ele>
        <time>2022-08-16T07:06:09Z</time>
      </trkpt>
      <trkpt lat="45.71644" lon="6.47202">
        <ele>736</ele>
        <time>2022-08-16T07:06:10Z</time>
      </trkpt>
      <trkpt lat="45.71645" lon="6.47206">
        <ele>737</ele>
        <time>2022-08-16T07:06:11Z</time>
      </trkpt>
      <trkpt lat="45.71645" lon="6.47208">
        <ele>737</ele>
        <time>2022-08-16T07:06:12Z</time>
      </trkpt>
      <trkpt lat="45.71646" lon="6.47212">
        <ele>737</ele>
        <time>2022-08-16T07:06:13Z</time>
      </trkpt>
      <trkpt lat="45.71646" lon="6.47215">
        <ele>737</ele>
        <time>2022-08-16T07:06:14Z</time>
      </trkpt>
      <trkpt lat="45.71647" lon="6.47217">
        <ele>737</ele>
        <time>2022-08-16T07:06:15Z</time>
      </trkpt>
      <trkpt lat="45.71647" lon="6.4722">
        <ele>737</ele>
        <time>2022-08-16T07:06:16Z</time>
      </trkpt>
      <trkpt lat="45.71648" lon="6.47223">
        <ele>737</ele>
        <time>2022-08-16T07:06:17Z</time>
      </trkpt>
      <trkpt lat="45.71648" lon="6.47226">
        <ele>738</ele>
        <time>2022-08-16T07:06:18Z</time>
      </trkpt>
      <trkpt lat="45.71649" lon="6.47229">
        <ele>738</ele>
        <time>2022-08-16T07:06:19Z</time>
      </trkpt>
      <trkpt lat="45.71649" lon="6.47231">
        <ele>739</ele>
        <time>2022-08-16T07:06:20Z</time>
      </trkpt>
      <trkpt lat="45.7165" lon="6.47234">
        <ele>739</ele>
        <time>2022-08-16T07:06:21Z</time>
      </trkpt>
      <trkpt lat="45.7165" lon="6.47236">
        <ele>739</ele>
        <time>2022-08-16T07:06:22Z</time>
      </trkpt>
      <trkpt lat="45.71649" lon="6.47238">
        <ele>740</ele>
        <time>2022-08-16T07:06:23Z</time>
      </trkpt>
      <trkpt lat="45.71649" lon="6.47241">
        <ele>740</ele>
        <time>2022-08-16T07:06:24Z</time>
      </trkpt>
      <trkpt lat="45.7165" lon="6.47243">
        <ele>740</ele>
        <time>2022-08-16T07:06:25Z</time>
      </trkpt>
      <trkpt lat="45.71649" lon="6.47245">
        <ele>740</ele>
        <time>2022-08-16T07:06:26Z</time>
      </trkpt>
      <trkpt lat="45.71649" lon="6.47248">
        <ele>739</ele>
        <time>2022-08-16T07:06:27Z</time>
      </trkpt>
      <trkpt lat="45.71648" lon="6.4725">
        <ele>739</ele>
        <time>2022-08-16T07:06:28Z</time>
      </trkpt>
      <trkpt lat="45.71648" lon="6.47252">
        <ele>739</ele>
        <time>2022-08-16T07:06:29Z</time>
      </trkpt>
      <trkpt lat="45.71647" lon="6.47255">
        <ele>738</ele>
        <time>2022-08-16T07:06:30Z</time>
      </trkpt>
      <trkpt lat="45.71646" lon="6.47256">
        <ele>739</ele>
        <time>2022-08-16T07:06:31Z</time>
      </trkpt>
      <trkpt lat="45.71646" lon="6.47258">
        <ele>739</ele>
        <time>2022-08-16T07:06:32Z</time>
      </trkpt>
      <trkpt lat="45.71646" lon="6.4726">
        <ele>738</ele>
        <time>2022-08-16T07:06:33Z</time>
      </trkpt>
      <trkpt lat="45.71646" lon="6.47263">
        <ele>738</ele>
        <time>2022-08-16T07:06:34Z</time>
      </trkpt>
      <trkpt lat="45.71646" lon="6.47266">
        <ele>738</ele>
        <time>2022-08-16T07:06:35Z</time>
      </trkpt>
      <trkpt lat="45.71646" lon="6.47268">
        <ele>738</ele>
        <time>2022-08-16T07:06:36Z</time>
      </trkpt>
      <trkpt lat="45.71645" lon="6.47271">
        <ele>738</ele>
        <time>2022-08-16T07:06:37Z</time>
      </trkpt>
      <trkpt lat="45.71645" lon="6.47272">
        <ele>739</ele>
        <time>2022-08-16T07:06:38Z</time>
      </trkpt>
      <trkpt lat="45.71643" lon="6.47274">
        <ele>740</ele>
        <time>2022-08-16T07:06:39Z</time>
      </trkpt>
      <trkpt lat="45.71643" lon="6.47278">
        <ele>741</ele>
        <time>2022-08-16T07:06:40Z</time>
      </trkpt>
      <trkpt lat="45.71643" lon="6.47282">
        <ele>742</ele>
        <time>2022-08-16T07:06:41Z</time>
      </trkpt>
      <trkpt lat="45.71643" lon="6.47285">
        <ele>742</ele>
        <time>2022-08-16T07:06:42Z</time>
      </trkpt>
      <trkpt lat="45.71643" lon="6.47288">
        <ele>742</ele>
        <time>2022-08-16T07:06:43Z</time>
      </trkpt>
      <trkpt lat="45.71644" lon="6.4729">
        <ele>742</ele>
        <time>2022-08-16T07:06:44Z</time>
      </trkpt>
      <trkpt lat="45.71644" lon="6.47292">
        <ele>742</ele>
        <time>2022-08-16T07:06:45Z</time>
      </trkpt>
      <trkpt lat="45.71644" lon="6.47294">
        <ele>742</ele>
        <time>2022-08-16T07:06:46Z</time>
      </trkpt>
      <trkpt lat="45.71644" lon="6.47297">
        <ele>742</ele>
        <time>2022-08-16T07:06:47Z</time>
      </trkpt>
      <trkpt lat="45.71644" lon="6.473">
        <ele>743</ele>
        <time>2022-08-16T07:06:48Z</time>
      </trkpt>
      <trkpt lat="45.71644" lon="6.47303">
        <ele>742</ele>
        <time>2022-08-16T07:06:49Z</time>
      </trkpt>
      <trkpt lat="45.71644" lon="6.47306">
        <ele>743</ele>
        <time>2022-08-16T07:06:50Z</time>
      </trkpt>
      <trkpt lat="45.71644" lon="6.47308">
        <ele>744</ele>
        <time>2022-08-16T07:06:51Z</time>
      </trkpt>
      <trkpt lat="45.71645" lon="6.47311">
        <ele>744</ele>
        <time>2022-08-16T07:06:52Z</time>
      </trkpt>
      <trkpt lat="45.71646" lon="6.47314">
        <ele>743</ele>
        <time>2022-08-16T07:06:53Z</time>
      </trkpt>
      <trkpt lat="45.71646" lon="6.47317">
        <ele>743</ele>
        <time>2022-08-16T07:06:54Z</time>
      </trkpt>
      <trkpt lat="45.71647" lon="6.47319">
        <ele>742</ele>
        <time>2022-08-16T07:06:55Z</time>
      </trkpt>
      <trkpt lat="45.71647" lon="6.4732">
        <ele>743</ele>
        <time>2022-08-16T07:06:56Z</time>
      </trkpt>
      <trkpt lat="45.71648" lon="6.47322">
        <ele>743</ele>
        <time>2022-08-16T07:06:57Z</time>
      </trkpt>
      <trkpt lat="45.71649" lon="6.47325">
        <ele>744</ele>
        <time>2022-08-16T07:06:58Z</time>
      </trkpt>
      <trkpt lat="45.7165" lon="6.47326">
        <ele>744</ele>
        <time>2022-08-16T07:06:59Z</time>
      </trkpt>
      <trkpt lat="45.71651" lon="6.47329">
        <ele>744</ele>
        <time>2022-08-16T07:07:00Z</time>
      </trkpt>
      <trkpt lat="45.71652" lon="6.47332">
        <ele>744</ele>
        <time>2022-08-16T07:07:01Z</time>
      </trkpt>
      <trkpt lat="45.71653" lon="6.47335">
        <ele>744</ele>
        <time>2022-08-16T07:07:02Z</time>
      </trkpt>
      <trkpt lat="45.71653" lon="6.47337">
        <ele>743</ele>
        <time>2022-08-16T07:07:03Z</time>
      </trkpt>
      <trkpt lat="45.71654" lon="6.47339">
        <ele>742</ele>
        <time>2022-08-16T07:07:04Z</time>
      </trkpt>
      <trkpt lat="45.71655" lon="6.47341">
        <ele>743</ele>
        <time>2022-08-16T07:07:05Z</time>
      </trkpt>
      <trkpt lat="45.71656" lon="6.47343">
        <ele>744</ele>
        <time>2022-08-16T07:07:06Z</time>
      </trkpt>
      <trkpt lat="45.71657" lon="6.47344">
        <ele>744</ele>
        <time>2022-08-16T07:07:07Z</time>
      </trkpt>
      <trkpt lat="45.71658" lon="6.47346">
        <ele>744</ele>
        <time>2022-08-16T07:07:08Z</time>
      </trkpt>
      <trkpt lat="45.71658" lon="6.47347">
        <ele>745</ele>
        <time>2022-08-16T07:07:09Z</time>
      </trkpt>
      <trkpt lat="45.71659" lon="6.4735">
        <ele>745</ele>
        <time>2022-08-16T07:07:10Z</time>
      </trkpt>
      <trkpt lat="45.71659" lon="6.47352">
        <ele>745</ele>
        <time>2022-08-16T07:07:11Z</time>
      </trkpt>
      <trkpt lat="45.71659" lon="6.47354">
        <ele>745</ele>
        <time>2022-08-16T07:07:12Z</time>
      </trkpt>
      <trkpt lat="45.7166" lon="6.47356">
        <ele>746</ele>
        <time>2022-08-16T07:07:13Z</time>
      </trkpt>
      <trkpt lat="45.71661" lon="6.47358">
        <ele>746</ele>
        <time>2022-08-16T07:07:14Z</time>
      </trkpt>
      <trkpt lat="45.71661" lon="6.4736">
        <ele>746</ele>
        <time>2022-08-16T07:07:15Z</time>
      </trkpt>
      <trkpt lat="45.71662" lon="6.47362">
        <ele>746</ele>
        <time>2022-08-16T07:07:16Z</time>
      </trkpt>
      <trkpt lat="45.71663" lon="6.47364">
        <ele>747</ele>
        <time>2022-08-16T07:07:17Z</time>
      </trkpt>
      <trkpt lat="45.71663" lon="6.47366">
        <ele>747</ele>
        <time>2022-08-16T07:07:18Z</time>
      </trkpt>
      <trkpt lat="45.71664" lon="6.47369">
        <ele>748</ele>
        <time>2022-08-16T07:07:19Z</time>
      </trkpt>
      <trkpt lat="45.71664" lon="6.47371">
        <ele>748</ele>
        <time>2022-08-16T07:07:20Z</time>
      </trkpt>
      <trkpt lat="45.71664" lon="6.47372">
        <ele>748</ele>
        <time>2022-08-16T07:07:21Z</time>
      </trkpt>
      <trkpt lat="45.71664" lon="6.47375">
        <ele>748</ele>
        <time>2022-08-16T07:07:22Z</time>
      </trkpt>
      <trkpt lat="45.71664" lon="6.47377">
        <ele>748</ele>
        <time>2022-08-16T07:07:23Z</time>
      </trkpt>
      <trkpt lat="45.71664" lon="6.47379">
        <ele>748</ele>
        <time>2022-08-16T07:07:24Z</time>
      </trkpt>
      <trkpt lat="45.71665" lon="6.47382">
        <ele>748</ele>
        <time>2022-08-16T07:07:25Z</time>
      </trkpt>
      <trkpt lat="45.71666" lon="6.47384">
        <ele>748</ele>
        <time>2022-08-16T07:07:26Z</time>
      </trkpt>
      <trkpt lat="45.71666" lon="6.47387">
        <ele>749</ele>
        <time>2022-08-16T07:07:27Z</time>
      </trkpt>
      <trkpt lat="45.71667" lon="6.47389">
        <ele>749</ele>
        <time>2022-08-16T07:07:28Z</time>
      </trkpt>
      <trkpt lat="45.71667" lon="6.47391">
        <ele>750</ele>
        <time>2022-08-16T07:07:29Z</time>
      </trkpt>
      <trkpt lat="45.71668" lon="6.47393">
        <ele>750</ele>
        <time>2022-08-16T07:07:30Z</time>
      </trkpt>
      <trkpt lat="45.71668" lon="6.47395">
        <ele>750</ele>
        <time>2022-08-16T07:07:31Z</time>
      </trkpt>
      <trkpt lat="45.71669" lon="6.47396">
        <ele>750</ele>
        <time>2022-08-16T07:07:32Z</time>
      </trkpt>
      <trkpt lat="45.7167" lon="6.47398">
        <ele>750</ele>
        <time>2022-08-16T07:07:33Z</time>
      </trkpt>
      <trkpt lat="45.71671" lon="6.474">
        <ele>751</ele>
        <time>2022-08-16T07:07:34Z</time>
      </trkpt>
      <trkpt lat="45.71672" lon="6.47402">
        <ele>751</ele>
        <time>2022-08-16T07:07:35Z</time>
      </trkpt>
      <trkpt lat="45.71673" lon="6.47403">
        <ele>750</ele>
        <time>2022-08-16T07:07:36Z</time>
      </trkpt>
      <trkpt lat="45.71675" lon="6.47405">
        <ele>750</ele>
        <time>2022-08-16T07:07:37Z</time>
      </trkpt>
      <trkpt lat="45.71676" lon="6.47408">
        <ele>751</ele>
        <time>2022-08-16T07:07:38Z</time>
      </trkpt>
      <trkpt lat="45.71676" lon="6.4741">
        <ele>751</ele>
        <time>2022-08-16T07:07:39Z</time>
      </trkpt>
      <trkpt lat="45.71678" lon="6.47412">
        <ele>751</ele>
        <time>2022-08-16T07:07:40Z</time>
      </trkpt>
      <trkpt lat="45.71679" lon="6.47414">
        <ele>751</ele>
        <time>2022-08-16T07:07:41Z</time>
      </trkpt>
      <trkpt lat="45.71681" lon="6.47415">
        <ele>751</ele>
        <time>2022-08-16T07:07:42Z</time>
      </trkpt>
      <trkpt lat="45.71682" lon="6.47416">
        <ele>751</ele>
        <time>2022-08-16T07:07:43Z</time>
      </trkpt>
      <trkpt lat="45.71683" lon="6.47417">
        <ele>750</ele>
        <time>2022-08-16T07:07:44Z</time>
      </trkpt>
      <trkpt lat="45.71684" lon="6.47419">
        <ele>751</ele>
        <time>2022-08-16T07:07:45Z</time>
      </trkpt>
      <trkpt lat="45.71685" lon="6.47421">
        <ele>751</ele>
        <time>2022-08-16T07:07:46Z</time>
      </trkpt>
      <trkpt lat="45.71685" lon="6.47423">
        <ele>752</ele>
        <time>2022-08-16T07:07:47Z</time>
      </trkpt>
      <trkpt lat="45.71686" lon="6.47425">
        <ele>752</ele>
        <time>2022-08-16T07:07:48Z</time>
      </trkpt>
      <trkpt lat="45.71686" lon="6.47426">
        <ele>752</ele>
        <time>2022-08-16T07:07:49Z</time>
      </trkpt>
      <trkpt lat="45.71687" lon="6.47428">
        <ele>752</ele>
        <time>2022-08-16T07:07:50Z</time>
      </trkpt>
      <trkpt lat="45.71687" lon="6.4743">
        <ele>752</ele>
        <time>2022-08-16T07:07:51Z</time>
      </trkpt>
      <trkpt lat="45.71688" lon="6.47432">
        <ele>752</ele>
        <time>2022-08-16T07:07:52Z</time>
      </trkpt>
      <trkpt lat="45.71689" lon="6.47434">
        <ele>752</ele>
        <time>2022-08-16T07:07:53Z</time>
      </trkpt>
      <trkpt lat="45.7169" lon="6.47436">
        <ele>752</ele>
        <time>2022-08-16T07:07:54Z</time>
      </trkpt>
      <trkpt lat="45.71691" lon="6.47437">
        <ele>752</ele>
        <time>2022-08-16T07:07:55Z</time>
      </trkpt>
      <trkpt lat="45.71692" lon="6.4744">
        <ele>753</ele>
        <time>2022-08-16T07:07:56Z</time>
      </trkpt>
      <trkpt lat="45.71693" lon="6.47442">
        <ele>753</ele>
        <time>2022-08-16T07:07:57Z</time>
      </trkpt>
      <trkpt lat="45.71694" lon="6.47443">
        <ele>753</ele>
        <time>2022-08-16T07:07:58Z</time>
      </trkpt>
      <trkpt lat="45.71696" lon="6.47445">
        <ele>753</ele>
        <time>2022-08-16T07:07:59Z</time>
      </trkpt>
      <trkpt lat="45.71697" lon="6.47447">
        <ele>753</ele>
        <time>2022-08-16T07:08:00Z</time>
      </trkpt>
      <trkpt lat="45.71699" lon="6.47448">
        <ele>753</ele>
        <time>2022-08-16T07:08:01Z</time>
      </trkpt>
      <trkpt lat="45.717" lon="6.4745">
        <ele>753</ele>
        <time>2022-08-16T07:08:02Z</time>
      </trkpt>
      <trkpt lat="45.71702" lon="6.47451">
        <ele>753</ele>
        <time>2022-08-16T07:08:03Z</time>
      </trkpt>
      <trkpt lat="45.71704" lon="6.47453">
        <ele>753</ele>
        <time>2022-08-16T07:08:04Z</time>
      </trkpt>
      <trkpt lat="45.71706" lon="6.47455">
        <ele>753</ele>
        <time>2022-08-16T07:08:05Z</time>
      </trkpt>
      <trkpt lat="45.71708" lon="6.47458">
        <ele>754</ele>
        <time>2022-08-16T07:08:06Z</time>
      </trkpt>
      <trkpt lat="45.7171" lon="6.4746">
        <ele>754</ele>
        <time>2022-08-16T07:08:07Z</time>
      </trkpt>
      <trkpt lat="45.71711" lon="6.47462">
        <ele>754</ele>
        <time>2022-08-16T07:08:08Z</time>
      </trkpt>
      <trkpt lat="45.71713" lon="6.47465">
        <ele>754</ele>
        <time>2022-08-16T07:08:09Z</time>
      </trkpt>
      <trkpt lat="45.71715" lon="6.47468">
        <ele>754</ele>
        <time>2022-08-16T07:08:10Z</time>
      </trkpt>
      <trkpt lat="45.71716" lon="6.4747">
        <ele>755</ele>
        <time>2022-08-16T07:08:11Z</time>
      </trkpt>
      <trkpt lat="45.71717" lon="6.47472">
        <ele>755</ele>
        <time>2022-08-16T07:08:12Z</time>
      </trkpt>
      <trkpt lat="45.71718" lon="6.47474">
        <ele>755</ele>
        <time>2022-08-16T07:08:13Z</time>
      </trkpt>
      <trkpt lat="45.71719" lon="6.47476">
        <ele>755</ele>
        <time>2022-08-16T07:08:14Z</time>
      </trkpt>
      <trkpt lat="45.7172" lon="6.47478">
        <ele>755</ele>
        <time>2022-08-16T07:08:15Z</time>
      </trkpt>
      <trkpt lat="45.71721" lon="6.47481">
        <ele>755</ele>
        <time>2022-08-16T07:08:16Z</time>
      </trkpt>
      <trkpt lat="45.71722" lon="6.47483">
        <ele>755</ele>
        <time>2022-08-16T07:08:17Z</time>
      </trkpt>
      <trkpt lat="45.71722" lon="6.47485">
        <ele>755</ele>
        <time>2022-08-16T07:08:18Z</time>
      </trkpt>
      <trkpt lat="45.71723" lon="6.47488">
        <ele>755</ele>
        <time>2022-08-16T07:08:19Z</time>
      </trkpt>
      <trkpt lat="45.71724" lon="6.47491">
        <ele>755</ele>
        <time>2022-08-16T07:08:20Z</time>
      </trkpt>
      <trkpt lat="45.71724" lon="6.47494">
        <ele>755</ele>
        <time>2022-08-16T07:08:21Z</time>
      </trkpt>
      <trkpt lat="45.71725" lon="6.47496">
        <ele>756</ele>
        <time>2022-08-16T07:08:22Z</time>
      </trkpt>
      <trkpt lat="45.71726" lon="6.47499">
        <ele>756</ele>
        <time>2022-08-16T07:08:23Z</time>
      </trkpt>
      <trkpt lat="45.71726" lon="6.47501">
        <ele>755</ele>
        <time>2022-08-16T07:08:24Z</time>
      </trkpt>
      <trkpt lat="45.71727" lon="6.47503">
        <ele>755</ele>
        <time>2022-08-16T07:08:25Z</time>
      </trkpt>
      <trkpt lat="45.71728" lon="6.47506">
        <ele>755</ele>
        <time>2022-08-16T07:08:26Z</time>
      </trkpt>
      <trkpt lat="45.71729" lon="6.47509">
        <ele>755</ele>
        <time>2022-08-16T07:08:27Z</time>
      </trkpt>
      <trkpt lat="45.71729" lon="6.47511">
        <ele>755</ele>
        <time>2022-08-16T07:08:28Z</time>
      </trkpt>
      <trkpt lat="45.7173" lon="6.47513">
        <ele>755</ele>
        <time>2022-08-16T07:08:29Z</time>
      </trkpt>
      <trkpt lat="45.71731" lon="6.47515">
        <ele>755</ele>
        <time>2022-08-16T07:08:30Z</time>
      </trkpt>
      <trkpt lat="45.71732" lon="6.47517">
        <ele>755</ele>
        <time>2022-08-16T07:08:31Z</time>
      </trkpt>
      <trkpt lat="45.71732" lon="6.47519">
        <ele>756</ele>
        <time>2022-08-16T07:08:32Z</time>
      </trkpt>
      <trkpt lat="45.71733" lon="6.47522">
        <ele>756</ele>
        <time>2022-08-16T07:08:33Z</time>
      </trkpt>
      <trkpt lat="45.71735" lon="6.47524">
        <ele>757</ele>
        <time>2022-08-16T07:08:34Z</time>
      </trkpt>
      <trkpt lat="45.71736" lon="6.47526">
        <ele>757</ele>
        <time>2022-08-16T07:08:35Z</time>
      </trkpt>
      <trkpt lat="45.71737" lon="6.47527">
        <ele>757</ele>
        <time>2022-08-16T07:08:36Z</time>
      </trkpt>
      <trkpt lat="45.71738" lon="6.47529">
        <ele>756</ele>
        <time>2022-08-16T07:08:37Z</time>
      </trkpt>
      <trkpt lat="45.71739" lon="6.47531">
        <ele>756</ele>
        <time>2022-08-16T07:08:38Z</time>
      </trkpt>
      <trkpt lat="45.71741" lon="6.47533">
        <ele>756</ele>
        <time>2022-08-16T07:08:39Z</time>
      </trkpt>
      <trkpt lat="45.71742" lon="6.47535">
        <ele>757</ele>
        <time>2022-08-16T07:08:40Z</time>
      </trkpt>
      <trkpt lat="45.71743" lon="6.47538">
        <ele>757</ele>
        <time>2022-08-16T07:08:41Z</time>
      </trkpt>
      <trkpt lat="45.71745" lon="6.4754">
        <ele>758</ele>
        <time>2022-08-16T07:08:42Z</time>
      </trkpt>
      <trkpt lat="45.71746" lon="6.47542">
        <ele>758</ele>
        <time>2022-08-16T07:08:43Z</time>
      </trkpt>
      <trkpt lat="45.71747" lon="6.47545">
        <ele>759</ele>
        <time>2022-08-16T07:08:44Z</time>
      </trkpt>
      <trkpt lat="45.71748" lon="6.47547">
        <ele>759</ele>
        <time>2022-08-16T07:08:45Z</time>
      </trkpt>
      <trkpt lat="45.7175" lon="6.4755">
        <ele>759</ele>
        <time>2022-08-16T07:08:46Z</time>
      </trkpt>
      <trkpt lat="45.71751" lon="6.47552">
        <ele>760</ele>
        <time>2022-08-16T07:08:47Z</time>
      </trkpt>
      <trkpt lat="45.71752" lon="6.47554">
        <ele>760</ele>
        <time>2022-08-16T07:08:48Z</time>
      </trkpt>
      <trkpt lat="45.71753" lon="6.47556">
        <ele>761</ele>
        <time>2022-08-16T07:08:49Z</time>
      </trkpt>
      <trkpt lat="45.71753" lon="6.47559">
        <ele>761</ele>
        <time>2022-08-16T07:08:50Z</time>
      </trkpt>
      <trkpt lat="45.71754" lon="6.47561">
        <ele>761</ele>
        <time>2022-08-16T07:08:51Z</time>
      </trkpt>
      <trkpt lat="45.71754" lon="6.47564">
        <ele>762</ele>
        <time>2022-08-16T07:08:52Z</time>
      </trkpt>
      <trkpt lat="45.71753" lon="6.47568">
        <ele>762</ele>
        <time>2022-08-16T07:08:53Z</time>
      </trkpt>
      <trkpt lat="45.71753" lon="6.4757">
        <ele>763</ele>
        <time>2022-08-16T07:08:54Z</time>
      </trkpt>
      <trkpt lat="45.71753" lon="6.47573">
        <ele>764</ele>
        <time>2022-08-16T07:08:55Z</time>
      </trkpt>
      <trkpt lat="45.71753" lon="6.47576">
        <ele>765</ele>
        <time>2022-08-16T07:08:56Z</time>
      </trkpt>
      <trkpt lat="45.71752" lon="6.47579">
        <ele>766</ele>
        <time>2022-08-16T07:08:57Z</time>
      </trkpt>
      <trkpt lat="45.71752" lon="6.47582">
        <ele>767</ele>
        <time>2022-08-16T07:08:58Z</time>
      </trkpt>
      <trkpt lat="45.71751" lon="6.47585">
        <ele>767</ele>
        <time>2022-08-16T07:08:59Z</time>
      </trkpt>
      <trkpt lat="45.71751" lon="6.47589">
        <ele>768</ele>
        <time>2022-08-16T07:09:00Z</time>
      </trkpt>
      <trkpt lat="45.71751" lon="6.47591">
        <ele>768</ele>
        <time>2022-08-16T07:09:01Z</time>
      </trkpt>
      <trkpt lat="45.7175" lon="6.47595">
        <ele>768</ele>
        <time>2022-08-16T07:09:02Z</time>
      </trkpt>
      <trkpt lat="45.7175" lon="6.47598">
        <ele>768</ele>
        <time>2022-08-16T07:09:03Z</time>
      </trkpt>
      <trkpt lat="45.7175" lon="6.47601">
        <ele>768</ele>
        <time>2022-08-16T07:09:04Z</time>
      </trkpt>
      <trkpt lat="45.71749" lon="6.47604">
        <ele>769</ele>
        <time>2022-08-16T07:09:05Z</time>
      </trkpt>
      <trkpt lat="45.71749" lon="6.47607">
        <ele>768</ele>
        <time>2022-08-16T07:09:06Z</time>
      </trkpt>
      <trkpt lat="45.71748" lon="6.47609">
        <ele>769</ele>
        <time>2022-08-16T07:09:07Z</time>
      </trkpt>
      <trkpt lat="45.71748" lon="6.47612">
        <ele>769</ele>
        <time>2022-08-16T07:09:08Z</time>
      </trkpt>
      <trkpt lat="45.71747" lon="6.47614">
        <ele>770</ele>
        <time>2022-08-16T07:09:09Z</time>
      </trkpt>
      <trkpt lat="45.71747" lon="6.47616">
        <ele>770</ele>
        <time>2022-08-16T07:09:10Z</time>
      </trkpt>
      <trkpt lat="45.71747" lon="6.47619">
        <ele>771</ele>
        <time>2022-08-16T07:09:11Z</time>
      </trkpt>
      <trkpt lat="45.71746" lon="6.47621">
        <ele>771</ele>
        <time>2022-08-16T07:09:12Z</time>
      </trkpt>
      <trkpt lat="45.71745" lon="6.47623">
        <ele>772</ele>
        <time>2022-08-16T07:09:13Z</time>
      </trkpt>
      <trkpt lat="45.71744" lon="6.47626">
        <ele>772</ele>
        <time>2022-08-16T07:09:14Z</time>
      </trkpt>
      <trkpt lat="45.71744" lon="6.47628">
        <ele>772</ele>
        <time>2022-08-16T07:09:15Z</time>
      </trkpt>
      <trkpt lat="45.71743" lon="6.47631">
        <ele>773</ele>
        <time>2022-08-16T07:09:16Z</time>
      </trkpt>
      <trkpt lat="45.71742" lon="6.47634">
        <ele>773</ele>
        <time>2022-08-16T07:09:17Z</time>
      </trkpt>
      <trkpt lat="45.71741" lon="6.47636">
        <ele>773</ele>
        <time>2022-08-16T07:09:18Z</time>
      </trkpt>
      <trkpt lat="45.7174" lon="6.47638">
        <ele>774</ele>
        <time>2022-08-16T07:09:19Z</time>
      </trkpt>
      <trkpt lat="45.7174" lon="6.4764">
        <ele>774</ele>
        <time>2022-08-16T07:09:20Z</time>
      </trkpt>
      <trkpt lat="45.71738" lon="6.47642">
        <ele>774</ele>
        <time>2022-08-16T07:09:21Z</time>
      </trkpt>
      <trkpt lat="45.71738" lon="6.47645">
        <ele>774</ele>
        <time>2022-08-16T07:09:22Z</time>
      </trkpt>
      <trkpt lat="45.71738" lon="6.47648">
        <ele>774</ele>
        <time>2022-08-16T07:09:23Z</time>
      </trkpt>
      <trkpt lat="45.71737" lon="6.47651">
        <ele>774</ele>
        <time>2022-08-16T07:09:24Z</time>
      </trkpt>
      <trkpt lat="45.71736" lon="6.47653">
        <ele>774</ele>
        <time>2022-08-16T07:09:25Z</time>
      </trkpt>
      <trkpt lat="45.71736" lon="6.47656">
        <ele>774</ele>
        <time>2022-08-16T07:09:26Z</time>
      </trkpt>
      <trkpt lat="45.71736" lon="6.47659">
        <ele>774</ele>
        <time>2022-08-16T07:09:27Z</time>
      </trkpt>
      <trkpt lat="45.71736" lon="6.47661">
        <ele>774</ele>
        <time>2022-08-16T07:09:28Z</time>
      </trkpt>
      <trkpt lat="45.71736" lon="6.47663">
        <ele>775</ele>
        <time>2022-08-16T07:09:29Z</time>
      </trkpt>
      <trkpt lat="45.71736" lon="6.47665">
        <ele>774</ele>
        <time>2022-08-16T07:09:30Z</time>
      </trkpt>
      <trkpt lat="45.71737" lon="6.47667">
        <ele>774</ele>
        <time>2022-08-16T07:09:31Z</time>
      </trkpt>
      <trkpt lat="45.71737" lon="6.47669">
        <ele>775</ele>
        <time>2022-08-16T07:09:32Z</time>
      </trkpt>
      <trkpt lat="45.71737" lon="6.47672">
        <ele>774</ele>
        <time>2022-08-16T07:09:33Z</time>
      </trkpt>
      <trkpt lat="45.71738" lon="6.47674">
        <ele>774</ele>
        <time>2022-08-16T07:09:34Z</time>
      </trkpt>
      <trkpt lat="45.71739" lon="6.47676">
        <ele>775</ele>
        <time>2022-08-16T07:09:35Z</time>
      </trkpt>
      <trkpt lat="45.7174" lon="6.47678">
        <ele>775</ele>
        <time>2022-08-16T07:09:36Z</time>
      </trkpt>
      <trkpt lat="45.71742" lon="6.47679">
        <ele>775</ele>
        <time>2022-08-16T07:09:37Z</time>
      </trkpt>
      <trkpt lat="45.71743" lon="6.47681">
        <ele>775</ele>
        <time>2022-08-16T07:09:38Z</time>
      </trkpt>
      <trkpt lat="45.71744" lon="6.47682">
        <ele>776</ele>
        <time>2022-08-16T07:09:39Z</time>
      </trkpt>
      <trkpt lat="45.71746" lon="6.47684">
        <ele>776</ele>
        <time>2022-08-16T07:09:40Z</time>
      </trkpt>
      <trkpt lat="45.71747" lon="6.47685">
        <ele>776</ele>
        <time>2022-08-16T07:09:41Z</time>
      </trkpt>
      <trkpt lat="45.71748" lon="6.47686">
        <ele>776</ele>
        <time>2022-08-16T07:09:42Z</time>
      </trkpt>
      <trkpt lat="45.71749" lon="6.47687">
        <ele>776</ele>
        <time>2022-08-16T07:09:43Z</time>
      </trkpt>
      <trkpt lat="45.7175" lon="6.47689">
        <ele>776</ele>
        <time>2022-08-16T07:09:44Z</time>
      </trkpt>
      <trkpt lat="45.71751" lon="6.4769">
        <ele>775</ele>
        <time>2022-08-16T07:09:45Z</time>
      </trkpt>
      <trkpt lat="45.71752" lon="6.47691">
        <ele>776</ele>
        <time>2022-08-16T07:09:46Z</time>
      </trkpt>
      <trkpt lat="45.71753" lon="6.47692">
        <ele>776</ele>
        <time>2022-08-16T07:09:47Z</time>
      </trkpt>
      <trkpt lat="45.71755" lon="6.47694">
        <ele>776</ele>
        <time>2022-08-16T07:09:48Z</time>
      </trkpt>
      <trkpt lat="45.71756" lon="6.47695">
        <ele>776</ele>
        <time>2022-08-16T07:09:49Z</time>
      </trkpt>
      <trkpt lat="45.71757" lon="6.47697">
        <ele>776</ele>
        <time>2022-08-16T07:09:50Z</time>
      </trkpt>
      <trkpt lat="45.71758" lon="6.47698">
        <ele>776</ele>
        <time>2022-08-16T07:09:51Z</time>
      </trkpt>
      <trkpt lat="45.7176" lon="6.477">
        <ele>776</ele>
        <time>2022-08-16T07:09:52Z</time>
      </trkpt>
      <trkpt lat="45.71761" lon="6.47701">
        <ele>776</ele>
        <time>2022-08-16T07:09:53Z</time>
      </trkpt>
      <trkpt lat="45.71761" lon="6.47704">
        <ele>776</ele>
        <time>2022-08-16T07:09:54Z</time>
      </trkpt>
      <trkpt lat="45.71762" lon="6.47706">
        <ele>776</ele>
        <time>2022-08-16T07:09:55Z</time>
      </trkpt>
      <trkpt lat="45.71764" lon="6.47709">
        <ele>776</ele>
        <time>2022-08-16T07:09:56Z</time>
      </trkpt>
      <trkpt lat="45.71764" lon="6.47711">
        <ele>776</ele>
        <time>2022-08-16T07:09:57Z</time>
      </trkpt>
      <trkpt lat="45.71765" lon="6.47713">
        <ele>776</ele>
        <time>2022-08-16T07:09:58Z</time>
      </trkpt>
      <trkpt lat="45.71766" lon="6.47716">
        <ele>776</ele>
        <time>2022-08-16T07:09:59Z</time>
      </trkpt>
      <trkpt lat="45.71767" lon="6.47717">
        <ele>776</ele>
        <time>2022-08-16T07:10:00Z</time>
      </trkpt>
      <trkpt lat="45.71767" lon="6.47719">
        <ele>775</ele>
        <time>2022-08-16T07:10:01Z</time>
      </trkpt>
      <trkpt lat="45.71769" lon="6.47721">
        <ele>775</ele>
        <time>2022-08-16T07:10:02Z</time>
      </trkpt>
      <trkpt lat="45.7177" lon="6.47722">
        <ele>775</ele>
        <time>2022-08-16T07:10:03Z</time>
      </trkpt>
      <trkpt lat="45.71771" lon="6.47724">
        <ele>775</ele>
        <time>2022-08-16T07:10:04Z</time>
      </trkpt>
      <trkpt lat="45.71772" lon="6.47726">
        <ele>775</ele>
        <time>2022-08-16T07:10:05Z</time>
      </trkpt>
      <trkpt lat="45.71773" lon="6.47728">
        <ele>775</ele>
        <time>2022-08-16T07:10:06Z</time>
      </trkpt>
      <trkpt lat="45.71774" lon="6.4773">
        <ele>775</ele>
        <time>2022-08-16T07:10:07Z</time>
      </trkpt>
      <trkpt lat="45.71774" lon="6.47732">
        <ele>775</ele>
        <time>2022-08-16T07:10:08Z</time>
      </trkpt>
      <trkpt lat="45.71775" lon="6.47735">
        <ele>774</ele>
        <time>2022-08-16T07:10:09Z</time>
      </trkpt>
      <trkpt lat="45.71775" lon="6.47736">
        <ele>775</ele>
        <time>2022-08-16T07:10:10Z</time>
      </trkpt>
      <trkpt lat="45.71776" lon="6.47739">
        <ele>776</ele>
        <time>2022-08-16T07:10:11Z</time>
      </trkpt>
      <trkpt lat="45.71777" lon="6.47741">
        <ele>775</ele>
        <time>2022-08-16T07:10:12Z</time>
      </trkpt>
      <trkpt lat="45.71779" lon="6.47744">
        <ele>776</ele>
        <time>2022-08-16T07:10:13Z</time>
      </trkpt>
      <trkpt lat="45.7178" lon="6.47747">
        <ele>776</ele>
        <time>2022-08-16T07:10:14Z</time>
      </trkpt>
      <trkpt lat="45.71781" lon="6.4775">
        <ele>776</ele>
        <time>2022-08-16T07:10:15Z</time>
      </trkpt>
      <trkpt lat="45.71783" lon="6.47754">
        <ele>776</ele>
        <time>2022-08-16T07:10:16Z</time>
      </trkpt>
      <trkpt lat="45.71783" lon="6.47756">
        <ele>776</ele>
        <time>2022-08-16T07:10:17Z</time>
      </trkpt>
      <trkpt lat="45.71784" lon="6.47759">
        <ele>776</ele>
        <time>2022-08-16T07:10:18Z</time>
      </trkpt>
      <trkpt lat="45.71785" lon="6.47761">
        <ele>777</ele>
        <time>2022-08-16T07:10:19Z</time>
      </trkpt>
      <trkpt lat="45.71786" lon="6.47763">
        <ele>777</ele>
        <time>2022-08-16T07:10:20Z</time>
      </trkpt>
      <trkpt lat="45.71788" lon="6.47764">
        <ele>777</ele>
        <time>2022-08-16T07:10:21Z</time>
      </trkpt>
      <trkpt lat="45.71789" lon="6.47767">
        <ele>778</ele>
        <time>2022-08-16T07:10:22Z</time>
      </trkpt>
      <trkpt lat="45.7179" lon="6.47769">
        <ele>778</ele>
        <time>2022-08-16T07:10:23Z</time>
      </trkpt>
      <trkpt lat="45.71791" lon="6.47771">
        <ele>778</ele>
        <time>2022-08-16T07:10:24Z</time>
      </trkpt>
      <trkpt lat="45.71792" lon="6.47773">
        <ele>778</ele>
        <time>2022-08-16T07:10:25Z</time>
      </trkpt>
      <trkpt lat="45.71793" lon="6.47776">
        <ele>779</ele>
        <time>2022-08-16T07:10:26Z</time>
      </trkpt>
      <trkpt lat="45.71794" lon="6.47779">
        <ele>779</ele>
        <time>2022-08-16T07:10:27Z</time>
      </trkpt>
      <trkpt lat="45.71795" lon="6.47782">
        <ele>780</ele>
        <time>2022-08-16T07:10:28Z</time>
      </trkpt>
      <trkpt lat="45.71797" lon="6.47785">
        <ele>780</ele>
        <time>2022-08-16T07:10:29Z</time>
      </trkpt>
      <trkpt lat="45.71798" lon="6.47788">
        <ele>780</ele>
        <time>2022-08-16T07:10:30Z</time>
      </trkpt>
      <trkpt lat="45.71799" lon="6.47791">
        <ele>780</ele>
        <time>2022-08-16T07:10:31Z</time>
      </trkpt>
      <trkpt lat="45.71801" lon="6.47794">
        <ele>781</ele>
        <time>2022-08-16T07:10:32Z</time>
      </trkpt>
      <trkpt lat="45.71802" lon="6.47797">
        <ele>781</ele>
        <time>2022-08-16T07:10:33Z</time>
      </trkpt>
      <trkpt lat="45.71804" lon="6.47799">
        <ele>782</ele>
        <time>2022-08-16T07:10:34Z</time>
      </trkpt>
      <trkpt lat="45.71806" lon="6.47802">
        <ele>783</ele>
        <time>2022-08-16T07:10:35Z</time>
      </trkpt>
      <trkpt lat="45.71807" lon="6.47805">
        <ele>783</ele>
        <time>2022-08-16T07:10:36Z</time>
      </trkpt>
      <trkpt lat="45.71809" lon="6.47807">
        <ele>783</ele>
        <time>2022-08-16T07:10:37Z</time>
      </trkpt>
      <trkpt lat="45.71811" lon="6.47809">
        <ele>783</ele>
        <time>2022-08-16T07:10:38Z</time>
      </trkpt>
      <trkpt lat="45.71813" lon="6.47811">
        <ele>784</ele>
        <time>2022-08-16T07:10:39Z</time>
      </trkpt>
      <trkpt lat="45.71815" lon="6.47813">
        <ele>785</ele>
        <time>2022-08-16T07:10:40Z</time>
      </trkpt>
      <trkpt lat="45.71816" lon="6.47816">
        <ele>786</ele>
        <time>2022-08-16T07:10:41Z</time>
      </trkpt>
      <trkpt lat="45.71818" lon="6.47818">
        <ele>786</ele>
        <time>2022-08-16T07:10:42Z</time>
      </trkpt>
      <trkpt lat="45.7182" lon="6.4782">
        <ele>786</ele>
        <time>2022-08-16T07:10:43Z</time>
      </trkpt>
      <trkpt lat="45.71822" lon="6.47822">
        <ele>787</ele>
        <time>2022-08-16T07:10:44Z</time>
      </trkpt>
      <trkpt lat="45.71824" lon="6.47824">
        <ele>787</ele>
        <time>2022-08-16T07:10:45Z</time>
      </trkpt>
      <trkpt lat="45.71826" lon="6.47825">
        <ele>787</ele>
        <time>2022-08-16T07:10:46Z</time>
      </trkpt>
      <trkpt lat="45.71828" lon="6.47826">
        <ele>787</ele>
        <time>2022-08-16T07:10:47Z</time>
      </trkpt>
      <trkpt lat="45.71831" lon="6.47827">
        <ele>787</ele>
        <time>2022-08-16T07:10:48Z</time>
      </trkpt>
      <trkpt lat="45.71833" lon="6.47828">
        <ele>787</ele>
        <time>2022-08-16T07:10:49Z</time>
      </trkpt>
      <trkpt lat="45.71835" lon="6.47829">
        <ele>787</ele>
        <time>2022-08-16T07:10:50Z</time>
      </trkpt>
      <trkpt lat="45.71838" lon="6.4783">
        <ele>787</ele>
        <time>2022-08-16T07:10:51Z</time>
      </trkpt>
      <trkpt lat="45.7184" lon="6.47831">
        <ele>787</ele>
        <time>2022-08-16T07:10:52Z</time>
      </trkpt>
      <trkpt lat="45.71842" lon="6.47831">
        <ele>787</ele>
        <time>2022-08-16T07:10:53Z</time>
      </trkpt>
      <trkpt lat="45.71845" lon="6.47832">
        <ele>787</ele>
        <time>2022-08-16T07:10:54Z</time>
      </trkpt>
      <trkpt lat="45.71848" lon="6.47832">
        <ele>788</ele>
        <time>2022-08-16T07:10:55Z</time>
      </trkpt>
      <trkpt lat="45.71851" lon="6.47831">
        <ele>788</ele>
        <time>2022-08-16T07:10:56Z</time>
      </trkpt>
      <trkpt lat="45.71854" lon="6.47831">
        <ele>788</ele>
        <time>2022-08-16T07:10:57Z</time>
      </trkpt>
      <trkpt lat="45.71857" lon="6.47831">
        <ele>789</ele>
        <time>2022-08-16T07:10:58Z</time>
      </trkpt>
      <trkpt lat="45.7186" lon="6.47831">
        <ele>789</ele>
        <time>2022-08-16T07:10:59Z</time>
      </trkpt>
      <trkpt lat="45.71862" lon="6.47831">
        <ele>789</ele>
        <time>2022-08-16T07:11:00Z</time>
      </trkpt>
      <trkpt lat="45.71865" lon="6.47832">
        <ele>789</ele>
        <time>2022-08-16T07:11:01Z</time>
      </trkpt>
      <trkpt lat="45.71867" lon="6.47832">
        <ele>789</ele>
        <time>2022-08-16T07:11:02Z</time>
      </trkpt>
      <trkpt lat="45.7187" lon="6.47832">
        <ele>789</ele>
        <time>2022-08-16T07:11:03Z</time>
      </trkpt>
      <trkpt lat="45.71872" lon="6.47832">
        <ele>789</ele>
        <time>2022-08-16T07:11:04Z</time>
      </trkpt>
      <trkpt lat="45.71874" lon="6.47833">
        <ele>789</ele>
        <time>2022-08-16T07:11:05Z</time>
      </trkpt>
      <trkpt lat="45.71877" lon="6.47833">
        <ele>789</ele>
        <time>2022-08-16T07:11:06Z</time>
      </trkpt>
      <trkpt lat="45.71879" lon="6.47833">
        <ele>790</ele>
        <time>2022-08-16T07:11:07Z</time>
      </trkpt>
      <trkpt lat="45.71881" lon="6.47835">
        <ele>790</ele>
        <time>2022-08-16T07:11:08Z</time>
      </trkpt>
      <trkpt lat="45.71883" lon="6.47836">
        <ele>790</ele>
        <time>2022-08-16T07:11:09Z</time>
      </trkpt>
      <trkpt lat="45.71885" lon="6.47837">
        <ele>791</ele>
        <time>2022-08-16T07:11:10Z</time>
      </trkpt>
      <trkpt lat="45.71888" lon="6.47838">
        <ele>791</ele>
        <time>2022-08-16T07:11:11Z</time>
      </trkpt>
      <trkpt lat="45.7189" lon="6.47839">
        <ele>791</ele>
        <time>2022-08-16T07:11:12Z</time>
      </trkpt>
      <trkpt lat="45.71891" lon="6.4784">
        <ele>791</ele>
        <time>2022-08-16T07:11:13Z</time>
      </trkpt>
      <trkpt lat="45.71893" lon="6.47841">
        <ele>792</ele>
        <time>2022-08-16T07:11:14Z</time>
      </trkpt>
      <trkpt lat="45.71895" lon="6.47842">
        <ele>792</ele>
        <time>2022-08-16T07:11:15Z</time>
      </trkpt>
      <trkpt lat="45.71897" lon="6.47843">
        <ele>793</ele>
        <time>2022-08-16T07:11:16Z</time>
      </trkpt>
      <trkpt lat="45.71899" lon="6.47843">
        <ele>794</ele>
        <time>2022-08-16T07:11:17Z</time>
      </trkpt>
      <trkpt lat="45.719" lon="6.47844">
        <ele>795</ele>
        <time>2022-08-16T07:11:18Z</time>
      </trkpt>
      <trkpt lat="45.71902" lon="6.47845">
        <ele>795</ele>
        <time>2022-08-16T07:11:19Z</time>
      </trkpt>
      <trkpt lat="45.71903" lon="6.47846">
        <ele>796</ele>
        <time>2022-08-16T07:11:20Z</time>
      </trkpt>
      <trkpt lat="45.71905" lon="6.47846">
        <ele>796</ele>
        <time>2022-08-16T07:11:21Z</time>
      </trkpt>
      <trkpt lat="45.71907" lon="6.47847">
        <ele>797</ele>
        <time>2022-08-16T07:11:22Z</time>
      </trkpt>
      <trkpt lat="45.71909" lon="6.47847">
        <ele>797</ele>
        <time>2022-08-16T07:11:23Z</time>
      </trkpt>
      <trkpt lat="45.71911" lon="6.47848">
        <ele>798</ele>
        <time>2022-08-16T07:11:24Z</time>
      </trkpt>
      <trkpt lat="45.71913" lon="6.47849">
        <ele>798</ele>
        <time>2022-08-16T07:11:25Z</time>
      </trkpt>
      <trkpt lat="45.71914" lon="6.4785">
        <ele>799</ele>
        <time>2022-08-16T07:11:26Z</time>
      </trkpt>
      <trkpt lat="45.71916" lon="6.47851">
        <ele>798</ele>
        <time>2022-08-16T07:11:27Z</time>
      </trkpt>
      <trkpt lat="45.71918" lon="6.47852">
        <ele>798</ele>
        <time>2022-08-16T07:11:28Z</time>
      </trkpt>
      <trkpt lat="45.7192" lon="6.47853">
        <ele>799</ele>
        <time>2022-08-16T07:11:29Z</time>
      </trkpt>
      <trkpt lat="45.71922" lon="6.47854">
        <ele>798</ele>
        <time>2022-08-16T07:11:30Z</time>
      </trkpt>
      <trkpt lat="45.71924" lon="6.47855">
        <ele>798</ele>
        <time>2022-08-16T07:11:31Z</time>
      </trkpt>
      <trkpt lat="45.71925" lon="6.47856">
        <ele>798</ele>
        <time>2022-08-16T07:11:32Z</time>
      </trkpt>
      <trkpt lat="45.71927" lon="6.47857">
        <ele>799</ele>
        <time>2022-08-16T07:11:33Z</time>
      </trkpt>
      <trkpt lat="45.71928" lon="6.47858">
        <ele>799</ele>
        <time>2022-08-16T07:11:34Z</time>
      </trkpt>
      <trkpt lat="45.7193" lon="6.4786">
        <ele>799</ele>
        <time>2022-08-16T07:11:35Z</time>
      </trkpt>
      <trkpt lat="45.71932" lon="6.47861">
        <ele>800</ele>
        <time>2022-08-16T07:11:36Z</time>
      </trkpt>
      <trkpt lat="45.71934" lon="6.47862">
        <ele>800</ele>
        <time>2022-08-16T07:11:37Z</time>
      </trkpt>
      <trkpt lat="45.71936" lon="6.47863">
        <ele>800</ele>
        <time>2022-08-16T07:11:38Z</time>
      </trkpt>
      <trkpt lat="45.71938" lon="6.47864">
        <ele>800</ele>
        <time>2022-08-16T07:11:39Z</time>
      </trkpt>
      <trkpt lat="45.7194" lon="6.47865">
        <ele>800</ele>
        <time>2022-08-16T07:11:40Z</time>
      </trkpt>
      <trkpt lat="45.71942" lon="6.47866">
        <ele>800</ele>
        <time>2022-08-16T07:11:41Z</time>
      </trkpt>
      <trkpt lat="45.71944" lon="6.47867">
        <ele>800</ele>
        <time>2022-08-16T07:11:42Z</time>
      </trkpt>
      <trkpt lat="45.71946" lon="6.47868">
        <ele>801</ele>
        <time>2022-08-16T07:11:43Z</time>
      </trkpt>
      <trkpt lat="45.71948" lon="6.47869">
        <ele>801</ele>
        <time>2022-08-16T07:11:44Z</time>
      </trkpt>
      <trkpt lat="45.7195" lon="6.4787">
        <ele>802</ele>
        <time>2022-08-16T07:11:45Z</time>
      </trkpt>
      <trkpt lat="45.71952" lon="6.47872">
        <ele>802</ele>
        <time>2022-08-16T07:11:46Z</time>
      </trkpt>
      <trkpt lat="45.71953" lon="6.47874">
        <ele>802</ele>
        <time>2022-08-16T07:11:47Z</time>
      </trkpt>
      <trkpt lat="45.71955" lon="6.47876">
        <ele>802</ele>
        <time>2022-08-16T07:11:48Z</time>
      </trkpt>
      <trkpt lat="45.71956" lon="6.47878">
        <ele>802</ele>
        <time>2022-08-16T07:11:49Z</time>
      </trkpt>
      <trkpt lat="45.71956" lon="6.47881">
        <ele>802</ele>
        <time>2022-08-16T07:11:50Z</time>
      </trkpt>
      <trkpt lat="45.71957" lon="6.47884">
        <ele>802</ele>
        <time>2022-08-16T07:11:51Z</time>
      </trkpt>
      <trkpt lat="45.71957" lon="6.47887">
        <ele>802</ele>
        <time>2022-08-16T07:11:52Z</time>
      </trkpt>
      <trkpt lat="45.71958" lon="6.47889">
        <ele>802</ele>
        <time>2022-08-16T07:11:53Z</time>
      </trkpt>
      <trkpt lat="45.71959" lon="6.47892">
        <ele>803</ele>
        <time>2022-08-16T07:11:54Z</time>
      </trkpt>
      <trkpt lat="45.71959" lon="6.47895">
        <ele>803</ele>
        <time>2022-08-16T07:11:55Z</time>
      </trkpt>
      <trkpt lat="45.7196" lon="6.47897">
        <ele>803</ele>
        <time>2022-08-16T07:11:56Z</time>
      </trkpt>
      <trkpt lat="45.71961" lon="6.479">
        <ele>803</ele>
        <time>2022-08-16T07:11:57Z</time>
      </trkpt>
      <trkpt lat="45.71962" lon="6.47902">
        <ele>803</ele>
        <time>2022-08-16T07:11:58Z</time>
      </trkpt>
      <trkpt lat="45.71962" lon="6.47905">
        <ele>803</ele>
        <time>2022-08-16T07:11:59Z</time>
      </trkpt>
      <trkpt lat="45.71962" lon="6.47907">
        <ele>803</ele>
        <time>2022-08-16T07:12:00Z</time>
      </trkpt>
      <trkpt lat="45.71963" lon="6.4791">
        <ele>803</ele>
        <time>2022-08-16T07:12:01Z</time>
      </trkpt>
      <trkpt lat="45.71964" lon="6.47912">
        <ele>803</ele>
        <time>2022-08-16T07:12:02Z</time>
      </trkpt>
      <trkpt lat="45.71964" lon="6.47914">
        <ele>803</ele>
        <time>2022-08-16T07:12:03Z</time>
      </trkpt>
      <trkpt lat="45.71965" lon="6.47916">
        <ele>803</ele>
        <time>2022-08-16T07:12:04Z</time>
      </trkpt>
      <trkpt lat="45.71966" lon="6.47918">
        <ele>803</ele>
        <time>2022-08-16T07:12:05Z</time>
      </trkpt>
      <trkpt lat="45.71967" lon="6.4792">
        <ele>803</ele>
        <time>2022-08-16T07:12:06Z</time>
      </trkpt>
      <trkpt lat="45.71967" lon="6.4792">
        <ele>803</ele>
        <time>2022-08-16T07:12:07Z</time>
      </trkpt>
      <trkpt lat="45.71967" lon="6.4792">
        <ele>803</ele>
        <time>2022-08-16T07:12:08Z</time>
      </trkpt>
      <trkpt lat="45.71967" lon="6.4792">
        <ele>804</ele>
        <time>2022-08-16T07:12:09Z</time>
      </trkpt>
      <trkpt lat="45.71966" lon="6.47922">
        <ele>804</ele>
        <time>2022-08-16T07:12:10Z</time>
      </trkpt>
      <trkpt lat="45.71966" lon="6.47922">
        <ele>804</ele>
        <time>2022-08-16T07:12:11Z</time>
      </trkpt>
      <trkpt lat="45.71966" lon="6.47922">
        <ele>804</ele>
        <time>2022-08-16T07:12:12Z</time>
      </trkpt>
      <trkpt lat="45.71966" lon="6.47922">
        <ele>804</ele>
        <time>2022-08-16T07:12:13Z</time>
      </trkpt>
      <trkpt lat="45.71966" lon="6.47922">
        <ele>804</ele>
        <time>2022-08-16T07:12:17Z</time>
      </trkpt>
      <trkpt lat="45.71966" lon="6.47923">
        <ele>804</ele>
        <time>2022-08-16T07:12:21Z</time>
      </trkpt>
      <trkpt lat="45.71968" lon="6.47929">
        <ele>830</ele>
        <time>2022-08-16T07:12:25.120Z</time>
      </trkpt>
      <trkpt lat="45.71966" lon="6.47932">
        <ele>789</ele>
        <time>2022-08-16T07:12:27Z</time>
      </trkpt>
      <trkpt lat="45.71966" lon="6.47928">
        <ele>797</ele>
        <time>2022-08-16T07:12:28Z</time>
      </trkpt>
      <trkpt lat="45.71966" lon="6.47928">
        <ele>797</ele>
        <time>2022-08-16T07:12:29Z</time>
      </trkpt>
      <trkpt lat="45.71965" lon="6.47928">
        <ele>797</ele>
        <time>2022-08-16T07:12:30Z</time>
      </trkpt>
      <trkpt lat="45.71965" lon="6.47927">
        <ele>796</ele>
        <time>2022-08-16T07:12:34Z</time>
      </trkpt>
      <trkpt lat="45.71965" lon="6.47927">
        <ele>795</ele>
        <time>2022-08-16T07:12:35Z</time>
      </trkpt>
      <trkpt lat="45.71964" lon="6.47927">
        <ele>794</ele>
        <time>2022-08-16T07:12:36Z</time>
      </trkpt>
      <trkpt lat="45.71964" lon="6.47927">
        <ele>793</ele>
        <time>2022-08-16T07:12:37Z</time>
      </trkpt>
      <trkpt lat="45.71964" lon="6.47927">
        <ele>793</ele>
        <time>2022-08-16T07:12:41Z</time>
      </trkpt>
      <trkpt lat="45.71962" lon="6.47927">
        <ele>782</ele>
        <time>2022-08-16T07:12:42Z</time>
      </trkpt>
      <trkpt lat="45.71962" lon="6.47925">
        <ele>785</ele>
        <time>2022-08-16T07:12:43Z</time>
      </trkpt>
      <trkpt lat="45.71962" lon="6.47925">
        <ele>785</ele>
        <time>2022-08-16T07:12:44Z</time>
      </trkpt>
      <trkpt lat="45.71962" lon="6.47924">
        <ele>787</ele>
        <time>2022-08-16T07:12:45Z</time>
      </trkpt>
      <trkpt lat="45.71963" lon="6.47924">
        <ele>790</ele>
        <time>2022-08-16T07:12:46Z</time>
      </trkpt>
      <trkpt lat="45.71962" lon="6.47923">
        <ele>792</ele>
        <time>2022-08-16T07:12:47Z</time>
      </trkpt>
      <trkpt lat="45.71962" lon="6.47923">
        <ele>794</ele>
        <time>2022-08-16T07:12:48Z</time>
      </trkpt>
      <trkpt lat="45.71962" lon="6.47924">
        <ele>795</ele>
        <time>2022-08-16T07:12:49Z</time>
      </trkpt>
      <trkpt lat="45.71964" lon="6.47925">
        <ele>798</ele>
        <time>2022-08-16T07:12:50Z</time>
      </trkpt>
      <trkpt lat="45.71965" lon="6.47927">
        <ele>798</ele>
        <time>2022-08-16T07:12:51Z</time>
      </trkpt>
      <trkpt lat="45.71966" lon="6.47929">
        <ele>799</ele>
        <time>2022-08-16T07:12:52Z</time>
      </trkpt>
      <trkpt lat="45.71967" lon="6.47932">
        <ele>801</ele>
        <time>2022-08-16T07:12:53Z</time>
      </trkpt>
      <trkpt lat="45.71968" lon="6.47934">
        <ele>801</ele>
        <time>2022-08-16T07:12:54Z</time>
      </trkpt>
      <trkpt lat="45.71969" lon="6.47937">
        <ele>801</ele>
        <time>2022-08-16T07:12:55Z</time>
      </trkpt>
      <trkpt lat="45.7197" lon="6.47939">
        <ele>800</ele>
        <time>2022-08-16T07:12:56Z</time>
      </trkpt>
      <trkpt lat="45.71971" lon="6.47942">
        <ele>800</ele>
        <time>2022-08-16T07:12:57Z</time>
      </trkpt>
      <trkpt lat="45.71972" lon="6.47944">
        <ele>800</ele>
        <time>2022-08-16T07:12:58Z</time>
      </trkpt>
      <trkpt lat="45.71973" lon="6.47946">
        <ele>801</ele>
        <time>2022-08-16T07:12:59Z</time>
      </trkpt>
      <trkpt lat="45.71974" lon="6.47948">
        <ele>801</ele>
        <time>2022-08-16T07:13:00Z</time>
      </trkpt>
      <trkpt lat="45.71975" lon="6.47951">
        <ele>799</ele>
        <time>2022-08-16T07:13:01Z</time>
      </trkpt>
      <trkpt lat="45.71977" lon="6.47953">
        <ele>798</ele>
        <time>2022-08-16T07:13:02Z</time>
      </trkpt>
      <trkpt lat="45.71978" lon="6.47955">
        <ele>797</ele>
        <time>2022-08-16T07:13:03Z</time>
      </trkpt>
      <trkpt lat="45.71979" lon="6.47956">
        <ele>796</ele>
        <time>2022-08-16T07:13:04Z</time>
      </trkpt>
      <trkpt lat="45.7198" lon="6.47958">
        <ele>796</ele>
        <time>2022-08-16T07:13:05Z</time>
      </trkpt>
      <trkpt lat="45.71981" lon="6.4796">
        <ele>796</ele>
        <time>2022-08-16T07:13:06Z</time>
      </trkpt>
      <trkpt lat="45.71983" lon="6.47962">
        <ele>795</ele>
        <time>2022-08-16T07:13:07Z</time>
      </trkpt>
      <trkpt lat="45.71985" lon="6.47965">
        <ele>794</ele>
        <time>2022-08-16T07:13:08Z</time>
      </trkpt>
      <trkpt lat="45.71986" lon="6.47967">
        <ele>794</ele>
        <time>2022-08-16T07:13:09Z</time>
      </trkpt>
      <trkpt lat="45.71987" lon="6.47969">
        <ele>794</ele>
        <time>2022-08-16T07:13:10Z</time>
      </trkpt>
      <trkpt lat="45.71988" lon="6.47971">
        <ele>794</ele>
        <time>2022-08-16T07:13:11Z</time>
      </trkpt>
      <trkpt lat="45.71989" lon="6.47973">
        <ele>794</ele>
        <time>2022-08-16T07:13:12Z</time>
      </trkpt>
      <trkpt lat="45.71991" lon="6.47975">
        <ele>794</ele>
        <time>2022-08-16T07:13:13Z</time>
      </trkpt>
      <trkpt lat="45.71992" lon="6.47978">
        <ele>794</ele>
        <time>2022-08-16T07:13:14Z</time>
      </trkpt>
      <trkpt lat="45.71993" lon="6.4798">
        <ele>794</ele>
        <time>2022-08-16T07:13:15Z</time>
      </trkpt>
      <trkpt lat="45.71994" lon="6.47982">
        <ele>795</ele>
        <time>2022-08-16T07:13:16Z</time>
      </trkpt>
      <trkpt lat="45.71995" lon="6.47984">
        <ele>795</ele>
        <time>2022-08-16T07:13:17Z</time>
      </trkpt>
      <trkpt lat="45.71996" lon="6.47986">
        <ele>796</ele>
        <time>2022-08-16T07:13:18Z</time>
      </trkpt>
      <trkpt lat="45.71997" lon="6.47987">
        <ele>797</ele>
        <time>2022-08-16T07:13:19Z</time>
      </trkpt>
      <trkpt lat="45.71999" lon="6.47988">
        <ele>797</ele>
        <time>2022-08-16T07:13:20Z</time>
      </trkpt>
      <trkpt lat="45.72002" lon="6.47989">
        <ele>798</ele>
        <time>2022-08-16T07:13:21Z</time>
      </trkpt>
      <trkpt lat="45.72003" lon="6.4799">
        <ele>798</ele>
        <time>2022-08-16T07:13:22Z</time>
      </trkpt>
      <trkpt lat="45.72005" lon="6.47991">
        <ele>799</ele>
        <time>2022-08-16T07:13:23Z</time>
      </trkpt>
      <trkpt lat="45.72006" lon="6.47991">
        <ele>800</ele>
        <time>2022-08-16T07:13:24Z</time>
      </trkpt>
      <trkpt lat="45.72008" lon="6.47991">
        <ele>801</ele>
        <time>2022-08-16T07:13:25Z</time>
      </trkpt>
      <trkpt lat="45.72009" lon="6.47989">
        <ele>802</ele>
        <time>2022-08-16T07:13:26Z</time>
      </trkpt>
      <trkpt lat="45.72009" lon="6.47987">
        <ele>803</ele>
        <time>2022-08-16T07:13:27Z</time>
      </trkpt>
      <trkpt lat="45.72009" lon="6.47985">
        <ele>804</ele>
        <time>2022-08-16T07:13:28Z</time>
      </trkpt>
      <trkpt lat="45.72009" lon="6.47982">
        <ele>805</ele>
        <time>2022-08-16T07:13:29Z</time>
      </trkpt>
      <trkpt lat="45.72009" lon="6.4798">
        <ele>806</ele>
        <time>2022-08-16T07:13:30Z</time>
      </trkpt>
      <trkpt lat="45.72008" lon="6.47976">
        <ele>806</ele>
        <time>2022-08-16T07:13:31Z</time>
      </trkpt>
      <trkpt lat="45.72007" lon="6.47973">
        <ele>807</ele>
        <time>2022-08-16T07:13:32Z</time>
      </trkpt>
      <trkpt lat="45.72006" lon="6.4797">
        <ele>807</ele>
        <time>2022-08-16T07:13:33Z</time>
      </trkpt>
      <trkpt lat="45.72004" lon="6.47968">
        <ele>808</ele>
        <time>2022-08-16T07:13:34Z</time>
      </trkpt>
      <trkpt lat="45.72002" lon="6.47966">
        <ele>809</ele>
        <time>2022-08-16T07:13:35Z</time>
      </trkpt>
      <trkpt lat="45.72001" lon="6.47964">
        <ele>809</ele>
        <time>2022-08-16T07:13:36Z</time>
      </trkpt>
      <trkpt lat="45.72" lon="6.47961">
        <ele>810</ele>
        <time>2022-08-16T07:13:37Z</time>
      </trkpt>
      <trkpt lat="45.71998" lon="6.47959">
        <ele>811</ele>
        <time>2022-08-16T07:13:38Z</time>
      </trkpt>
      <trkpt lat="45.71997" lon="6.47956">
        <ele>812</ele>
        <time>2022-08-16T07:13:39Z</time>
      </trkpt>
      <trkpt lat="45.71995" lon="6.47954">
        <ele>813</ele>
        <time>2022-08-16T07:13:40Z</time>
      </trkpt>
      <trkpt lat="45.71994" lon="6.47951">
        <ele>813</ele>
        <time>2022-08-16T07:13:41Z</time>
      </trkpt>
      <trkpt lat="45.71994" lon="6.47949">
        <ele>813</ele>
        <time>2022-08-16T07:13:42Z</time>
      </trkpt>
      <trkpt lat="45.71993" lon="6.47946">
        <ele>814</ele>
        <time>2022-08-16T07:13:43Z</time>
      </trkpt>
      <trkpt lat="45.71992" lon="6.47944">
        <ele>814</ele>
        <time>2022-08-16T07:13:44Z</time>
      </trkpt>
      <trkpt lat="45.71991" lon="6.4794">
        <ele>814</ele>
        <time>2022-08-16T07:13:45Z</time>
      </trkpt>
      <trkpt lat="45.7199" lon="6.47937">
        <ele>814</ele>
        <time>2022-08-16T07:13:46Z</time>
      </trkpt>
      <trkpt lat="45.7199" lon="6.47934">
        <ele>815</ele>
        <time>2022-08-16T07:13:47Z</time>
      </trkpt>
      <trkpt lat="45.7199" lon="6.47931">
        <ele>815</ele>
        <time>2022-08-16T07:13:48Z</time>
      </trkpt>
      <trkpt lat="45.71989" lon="6.47928">
        <ele>814</ele>
        <time>2022-08-16T07:13:49Z</time>
      </trkpt>
      <trkpt lat="45.7199" lon="6.47925">
        <ele>814</ele>
        <time>2022-08-16T07:13:50Z</time>
      </trkpt>
      <trkpt lat="45.7199" lon="6.47922">
        <ele>813</ele>
        <time>2022-08-16T07:13:51Z</time>
      </trkpt>
      <trkpt lat="45.7199" lon="6.47919">
        <ele>813</ele>
        <time>2022-08-16T07:13:52Z</time>
      </trkpt>
      <trkpt lat="45.71989" lon="6.47916">
        <ele>813</ele>
        <time>2022-08-16T07:13:53Z</time>
      </trkpt>
      <trkpt lat="45.71989" lon="6.47913">
        <ele>813</ele>
        <time>2022-08-16T07:13:54Z</time>
      </trkpt>
      <trkpt lat="45.71988" lon="6.4791">
        <ele>813</ele>
        <time>2022-08-16T07:13:55Z</time>
      </trkpt>
      <trkpt lat="45.71988" lon="6.47908">
        <ele>813</ele>
        <time>2022-08-16T07:13:56Z</time>
      </trkpt>
      <trkpt lat="45.71988" lon="6.47905">
        <ele>812</ele>
        <time>2022-08-16T07:13:57Z</time>
      </trkpt>
      <trkpt lat="45.71988" lon="6.47904">
        <ele>813</ele>
        <time>2022-08-16T07:13:58Z</time>
      </trkpt>
      <trkpt lat="45.71987" lon="6.47901">
        <ele>812</ele>
        <time>2022-08-16T07:13:59Z</time>
      </trkpt>
      <trkpt lat="45.71987" lon="6.47899">
        <ele>812</ele>
        <time>2022-08-16T07:14:00Z</time>
      </trkpt>
      <trkpt lat="45.71987" lon="6.47897">
        <ele>812</ele>
        <time>2022-08-16T07:14:01Z</time>
      </trkpt>
      <trkpt lat="45.71987" lon="6.47895">
        <ele>812</ele>
        <time>2022-08-16T07:14:02Z</time>
      </trkpt>
      <trkpt lat="45.71987" lon="6.47892">
        <ele>812</ele>
        <time>2022-08-16T07:14:03Z</time>
      </trkpt>
      <trkpt lat="45.71987" lon="6.47889">
        <ele>812</ele>
        <time>2022-08-16T07:14:04Z</time>
      </trkpt>
      <trkpt lat="45.71988" lon="6.47886">
        <ele>812</ele>
        <time>2022-08-16T07:14:05Z</time>
      </trkpt>
      <trkpt lat="45.71988" lon="6.47883">
        <ele>813</ele>
        <time>2022-08-16T07:14:06Z</time>
      </trkpt>
      <trkpt lat="45.71989" lon="6.4788">
        <ele>814</ele>
        <time>2022-08-16T07:14:07Z</time>
      </trkpt>
      <trkpt lat="45.71989" lon="6.47877">
        <ele>814</ele>
        <time>2022-08-16T07:14:08Z</time>
      </trkpt>
      <trkpt lat="45.71989" lon="6.47874">
        <ele>814</ele>
        <time>2022-08-16T07:14:09Z</time>
      </trkpt>
      <trkpt lat="45.7199" lon="6.4787">
        <ele>814</ele>
        <time>2022-08-16T07:14:10Z</time>
      </trkpt>
      <trkpt lat="45.7199" lon="6.47866">
        <ele>814</ele>
        <time>2022-08-16T07:14:11Z</time>
      </trkpt>
      <trkpt lat="45.7199" lon="6.47863">
        <ele>814</ele>
        <time>2022-08-16T07:14:12Z</time>
      </trkpt>
      <trkpt lat="45.71991" lon="6.47859">
        <ele>814</ele>
        <time>2022-08-16T07:14:13Z</time>
      </trkpt>
      <trkpt lat="45.71992" lon="6.47856">
        <ele>814</ele>
        <time>2022-08-16T07:14:14Z</time>
      </trkpt>
      <trkpt lat="45.71992" lon="6.47853">
        <ele>814</ele>
        <time>2022-08-16T07:14:15Z</time>
      </trkpt>
      <trkpt lat="45.71992" lon="6.4785">
        <ele>813</ele>
        <time>2022-08-16T07:14:16Z</time>
      </trkpt>
      <trkpt lat="45.71993" lon="6.47847">
        <ele>813</ele>
        <time>2022-08-16T07:14:17Z</time>
      </trkpt>
      <trkpt lat="45.71993" lon="6.47844">
        <ele>813</ele>
        <time>2022-08-16T07:14:18Z</time>
      </trkpt>
      <trkpt lat="45.71993" lon="6.47841">
        <ele>813</ele>
        <time>2022-08-16T07:14:19Z</time>
      </trkpt>
      <trkpt lat="45.71993" lon="6.47837">
        <ele>813</ele>
        <time>2022-08-16T07:14:20Z</time>
      </trkpt>
      <trkpt lat="45.71992" lon="6.47834">
        <ele>813</ele>
        <time>2022-08-16T07:14:21Z</time>
      </trkpt>
      <trkpt lat="45.71992" lon="6.47831">
        <ele>814</ele>
        <time>2022-08-16T07:14:22Z</time>
      </trkpt>
      <trkpt lat="45.71991" lon="6.47829">
        <ele>815</ele>
        <time>2022-08-16T07:14:23Z</time>
      </trkpt>
      <trkpt lat="45.71991" lon="6.47826">
        <ele>815</ele>
        <time>2022-08-16T07:14:24Z</time>
      </trkpt>
      <trkpt lat="45.7199" lon="6.47823">
        <ele>815</ele>
        <time>2022-08-16T07:14:25Z</time>
      </trkpt>
      <trkpt lat="45.71989" lon="6.47819">
        <ele>815</ele>
        <time>2022-08-16T07:14:26Z</time>
      </trkpt>
      <trkpt lat="45.71988" lon="6.47816">
        <ele>815</ele>
        <time>2022-08-16T07:14:27Z</time>
      </trkpt>
      <trkpt lat="45.71987" lon="6.47814">
        <ele>816</ele>
        <time>2022-08-16T07:14:28Z</time>
      </trkpt>
      <trkpt lat="45.71985" lon="6.47813">
        <ele>816</ele>
        <time>2022-08-16T07:14:29Z</time>
      </trkpt>
      <trkpt lat="45.71984" lon="6.47811">
        <ele>817</ele>
        <time>2022-08-16T07:14:30Z</time>
      </trkpt>
      <trkpt lat="45.71982" lon="6.47808">
        <ele>817</ele>
        <time>2022-08-16T07:14:31Z</time>
      </trkpt>
      <trkpt lat="45.71981" lon="6.47806">
        <ele>817</ele>
        <time>2022-08-16T07:14:32Z</time>
      </trkpt>
      <trkpt lat="45.7198" lon="6.47803">
        <ele>818</ele>
        <time>2022-08-16T07:14:33Z</time>
      </trkpt>
      <trkpt lat="45.71979" lon="6.478">
        <ele>818</ele>
        <time>2022-08-16T07:14:34Z</time>
      </trkpt>
      <trkpt lat="45.71978" lon="6.47798">
        <ele>818</ele>
        <time>2022-08-16T07:14:35Z</time>
      </trkpt>
      <trkpt lat="45.71976" lon="6.47796">
        <ele>818</ele>
        <time>2022-08-16T07:14:36Z</time>
      </trkpt>
      <trkpt lat="45.71975" lon="6.47793">
        <ele>818</ele>
        <time>2022-08-16T07:14:37Z</time>
      </trkpt>
      <trkpt lat="45.71974" lon="6.47791">
        <ele>818</ele>
        <time>2022-08-16T07:14:38Z</time>
      </trkpt>
      <trkpt lat="45.71972" lon="6.4779">
        <ele>818</ele>
        <time>2022-08-16T07:14:39Z</time>
      </trkpt>
      <trkpt lat="45.7197" lon="6.47787">
        <ele>818</ele>
        <time>2022-08-16T07:14:40Z</time>
      </trkpt>
      <trkpt lat="45.71968" lon="6.47785">
        <ele>818</ele>
        <time>2022-08-16T07:14:41Z</time>
      </trkpt>
      <trkpt lat="45.71967" lon="6.47782">
        <ele>818</ele>
        <time>2022-08-16T07:14:42Z</time>
      </trkpt>
      <trkpt lat="45.71965" lon="6.4778">
        <ele>818</ele>
        <time>2022-08-16T07:14:43Z</time>
      </trkpt>
      <trkpt lat="45.71964" lon="6.47778">
        <ele>819</ele>
        <time>2022-08-16T07:14:44Z</time>
      </trkpt>
      <trkpt lat="45.71962" lon="6.47776">
        <ele>819</ele>
        <time>2022-08-16T07:14:45Z</time>
      </trkpt>
      <trkpt lat="45.71961" lon="6.47775">
        <ele>819</ele>
        <time>2022-08-16T07:14:46Z</time>
      </trkpt>
      <trkpt lat="45.7196" lon="6.47772">
        <ele>819</ele>
        <time>2022-08-16T07:14:47Z</time>
      </trkpt>
      <trkpt lat="45.71958" lon="6.4777">
        <ele>820</ele>
        <time>2022-08-16T07:14:48Z</time>
      </trkpt>
      <trkpt lat="45.71958" lon="6.47767">
        <ele>820</ele>
        <time>2022-08-16T07:14:49Z</time>
      </trkpt>
      <trkpt lat="45.71956" lon="6.47764">
        <ele>820</ele>
        <time>2022-08-16T07:14:50Z</time>
      </trkpt>
      <trkpt lat="45.71956" lon="6.47761">
        <ele>821</ele>
        <time>2022-08-16T07:14:51Z</time>
      </trkpt>
      <trkpt lat="45.71955" lon="6.47759">
        <ele>820</ele>
        <time>2022-08-16T07:14:52Z</time>
      </trkpt>
      <trkpt lat="45.71955" lon="6.47756">
        <ele>820</ele>
        <time>2022-08-16T07:14:53Z</time>
      </trkpt>
      <trkpt lat="45.71954" lon="6.47753">
        <ele>821</ele>
        <time>2022-08-16T07:14:54Z</time>
      </trkpt>
      <trkpt lat="45.71954" lon="6.47751">
        <ele>820</ele>
        <time>2022-08-16T07:14:55Z</time>
      </trkpt>
      <trkpt lat="45.71953" lon="6.47749">
        <ele>820</ele>
        <time>2022-08-16T07:14:56Z</time>
      </trkpt>
      <trkpt lat="45.71952" lon="6.47747">
        <ele>821</ele>
        <time>2022-08-16T07:14:57Z</time>
      </trkpt>
      <trkpt lat="45.71951" lon="6.47745">
        <ele>821</ele>
        <time>2022-08-16T07:14:58Z</time>
      </trkpt>
      <trkpt lat="45.7195" lon="6.47743">
        <ele>822</ele>
        <time>2022-08-16T07:14:59Z</time>
      </trkpt>
      <trkpt lat="45.71949" lon="6.47741">
        <ele>822</ele>
        <time>2022-08-16T07:15:00Z</time>
      </trkpt>
      <trkpt lat="45.71948" lon="6.47739">
        <ele>822</ele>
        <time>2022-08-16T07:15:01Z</time>
      </trkpt>
      <trkpt lat="45.71947" lon="6.47738">
        <ele>822</ele>
        <time>2022-08-16T07:15:02Z</time>
      </trkpt>
      <trkpt lat="45.71946" lon="6.47736">
        <ele>822</ele>
        <time>2022-08-16T07:15:03Z</time>
      </trkpt>
      <trkpt lat="45.71945" lon="6.47734">
        <ele>822</ele>
        <time>2022-08-16T07:15:04Z</time>
      </trkpt>
      <trkpt lat="45.71944" lon="6.47732">
        <ele>822</ele>
        <time>2022-08-16T07:15:05Z</time>
      </trkpt>
      <trkpt lat="45.71943" lon="6.4773">
        <ele>822</ele>
        <time>2022-08-16T07:15:06Z</time>
      </trkpt>
      <trkpt lat="45.71942" lon="6.47727">
        <ele>823</ele>
        <time>2022-08-16T07:15:07Z</time>
      </trkpt>
      <trkpt lat="45.71941" lon="6.47726">
        <ele>822</ele>
        <time>2022-08-16T07:15:08Z</time>
      </trkpt>
      <trkpt lat="45.7194" lon="6.47723">
        <ele>822</ele>
        <time>2022-08-16T07:15:09Z</time>
      </trkpt>
      <trkpt lat="45.71938" lon="6.47721">
        <ele>823</ele>
        <time>2022-08-16T07:15:10Z</time>
      </trkpt>
      <trkpt lat="45.71937" lon="6.47719">
        <ele>823</ele>
        <time>2022-08-16T07:15:11Z</time>
      </trkpt>
      <trkpt lat="45.71936" lon="6.47717">
        <ele>824</ele>
        <time>2022-08-16T07:15:12Z</time>
      </trkpt>
      <trkpt lat="45.71934" lon="6.47715">
        <ele>824</ele>
        <time>2022-08-16T07:15:13Z</time>
      </trkpt>
      <trkpt lat="45.71933" lon="6.47712">
        <ele>825</ele>
        <time>2022-08-16T07:15:14Z</time>
      </trkpt>
      <trkpt lat="45.71932" lon="6.4771">
        <ele>826</ele>
        <time>2022-08-16T07:15:15Z</time>
      </trkpt>
      <trkpt lat="45.71931" lon="6.47707">
        <ele>826</ele>
        <time>2022-08-16T07:15:16Z</time>
      </trkpt>
      <trkpt lat="45.7193" lon="6.47704">
        <ele>826</ele>
        <time>2022-08-16T07:15:17Z</time>
      </trkpt>
      <trkpt lat="45.71929" lon="6.47701">
        <ele>826</ele>
        <time>2022-08-16T07:15:18Z</time>
      </trkpt>
      <trkpt lat="45.71928" lon="6.47699">
        <ele>826</ele>
        <time>2022-08-16T07:15:19Z</time>
      </trkpt>
      <trkpt lat="45.71928" lon="6.47696">
        <ele>826</ele>
        <time>2022-08-16T07:15:20Z</time>
      </trkpt>
      <trkpt lat="45.71927" lon="6.47694">
        <ele>826</ele>
        <time>2022-08-16T07:15:21Z</time>
      </trkpt>
      <trkpt lat="45.71926" lon="6.47691">
        <ele>826</ele>
        <time>2022-08-16T07:15:22Z</time>
      </trkpt>
      <trkpt lat="45.71926" lon="6.47689">
        <ele>826</ele>
        <time>2022-08-16T07:15:23Z</time>
      </trkpt>
      <trkpt lat="45.71925" lon="6.47686">
        <ele>826</ele>
        <time>2022-08-16T07:15:24Z</time>
      </trkpt>
      <trkpt lat="45.71924" lon="6.47684">
        <ele>826</ele>
        <time>2022-08-16T07:15:25Z</time>
      </trkpt>
      <trkpt lat="45.71923" lon="6.47682">
        <ele>826</ele>
        <time>2022-08-16T07:15:26Z</time>
      </trkpt>
      <trkpt lat="45.71921" lon="6.4768">
        <ele>826</ele>
        <time>2022-08-16T07:15:27Z</time>
      </trkpt>
      <trkpt lat="45.7192" lon="6.47678">
        <ele>826</ele>
        <time>2022-08-16T07:15:28Z</time>
      </trkpt>
      <trkpt lat="45.71918" lon="6.47676">
        <ele>826</ele>
        <time>2022-08-16T07:15:29Z</time>
      </trkpt>
      <trkpt lat="45.71917" lon="6.47674">
        <ele>827</ele>
        <time>2022-08-16T07:15:30Z</time>
      </trkpt>
      <trkpt lat="45.71915" lon="6.47673">
        <ele>827</ele>
        <time>2022-08-16T07:15:31Z</time>
      </trkpt>
      <trkpt lat="45.71914" lon="6.4767">
        <ele>828</ele>
        <time>2022-08-16T07:15:32Z</time>
      </trkpt>
      <trkpt lat="45.71913" lon="6.47668">
        <ele>829</ele>
        <time>2022-08-16T07:15:33Z</time>
      </trkpt>
      <trkpt lat="45.71912" lon="6.47666">
        <ele>829</ele>
        <time>2022-08-16T07:15:34Z</time>
      </trkpt>
      <trkpt lat="45.71912" lon="6.47663">
        <ele>830</ele>
        <time>2022-08-16T07:15:35Z</time>
      </trkpt>
      <trkpt lat="45.71912" lon="6.4766">
        <ele>830</ele>
        <time>2022-08-16T07:15:36Z</time>
      </trkpt>
      <trkpt lat="45.71911" lon="6.47658">
        <ele>831</ele>
        <time>2022-08-16T07:15:37Z</time>
      </trkpt>
      <trkpt lat="45.7191" lon="6.47655">
        <ele>831</ele>
        <time>2022-08-16T07:15:38Z</time>
      </trkpt>
      <trkpt lat="45.71909" lon="6.47653">
        <ele>831</ele>
        <time>2022-08-16T07:15:39Z</time>
      </trkpt>
      <trkpt lat="45.71908" lon="6.4765">
        <ele>831</ele>
        <time>2022-08-16T07:15:40Z</time>
      </trkpt>
      <trkpt lat="45.71907" lon="6.47648">
        <ele>831</ele>
        <time>2022-08-16T07:15:41Z</time>
      </trkpt>
      <trkpt lat="45.71905" lon="6.47646">
        <ele>830</ele>
        <time>2022-08-16T07:15:42Z</time>
      </trkpt>
      <trkpt lat="45.71904" lon="6.47644">
        <ele>830</ele>
        <time>2022-08-16T07:15:43Z</time>
      </trkpt>
      <trkpt lat="45.71903" lon="6.47643">
        <ele>831</ele>
        <time>2022-08-16T07:15:44Z</time>
      </trkpt>
      <trkpt lat="45.71901" lon="6.47641">
        <ele>831</ele>
        <time>2022-08-16T07:15:45Z</time>
      </trkpt>
      <trkpt lat="45.719" lon="6.4764">
        <ele>832</ele>
        <time>2022-08-16T07:15:46Z</time>
      </trkpt>
      <trkpt lat="45.71898" lon="6.4764">
        <ele>831</ele>
        <time>2022-08-16T07:15:47Z</time>
      </trkpt>
      <trkpt lat="45.71897" lon="6.47639">
        <ele>831</ele>
        <time>2022-08-16T07:15:48Z</time>
      </trkpt>
      <trkpt lat="45.71895" lon="6.47639">
        <ele>831</ele>
        <time>2022-08-16T07:15:49Z</time>
      </trkpt>
      <trkpt lat="45.71893" lon="6.47639">
        <ele>832</ele>
        <time>2022-08-16T07:15:50Z</time>
      </trkpt>
      <trkpt lat="45.71892" lon="6.4764">
        <ele>832</ele>
        <time>2022-08-16T07:15:51Z</time>
      </trkpt>
      <trkpt lat="45.7189" lon="6.47641">
        <ele>832</ele>
        <time>2022-08-16T07:15:52Z</time>
      </trkpt>
      <trkpt lat="45.71889" lon="6.47642">
        <ele>833</ele>
        <time>2022-08-16T07:15:53Z</time>
      </trkpt>
      <trkpt lat="45.71888" lon="6.47643">
        <ele>832</ele>
        <time>2022-08-16T07:15:54Z</time>
      </trkpt>
      <trkpt lat="45.71887" lon="6.47644">
        <ele>832</ele>
        <time>2022-08-16T07:15:55Z</time>
      </trkpt>
      <trkpt lat="45.71885" lon="6.47644">
        <ele>832</ele>
        <time>2022-08-16T07:15:56Z</time>
      </trkpt>
      <trkpt lat="45.71884" lon="6.47645">
        <ele>832</ele>
        <time>2022-08-16T07:15:57Z</time>
      </trkpt>
      <trkpt lat="45.71883" lon="6.47646">
        <ele>832</ele>
        <time>2022-08-16T07:15:58Z</time>
      </trkpt>
      <trkpt lat="45.7188" lon="6.47647">
        <ele>833</ele>
        <time>2022-08-16T07:15:59Z</time>
      </trkpt>
      <trkpt lat="45.71878" lon="6.47646">
        <ele>833</ele>
        <time>2022-08-16T07:16:00Z</time>
      </trkpt>
      <trkpt lat="45.71876" lon="6.47646">
        <ele>834</ele>
        <time>2022-08-16T07:16:01Z</time>
      </trkpt>
      <trkpt lat="45.71875" lon="6.47644">
        <ele>834</ele>
        <time>2022-08-16T07:16:02Z</time>
      </trkpt>
      <trkpt lat="45.71873" lon="6.47643">
        <ele>834</ele>
        <time>2022-08-16T07:16:03Z</time>
      </trkpt>
      <trkpt lat="45.71872" lon="6.47641">
        <ele>834</ele>
        <time>2022-08-16T07:16:04Z</time>
      </trkpt>
      <trkpt lat="45.71871" lon="6.47639">
        <ele>835</ele>
        <time>2022-08-16T07:16:05Z</time>
      </trkpt>
      <trkpt lat="45.71869" lon="6.47638">
        <ele>835</ele>
        <time>2022-08-16T07:16:06Z</time>
      </trkpt>
      <trkpt lat="45.71868" lon="6.47636">
        <ele>835</ele>
        <time>2022-08-16T07:16:07Z</time>
      </trkpt>
      <trkpt lat="45.71867" lon="6.47634">
        <ele>835</ele>
        <time>2022-08-16T07:16:08Z</time>
      </trkpt>
      <trkpt lat="45.71865" lon="6.47632">
        <ele>835</ele>
        <time>2022-08-16T07:16:09Z</time>
      </trkpt>
      <trkpt lat="45.71863" lon="6.4763">
        <ele>834</ele>
        <time>2022-08-16T07:16:10Z</time>
      </trkpt>
      <trkpt lat="45.71862" lon="6.4763">
        <ele>834</ele>
        <time>2022-08-16T07:16:11Z</time>
      </trkpt>
      <trkpt lat="45.7186" lon="6.47628">
        <ele>834</ele>
        <time>2022-08-16T07:16:12Z</time>
      </trkpt>
      <trkpt lat="45.71859" lon="6.47626">
        <ele>835</ele>
        <time>2022-08-16T07:16:13Z</time>
      </trkpt>
      <trkpt lat="45.71857" lon="6.47624">
        <ele>835</ele>
        <time>2022-08-16T07:16:14Z</time>
      </trkpt>
      <trkpt lat="45.71856" lon="6.47622">
        <ele>835</ele>
        <time>2022-08-16T07:16:15Z</time>
      </trkpt>
      <trkpt lat="45.71855" lon="6.4762">
        <ele>835</ele>
        <time>2022-08-16T07:16:16Z</time>
      </trkpt>
      <trkpt lat="45.71854" lon="6.47618">
        <ele>835</ele>
        <time>2022-08-16T07:16:17Z</time>
      </trkpt>
      <trkpt lat="45.71853" lon="6.47616">
        <ele>835</ele>
        <time>2022-08-16T07:16:18Z</time>
      </trkpt>
      <trkpt lat="45.71852" lon="6.47614">
        <ele>835</ele>
        <time>2022-08-16T07:16:19Z</time>
      </trkpt>
      <trkpt lat="45.71851" lon="6.47614">
        <ele>835</ele>
        <time>2022-08-16T07:16:20Z</time>
      </trkpt>
      <trkpt lat="45.7185" lon="6.47613">
        <ele>835</ele>
        <time>2022-08-16T07:16:21Z</time>
      </trkpt>
      <trkpt lat="45.71849" lon="6.47613">
        <ele>835</ele>
        <time>2022-08-16T07:16:22Z</time>
      </trkpt>
      <trkpt lat="45.71847" lon="6.47612">
        <ele>835</ele>
        <time>2022-08-16T07:16:23Z</time>
      </trkpt>
      <trkpt lat="45.71845" lon="6.47612">
        <ele>835</ele>
        <time>2022-08-16T07:16:24Z</time>
      </trkpt>
      <trkpt lat="45.71843" lon="6.47611">
        <ele>836</ele>
        <time>2022-08-16T07:16:25Z</time>
      </trkpt>
      <trkpt lat="45.71841" lon="6.4761">
        <ele>836</ele>
        <time>2022-08-16T07:16:26Z</time>
      </trkpt>
      <trkpt lat="45.71839" lon="6.47609">
        <ele>836</ele>
        <time>2022-08-16T07:16:27Z</time>
      </trkpt>
      <trkpt lat="45.71836" lon="6.47607">
        <ele>836</ele>
        <time>2022-08-16T07:16:28Z</time>
      </trkpt>
      <trkpt lat="45.71834" lon="6.47606">
        <ele>837</ele>
        <time>2022-08-16T07:16:29Z</time>
      </trkpt>
      <trkpt lat="45.71817" lon="6.4759">
        <ele>833</ele>
        <time>2022-08-16T07:16:32.264Z</time>
      </trkpt>
      <trkpt lat="45.71806" lon="6.47605">
        <ele>837</ele>
        <time>2022-08-16T07:16:34Z</time>
      </trkpt>
      <trkpt lat="45.71811" lon="6.47607">
        <ele>833</ele>
        <time>2022-08-16T07:16:35Z</time>
      </trkpt>
      <trkpt lat="45.71811" lon="6.47601">
        <ele>835</ele>
        <time>2022-08-16T07:16:36Z</time>
      </trkpt>
      <trkpt lat="45.71808" lon="6.47599">
        <ele>836</ele>
        <time>2022-08-16T07:16:37Z</time>
      </trkpt>
      <trkpt lat="45.71805" lon="6.47601">
        <ele>837</ele>
        <time>2022-08-16T07:16:38Z</time>
      </trkpt>
      <trkpt lat="45.71802" lon="6.47602">
        <ele>840</ele>
        <time>2022-08-16T07:16:39Z</time>
      </trkpt>
      <trkpt lat="45.71801" lon="6.47604">
        <ele>842</ele>
        <time>2022-08-16T07:16:40Z</time>
      </trkpt>
      <trkpt lat="45.71801" lon="6.47604">
        <ele>841</ele>
        <time>2022-08-16T07:16:41Z</time>
      </trkpt>
      <trkpt lat="45.71798" lon="6.47605">
        <ele>843</ele>
        <time>2022-08-16T07:16:42Z</time>
      </trkpt>
      <trkpt lat="45.71797" lon="6.47604">
        <ele>844</ele>
        <time>2022-08-16T07:16:43Z</time>
      </trkpt>
      <trkpt lat="45.71795" lon="6.47604">
        <ele>844</ele>
        <time>2022-08-16T07:16:44Z</time>
      </trkpt>
      <trkpt lat="45.71793" lon="6.47603">
        <ele>844</ele>
        <time>2022-08-16T07:16:45Z</time>
      </trkpt>
      <trkpt lat="45.7179" lon="6.47602">
        <ele>844</ele>
        <time>2022-08-16T07:16:46Z</time>
      </trkpt>
      <trkpt lat="45.71788" lon="6.47603">
        <ele>846</ele>
        <time>2022-08-16T07:16:47Z</time>
      </trkpt>
      <trkpt lat="45.71787" lon="6.47602">
        <ele>847</ele>
        <time>2022-08-16T07:16:48Z</time>
      </trkpt>
      <trkpt lat="45.72015" lon="6.47676">
        <ele>880</ele>
        <time>2022-08-16T07:19:21Z</time>
      </trkpt>
      <trkpt lat="45.72015" lon="6.47676">
        <ele>881</ele>
        <time>2022-08-16T07:19:22Z</time>
      </trkpt>
      <trkpt lat="45.72015" lon="6.47676">
        <ele>881</ele>
        <time>2022-08-16T07:19:26Z</time>
      </trkpt>
      <trkpt lat="45.72022" lon="6.47669">
        <ele>855</ele>
        <time>2022-08-16T07:19:31.368Z</time>
      </trkpt>
      <trkpt lat="45.72022" lon="6.47672">
        <ele>857</ele>
        <time>2022-08-16T07:19:33Z</time>
      </trkpt>
      <trkpt lat="45.7201" lon="6.47679">
        <ele>868</ele>
        <time>2022-08-16T07:19:34Z</time>
      </trkpt>
      <trkpt lat="45.72009" lon="6.47686">
        <ele>864</ele>
        <time>2022-08-16T07:19:35Z</time>
      </trkpt>
      <trkpt lat="45.72009" lon="6.47687">
        <ele>864</ele>
        <time>2022-08-16T07:19:36Z</time>
      </trkpt>
      <trkpt lat="45.72007" lon="6.47692">
        <ele>870</ele>
        <time>2022-08-16T07:19:37Z</time>
      </trkpt>
      <trkpt lat="45.72007" lon="6.47688">
        <ele>870</ele>
        <time>2022-08-16T07:19:41Z</time>
      </trkpt>
      <trkpt lat="45.72008" lon="6.47685">
        <ele>866</ele>
        <time>2022-08-16T07:19:42Z</time>
      </trkpt>
      <trkpt lat="45.72009" lon="6.47683">
        <ele>863</ele>
        <time>2022-08-16T07:19:43Z</time>
      </trkpt>
      <trkpt lat="45.72011" lon="6.47681">
        <ele>860</ele>
        <time>2022-08-16T07:19:44Z</time>
      </trkpt>
      <trkpt lat="45.72013" lon="6.4768">
        <ele>861</ele>
        <time>2022-08-16T07:19:45Z</time>
      </trkpt>
      <trkpt lat="45.72013" lon="6.4768">
        <ele>861</ele>
        <time>2022-08-16T07:19:46Z</time>
      </trkpt>
      <trkpt lat="45.72013" lon="6.4768">
        <ele>861</ele>
        <time>2022-08-16T07:19:50Z</time>
      </trkpt>
      <trkpt lat="45.72013" lon="6.4768">
        <ele>861</ele>
        <time>2022-08-16T07:19:54Z</time>
      </trkpt>
      <trkpt lat="45.72013" lon="6.4768">
        <ele>861</ele>
        <time>2022-08-16T07:19:58Z</time>
      </trkpt>
      <trkpt lat="45.72013" lon="6.47679">
        <ele>861</ele>
        <time>2022-08-16T07:19:59Z</time>
      </trkpt>
      <trkpt lat="45.72013" lon="6.47679">
        <ele>861</ele>
        <time>2022-08-16T07:20:00Z</time>
      </trkpt>
      <trkpt lat="45.72013" lon="6.47679">
        <ele>861</ele>
        <time>2022-08-16T07:20:01Z</time>
      </trkpt>
      <trkpt lat="45.72013" lon="6.47678">
        <ele>862</ele>
        <time>2022-08-16T07:20:02Z</time>
      </trkpt>
      <trkpt lat="45.72013" lon="6.47677">
        <ele>862</ele>
        <time>2022-08-16T07:20:03Z</time>
      </trkpt>
      <trkpt lat="45.72014" lon="6.47678">
        <ele>863</ele>
        <time>2022-08-16T07:20:05Z</time>
      </trkpt>
      <trkpt lat="45.72015" lon="6.47678">
        <ele>864</ele>
        <time>2022-08-16T07:20:06Z</time>
      </trkpt>
      <trkpt lat="45.72017" lon="6.47679">
        <ele>865</ele>
        <time>2022-08-16T07:20:07Z</time>
      </trkpt>
      <trkpt lat="45.72019" lon="6.47679">
        <ele>866</ele>
        <time>2022-08-16T07:20:08Z</time>
      </trkpt>
      <trkpt lat="45.7202" lon="6.47679">
        <ele>867</ele>
        <time>2022-08-16T07:20:09Z</time>
      </trkpt>
      <trkpt lat="45.72022" lon="6.47679">
        <ele>868</ele>
        <time>2022-08-16T07:20:10Z</time>
      </trkpt>
      <trkpt lat="45.72024" lon="6.4768">
        <ele>869</ele>
        <time>2022-08-16T07:20:11Z</time>
      </trkpt>
      <trkpt lat="45.72026" lon="6.4768">
        <ele>870</ele>
        <time>2022-08-16T07:20:12Z</time>
      </trkpt>
      <trkpt lat="45.72028" lon="6.47682">
        <ele>871</ele>
        <time>2022-08-16T07:20:13Z</time>
      </trkpt>
      <trkpt lat="45.7203" lon="6.47683">
        <ele>871</ele>
        <time>2022-08-16T07:20:14Z</time>
      </trkpt>
      <trkpt lat="45.72031" lon="6.47684">
        <ele>872</ele>
        <time>2022-08-16T07:20:15Z</time>
      </trkpt>
      <trkpt lat="45.72033" lon="6.47685">
        <ele>873</ele>
        <time>2022-08-16T07:20:16Z</time>
      </trkpt>
      <trkpt lat="45.72035" lon="6.47686">
        <ele>873</ele>
        <time>2022-08-16T07:20:17Z</time>
      </trkpt>
      <trkpt lat="45.72037" lon="6.47687">
        <ele>873</ele>
        <time>2022-08-16T07:20:18Z</time>
      </trkpt>
      <trkpt lat="45.72039" lon="6.47689">
        <ele>874</ele>
        <time>2022-08-16T07:20:19Z</time>
      </trkpt>
      <trkpt lat="45.7204" lon="6.4769">
        <ele>874</ele>
        <time>2022-08-16T07:20:20Z</time>
      </trkpt>
      <trkpt lat="45.72042" lon="6.47692">
        <ele>874</ele>
        <time>2022-08-16T07:20:21Z</time>
      </trkpt>
      <trkpt lat="45.72044" lon="6.47693">
        <ele>874</ele>
        <time>2022-08-16T07:20:22Z</time>
      </trkpt>
      <trkpt lat="45.72046" lon="6.47695">
        <ele>875</ele>
        <time>2022-08-16T07:20:23Z</time>
      </trkpt>
      <trkpt lat="45.72047" lon="6.47696">
        <ele>875</ele>
        <time>2022-08-16T07:20:24Z</time>
      </trkpt>
      <trkpt lat="45.72049" lon="6.47698">
        <ele>876</ele>
        <time>2022-08-16T07:20:25Z</time>
      </trkpt>
      <trkpt lat="45.72051" lon="6.47699">
        <ele>876</ele>
        <time>2022-08-16T07:20:26Z</time>
      </trkpt>
      <trkpt lat="45.72053" lon="6.477">
        <ele>877</ele>
        <time>2022-08-16T07:20:27Z</time>
      </trkpt>
      <trkpt lat="45.72055" lon="6.47701">
        <ele>877</ele>
        <time>2022-08-16T07:20:28Z</time>
      </trkpt>
      <trkpt lat="45.72057" lon="6.47702">
        <ele>877</ele>
        <time>2022-08-16T07:20:29Z</time>
      </trkpt>
      <trkpt lat="45.72058" lon="6.47704">
        <ele>878</ele>
        <time>2022-08-16T07:20:30Z</time>
      </trkpt>
      <trkpt lat="45.7206" lon="6.47706">
        <ele>878</ele>
        <time>2022-08-16T07:20:31Z</time>
      </trkpt>
      <trkpt lat="45.72062" lon="6.47707">
        <ele>878</ele>
        <time>2022-08-16T07:20:32Z</time>
      </trkpt>
      <trkpt lat="45.72064" lon="6.47709">
        <ele>879</ele>
        <time>2022-08-16T07:20:33Z</time>
      </trkpt>
      <trkpt lat="45.72065" lon="6.47711">
        <ele>879</ele>
        <time>2022-08-16T07:20:34Z</time>
      </trkpt>
      <trkpt lat="45.72067" lon="6.47713">
        <ele>879</ele>
        <time>2022-08-16T07:20:35Z</time>
      </trkpt>
      <trkpt lat="45.72068" lon="6.47715">
        <ele>880</ele>
        <time>2022-08-16T07:20:36Z</time>
      </trkpt>
      <trkpt lat="45.72069" lon="6.47718">
        <ele>880</ele>
        <time>2022-08-16T07:20:37Z</time>
      </trkpt>
      <trkpt lat="45.7207" lon="6.47722">
        <ele>880</ele>
        <time>2022-08-16T07:20:38Z</time>
      </trkpt>
      <trkpt lat="45.72071" lon="6.47726">
        <ele>879</ele>
        <time>2022-08-16T07:20:39Z</time>
      </trkpt>
      <trkpt lat="45.72071" lon="6.47731">
        <ele>879</ele>
        <time>2022-08-16T07:20:40Z</time>
      </trkpt>
      <trkpt lat="45.72072" lon="6.47735">
        <ele>879</ele>
        <time>2022-08-16T07:20:41Z</time>
      </trkpt>
      <trkpt lat="45.72073" lon="6.47738">
        <ele>880</ele>
        <time>2022-08-16T07:20:42Z</time>
      </trkpt>
      <trkpt lat="45.72074" lon="6.47743">
        <ele>881</ele>
        <time>2022-08-16T07:20:43Z</time>
      </trkpt>
      <trkpt lat="45.72075" lon="6.47747">
        <ele>881</ele>
        <time>2022-08-16T07:20:44Z</time>
      </trkpt>
      <trkpt lat="45.72075" lon="6.47751">
        <ele>881</ele>
        <time>2022-08-16T07:20:45Z</time>
      </trkpt>
      <trkpt lat="45.72076" lon="6.47756">
        <ele>881</ele>
        <time>2022-08-16T07:20:46Z</time>
      </trkpt>
      <trkpt lat="45.72077" lon="6.47761">
        <ele>882</ele>
        <time>2022-08-16T07:20:47Z</time>
      </trkpt>
      <trkpt lat="45.72078" lon="6.47765">
        <ele>882</ele>
        <time>2022-08-16T07:20:48Z</time>
      </trkpt>
      <trkpt lat="45.72079" lon="6.4777">
        <ele>882</ele>
        <time>2022-08-16T07:20:49Z</time>
      </trkpt>
      <trkpt lat="45.7208" lon="6.47774">
        <ele>882</ele>
        <time>2022-08-16T07:20:50Z</time>
      </trkpt>
      <trkpt lat="45.72082" lon="6.47779">
        <ele>883</ele>
        <time>2022-08-16T07:20:51Z</time>
      </trkpt>
      <trkpt lat="45.72084" lon="6.47783">
        <ele>883</ele>
        <time>2022-08-16T07:20:52Z</time>
      </trkpt>
      <trkpt lat="45.72087" lon="6.47787">
        <ele>883</ele>
        <time>2022-08-16T07:20:53Z</time>
      </trkpt>
      <trkpt lat="45.7209" lon="6.4779">
        <ele>882</ele>
        <time>2022-08-16T07:20:54Z</time>
      </trkpt>
      <trkpt lat="45.72093" lon="6.47794">
        <ele>882</ele>
        <time>2022-08-16T07:20:55Z</time>
      </trkpt>
      <trkpt lat="45.72097" lon="6.47797">
        <ele>882</ele>
        <time>2022-08-16T07:20:56Z</time>
      </trkpt>
      <trkpt lat="45.721" lon="6.47798">
        <ele>882</ele>
        <time>2022-08-16T07:20:57Z</time>
      </trkpt>
      <trkpt lat="45.72104" lon="6.478">
        <ele>883</ele>
        <time>2022-08-16T07:20:58Z</time>
      </trkpt>
      <trkpt lat="45.72107" lon="6.47801">
        <ele>883</ele>
        <time>2022-08-16T07:20:59Z</time>
      </trkpt>
      <trkpt lat="45.7211" lon="6.47802">
        <ele>883</ele>
        <time>2022-08-16T07:21:00Z</time>
      </trkpt>
      <trkpt lat="45.72112" lon="6.47804">
        <ele>883</ele>
        <time>2022-08-16T07:21:01Z</time>
      </trkpt>
      <trkpt lat="45.72114" lon="6.47808">
        <ele>883</ele>
        <time>2022-08-16T07:21:02Z</time>
      </trkpt>
      <trkpt lat="45.72115" lon="6.47811">
        <ele>884</ele>
        <time>2022-08-16T07:21:03Z</time>
      </trkpt>
      <trkpt lat="45.72115" lon="6.47814">
        <ele>884</ele>
        <time>2022-08-16T07:21:04Z</time>
      </trkpt>
      <trkpt lat="45.72116" lon="6.47818">
        <ele>883</ele>
        <time>2022-08-16T07:21:05Z</time>
      </trkpt>
      <trkpt lat="45.72116" lon="6.47821">
        <ele>883</ele>
        <time>2022-08-16T07:21:06Z</time>
      </trkpt>
      <trkpt lat="45.72116" lon="6.47825">
        <ele>883</ele>
        <time>2022-08-16T07:21:07Z</time>
      </trkpt>
      <trkpt lat="45.72115" lon="6.47828">
        <ele>883</ele>
        <time>2022-08-16T07:21:08Z</time>
      </trkpt>
      <trkpt lat="45.72114" lon="6.47833">
        <ele>883</ele>
        <time>2022-08-16T07:21:09Z</time>
      </trkpt>
      <trkpt lat="45.72113" lon="6.47837">
        <ele>883</ele>
        <time>2022-08-16T07:21:10Z</time>
      </trkpt>
      <trkpt lat="45.72112" lon="6.47841">
        <ele>883</ele>
        <time>2022-08-16T07:21:11Z</time>
      </trkpt>
      <trkpt lat="45.7211" lon="6.47845">
        <ele>883</ele>
        <time>2022-08-16T07:21:12Z</time>
      </trkpt>
      <trkpt lat="45.72108" lon="6.47849">
        <ele>883</ele>
        <time>2022-08-16T07:21:13Z</time>
      </trkpt>
      <trkpt lat="45.72107" lon="6.47854">
        <ele>884</ele>
        <time>2022-08-16T07:21:14Z</time>
      </trkpt>
      <trkpt lat="45.72105" lon="6.47861">
        <ele>883</ele>
        <time>2022-08-16T07:21:15Z</time>
      </trkpt>
      <trkpt lat="45.72104" lon="6.47867">
        <ele>884</ele>
        <time>2022-08-16T07:21:16Z</time>
      </trkpt>
      <trkpt lat="45.72104" lon="6.47875">
        <ele>883</ele>
        <time>2022-08-16T07:21:17Z</time>
      </trkpt>
      <trkpt lat="45.72106" lon="6.47882">
        <ele>883</ele>
        <time>2022-08-16T07:21:18Z</time>
      </trkpt>
      <trkpt lat="45.72106" lon="6.47889">
        <ele>882</ele>
        <time>2022-08-16T07:21:19Z</time>
      </trkpt>
      <trkpt lat="45.72108" lon="6.47895">
        <ele>882</ele>
        <time>2022-08-16T07:21:20Z</time>
      </trkpt>
      <trkpt lat="45.7211" lon="6.47901">
        <ele>882</ele>
        <time>2022-08-16T07:21:21Z</time>
      </trkpt>
      <trkpt lat="45.72112" lon="6.47906">
        <ele>882</ele>
        <time>2022-08-16T07:21:22Z</time>
      </trkpt>
      <trkpt lat="45.72114" lon="6.4791">
        <ele>882</ele>
        <time>2022-08-16T07:21:23Z</time>
      </trkpt>
      <trkpt lat="45.72117" lon="6.47915">
        <ele>882</ele>
        <time>2022-08-16T07:21:24Z</time>
      </trkpt>
      <trkpt lat="45.7212" lon="6.47919">
        <ele>883</ele>
        <time>2022-08-16T07:21:25Z</time>
      </trkpt>
      <trkpt lat="45.72123" lon="6.47924">
        <ele>883</ele>
        <time>2022-08-16T07:21:26Z</time>
      </trkpt>
      <trkpt lat="45.72126" lon="6.47927">
        <ele>883</ele>
        <time>2022-08-16T07:21:27Z</time>
      </trkpt>
      <trkpt lat="45.72128" lon="6.47932">
        <ele>883</ele>
        <time>2022-08-16T07:21:28Z</time>
      </trkpt>
      <trkpt lat="45.7213" lon="6.47936">
        <ele>883</ele>
        <time>2022-08-16T07:21:29Z</time>
      </trkpt>
      <trkpt lat="45.72131" lon="6.47941">
        <ele>883</ele>
        <time>2022-08-16T07:21:30Z</time>
      </trkpt>
      <trkpt lat="45.72133" lon="6.47945">
        <ele>883</ele>
        <time>2022-08-16T07:21:31Z</time>
      </trkpt>
      <trkpt lat="45.72134" lon="6.47949">
        <ele>883</ele>
        <time>2022-08-16T07:21:32Z</time>
      </trkpt>
      <trkpt lat="45.72135" lon="6.47953">
        <ele>883</ele>
        <time>2022-08-16T07:21:33Z</time>
      </trkpt>
      <trkpt lat="45.72135" lon="6.47958">
        <ele>884</ele>
        <time>2022-08-16T07:21:34Z</time>
      </trkpt>
      <trkpt lat="45.72135" lon="6.47963">
        <ele>884</ele>
        <time>2022-08-16T07:21:35Z</time>
      </trkpt>
      <trkpt lat="45.72135" lon="6.47968">
        <ele>884</ele>
        <time>2022-08-16T07:21:36Z</time>
      </trkpt>
      <trkpt lat="45.72135" lon="6.47973">
        <ele>884</ele>
        <time>2022-08-16T07:21:37Z</time>
      </trkpt>
      <trkpt lat="45.72134" lon="6.47979">
        <ele>884</ele>
        <time>2022-08-16T07:21:38Z</time>
      </trkpt>
      <trkpt lat="45.72136" lon="6.47984">
        <ele>885</ele>
        <time>2022-08-16T07:21:39Z</time>
      </trkpt>
      <trkpt lat="45.72138" lon="6.47988">
        <ele>885</ele>
        <time>2022-08-16T07:21:40Z</time>
      </trkpt>
      <trkpt lat="45.72139" lon="6.47993">
        <ele>885</ele>
        <time>2022-08-16T07:21:41Z</time>
      </trkpt>
      <trkpt lat="45.72142" lon="6.47996">
        <ele>885</ele>
        <time>2022-08-16T07:21:42Z</time>
      </trkpt>
      <trkpt lat="45.72144" lon="6.48">
        <ele>885</ele>
        <time>2022-08-16T07:21:43Z</time>
      </trkpt>
      <trkpt lat="45.72147" lon="6.48002">
        <ele>886</ele>
        <time>2022-08-16T07:21:44Z</time>
      </trkpt>
      <trkpt lat="45.72149" lon="6.48005">
        <ele>886</ele>
        <time>2022-08-16T07:21:45Z</time>
      </trkpt>
      <trkpt lat="45.72151" lon="6.48008">
        <ele>885</ele>
        <time>2022-08-16T07:21:46Z</time>
      </trkpt>
      <trkpt lat="45.72153" lon="6.48012">
        <ele>886</ele>
        <time>2022-08-16T07:21:47Z</time>
      </trkpt>
      <trkpt lat="45.72155" lon="6.48016">
        <ele>885</ele>
        <time>2022-08-16T07:21:48Z</time>
      </trkpt>
      <trkpt lat="45.72156" lon="6.4802">
        <ele>885</ele>
        <time>2022-08-16T07:21:49Z</time>
      </trkpt>
      <trkpt lat="45.72157" lon="6.48025">
        <ele>885</ele>
        <time>2022-08-16T07:21:50Z</time>
      </trkpt>
      <trkpt lat="45.72157" lon="6.48031">
        <ele>885</ele>
        <time>2022-08-16T07:21:51Z</time>
      </trkpt>
      <trkpt lat="45.72156" lon="6.48037">
        <ele>885</ele>
        <time>2022-08-16T07:21:52Z</time>
      </trkpt>
      <trkpt lat="45.72154" lon="6.48042">
        <ele>884</ele>
        <time>2022-08-16T07:21:53Z</time>
      </trkpt>
      <trkpt lat="45.72152" lon="6.48046">
        <ele>884</ele>
        <time>2022-08-16T07:21:54Z</time>
      </trkpt>
      <trkpt lat="45.72149" lon="6.4805">
        <ele>885</ele>
        <time>2022-08-16T07:21:55Z</time>
      </trkpt>
      <trkpt lat="45.72147" lon="6.48055">
        <ele>884</ele>
        <time>2022-08-16T07:21:56Z</time>
      </trkpt>
      <trkpt lat="45.72144" lon="6.4806">
        <ele>884</ele>
        <time>2022-08-16T07:21:57Z</time>
      </trkpt>
      <trkpt lat="45.72142" lon="6.48067">
        <ele>884</ele>
        <time>2022-08-16T07:21:58Z</time>
      </trkpt>
      <trkpt lat="45.7214" lon="6.48073">
        <ele>883</ele>
        <time>2022-08-16T07:21:59Z</time>
      </trkpt>
      <trkpt lat="45.72138" lon="6.4808">
        <ele>883</ele>
        <time>2022-08-16T07:22:00Z</time>
      </trkpt>
      <trkpt lat="45.72137" lon="6.48087">
        <ele>882</ele>
        <time>2022-08-16T07:22:01Z</time>
      </trkpt>
      <trkpt lat="45.72136" lon="6.48093">
        <ele>882</ele>
        <time>2022-08-16T07:22:02Z</time>
      </trkpt>
      <trkpt lat="45.72135" lon="6.481">
        <ele>881</ele>
        <time>2022-08-16T07:22:03Z</time>
      </trkpt>
      <trkpt lat="45.72134" lon="6.48108">
        <ele>880</ele>
        <time>2022-08-16T07:22:04Z</time>
      </trkpt>
      <trkpt lat="45.72133" lon="6.48116">
        <ele>880</ele>
        <time>2022-08-16T07:22:05Z</time>
      </trkpt>
      <trkpt lat="45.7213" lon="6.48122">
        <ele>879</ele>
        <time>2022-08-16T07:22:06Z</time>
      </trkpt>
      <trkpt lat="45.72127" lon="6.48127">
        <ele>879</ele>
        <time>2022-08-16T07:22:07Z</time>
      </trkpt>
      <trkpt lat="45.72124" lon="6.48133">
        <ele>879</ele>
        <time>2022-08-16T07:22:08Z</time>
      </trkpt>
      <trkpt lat="45.72121" lon="6.48139">
        <ele>878</ele>
        <time>2022-08-16T07:22:09Z</time>
      </trkpt>
      <trkpt lat="45.72118" lon="6.48144">
        <ele>878</ele>
        <time>2022-08-16T07:22:10Z</time>
      </trkpt>
      <trkpt lat="45.72115" lon="6.4815">
        <ele>877</ele>
        <time>2022-08-16T07:22:11Z</time>
      </trkpt>
      <trkpt lat="45.72112" lon="6.48156">
        <ele>876</ele>
        <time>2022-08-16T07:22:12Z</time>
      </trkpt>
      <trkpt lat="45.72109" lon="6.48161">
        <ele>875</ele>
        <time>2022-08-16T07:22:13Z</time>
      </trkpt>
      <trkpt lat="45.72107" lon="6.48167">
        <ele>874</ele>
        <time>2022-08-16T07:22:14Z</time>
      </trkpt>
      <trkpt lat="45.72104" lon="6.48174">
        <ele>874</ele>
        <time>2022-08-16T07:22:15Z</time>
      </trkpt>
      <trkpt lat="45.72102" lon="6.48181">
        <ele>873</ele>
        <time>2022-08-16T07:22:16Z</time>
      </trkpt>
      <trkpt lat="45.721" lon="6.48188">
        <ele>873</ele>
        <time>2022-08-16T07:22:17Z</time>
      </trkpt>
      <trkpt lat="45.72097" lon="6.48195">
        <ele>873</ele>
        <time>2022-08-16T07:22:18Z</time>
      </trkpt>
      <trkpt lat="45.72095" lon="6.48201">
        <ele>872</ele>
        <time>2022-08-16T07:22:19Z</time>
      </trkpt>
      <trkpt lat="45.72091" lon="6.48207">
        <ele>872</ele>
        <time>2022-08-16T07:22:20Z</time>
      </trkpt>
      <trkpt lat="45.72088" lon="6.48213">
        <ele>872</ele>
        <time>2022-08-16T07:22:21Z</time>
      </trkpt>
      <trkpt lat="45.72084" lon="6.48219">
        <ele>871</ele>
        <time>2022-08-16T07:22:22Z</time>
      </trkpt>
      <trkpt lat="45.72081" lon="6.48225">
        <ele>871</ele>
        <time>2022-08-16T07:22:23Z</time>
      </trkpt>
      <trkpt lat="45.72077" lon="6.48231">
        <ele>871</ele>
        <time>2022-08-16T07:22:24Z</time>
      </trkpt>
      <trkpt lat="45.72074" lon="6.48237">
        <ele>870</ele>
        <time>2022-08-16T07:22:25Z</time>
      </trkpt>
      <trkpt lat="45.72071" lon="6.48243">
        <ele>870</ele>
        <time>2022-08-16T07:22:26Z</time>
      </trkpt>
      <trkpt lat="45.72068" lon="6.48249">
        <ele>870</ele>
        <time>2022-08-16T07:22:27Z</time>
      </trkpt>
      <trkpt lat="45.72065" lon="6.48256">
        <ele>869</ele>
        <time>2022-08-16T07:22:28Z</time>
      </trkpt>
      <trkpt lat="45.72061" lon="6.48263">
        <ele>869</ele>
        <time>2022-08-16T07:22:29Z</time>
      </trkpt>
      <trkpt lat="45.72058" lon="6.48269">
        <ele>869</ele>
        <time>2022-08-16T07:22:30Z</time>
      </trkpt>
      <trkpt lat="45.72055" lon="6.48276">
        <ele>869</ele>
        <time>2022-08-16T07:22:31Z</time>
      </trkpt>
      <trkpt lat="45.72052" lon="6.48282">
        <ele>868</ele>
        <time>2022-08-16T07:22:32Z</time>
      </trkpt>
      <trkpt lat="45.7205" lon="6.48288">
        <ele>868</ele>
        <time>2022-08-16T07:22:33Z</time>
      </trkpt>
      <trkpt lat="45.72047" lon="6.48294">
        <ele>868</ele>
        <time>2022-08-16T07:22:34Z</time>
      </trkpt>
      <trkpt lat="45.72045" lon="6.48299">
        <ele>868</ele>
        <time>2022-08-16T07:22:35Z</time>
      </trkpt>
      <trkpt lat="45.72043" lon="6.48303">
        <ele>867</ele>
        <time>2022-08-16T07:22:36Z</time>
      </trkpt>
      <trkpt lat="45.72039" lon="6.48306">
        <ele>868</ele>
        <time>2022-08-16T07:22:37Z</time>
      </trkpt>
      <trkpt lat="45.72036" lon="6.48309">
        <ele>868</ele>
        <time>2022-08-16T07:22:38Z</time>
      </trkpt>
      <trkpt lat="45.72032" lon="6.48312">
        <ele>868</ele>
        <time>2022-08-16T07:22:39Z</time>
      </trkpt>
      <trkpt lat="45.72028" lon="6.48316">
        <ele>868</ele>
        <time>2022-08-16T07:22:40Z</time>
      </trkpt>
      <trkpt lat="45.72024" lon="6.48318">
        <ele>868</ele>
        <time>2022-08-16T07:22:41Z</time>
      </trkpt>
      <trkpt lat="45.72021" lon="6.48321">
        <ele>867</ele>
        <time>2022-08-16T07:22:42Z</time>
      </trkpt>
      <trkpt lat="45.72017" lon="6.48324">
        <ele>867</ele>
        <time>2022-08-16T07:22:43Z</time>
      </trkpt>
      <trkpt lat="45.72014" lon="6.48328">
        <ele>867</ele>
        <time>2022-08-16T07:22:44Z</time>
      </trkpt>
      <trkpt lat="45.72011" lon="6.48331">
        <ele>867</ele>
        <time>2022-08-16T07:22:45Z</time>
      </trkpt>
      <trkpt lat="45.72008" lon="6.48336">
        <ele>866</ele>
        <time>2022-08-16T07:22:46Z</time>
      </trkpt>
      <trkpt lat="45.72007" lon="6.48341">
        <ele>866</ele>
        <time>2022-08-16T07:22:47Z</time>
      </trkpt>
      <trkpt lat="45.72007" lon="6.48346">
        <ele>866</ele>
        <time>2022-08-16T07:22:48Z</time>
      </trkpt>
      <trkpt lat="45.72007" lon="6.4835">
        <ele>867</ele>
        <time>2022-08-16T07:22:49Z</time>
      </trkpt>
      <trkpt lat="45.72007" lon="6.48354">
        <ele>867</ele>
        <time>2022-08-16T07:22:50Z</time>
      </trkpt>
      <trkpt lat="45.72008" lon="6.48357">
        <ele>867</ele>
        <time>2022-08-16T07:22:51Z</time>
      </trkpt>
      <trkpt lat="45.72008" lon="6.4836">
        <ele>868</ele>
        <time>2022-08-16T07:22:52Z</time>
      </trkpt>
      <trkpt lat="45.72008" lon="6.48363">
        <ele>868</ele>
        <time>2022-08-16T07:22:53Z</time>
      </trkpt>
      <trkpt lat="45.72008" lon="6.48367">
        <ele>868</ele>
        <time>2022-08-16T07:22:54Z</time>
      </trkpt>
      <trkpt lat="45.72008" lon="6.48369">
        <ele>868</ele>
        <time>2022-08-16T07:22:55Z</time>
      </trkpt>
      <trkpt lat="45.72007" lon="6.48371">
        <ele>869</ele>
        <time>2022-08-16T07:22:56Z</time>
      </trkpt>
      <trkpt lat="45.72007" lon="6.48374">
        <ele>869</ele>
        <time>2022-08-16T07:22:57Z</time>
      </trkpt>
      <trkpt lat="45.72007" lon="6.48377">
        <ele>870</ele>
        <time>2022-08-16T07:22:58Z</time>
      </trkpt>
      <trkpt lat="45.72007" lon="6.48379">
        <ele>870</ele>
        <time>2022-08-16T07:22:59Z</time>
      </trkpt>
      <trkpt lat="45.72007" lon="6.48382">
        <ele>871</ele>
        <time>2022-08-16T07:23:00Z</time>
      </trkpt>
      <trkpt lat="45.72007" lon="6.48385">
        <ele>871</ele>
        <time>2022-08-16T07:23:01Z</time>
      </trkpt>
      <trkpt lat="45.72006" lon="6.48387">
        <ele>871</ele>
        <time>2022-08-16T07:23:02Z</time>
      </trkpt>
      <trkpt lat="45.72006" lon="6.4839">
        <ele>871</ele>
        <time>2022-08-16T07:23:03Z</time>
      </trkpt>
      <trkpt lat="45.72006" lon="6.48392">
        <ele>871</ele>
        <time>2022-08-16T07:23:04Z</time>
      </trkpt>
      <trkpt lat="45.72006" lon="6.48395">
        <ele>871</ele>
        <time>2022-08-16T07:23:05Z</time>
      </trkpt>
      <trkpt lat="45.72006" lon="6.48397">
        <ele>872</ele>
        <time>2022-08-16T07:23:06Z</time>
      </trkpt>
      <trkpt lat="45.72006" lon="6.48399">
        <ele>872</ele>
        <time>2022-08-16T07:23:07Z</time>
      </trkpt>
      <trkpt lat="45.72006" lon="6.48402">
        <ele>872</ele>
        <time>2022-08-16T07:23:08Z</time>
      </trkpt>
      <trkpt lat="45.72006" lon="6.48404">
        <ele>873</ele>
        <time>2022-08-16T07:23:09Z</time>
      </trkpt>
      <trkpt lat="45.72006" lon="6.48407">
        <ele>873</ele>
        <time>2022-08-16T07:23:10Z</time>
      </trkpt>
      <trkpt lat="45.72005" lon="6.4841">
        <ele>873</ele>
        <time>2022-08-16T07:23:11Z</time>
      </trkpt>
      <trkpt lat="45.72004" lon="6.48413">
        <ele>873</ele>
        <time>2022-08-16T07:23:12Z</time>
      </trkpt>
      <trkpt lat="45.72003" lon="6.48415">
        <ele>873</ele>
        <time>2022-08-16T07:23:13Z</time>
      </trkpt>
      <trkpt lat="45.72003" lon="6.48418">
        <ele>873</ele>
        <time>2022-08-16T07:23:14Z</time>
      </trkpt>
      <trkpt lat="45.72003" lon="6.4842">
        <ele>873</ele>
        <time>2022-08-16T07:23:15Z</time>
      </trkpt>
      <trkpt lat="45.72003" lon="6.48423">
        <ele>873</ele>
        <time>2022-08-16T07:23:16Z</time>
      </trkpt>
      <trkpt lat="45.72003" lon="6.48425">
        <ele>873</ele>
        <time>2022-08-16T07:23:17Z</time>
      </trkpt>
      <trkpt lat="45.72003" lon="6.48428">
        <ele>873</ele>
        <time>2022-08-16T07:23:18Z</time>
      </trkpt>
      <trkpt lat="45.72003" lon="6.48431">
        <ele>873</ele>
        <time>2022-08-16T07:23:19Z</time>
      </trkpt>
      <trkpt lat="45.72004" lon="6.48434">
        <ele>873</ele>
        <time>2022-08-16T07:23:20Z</time>
      </trkpt>
      <trkpt lat="45.72004" lon="6.48437">
        <ele>874</ele>
        <time>2022-08-16T07:23:21Z</time>
      </trkpt>
      <trkpt lat="45.72004" lon="6.48439">
        <ele>874</ele>
        <time>2022-08-16T07:23:22Z</time>
      </trkpt>
      <trkpt lat="45.72004" lon="6.48442">
        <ele>874</ele>
        <time>2022-08-16T07:23:23Z</time>
      </trkpt>
      <trkpt lat="45.72005" lon="6.48444">
        <ele>875</ele>
        <time>2022-08-16T07:23:24Z</time>
      </trkpt>
      <trkpt lat="45.72006" lon="6.48447">
        <ele>875</ele>
        <time>2022-08-16T07:23:25Z</time>
      </trkpt>
      <trkpt lat="45.72006" lon="6.48449">
        <ele>876</ele>
        <time>2022-08-16T07:23:26Z</time>
      </trkpt>
      <trkpt lat="45.72007" lon="6.48451">
        <ele>876</ele>
        <time>2022-08-16T07:23:27Z</time>
      </trkpt>
      <trkpt lat="45.72008" lon="6.48453">
        <ele>877</ele>
        <time>2022-08-16T07:23:28Z</time>
      </trkpt>
      <trkpt lat="45.72008" lon="6.48456">
        <ele>877</ele>
        <time>2022-08-16T07:23:29Z</time>
      </trkpt>
      <trkpt lat="45.72009" lon="6.48458">
        <ele>878</ele>
        <time>2022-08-16T07:23:30Z</time>
      </trkpt>
      <trkpt lat="45.7201" lon="6.4846">
        <ele>878</ele>
        <time>2022-08-16T07:23:31Z</time>
      </trkpt>
      <trkpt lat="45.7201" lon="6.48462">
        <ele>878</ele>
        <time>2022-08-16T07:23:32Z</time>
      </trkpt>
      <trkpt lat="45.7201" lon="6.48465">
        <ele>879</ele>
        <time>2022-08-16T07:23:33Z</time>
      </trkpt>
      <trkpt lat="45.7201" lon="6.48467">
        <ele>879</ele>
        <time>2022-08-16T07:23:34Z</time>
      </trkpt>
      <trkpt lat="45.72011" lon="6.48469">
        <ele>880</ele>
        <time>2022-08-16T07:23:35Z</time>
      </trkpt>
      <trkpt lat="45.72011" lon="6.48472">
        <ele>880</ele>
        <time>2022-08-16T07:23:36Z</time>
      </trkpt>
      <trkpt lat="45.72011" lon="6.48474">
        <ele>880</ele>
        <time>2022-08-16T07:23:37Z</time>
      </trkpt>
      <trkpt lat="45.72011" lon="6.48477">
        <ele>881</ele>
        <time>2022-08-16T07:23:38Z</time>
      </trkpt>
      <trkpt lat="45.72011" lon="6.48479">
        <ele>881</ele>
        <time>2022-08-16T07:23:39Z</time>
      </trkpt>
      <trkpt lat="45.72011" lon="6.48482">
        <ele>881</ele>
        <time>2022-08-16T07:23:40Z</time>
      </trkpt>
      <trkpt lat="45.7201" lon="6.48484">
        <ele>881</ele>
        <time>2022-08-16T07:23:41Z</time>
      </trkpt>
      <trkpt lat="45.72009" lon="6.48487">
        <ele>881</ele>
        <time>2022-08-16T07:23:42Z</time>
      </trkpt>
      <trkpt lat="45.72008" lon="6.48489">
        <ele>881</ele>
        <time>2022-08-16T07:23:43Z</time>
      </trkpt>
      <trkpt lat="45.72007" lon="6.48491">
        <ele>881</ele>
        <time>2022-08-16T07:23:44Z</time>
      </trkpt>
      <trkpt lat="45.72006" lon="6.48494">
        <ele>881</ele>
        <time>2022-08-16T07:23:45Z</time>
      </trkpt>
      <trkpt lat="45.72005" lon="6.48496">
        <ele>882</ele>
        <time>2022-08-16T07:23:46Z</time>
      </trkpt>
      <trkpt lat="45.72005" lon="6.48498">
        <ele>882</ele>
        <time>2022-08-16T07:23:47Z</time>
      </trkpt>
      <trkpt lat="45.72004" lon="6.48501">
        <ele>882</ele>
        <time>2022-08-16T07:23:48Z</time>
      </trkpt>
      <trkpt lat="45.72003" lon="6.48503">
        <ele>882</ele>
        <time>2022-08-16T07:23:49Z</time>
      </trkpt>
      <trkpt lat="45.72003" lon="6.48506">
        <ele>882</ele>
        <time>2022-08-16T07:23:50Z</time>
      </trkpt>
      <trkpt lat="45.72002" lon="6.48508">
        <ele>882</ele>
        <time>2022-08-16T07:23:51Z</time>
      </trkpt>
      <trkpt lat="45.72002" lon="6.4851">
        <ele>882</ele>
        <time>2022-08-16T07:23:52Z</time>
      </trkpt>
      <trkpt lat="45.72001" lon="6.48512">
        <ele>882</ele>
        <time>2022-08-16T07:23:53Z</time>
      </trkpt>
      <trkpt lat="45.72" lon="6.48513">
        <ele>882</ele>
        <time>2022-08-16T07:23:54Z</time>
      </trkpt>
      <trkpt lat="45.71999" lon="6.48515">
        <ele>882</ele>
        <time>2022-08-16T07:23:55Z</time>
      </trkpt>
      <trkpt lat="45.71999" lon="6.48516">
        <ele>881</ele>
        <time>2022-08-16T07:23:56Z</time>
      </trkpt>
      <trkpt lat="45.71998" lon="6.48518">
        <ele>881</ele>
        <time>2022-08-16T07:23:57Z</time>
      </trkpt>
      <trkpt lat="45.71996" lon="6.4852">
        <ele>881</ele>
        <time>2022-08-16T07:23:58Z</time>
      </trkpt>
      <trkpt lat="45.71995" lon="6.48522">
        <ele>881</ele>
        <time>2022-08-16T07:23:59Z</time>
      </trkpt>
      <trkpt lat="45.71994" lon="6.48523">
        <ele>882</ele>
        <time>2022-08-16T07:24:00Z</time>
      </trkpt>
      <trkpt lat="45.71993" lon="6.48524">
        <ele>883</ele>
        <time>2022-08-16T07:24:01Z</time>
      </trkpt>
      <trkpt lat="45.71992" lon="6.48526">
        <ele>883</ele>
        <time>2022-08-16T07:24:02Z</time>
      </trkpt>
      <trkpt lat="45.71991" lon="6.48527">
        <ele>883</ele>
        <time>2022-08-16T07:24:03Z</time>
      </trkpt>
      <trkpt lat="45.7199" lon="6.48529">
        <ele>883</ele>
        <time>2022-08-16T07:24:04Z</time>
      </trkpt>
      <trkpt lat="45.71989" lon="6.48531">
        <ele>883</ele>
        <time>2022-08-16T07:24:05Z</time>
      </trkpt>
      <trkpt lat="45.71989" lon="6.48533">
        <ele>884</ele>
        <time>2022-08-16T07:24:06Z</time>
      </trkpt>
      <trkpt lat="45.71988" lon="6.48535">
        <ele>885</ele>
        <time>2022-08-16T07:24:07Z</time>
      </trkpt>
      <trkpt lat="45.71987" lon="6.48537">
        <ele>886</ele>
        <time>2022-08-16T07:24:08Z</time>
      </trkpt>
      <trkpt lat="45.71986" lon="6.48539">
        <ele>886</ele>
        <time>2022-08-16T07:24:09Z</time>
      </trkpt>
      <trkpt lat="45.71985" lon="6.4854">
        <ele>887</ele>
        <time>2022-08-16T07:24:10Z</time>
      </trkpt>
      <trkpt lat="45.71985" lon="6.48543">
        <ele>888</ele>
        <time>2022-08-16T07:24:11Z</time>
      </trkpt>
      <trkpt lat="45.71985" lon="6.48545">
        <ele>888</ele>
        <time>2022-08-16T07:24:12Z</time>
      </trkpt>
      <trkpt lat="45.71984" lon="6.48547">
        <ele>889</ele>
        <time>2022-08-16T07:24:13Z</time>
      </trkpt>
      <trkpt lat="45.71984" lon="6.4855">
        <ele>889</ele>
        <time>2022-08-16T07:24:14Z</time>
      </trkpt>
      <trkpt lat="45.71983" lon="6.48553">
        <ele>889</ele>
        <time>2022-08-16T07:24:15Z</time>
      </trkpt>
      <trkpt lat="45.71983" lon="6.48556">
        <ele>889</ele>
        <time>2022-08-16T07:24:16Z</time>
      </trkpt>
      <trkpt lat="45.71983" lon="6.48558">
        <ele>889</ele>
        <time>2022-08-16T07:24:17Z</time>
      </trkpt>
      <trkpt lat="45.71984" lon="6.48561">
        <ele>889</ele>
        <time>2022-08-16T07:24:18Z</time>
      </trkpt>
      <trkpt lat="45.71983" lon="6.48565">
        <ele>889</ele>
        <time>2022-08-16T07:24:19Z</time>
      </trkpt>
      <trkpt lat="45.71983" lon="6.48568">
        <ele>889</ele>
        <time>2022-08-16T07:24:20Z</time>
      </trkpt>
      <trkpt lat="45.71984" lon="6.48571">
        <ele>888</ele>
        <time>2022-08-16T07:24:21Z</time>
      </trkpt>
      <trkpt lat="45.71984" lon="6.48574">
        <ele>889</ele>
        <time>2022-08-16T07:24:22Z</time>
      </trkpt>
      <trkpt lat="45.71984" lon="6.48576">
        <ele>889</ele>
        <time>2022-08-16T07:24:23Z</time>
      </trkpt>
      <trkpt lat="45.71984" lon="6.48578">
        <ele>890</ele>
        <time>2022-08-16T07:24:24Z</time>
      </trkpt>
      <trkpt lat="45.71985" lon="6.48581">
        <ele>890</ele>
        <time>2022-08-16T07:24:25Z</time>
      </trkpt>
      <trkpt lat="45.71986" lon="6.48583">
        <ele>890</ele>
        <time>2022-08-16T07:24:26Z</time>
      </trkpt>
      <trkpt lat="45.71987" lon="6.48585">
        <ele>891</ele>
        <time>2022-08-16T07:24:27Z</time>
      </trkpt>
      <trkpt lat="45.71988" lon="6.48588">
        <ele>892</ele>
        <time>2022-08-16T07:24:28Z</time>
      </trkpt>
      <trkpt lat="45.71988" lon="6.4859">
        <ele>893</ele>
        <time>2022-08-16T07:24:29Z</time>
      </trkpt>
      <trkpt lat="45.71989" lon="6.48592">
        <ele>894</ele>
        <time>2022-08-16T07:24:30Z</time>
      </trkpt>
      <trkpt lat="45.7199" lon="6.48594">
        <ele>894</ele>
        <time>2022-08-16T07:24:31Z</time>
      </trkpt>
      <trkpt lat="45.7199" lon="6.48597">
        <ele>894</ele>
        <time>2022-08-16T07:24:32Z</time>
      </trkpt>
      <trkpt lat="45.71991" lon="6.48599">
        <ele>895</ele>
        <time>2022-08-16T07:24:33Z</time>
      </trkpt>
      <trkpt lat="45.71991" lon="6.48601">
        <ele>895</ele>
        <time>2022-08-16T07:24:34Z</time>
      </trkpt>
      <trkpt lat="45.71991" lon="6.48604">
        <ele>895</ele>
        <time>2022-08-16T07:24:35Z</time>
      </trkpt>
      <trkpt lat="45.71991" lon="6.48606">
        <ele>894</ele>
        <time>2022-08-16T07:24:36Z</time>
      </trkpt>
      <trkpt lat="45.71992" lon="6.48609">
        <ele>894</ele>
        <time>2022-08-16T07:24:37Z</time>
      </trkpt>
      <trkpt lat="45.71992" lon="6.48612">
        <ele>894</ele>
        <time>2022-08-16T07:24:38Z</time>
      </trkpt>
      <trkpt lat="45.71992" lon="6.48614">
        <ele>895</ele>
        <time>2022-08-16T07:24:39Z</time>
      </trkpt>
      <trkpt lat="45.71993" lon="6.48617">
        <ele>896</ele>
        <time>2022-08-16T07:24:40Z</time>
      </trkpt>
      <trkpt lat="45.71993" lon="6.4862">
        <ele>896</ele>
        <time>2022-08-16T07:24:41Z</time>
      </trkpt>
      <trkpt lat="45.71994" lon="6.48623">
        <ele>897</ele>
        <time>2022-08-16T07:24:42Z</time>
      </trkpt>
      <trkpt lat="45.71994" lon="6.48625">
        <ele>897</ele>
        <time>2022-08-16T07:24:43Z</time>
      </trkpt>
      <trkpt lat="45.71994" lon="6.48628">
        <ele>897</ele>
        <time>2022-08-16T07:24:44Z</time>
      </trkpt>
      <trkpt lat="45.71995" lon="6.48631">
        <ele>897</ele>
        <time>2022-08-16T07:24:45Z</time>
      </trkpt>
      <trkpt lat="45.71995" lon="6.48633">
        <ele>897</ele>
        <time>2022-08-16T07:24:46Z</time>
      </trkpt>
      <trkpt lat="45.71996" lon="6.48635">
        <ele>898</ele>
        <time>2022-08-16T07:24:47Z</time>
      </trkpt>
      <trkpt lat="45.71997" lon="6.48638">
        <ele>899</ele>
        <time>2022-08-16T07:24:48Z</time>
      </trkpt>
      <trkpt lat="45.71998" lon="6.4864">
        <ele>900</ele>
        <time>2022-08-16T07:24:49Z</time>
      </trkpt>
      <trkpt lat="45.71999" lon="6.48642">
        <ele>901</ele>
        <time>2022-08-16T07:24:50Z</time>
      </trkpt>
      <trkpt lat="45.72" lon="6.48645">
        <ele>901</ele>
        <time>2022-08-16T07:24:51Z</time>
      </trkpt>
      <trkpt lat="45.72001" lon="6.48647">
        <ele>901</ele>
        <time>2022-08-16T07:24:52Z</time>
      </trkpt>
      <trkpt lat="45.72002" lon="6.48649">
        <ele>901</ele>
        <time>2022-08-16T07:24:53Z</time>
      </trkpt>
      <trkpt lat="45.72003" lon="6.48651">
        <ele>901</ele>
        <time>2022-08-16T07:24:54Z</time>
      </trkpt>
      <trkpt lat="45.72004" lon="6.48654">
        <ele>902</ele>
        <time>2022-08-16T07:24:55Z</time>
      </trkpt>
      <trkpt lat="45.72005" lon="6.48656">
        <ele>902</ele>
        <time>2022-08-16T07:24:56Z</time>
      </trkpt>
      <trkpt lat="45.72006" lon="6.48659">
        <ele>902</ele>
        <time>2022-08-16T07:24:57Z</time>
      </trkpt>
      <trkpt lat="45.72006" lon="6.48661">
        <ele>902</ele>
        <time>2022-08-16T07:24:58Z</time>
      </trkpt>
      <trkpt lat="45.72007" lon="6.48664">
        <ele>902</ele>
        <time>2022-08-16T07:24:59Z</time>
      </trkpt>
      <trkpt lat="45.72008" lon="6.48667">
        <ele>902</ele>
        <time>2022-08-16T07:25:00Z</time>
      </trkpt>
      <trkpt lat="45.72008" lon="6.4867">
        <ele>902</ele>
        <time>2022-08-16T07:25:01Z</time>
      </trkpt>
      <trkpt lat="45.72009" lon="6.48672">
        <ele>902</ele>
        <time>2022-08-16T07:25:02Z</time>
      </trkpt>
      <trkpt lat="45.7201" lon="6.48674">
        <ele>902</ele>
        <time>2022-08-16T07:25:03Z</time>
      </trkpt>
      <trkpt lat="45.7201" lon="6.48676">
        <ele>902</ele>
        <time>2022-08-16T07:25:04Z</time>
      </trkpt>
      <trkpt lat="45.72011" lon="6.48678">
        <ele>903</ele>
        <time>2022-08-16T07:25:05Z</time>
      </trkpt>
      <trkpt lat="45.72011" lon="6.4868">
        <ele>903</ele>
        <time>2022-08-16T07:25:06Z</time>
      </trkpt>
      <trkpt lat="45.72012" lon="6.48683">
        <ele>903</ele>
        <time>2022-08-16T07:25:07Z</time>
      </trkpt>
      <trkpt lat="45.72012" lon="6.48686">
        <ele>903</ele>
        <time>2022-08-16T07:25:08Z</time>
      </trkpt>
      <trkpt lat="45.72012" lon="6.48689">
        <ele>904</ele>
        <time>2022-08-16T07:25:09Z</time>
      </trkpt>
      <trkpt lat="45.72011" lon="6.48691">
        <ele>903</ele>
        <time>2022-08-16T07:25:10Z</time>
      </trkpt>
      <trkpt lat="45.72011" lon="6.48694">
        <ele>903</ele>
        <time>2022-08-16T07:25:11Z</time>
      </trkpt>
      <trkpt lat="45.7201" lon="6.48696">
        <ele>904</ele>
        <time>2022-08-16T07:25:12Z</time>
      </trkpt>
      <trkpt lat="45.7201" lon="6.48699">
        <ele>904</ele>
        <time>2022-08-16T07:25:13Z</time>
      </trkpt>
      <trkpt lat="45.7201" lon="6.48701">
        <ele>904</ele>
        <time>2022-08-16T07:25:14Z</time>
      </trkpt>
      <trkpt lat="45.7201" lon="6.48703">
        <ele>904</ele>
        <time>2022-08-16T07:25:15Z</time>
      </trkpt>
      <trkpt lat="45.7201" lon="6.48705">
        <ele>905</ele>
        <time>2022-08-16T07:25:16Z</time>
      </trkpt>
      <trkpt lat="45.7201" lon="6.48708">
        <ele>905</ele>
        <time>2022-08-16T07:25:17Z</time>
      </trkpt>
      <trkpt lat="45.7201" lon="6.4871">
        <ele>906</ele>
        <time>2022-08-16T07:25:18Z</time>
      </trkpt>
      <trkpt lat="45.7201" lon="6.48713">
        <ele>907</ele>
        <time>2022-08-16T07:25:19Z</time>
      </trkpt>
      <trkpt lat="45.7201" lon="6.48715">
        <ele>907</ele>
        <time>2022-08-16T07:25:20Z</time>
      </trkpt>
      <trkpt lat="45.7201" lon="6.48718">
        <ele>907</ele>
        <time>2022-08-16T07:25:21Z</time>
      </trkpt>
      <trkpt lat="45.7201" lon="6.48718">
        <ele>907</ele>
        <time>2022-08-16T07:25:22Z</time>
      </trkpt>
      <trkpt lat="45.7201" lon="6.48719">
        <ele>908</ele>
        <time>2022-08-16T07:25:23Z</time>
      </trkpt>
      <trkpt lat="45.7201" lon="6.48722">
        <ele>908</ele>
        <time>2022-08-16T07:25:24Z</time>
      </trkpt>
      <trkpt lat="45.7201" lon="6.48724">
        <ele>908</ele>
        <time>2022-08-16T07:25:25Z</time>
      </trkpt>
      <trkpt lat="45.72009" lon="6.48726">
        <ele>908</ele>
        <time>2022-08-16T07:25:26Z</time>
      </trkpt>
      <trkpt lat="45.72009" lon="6.4873">
        <ele>908</ele>
        <time>2022-08-16T07:25:27Z</time>
      </trkpt>
      <trkpt lat="45.72008" lon="6.48734">
        <ele>908</ele>
        <time>2022-08-16T07:25:28Z</time>
      </trkpt>
      <trkpt lat="45.72008" lon="6.48737">
        <ele>908</ele>
        <time>2022-08-16T07:25:29Z</time>
      </trkpt>
      <trkpt lat="45.72007" lon="6.48741">
        <ele>908</ele>
        <time>2022-08-16T07:25:30Z</time>
      </trkpt>
      <trkpt lat="45.72007" lon="6.48745">
        <ele>908</ele>
        <time>2022-08-16T07:25:31Z</time>
      </trkpt>
      <trkpt lat="45.72007" lon="6.48747">
        <ele>909</ele>
        <time>2022-08-16T07:25:32Z</time>
      </trkpt>
      <trkpt lat="45.72006" lon="6.4875">
        <ele>909</ele>
        <time>2022-08-16T07:25:33Z</time>
      </trkpt>
      <trkpt lat="45.72006" lon="6.48753">
        <ele>909</ele>
        <time>2022-08-16T07:25:34Z</time>
      </trkpt>
      <trkpt lat="45.72007" lon="6.48755">
        <ele>909</ele>
        <time>2022-08-16T07:25:35Z</time>
      </trkpt>
      <trkpt lat="45.72007" lon="6.48758">
        <ele>910</ele>
        <time>2022-08-16T07:25:36Z</time>
      </trkpt>
      <trkpt lat="45.72007" lon="6.4876">
        <ele>909</ele>
        <time>2022-08-16T07:25:37Z</time>
      </trkpt>
      <trkpt lat="45.72007" lon="6.48762">
        <ele>909</ele>
        <time>2022-08-16T07:25:38Z</time>
      </trkpt>
      <trkpt lat="45.72007" lon="6.48764">
        <ele>909</ele>
        <time>2022-08-16T07:25:39Z</time>
      </trkpt>
      <trkpt lat="45.72007" lon="6.48767">
        <ele>909</ele>
        <time>2022-08-16T07:25:40Z</time>
      </trkpt>
      <trkpt lat="45.72007" lon="6.48769">
        <ele>909</ele>
        <time>2022-08-16T07:25:41Z</time>
      </trkpt>
      <trkpt lat="45.72007" lon="6.48771">
        <ele>909</ele>
        <time>2022-08-16T07:25:42Z</time>
      </trkpt>
      <trkpt lat="45.72007" lon="6.48774">
        <ele>909</ele>
        <time>2022-08-16T07:25:43Z</time>
      </trkpt>
      <trkpt lat="45.72006" lon="6.48777">
        <ele>909</ele>
        <time>2022-08-16T07:25:44Z</time>
      </trkpt>
      <trkpt lat="45.72006" lon="6.4878">
        <ele>909</ele>
        <time>2022-08-16T07:25:45Z</time>
      </trkpt>
      <trkpt lat="45.72005" lon="6.48783">
        <ele>909</ele>
        <time>2022-08-16T07:25:46Z</time>
      </trkpt>
      <trkpt lat="45.72005" lon="6.48786">
        <ele>909</ele>
        <time>2022-08-16T07:25:47Z</time>
      </trkpt>
      <trkpt lat="45.72005" lon="6.48789">
        <ele>909</ele>
        <time>2022-08-16T07:25:48Z</time>
      </trkpt>
      <trkpt lat="45.72005" lon="6.48792">
        <ele>909</ele>
        <time>2022-08-16T07:25:49Z</time>
      </trkpt>
      <trkpt lat="45.72006" lon="6.48795">
        <ele>909</ele>
        <time>2022-08-16T07:25:50Z</time>
      </trkpt>
      <trkpt lat="45.72006" lon="6.48797">
        <ele>909</ele>
        <time>2022-08-16T07:25:51Z</time>
      </trkpt>
      <trkpt lat="45.72007" lon="6.488">
        <ele>909</ele>
        <time>2022-08-16T07:25:52Z</time>
      </trkpt>
      <trkpt lat="45.72007" lon="6.48802">
        <ele>910</ele>
        <time>2022-08-16T07:25:53Z</time>
      </trkpt>
      <trkpt lat="45.72007" lon="6.48804">
        <ele>910</ele>
        <time>2022-08-16T07:25:54Z</time>
      </trkpt>
      <trkpt lat="45.72008" lon="6.48807">
        <ele>910</ele>
        <time>2022-08-16T07:25:55Z</time>
      </trkpt>
      <trkpt lat="45.72009" lon="6.4881">
        <ele>910</ele>
        <time>2022-08-16T07:25:56Z</time>
      </trkpt>
      <trkpt lat="45.72009" lon="6.48812">
        <ele>910</ele>
        <time>2022-08-16T07:25:57Z</time>
      </trkpt>
      <trkpt lat="45.72009" lon="6.48815">
        <ele>910</ele>
        <time>2022-08-16T07:25:58Z</time>
      </trkpt>
      <trkpt lat="45.7201" lon="6.48818">
        <ele>911</ele>
        <time>2022-08-16T07:25:59Z</time>
      </trkpt>
      <trkpt lat="45.7201" lon="6.4882">
        <ele>911</ele>
        <time>2022-08-16T07:26:00Z</time>
      </trkpt>
      <trkpt lat="45.72011" lon="6.48822">
        <ele>911</ele>
        <time>2022-08-16T07:26:01Z</time>
      </trkpt>
      <trkpt lat="45.72012" lon="6.48825">
        <ele>911</ele>
        <time>2022-08-16T07:26:02Z</time>
      </trkpt>
      <trkpt lat="45.72012" lon="6.48827">
        <ele>912</ele>
        <time>2022-08-16T07:26:03Z</time>
      </trkpt>
      <trkpt lat="45.72013" lon="6.4883">
        <ele>912</ele>
        <time>2022-08-16T07:26:04Z</time>
      </trkpt>
      <trkpt lat="45.72014" lon="6.48833">
        <ele>912</ele>
        <time>2022-08-16T07:26:05Z</time>
      </trkpt>
      <trkpt lat="45.72016" lon="6.48836">
        <ele>912</ele>
        <time>2022-08-16T07:26:06Z</time>
      </trkpt>
      <trkpt lat="45.72017" lon="6.48838">
        <ele>913</ele>
        <time>2022-08-16T07:26:07Z</time>
      </trkpt>
      <trkpt lat="45.72018" lon="6.48841">
        <ele>914</ele>
        <time>2022-08-16T07:26:08Z</time>
      </trkpt>
      <trkpt lat="45.72019" lon="6.48843">
        <ele>914</ele>
        <time>2022-08-16T07:26:09Z</time>
      </trkpt>
      <trkpt lat="45.7202" lon="6.48846">
        <ele>914</ele>
        <time>2022-08-16T07:26:10Z</time>
      </trkpt>
      <trkpt lat="45.72021" lon="6.48848">
        <ele>915</ele>
        <time>2022-08-16T07:26:11Z</time>
      </trkpt>
      <trkpt lat="45.72022" lon="6.48851">
        <ele>916</ele>
        <time>2022-08-16T07:26:12Z</time>
      </trkpt>
      <trkpt lat="45.72023" lon="6.48853">
        <ele>916</ele>
        <time>2022-08-16T07:26:13Z</time>
      </trkpt>
      <trkpt lat="45.72024" lon="6.48856">
        <ele>916</ele>
        <time>2022-08-16T07:26:14Z</time>
      </trkpt>
      <trkpt lat="45.72025" lon="6.48858">
        <ele>916</ele>
        <time>2022-08-16T07:26:15Z</time>
      </trkpt>
      <trkpt lat="45.72026" lon="6.48861">
        <ele>917</ele>
        <time>2022-08-16T07:26:16Z</time>
      </trkpt>
      <trkpt lat="45.72028" lon="6.48864">
        <ele>917</ele>
        <time>2022-08-16T07:26:17Z</time>
      </trkpt>
      <trkpt lat="45.72029" lon="6.48866">
        <ele>918</ele>
        <time>2022-08-16T07:26:18Z</time>
      </trkpt>
      <trkpt lat="45.7203" lon="6.48868">
        <ele>918</ele>
        <time>2022-08-16T07:26:19Z</time>
      </trkpt>
      <trkpt lat="45.72031" lon="6.4887">
        <ele>918</ele>
        <time>2022-08-16T07:26:20Z</time>
      </trkpt>
      <trkpt lat="45.72032" lon="6.48873">
        <ele>918</ele>
        <time>2022-08-16T07:26:21Z</time>
      </trkpt>
      <trkpt lat="45.72032" lon="6.48876">
        <ele>918</ele>
        <time>2022-08-16T07:26:22Z</time>
      </trkpt>
      <trkpt lat="45.72033" lon="6.48878">
        <ele>918</ele>
        <time>2022-08-16T07:26:23Z</time>
      </trkpt>
      <trkpt lat="45.72033" lon="6.48881">
        <ele>919</ele>
        <time>2022-08-16T07:26:24Z</time>
      </trkpt>
      <trkpt lat="45.72035" lon="6.48883">
        <ele>919</ele>
        <time>2022-08-16T07:26:25Z</time>
      </trkpt>
      <trkpt lat="45.72036" lon="6.48885">
        <ele>919</ele>
        <time>2022-08-16T07:26:26Z</time>
      </trkpt>
      <trkpt lat="45.72037" lon="6.48887">
        <ele>919</ele>
        <time>2022-08-16T07:26:27Z</time>
      </trkpt>
      <trkpt lat="45.72038" lon="6.4889">
        <ele>919</ele>
        <time>2022-08-16T07:26:28Z</time>
      </trkpt>
      <trkpt lat="45.72039" lon="6.48892">
        <ele>920</ele>
        <time>2022-08-16T07:26:29Z</time>
      </trkpt>
      <trkpt lat="45.7204" lon="6.48895">
        <ele>920</ele>
        <time>2022-08-16T07:26:30Z</time>
      </trkpt>
      <trkpt lat="45.72041" lon="6.48898">
        <ele>920</ele>
        <time>2022-08-16T07:26:31Z</time>
      </trkpt>
      <trkpt lat="45.72042" lon="6.489">
        <ele>920</ele>
        <time>2022-08-16T07:26:32Z</time>
      </trkpt>
      <trkpt lat="45.72043" lon="6.48903">
        <ele>921</ele>
        <time>2022-08-16T07:26:33Z</time>
      </trkpt>
      <trkpt lat="45.72045" lon="6.48905">
        <ele>921</ele>
        <time>2022-08-16T07:26:34Z</time>
      </trkpt>
      <trkpt lat="45.72045" lon="6.48907">
        <ele>921</ele>
        <time>2022-08-16T07:26:35Z</time>
      </trkpt>
      <trkpt lat="45.72046" lon="6.48909">
        <ele>920</ele>
        <time>2022-08-16T07:26:36Z</time>
      </trkpt>
      <trkpt lat="45.72047" lon="6.48912">
        <ele>920</ele>
        <time>2022-08-16T07:26:37Z</time>
      </trkpt>
      <trkpt lat="45.72047" lon="6.48914">
        <ele>921</ele>
        <time>2022-08-16T07:26:38Z</time>
      </trkpt>
      <trkpt lat="45.72047" lon="6.48916">
        <ele>921</ele>
        <time>2022-08-16T07:26:39Z</time>
      </trkpt>
      <trkpt lat="45.72048" lon="6.48919">
        <ele>921</ele>
        <time>2022-08-16T07:26:40Z</time>
      </trkpt>
      <trkpt lat="45.72048" lon="6.48921">
        <ele>921</ele>
        <time>2022-08-16T07:26:41Z</time>
      </trkpt>
      <trkpt lat="45.72048" lon="6.48924">
        <ele>920</ele>
        <time>2022-08-16T07:26:42Z</time>
      </trkpt>
      <trkpt lat="45.72048" lon="6.48927">
        <ele>921</ele>
        <time>2022-08-16T07:26:43Z</time>
      </trkpt>
      <trkpt lat="45.72049" lon="6.48929">
        <ele>921</ele>
        <time>2022-08-16T07:26:44Z</time>
      </trkpt>
      <trkpt lat="45.72049" lon="6.48931">
        <ele>921</ele>
        <time>2022-08-16T07:26:45Z</time>
      </trkpt>
      <trkpt lat="45.72049" lon="6.48934">
        <ele>921</ele>
        <time>2022-08-16T07:26:46Z</time>
      </trkpt>
      <trkpt lat="45.72049" lon="6.48937">
        <ele>921</ele>
        <time>2022-08-16T07:26:47Z</time>
      </trkpt>
      <trkpt lat="45.72048" lon="6.48939">
        <ele>921</ele>
        <time>2022-08-16T07:26:48Z</time>
      </trkpt>
      <trkpt lat="45.72049" lon="6.48942">
        <ele>922</ele>
        <time>2022-08-16T07:26:49Z</time>
      </trkpt>
      <trkpt lat="45.72049" lon="6.48944">
        <ele>922</ele>
        <time>2022-08-16T07:26:50Z</time>
      </trkpt>
      <trkpt lat="45.72048" lon="6.48948">
        <ele>923</ele>
        <time>2022-08-16T07:26:51Z</time>
      </trkpt>
      <trkpt lat="45.72048" lon="6.4895">
        <ele>924</ele>
        <time>2022-08-16T07:26:52Z</time>
      </trkpt>
      <trkpt lat="45.72049" lon="6.48953">
        <ele>924</ele>
        <time>2022-08-16T07:26:53Z</time>
      </trkpt>
      <trkpt lat="45.72049" lon="6.48957">
        <ele>924</ele>
        <time>2022-08-16T07:26:54Z</time>
      </trkpt>
      <trkpt lat="45.72049" lon="6.4896">
        <ele>925</ele>
        <time>2022-08-16T07:26:55Z</time>
      </trkpt>
      <trkpt lat="45.72049" lon="6.48963">
        <ele>925</ele>
        <time>2022-08-16T07:26:56Z</time>
      </trkpt>
      <trkpt lat="45.7205" lon="6.48966">
        <ele>925</ele>
        <time>2022-08-16T07:26:57Z</time>
      </trkpt>
      <trkpt lat="45.7205" lon="6.48968">
        <ele>925</ele>
        <time>2022-08-16T07:26:58Z</time>
      </trkpt>
      <trkpt lat="45.7205" lon="6.48971">
        <ele>925</ele>
        <time>2022-08-16T07:26:59Z</time>
      </trkpt>
      <trkpt lat="45.7205" lon="6.48973">
        <ele>924</ele>
        <time>2022-08-16T07:27:00Z</time>
      </trkpt>
      <trkpt lat="45.7205" lon="6.48976">
        <ele>925</ele>
        <time>2022-08-16T07:27:01Z</time>
      </trkpt>
      <trkpt lat="45.7205" lon="6.48978">
        <ele>924</ele>
        <time>2022-08-16T07:27:02Z</time>
      </trkpt>
      <trkpt lat="45.7205" lon="6.48981">
        <ele>925</ele>
        <time>2022-08-16T07:27:03Z</time>
      </trkpt>
      <trkpt lat="45.7205" lon="6.48984">
        <ele>925</ele>
        <time>2022-08-16T07:27:04Z</time>
      </trkpt>
      <trkpt lat="45.72051" lon="6.48987">
        <ele>925</ele>
        <time>2022-08-16T07:27:05Z</time>
      </trkpt>
      <trkpt lat="45.72051" lon="6.4899">
        <ele>925</ele>
        <time>2022-08-16T07:27:06Z</time>
      </trkpt>
      <trkpt lat="45.72051" lon="6.48992">
        <ele>925</ele>
        <time>2022-08-16T07:27:07Z</time>
      </trkpt>
      <trkpt lat="45.72051" lon="6.48996">
        <ele>926</ele>
        <time>2022-08-16T07:27:08Z</time>
      </trkpt>
      <trkpt lat="45.72052" lon="6.48999">
        <ele>926</ele>
        <time>2022-08-16T07:27:09Z</time>
      </trkpt>
      <trkpt lat="45.72052" lon="6.49003">
        <ele>927</ele>
        <time>2022-08-16T07:27:10Z</time>
      </trkpt>
      <trkpt lat="45.72053" lon="6.49006">
        <ele>928</ele>
        <time>2022-08-16T07:27:11Z</time>
      </trkpt>
      <trkpt lat="45.72053" lon="6.4901">
        <ele>928</ele>
        <time>2022-08-16T07:27:12Z</time>
      </trkpt>
      <trkpt lat="45.72054" lon="6.49014">
        <ele>928</ele>
        <time>2022-08-16T07:27:13Z</time>
      </trkpt>
      <trkpt lat="45.72054" lon="6.49018">
        <ele>928</ele>
        <time>2022-08-16T07:27:14Z</time>
      </trkpt>
      <trkpt lat="45.72054" lon="6.49021">
        <ele>929</ele>
        <time>2022-08-16T07:27:15Z</time>
      </trkpt>
      <trkpt lat="45.72055" lon="6.49025">
        <ele>929</ele>
        <time>2022-08-16T07:27:16Z</time>
      </trkpt>
      <trkpt lat="45.72055" lon="6.49028">
        <ele>930</ele>
        <time>2022-08-16T07:27:17Z</time>
      </trkpt>
      <trkpt lat="45.72056" lon="6.49031">
        <ele>930</ele>
        <time>2022-08-16T07:27:18Z</time>
      </trkpt>
      <trkpt lat="45.72057" lon="6.49035">
        <ele>930</ele>
        <time>2022-08-16T07:27:19Z</time>
      </trkpt>
      <trkpt lat="45.72058" lon="6.49038">
        <ele>930</ele>
        <time>2022-08-16T07:27:20Z</time>
      </trkpt>
      <trkpt lat="45.7206" lon="6.49041">
        <ele>929</ele>
        <time>2022-08-16T07:27:21Z</time>
      </trkpt>
      <trkpt lat="45.72061" lon="6.49045">
        <ele>929</ele>
        <time>2022-08-16T07:27:22Z</time>
      </trkpt>
      <trkpt lat="45.72063" lon="6.49048">
        <ele>929</ele>
        <time>2022-08-16T07:27:23Z</time>
      </trkpt>
      <trkpt lat="45.72064" lon="6.49051">
        <ele>928</ele>
        <time>2022-08-16T07:27:24Z</time>
      </trkpt>
      <trkpt lat="45.72066" lon="6.49053">
        <ele>928</ele>
        <time>2022-08-16T07:27:25Z</time>
      </trkpt>
      <trkpt lat="45.72068" lon="6.49055">
        <ele>928</ele>
        <time>2022-08-16T07:27:26Z</time>
      </trkpt>
      <trkpt lat="45.72071" lon="6.49057">
        <ele>928</ele>
        <time>2022-08-16T07:27:27Z</time>
      </trkpt>
      <trkpt lat="45.72073" lon="6.4906">
        <ele>929</ele>
        <time>2022-08-16T07:27:28Z</time>
      </trkpt>
      <trkpt lat="45.72075" lon="6.49063">
        <ele>929</ele>
        <time>2022-08-16T07:27:29Z</time>
      </trkpt>
      <trkpt lat="45.72077" lon="6.49065">
        <ele>929</ele>
        <time>2022-08-16T07:27:30Z</time>
      </trkpt>
      <trkpt lat="45.72078" lon="6.49068">
        <ele>929</ele>
        <time>2022-08-16T07:27:31Z</time>
      </trkpt>
      <trkpt lat="45.7208" lon="6.49071">
        <ele>930</ele>
        <time>2022-08-16T07:27:32Z</time>
      </trkpt>
      <trkpt lat="45.72082" lon="6.49074">
        <ele>930</ele>
        <time>2022-08-16T07:27:33Z</time>
      </trkpt>
      <trkpt lat="45.72083" lon="6.49077">
        <ele>930</ele>
        <time>2022-08-16T07:27:34Z</time>
      </trkpt>
      <trkpt lat="45.72083" lon="6.49081">
        <ele>930</ele>
        <time>2022-08-16T07:27:35Z</time>
      </trkpt>
      <trkpt lat="45.72084" lon="6.49086">
        <ele>931</ele>
        <time>2022-08-16T07:27:36Z</time>
      </trkpt>
      <trkpt lat="45.72084" lon="6.4909">
        <ele>932</ele>
        <time>2022-08-16T07:27:37Z</time>
      </trkpt>
      <trkpt lat="45.72083" lon="6.49094">
        <ele>933</ele>
        <time>2022-08-16T07:27:38Z</time>
      </trkpt>
      <trkpt lat="45.72083" lon="6.49098">
        <ele>933</ele>
        <time>2022-08-16T07:27:39Z</time>
      </trkpt>
      <trkpt lat="45.72083" lon="6.49102">
        <ele>934</ele>
        <time>2022-08-16T07:27:40Z</time>
      </trkpt>
      <trkpt lat="45.72081" lon="6.49105">
        <ele>934</ele>
        <time>2022-08-16T07:27:41Z</time>
      </trkpt>
      <trkpt lat="45.72081" lon="6.49109">
        <ele>933</ele>
        <time>2022-08-16T07:27:42Z</time>
      </trkpt>
      <trkpt lat="45.7208" lon="6.49113">
        <ele>933</ele>
        <time>2022-08-16T07:27:43Z</time>
      </trkpt>
      <trkpt lat="45.7208" lon="6.49116">
        <ele>933</ele>
        <time>2022-08-16T07:27:44Z</time>
      </trkpt>
      <trkpt lat="45.7208" lon="6.49119">
        <ele>932</ele>
        <time>2022-08-16T07:27:45Z</time>
      </trkpt>
      <trkpt lat="45.72079" lon="6.49122">
        <ele>932</ele>
        <time>2022-08-16T07:27:46Z</time>
      </trkpt>
      <trkpt lat="45.72079" lon="6.49126">
        <ele>931</ele>
        <time>2022-08-16T07:27:47Z</time>
      </trkpt>
      <trkpt lat="45.72079" lon="6.4913">
        <ele>930</ele>
        <time>2022-08-16T07:27:48Z</time>
      </trkpt>
      <trkpt lat="45.72079" lon="6.49135">
        <ele>930</ele>
        <time>2022-08-16T07:27:49Z</time>
      </trkpt>
      <trkpt lat="45.7208" lon="6.4914">
        <ele>930</ele>
        <time>2022-08-16T07:27:50Z</time>
      </trkpt>
      <trkpt lat="45.72081" lon="6.49144">
        <ele>930</ele>
        <time>2022-08-16T07:27:51Z</time>
      </trkpt>
      <trkpt lat="45.72082" lon="6.49149">
        <ele>929</ele>
        <time>2022-08-16T07:27:52Z</time>
      </trkpt>
      <trkpt lat="45.72083" lon="6.49154">
        <ele>929</ele>
        <time>2022-08-16T07:27:53Z</time>
      </trkpt>
      <trkpt lat="45.72084" lon="6.49158">
        <ele>929</ele>
        <time>2022-08-16T07:27:54Z</time>
      </trkpt>
      <trkpt lat="45.72084" lon="6.49162">
        <ele>929</ele>
        <time>2022-08-16T07:27:55Z</time>
      </trkpt>
      <trkpt lat="45.72084" lon="6.49166">
        <ele>929</ele>
        <time>2022-08-16T07:27:56Z</time>
      </trkpt>
      <trkpt lat="45.72084" lon="6.49169">
        <ele>929</ele>
        <time>2022-08-16T07:27:57Z</time>
      </trkpt>
      <trkpt lat="45.72084" lon="6.49172">
        <ele>930</ele>
        <time>2022-08-16T07:27:58Z</time>
      </trkpt>
      <trkpt lat="45.72084" lon="6.49176">
        <ele>930</ele>
        <time>2022-08-16T07:27:59Z</time>
      </trkpt>
      <trkpt lat="45.72085" lon="6.49179">
        <ele>930</ele>
        <time>2022-08-16T07:28:00Z</time>
      </trkpt>
      <trkpt lat="45.72085" lon="6.49183">
        <ele>930</ele>
        <time>2022-08-16T07:28:01Z</time>
      </trkpt>
      <trkpt lat="45.72086" lon="6.49187">
        <ele>930</ele>
        <time>2022-08-16T07:28:02Z</time>
      </trkpt>
      <trkpt lat="45.72088" lon="6.49191">
        <ele>931</ele>
        <time>2022-08-16T07:28:03Z</time>
      </trkpt>
      <trkpt lat="45.72089" lon="6.49195">
        <ele>932</ele>
        <time>2022-08-16T07:28:04Z</time>
      </trkpt>
      <trkpt lat="45.7209" lon="6.49199">
        <ele>932</ele>
        <time>2022-08-16T07:28:05Z</time>
      </trkpt>
      <trkpt lat="45.72092" lon="6.49203">
        <ele>932</ele>
        <time>2022-08-16T07:28:06Z</time>
      </trkpt>
      <trkpt lat="45.72093" lon="6.49208">
        <ele>931</ele>
        <time>2022-08-16T07:28:07Z</time>
      </trkpt>
      <trkpt lat="45.72094" lon="6.49212">
        <ele>931</ele>
        <time>2022-08-16T07:28:08Z</time>
      </trkpt>
      <trkpt lat="45.72094" lon="6.49216">
        <ele>931</ele>
        <time>2022-08-16T07:28:09Z</time>
      </trkpt>
      <trkpt lat="45.72094" lon="6.4922">
        <ele>930</ele>
        <time>2022-08-16T07:28:10Z</time>
      </trkpt>
      <trkpt lat="45.72094" lon="6.49224">
        <ele>930</ele>
        <time>2022-08-16T07:28:11Z</time>
      </trkpt>
      <trkpt lat="45.72092" lon="6.49227">
        <ele>929</ele>
        <time>2022-08-16T07:28:12Z</time>
      </trkpt>
      <trkpt lat="45.72091" lon="6.49231">
        <ele>929</ele>
        <time>2022-08-16T07:28:13Z</time>
      </trkpt>
      <trkpt lat="45.7209" lon="6.49235">
        <ele>929</ele>
        <time>2022-08-16T07:28:14Z</time>
      </trkpt>
      <trkpt lat="45.72089" lon="6.4924">
        <ele>929</ele>
        <time>2022-08-16T07:28:15Z</time>
      </trkpt>
      <trkpt lat="45.72088" lon="6.49243">
        <ele>929</ele>
        <time>2022-08-16T07:28:16Z</time>
      </trkpt>
      <trkpt lat="45.72086" lon="6.49247">
        <ele>930</ele>
        <time>2022-08-16T07:28:17Z</time>
      </trkpt>
      <trkpt lat="45.72085" lon="6.49251">
        <ele>930</ele>
        <time>2022-08-16T07:28:18Z</time>
      </trkpt>
      <trkpt lat="45.72083" lon="6.49255">
        <ele>929</ele>
        <time>2022-08-16T07:28:19Z</time>
      </trkpt>
      <trkpt lat="45.72082" lon="6.49259">
        <ele>929</ele>
        <time>2022-08-16T07:28:20Z</time>
      </trkpt>
      <trkpt lat="45.72082" lon="6.49264">
        <ele>930</ele>
        <time>2022-08-16T07:28:21Z</time>
      </trkpt>
      <trkpt lat="45.72081" lon="6.49268">
        <ele>930</ele>
        <time>2022-08-16T07:28:22Z</time>
      </trkpt>
      <trkpt lat="45.7208" lon="6.49272">
        <ele>930</ele>
        <time>2022-08-16T07:28:23Z</time>
      </trkpt>
      <trkpt lat="45.72079" lon="6.49278">
        <ele>930</ele>
        <time>2022-08-16T07:28:24Z</time>
      </trkpt>
      <trkpt lat="45.72079" lon="6.49283">
        <ele>930</ele>
        <time>2022-08-16T07:28:25Z</time>
      </trkpt>
      <trkpt lat="45.72079" lon="6.49287">
        <ele>930</ele>
        <time>2022-08-16T07:28:26Z</time>
      </trkpt>
      <trkpt lat="45.72079" lon="6.49294">
        <ele>929</ele>
        <time>2022-08-16T07:28:27Z</time>
      </trkpt>
      <trkpt lat="45.72079" lon="6.493">
        <ele>929</ele>
        <time>2022-08-16T07:28:28Z</time>
      </trkpt>
      <trkpt lat="45.72078" lon="6.49305">
        <ele>929</ele>
        <time>2022-08-16T07:28:29Z</time>
      </trkpt>
      <trkpt lat="45.72078" lon="6.49311">
        <ele>929</ele>
        <time>2022-08-16T07:28:30Z</time>
      </trkpt>
      <trkpt lat="45.72077" lon="6.49317">
        <ele>929</ele>
        <time>2022-08-16T07:28:31Z</time>
      </trkpt>
      <trkpt lat="45.72077" lon="6.49323">
        <ele>927</ele>
        <time>2022-08-16T07:28:32Z</time>
      </trkpt>
      <trkpt lat="45.72076" lon="6.49328">
        <ele>927</ele>
        <time>2022-08-16T07:28:33Z</time>
      </trkpt>
      <trkpt lat="45.72076" lon="6.49332">
        <ele>927</ele>
        <time>2022-08-16T07:28:34Z</time>
      </trkpt>
      <trkpt lat="45.72075" lon="6.49337">
        <ele>927</ele>
        <time>2022-08-16T07:28:35Z</time>
      </trkpt>
      <trkpt lat="45.72074" lon="6.49342">
        <ele>927</ele>
        <time>2022-08-16T07:28:36Z</time>
      </trkpt>
      <trkpt lat="45.72073" lon="6.49347">
        <ele>926</ele>
        <time>2022-08-16T07:28:37Z</time>
      </trkpt>
      <trkpt lat="45.72072" lon="6.49352">
        <ele>926</ele>
        <time>2022-08-16T07:28:38Z</time>
      </trkpt>
      <trkpt lat="45.72071" lon="6.49357">
        <ele>925</ele>
        <time>2022-08-16T07:28:39Z</time>
      </trkpt>
      <trkpt lat="45.72069" lon="6.49361">
        <ele>926</ele>
        <time>2022-08-16T07:28:40Z</time>
      </trkpt>
      <trkpt lat="45.72068" lon="6.49367">
        <ele>926</ele>
        <time>2022-08-16T07:28:41Z</time>
      </trkpt>
      <trkpt lat="45.72067" lon="6.49372">
        <ele>926</ele>
        <time>2022-08-16T07:28:42Z</time>
      </trkpt>
      <trkpt lat="45.72066" lon="6.49378">
        <ele>926</ele>
        <time>2022-08-16T07:28:43Z</time>
      </trkpt>
      <trkpt lat="45.72066" lon="6.49384">
        <ele>926</ele>
        <time>2022-08-16T07:28:44Z</time>
      </trkpt>
      <trkpt lat="45.72066" lon="6.4939">
        <ele>926</ele>
        <time>2022-08-16T07:28:45Z</time>
      </trkpt>
      <trkpt lat="45.72066" lon="6.49396">
        <ele>926</ele>
        <time>2022-08-16T07:28:46Z</time>
      </trkpt>
      <trkpt lat="45.72068" lon="6.49402">
        <ele>925</ele>
        <time>2022-08-16T07:28:47Z</time>
      </trkpt>
      <trkpt lat="45.7207" lon="6.49406">
        <ele>925</ele>
        <time>2022-08-16T07:28:48Z</time>
      </trkpt>
      <trkpt lat="45.72071" lon="6.49411">
        <ele>925</ele>
        <time>2022-08-16T07:28:49Z</time>
      </trkpt>
      <trkpt lat="45.72073" lon="6.49416">
        <ele>926</ele>
        <time>2022-08-16T07:28:50Z</time>
      </trkpt>
      <trkpt lat="45.72076" lon="6.4942">
        <ele>926</ele>
        <time>2022-08-16T07:28:51Z</time>
      </trkpt>
      <trkpt lat="45.72078" lon="6.49424">
        <ele>927</ele>
        <time>2022-08-16T07:28:52Z</time>
      </trkpt>
      <trkpt lat="45.7208" lon="6.49427">
        <ele>928</ele>
        <time>2022-08-16T07:28:53Z</time>
      </trkpt>
      <trkpt lat="45.72083" lon="6.4943">
        <ele>928</ele>
        <time>2022-08-16T07:28:54Z</time>
      </trkpt>
      <trkpt lat="45.72085" lon="6.49432">
        <ele>928</ele>
        <time>2022-08-16T07:28:55Z</time>
      </trkpt>
      <trkpt lat="45.72086" lon="6.49433">
        <ele>929</ele>
        <time>2022-08-16T07:28:56Z</time>
      </trkpt>
      <trkpt lat="45.72088" lon="6.49435">
        <ele>929</ele>
        <time>2022-08-16T07:28:57Z</time>
      </trkpt>
      <trkpt lat="45.72091" lon="6.49436">
        <ele>929</ele>
        <time>2022-08-16T07:28:58Z</time>
      </trkpt>
      <trkpt lat="45.72093" lon="6.49438">
        <ele>929</ele>
        <time>2022-08-16T07:28:59Z</time>
      </trkpt>
      <trkpt lat="45.72095" lon="6.4944">
        <ele>929</ele>
        <time>2022-08-16T07:29:00Z</time>
      </trkpt>
      <trkpt lat="45.72097" lon="6.49442">
        <ele>929</ele>
        <time>2022-08-16T07:29:01Z</time>
      </trkpt>
      <trkpt lat="45.72099" lon="6.49444">
        <ele>929</ele>
        <time>2022-08-16T07:29:02Z</time>
      </trkpt>
      <trkpt lat="45.72102" lon="6.49447">
        <ele>930</ele>
        <time>2022-08-16T07:29:03Z</time>
      </trkpt>
      <trkpt lat="45.72104" lon="6.4945">
        <ele>930</ele>
        <time>2022-08-16T07:29:04Z</time>
      </trkpt>
      <trkpt lat="45.72106" lon="6.49454">
        <ele>930</ele>
        <time>2022-08-16T07:29:05Z</time>
      </trkpt>
      <trkpt lat="45.72108" lon="6.49457">
        <ele>930</ele>
        <time>2022-08-16T07:29:06Z</time>
      </trkpt>
      <trkpt lat="45.7211" lon="6.49462">
        <ele>930</ele>
        <time>2022-08-16T07:29:07Z</time>
      </trkpt>
      <trkpt lat="45.72111" lon="6.49466">
        <ele>930</ele>
        <time>2022-08-16T07:29:08Z</time>
      </trkpt>
      <trkpt lat="45.72113" lon="6.49471">
        <ele>930</ele>
        <time>2022-08-16T07:29:09Z</time>
      </trkpt>
      <trkpt lat="45.72114" lon="6.49476">
        <ele>931</ele>
        <time>2022-08-16T07:29:10Z</time>
      </trkpt>
      <trkpt lat="45.72115" lon="6.49481">
        <ele>931</ele>
        <time>2022-08-16T07:29:11Z</time>
      </trkpt>
      <trkpt lat="45.72117" lon="6.49486">
        <ele>931</ele>
        <time>2022-08-16T07:29:12Z</time>
      </trkpt>
      <trkpt lat="45.72119" lon="6.49491">
        <ele>932</ele>
        <time>2022-08-16T07:29:13Z</time>
      </trkpt>
      <trkpt lat="45.72121" lon="6.49497">
        <ele>932</ele>
        <time>2022-08-16T07:29:14Z</time>
      </trkpt>
      <trkpt lat="45.72123" lon="6.49503">
        <ele>932</ele>
        <time>2022-08-16T07:29:15Z</time>
      </trkpt>
      <trkpt lat="45.72125" lon="6.49508">
        <ele>932</ele>
        <time>2022-08-16T07:29:16Z</time>
      </trkpt>
      <trkpt lat="45.72128" lon="6.49513">
        <ele>932</ele>
        <time>2022-08-16T07:29:17Z</time>
      </trkpt>
      <trkpt lat="45.72132" lon="6.49518">
        <ele>932</ele>
        <time>2022-08-16T07:29:18Z</time>
      </trkpt>
      <trkpt lat="45.72136" lon="6.49522">
        <ele>932</ele>
        <time>2022-08-16T07:29:19Z</time>
      </trkpt>
      <trkpt lat="45.7214" lon="6.49526">
        <ele>932</ele>
        <time>2022-08-16T07:29:20Z</time>
      </trkpt>
      <trkpt lat="45.72143" lon="6.4953">
        <ele>932</ele>
        <time>2022-08-16T07:29:21Z</time>
      </trkpt>
      <trkpt lat="45.72147" lon="6.49534">
        <ele>932</ele>
        <time>2022-08-16T07:29:22Z</time>
      </trkpt>
      <trkpt lat="45.72151" lon="6.49538">
        <ele>932</ele>
        <time>2022-08-16T07:29:23Z</time>
      </trkpt>
      <trkpt lat="45.72154" lon="6.49542">
        <ele>932</ele>
        <time>2022-08-16T07:29:24Z</time>
      </trkpt>
      <trkpt lat="45.72158" lon="6.49547">
        <ele>932</ele>
        <time>2022-08-16T07:29:25Z</time>
      </trkpt>
      <trkpt lat="45.72161" lon="6.49551">
        <ele>932</ele>
        <time>2022-08-16T07:29:26Z</time>
      </trkpt>
      <trkpt lat="45.72164" lon="6.49557">
        <ele>932</ele>
        <time>2022-08-16T07:29:27Z</time>
      </trkpt>
      <trkpt lat="45.72167" lon="6.49563">
        <ele>932</ele>
        <time>2022-08-16T07:29:28Z</time>
      </trkpt>
      <trkpt lat="45.72169" lon="6.4957">
        <ele>932</ele>
        <time>2022-08-16T07:29:29Z</time>
      </trkpt>
      <trkpt lat="45.72171" lon="6.49576">
        <ele>932</ele>
        <time>2022-08-16T07:29:30Z</time>
      </trkpt>
      <trkpt lat="45.72173" lon="6.49583">
        <ele>932</ele>
        <time>2022-08-16T07:29:31Z</time>
      </trkpt>
      <trkpt lat="45.72175" lon="6.49589">
        <ele>933</ele>
        <time>2022-08-16T07:29:32Z</time>
      </trkpt>
      <trkpt lat="45.72178" lon="6.49594">
        <ele>933</ele>
        <time>2022-08-16T07:29:33Z</time>
      </trkpt>
      <trkpt lat="45.7218" lon="6.49599">
        <ele>933</ele>
        <time>2022-08-16T07:29:34Z</time>
      </trkpt>
      <trkpt lat="45.72184" lon="6.49603">
        <ele>933</ele>
        <time>2022-08-16T07:29:35Z</time>
      </trkpt>
      <trkpt lat="45.72188" lon="6.49607">
        <ele>933</ele>
        <time>2022-08-16T07:29:36Z</time>
      </trkpt>
      <trkpt lat="45.72192" lon="6.49609">
        <ele>933</ele>
        <time>2022-08-16T07:29:37Z</time>
      </trkpt>
      <trkpt lat="45.72197" lon="6.49611">
        <ele>933</ele>
        <time>2022-08-16T07:29:38Z</time>
      </trkpt>
      <trkpt lat="45.72201" lon="6.49612">
        <ele>933</ele>
        <time>2022-08-16T07:29:39Z</time>
      </trkpt>
      <trkpt lat="45.72205" lon="6.49613">
        <ele>933</ele>
        <time>2022-08-16T07:29:40Z</time>
      </trkpt>
      <trkpt lat="45.7221" lon="6.49615">
        <ele>933</ele>
        <time>2022-08-16T07:29:41Z</time>
      </trkpt>
      <trkpt lat="45.72214" lon="6.49617">
        <ele>933</ele>
        <time>2022-08-16T07:29:42Z</time>
      </trkpt>
      <trkpt lat="45.72218" lon="6.49618">
        <ele>933</ele>
        <time>2022-08-16T07:29:43Z</time>
      </trkpt>
      <trkpt lat="45.72222" lon="6.49618">
        <ele>934</ele>
        <time>2022-08-16T07:29:44Z</time>
      </trkpt>
      <trkpt lat="45.72226" lon="6.49619">
        <ele>934</ele>
        <time>2022-08-16T07:29:45Z</time>
      </trkpt>
      <trkpt lat="45.72229" lon="6.49621">
        <ele>934</ele>
        <time>2022-08-16T07:29:46Z</time>
      </trkpt>
      <trkpt lat="45.72231" lon="6.49623">
        <ele>934</ele>
        <time>2022-08-16T07:29:47Z</time>
      </trkpt>
      <trkpt lat="45.72232" lon="6.49626">
        <ele>934</ele>
        <time>2022-08-16T07:29:48Z</time>
      </trkpt>
      <trkpt lat="45.7223" lon="6.49629">
        <ele>934</ele>
        <time>2022-08-16T07:29:49Z</time>
      </trkpt>
      <trkpt lat="45.72228" lon="6.49633">
        <ele>935</ele>
        <time>2022-08-16T07:29:50Z</time>
      </trkpt>
      <trkpt lat="45.72224" lon="6.49638">
        <ele>935</ele>
        <time>2022-08-16T07:29:51Z</time>
      </trkpt>
      <trkpt lat="45.72219" lon="6.49646">
        <ele>935</ele>
        <time>2022-08-16T07:29:52Z</time>
      </trkpt>
      <trkpt lat="45.72215" lon="6.49653">
        <ele>935</ele>
        <time>2022-08-16T07:29:53Z</time>
      </trkpt>
      <trkpt lat="45.72212" lon="6.49659">
        <ele>935</ele>
        <time>2022-08-16T07:29:54Z</time>
      </trkpt>
      <trkpt lat="45.7221" lon="6.49665">
        <ele>935</ele>
        <time>2022-08-16T07:29:55Z</time>
      </trkpt>
      <trkpt lat="45.72208" lon="6.49672">
        <ele>935</ele>
        <time>2022-08-16T07:29:56Z</time>
      </trkpt>
      <trkpt lat="45.72207" lon="6.49678">
        <ele>936</ele>
        <time>2022-08-16T07:29:57Z</time>
      </trkpt>
      <trkpt lat="45.72206" lon="6.49685">
        <ele>936</ele>
        <time>2022-08-16T07:29:58Z</time>
      </trkpt>
      <trkpt lat="45.72204" lon="6.49691">
        <ele>936</ele>
        <time>2022-08-16T07:29:59Z</time>
      </trkpt>
      <trkpt lat="45.72202" lon="6.49698">
        <ele>936</ele>
        <time>2022-08-16T07:30:00Z</time>
      </trkpt>
      <trkpt lat="45.72199" lon="6.49702">
        <ele>936</ele>
        <time>2022-08-16T07:30:01Z</time>
      </trkpt>
      <trkpt lat="45.72197" lon="6.49708">
        <ele>936</ele>
        <time>2022-08-16T07:30:02Z</time>
      </trkpt>
      <trkpt lat="45.72194" lon="6.49714">
        <ele>935</ele>
        <time>2022-08-16T07:30:03Z</time>
      </trkpt>
      <trkpt lat="45.72191" lon="6.49722">
        <ele>935</ele>
        <time>2022-08-16T07:30:04Z</time>
      </trkpt>
      <trkpt lat="45.72189" lon="6.49731">
        <ele>935</ele>
        <time>2022-08-16T07:30:05Z</time>
      </trkpt>
      <trkpt lat="45.72189" lon="6.4974">
        <ele>934</ele>
        <time>2022-08-16T07:30:06Z</time>
      </trkpt>
      <trkpt lat="45.7219" lon="6.49749">
        <ele>933</ele>
        <time>2022-08-16T07:30:07Z</time>
      </trkpt>
      <trkpt lat="45.72191" lon="6.49759">
        <ele>933</ele>
        <time>2022-08-16T07:30:08Z</time>
      </trkpt>
      <trkpt lat="45.72192" lon="6.49767">
        <ele>932</ele>
        <time>2022-08-16T07:30:09Z</time>
      </trkpt>
      <trkpt lat="45.72193" lon="6.49775">
        <ele>931</ele>
        <time>2022-08-16T07:30:10Z</time>
      </trkpt>
      <trkpt lat="45.72195" lon="6.49783">
        <ele>930</ele>
        <time>2022-08-16T07:30:11Z</time>
      </trkpt>
      <trkpt lat="45.72195" lon="6.49791">
        <ele>929</ele>
        <time>2022-08-16T07:30:12Z</time>
      </trkpt>
      <trkpt lat="45.72196" lon="6.49799">
        <ele>929</ele>
        <time>2022-08-16T07:30:13Z</time>
      </trkpt>
      <trkpt lat="45.72197" lon="6.49807">
        <ele>928</ele>
        <time>2022-08-16T07:30:14Z</time>
      </trkpt>
      <trkpt lat="45.72197" lon="6.49813">
        <ele>927</ele>
        <time>2022-08-16T07:30:15Z</time>
      </trkpt>
      <trkpt lat="45.72197" lon="6.49817">
        <ele>927</ele>
        <time>2022-08-16T07:30:16Z</time>
      </trkpt>
      <trkpt lat="45.72197" lon="6.49821">
        <ele>927</ele>
        <time>2022-08-16T07:30:17Z</time>
      </trkpt>
      <trkpt lat="45.72197" lon="6.49825">
        <ele>926</ele>
        <time>2022-08-16T07:30:18Z</time>
      </trkpt>
      <trkpt lat="45.72196" lon="6.49829">
        <ele>926</ele>
        <time>2022-08-16T07:30:19Z</time>
      </trkpt>
      <trkpt lat="45.72196" lon="6.49833">
        <ele>926</ele>
        <time>2022-08-16T07:30:20Z</time>
      </trkpt>
      <trkpt lat="45.72194" lon="6.49837">
        <ele>926</ele>
        <time>2022-08-16T07:30:21Z</time>
      </trkpt>
      <trkpt lat="45.72193" lon="6.49841">
        <ele>926</ele>
        <time>2022-08-16T07:30:22Z</time>
      </trkpt>
      <trkpt lat="45.7219" lon="6.49846">
        <ele>926</ele>
        <time>2022-08-16T07:30:23Z</time>
      </trkpt>
      <trkpt lat="45.72189" lon="6.49851">
        <ele>925</ele>
        <time>2022-08-16T07:30:24Z</time>
      </trkpt>
      <trkpt lat="45.72187" lon="6.49855">
        <ele>925</ele>
        <time>2022-08-16T07:30:25Z</time>
      </trkpt>
      <trkpt lat="45.72186" lon="6.49861">
        <ele>925</ele>
        <time>2022-08-16T07:30:26Z</time>
      </trkpt>
      <trkpt lat="45.72186" lon="6.49867">
        <ele>924</ele>
        <time>2022-08-16T07:30:27Z</time>
      </trkpt>
      <trkpt lat="45.72185" lon="6.49872">
        <ele>924</ele>
        <time>2022-08-16T07:30:28Z</time>
      </trkpt>
      <trkpt lat="45.72184" lon="6.49878">
        <ele>923</ele>
        <time>2022-08-16T07:30:29Z</time>
      </trkpt>
      <trkpt lat="45.72184" lon="6.49884">
        <ele>922</ele>
        <time>2022-08-16T07:30:30Z</time>
      </trkpt>
      <trkpt lat="45.72183" lon="6.4989">
        <ele>922</ele>
        <time>2022-08-16T07:30:31Z</time>
      </trkpt>
      <trkpt lat="45.72182" lon="6.49896">
        <ele>921</ele>
        <time>2022-08-16T07:30:32Z</time>
      </trkpt>
      <trkpt lat="45.72181" lon="6.49902">
        <ele>920</ele>
        <time>2022-08-16T07:30:33Z</time>
      </trkpt>
      <trkpt lat="45.7218" lon="6.49908">
        <ele>920</ele>
        <time>2022-08-16T07:30:34Z</time>
      </trkpt>
      <trkpt lat="45.72179" lon="6.49915">
        <ele>919</ele>
        <time>2022-08-16T07:30:35Z</time>
      </trkpt>
      <trkpt lat="45.72176" lon="6.49921">
        <ele>918</ele>
        <time>2022-08-16T07:30:36Z</time>
      </trkpt>
      <trkpt lat="45.72174" lon="6.49927">
        <ele>918</ele>
        <time>2022-08-16T07:30:37Z</time>
      </trkpt>
      <trkpt lat="45.72171" lon="6.49931">
        <ele>917</ele>
        <time>2022-08-16T07:30:38Z</time>
      </trkpt>
      <trkpt lat="45.72168" lon="6.49936">
        <ele>916</ele>
        <time>2022-08-16T07:30:39Z</time>
      </trkpt>
      <trkpt lat="45.72166" lon="6.49941">
        <ele>915</ele>
        <time>2022-08-16T07:30:40Z</time>
      </trkpt>
      <trkpt lat="45.72165" lon="6.49947">
        <ele>914</ele>
        <time>2022-08-16T07:30:41Z</time>
      </trkpt>
      <trkpt lat="45.72164" lon="6.49954">
        <ele>913</ele>
        <time>2022-08-16T07:30:42Z</time>
      </trkpt>
      <trkpt lat="45.72165" lon="6.49962">
        <ele>911</ele>
        <time>2022-08-16T07:30:43Z</time>
      </trkpt>
      <trkpt lat="45.72165" lon="6.49971">
        <ele>911</ele>
        <time>2022-08-16T07:30:44Z</time>
      </trkpt>
      <trkpt lat="45.72164" lon="6.4998">
        <ele>910</ele>
        <time>2022-08-16T07:30:45Z</time>
      </trkpt>
      <trkpt lat="45.72162" lon="6.49987">
        <ele>910</ele>
        <time>2022-08-16T07:30:46Z</time>
      </trkpt>
      <trkpt lat="45.7216" lon="6.49994">
        <ele>909</ele>
        <time>2022-08-16T07:30:47Z</time>
      </trkpt>
      <trkpt lat="45.72156" lon="6.50002">
        <ele>908</ele>
        <time>2022-08-16T07:30:48Z</time>
      </trkpt>
      <trkpt lat="45.72153" lon="6.50008">
        <ele>907</ele>
        <time>2022-08-16T07:30:49Z</time>
      </trkpt>
      <trkpt lat="45.72149" lon="6.50015">
        <ele>907</ele>
        <time>2022-08-16T07:30:50Z</time>
      </trkpt>
      <trkpt lat="45.72146" lon="6.50023">
        <ele>906</ele>
        <time>2022-08-16T07:30:51Z</time>
      </trkpt>
      <trkpt lat="45.72142" lon="6.5003">
        <ele>905</ele>
        <time>2022-08-16T07:30:52Z</time>
      </trkpt>
      <trkpt lat="45.72139" lon="6.50036">
        <ele>904</ele>
        <time>2022-08-16T07:30:53Z</time>
      </trkpt>
      <trkpt lat="45.72137" lon="6.50043">
        <ele>903</ele>
        <time>2022-08-16T07:30:54Z</time>
      </trkpt>
      <trkpt lat="45.72135" lon="6.50051">
        <ele>902</ele>
        <time>2022-08-16T07:30:55Z</time>
      </trkpt>
      <trkpt lat="45.72133" lon="6.50057">
        <ele>901</ele>
        <time>2022-08-16T07:30:56Z</time>
      </trkpt>
      <trkpt lat="45.72133" lon="6.50065">
        <ele>900</ele>
        <time>2022-08-16T07:30:57Z</time>
      </trkpt>
      <trkpt lat="45.72133" lon="6.50072">
        <ele>899</ele>
        <time>2022-08-16T07:30:58Z</time>
      </trkpt>
      <trkpt lat="45.72134" lon="6.50079">
        <ele>899</ele>
        <time>2022-08-16T07:30:59Z</time>
      </trkpt>
      <trkpt lat="45.72137" lon="6.50087">
        <ele>899</ele>
        <time>2022-08-16T07:31:00Z</time>
      </trkpt>
      <trkpt lat="45.72141" lon="6.50093">
        <ele>899</ele>
        <time>2022-08-16T07:31:01Z</time>
      </trkpt>
      <trkpt lat="45.72145" lon="6.50098">
        <ele>899</ele>
        <time>2022-08-16T07:31:02Z</time>
      </trkpt>
      <trkpt lat="45.72149" lon="6.50103">
        <ele>898</ele>
        <time>2022-08-16T07:31:03Z</time>
      </trkpt>
      <trkpt lat="45.72151" lon="6.5011">
        <ele>897</ele>
        <time>2022-08-16T07:31:04Z</time>
      </trkpt>
      <trkpt lat="45.72153" lon="6.50118">
        <ele>897</ele>
        <time>2022-08-16T07:31:05Z</time>
      </trkpt>
      <trkpt lat="45.72155" lon="6.50126">
        <ele>896</ele>
        <time>2022-08-16T07:31:06Z</time>
      </trkpt>
      <trkpt lat="45.72157" lon="6.50134">
        <ele>895</ele>
        <time>2022-08-16T07:31:07Z</time>
      </trkpt>
      <trkpt lat="45.72159" lon="6.50141">
        <ele>894</ele>
        <time>2022-08-16T07:31:08Z</time>
      </trkpt>
      <trkpt lat="45.72163" lon="6.50148">
        <ele>894</ele>
        <time>2022-08-16T07:31:09Z</time>
      </trkpt>
      <trkpt lat="45.72167" lon="6.50155">
        <ele>893</ele>
        <time>2022-08-16T07:31:10Z</time>
      </trkpt>
      <trkpt lat="45.72171" lon="6.50163">
        <ele>893</ele>
        <time>2022-08-16T07:31:11Z</time>
      </trkpt>
      <trkpt lat="45.72174" lon="6.50171">
        <ele>893</ele>
        <time>2022-08-16T07:31:12Z</time>
      </trkpt>
      <trkpt lat="45.72178" lon="6.50178">
        <ele>893</ele>
        <time>2022-08-16T07:31:13Z</time>
      </trkpt>
      <trkpt lat="45.72183" lon="6.50184">
        <ele>892</ele>
        <time>2022-08-16T07:31:14Z</time>
      </trkpt>
      <trkpt lat="45.72188" lon="6.5019">
        <ele>893</ele>
        <time>2022-08-16T07:31:15Z</time>
      </trkpt>
      <trkpt lat="45.72193" lon="6.50194">
        <ele>892</ele>
        <time>2022-08-16T07:31:16Z</time>
      </trkpt>
      <trkpt lat="45.72197" lon="6.50201">
        <ele>892</ele>
        <time>2022-08-16T07:31:17Z</time>
      </trkpt>
      <trkpt lat="45.72201" lon="6.50207">
        <ele>892</ele>
        <time>2022-08-16T07:31:18Z</time>
      </trkpt>
      <trkpt lat="45.72205" lon="6.50216">
        <ele>891</ele>
        <time>2022-08-16T07:31:19Z</time>
      </trkpt>
      <trkpt lat="45.72208" lon="6.50225">
        <ele>891</ele>
        <time>2022-08-16T07:31:20Z</time>
      </trkpt>
      <trkpt lat="45.72212" lon="6.50234">
        <ele>891</ele>
        <time>2022-08-16T07:31:21Z</time>
      </trkpt>
      <trkpt lat="45.72215" lon="6.50242">
        <ele>891</ele>
        <time>2022-08-16T07:31:22Z</time>
      </trkpt>
      <trkpt lat="45.72218" lon="6.50249">
        <ele>891</ele>
        <time>2022-08-16T07:31:23Z</time>
      </trkpt>
      <trkpt lat="45.72219" lon="6.50255">
        <ele>891</ele>
        <time>2022-08-16T07:31:24Z</time>
      </trkpt>
      <trkpt lat="45.72218" lon="6.50261">
        <ele>891</ele>
        <time>2022-08-16T07:31:25Z</time>
      </trkpt>
      <trkpt lat="45.72216" lon="6.50267">
        <ele>891</ele>
        <time>2022-08-16T07:31:26Z</time>
      </trkpt>
      <trkpt lat="45.72212" lon="6.50273">
        <ele>891</ele>
        <time>2022-08-16T07:31:27Z</time>
      </trkpt>
      <trkpt lat="45.72208" lon="6.5028">
        <ele>891</ele>
        <time>2022-08-16T07:31:28Z</time>
      </trkpt>
      <trkpt lat="45.72204" lon="6.50287">
        <ele>890</ele>
        <time>2022-08-16T07:31:29Z</time>
      </trkpt>
      <trkpt lat="45.72201" lon="6.50294">
        <ele>890</ele>
        <time>2022-08-16T07:31:30Z</time>
      </trkpt>
      <trkpt lat="45.72197" lon="6.50303">
        <ele>889</ele>
        <time>2022-08-16T07:31:31Z</time>
      </trkpt>
      <trkpt lat="45.72193" lon="6.50313">
        <ele>888</ele>
        <time>2022-08-16T07:31:32Z</time>
      </trkpt>
      <trkpt lat="45.72189" lon="6.50323">
        <ele>887</ele>
        <time>2022-08-16T07:31:33Z</time>
      </trkpt>
      <trkpt lat="45.72186" lon="6.50333">
        <ele>886</ele>
        <time>2022-08-16T07:31:34Z</time>
      </trkpt>
      <trkpt lat="45.72182" lon="6.50344">
        <ele>884</ele>
        <time>2022-08-16T07:31:35Z</time>
      </trkpt>
      <trkpt lat="45.72179" lon="6.50356">
        <ele>883</ele>
        <time>2022-08-16T07:31:36Z</time>
      </trkpt>
      <trkpt lat="45.72176" lon="6.50368">
        <ele>881</ele>
        <time>2022-08-16T07:31:37Z</time>
      </trkpt>
      <trkpt lat="45.72173" lon="6.50379">
        <ele>880</ele>
        <time>2022-08-16T07:31:38Z</time>
      </trkpt>
      <trkpt lat="45.72171" lon="6.50392">
        <ele>879</ele>
        <time>2022-08-16T07:31:39Z</time>
      </trkpt>
      <trkpt lat="45.7217" lon="6.50405">
        <ele>878</ele>
        <time>2022-08-16T07:31:40Z</time>
      </trkpt>
      <trkpt lat="45.72168" lon="6.50418">
        <ele>877</ele>
        <time>2022-08-16T07:31:41Z</time>
      </trkpt>
      <trkpt lat="45.72166" lon="6.50431">
        <ele>876</ele>
        <time>2022-08-16T07:31:42Z</time>
      </trkpt>
      <trkpt lat="45.72164" lon="6.50445">
        <ele>875</ele>
        <time>2022-08-16T07:31:43Z</time>
      </trkpt>
      <trkpt lat="45.72162" lon="6.50458">
        <ele>874</ele>
        <time>2022-08-16T07:31:44Z</time>
      </trkpt>
      <trkpt lat="45.72161" lon="6.50471">
        <ele>873</ele>
        <time>2022-08-16T07:31:45Z</time>
      </trkpt>
      <trkpt lat="45.72161" lon="6.50484">
        <ele>872</ele>
        <time>2022-08-16T07:31:46Z</time>
      </trkpt>
      <trkpt lat="45.72161" lon="6.50497">
        <ele>872</ele>
        <time>2022-08-16T07:31:47Z</time>
      </trkpt>
      <trkpt lat="45.7216" lon="6.50508">
        <ele>872</ele>
        <time>2022-08-16T07:31:48Z</time>
      </trkpt>
      <trkpt lat="45.7216" lon="6.50521">
        <ele>871</ele>
        <time>2022-08-16T07:31:49Z</time>
      </trkpt>
      <trkpt lat="45.7216" lon="6.50532">
        <ele>871</ele>
        <time>2022-08-16T07:31:50Z</time>
      </trkpt>
      <trkpt lat="45.72161" lon="6.50545">
        <ele>870</ele>
        <time>2022-08-16T07:31:51Z</time>
      </trkpt>
      <trkpt lat="45.72161" lon="6.50557">
        <ele>870</ele>
        <time>2022-08-16T07:31:52Z</time>
      </trkpt>
      <trkpt lat="45.72162" lon="6.50569">
        <ele>870</ele>
        <time>2022-08-16T07:31:53Z</time>
      </trkpt>
      <trkpt lat="45.72164" lon="6.50581">
        <ele>870</ele>
        <time>2022-08-16T07:31:54Z</time>
      </trkpt>
      <trkpt lat="45.72167" lon="6.50593">
        <ele>869</ele>
        <time>2022-08-16T07:31:55Z</time>
      </trkpt>
      <trkpt lat="45.7217" lon="6.50604">
        <ele>869</ele>
        <time>2022-08-16T07:31:56Z</time>
      </trkpt>
      <trkpt lat="45.72175" lon="6.50615">
        <ele>868</ele>
        <time>2022-08-16T07:31:57Z</time>
      </trkpt>
      <trkpt lat="45.7218" lon="6.50625">
        <ele>867</ele>
        <time>2022-08-16T07:31:58Z</time>
      </trkpt>
      <trkpt lat="45.72185" lon="6.50635">
        <ele>867</ele>
        <time>2022-08-16T07:31:59Z</time>
      </trkpt>
      <trkpt lat="45.72191" lon="6.50645">
        <ele>867</ele>
        <time>2022-08-16T07:32:00Z</time>
      </trkpt>
      <trkpt lat="45.72196" lon="6.50656">
        <ele>866</ele>
        <time>2022-08-16T07:32:01Z</time>
      </trkpt>
      <trkpt lat="45.72201" lon="6.50666">
        <ele>866</ele>
        <time>2022-08-16T07:32:02Z</time>
      </trkpt>
      <trkpt lat="45.72205" lon="6.50677">
        <ele>866</ele>
        <time>2022-08-16T07:32:03Z</time>
      </trkpt>
      <trkpt lat="45.7221" lon="6.50688">
        <ele>866</ele>
        <time>2022-08-16T07:32:04Z</time>
      </trkpt>
      <trkpt lat="45.72214" lon="6.50699">
        <ele>865</ele>
        <time>2022-08-16T07:32:05Z</time>
      </trkpt>
      <trkpt lat="45.72217" lon="6.50708">
        <ele>865</ele>
        <time>2022-08-16T07:32:06Z</time>
      </trkpt>
      <trkpt lat="45.7222" lon="6.50717">
        <ele>864</ele>
        <time>2022-08-16T07:32:07Z</time>
      </trkpt>
      <trkpt lat="45.72223" lon="6.50725">
        <ele>864</ele>
        <time>2022-08-16T07:32:08Z</time>
      </trkpt>
      <trkpt lat="45.72226" lon="6.50734">
        <ele>863</ele>
        <time>2022-08-16T07:32:09Z</time>
      </trkpt>
      <trkpt lat="45.72229" lon="6.50742">
        <ele>863</ele>
        <time>2022-08-16T07:32:10Z</time>
      </trkpt>
      <trkpt lat="45.72232" lon="6.50751">
        <ele>862</ele>
        <time>2022-08-16T07:32:11Z</time>
      </trkpt>
      <trkpt lat="45.72236" lon="6.50759">
        <ele>862</ele>
        <time>2022-08-16T07:32:12Z</time>
      </trkpt>
      <trkpt lat="45.72238" lon="6.50768">
        <ele>862</ele>
        <time>2022-08-16T07:32:13Z</time>
      </trkpt>
      <trkpt lat="45.72238" lon="6.50778">
        <ele>861</ele>
        <time>2022-08-16T07:32:14Z</time>
      </trkpt>
      <trkpt lat="45.72236" lon="6.50788">
        <ele>861</ele>
        <time>2022-08-16T07:32:15Z</time>
      </trkpt>
      <trkpt lat="45.72234" lon="6.508">
        <ele>860</ele>
        <time>2022-08-16T07:32:16Z</time>
      </trkpt>
      <trkpt lat="45.72232" lon="6.5081">
        <ele>859</ele>
        <time>2022-08-16T07:32:17Z</time>
      </trkpt>
      <trkpt lat="45.7223" lon="6.5082">
        <ele>859</ele>
        <time>2022-08-16T07:32:18Z</time>
      </trkpt>
      <trkpt lat="45.72228" lon="6.5083">
        <ele>857</ele>
        <time>2022-08-16T07:32:19Z</time>
      </trkpt>
      <trkpt lat="45.72228" lon="6.50841">
        <ele>856</ele>
        <time>2022-08-16T07:32:20Z</time>
      </trkpt>
      <trkpt lat="45.72228" lon="6.50853">
        <ele>856</ele>
        <time>2022-08-16T07:32:21Z</time>
      </trkpt>
      <trkpt lat="45.72228" lon="6.50865">
        <ele>855</ele>
        <time>2022-08-16T07:32:22Z</time>
      </trkpt>
      <trkpt lat="45.72228" lon="6.50878">
        <ele>854</ele>
        <time>2022-08-16T07:32:23Z</time>
      </trkpt>
      <trkpt lat="45.72228" lon="6.5089">
        <ele>854</ele>
        <time>2022-08-16T07:32:24Z</time>
      </trkpt>
      <trkpt lat="45.72229" lon="6.50903">
        <ele>853</ele>
        <time>2022-08-16T07:32:25Z</time>
      </trkpt>
      <trkpt lat="45.72229" lon="6.50915">
        <ele>853</ele>
        <time>2022-08-16T07:32:26Z</time>
      </trkpt>
      <trkpt lat="45.72229" lon="6.50927">
        <ele>852</ele>
        <time>2022-08-16T07:32:27Z</time>
      </trkpt>
      <trkpt lat="45.7223" lon="6.50938">
        <ele>851</ele>
        <time>2022-08-16T07:32:28Z</time>
      </trkpt>
      <trkpt lat="45.72231" lon="6.50949">
        <ele>851</ele>
        <time>2022-08-16T07:32:29Z</time>
      </trkpt>
      <trkpt lat="45.72232" lon="6.5096">
        <ele>850</ele>
        <time>2022-08-16T07:32:30Z</time>
      </trkpt>
      <trkpt lat="45.72233" lon="6.5097">
        <ele>849</ele>
        <time>2022-08-16T07:32:31Z</time>
      </trkpt>
      <trkpt lat="45.72233" lon="6.5098">
        <ele>849</ele>
        <time>2022-08-16T07:32:32Z</time>
      </trkpt>
      <trkpt lat="45.72233" lon="6.5099">
        <ele>848</ele>
        <time>2022-08-16T07:32:33Z</time>
      </trkpt>
      <trkpt lat="45.72235" lon="6.51001">
        <ele>848</ele>
        <time>2022-08-16T07:32:34Z</time>
      </trkpt>
      <trkpt lat="45.72237" lon="6.51011">
        <ele>847</ele>
        <time>2022-08-16T07:32:35Z</time>
      </trkpt>
      <trkpt lat="45.7224" lon="6.5102">
        <ele>846</ele>
        <time>2022-08-16T07:32:36Z</time>
      </trkpt>
      <trkpt lat="45.72243" lon="6.5103">
        <ele>846</ele>
        <time>2022-08-16T07:32:37Z</time>
      </trkpt>
      <trkpt lat="45.72246" lon="6.51041">
        <ele>845</ele>
        <time>2022-08-16T07:32:38Z</time>
      </trkpt>
      <trkpt lat="45.72247" lon="6.51053">
        <ele>844</ele>
        <time>2022-08-16T07:32:39Z</time>
      </trkpt>
      <trkpt lat="45.72248" lon="6.51065">
        <ele>844</ele>
        <time>2022-08-16T07:32:40Z</time>
      </trkpt>
      <trkpt lat="45.72248" lon="6.51078">
        <ele>843</ele>
        <time>2022-08-16T07:32:41Z</time>
      </trkpt>
      <trkpt lat="45.72249" lon="6.5109">
        <ele>843</ele>
        <time>2022-08-16T07:32:42Z</time>
      </trkpt>
      <trkpt lat="45.7225" lon="6.51103">
        <ele>842</ele>
        <time>2022-08-16T07:32:43Z</time>
      </trkpt>
      <trkpt lat="45.72251" lon="6.51116">
        <ele>842</ele>
        <time>2022-08-16T07:32:44Z</time>
      </trkpt>
      <trkpt lat="45.72253" lon="6.51129">
        <ele>840</ele>
        <time>2022-08-16T07:32:45Z</time>
      </trkpt>
      <trkpt lat="45.72254" lon="6.51142">
        <ele>839</ele>
        <time>2022-08-16T07:32:46Z</time>
      </trkpt>
      <trkpt lat="45.72255" lon="6.51155">
        <ele>839</ele>
        <time>2022-08-16T07:32:47Z</time>
      </trkpt>
      <trkpt lat="45.72256" lon="6.51167">
        <ele>839</ele>
        <time>2022-08-16T07:32:48Z</time>
      </trkpt>
      <trkpt lat="45.72256" lon="6.51179">
        <ele>838</ele>
        <time>2022-08-16T07:32:49Z</time>
      </trkpt>
      <trkpt lat="45.72256" lon="6.51191">
        <ele>837</ele>
        <time>2022-08-16T07:32:50Z</time>
      </trkpt>
      <trkpt lat="45.72255" lon="6.51203">
        <ele>836</ele>
        <time>2022-08-16T07:32:51Z</time>
      </trkpt>
      <trkpt lat="45.72254" lon="6.51214">
        <ele>835</ele>
        <time>2022-08-16T07:32:52Z</time>
      </trkpt>
      <trkpt lat="45.72254" lon="6.51226">
        <ele>833</ele>
        <time>2022-08-16T07:32:53Z</time>
      </trkpt>
      <trkpt lat="45.72253" lon="6.51235">
        <ele>832</ele>
        <time>2022-08-16T07:32:54Z</time>
      </trkpt>
      <trkpt lat="45.72254" lon="6.51244">
        <ele>831</ele>
        <time>2022-08-16T07:32:55Z</time>
      </trkpt>
      <trkpt lat="45.72255" lon="6.51254">
        <ele>830</ele>
        <time>2022-08-16T07:32:56Z</time>
      </trkpt>
      <trkpt lat="45.72257" lon="6.51264">
        <ele>830</ele>
        <time>2022-08-16T07:32:57Z</time>
      </trkpt>
      <trkpt lat="45.72259" lon="6.51273">
        <ele>829</ele>
        <time>2022-08-16T07:32:58Z</time>
      </trkpt>
      <trkpt lat="45.72261" lon="6.51282">
        <ele>828</ele>
        <time>2022-08-16T07:32:59Z</time>
      </trkpt>
      <trkpt lat="45.72263" lon="6.5129">
        <ele>828</ele>
        <time>2022-08-16T07:33:00Z</time>
      </trkpt>
      <trkpt lat="45.72266" lon="6.51299">
        <ele>827</ele>
        <time>2022-08-16T07:33:01Z</time>
      </trkpt>
      <trkpt lat="45.72268" lon="6.51307">
        <ele>827</ele>
        <time>2022-08-16T07:33:02Z</time>
      </trkpt>
      <trkpt lat="45.72272" lon="6.51314">
        <ele>826</ele>
        <time>2022-08-16T07:33:03Z</time>
      </trkpt>
      <trkpt lat="45.72277" lon="6.51321">
        <ele>826</ele>
        <time>2022-08-16T07:33:04Z</time>
      </trkpt>
      <trkpt lat="45.72282" lon="6.51327">
        <ele>826</ele>
        <time>2022-08-16T07:33:05Z</time>
      </trkpt>
      <trkpt lat="45.72287" lon="6.51334">
        <ele>825</ele>
        <time>2022-08-16T07:33:06Z</time>
      </trkpt>
      <trkpt lat="45.72292" lon="6.51341">
        <ele>824</ele>
        <time>2022-08-16T07:33:07Z</time>
      </trkpt>
      <trkpt lat="45.72298" lon="6.5135">
        <ele>824</ele>
        <time>2022-08-16T07:33:08Z</time>
      </trkpt>
      <trkpt lat="45.72305" lon="6.51358">
        <ele>824</ele>
        <time>2022-08-16T07:33:09Z</time>
      </trkpt>
      <trkpt lat="45.72312" lon="6.51366">
        <ele>824</ele>
        <time>2022-08-16T07:33:10Z</time>
      </trkpt>
      <trkpt lat="45.72318" lon="6.51374">
        <ele>823</ele>
        <time>2022-08-16T07:33:11Z</time>
      </trkpt>
      <trkpt lat="45.72324" lon="6.51383">
        <ele>823</ele>
        <time>2022-08-16T07:33:12Z</time>
      </trkpt>
      <trkpt lat="45.72329" lon="6.51392">
        <ele>822</ele>
        <time>2022-08-16T07:33:13Z</time>
      </trkpt>
      <trkpt lat="45.72335" lon="6.51401">
        <ele>822</ele>
        <time>2022-08-16T07:33:14Z</time>
      </trkpt>
      <trkpt lat="45.72339" lon="6.51409">
        <ele>821</ele>
        <time>2022-08-16T07:33:15Z</time>
      </trkpt>
      <trkpt lat="45.72344" lon="6.51415">
        <ele>821</ele>
        <time>2022-08-16T07:33:16Z</time>
      </trkpt>
      <trkpt lat="45.72348" lon="6.51421">
        <ele>821</ele>
        <time>2022-08-16T07:33:17Z</time>
      </trkpt>
      <trkpt lat="45.72351" lon="6.51428">
        <ele>820</ele>
        <time>2022-08-16T07:33:18Z</time>
      </trkpt>
      <trkpt lat="45.72354" lon="6.51436">
        <ele>820</ele>
        <time>2022-08-16T07:33:19Z</time>
      </trkpt>
      <trkpt lat="45.72356" lon="6.51444">
        <ele>819</ele>
        <time>2022-08-16T07:33:20Z</time>
      </trkpt>
      <trkpt lat="45.72357" lon="6.51453">
        <ele>819</ele>
        <time>2022-08-16T07:33:21Z</time>
      </trkpt>
      <trkpt lat="45.72358" lon="6.51462">
        <ele>819</ele>
        <time>2022-08-16T07:33:22Z</time>
      </trkpt>
      <trkpt lat="45.72359" lon="6.51471">
        <ele>818</ele>
        <time>2022-08-16T07:33:23Z</time>
      </trkpt>
      <trkpt lat="45.72362" lon="6.5148">
        <ele>818</ele>
        <time>2022-08-16T07:33:24Z</time>
      </trkpt>
      <trkpt lat="45.72365" lon="6.51488">
        <ele>817</ele>
        <time>2022-08-16T07:33:25Z</time>
      </trkpt>
      <trkpt lat="45.72368" lon="6.51495">
        <ele>817</ele>
        <time>2022-08-16T07:33:26Z</time>
      </trkpt>
      <trkpt lat="45.72371" lon="6.51502">
        <ele>816</ele>
        <time>2022-08-16T07:33:27Z</time>
      </trkpt>
      <trkpt lat="45.72374" lon="6.5151">
        <ele>816</ele>
        <time>2022-08-16T07:33:28Z</time>
      </trkpt>
      <trkpt lat="45.72378" lon="6.51518">
        <ele>815</ele>
        <time>2022-08-16T07:33:29Z</time>
      </trkpt>
      <trkpt lat="45.72382" lon="6.51528">
        <ele>815</ele>
        <time>2022-08-16T07:33:30Z</time>
      </trkpt>
      <trkpt lat="45.72386" lon="6.51539">
        <ele>814</ele>
        <time>2022-08-16T07:33:31Z</time>
      </trkpt>
      <trkpt lat="45.7239" lon="6.51551">
        <ele>813</ele>
        <time>2022-08-16T07:33:32Z</time>
      </trkpt>
      <trkpt lat="45.72396" lon="6.51563">
        <ele>812</ele>
        <time>2022-08-16T07:33:33Z</time>
      </trkpt>
      <trkpt lat="45.72402" lon="6.51574">
        <ele>811</ele>
        <time>2022-08-16T07:33:34Z</time>
      </trkpt>
      <trkpt lat="45.72406" lon="6.51584">
        <ele>810</ele>
        <time>2022-08-16T07:33:35Z</time>
      </trkpt>
      <trkpt lat="45.72409" lon="6.51595">
        <ele>809</ele>
        <time>2022-08-16T07:33:36Z</time>
      </trkpt>
      <trkpt lat="45.72411" lon="6.51607">
        <ele>808</ele>
        <time>2022-08-16T07:33:37Z</time>
      </trkpt>
      <trkpt lat="45.72413" lon="6.51617">
        <ele>807</ele>
        <time>2022-08-16T07:33:38Z</time>
      </trkpt>
      <trkpt lat="45.72414" lon="6.51627">
        <ele>807</ele>
        <time>2022-08-16T07:33:39Z</time>
      </trkpt>
      <trkpt lat="45.72416" lon="6.51637">
        <ele>806</ele>
        <time>2022-08-16T07:33:40Z</time>
      </trkpt>
      <trkpt lat="45.72418" lon="6.51647">
        <ele>804</ele>
        <time>2022-08-16T07:33:41Z</time>
      </trkpt>
      <trkpt lat="45.7242" lon="6.51656">
        <ele>804</ele>
        <time>2022-08-16T07:33:42Z</time>
      </trkpt>
      <trkpt lat="45.72422" lon="6.51664">
        <ele>803</ele>
        <time>2022-08-16T07:33:43Z</time>
      </trkpt>
      <trkpt lat="45.72425" lon="6.51673">
        <ele>802</ele>
        <time>2022-08-16T07:33:44Z</time>
      </trkpt>
      <trkpt lat="45.72428" lon="6.51682">
        <ele>802</ele>
        <time>2022-08-16T07:33:45Z</time>
      </trkpt>
      <trkpt lat="45.72432" lon="6.51691">
        <ele>801</ele>
        <time>2022-08-16T07:33:46Z</time>
      </trkpt>
      <trkpt lat="45.72437" lon="6.51699">
        <ele>800</ele>
        <time>2022-08-16T07:33:47Z</time>
      </trkpt>
      <trkpt lat="45.7244" lon="6.51709">
        <ele>800</ele>
        <time>2022-08-16T07:33:48Z</time>
      </trkpt>
      <trkpt lat="45.72445" lon="6.51719">
        <ele>799</ele>
        <time>2022-08-16T07:33:49Z</time>
      </trkpt>
      <trkpt lat="45.72448" lon="6.51729">
        <ele>798</ele>
        <time>2022-08-16T07:33:50Z</time>
      </trkpt>
      <trkpt lat="45.72452" lon="6.51738">
        <ele>797</ele>
        <time>2022-08-16T07:33:51Z</time>
      </trkpt>
      <trkpt lat="45.72455" lon="6.51747">
        <ele>796</ele>
        <time>2022-08-16T07:33:52Z</time>
      </trkpt>
      <trkpt lat="45.72458" lon="6.51756">
        <ele>795</ele>
        <time>2022-08-16T07:33:53Z</time>
      </trkpt>
      <trkpt lat="45.7246" lon="6.51765">
        <ele>794</ele>
        <time>2022-08-16T07:33:54Z</time>
      </trkpt>
      <trkpt lat="45.72462" lon="6.51775">
        <ele>793</ele>
        <time>2022-08-16T07:33:55Z</time>
      </trkpt>
      <trkpt lat="45.72463" lon="6.51784">
        <ele>792</ele>
        <time>2022-08-16T07:33:56Z</time>
      </trkpt>
      <trkpt lat="45.72464" lon="6.51793">
        <ele>791</ele>
        <time>2022-08-16T07:33:57Z</time>
      </trkpt>
      <trkpt lat="45.72464" lon="6.51802">
        <ele>790</ele>
        <time>2022-08-16T07:33:58Z</time>
      </trkpt>
      <trkpt lat="45.72463" lon="6.51811">
        <ele>790</ele>
        <time>2022-08-16T07:33:59Z</time>
      </trkpt>
      <trkpt lat="45.72462" lon="6.51818">
        <ele>789</ele>
        <time>2022-08-16T07:34:00Z</time>
      </trkpt>
      <trkpt lat="45.72461" lon="6.51824">
        <ele>788</ele>
        <time>2022-08-16T07:34:01Z</time>
      </trkpt>
      <trkpt lat="45.72459" lon="6.51831">
        <ele>788</ele>
        <time>2022-08-16T07:34:02Z</time>
      </trkpt>
      <trkpt lat="45.72457" lon="6.51838">
        <ele>788</ele>
        <time>2022-08-16T07:34:03Z</time>
      </trkpt>
      <trkpt lat="45.72455" lon="6.51845">
        <ele>788</ele>
        <time>2022-08-16T07:34:04Z</time>
      </trkpt>
      <trkpt lat="45.72452" lon="6.51852">
        <ele>787</ele>
        <time>2022-08-16T07:34:05Z</time>
      </trkpt>
      <trkpt lat="45.72449" lon="6.5186">
        <ele>786</ele>
        <time>2022-08-16T07:34:06Z</time>
      </trkpt>
      <trkpt lat="45.72447" lon="6.51869">
        <ele>786</ele>
        <time>2022-08-16T07:34:07Z</time>
      </trkpt>
      <trkpt lat="45.72446" lon="6.51879">
        <ele>786</ele>
        <time>2022-08-16T07:34:08Z</time>
      </trkpt>
      <trkpt lat="45.72445" lon="6.51888">
        <ele>785</ele>
        <time>2022-08-16T07:34:09Z</time>
      </trkpt>
      <trkpt lat="45.72445" lon="6.51897">
        <ele>785</ele>
        <time>2022-08-16T07:34:10Z</time>
      </trkpt>
      <trkpt lat="45.72446" lon="6.51905">
        <ele>784</ele>
        <time>2022-08-16T07:34:11Z</time>
      </trkpt>
      <trkpt lat="45.72448" lon="6.51913">
        <ele>784</ele>
        <time>2022-08-16T07:34:12Z</time>
      </trkpt>
      <trkpt lat="45.72451" lon="6.5192">
        <ele>783</ele>
        <time>2022-08-16T07:34:13Z</time>
      </trkpt>
      <trkpt lat="45.72455" lon="6.51925">
        <ele>782</ele>
        <time>2022-08-16T07:34:14Z</time>
      </trkpt>
      <trkpt lat="45.7246" lon="6.51929">
        <ele>782</ele>
        <time>2022-08-16T07:34:15Z</time>
      </trkpt>
      <trkpt lat="45.72465" lon="6.51931">
        <ele>782</ele>
        <time>2022-08-16T07:34:16Z</time>
      </trkpt>
      <trkpt lat="45.7247" lon="6.51933">
        <ele>782</ele>
        <time>2022-08-16T07:34:17Z</time>
      </trkpt>
      <trkpt lat="45.72476" lon="6.51934">
        <ele>783</ele>
        <time>2022-08-16T07:34:18Z</time>
      </trkpt>
      <trkpt lat="45.72481" lon="6.51935">
        <ele>783</ele>
        <time>2022-08-16T07:34:19Z</time>
      </trkpt>
      <trkpt lat="45.72487" lon="6.51936">
        <ele>783</ele>
        <time>2022-08-16T07:34:20Z</time>
      </trkpt>
      <trkpt lat="45.72492" lon="6.51937">
        <ele>783</ele>
        <time>2022-08-16T07:34:21Z</time>
      </trkpt>
      <trkpt lat="45.72497" lon="6.51939">
        <ele>783</ele>
        <time>2022-08-16T07:34:22Z</time>
      </trkpt>
      <trkpt lat="45.72502" lon="6.5194">
        <ele>783</ele>
        <time>2022-08-16T07:34:23Z</time>
      </trkpt>
      <trkpt lat="45.72506" lon="6.51941">
        <ele>783</ele>
        <time>2022-08-16T07:34:24Z</time>
      </trkpt>
      <trkpt lat="45.72511" lon="6.51943">
        <ele>783</ele>
        <time>2022-08-16T07:34:25Z</time>
      </trkpt>
      <trkpt lat="45.72517" lon="6.51945">
        <ele>783</ele>
        <time>2022-08-16T07:34:26Z</time>
      </trkpt>
      <trkpt lat="45.72522" lon="6.51948">
        <ele>783</ele>
        <time>2022-08-16T07:34:27Z</time>
      </trkpt>
      <trkpt lat="45.72527" lon="6.5195">
        <ele>783</ele>
        <time>2022-08-16T07:34:28Z</time>
      </trkpt>
      <trkpt lat="45.72532" lon="6.51953">
        <ele>783</ele>
        <time>2022-08-16T07:34:29Z</time>
      </trkpt>
      <trkpt lat="45.72536" lon="6.51956">
        <ele>783</ele>
        <time>2022-08-16T07:34:30Z</time>
      </trkpt>
      <trkpt lat="45.72541" lon="6.5196">
        <ele>784</ele>
        <time>2022-08-16T07:34:31Z</time>
      </trkpt>
      <trkpt lat="45.72545" lon="6.51964">
        <ele>784</ele>
        <time>2022-08-16T07:34:32Z</time>
      </trkpt>
      <trkpt lat="45.72548" lon="6.5197">
        <ele>784</ele>
        <time>2022-08-16T07:34:33Z</time>
      </trkpt>
      <trkpt lat="45.7255" lon="6.51978">
        <ele>784</ele>
        <time>2022-08-16T07:34:34Z</time>
      </trkpt>
      <trkpt lat="45.7255" lon="6.51986">
        <ele>785</ele>
        <time>2022-08-16T07:34:35Z</time>
      </trkpt>
      <trkpt lat="45.72551" lon="6.51995">
        <ele>784</ele>
        <time>2022-08-16T07:34:36Z</time>
      </trkpt>
      <trkpt lat="45.72552" lon="6.52003">
        <ele>784</ele>
        <time>2022-08-16T07:34:37Z</time>
      </trkpt>
      <trkpt lat="45.72553" lon="6.52012">
        <ele>784</ele>
        <time>2022-08-16T07:34:38Z</time>
      </trkpt>
      <trkpt lat="45.72553" lon="6.5202">
        <ele>784</ele>
        <time>2022-08-16T07:34:39Z</time>
      </trkpt>
      <trkpt lat="45.72552" lon="6.52029">
        <ele>784</ele>
        <time>2022-08-16T07:34:40Z</time>
      </trkpt>
      <trkpt lat="45.72551" lon="6.52039">
        <ele>784</ele>
        <time>2022-08-16T07:34:41Z</time>
      </trkpt>
      <trkpt lat="45.72549" lon="6.52049">
        <ele>783</ele>
        <time>2022-08-16T07:34:42Z</time>
      </trkpt>
      <trkpt lat="45.72548" lon="6.52059">
        <ele>783</ele>
        <time>2022-08-16T07:34:43Z</time>
      </trkpt>
      <trkpt lat="45.7255" lon="6.52069">
        <ele>782</ele>
        <time>2022-08-16T07:34:44Z</time>
      </trkpt>
      <trkpt lat="45.72555" lon="6.52077">
        <ele>783</ele>
        <time>2022-08-16T07:34:45Z</time>
      </trkpt>
      <trkpt lat="45.72561" lon="6.52083">
        <ele>783</ele>
        <time>2022-08-16T07:34:46Z</time>
      </trkpt>
      <trkpt lat="45.72567" lon="6.52087">
        <ele>783</ele>
        <time>2022-08-16T07:34:47Z</time>
      </trkpt>
      <trkpt lat="45.72573" lon="6.52092">
        <ele>783</ele>
        <time>2022-08-16T07:34:48Z</time>
      </trkpt>
      <trkpt lat="45.72579" lon="6.52097">
        <ele>783</ele>
        <time>2022-08-16T07:34:49Z</time>
      </trkpt>
      <trkpt lat="45.72585" lon="6.52102">
        <ele>782</ele>
        <time>2022-08-16T07:34:50Z</time>
      </trkpt>
      <trkpt lat="45.72591" lon="6.52106">
        <ele>782</ele>
        <time>2022-08-16T07:34:51Z</time>
      </trkpt>
      <trkpt lat="45.72598" lon="6.52111">
        <ele>782</ele>
        <time>2022-08-16T07:34:52Z</time>
      </trkpt>
      <trkpt lat="45.72605" lon="6.52114">
        <ele>782</ele>
        <time>2022-08-16T07:34:53Z</time>
      </trkpt>
      <trkpt lat="45.72611" lon="6.52116">
        <ele>782</ele>
        <time>2022-08-16T07:34:54Z</time>
      </trkpt>
      <trkpt lat="45.72617" lon="6.52119">
        <ele>782</ele>
        <time>2022-08-16T07:34:55Z</time>
      </trkpt>
      <trkpt lat="45.72623" lon="6.52124">
        <ele>783</ele>
        <time>2022-08-16T07:34:56Z</time>
      </trkpt>
      <trkpt lat="45.72629" lon="6.52132">
        <ele>783</ele>
        <time>2022-08-16T07:34:57Z</time>
      </trkpt>
      <trkpt lat="45.72631" lon="6.52144">
        <ele>783</ele>
        <time>2022-08-16T07:34:58Z</time>
      </trkpt>
      <trkpt lat="45.72631" lon="6.52155">
        <ele>783</ele>
        <time>2022-08-16T07:34:59Z</time>
      </trkpt>
      <trkpt lat="45.72629" lon="6.52167">
        <ele>783</ele>
        <time>2022-08-16T07:35:00Z</time>
      </trkpt>
      <trkpt lat="45.72626" lon="6.52178">
        <ele>783</ele>
        <time>2022-08-16T07:35:01Z</time>
      </trkpt>
      <trkpt lat="45.72623" lon="6.52188">
        <ele>783</ele>
        <time>2022-08-16T07:35:02Z</time>
      </trkpt>
      <trkpt lat="45.7262" lon="6.52198">
        <ele>783</ele>
        <time>2022-08-16T07:35:03Z</time>
      </trkpt>
      <trkpt lat="45.72618" lon="6.52206">
        <ele>782</ele>
        <time>2022-08-16T07:35:04Z</time>
      </trkpt>
      <trkpt lat="45.72618" lon="6.52216">
        <ele>782</ele>
        <time>2022-08-16T07:35:05Z</time>
      </trkpt>
      <trkpt lat="45.72618" lon="6.52227">
        <ele>782</ele>
        <time>2022-08-16T07:35:06Z</time>
      </trkpt>
      <trkpt lat="45.72619" lon="6.52237">
        <ele>782</ele>
        <time>2022-08-16T07:35:07Z</time>
      </trkpt>
      <trkpt lat="45.72621" lon="6.52246">
        <ele>781</ele>
        <time>2022-08-16T07:35:08Z</time>
      </trkpt>
      <trkpt lat="45.72624" lon="6.52255">
        <ele>782</ele>
        <time>2022-08-16T07:35:09Z</time>
      </trkpt>
      <trkpt lat="45.72628" lon="6.52264">
        <ele>781</ele>
        <time>2022-08-16T07:35:10Z</time>
      </trkpt>
      <trkpt lat="45.72631" lon="6.52272">
        <ele>781</ele>
        <time>2022-08-16T07:35:11Z</time>
      </trkpt>
      <trkpt lat="45.72634" lon="6.5228">
        <ele>781</ele>
        <time>2022-08-16T07:35:12Z</time>
      </trkpt>
      <trkpt lat="45.72637" lon="6.52288">
        <ele>781</ele>
        <time>2022-08-16T07:35:13Z</time>
      </trkpt>
      <trkpt lat="45.72638" lon="6.52297">
        <ele>781</ele>
        <time>2022-08-16T07:35:14Z</time>
      </trkpt>
      <trkpt lat="45.72638" lon="6.52307">
        <ele>781</ele>
        <time>2022-08-16T07:35:15Z</time>
      </trkpt>
      <trkpt lat="45.7264" lon="6.52317">
        <ele>780</ele>
        <time>2022-08-16T07:35:16Z</time>
      </trkpt>
      <trkpt lat="45.72641" lon="6.52329">
        <ele>780</ele>
        <time>2022-08-16T07:35:17Z</time>
      </trkpt>
      <trkpt lat="45.72642" lon="6.52339">
        <ele>780</ele>
        <time>2022-08-16T07:35:18Z</time>
      </trkpt>
      <trkpt lat="45.72644" lon="6.52351">
        <ele>779</ele>
        <time>2022-08-16T07:35:19Z</time>
      </trkpt>
      <trkpt lat="45.72646" lon="6.52362">
        <ele>778</ele>
        <time>2022-08-16T07:35:20Z</time>
      </trkpt>
      <trkpt lat="45.72648" lon="6.52374">
        <ele>777</ele>
        <time>2022-08-16T07:35:21Z</time>
      </trkpt>
      <trkpt lat="45.72649" lon="6.52386">
        <ele>776</ele>
        <time>2022-08-16T07:35:22Z</time>
      </trkpt>
      <trkpt lat="45.72649" lon="6.52397">
        <ele>776</ele>
        <time>2022-08-16T07:35:23Z</time>
      </trkpt>
      <trkpt lat="45.7265" lon="6.5241">
        <ele>775</ele>
        <time>2022-08-16T07:35:24Z</time>
      </trkpt>
      <trkpt lat="45.7265" lon="6.52421">
        <ele>775</ele>
        <time>2022-08-16T07:35:25Z</time>
      </trkpt>
      <trkpt lat="45.72649" lon="6.52434">
        <ele>774</ele>
        <time>2022-08-16T07:35:26Z</time>
      </trkpt>
      <trkpt lat="45.72649" lon="6.52446">
        <ele>774</ele>
        <time>2022-08-16T07:35:27Z</time>
      </trkpt>
      <trkpt lat="45.72648" lon="6.52458">
        <ele>774</ele>
        <time>2022-08-16T07:35:28Z</time>
      </trkpt>
      <trkpt lat="45.72647" lon="6.52469">
        <ele>774</ele>
        <time>2022-08-16T07:35:29Z</time>
      </trkpt>
      <trkpt lat="45.72646" lon="6.52481">
        <ele>774</ele>
        <time>2022-08-16T07:35:30Z</time>
      </trkpt>
      <trkpt lat="45.72644" lon="6.52492">
        <ele>773</ele>
        <time>2022-08-16T07:35:31Z</time>
      </trkpt>
      <trkpt lat="45.72643" lon="6.52501">
        <ele>773</ele>
        <time>2022-08-16T07:35:32Z</time>
      </trkpt>
      <trkpt lat="45.72641" lon="6.5251">
        <ele>773</ele>
        <time>2022-08-16T07:35:33Z</time>
      </trkpt>
      <trkpt lat="45.7264" lon="6.52518">
        <ele>773</ele>
        <time>2022-08-16T07:35:34Z</time>
      </trkpt>
      <trkpt lat="45.72638" lon="6.52526">
        <ele>772</ele>
        <time>2022-08-16T07:35:35Z</time>
      </trkpt>
      <trkpt lat="45.72637" lon="6.52533">
        <ele>772</ele>
        <time>2022-08-16T07:35:36Z</time>
      </trkpt>
      <trkpt lat="45.72636" lon="6.5254">
        <ele>771</ele>
        <time>2022-08-16T07:35:37Z</time>
      </trkpt>
      <trkpt lat="45.72635" lon="6.52547">
        <ele>771</ele>
        <time>2022-08-16T07:35:38Z</time>
      </trkpt>
      <trkpt lat="45.72633" lon="6.52553">
        <ele>771</ele>
        <time>2022-08-16T07:35:39Z</time>
      </trkpt>
      <trkpt lat="45.72632" lon="6.52558">
        <ele>770</ele>
        <time>2022-08-16T07:35:40Z</time>
      </trkpt>
      <trkpt lat="45.7263" lon="6.52563">
        <ele>770</ele>
        <time>2022-08-16T07:35:41Z</time>
      </trkpt>
      <trkpt lat="45.72629" lon="6.52568">
        <ele>770</ele>
        <time>2022-08-16T07:35:42Z</time>
      </trkpt>
      <trkpt lat="45.72628" lon="6.52573">
        <ele>770</ele>
        <time>2022-08-16T07:35:43Z</time>
      </trkpt>
      <trkpt lat="45.72627" lon="6.52578">
        <ele>769</ele>
        <time>2022-08-16T07:35:44Z</time>
      </trkpt>
      <trkpt lat="45.72627" lon="6.52583">
        <ele>769</ele>
        <time>2022-08-16T07:35:45Z</time>
      </trkpt>
      <trkpt lat="45.72626" lon="6.52588">
        <ele>768</ele>
        <time>2022-08-16T07:35:46Z</time>
      </trkpt>
      <trkpt lat="45.72625" lon="6.52592">
        <ele>768</ele>
        <time>2022-08-16T07:35:47Z</time>
      </trkpt>
      <trkpt lat="45.72624" lon="6.52597">
        <ele>768</ele>
        <time>2022-08-16T07:35:48Z</time>
      </trkpt>
      <trkpt lat="45.72622" lon="6.52602">
        <ele>768</ele>
        <time>2022-08-16T07:35:49Z</time>
      </trkpt>
      <trkpt lat="45.72621" lon="6.52606">
        <ele>768</ele>
        <time>2022-08-16T07:35:50Z</time>
      </trkpt>
      <trkpt lat="45.7262" lon="6.52611">
        <ele>768</ele>
        <time>2022-08-16T07:35:51Z</time>
      </trkpt>
      <trkpt lat="45.72618" lon="6.52616">
        <ele>768</ele>
        <time>2022-08-16T07:35:52Z</time>
      </trkpt>
      <trkpt lat="45.72617" lon="6.5262">
        <ele>768</ele>
        <time>2022-08-16T07:35:53Z</time>
      </trkpt>
      <trkpt lat="45.72616" lon="6.52625">
        <ele>768</ele>
        <time>2022-08-16T07:35:54Z</time>
      </trkpt>
      <trkpt lat="45.72615" lon="6.52629">
        <ele>768</ele>
        <time>2022-08-16T07:35:55Z</time>
      </trkpt>
      <trkpt lat="45.72614" lon="6.52634">
        <ele>768</ele>
        <time>2022-08-16T07:35:56Z</time>
      </trkpt>
      <trkpt lat="45.72612" lon="6.52638">
        <ele>768</ele>
        <time>2022-08-16T07:35:57Z</time>
      </trkpt>
      <trkpt lat="45.72611" lon="6.52643">
        <ele>768</ele>
        <time>2022-08-16T07:35:58Z</time>
      </trkpt>
      <trkpt lat="45.7261" lon="6.52647">
        <ele>768</ele>
        <time>2022-08-16T07:35:59Z</time>
      </trkpt>
      <trkpt lat="45.72609" lon="6.52652">
        <ele>768</ele>
        <time>2022-08-16T07:36:00Z</time>
      </trkpt>
      <trkpt lat="45.72608" lon="6.52655">
        <ele>768</ele>
        <time>2022-08-16T07:36:01Z</time>
      </trkpt>
      <trkpt lat="45.72608" lon="6.52659">
        <ele>768</ele>
        <time>2022-08-16T07:36:02Z</time>
      </trkpt>
      <trkpt lat="45.72608" lon="6.52662">
        <ele>768</ele>
        <time>2022-08-16T07:36:03Z</time>
      </trkpt>
      <trkpt lat="45.72607" lon="6.52665">
        <ele>768</ele>
        <time>2022-08-16T07:36:04Z</time>
      </trkpt>
      <trkpt lat="45.72607" lon="6.52667">
        <ele>768</ele>
        <time>2022-08-16T07:36:05Z</time>
      </trkpt>
      <trkpt lat="45.72607" lon="6.52669">
        <ele>768</ele>
        <time>2022-08-16T07:36:06Z</time>
      </trkpt>
      <trkpt lat="45.72607" lon="6.5267">
        <ele>768</ele>
        <time>2022-08-16T07:36:07Z</time>
      </trkpt>
      <trkpt lat="45.72607" lon="6.52671">
        <ele>768</ele>
        <time>2022-08-16T07:36:08Z</time>
      </trkpt>
      <trkpt lat="45.72607" lon="6.52672">
        <ele>768</ele>
        <time>2022-08-16T07:36:09Z</time>
      </trkpt>
      <trkpt lat="45.72607" lon="6.52672">
        <ele>768</ele>
        <time>2022-08-16T07:36:13Z</time>
      </trkpt>
      <trkpt lat="45.72607" lon="6.52672">
        <ele>768</ele>
        <time>2022-08-16T07:36:17Z</time>
      </trkpt>
      <trkpt lat="45.72607" lon="6.52672">
        <ele>768</ele>
        <time>2022-08-16T07:36:21Z</time>
      </trkpt>
      <trkpt lat="45.72607" lon="6.52672">
        <ele>768</ele>
        <time>2022-08-16T07:36:24Z</time>
      </trkpt>
      <trkpt lat="45.72607" lon="6.52673">
        <ele>768</ele>
        <time>2022-08-16T07:36:25Z</time>
      </trkpt>
      <trkpt lat="45.72607" lon="6.52675">
        <ele>768</ele>
        <time>2022-08-16T07:36:26Z</time>
      </trkpt>
      <trkpt lat="45.72607" lon="6.52678">
        <ele>769</ele>
        <time>2022-08-16T07:36:27Z</time>
      </trkpt>
      <trkpt lat="45.72608" lon="6.5268">
        <ele>769</ele>
        <time>2022-08-16T07:36:28Z</time>
      </trkpt>
      <trkpt lat="45.72609" lon="6.52682">
        <ele>769</ele>
        <time>2022-08-16T07:36:29Z</time>
      </trkpt>
      <trkpt lat="45.72611" lon="6.52684">
        <ele>770</ele>
        <time>2022-08-16T07:36:30Z</time>
      </trkpt>
      <trkpt lat="45.72612" lon="6.52686">
        <ele>770</ele>
        <time>2022-08-16T07:36:31Z</time>
      </trkpt>
      <trkpt lat="45.72613" lon="6.52689">
        <ele>770</ele>
        <time>2022-08-16T07:36:32Z</time>
      </trkpt>
      <trkpt lat="45.72613" lon="6.52691">
        <ele>771</ele>
        <time>2022-08-16T07:36:33Z</time>
      </trkpt>
      <trkpt lat="45.72613" lon="6.52694">
        <ele>771</ele>
        <time>2022-08-16T07:36:34Z</time>
      </trkpt>
      <trkpt lat="45.72613" lon="6.52697">
        <ele>771</ele>
        <time>2022-08-16T07:36:35Z</time>
      </trkpt>
      <trkpt lat="45.72614" lon="6.527">
        <ele>771</ele>
        <time>2022-08-16T07:36:36Z</time>
      </trkpt>
      <trkpt lat="45.72614" lon="6.52703">
        <ele>771</ele>
        <time>2022-08-16T07:36:37Z</time>
      </trkpt>
      <trkpt lat="45.72615" lon="6.52706">
        <ele>771</ele>
        <time>2022-08-16T07:36:38Z</time>
      </trkpt>
      <trkpt lat="45.72615" lon="6.52709">
        <ele>771</ele>
        <time>2022-08-16T07:36:39Z</time>
      </trkpt>
      <trkpt lat="45.72615" lon="6.52714">
        <ele>771</ele>
        <time>2022-08-16T07:36:40Z</time>
      </trkpt>
      <trkpt lat="45.72615" lon="6.52718">
        <ele>771</ele>
        <time>2022-08-16T07:36:41Z</time>
      </trkpt>
      <trkpt lat="45.72615" lon="6.52721">
        <ele>771</ele>
        <time>2022-08-16T07:36:42Z</time>
      </trkpt>
      <trkpt lat="45.72615" lon="6.52724">
        <ele>771</ele>
        <time>2022-08-16T07:36:43Z</time>
      </trkpt>
      <trkpt lat="45.72616" lon="6.52728">
        <ele>771</ele>
        <time>2022-08-16T07:36:44Z</time>
      </trkpt>
      <trkpt lat="45.72617" lon="6.52732">
        <ele>771</ele>
        <time>2022-08-16T07:36:45Z</time>
      </trkpt>
      <trkpt lat="45.72618" lon="6.52737">
        <ele>771</ele>
        <time>2022-08-16T07:36:46Z</time>
      </trkpt>
      <trkpt lat="45.72619" lon="6.52743">
        <ele>771</ele>
        <time>2022-08-16T07:36:47Z</time>
      </trkpt>
      <trkpt lat="45.7262" lon="6.52747">
        <ele>771</ele>
        <time>2022-08-16T07:36:48Z</time>
      </trkpt>
      <trkpt lat="45.7262" lon="6.52752">
        <ele>771</ele>
        <time>2022-08-16T07:36:49Z</time>
      </trkpt>
      <trkpt lat="45.7262" lon="6.52758">
        <ele>771</ele>
        <time>2022-08-16T07:36:50Z</time>
      </trkpt>
      <trkpt lat="45.72621" lon="6.52762">
        <ele>771</ele>
        <time>2022-08-16T07:36:51Z</time>
      </trkpt>
      <trkpt lat="45.72622" lon="6.52766">
        <ele>771</ele>
        <time>2022-08-16T07:36:52Z</time>
      </trkpt>
      <trkpt lat="45.72623" lon="6.5277">
        <ele>772</ele>
        <time>2022-08-16T07:36:53Z</time>
      </trkpt>
      <trkpt lat="45.72623" lon="6.52774">
        <ele>771</ele>
        <time>2022-08-16T07:36:54Z</time>
      </trkpt>
      <trkpt lat="45.72624" lon="6.52778">
        <ele>771</ele>
        <time>2022-08-16T07:36:55Z</time>
      </trkpt>
      <trkpt lat="45.72624" lon="6.52782">
        <ele>771</ele>
        <time>2022-08-16T07:36:56Z</time>
      </trkpt>
      <trkpt lat="45.72623" lon="6.52786">
        <ele>771</ele>
        <time>2022-08-16T07:36:57Z</time>
      </trkpt>
      <trkpt lat="45.72622" lon="6.52789">
        <ele>772</ele>
        <time>2022-08-16T07:36:58Z</time>
      </trkpt>
      <trkpt lat="45.72621" lon="6.52792">
        <ele>771</ele>
        <time>2022-08-16T07:36:59Z</time>
      </trkpt>
      <trkpt lat="45.72621" lon="6.52795">
        <ele>772</ele>
        <time>2022-08-16T07:37:00Z</time>
      </trkpt>
      <trkpt lat="45.72621" lon="6.52798">
        <ele>773</ele>
        <time>2022-08-16T07:37:01Z</time>
      </trkpt>
      <trkpt lat="45.72621" lon="6.52801">
        <ele>773</ele>
        <time>2022-08-16T07:37:02Z</time>
      </trkpt>
      <trkpt lat="45.72621" lon="6.52804">
        <ele>773</ele>
        <time>2022-08-16T07:37:03Z</time>
      </trkpt>
      <trkpt lat="45.72622" lon="6.52808">
        <ele>774</ele>
        <time>2022-08-16T07:37:04Z</time>
      </trkpt>
      <trkpt lat="45.72622" lon="6.52811">
        <ele>774</ele>
        <time>2022-08-16T07:37:05Z</time>
      </trkpt>
      <trkpt lat="45.72622" lon="6.52814">
        <ele>775</ele>
        <time>2022-08-16T07:37:06Z</time>
      </trkpt>
      <trkpt lat="45.72622" lon="6.52817">
        <ele>775</ele>
        <time>2022-08-16T07:37:07Z</time>
      </trkpt>
      <trkpt lat="45.72622" lon="6.52822">
        <ele>775</ele>
        <time>2022-08-16T07:37:08Z</time>
      </trkpt>
      <trkpt lat="45.72622" lon="6.52825">
        <ele>774</ele>
        <time>2022-08-16T07:37:09Z</time>
      </trkpt>
      <trkpt lat="45.72623" lon="6.52828">
        <ele>774</ele>
        <time>2022-08-16T07:37:10Z</time>
      </trkpt>
      <trkpt lat="45.72623" lon="6.52832">
        <ele>774</ele>
        <time>2022-08-16T07:37:11Z</time>
      </trkpt>
      <trkpt lat="45.72623" lon="6.52835">
        <ele>774</ele>
        <time>2022-08-16T07:37:12Z</time>
      </trkpt>
      <trkpt lat="45.72623" lon="6.52836">
        <ele>774</ele>
        <time>2022-08-16T07:37:13Z</time>
      </trkpt>
      <trkpt lat="45.72623" lon="6.52837">
        <ele>775</ele>
        <time>2022-08-16T07:37:14Z</time>
      </trkpt>
      <trkpt lat="45.72622" lon="6.52838">
        <ele>775</ele>
        <time>2022-08-16T07:37:15Z</time>
      </trkpt>
      <trkpt lat="45.72621" lon="6.52839">
        <ele>777</ele>
        <time>2022-08-16T07:37:16Z</time>
      </trkpt>
      <trkpt lat="45.72619" lon="6.52839">
        <ele>778</ele>
        <time>2022-08-16T07:37:17Z</time>
      </trkpt>
      <trkpt lat="45.72616" lon="6.5284">
        <ele>779</ele>
        <time>2022-08-16T07:37:18Z</time>
      </trkpt>
      <trkpt lat="45.72614" lon="6.52841">
        <ele>779</ele>
        <time>2022-08-16T07:37:19Z</time>
      </trkpt>
      <trkpt lat="45.72613" lon="6.52842">
        <ele>780</ele>
        <time>2022-08-16T07:37:20Z</time>
      </trkpt>
      <trkpt lat="45.72612" lon="6.52843">
        <ele>781</ele>
        <time>2022-08-16T07:37:21Z</time>
      </trkpt>
      <trkpt lat="45.72612" lon="6.52844">
        <ele>782</ele>
        <time>2022-08-16T07:37:22Z</time>
      </trkpt>
      <trkpt lat="45.72611" lon="6.52847">
        <ele>782</ele>
        <time>2022-08-16T07:37:23Z</time>
      </trkpt>
      <trkpt lat="45.72611" lon="6.52853">
        <ele>782</ele>
        <time>2022-08-16T07:37:24Z</time>
      </trkpt>
      <trkpt lat="45.72612" lon="6.5286">
        <ele>781</ele>
        <time>2022-08-16T07:37:25Z</time>
      </trkpt>
      <trkpt lat="45.72612" lon="6.52865">
        <ele>781</ele>
        <time>2022-08-16T07:37:26Z</time>
      </trkpt>
      <trkpt lat="45.72613" lon="6.52871">
        <ele>782</ele>
        <time>2022-08-16T07:37:27Z</time>
      </trkpt>
      <trkpt lat="45.72614" lon="6.52876">
        <ele>782</ele>
        <time>2022-08-16T07:37:28Z</time>
      </trkpt>
      <trkpt lat="45.72615" lon="6.5288">
        <ele>782</ele>
        <time>2022-08-16T07:37:29Z</time>
      </trkpt>
      <trkpt lat="45.72616" lon="6.52885">
        <ele>782</ele>
        <time>2022-08-16T07:37:30Z</time>
      </trkpt>
      <trkpt lat="45.72617" lon="6.5289">
        <ele>782</ele>
        <time>2022-08-16T07:37:31Z</time>
      </trkpt>
      <trkpt lat="45.72618" lon="6.52894">
        <ele>781</ele>
        <time>2022-08-16T07:37:32Z</time>
      </trkpt>
      <trkpt lat="45.72618" lon="6.52899">
        <ele>781</ele>
        <time>2022-08-16T07:37:33Z</time>
      </trkpt>
      <trkpt lat="45.72619" lon="6.52904">
        <ele>781</ele>
        <time>2022-08-16T07:37:34Z</time>
      </trkpt>
      <trkpt lat="45.7262" lon="6.52909">
        <ele>780</ele>
        <time>2022-08-16T07:37:35Z</time>
      </trkpt>
      <trkpt lat="45.7262" lon="6.52913">
        <ele>780</ele>
        <time>2022-08-16T07:37:36Z</time>
      </trkpt>
      <trkpt lat="45.7262" lon="6.52918">
        <ele>779</ele>
        <time>2022-08-16T07:37:37Z</time>
      </trkpt>
      <trkpt lat="45.7262" lon="6.52922">
        <ele>779</ele>
        <time>2022-08-16T07:37:38Z</time>
      </trkpt>
      <trkpt lat="45.72621" lon="6.52926">
        <ele>778</ele>
        <time>2022-08-16T07:37:39Z</time>
      </trkpt>
      <trkpt lat="45.72621" lon="6.52929">
        <ele>777</ele>
        <time>2022-08-16T07:37:40Z</time>
      </trkpt>
      <trkpt lat="45.72622" lon="6.52932">
        <ele>776</ele>
        <time>2022-08-16T07:37:41Z</time>
      </trkpt>
      <trkpt lat="45.72623" lon="6.52934">
        <ele>776</ele>
        <time>2022-08-16T07:37:42Z</time>
      </trkpt>
      <trkpt lat="45.72623" lon="6.52936">
        <ele>775</ele>
        <time>2022-08-16T07:37:43Z</time>
      </trkpt>
      <trkpt lat="45.72623" lon="6.52939">
        <ele>775</ele>
        <time>2022-08-16T07:37:44Z</time>
      </trkpt>
      <trkpt lat="45.72624" lon="6.52941">
        <ele>775</ele>
        <time>2022-08-16T07:37:45Z</time>
      </trkpt>
      <trkpt lat="45.72624" lon="6.52943">
        <ele>775</ele>
        <time>2022-08-16T07:37:46Z</time>
      </trkpt>
      <trkpt lat="45.72624" lon="6.52945">
        <ele>775</ele>
        <time>2022-08-16T07:37:47Z</time>
      </trkpt>
      <trkpt lat="45.72625" lon="6.52946">
        <ele>774</ele>
        <time>2022-08-16T07:37:48Z</time>
      </trkpt>
      <trkpt lat="45.72625" lon="6.52946">
        <ele>774</ele>
        <time>2022-08-16T07:37:49Z</time>
      </trkpt>
      <trkpt lat="45.72625" lon="6.52946">
        <ele>774</ele>
        <time>2022-08-16T07:37:50Z</time>
      </trkpt>
      <trkpt lat="45.72625" lon="6.52946">
        <ele>774</ele>
        <time>2022-08-16T07:37:51Z</time>
      </trkpt>
      <trkpt lat="45.72626" lon="6.52946">
        <ele>774</ele>
        <time>2022-08-16T07:37:52Z</time>
      </trkpt>
      <trkpt lat="45.72626" lon="6.52946">
        <ele>774</ele>
        <time>2022-08-16T07:37:53Z</time>
      </trkpt>
      <trkpt lat="45.72626" lon="6.52948">
        <ele>774</ele>
        <time>2022-08-16T07:37:54Z</time>
      </trkpt>
      <trkpt lat="45.72626" lon="6.52948">
        <ele>774</ele>
        <time>2022-08-16T07:37:55Z</time>
      </trkpt>
      <trkpt lat="45.72626" lon="6.52949">
        <ele>774</ele>
        <time>2022-08-16T07:37:56Z</time>
      </trkpt>
      <trkpt lat="45.72626" lon="6.52949">
        <ele>774</ele>
        <time>2022-08-16T07:38:00Z</time>
      </trkpt>
      <trkpt lat="45.72626" lon="6.5295">
        <ele>774</ele>
        <time>2022-08-16T07:38:03Z</time>
      </trkpt>
      <trkpt lat="45.72627" lon="6.52951">
        <ele>773</ele>
        <time>2022-08-16T07:38:04Z</time>
      </trkpt>
      <trkpt lat="45.72627" lon="6.52953">
        <ele>773</ele>
        <time>2022-08-16T07:38:05Z</time>
      </trkpt>
      <trkpt lat="45.72628" lon="6.52953">
        <ele>773</ele>
        <time>2022-08-16T07:38:06Z</time>
      </trkpt>
      <trkpt lat="45.72628" lon="6.52953">
        <ele>772</ele>
        <time>2022-08-16T07:38:07Z</time>
      </trkpt>
      <trkpt lat="45.72628" lon="6.52953">
        <ele>772</ele>
        <time>2022-08-16T07:38:08Z</time>
      </trkpt>
      <trkpt lat="45.72628" lon="6.52954">
        <ele>773</ele>
        <time>2022-08-16T07:38:09Z</time>
      </trkpt>
      <trkpt lat="45.72629" lon="6.52955">
        <ele>773</ele>
        <time>2022-08-16T07:38:10Z</time>
      </trkpt>
      <trkpt lat="45.72629" lon="6.52955">
        <ele>773</ele>
        <time>2022-08-16T07:38:11Z</time>
      </trkpt>
      <trkpt lat="45.72628" lon="6.52956">
        <ele>772</ele>
        <time>2022-08-16T07:38:12Z</time>
      </trkpt>
      <trkpt lat="45.72628" lon="6.52956">
        <ele>772</ele>
        <time>2022-08-16T07:38:13Z</time>
      </trkpt>
      <trkpt lat="45.72628" lon="6.52956">
        <ele>772</ele>
        <time>2022-08-16T07:38:14Z</time>
      </trkpt>
      <trkpt lat="45.72628" lon="6.52957">
        <ele>772</ele>
        <time>2022-08-16T07:38:15Z</time>
      </trkpt>
      <trkpt lat="45.72629" lon="6.52959">
        <ele>773</ele>
        <time>2022-08-16T07:38:16Z</time>
      </trkpt>
      <trkpt lat="45.72629" lon="6.52962">
        <ele>773</ele>
        <time>2022-08-16T07:38:17Z</time>
      </trkpt>
      <trkpt lat="45.72631" lon="6.52964">
        <ele>773</ele>
        <time>2022-08-16T07:38:18Z</time>
      </trkpt>
      <trkpt lat="45.72632" lon="6.52967">
        <ele>772</ele>
        <time>2022-08-16T07:38:19Z</time>
      </trkpt>
      <trkpt lat="45.72632" lon="6.5297">
        <ele>772</ele>
        <time>2022-08-16T07:38:20Z</time>
      </trkpt>
      <trkpt lat="45.72632" lon="6.52973">
        <ele>772</ele>
        <time>2022-08-16T07:38:21Z</time>
      </trkpt>
      <trkpt lat="45.72633" lon="6.52977">
        <ele>772</ele>
        <time>2022-08-16T07:38:22Z</time>
      </trkpt>
      <trkpt lat="45.72633" lon="6.52982">
        <ele>772</ele>
        <time>2022-08-16T07:38:23Z</time>
      </trkpt>
      <trkpt lat="45.72634" lon="6.52986">
        <ele>771</ele>
        <time>2022-08-16T07:38:24Z</time>
      </trkpt>
      <trkpt lat="45.72635" lon="6.52992">
        <ele>771</ele>
        <time>2022-08-16T07:38:25Z</time>
      </trkpt>
      <trkpt lat="45.72636" lon="6.52997">
        <ele>772</ele>
        <time>2022-08-16T07:38:26Z</time>
      </trkpt>
      <trkpt lat="45.72637" lon="6.53003">
        <ele>772</ele>
        <time>2022-08-16T07:38:27Z</time>
      </trkpt>
      <trkpt lat="45.72638" lon="6.53007">
        <ele>772</ele>
        <time>2022-08-16T07:38:28Z</time>
      </trkpt>
      <trkpt lat="45.7264" lon="6.53013">
        <ele>772</ele>
        <time>2022-08-16T07:38:29Z</time>
      </trkpt>
      <trkpt lat="45.72641" lon="6.53018">
        <ele>772</ele>
        <time>2022-08-16T07:38:30Z</time>
      </trkpt>
      <trkpt lat="45.72642" lon="6.53024">
        <ele>772</ele>
        <time>2022-08-16T07:38:31Z</time>
      </trkpt>
      <trkpt lat="45.72644" lon="6.53029">
        <ele>772</ele>
        <time>2022-08-16T07:38:32Z</time>
      </trkpt>
      <trkpt lat="45.72645" lon="6.53035">
        <ele>772</ele>
        <time>2022-08-16T07:38:33Z</time>
      </trkpt>
      <trkpt lat="45.72646" lon="6.5304">
        <ele>772</ele>
        <time>2022-08-16T07:38:34Z</time>
      </trkpt>
      <trkpt lat="45.72648" lon="6.53046">
        <ele>772</ele>
        <time>2022-08-16T07:38:35Z</time>
      </trkpt>
      <trkpt lat="45.7265" lon="6.53052">
        <ele>772</ele>
        <time>2022-08-16T07:38:36Z</time>
      </trkpt>
      <trkpt lat="45.72651" lon="6.53058">
        <ele>772</ele>
        <time>2022-08-16T07:38:37Z</time>
      </trkpt>
      <trkpt lat="45.72653" lon="6.53064">
        <ele>772</ele>
        <time>2022-08-16T07:38:38Z</time>
      </trkpt>
      <trkpt lat="45.72654" lon="6.5307">
        <ele>772</ele>
        <time>2022-08-16T07:38:39Z</time>
      </trkpt>
      <trkpt lat="45.72656" lon="6.53075">
        <ele>773</ele>
        <time>2022-08-16T07:38:40Z</time>
      </trkpt>
      <trkpt lat="45.72657" lon="6.53081">
        <ele>772</ele>
        <time>2022-08-16T07:38:41Z</time>
      </trkpt>
      <trkpt lat="45.72659" lon="6.53085">
        <ele>772</ele>
        <time>2022-08-16T07:38:42Z</time>
      </trkpt>
      <trkpt lat="45.72661" lon="6.5309">
        <ele>772</ele>
        <time>2022-08-16T07:38:43Z</time>
      </trkpt>
      <trkpt lat="45.72662" lon="6.53094">
        <ele>771</ele>
        <time>2022-08-16T07:38:44Z</time>
      </trkpt>
      <trkpt lat="45.72663" lon="6.53099">
        <ele>771</ele>
        <time>2022-08-16T07:38:45Z</time>
      </trkpt>
      <trkpt lat="45.72665" lon="6.53105">
        <ele>771</ele>
        <time>2022-08-16T07:38:46Z</time>
      </trkpt>
      <trkpt lat="45.72667" lon="6.5311">
        <ele>770</ele>
        <time>2022-08-16T07:38:47Z</time>
      </trkpt>
      <trkpt lat="45.72669" lon="6.53116">
        <ele>770</ele>
        <time>2022-08-16T07:38:48Z</time>
      </trkpt>
      <trkpt lat="45.72671" lon="6.53123">
        <ele>770</ele>
        <time>2022-08-16T07:38:49Z</time>
      </trkpt>
      <trkpt lat="45.72672" lon="6.53129">
        <ele>770</ele>
        <time>2022-08-16T07:38:50Z</time>
      </trkpt>
      <trkpt lat="45.72674" lon="6.53135">
        <ele>771</ele>
        <time>2022-08-16T07:38:51Z</time>
      </trkpt>
      <trkpt lat="45.72676" lon="6.53141">
        <ele>771</ele>
        <time>2022-08-16T07:38:52Z</time>
      </trkpt>
      <trkpt lat="45.72679" lon="6.53148">
        <ele>771</ele>
        <time>2022-08-16T07:38:53Z</time>
      </trkpt>
      <trkpt lat="45.72681" lon="6.53154">
        <ele>771</ele>
        <time>2022-08-16T07:38:54Z</time>
      </trkpt>
      <trkpt lat="45.72683" lon="6.53159">
        <ele>770</ele>
        <time>2022-08-16T07:38:55Z</time>
      </trkpt>
      <trkpt lat="45.72686" lon="6.53164">
        <ele>770</ele>
        <time>2022-08-16T07:38:56Z</time>
      </trkpt>
      <trkpt lat="45.72688" lon="6.53167">
        <ele>770</ele>
        <time>2022-08-16T07:38:57Z</time>
      </trkpt>
      <trkpt lat="45.72691" lon="6.5317">
        <ele>770</ele>
        <time>2022-08-16T07:38:58Z</time>
      </trkpt>
      <trkpt lat="45.72694" lon="6.53173">
        <ele>770</ele>
        <time>2022-08-16T07:38:59Z</time>
      </trkpt>
      <trkpt lat="45.72697" lon="6.53177">
        <ele>771</ele>
        <time>2022-08-16T07:39:00Z</time>
      </trkpt>
      <trkpt lat="45.727" lon="6.53178">
        <ele>771</ele>
        <time>2022-08-16T07:39:01Z</time>
      </trkpt>
      <trkpt lat="45.72703" lon="6.5318">
        <ele>772</ele>
        <time>2022-08-16T07:39:02Z</time>
      </trkpt>
      <trkpt lat="45.72705" lon="6.5318">
        <ele>772</ele>
        <time>2022-08-16T07:39:03Z</time>
      </trkpt>
      <trkpt lat="45.72707" lon="6.53181">
        <ele>773</ele>
        <time>2022-08-16T07:39:04Z</time>
      </trkpt>
      <trkpt lat="45.72709" lon="6.53181">
        <ele>773</ele>
        <time>2022-08-16T07:39:05Z</time>
      </trkpt>
      <trkpt lat="45.7271" lon="6.53182">
        <ele>773</ele>
        <time>2022-08-16T07:39:06Z</time>
      </trkpt>
      <trkpt lat="45.72712" lon="6.53183">
        <ele>773</ele>
        <time>2022-08-16T07:39:07Z</time>
      </trkpt>
      <trkpt lat="45.72714" lon="6.53184">
        <ele>773</ele>
        <time>2022-08-16T07:39:08Z</time>
      </trkpt>
      <trkpt lat="45.72715" lon="6.53186">
        <ele>774</ele>
        <time>2022-08-16T07:39:09Z</time>
      </trkpt>
      <trkpt lat="45.72716" lon="6.53189">
        <ele>774</ele>
        <time>2022-08-16T07:39:10Z</time>
      </trkpt>
      <trkpt lat="45.72718" lon="6.53192">
        <ele>774</ele>
        <time>2022-08-16T07:39:11Z</time>
      </trkpt>
      <trkpt lat="45.72719" lon="6.53195">
        <ele>774</ele>
        <time>2022-08-16T07:39:12Z</time>
      </trkpt>
      <trkpt lat="45.7272" lon="6.53198">
        <ele>774</ele>
        <time>2022-08-16T07:39:13Z</time>
      </trkpt>
      <trkpt lat="45.72721" lon="6.53201">
        <ele>774</ele>
        <time>2022-08-16T07:39:14Z</time>
      </trkpt>
      <trkpt lat="45.72722" lon="6.53203">
        <ele>775</ele>
        <time>2022-08-16T07:39:15Z</time>
      </trkpt>
      <trkpt lat="45.72723" lon="6.53206">
        <ele>774</ele>
        <time>2022-08-16T07:39:16Z</time>
      </trkpt>
      <trkpt lat="45.72724" lon="6.53208">
        <ele>775</ele>
        <time>2022-08-16T07:39:17Z</time>
      </trkpt>
      <trkpt lat="45.72726" lon="6.53211">
        <ele>775</ele>
        <time>2022-08-16T07:39:18Z</time>
      </trkpt>
      <trkpt lat="45.72727" lon="6.53214">
        <ele>775</ele>
        <time>2022-08-16T07:39:19Z</time>
      </trkpt>
      <trkpt lat="45.72729" lon="6.53218">
        <ele>774</ele>
        <time>2022-08-16T07:39:20Z</time>
      </trkpt>
      <trkpt lat="45.72731" lon="6.53222">
        <ele>774</ele>
        <time>2022-08-16T07:39:21Z</time>
      </trkpt>
      <trkpt lat="45.72733" lon="6.53226">
        <ele>774</ele>
        <time>2022-08-16T07:39:22Z</time>
      </trkpt>
      <trkpt lat="45.72735" lon="6.53231">
        <ele>775</ele>
        <time>2022-08-16T07:39:23Z</time>
      </trkpt>
      <trkpt lat="45.72737" lon="6.53234">
        <ele>775</ele>
        <time>2022-08-16T07:39:24Z</time>
      </trkpt>
      <trkpt lat="45.7274" lon="6.53237">
        <ele>775</ele>
        <time>2022-08-16T07:39:25Z</time>
      </trkpt>
      <trkpt lat="45.72742" lon="6.5324">
        <ele>776</ele>
        <time>2022-08-16T07:39:26Z</time>
      </trkpt>
      <trkpt lat="45.72743" lon="6.53243">
        <ele>776</ele>
        <time>2022-08-16T07:39:27Z</time>
      </trkpt>
      <trkpt lat="45.72744" lon="6.53245">
        <ele>776</ele>
        <time>2022-08-16T07:39:28Z</time>
      </trkpt>
      <trkpt lat="45.72745" lon="6.53246">
        <ele>776</ele>
        <time>2022-08-16T07:39:29Z</time>
      </trkpt>
      <trkpt lat="45.72746" lon="6.53248">
        <ele>777</ele>
        <time>2022-08-16T07:39:30Z</time>
      </trkpt>
      <trkpt lat="45.72747" lon="6.5325">
        <ele>776</ele>
        <time>2022-08-16T07:39:31Z</time>
      </trkpt>
      <trkpt lat="45.72747" lon="6.53252">
        <ele>777</ele>
        <time>2022-08-16T07:39:32Z</time>
      </trkpt>
      <trkpt lat="45.72747" lon="6.53254">
        <ele>777</ele>
        <time>2022-08-16T07:39:33Z</time>
      </trkpt>
      <trkpt lat="45.72747" lon="6.53257">
        <ele>777</ele>
        <time>2022-08-16T07:39:34Z</time>
      </trkpt>
      <trkpt lat="45.72746" lon="6.5326">
        <ele>777</ele>
        <time>2022-08-16T07:39:35Z</time>
      </trkpt>
      <trkpt lat="45.72744" lon="6.53263">
        <ele>777</ele>
        <time>2022-08-16T07:39:36Z</time>
      </trkpt>
      <trkpt lat="45.72742" lon="6.53265">
        <ele>777</ele>
        <time>2022-08-16T07:39:37Z</time>
      </trkpt>
      <trkpt lat="45.72739" lon="6.53268">
        <ele>777</ele>
        <time>2022-08-16T07:39:38Z</time>
      </trkpt>
      <trkpt lat="45.72737" lon="6.53272">
        <ele>777</ele>
        <time>2022-08-16T07:39:39Z</time>
      </trkpt>
      <trkpt lat="45.72735" lon="6.53276">
        <ele>776</ele>
        <time>2022-08-16T07:39:40Z</time>
      </trkpt>
      <trkpt lat="45.72734" lon="6.53281">
        <ele>776</ele>
        <time>2022-08-16T07:39:41Z</time>
      </trkpt>
      <trkpt lat="45.72732" lon="6.53285">
        <ele>776</ele>
        <time>2022-08-16T07:39:42Z</time>
      </trkpt>
      <trkpt lat="45.72731" lon="6.53291">
        <ele>776</ele>
        <time>2022-08-16T07:39:43Z</time>
      </trkpt>
      <trkpt lat="45.72729" lon="6.53296">
        <ele>775</ele>
        <time>2022-08-16T07:39:44Z</time>
      </trkpt>
      <trkpt lat="45.72728" lon="6.53302">
        <ele>775</ele>
        <time>2022-08-16T07:39:45Z</time>
      </trkpt>
      <trkpt lat="45.72728" lon="6.53307">
        <ele>775</ele>
        <time>2022-08-16T07:39:46Z</time>
      </trkpt>
      <trkpt lat="45.72728" lon="6.53311">
        <ele>775</ele>
        <time>2022-08-16T07:39:47Z</time>
      </trkpt>
      <trkpt lat="45.72729" lon="6.53315">
        <ele>775</ele>
        <time>2022-08-16T07:39:48Z</time>
      </trkpt>
      <trkpt lat="45.72731" lon="6.53318">
        <ele>774</ele>
        <time>2022-08-16T07:39:49Z</time>
      </trkpt>
      <trkpt lat="45.72732" lon="6.53321">
        <ele>774</ele>
        <time>2022-08-16T07:39:50Z</time>
      </trkpt>
      <trkpt lat="45.72732" lon="6.53323">
        <ele>774</ele>
        <time>2022-08-16T07:39:51Z</time>
      </trkpt>
      <trkpt lat="45.72732" lon="6.53325">
        <ele>774</ele>
        <time>2022-08-16T07:39:52Z</time>
      </trkpt>
      <trkpt lat="45.72732" lon="6.53326">
        <ele>774</ele>
        <time>2022-08-16T07:39:53Z</time>
      </trkpt>
      <trkpt lat="45.72731" lon="6.53327">
        <ele>774</ele>
        <time>2022-08-16T07:39:54Z</time>
      </trkpt>
      <trkpt lat="45.72729" lon="6.53328">
        <ele>774</ele>
        <time>2022-08-16T07:39:55Z</time>
      </trkpt>
      <trkpt lat="45.72728" lon="6.53328">
        <ele>774</ele>
        <time>2022-08-16T07:39:56Z</time>
      </trkpt>
      <trkpt lat="45.72727" lon="6.53328">
        <ele>774</ele>
        <time>2022-08-16T07:39:57Z</time>
      </trkpt>
      <trkpt lat="45.72726" lon="6.53327">
        <ele>774</ele>
        <time>2022-08-16T07:40:00Z</time>
      </trkpt>
      <trkpt lat="45.72726" lon="6.53327">
        <ele>775</ele>
        <time>2022-08-16T07:40:01Z</time>
      </trkpt>
      <trkpt lat="45.72726" lon="6.53326">
        <ele>775</ele>
        <time>2022-08-16T07:40:02Z</time>
      </trkpt>
      <trkpt lat="45.72726" lon="6.53324">
        <ele>775</ele>
        <time>2022-08-16T07:40:03Z</time>
      </trkpt>
      <trkpt lat="45.72726" lon="6.53323">
        <ele>774</ele>
        <time>2022-08-16T07:40:04Z</time>
      </trkpt>
      <trkpt lat="45.72725" lon="6.53322">
        <ele>774</ele>
        <time>2022-08-16T07:40:05Z</time>
      </trkpt>
      <trkpt lat="45.72725" lon="6.53322">
        <ele>774</ele>
        <time>2022-08-16T07:40:06Z</time>
      </trkpt>
      <trkpt lat="45.72725" lon="6.53322">
        <ele>774</ele>
        <time>2022-08-16T07:40:07Z</time>
      </trkpt>
      <trkpt lat="45.72725" lon="6.53323">
        <ele>774</ele>
        <time>2022-08-16T07:40:08Z</time>
      </trkpt>
      <trkpt lat="45.72725" lon="6.53323">
        <ele>775</ele>
        <time>2022-08-16T07:40:09Z</time>
      </trkpt>
      <trkpt lat="45.72724" lon="6.53323">
        <ele>775</ele>
        <time>2022-08-16T07:40:10Z</time>
      </trkpt>
      <trkpt lat="45.72724" lon="6.53324">
        <ele>774</ele>
        <time>2022-08-16T07:40:11Z</time>
      </trkpt>
      <trkpt lat="45.72724" lon="6.53324">
        <ele>774</ele>
        <time>2022-08-16T07:40:12Z</time>
      </trkpt>
      <trkpt lat="45.72724" lon="6.53325">
        <ele>774</ele>
        <time>2022-08-16T07:40:13Z</time>
      </trkpt>
      <trkpt lat="45.72724" lon="6.53325">
        <ele>774</ele>
        <time>2022-08-16T07:40:14Z</time>
      </trkpt>
      <trkpt lat="45.72724" lon="6.53325">
        <ele>774</ele>
        <time>2022-08-16T07:40:18Z</time>
      </trkpt>
      <trkpt lat="45.72724" lon="6.53326">
        <ele>774</ele>
        <time>2022-08-16T07:40:19Z</time>
      </trkpt>
      <trkpt lat="45.72725" lon="6.53326">
        <ele>774</ele>
        <time>2022-08-16T07:40:20Z</time>
      </trkpt>
      <trkpt lat="45.72727" lon="6.53327">
        <ele>774</ele>
        <time>2022-08-16T07:40:21Z</time>
      </trkpt>
      <trkpt lat="45.72729" lon="6.53327">
        <ele>774</ele>
        <time>2022-08-16T07:40:22Z</time>
      </trkpt>
      <trkpt lat="45.72731" lon="6.53328">
        <ele>774</ele>
        <time>2022-08-16T07:40:23Z</time>
      </trkpt>
      <trkpt lat="45.72733" lon="6.53328">
        <ele>774</ele>
        <time>2022-08-16T07:40:24Z</time>
      </trkpt>
      <trkpt lat="45.72734" lon="6.53329">
        <ele>774</ele>
        <time>2022-08-16T07:40:25Z</time>
      </trkpt>
      <trkpt lat="45.72733" lon="6.53329">
        <ele>774</ele>
        <time>2022-08-16T07:40:26Z</time>
      </trkpt>
      <trkpt lat="45.72733" lon="6.5333">
        <ele>774</ele>
        <time>2022-08-16T07:40:27Z</time>
      </trkpt>
      <trkpt lat="45.72735" lon="6.5333">
        <ele>774</ele>
        <time>2022-08-16T07:40:28Z</time>
      </trkpt>
      <trkpt lat="45.72737" lon="6.5333">
        <ele>774</ele>
        <time>2022-08-16T07:40:29Z</time>
      </trkpt>
      <trkpt lat="45.7274" lon="6.53329">
        <ele>774</ele>
        <time>2022-08-16T07:40:30Z</time>
      </trkpt>
      <trkpt lat="45.72742" lon="6.53327">
        <ele>774</ele>
        <time>2022-08-16T07:40:31Z</time>
      </trkpt>
      <trkpt lat="45.72742" lon="6.53326">
        <ele>774</ele>
        <time>2022-08-16T07:40:32Z</time>
      </trkpt>
      <trkpt lat="45.72743" lon="6.53324">
        <ele>774</ele>
        <time>2022-08-16T07:40:33Z</time>
      </trkpt>
      <trkpt lat="45.72743" lon="6.53319">
        <ele>774</ele>
        <time>2022-08-16T07:40:34Z</time>
      </trkpt>
      <trkpt lat="45.72743" lon="6.53314">
        <ele>774</ele>
        <time>2022-08-16T07:40:35Z</time>
      </trkpt>
      <trkpt lat="45.72742" lon="6.53307">
        <ele>774</ele>
        <time>2022-08-16T07:40:36Z</time>
      </trkpt>
      <trkpt lat="45.72742" lon="6.533">
        <ele>774</ele>
        <time>2022-08-16T07:40:37Z</time>
      </trkpt>
      <trkpt lat="45.72742" lon="6.53294">
        <ele>775</ele>
        <time>2022-08-16T07:40:38Z</time>
      </trkpt>
      <trkpt lat="45.72722" lon="6.53304">
        <ele>847</ele>
        <time>2022-08-16T07:47:22Z</time>
      </trkpt>
      <trkpt lat="45.72724" lon="6.53305">
        <ele>845</ele>
        <time>2022-08-16T07:47:23Z</time>
      </trkpt>
      <trkpt lat="45.72722" lon="6.53307">
        <ele>842</ele>
        <time>2022-08-16T07:47:24Z</time>
      </trkpt>
      <trkpt lat="45.72722" lon="6.53306">
        <ele>843</ele>
        <time>2022-08-16T07:47:25Z</time>
      </trkpt>
      <trkpt lat="45.72721" lon="6.53307">
        <ele>843</ele>
        <time>2022-08-16T07:47:26Z</time>
      </trkpt>
      <trkpt lat="45.72721" lon="6.53307">
        <ele>843</ele>
        <time>2022-08-16T07:47:30Z</time>
      </trkpt>
      <trkpt lat="45.72721" lon="6.53307">
        <ele>843</ele>
        <time>2022-08-16T07:47:34Z</time>
      </trkpt>
      <trkpt lat="45.72721" lon="6.53307">
        <ele>843</ele>
        <time>2022-08-16T07:47:38Z</time>
      </trkpt>
      <trkpt lat="45.7272" lon="6.53306">
        <ele>842</ele>
        <time>2022-08-16T07:47:42Z</time>
      </trkpt>
      <trkpt lat="45.72719" lon="6.53305">
        <ele>839</ele>
        <time>2022-08-16T07:47:43Z</time>
      </trkpt>
      <trkpt lat="45.72718" lon="6.53304">
        <ele>837</ele>
        <time>2022-08-16T07:47:44Z</time>
      </trkpt>
      <trkpt lat="45.72718" lon="6.53304">
        <ele>837</ele>
        <time>2022-08-16T07:47:45Z</time>
      </trkpt>
      <trkpt lat="45.72718" lon="6.53304">
        <ele>837</ele>
        <time>2022-08-16T07:47:49Z</time>
      </trkpt>
      <trkpt lat="45.72718" lon="6.53305">
        <ele>835</ele>
        <time>2022-08-16T07:47:51Z</time>
      </trkpt>
      <trkpt lat="45.72718" lon="6.53307">
        <ele>833</ele>
        <time>2022-08-16T07:47:52Z</time>
      </trkpt>
      <trkpt lat="45.72718" lon="6.53308">
        <ele>832</ele>
        <time>2022-08-16T07:47:53Z</time>
      </trkpt>
      <trkpt lat="45.72718" lon="6.53309">
        <ele>831</ele>
        <time>2022-08-16T07:47:54Z</time>
      </trkpt>
      <trkpt lat="45.72718" lon="6.53309">
        <ele>831</ele>
        <time>2022-08-16T07:47:55Z</time>
      </trkpt>
      <trkpt lat="45.72718" lon="6.5331">
        <ele>831</ele>
        <time>2022-08-16T07:47:56Z</time>
      </trkpt>
      <trkpt lat="45.72718" lon="6.53311">
        <ele>831</ele>
        <time>2022-08-16T07:47:57Z</time>
      </trkpt>
      <trkpt lat="45.72718" lon="6.53312">
        <ele>830</ele>
        <time>2022-08-16T07:47:58Z</time>
      </trkpt>
      <trkpt lat="45.72718" lon="6.53314">
        <ele>829</ele>
        <time>2022-08-16T07:47:59Z</time>
      </trkpt>
      <trkpt lat="45.72718" lon="6.53315">
        <ele>829</ele>
        <time>2022-08-16T07:48:00Z</time>
      </trkpt>
      <trkpt lat="45.72717" lon="6.53314">
        <ele>828</ele>
        <time>2022-08-16T07:48:01Z</time>
      </trkpt>
      <trkpt lat="45.72716" lon="6.53313">
        <ele>828</ele>
        <time>2022-08-16T07:48:02Z</time>
      </trkpt>
      <trkpt lat="45.72716" lon="6.53311">
        <ele>828</ele>
        <time>2022-08-16T07:48:03Z</time>
      </trkpt>
      <trkpt lat="45.72716" lon="6.5331">
        <ele>828</ele>
        <time>2022-08-16T07:48:04Z</time>
      </trkpt>
      <trkpt lat="45.72715" lon="6.53308">
        <ele>828</ele>
        <time>2022-08-16T07:48:06Z</time>
      </trkpt>
      <trkpt lat="45.72715" lon="6.53307">
        <ele>828</ele>
        <time>2022-08-16T07:48:07Z</time>
      </trkpt>
      <trkpt lat="45.72715" lon="6.53306">
        <ele>828</ele>
        <time>2022-08-16T07:48:08Z</time>
      </trkpt>
      <trkpt lat="45.72714" lon="6.53306">
        <ele>828</ele>
        <time>2022-08-16T07:48:09Z</time>
      </trkpt>
      <trkpt lat="45.72714" lon="6.53306">
        <ele>828</ele>
        <time>2022-08-16T07:48:10Z</time>
      </trkpt>
      <trkpt lat="45.72714" lon="6.53305">
        <ele>828</ele>
        <time>2022-08-16T07:48:11Z</time>
      </trkpt>
      <trkpt lat="45.72714" lon="6.53305">
        <ele>828</ele>
        <time>2022-08-16T07:48:12Z</time>
      </trkpt>
      <trkpt lat="45.72714" lon="6.53305">
        <ele>828</ele>
        <time>2022-08-16T07:48:16Z</time>
      </trkpt>
      <trkpt lat="45.72714" lon="6.53305">
        <ele>828</ele>
        <time>2022-08-16T07:48:20Z</time>
      </trkpt>
      <trkpt lat="45.72714" lon="6.53305">
        <ele>828</ele>
        <time>2022-08-16T07:48:24Z</time>
      </trkpt>
      <trkpt lat="45.72713" lon="6.53304">
        <ele>828</ele>
        <time>2022-08-16T07:48:26Z</time>
      </trkpt>
      <trkpt lat="45.72712" lon="6.53304">
        <ele>828</ele>
        <time>2022-08-16T07:48:27Z</time>
      </trkpt>
      <trkpt lat="45.72712" lon="6.53303">
        <ele>827</ele>
        <time>2022-08-16T07:48:28Z</time>
      </trkpt>
      <trkpt lat="45.72712" lon="6.53303">
        <ele>827</ele>
        <time>2022-08-16T07:48:29Z</time>
      </trkpt>
      <trkpt lat="45.72712" lon="6.53304">
        <ele>827</ele>
        <time>2022-08-16T07:48:30Z</time>
      </trkpt>
      <trkpt lat="45.72712" lon="6.53304">
        <ele>827</ele>
        <time>2022-08-16T07:48:31Z</time>
      </trkpt>
      <trkpt lat="45.72712" lon="6.53305">
        <ele>827</ele>
        <time>2022-08-16T07:48:32Z</time>
      </trkpt>
      <trkpt lat="45.72713" lon="6.53305">
        <ele>827</ele>
        <time>2022-08-16T07:48:33Z</time>
      </trkpt>
      <trkpt lat="45.72714" lon="6.53305">
        <ele>827</ele>
        <time>2022-08-16T07:48:34Z</time>
      </trkpt>
      <trkpt lat="45.72716" lon="6.53304">
        <ele>827</ele>
        <time>2022-08-16T07:48:35Z</time>
      </trkpt>
      <trkpt lat="45.72719" lon="6.53305">
        <ele>827</ele>
        <time>2022-08-16T07:48:36Z</time>
      </trkpt>
      <trkpt lat="45.72722" lon="6.53308">
        <ele>823</ele>
        <time>2022-08-16T07:48:37Z</time>
      </trkpt>
      <trkpt lat="45.72725" lon="6.53309">
        <ele>817</ele>
        <time>2022-08-16T07:48:38Z</time>
      </trkpt>
      <trkpt lat="45.72728" lon="6.53309">
        <ele>812</ele>
        <time>2022-08-16T07:48:39Z</time>
      </trkpt>
      <trkpt lat="45.72731" lon="6.53307">
        <ele>807</ele>
        <time>2022-08-16T07:48:40Z</time>
      </trkpt>
      <trkpt lat="45.72732" lon="6.53303">
        <ele>803</ele>
        <time>2022-08-16T07:48:41Z</time>
      </trkpt>
      <trkpt lat="45.72733" lon="6.53299">
        <ele>800</ele>
        <time>2022-08-16T07:48:42Z</time>
      </trkpt>
      <trkpt lat="45.72733" lon="6.53295">
        <ele>799</ele>
        <time>2022-08-16T07:48:43Z</time>
      </trkpt>
      <trkpt lat="45.72734" lon="6.53291">
        <ele>797</ele>
        <time>2022-08-16T07:48:44Z</time>
      </trkpt>
      <trkpt lat="45.72735" lon="6.53287">
        <ele>796</ele>
        <time>2022-08-16T07:48:45Z</time>
      </trkpt>
      <trkpt lat="45.72735" lon="6.53283">
        <ele>796</ele>
        <time>2022-08-16T07:48:46Z</time>
      </trkpt>
      <trkpt lat="45.72736" lon="6.5328">
        <ele>795</ele>
        <time>2022-08-16T07:48:47Z</time>
      </trkpt>
      <trkpt lat="45.72738" lon="6.53277">
        <ele>795</ele>
        <time>2022-08-16T07:48:48Z</time>
      </trkpt>
      <trkpt lat="45.72739" lon="6.53274">
        <ele>795</ele>
        <time>2022-08-16T07:48:49Z</time>
      </trkpt>
      <trkpt lat="45.7274" lon="6.5327">
        <ele>794</ele>
        <time>2022-08-16T07:48:50Z</time>
      </trkpt>
      <trkpt lat="45.72741" lon="6.53267">
        <ele>794</ele>
        <time>2022-08-16T07:48:51Z</time>
      </trkpt>
      <trkpt lat="45.72743" lon="6.53265">
        <ele>794</ele>
        <time>2022-08-16T07:48:52Z</time>
      </trkpt>
      <trkpt lat="45.72745" lon="6.53263">
        <ele>795</ele>
        <time>2022-08-16T07:48:53Z</time>
      </trkpt>
      <trkpt lat="45.72746" lon="6.5326">
        <ele>794</ele>
        <time>2022-08-16T07:48:54Z</time>
      </trkpt>
      <trkpt lat="45.72748" lon="6.53258">
        <ele>794</ele>
        <time>2022-08-16T07:48:55Z</time>
      </trkpt>
      <trkpt lat="45.72748" lon="6.53255">
        <ele>794</ele>
        <time>2022-08-16T07:48:56Z</time>
      </trkpt>
      <trkpt lat="45.72748" lon="6.53252">
        <ele>793</ele>
        <time>2022-08-16T07:48:57Z</time>
      </trkpt>
      <trkpt lat="45.72748" lon="6.53249">
        <ele>793</ele>
        <time>2022-08-16T07:48:58Z</time>
      </trkpt>
      <trkpt lat="45.72747" lon="6.53246">
        <ele>792</ele>
        <time>2022-08-16T07:48:59Z</time>
      </trkpt>
      <trkpt lat="45.72745" lon="6.53244">
        <ele>792</ele>
        <time>2022-08-16T07:49:00Z</time>
      </trkpt>
      <trkpt lat="45.72742" lon="6.53242">
        <ele>791</ele>
        <time>2022-08-16T07:49:01Z</time>
      </trkpt>
      <trkpt lat="45.72738" lon="6.53241">
        <ele>789</ele>
        <time>2022-08-16T07:49:02Z</time>
      </trkpt>
      <trkpt lat="45.72735" lon="6.53242">
        <ele>788</ele>
        <time>2022-08-16T07:49:03Z</time>
      </trkpt>
      <trkpt lat="45.72731" lon="6.53245">
        <ele>785</ele>
        <time>2022-08-16T07:49:04Z</time>
      </trkpt>
      <trkpt lat="45.72727" lon="6.53248">
        <ele>783</ele>
        <time>2022-08-16T07:49:05Z</time>
      </trkpt>
      <trkpt lat="45.72723" lon="6.53252">
        <ele>782</ele>
        <time>2022-08-16T07:49:06Z</time>
      </trkpt>
      <trkpt lat="45.7272" lon="6.53259">
        <ele>781</ele>
        <time>2022-08-16T07:49:07Z</time>
      </trkpt>
      <trkpt lat="45.72719" lon="6.53266">
        <ele>780</ele>
        <time>2022-08-16T07:49:08Z</time>
      </trkpt>
      <trkpt lat="45.72718" lon="6.53274">
        <ele>779</ele>
        <time>2022-08-16T07:49:09Z</time>
      </trkpt>
      <trkpt lat="45.72717" lon="6.53282">
        <ele>778</ele>
        <time>2022-08-16T07:49:10Z</time>
      </trkpt>
      <trkpt lat="45.72718" lon="6.53289">
        <ele>778</ele>
        <time>2022-08-16T07:49:11Z</time>
      </trkpt>
      <trkpt lat="45.72718" lon="6.53295">
        <ele>777</ele>
        <time>2022-08-16T07:49:12Z</time>
      </trkpt>
      <trkpt lat="45.72718" lon="6.53299">
        <ele>777</ele>
        <time>2022-08-16T07:49:13Z</time>
      </trkpt>
      <trkpt lat="45.72717" lon="6.53303">
        <ele>776</ele>
        <time>2022-08-16T07:49:14Z</time>
      </trkpt>
      <trkpt lat="45.72716" lon="6.53307">
        <ele>776</ele>
        <time>2022-08-16T07:49:15Z</time>
      </trkpt>
      <trkpt lat="45.72714" lon="6.53311">
        <ele>776</ele>
        <time>2022-08-16T07:49:16Z</time>
      </trkpt>
      <trkpt lat="45.72712" lon="6.53315">
        <ele>775</ele>
        <time>2022-08-16T07:49:17Z</time>
      </trkpt>
      <trkpt lat="45.7271" lon="6.53319">
        <ele>775</ele>
        <time>2022-08-16T07:49:18Z</time>
      </trkpt>
      <trkpt lat="45.72708" lon="6.53322">
        <ele>774</ele>
        <time>2022-08-16T07:49:19Z</time>
      </trkpt>
      <trkpt lat="45.72705" lon="6.53324">
        <ele>773</ele>
        <time>2022-08-16T07:49:20Z</time>
      </trkpt>
      <trkpt lat="45.72703" lon="6.53325">
        <ele>773</ele>
        <time>2022-08-16T07:49:21Z</time>
      </trkpt>
      <trkpt lat="45.72702" lon="6.53326">
        <ele>772</ele>
        <time>2022-08-16T07:49:22Z</time>
      </trkpt>
      <trkpt lat="45.727" lon="6.53327">
        <ele>771</ele>
        <time>2022-08-16T07:49:23Z</time>
      </trkpt>
      <trkpt lat="45.72698" lon="6.53327">
        <ele>772</ele>
        <time>2022-08-16T07:49:24Z</time>
      </trkpt>
      <trkpt lat="45.72696" lon="6.53329">
        <ele>771</ele>
        <time>2022-08-16T07:49:25Z</time>
      </trkpt>
      <trkpt lat="45.72693" lon="6.53332">
        <ele>770</ele>
        <time>2022-08-16T07:49:26Z</time>
      </trkpt>
      <trkpt lat="45.72691" lon="6.53335">
        <ele>770</ele>
        <time>2022-08-16T07:49:27Z</time>
      </trkpt>
      <trkpt lat="45.7269" lon="6.53339">
        <ele>769</ele>
        <time>2022-08-16T07:49:28Z</time>
      </trkpt>
      <trkpt lat="45.72689" lon="6.53342">
        <ele>769</ele>
        <time>2022-08-16T07:49:29Z</time>
      </trkpt>
      <trkpt lat="45.72689" lon="6.53346">
        <ele>769</ele>
        <time>2022-08-16T07:49:30Z</time>
      </trkpt>
      <trkpt lat="45.72688" lon="6.53349">
        <ele>769</ele>
        <time>2022-08-16T07:49:31Z</time>
      </trkpt>
      <trkpt lat="45.72688" lon="6.53353">
        <ele>769</ele>
        <time>2022-08-16T07:49:32Z</time>
      </trkpt>
      <trkpt lat="45.72688" lon="6.53357">
        <ele>769</ele>
        <time>2022-08-16T07:49:33Z</time>
      </trkpt>
      <trkpt lat="45.72687" lon="6.5336">
        <ele>768</ele>
        <time>2022-08-16T07:49:34Z</time>
      </trkpt>
      <trkpt lat="45.72687" lon="6.53363">
        <ele>768</ele>
        <time>2022-08-16T07:49:35Z</time>
      </trkpt>
      <trkpt lat="45.72687" lon="6.53366">
        <ele>768</ele>
        <time>2022-08-16T07:49:36Z</time>
      </trkpt>
      <trkpt lat="45.72686" lon="6.5337">
        <ele>769</ele>
        <time>2022-08-16T07:49:37Z</time>
      </trkpt>
      <trkpt lat="45.72685" lon="6.53374">
        <ele>769</ele>
        <time>2022-08-16T07:49:38Z</time>
      </trkpt>
      <trkpt lat="45.72685" lon="6.53377">
        <ele>769</ele>
        <time>2022-08-16T07:49:39Z</time>
      </trkpt>
      <trkpt lat="45.72684" lon="6.5338">
        <ele>769</ele>
        <time>2022-08-16T07:49:40Z</time>
      </trkpt>
      <trkpt lat="45.72683" lon="6.53384">
        <ele>769</ele>
        <time>2022-08-16T07:49:41Z</time>
      </trkpt>
      <trkpt lat="45.72682" lon="6.53388">
        <ele>769</ele>
        <time>2022-08-16T07:49:42Z</time>
      </trkpt>
      <trkpt lat="45.72682" lon="6.53392">
        <ele>769</ele>
        <time>2022-08-16T07:49:43Z</time>
      </trkpt>
      <trkpt lat="45.72681" lon="6.53395">
        <ele>769</ele>
        <time>2022-08-16T07:49:44Z</time>
      </trkpt>
      <trkpt lat="45.72681" lon="6.53399">
        <ele>769</ele>
        <time>2022-08-16T07:49:45Z</time>
      </trkpt>
      <trkpt lat="45.72681" lon="6.53402">
        <ele>769</ele>
        <time>2022-08-16T07:49:46Z</time>
      </trkpt>
      <trkpt lat="45.7268" lon="6.53406">
        <ele>769</ele>
        <time>2022-08-16T07:49:47Z</time>
      </trkpt>
      <trkpt lat="45.7268" lon="6.5341">
        <ele>770</ele>
        <time>2022-08-16T07:49:48Z</time>
      </trkpt>
      <trkpt lat="45.72679" lon="6.53414">
        <ele>770</ele>
        <time>2022-08-16T07:49:49Z</time>
      </trkpt>
      <trkpt lat="45.72678" lon="6.53418">
        <ele>770</ele>
        <time>2022-08-16T07:49:50Z</time>
      </trkpt>
      <trkpt lat="45.72678" lon="6.53422">
        <ele>770</ele>
        <time>2022-08-16T07:49:51Z</time>
      </trkpt>
      <trkpt lat="45.72678" lon="6.53425">
        <ele>770</ele>
        <time>2022-08-16T07:49:52Z</time>
      </trkpt>
      <trkpt lat="45.72677" lon="6.53429">
        <ele>770</ele>
        <time>2022-08-16T07:49:53Z</time>
      </trkpt>
      <trkpt lat="45.72676" lon="6.53432">
        <ele>770</ele>
        <time>2022-08-16T07:49:54Z</time>
      </trkpt>
      <trkpt lat="45.72676" lon="6.53436">
        <ele>770</ele>
        <time>2022-08-16T07:49:55Z</time>
      </trkpt>
      <trkpt lat="45.72676" lon="6.5344">
        <ele>770</ele>
        <time>2022-08-16T07:49:56Z</time>
      </trkpt>
      <trkpt lat="45.72675" lon="6.53443">
        <ele>770</ele>
        <time>2022-08-16T07:49:57Z</time>
      </trkpt>
      <trkpt lat="45.72675" lon="6.53448">
        <ele>770</ele>
        <time>2022-08-16T07:49:58Z</time>
      </trkpt>
      <trkpt lat="45.72674" lon="6.53452">
        <ele>770</ele>
        <time>2022-08-16T07:49:59Z</time>
      </trkpt>
      <trkpt lat="45.72673" lon="6.53456">
        <ele>770</ele>
        <time>2022-08-16T07:50:00Z</time>
      </trkpt>
      <trkpt lat="45.72672" lon="6.5346">
        <ele>770</ele>
        <time>2022-08-16T07:50:01Z</time>
      </trkpt>
      <trkpt lat="45.72671" lon="6.53465">
        <ele>770</ele>
        <time>2022-08-16T07:50:02Z</time>
      </trkpt>
      <trkpt lat="45.72671" lon="6.5347">
        <ele>770</ele>
        <time>2022-08-16T07:50:03Z</time>
      </trkpt>
      <trkpt lat="45.7267" lon="6.53474">
        <ele>770</ele>
        <time>2022-08-16T07:50:04Z</time>
      </trkpt>
      <trkpt lat="45.72669" lon="6.53479">
        <ele>770</ele>
        <time>2022-08-16T07:50:05Z</time>
      </trkpt>
      <trkpt lat="45.72668" lon="6.53483">
        <ele>770</ele>
        <time>2022-08-16T07:50:06Z</time>
      </trkpt>
      <trkpt lat="45.72667" lon="6.53488">
        <ele>770</ele>
        <time>2022-08-16T07:50:07Z</time>
      </trkpt>
      <trkpt lat="45.72666" lon="6.53492">
        <ele>770</ele>
        <time>2022-08-16T07:50:08Z</time>
      </trkpt>
      <trkpt lat="45.72665" lon="6.53497">
        <ele>770</ele>
        <time>2022-08-16T07:50:09Z</time>
      </trkpt>
      <trkpt lat="45.72664" lon="6.53502">
        <ele>770</ele>
        <time>2022-08-16T07:50:10Z</time>
      </trkpt>
      <trkpt lat="45.72662" lon="6.53507">
        <ele>770</ele>
        <time>2022-08-16T07:50:11Z</time>
      </trkpt>
      <trkpt lat="45.7266" lon="6.53512">
        <ele>770</ele>
        <time>2022-08-16T07:50:12Z</time>
      </trkpt>
      <trkpt lat="45.72658" lon="6.53517">
        <ele>771</ele>
        <time>2022-08-16T07:50:13Z</time>
      </trkpt>
      <trkpt lat="45.72656" lon="6.53523">
        <ele>771</ele>
        <time>2022-08-16T07:50:14Z</time>
      </trkpt>
      <trkpt lat="45.72654" lon="6.53529">
        <ele>771</ele>
        <time>2022-08-16T07:50:15Z</time>
      </trkpt>
      <trkpt lat="45.7265" lon="6.53534">
        <ele>770</ele>
        <time>2022-08-16T07:50:16Z</time>
      </trkpt>
      <trkpt lat="45.72647" lon="6.53539">
        <ele>770</ele>
        <time>2022-08-16T07:50:17Z</time>
      </trkpt>
      <trkpt lat="45.72643" lon="6.53544">
        <ele>770</ele>
        <time>2022-08-16T07:50:18Z</time>
      </trkpt>
      <trkpt lat="45.7264" lon="6.53549">
        <ele>770</ele>
        <time>2022-08-16T07:50:19Z</time>
      </trkpt>
      <trkpt lat="45.72636" lon="6.53554">
        <ele>770</ele>
        <time>2022-08-16T07:50:20Z</time>
      </trkpt>
      <trkpt lat="45.72632" lon="6.53559">
        <ele>770</ele>
        <time>2022-08-16T07:50:21Z</time>
      </trkpt>
      <trkpt lat="45.72627" lon="6.53563">
        <ele>770</ele>
        <time>2022-08-16T07:50:22Z</time>
      </trkpt>
      <trkpt lat="45.72623" lon="6.53567">
        <ele>770</ele>
        <time>2022-08-16T07:50:23Z</time>
      </trkpt>
      <trkpt lat="45.72619" lon="6.53572">
        <ele>770</ele>
        <time>2022-08-16T07:50:24Z</time>
      </trkpt>
      <trkpt lat="45.72615" lon="6.53576">
        <ele>770</ele>
        <time>2022-08-16T07:50:25Z</time>
      </trkpt>
      <trkpt lat="45.72611" lon="6.53581">
        <ele>770</ele>
        <time>2022-08-16T07:50:26Z</time>
      </trkpt>
      <trkpt lat="45.72607" lon="6.53585">
        <ele>770</ele>
        <time>2022-08-16T07:50:27Z</time>
      </trkpt>
      <trkpt lat="45.72604" lon="6.5359">
        <ele>771</ele>
        <time>2022-08-16T07:50:28Z</time>
      </trkpt>
      <trkpt lat="45.726" lon="6.53595">
        <ele>770</ele>
        <time>2022-08-16T07:50:29Z</time>
      </trkpt>
      <trkpt lat="45.72597" lon="6.53601">
        <ele>770</ele>
        <time>2022-08-16T07:50:30Z</time>
      </trkpt>
      <trkpt lat="45.72594" lon="6.53608">
        <ele>769</ele>
        <time>2022-08-16T07:50:31Z</time>
      </trkpt>
      <trkpt lat="45.7259" lon="6.53615">
        <ele>769</ele>
        <time>2022-08-16T07:50:32Z</time>
      </trkpt>
      <trkpt lat="45.72587" lon="6.53622">
        <ele>769</ele>
        <time>2022-08-16T07:50:33Z</time>
      </trkpt>
      <trkpt lat="45.72584" lon="6.5363">
        <ele>769</ele>
        <time>2022-08-16T07:50:34Z</time>
      </trkpt>
      <trkpt lat="45.7258" lon="6.53638">
        <ele>769</ele>
        <time>2022-08-16T07:50:35Z</time>
      </trkpt>
      <trkpt lat="45.72577" lon="6.53647">
        <ele>768</ele>
        <time>2022-08-16T07:50:36Z</time>
      </trkpt>
      <trkpt lat="45.72574" lon="6.53656">
        <ele>768</ele>
        <time>2022-08-16T07:50:37Z</time>
      </trkpt>
      <trkpt lat="45.72571" lon="6.53665">
        <ele>767</ele>
        <time>2022-08-16T07:50:38Z</time>
      </trkpt>
      <trkpt lat="45.72568" lon="6.53674">
        <ele>767</ele>
        <time>2022-08-16T07:50:39Z</time>
      </trkpt>
      <trkpt lat="45.72565" lon="6.53683">
        <ele>767</ele>
        <time>2022-08-16T07:50:40Z</time>
      </trkpt>
      <trkpt lat="45.72562" lon="6.53692">
        <ele>766</ele>
        <time>2022-08-16T07:50:41Z</time>
      </trkpt>
      <trkpt lat="45.72558" lon="6.53702">
        <ele>766</ele>
        <time>2022-08-16T07:50:42Z</time>
      </trkpt>
      <trkpt lat="45.72555" lon="6.53712">
        <ele>766</ele>
        <time>2022-08-16T07:50:43Z</time>
      </trkpt>
      <trkpt lat="45.72551" lon="6.53721">
        <ele>766</ele>
        <time>2022-08-16T07:50:44Z</time>
      </trkpt>
      <trkpt lat="45.72548" lon="6.53731">
        <ele>765</ele>
        <time>2022-08-16T07:50:45Z</time>
      </trkpt>
      <trkpt lat="45.72544" lon="6.5374">
        <ele>765</ele>
        <time>2022-08-16T07:50:46Z</time>
      </trkpt>
      <trkpt lat="45.72541" lon="6.53751">
        <ele>765</ele>
        <time>2022-08-16T07:50:47Z</time>
      </trkpt>
      <trkpt lat="45.72537" lon="6.53762">
        <ele>765</ele>
        <time>2022-08-16T07:50:48Z</time>
      </trkpt>
      <trkpt lat="45.72533" lon="6.53773">
        <ele>765</ele>
        <time>2022-08-16T07:50:49Z</time>
      </trkpt>
      <trkpt lat="45.7253" lon="6.53785">
        <ele>765</ele>
        <time>2022-08-16T07:50:50Z</time>
      </trkpt>
      <trkpt lat="45.72527" lon="6.53796">
        <ele>765</ele>
        <time>2022-08-16T07:50:51Z</time>
      </trkpt>
      <trkpt lat="45.72524" lon="6.53808">
        <ele>764</ele>
        <time>2022-08-16T07:50:52Z</time>
      </trkpt>
      <trkpt lat="45.72521" lon="6.5382">
        <ele>764</ele>
        <time>2022-08-16T07:50:53Z</time>
      </trkpt>
      <trkpt lat="45.72519" lon="6.53831">
        <ele>765</ele>
        <time>2022-08-16T07:50:54Z</time>
      </trkpt>
      <trkpt lat="45.72518" lon="6.53844">
        <ele>765</ele>
        <time>2022-08-16T07:50:55Z</time>
      </trkpt>
      <trkpt lat="45.72517" lon="6.53857">
        <ele>765</ele>
        <time>2022-08-16T07:50:56Z</time>
      </trkpt>
      <trkpt lat="45.72516" lon="6.53869">
        <ele>765</ele>
        <time>2022-08-16T07:50:57Z</time>
      </trkpt>
      <trkpt lat="45.72516" lon="6.53882">
        <ele>765</ele>
        <time>2022-08-16T07:50:58Z</time>
      </trkpt>
      <trkpt lat="45.72517" lon="6.53896">
        <ele>765</ele>
        <time>2022-08-16T07:50:59Z</time>
      </trkpt>
      <trkpt lat="45.72517" lon="6.5391">
        <ele>764</ele>
        <time>2022-08-16T07:51:00Z</time>
      </trkpt>
      <trkpt lat="45.72518" lon="6.53923">
        <ele>764</ele>
        <time>2022-08-16T07:51:01Z</time>
      </trkpt>
      <trkpt lat="45.72519" lon="6.53936">
        <ele>763</ele>
        <time>2022-08-16T07:51:02Z</time>
      </trkpt>
      <trkpt lat="45.72519" lon="6.53949">
        <ele>762</ele>
        <time>2022-08-16T07:51:03Z</time>
      </trkpt>
      <trkpt lat="45.7252" lon="6.53962">
        <ele>762</ele>
        <time>2022-08-16T07:51:04Z</time>
      </trkpt>
      <trkpt lat="45.7252" lon="6.53976">
        <ele>762</ele>
        <time>2022-08-16T07:51:05Z</time>
      </trkpt>
      <trkpt lat="45.7252" lon="6.53989">
        <ele>762</ele>
        <time>2022-08-16T07:51:06Z</time>
      </trkpt>
      <trkpt lat="45.7252" lon="6.54002">
        <ele>762</ele>
        <time>2022-08-16T07:51:07Z</time>
      </trkpt>
      <trkpt lat="45.72521" lon="6.54015">
        <ele>762</ele>
        <time>2022-08-16T07:51:08Z</time>
      </trkpt>
      <trkpt lat="45.72522" lon="6.54028">
        <ele>761</ele>
        <time>2022-08-16T07:51:09Z</time>
      </trkpt>
      <trkpt lat="45.72523" lon="6.5404">
        <ele>761</ele>
        <time>2022-08-16T07:51:10Z</time>
      </trkpt>
      <trkpt lat="45.72524" lon="6.54052">
        <ele>760</ele>
        <time>2022-08-16T07:51:11Z</time>
      </trkpt>
      <trkpt lat="45.72527" lon="6.54064">
        <ele>759</ele>
        <time>2022-08-16T07:51:12Z</time>
      </trkpt>
      <trkpt lat="45.7253" lon="6.54076">
        <ele>759</ele>
        <time>2022-08-16T07:51:13Z</time>
      </trkpt>
      <trkpt lat="45.72532" lon="6.54087">
        <ele>759</ele>
        <time>2022-08-16T07:51:14Z</time>
      </trkpt>
      <trkpt lat="45.72535" lon="6.54099">
        <ele>758</ele>
        <time>2022-08-16T07:51:15Z</time>
      </trkpt>
      <trkpt lat="45.72539" lon="6.5411">
        <ele>758</ele>
        <time>2022-08-16T07:51:16Z</time>
      </trkpt>
      <trkpt lat="45.72543" lon="6.54121">
        <ele>758</ele>
        <time>2022-08-16T07:51:17Z</time>
      </trkpt>
      <trkpt lat="45.72548" lon="6.54131">
        <ele>758</ele>
        <time>2022-08-16T07:51:18Z</time>
      </trkpt>
      <trkpt lat="45.72553" lon="6.5414">
        <ele>758</ele>
        <time>2022-08-16T07:51:19Z</time>
      </trkpt>
      <trkpt lat="45.72559" lon="6.54148">
        <ele>757</ele>
        <time>2022-08-16T07:51:20Z</time>
      </trkpt>
      <trkpt lat="45.72565" lon="6.54157">
        <ele>757</ele>
        <time>2022-08-16T07:51:21Z</time>
      </trkpt>
      <trkpt lat="45.7257" lon="6.54166">
        <ele>757</ele>
        <time>2022-08-16T07:51:22Z</time>
      </trkpt>
      <trkpt lat="45.72576" lon="6.54174">
        <ele>758</ele>
        <time>2022-08-16T07:51:23Z</time>
      </trkpt>
      <trkpt lat="45.72581" lon="6.54182">
        <ele>758</ele>
        <time>2022-08-16T07:51:24Z</time>
      </trkpt>
      <trkpt lat="45.72586" lon="6.54191">
        <ele>758</ele>
        <time>2022-08-16T07:51:25Z</time>
      </trkpt>
      <trkpt lat="45.72592" lon="6.54199">
        <ele>758</ele>
        <time>2022-08-16T07:51:26Z</time>
      </trkpt>
      <trkpt lat="45.72598" lon="6.54207">
        <ele>758</ele>
        <time>2022-08-16T07:51:27Z</time>
      </trkpt>
      <trkpt lat="45.72603" lon="6.54215">
        <ele>759</ele>
        <time>2022-08-16T07:51:28Z</time>
      </trkpt>
      <trkpt lat="45.72608" lon="6.54223">
        <ele>759</ele>
        <time>2022-08-16T07:51:29Z</time>
      </trkpt>
      <trkpt lat="45.72612" lon="6.54232">
        <ele>759</ele>
        <time>2022-08-16T07:51:30Z</time>
      </trkpt>
      <trkpt lat="45.72616" lon="6.5424">
        <ele>760</ele>
        <time>2022-08-16T07:51:31Z</time>
      </trkpt>
      <trkpt lat="45.72622" lon="6.54248">
        <ele>760</ele>
        <time>2022-08-16T07:51:32Z</time>
      </trkpt>
      <trkpt lat="45.72627" lon="6.54256">
        <ele>761</ele>
        <time>2022-08-16T07:51:33Z</time>
      </trkpt>
      <trkpt lat="45.72632" lon="6.54264">
        <ele>761</ele>
        <time>2022-08-16T07:51:34Z</time>
      </trkpt>
      <trkpt lat="45.72636" lon="6.54273">
        <ele>761</ele>
        <time>2022-08-16T07:51:35Z</time>
      </trkpt>
      <trkpt lat="45.72641" lon="6.54281">
        <ele>761</ele>
        <time>2022-08-16T07:51:36Z</time>
      </trkpt>
      <trkpt lat="45.72645" lon="6.5429">
        <ele>760</ele>
        <time>2022-08-16T07:51:37Z</time>
      </trkpt>
      <trkpt lat="45.72648" lon="6.54299">
        <ele>760</ele>
        <time>2022-08-16T07:51:38Z</time>
      </trkpt>
      <trkpt lat="45.72651" lon="6.54308">
        <ele>760</ele>
        <time>2022-08-16T07:51:39Z</time>
      </trkpt>
      <trkpt lat="45.72654" lon="6.54318">
        <ele>760</ele>
        <time>2022-08-16T07:51:40Z</time>
      </trkpt>
      <trkpt lat="45.72657" lon="6.54328">
        <ele>760</ele>
        <time>2022-08-16T07:51:41Z</time>
      </trkpt>
      <trkpt lat="45.7266" lon="6.54337">
        <ele>760</ele>
        <time>2022-08-16T07:51:42Z</time>
      </trkpt>
      <trkpt lat="45.72662" lon="6.54347">
        <ele>760</ele>
        <time>2022-08-16T07:51:43Z</time>
      </trkpt>
      <trkpt lat="45.72665" lon="6.54358">
        <ele>760</ele>
        <time>2022-08-16T07:51:44Z</time>
      </trkpt>
      <trkpt lat="45.72667" lon="6.54369">
        <ele>760</ele>
        <time>2022-08-16T07:51:45Z</time>
      </trkpt>
      <trkpt lat="45.72669" lon="6.54381">
        <ele>760</ele>
        <time>2022-08-16T07:51:46Z</time>
      </trkpt>
      <trkpt lat="45.72671" lon="6.54392">
        <ele>760</ele>
        <time>2022-08-16T07:51:47Z</time>
      </trkpt>
      <trkpt lat="45.72673" lon="6.54403">
        <ele>760</ele>
        <time>2022-08-16T07:51:48Z</time>
      </trkpt>
      <trkpt lat="45.72674" lon="6.54414">
        <ele>759</ele>
        <time>2022-08-16T07:51:49Z</time>
      </trkpt>
      <trkpt lat="45.72676" lon="6.54426">
        <ele>759</ele>
        <time>2022-08-16T07:51:50Z</time>
      </trkpt>
      <trkpt lat="45.72677" lon="6.54437">
        <ele>759</ele>
        <time>2022-08-16T07:51:51Z</time>
      </trkpt>
      <trkpt lat="45.72678" lon="6.54449">
        <ele>759</ele>
        <time>2022-08-16T07:51:52Z</time>
      </trkpt>
      <trkpt lat="45.7268" lon="6.54461">
        <ele>759</ele>
        <time>2022-08-16T07:51:53Z</time>
      </trkpt>
      <trkpt lat="45.72681" lon="6.54473">
        <ele>759</ele>
        <time>2022-08-16T07:51:54Z</time>
      </trkpt>
      <trkpt lat="45.72682" lon="6.54484">
        <ele>759</ele>
        <time>2022-08-16T07:51:55Z</time>
      </trkpt>
      <trkpt lat="45.72683" lon="6.54495">
        <ele>759</ele>
        <time>2022-08-16T07:51:56Z</time>
      </trkpt>
      <trkpt lat="45.72684" lon="6.54507">
        <ele>759</ele>
        <time>2022-08-16T07:51:57Z</time>
      </trkpt>
      <trkpt lat="45.72684" lon="6.54518">
        <ele>759</ele>
        <time>2022-08-16T07:51:58Z</time>
      </trkpt>
      <trkpt lat="45.72683" lon="6.54529">
        <ele>759</ele>
        <time>2022-08-16T07:51:59Z</time>
      </trkpt>
      <trkpt lat="45.72682" lon="6.54539">
        <ele>759</ele>
        <time>2022-08-16T07:52:00Z</time>
      </trkpt>
      <trkpt lat="45.72681" lon="6.54549">
        <ele>759</ele>
        <time>2022-08-16T07:52:01Z</time>
      </trkpt>
      <trkpt lat="45.72679" lon="6.5456">
        <ele>759</ele>
        <time>2022-08-16T07:52:02Z</time>
      </trkpt>
      <trkpt lat="45.72678" lon="6.54569">
        <ele>759</ele>
        <time>2022-08-16T07:52:03Z</time>
      </trkpt>
      <trkpt lat="45.72676" lon="6.54579">
        <ele>759</ele>
        <time>2022-08-16T07:52:04Z</time>
      </trkpt>
      <trkpt lat="45.72674" lon="6.54588">
        <ele>759</ele>
        <time>2022-08-16T07:52:05Z</time>
      </trkpt>
      <trkpt lat="45.72672" lon="6.54597">
        <ele>759</ele>
        <time>2022-08-16T07:52:06Z</time>
      </trkpt>
      <trkpt lat="45.72669" lon="6.54606">
        <ele>759</ele>
        <time>2022-08-16T07:52:07Z</time>
      </trkpt>
      <trkpt lat="45.72667" lon="6.54614">
        <ele>758</ele>
        <time>2022-08-16T07:52:08Z</time>
      </trkpt>
      <trkpt lat="45.72664" lon="6.54621">
        <ele>758</ele>
        <time>2022-08-16T07:52:09Z</time>
      </trkpt>
      <trkpt lat="45.72662" lon="6.54628">
        <ele>758</ele>
        <time>2022-08-16T07:52:10Z</time>
      </trkpt>
      <trkpt lat="45.72659" lon="6.54635">
        <ele>758</ele>
        <time>2022-08-16T07:52:11Z</time>
      </trkpt>
      <trkpt lat="45.72657" lon="6.54641">
        <ele>758</ele>
        <time>2022-08-16T07:52:12Z</time>
      </trkpt>
      <trkpt lat="45.72654" lon="6.54647">
        <ele>758</ele>
        <time>2022-08-16T07:52:13Z</time>
      </trkpt>
      <trkpt lat="45.72651" lon="6.54653">
        <ele>758</ele>
        <time>2022-08-16T07:52:14Z</time>
      </trkpt>
      <trkpt lat="45.72649" lon="6.5466">
        <ele>758</ele>
        <time>2022-08-16T07:52:15Z</time>
      </trkpt>
      <trkpt lat="45.72646" lon="6.54666">
        <ele>758</ele>
        <time>2022-08-16T07:52:16Z</time>
      </trkpt>
      <trkpt lat="45.72643" lon="6.54672">
        <ele>758</ele>
        <time>2022-08-16T07:52:17Z</time>
      </trkpt>
      <trkpt lat="45.72639" lon="6.54676">
        <ele>758</ele>
        <time>2022-08-16T07:52:18Z</time>
      </trkpt>
      <trkpt lat="45.72636" lon="6.54681">
        <ele>758</ele>
        <time>2022-08-16T07:52:19Z</time>
      </trkpt>
      <trkpt lat="45.72632" lon="6.54687">
        <ele>757</ele>
        <time>2022-08-16T07:52:20Z</time>
      </trkpt>
      <trkpt lat="45.72629" lon="6.54693">
        <ele>757</ele>
        <time>2022-08-16T07:52:21Z</time>
      </trkpt>
      <trkpt lat="45.72625" lon="6.54699">
        <ele>757</ele>
        <time>2022-08-16T07:52:22Z</time>
      </trkpt>
      <trkpt lat="45.72621" lon="6.54705">
        <ele>756</ele>
        <time>2022-08-16T07:52:23Z</time>
      </trkpt>
      <trkpt lat="45.72618" lon="6.54712">
        <ele>756</ele>
        <time>2022-08-16T07:52:24Z</time>
      </trkpt>
      <trkpt lat="45.72614" lon="6.54718">
        <ele>756</ele>
        <time>2022-08-16T07:52:25Z</time>
      </trkpt>
      <trkpt lat="45.7261" lon="6.54726">
        <ele>756</ele>
        <time>2022-08-16T07:52:26Z</time>
      </trkpt>
      <trkpt lat="45.72606" lon="6.54733">
        <ele>755</ele>
        <time>2022-08-16T07:52:27Z</time>
      </trkpt>
      <trkpt lat="45.72602" lon="6.54741">
        <ele>755</ele>
        <time>2022-08-16T07:52:28Z</time>
      </trkpt>
      <trkpt lat="45.72599" lon="6.54751">
        <ele>754</ele>
        <time>2022-08-16T07:52:29Z</time>
      </trkpt>
      <trkpt lat="45.72596" lon="6.54761">
        <ele>754</ele>
        <time>2022-08-16T07:52:30Z</time>
      </trkpt>
      <trkpt lat="45.72594" lon="6.54771">
        <ele>754</ele>
        <time>2022-08-16T07:52:31Z</time>
      </trkpt>
      <trkpt lat="45.72592" lon="6.54782">
        <ele>753</ele>
        <time>2022-08-16T07:52:32Z</time>
      </trkpt>
      <trkpt lat="45.7259" lon="6.54793">
        <ele>753</ele>
        <time>2022-08-16T07:52:33Z</time>
      </trkpt>
      <trkpt lat="45.72588" lon="6.54806">
        <ele>753</ele>
        <time>2022-08-16T07:52:34Z</time>
      </trkpt>
      <trkpt lat="45.72587" lon="6.54818">
        <ele>753</ele>
        <time>2022-08-16T07:52:35Z</time>
      </trkpt>
      <trkpt lat="45.72586" lon="6.54831">
        <ele>752</ele>
        <time>2022-08-16T07:52:36Z</time>
      </trkpt>
      <trkpt lat="45.72585" lon="6.54843">
        <ele>752</ele>
        <time>2022-08-16T07:52:37Z</time>
      </trkpt>
      <trkpt lat="45.72584" lon="6.54856">
        <ele>752</ele>
        <time>2022-08-16T07:52:38Z</time>
      </trkpt>
      <trkpt lat="45.72583" lon="6.54869">
        <ele>751</ele>
        <time>2022-08-16T07:52:39Z</time>
      </trkpt>
      <trkpt lat="45.72582" lon="6.54882">
        <ele>751</ele>
        <time>2022-08-16T07:52:40Z</time>
      </trkpt>
      <trkpt lat="45.72581" lon="6.54895">
        <ele>751</ele>
        <time>2022-08-16T07:52:41Z</time>
      </trkpt>
      <trkpt lat="45.72579" lon="6.54908">
        <ele>751</ele>
        <time>2022-08-16T07:52:42Z</time>
      </trkpt>
      <trkpt lat="45.72578" lon="6.54921">
        <ele>750</ele>
        <time>2022-08-16T07:52:43Z</time>
      </trkpt>
      <trkpt lat="45.72577" lon="6.54933">
        <ele>750</ele>
        <time>2022-08-16T07:52:44Z</time>
      </trkpt>
      <trkpt lat="45.72576" lon="6.54946">
        <ele>750</ele>
        <time>2022-08-16T07:52:45Z</time>
      </trkpt>
      <trkpt lat="45.72575" lon="6.54958">
        <ele>750</ele>
        <time>2022-08-16T07:52:46Z</time>
      </trkpt>
      <trkpt lat="45.72574" lon="6.54969">
        <ele>750</ele>
        <time>2022-08-16T07:52:47Z</time>
      </trkpt>
      <trkpt lat="45.72574" lon="6.5498">
        <ele>750</ele>
        <time>2022-08-16T07:52:48Z</time>
      </trkpt>
      <trkpt lat="45.72572" lon="6.54992">
        <ele>750</ele>
        <time>2022-08-16T07:52:49Z</time>
      </trkpt>
      <trkpt lat="45.72571" lon="6.55003">
        <ele>750</ele>
        <time>2022-08-16T07:52:50Z</time>
      </trkpt>
      <trkpt lat="45.7257" lon="6.55014">
        <ele>750</ele>
        <time>2022-08-16T07:52:51Z</time>
      </trkpt>
      <trkpt lat="45.72569" lon="6.55026">
        <ele>750</ele>
        <time>2022-08-16T07:52:52Z</time>
      </trkpt>
      <trkpt lat="45.72567" lon="6.55036">
        <ele>750</ele>
        <time>2022-08-16T07:52:53Z</time>
      </trkpt>
      <trkpt lat="45.72565" lon="6.55047">
        <ele>750</ele>
        <time>2022-08-16T07:52:54Z</time>
      </trkpt>
      <trkpt lat="45.72563" lon="6.55057">
        <ele>750</ele>
        <time>2022-08-16T07:52:55Z</time>
      </trkpt>
      <trkpt lat="45.7256" lon="6.55067">
        <ele>749</ele>
        <time>2022-08-16T07:52:56Z</time>
      </trkpt>
      <trkpt lat="45.72558" lon="6.55077">
        <ele>749</ele>
        <time>2022-08-16T07:52:57Z</time>
      </trkpt>
      <trkpt lat="45.72556" lon="6.55087">
        <ele>749</ele>
        <time>2022-08-16T07:52:58Z</time>
      </trkpt>
      <trkpt lat="45.72554" lon="6.55096">
        <ele>750</ele>
        <time>2022-08-16T07:52:59Z</time>
      </trkpt>
      <trkpt lat="45.72551" lon="6.55106">
        <ele>750</ele>
        <time>2022-08-16T07:53:00Z</time>
      </trkpt>
      <trkpt lat="45.72548" lon="6.55115">
        <ele>750</ele>
        <time>2022-08-16T07:53:01Z</time>
      </trkpt>
      <trkpt lat="45.72545" lon="6.55124">
        <ele>750</ele>
        <time>2022-08-16T07:53:02Z</time>
      </trkpt>
      <trkpt lat="45.72543" lon="6.55133">
        <ele>750</ele>
        <time>2022-08-16T07:53:03Z</time>
      </trkpt>
      <trkpt lat="45.7254" lon="6.55142">
        <ele>750</ele>
        <time>2022-08-16T07:53:04Z</time>
      </trkpt>
      <trkpt lat="45.72537" lon="6.55151">
        <ele>750</ele>
        <time>2022-08-16T07:53:05Z</time>
      </trkpt>
      <trkpt lat="45.72534" lon="6.55159">
        <ele>750</ele>
        <time>2022-08-16T07:53:06Z</time>
      </trkpt>
      <trkpt lat="45.72531" lon="6.55166">
        <ele>750</ele>
        <time>2022-08-16T07:53:07Z</time>
      </trkpt>
      <trkpt lat="45.72527" lon="6.55174">
        <ele>750</ele>
        <time>2022-08-16T07:53:08Z</time>
      </trkpt>
      <trkpt lat="45.72524" lon="6.55182">
        <ele>750</ele>
        <time>2022-08-16T07:53:09Z</time>
      </trkpt>
      <trkpt lat="45.72521" lon="6.55189">
        <ele>750</ele>
        <time>2022-08-16T07:53:10Z</time>
      </trkpt>
      <trkpt lat="45.72517" lon="6.55197">
        <ele>750</ele>
        <time>2022-08-16T07:53:11Z</time>
      </trkpt>
      <trkpt lat="45.72514" lon="6.55205">
        <ele>750</ele>
        <time>2022-08-16T07:53:12Z</time>
      </trkpt>
      <trkpt lat="45.72511" lon="6.55212">
        <ele>750</ele>
        <time>2022-08-16T07:53:13Z</time>
      </trkpt>
      <trkpt lat="45.72507" lon="6.55219">
        <ele>750</ele>
        <time>2022-08-16T07:53:14Z</time>
      </trkpt>
      <trkpt lat="45.72503" lon="6.55226">
        <ele>749</ele>
        <time>2022-08-16T07:53:15Z</time>
      </trkpt>
      <trkpt lat="45.72499" lon="6.55233">
        <ele>749</ele>
        <time>2022-08-16T07:53:16Z</time>
      </trkpt>
      <trkpt lat="45.72496" lon="6.55239">
        <ele>749</ele>
        <time>2022-08-16T07:53:17Z</time>
      </trkpt>
      <trkpt lat="45.72492" lon="6.55246">
        <ele>749</ele>
        <time>2022-08-16T07:53:18Z</time>
      </trkpt>
      <trkpt lat="45.72488" lon="6.55252">
        <ele>749</ele>
        <time>2022-08-16T07:53:19Z</time>
      </trkpt>
      <trkpt lat="45.72485" lon="6.55259">
        <ele>749</ele>
        <time>2022-08-16T07:53:20Z</time>
      </trkpt>
      <trkpt lat="45.72481" lon="6.55265">
        <ele>749</ele>
        <time>2022-08-16T07:53:21Z</time>
      </trkpt>
      <trkpt lat="45.72477" lon="6.55271">
        <ele>749</ele>
        <time>2022-08-16T07:53:22Z</time>
      </trkpt>
      <trkpt lat="45.72472" lon="6.55277">
        <ele>749</ele>
        <time>2022-08-16T07:53:23Z</time>
      </trkpt>
      <trkpt lat="45.72468" lon="6.55284">
        <ele>749</ele>
        <time>2022-08-16T07:53:24Z</time>
      </trkpt>
      <trkpt lat="45.72464" lon="6.5529">
        <ele>749</ele>
        <time>2022-08-16T07:53:25Z</time>
      </trkpt>
      <trkpt lat="45.7246" lon="6.55296">
        <ele>749</ele>
        <time>2022-08-16T07:53:26Z</time>
      </trkpt>
      <trkpt lat="45.72456" lon="6.55302">
        <ele>750</ele>
        <time>2022-08-16T07:53:27Z</time>
      </trkpt>
      <trkpt lat="45.72452" lon="6.55308">
        <ele>750</ele>
        <time>2022-08-16T07:53:28Z</time>
      </trkpt>
      <trkpt lat="45.72449" lon="6.55314">
        <ele>750</ele>
        <time>2022-08-16T07:53:29Z</time>
      </trkpt>
      <trkpt lat="45.72444" lon="6.5532">
        <ele>750</ele>
        <time>2022-08-16T07:53:30Z</time>
      </trkpt>
      <trkpt lat="45.72441" lon="6.55326">
        <ele>750</ele>
        <time>2022-08-16T07:53:31Z</time>
      </trkpt>
      <trkpt lat="45.72437" lon="6.55332">
        <ele>750</ele>
        <time>2022-08-16T07:53:32Z</time>
      </trkpt>
      <trkpt lat="45.72433" lon="6.55338">
        <ele>751</ele>
        <time>2022-08-16T07:53:33Z</time>
      </trkpt>
      <trkpt lat="45.72429" lon="6.55344">
        <ele>751</ele>
        <time>2022-08-16T07:53:34Z</time>
      </trkpt>
      <trkpt lat="45.72425" lon="6.5535">
        <ele>751</ele>
        <time>2022-08-16T07:53:35Z</time>
      </trkpt>
      <trkpt lat="45.72421" lon="6.55356">
        <ele>752</ele>
        <time>2022-08-16T07:53:36Z</time>
      </trkpt>
      <trkpt lat="45.72417" lon="6.55362">
        <ele>752</ele>
        <time>2022-08-16T07:53:37Z</time>
      </trkpt>
      <trkpt lat="45.72413" lon="6.55368">
        <ele>753</ele>
        <time>2022-08-16T07:53:38Z</time>
      </trkpt>
      <trkpt lat="45.72409" lon="6.55374">
        <ele>753</ele>
        <time>2022-08-16T07:53:39Z</time>
      </trkpt>
      <trkpt lat="45.72406" lon="6.5538">
        <ele>753</ele>
        <time>2022-08-16T07:53:40Z</time>
      </trkpt>
      <trkpt lat="45.72401" lon="6.55386">
        <ele>754</ele>
        <time>2022-08-16T07:53:41Z</time>
      </trkpt>
      <trkpt lat="45.72398" lon="6.55392">
        <ele>754</ele>
        <time>2022-08-16T07:53:42Z</time>
      </trkpt>
      <trkpt lat="45.72394" lon="6.55398">
        <ele>755</ele>
        <time>2022-08-16T07:53:43Z</time>
      </trkpt>
      <trkpt lat="45.7239" lon="6.55404">
        <ele>755</ele>
        <time>2022-08-16T07:53:44Z</time>
      </trkpt>
      <trkpt lat="45.72387" lon="6.5541">
        <ele>755</ele>
        <time>2022-08-16T07:53:45Z</time>
      </trkpt>
      <trkpt lat="45.72383" lon="6.55416">
        <ele>755</ele>
        <time>2022-08-16T07:53:46Z</time>
      </trkpt>
      <trkpt lat="45.7238" lon="6.55422">
        <ele>755</ele>
        <time>2022-08-16T07:53:47Z</time>
      </trkpt>
      <trkpt lat="45.72376" lon="6.55427">
        <ele>755</ele>
        <time>2022-08-16T07:53:48Z</time>
      </trkpt>
      <trkpt lat="45.72372" lon="6.55433">
        <ele>756</ele>
        <time>2022-08-16T07:53:49Z</time>
      </trkpt>
      <trkpt lat="45.72369" lon="6.55439">
        <ele>756</ele>
        <time>2022-08-16T07:53:50Z</time>
      </trkpt>
      <trkpt lat="45.72365" lon="6.55444">
        <ele>756</ele>
        <time>2022-08-16T07:53:51Z</time>
      </trkpt>
      <trkpt lat="45.72362" lon="6.5545">
        <ele>757</ele>
        <time>2022-08-16T07:53:52Z</time>
      </trkpt>
      <trkpt lat="45.72358" lon="6.55455">
        <ele>757</ele>
        <time>2022-08-16T07:53:53Z</time>
      </trkpt>
      <trkpt lat="45.72355" lon="6.5546">
        <ele>757</ele>
        <time>2022-08-16T07:53:54Z</time>
      </trkpt>
      <trkpt lat="45.72351" lon="6.55465">
        <ele>757</ele>
        <time>2022-08-16T07:53:55Z</time>
      </trkpt>
      <trkpt lat="45.72348" lon="6.55471">
        <ele>757</ele>
        <time>2022-08-16T07:53:56Z</time>
      </trkpt>
      <trkpt lat="45.72345" lon="6.55476">
        <ele>757</ele>
        <time>2022-08-16T07:53:57Z</time>
      </trkpt>
      <trkpt lat="45.72341" lon="6.55482">
        <ele>758</ele>
        <time>2022-08-16T07:53:58Z</time>
      </trkpt>
      <trkpt lat="45.72338" lon="6.55488">
        <ele>758</ele>
        <time>2022-08-16T07:53:59Z</time>
      </trkpt>
      <trkpt lat="45.72334" lon="6.55493">
        <ele>757</ele>
        <time>2022-08-16T07:54:00Z</time>
      </trkpt>
      <trkpt lat="45.72331" lon="6.55498">
        <ele>758</ele>
        <time>2022-08-16T07:54:01Z</time>
      </trkpt>
      <trkpt lat="45.72328" lon="6.55504">
        <ele>758</ele>
        <time>2022-08-16T07:54:02Z</time>
      </trkpt>
      <trkpt lat="45.72325" lon="6.55509">
        <ele>758</ele>
        <time>2022-08-16T07:54:03Z</time>
      </trkpt>
      <trkpt lat="45.72322" lon="6.55514">
        <ele>759</ele>
        <time>2022-08-16T07:54:04Z</time>
      </trkpt>
      <trkpt lat="45.72319" lon="6.55519">
        <ele>759</ele>
        <time>2022-08-16T07:54:05Z</time>
      </trkpt>
      <trkpt lat="45.72316" lon="6.55524">
        <ele>759</ele>
        <time>2022-08-16T07:54:06Z</time>
      </trkpt>
      <trkpt lat="45.72312" lon="6.55529">
        <ele>760</ele>
        <time>2022-08-16T07:54:07Z</time>
      </trkpt>
      <trkpt lat="45.72309" lon="6.55535">
        <ele>760</ele>
        <time>2022-08-16T07:54:08Z</time>
      </trkpt>
      <trkpt lat="45.72306" lon="6.5554">
        <ele>760</ele>
        <time>2022-08-16T07:54:09Z</time>
      </trkpt>
      <trkpt lat="45.72302" lon="6.55546">
        <ele>760</ele>
        <time>2022-08-16T07:54:10Z</time>
      </trkpt>
      <trkpt lat="45.72299" lon="6.55551">
        <ele>760</ele>
        <time>2022-08-16T07:54:11Z</time>
      </trkpt>
      <trkpt lat="45.72296" lon="6.55557">
        <ele>760</ele>
        <time>2022-08-16T07:54:12Z</time>
      </trkpt>
      <trkpt lat="45.72292" lon="6.55562">
        <ele>760</ele>
        <time>2022-08-16T07:54:13Z</time>
      </trkpt>
      <trkpt lat="45.72289" lon="6.55567">
        <ele>760</ele>
        <time>2022-08-16T07:54:14Z</time>
      </trkpt>
      <trkpt lat="45.72285" lon="6.55573">
        <ele>760</ele>
        <time>2022-08-16T07:54:15Z</time>
      </trkpt>
      <trkpt lat="45.72282" lon="6.55578">
        <ele>760</ele>
        <time>2022-08-16T07:54:16Z</time>
      </trkpt>
      <trkpt lat="45.72279" lon="6.55584">
        <ele>760</ele>
        <time>2022-08-16T07:54:17Z</time>
      </trkpt>
      <trkpt lat="45.72275" lon="6.5559">
        <ele>760</ele>
        <time>2022-08-16T07:54:18Z</time>
      </trkpt>
      <trkpt lat="45.72272" lon="6.55595">
        <ele>760</ele>
        <time>2022-08-16T07:54:19Z</time>
      </trkpt>
      <trkpt lat="45.72269" lon="6.55601">
        <ele>760</ele>
        <time>2022-08-16T07:54:20Z</time>
      </trkpt>
      <trkpt lat="45.72265" lon="6.55605">
        <ele>760</ele>
        <time>2022-08-16T07:54:21Z</time>
      </trkpt>
      <trkpt lat="45.72262" lon="6.55611">
        <ele>761</ele>
        <time>2022-08-16T07:54:22Z</time>
      </trkpt>
      <trkpt lat="45.72259" lon="6.55616">
        <ele>761</ele>
        <time>2022-08-16T07:54:23Z</time>
      </trkpt>
      <trkpt lat="45.72255" lon="6.55621">
        <ele>761</ele>
        <time>2022-08-16T07:54:24Z</time>
      </trkpt>
      <trkpt lat="45.72252" lon="6.55626">
        <ele>761</ele>
        <time>2022-08-16T07:54:25Z</time>
      </trkpt>
      <trkpt lat="45.72248" lon="6.55631">
        <ele>761</ele>
        <time>2022-08-16T07:54:26Z</time>
      </trkpt>
      <trkpt lat="45.72245" lon="6.55637">
        <ele>761</ele>
        <time>2022-08-16T07:54:27Z</time>
      </trkpt>
      <trkpt lat="45.72242" lon="6.55643">
        <ele>761</ele>
        <time>2022-08-16T07:54:28Z</time>
      </trkpt>
      <trkpt lat="45.72239" lon="6.55648">
        <ele>761</ele>
        <time>2022-08-16T07:54:29Z</time>
      </trkpt>
      <trkpt lat="45.72235" lon="6.55653">
        <ele>761</ele>
        <time>2022-08-16T07:54:30Z</time>
      </trkpt>
      <trkpt lat="45.72231" lon="6.55658">
        <ele>761</ele>
        <time>2022-08-16T07:54:31Z</time>
      </trkpt>
      <trkpt lat="45.72228" lon="6.55663">
        <ele>762</ele>
        <time>2022-08-16T07:54:32Z</time>
      </trkpt>
      <trkpt lat="45.72224" lon="6.55669">
        <ele>762</ele>
        <time>2022-08-16T07:54:33Z</time>
      </trkpt>
      <trkpt lat="45.72221" lon="6.55674">
        <ele>762</ele>
        <time>2022-08-16T07:54:34Z</time>
      </trkpt>
      <trkpt lat="45.72218" lon="6.5568">
        <ele>762</ele>
        <time>2022-08-16T07:54:35Z</time>
      </trkpt>
      <trkpt lat="45.72215" lon="6.55685">
        <ele>762</ele>
        <time>2022-08-16T07:54:36Z</time>
      </trkpt>
      <trkpt lat="45.72211" lon="6.55691">
        <ele>762</ele>
        <time>2022-08-16T07:54:37Z</time>
      </trkpt>
      <trkpt lat="45.72208" lon="6.55697">
        <ele>761</ele>
        <time>2022-08-16T07:54:38Z</time>
      </trkpt>
      <trkpt lat="45.72204" lon="6.55702">
        <ele>761</ele>
        <time>2022-08-16T07:54:39Z</time>
      </trkpt>
      <trkpt lat="45.72201" lon="6.55707">
        <ele>761</ele>
        <time>2022-08-16T07:54:40Z</time>
      </trkpt>
      <trkpt lat="45.72198" lon="6.55713">
        <ele>761</ele>
        <time>2022-08-16T07:54:41Z</time>
      </trkpt>
      <trkpt lat="45.72194" lon="6.55718">
        <ele>762</ele>
        <time>2022-08-16T07:54:42Z</time>
      </trkpt>
      <trkpt lat="45.72191" lon="6.55724">
        <ele>762</ele>
        <time>2022-08-16T07:54:43Z</time>
      </trkpt>
      <trkpt lat="45.72188" lon="6.55729">
        <ele>762</ele>
        <time>2022-08-16T07:54:44Z</time>
      </trkpt>
      <trkpt lat="45.72185" lon="6.55734">
        <ele>762</ele>
        <time>2022-08-16T07:54:45Z</time>
      </trkpt>
      <trkpt lat="45.72181" lon="6.5574">
        <ele>762</ele>
        <time>2022-08-16T07:54:46Z</time>
      </trkpt>
      <trkpt lat="45.72178" lon="6.55745">
        <ele>762</ele>
        <time>2022-08-16T07:54:47Z</time>
      </trkpt>
      <trkpt lat="45.72174" lon="6.5575">
        <ele>763</ele>
        <time>2022-08-16T07:54:48Z</time>
      </trkpt>
      <trkpt lat="45.72171" lon="6.55755">
        <ele>762</ele>
        <time>2022-08-16T07:54:49Z</time>
      </trkpt>
      <trkpt lat="45.72168" lon="6.5576">
        <ele>762</ele>
        <time>2022-08-16T07:54:50Z</time>
      </trkpt>
      <trkpt lat="45.72165" lon="6.55765">
        <ele>762</ele>
        <time>2022-08-16T07:54:51Z</time>
      </trkpt>
      <trkpt lat="45.72162" lon="6.5577">
        <ele>762</ele>
        <time>2022-08-16T07:54:52Z</time>
      </trkpt>
      <trkpt lat="45.72159" lon="6.55776">
        <ele>762</ele>
        <time>2022-08-16T07:54:53Z</time>
      </trkpt>
      <trkpt lat="45.72156" lon="6.55782">
        <ele>762</ele>
        <time>2022-08-16T07:54:54Z</time>
      </trkpt>
      <trkpt lat="45.72153" lon="6.55788">
        <ele>762</ele>
        <time>2022-08-16T07:54:55Z</time>
      </trkpt>
      <trkpt lat="45.7215" lon="6.55793">
        <ele>763</ele>
        <time>2022-08-16T07:54:56Z</time>
      </trkpt>
      <trkpt lat="45.72148" lon="6.55798">
        <ele>762</ele>
        <time>2022-08-16T07:54:57Z</time>
      </trkpt>
      <trkpt lat="45.72146" lon="6.55803">
        <ele>762</ele>
        <time>2022-08-16T07:54:58Z</time>
      </trkpt>
      <trkpt lat="45.72143" lon="6.55809">
        <ele>762</ele>
        <time>2022-08-16T07:54:59Z</time>
      </trkpt>
      <trkpt lat="45.72141" lon="6.55813">
        <ele>762</ele>
        <time>2022-08-16T07:55:00Z</time>
      </trkpt>
      <trkpt lat="45.72138" lon="6.55818">
        <ele>762</ele>
        <time>2022-08-16T07:55:01Z</time>
      </trkpt>
      <trkpt lat="45.72136" lon="6.55823">
        <ele>762</ele>
        <time>2022-08-16T07:55:02Z</time>
      </trkpt>
      <trkpt lat="45.72134" lon="6.55828">
        <ele>762</ele>
        <time>2022-08-16T07:55:03Z</time>
      </trkpt>
      <trkpt lat="45.72132" lon="6.55833">
        <ele>762</ele>
        <time>2022-08-16T07:55:04Z</time>
      </trkpt>
      <trkpt lat="45.7213" lon="6.55838">
        <ele>763</ele>
        <time>2022-08-16T07:55:05Z</time>
      </trkpt>
      <trkpt lat="45.72127" lon="6.55843">
        <ele>762</ele>
        <time>2022-08-16T07:55:06Z</time>
      </trkpt>
      <trkpt lat="45.72125" lon="6.55849">
        <ele>762</ele>
        <time>2022-08-16T07:55:07Z</time>
      </trkpt>
      <trkpt lat="45.72122" lon="6.55854">
        <ele>762</ele>
        <time>2022-08-16T07:55:08Z</time>
      </trkpt>
      <trkpt lat="45.7212" lon="6.55859">
        <ele>762</ele>
        <time>2022-08-16T07:55:09Z</time>
      </trkpt>
      <trkpt lat="45.72118" lon="6.55864">
        <ele>762</ele>
        <time>2022-08-16T07:55:10Z</time>
      </trkpt>
      <trkpt lat="45.72116" lon="6.5587">
        <ele>762</ele>
        <time>2022-08-16T07:55:11Z</time>
      </trkpt>
      <trkpt lat="45.72113" lon="6.55875">
        <ele>762</ele>
        <time>2022-08-16T07:55:12Z</time>
      </trkpt>
      <trkpt lat="45.72111" lon="6.55881">
        <ele>762</ele>
        <time>2022-08-16T07:55:13Z</time>
      </trkpt>
      <trkpt lat="45.72109" lon="6.55886">
        <ele>762</ele>
        <time>2022-08-16T07:55:14Z</time>
      </trkpt>
      <trkpt lat="45.72107" lon="6.5589">
        <ele>762</ele>
        <time>2022-08-16T07:55:15Z</time>
      </trkpt>
      <trkpt lat="45.72105" lon="6.55895">
        <ele>762</ele>
        <time>2022-08-16T07:55:16Z</time>
      </trkpt>
      <trkpt lat="45.72103" lon="6.55901">
        <ele>762</ele>
        <time>2022-08-16T07:55:17Z</time>
      </trkpt>
      <trkpt lat="45.721" lon="6.55906">
        <ele>762</ele>
        <time>2022-08-16T07:55:18Z</time>
      </trkpt>
      <trkpt lat="45.72098" lon="6.55911">
        <ele>762</ele>
        <time>2022-08-16T07:55:19Z</time>
      </trkpt>
      <trkpt lat="45.72096" lon="6.55916">
        <ele>762</ele>
        <time>2022-08-16T07:55:20Z</time>
      </trkpt>
      <trkpt lat="45.72095" lon="6.55921">
        <ele>762</ele>
        <time>2022-08-16T07:55:21Z</time>
      </trkpt>
      <trkpt lat="45.72092" lon="6.55927">
        <ele>762</ele>
        <time>2022-08-16T07:55:22Z</time>
      </trkpt>
      <trkpt lat="45.7209" lon="6.55932">
        <ele>762</ele>
        <time>2022-08-16T07:55:23Z</time>
      </trkpt>
      <trkpt lat="45.72088" lon="6.55937">
        <ele>762</ele>
        <time>2022-08-16T07:55:24Z</time>
      </trkpt>
      <trkpt lat="45.72086" lon="6.55943">
        <ele>763</ele>
        <time>2022-08-16T07:55:25Z</time>
      </trkpt>
      <trkpt lat="45.72084" lon="6.55948">
        <ele>763</ele>
        <time>2022-08-16T07:55:26Z</time>
      </trkpt>
      <trkpt lat="45.72082" lon="6.55953">
        <ele>763</ele>
        <time>2022-08-16T07:55:27Z</time>
      </trkpt>
      <trkpt lat="45.7208" lon="6.55958">
        <ele>763</ele>
        <time>2022-08-16T07:55:28Z</time>
      </trkpt>
      <trkpt lat="45.72078" lon="6.55963">
        <ele>763</ele>
        <time>2022-08-16T07:55:29Z</time>
      </trkpt>
      <trkpt lat="45.72076" lon="6.55968">
        <ele>764</ele>
        <time>2022-08-16T07:55:30Z</time>
      </trkpt>
      <trkpt lat="45.72074" lon="6.55974">
        <ele>764</ele>
        <time>2022-08-16T07:55:31Z</time>
      </trkpt>
      <trkpt lat="45.72072" lon="6.55979">
        <ele>764</ele>
        <time>2022-08-16T07:55:32Z</time>
      </trkpt>
      <trkpt lat="45.72069" lon="6.55984">
        <ele>764</ele>
        <time>2022-08-16T07:55:33Z</time>
      </trkpt>
      <trkpt lat="45.72067" lon="6.5599">
        <ele>764</ele>
        <time>2022-08-16T07:55:34Z</time>
      </trkpt>
      <trkpt lat="45.72065" lon="6.55995">
        <ele>764</ele>
        <time>2022-08-16T07:55:35Z</time>
      </trkpt>
      <trkpt lat="45.72063" lon="6.56">
        <ele>764</ele>
        <time>2022-08-16T07:55:36Z</time>
      </trkpt>
      <trkpt lat="45.72061" lon="6.56005">
        <ele>764</ele>
        <time>2022-08-16T07:55:37Z</time>
      </trkpt>
      <trkpt lat="45.72059" lon="6.5601">
        <ele>765</ele>
        <time>2022-08-16T07:55:38Z</time>
      </trkpt>
      <trkpt lat="45.72058" lon="6.56015">
        <ele>765</ele>
        <time>2022-08-16T07:55:39Z</time>
      </trkpt>
      <trkpt lat="45.72056" lon="6.5602">
        <ele>765</ele>
        <time>2022-08-16T07:55:40Z</time>
      </trkpt>
      <trkpt lat="45.72054" lon="6.56025">
        <ele>765</ele>
        <time>2022-08-16T07:55:41Z</time>
      </trkpt>
      <trkpt lat="45.72053" lon="6.56029">
        <ele>765</ele>
        <time>2022-08-16T07:55:42Z</time>
      </trkpt>
      <trkpt lat="45.7205" lon="6.56034">
        <ele>765</ele>
        <time>2022-08-16T07:55:43Z</time>
      </trkpt>
      <trkpt lat="45.72048" lon="6.56039">
        <ele>765</ele>
        <time>2022-08-16T07:55:44Z</time>
      </trkpt>
      <trkpt lat="45.72046" lon="6.56044">
        <ele>766</ele>
        <time>2022-08-16T07:55:45Z</time>
      </trkpt>
      <trkpt lat="45.72044" lon="6.56049">
        <ele>766</ele>
        <time>2022-08-16T07:55:46Z</time>
      </trkpt>
      <trkpt lat="45.72042" lon="6.56055">
        <ele>766</ele>
        <time>2022-08-16T07:55:47Z</time>
      </trkpt>
      <trkpt lat="45.7204" lon="6.5606">
        <ele>766</ele>
        <time>2022-08-16T07:55:48Z</time>
      </trkpt>
      <trkpt lat="45.72038" lon="6.56066">
        <ele>766</ele>
        <time>2022-08-16T07:55:49Z</time>
      </trkpt>
      <trkpt lat="45.72036" lon="6.56072">
        <ele>766</ele>
        <time>2022-08-16T07:55:50Z</time>
      </trkpt>
      <trkpt lat="45.72034" lon="6.56077">
        <ele>766</ele>
        <time>2022-08-16T07:55:51Z</time>
      </trkpt>
      <trkpt lat="45.72032" lon="6.56083">
        <ele>766</ele>
        <time>2022-08-16T07:55:52Z</time>
      </trkpt>
      <trkpt lat="45.7203" lon="6.56089">
        <ele>766</ele>
        <time>2022-08-16T07:55:53Z</time>
      </trkpt>
      <trkpt lat="45.72028" lon="6.56096">
        <ele>766</ele>
        <time>2022-08-16T07:55:54Z</time>
      </trkpt>
      <trkpt lat="45.72025" lon="6.56102">
        <ele>766</ele>
        <time>2022-08-16T07:55:55Z</time>
      </trkpt>
      <trkpt lat="45.72023" lon="6.56108">
        <ele>766</ele>
        <time>2022-08-16T07:55:56Z</time>
      </trkpt>
      <trkpt lat="45.72021" lon="6.56115">
        <ele>766</ele>
        <time>2022-08-16T07:55:57Z</time>
      </trkpt>
      <trkpt lat="45.72018" lon="6.56121">
        <ele>766</ele>
        <time>2022-08-16T07:55:58Z</time>
      </trkpt>
      <trkpt lat="45.72016" lon="6.56128">
        <ele>766</ele>
        <time>2022-08-16T07:55:59Z</time>
      </trkpt>
      <trkpt lat="45.72013" lon="6.56134">
        <ele>766</ele>
        <time>2022-08-16T07:56:00Z</time>
      </trkpt>
      <trkpt lat="45.72011" lon="6.56141">
        <ele>767</ele>
        <time>2022-08-16T07:56:01Z</time>
      </trkpt>
      <trkpt lat="45.72008" lon="6.56147">
        <ele>767</ele>
        <time>2022-08-16T07:56:02Z</time>
      </trkpt>
      <trkpt lat="45.72006" lon="6.56153">
        <ele>767</ele>
        <time>2022-08-16T07:56:03Z</time>
      </trkpt>
      <trkpt lat="45.72004" lon="6.56159">
        <ele>767</ele>
        <time>2022-08-16T07:56:04Z</time>
      </trkpt>
      <trkpt lat="45.72001" lon="6.56165">
        <ele>767</ele>
        <time>2022-08-16T07:56:05Z</time>
      </trkpt>
      <trkpt lat="45.71999" lon="6.56172">
        <ele>768</ele>
        <time>2022-08-16T07:56:06Z</time>
      </trkpt>
      <trkpt lat="45.71996" lon="6.56179">
        <ele>768</ele>
        <time>2022-08-16T07:56:07Z</time>
      </trkpt>
      <trkpt lat="45.71994" lon="6.56185">
        <ele>768</ele>
        <time>2022-08-16T07:56:08Z</time>
      </trkpt>
      <trkpt lat="45.71992" lon="6.56192">
        <ele>768</ele>
        <time>2022-08-16T07:56:09Z</time>
      </trkpt>
      <trkpt lat="45.7199" lon="6.56199">
        <ele>768</ele>
        <time>2022-08-16T07:56:10Z</time>
      </trkpt>
      <trkpt lat="45.71988" lon="6.56206">
        <ele>768</ele>
        <time>2022-08-16T07:56:11Z</time>
      </trkpt>
      <trkpt lat="45.71985" lon="6.56212">
        <ele>768</ele>
        <time>2022-08-16T07:56:12Z</time>
      </trkpt>
      <trkpt lat="45.71983" lon="6.56219">
        <ele>769</ele>
        <time>2022-08-16T07:56:13Z</time>
      </trkpt>
      <trkpt lat="45.71981" lon="6.56225">
        <ele>769</ele>
        <time>2022-08-16T07:56:14Z</time>
      </trkpt>
      <trkpt lat="45.71978" lon="6.56231">
        <ele>769</ele>
        <time>2022-08-16T07:56:15Z</time>
      </trkpt>
      <trkpt lat="45.71976" lon="6.56238">
        <ele>769</ele>
        <time>2022-08-16T07:56:16Z</time>
      </trkpt>
      <trkpt lat="45.71974" lon="6.56244">
        <ele>769</ele>
        <time>2022-08-16T07:56:17Z</time>
      </trkpt>
      <trkpt lat="45.71972" lon="6.56251">
        <ele>769</ele>
        <time>2022-08-16T07:56:18Z</time>
      </trkpt>
      <trkpt lat="45.7197" lon="6.56257">
        <ele>769</ele>
        <time>2022-08-16T07:56:19Z</time>
      </trkpt>
      <trkpt lat="45.71968" lon="6.56263">
        <ele>769</ele>
        <time>2022-08-16T07:56:20Z</time>
      </trkpt>
      <trkpt lat="45.71966" lon="6.5627">
        <ele>769</ele>
        <time>2022-08-16T07:56:21Z</time>
      </trkpt>
      <trkpt lat="45.71964" lon="6.56277">
        <ele>769</ele>
        <time>2022-08-16T07:56:22Z</time>
      </trkpt>
      <trkpt lat="45.71963" lon="6.56284">
        <ele>768</ele>
        <time>2022-08-16T07:56:23Z</time>
      </trkpt>
      <trkpt lat="45.71961" lon="6.56291">
        <ele>768</ele>
        <time>2022-08-16T07:56:24Z</time>
      </trkpt>
      <trkpt lat="45.7196" lon="6.56298">
        <ele>768</ele>
        <time>2022-08-16T07:56:25Z</time>
      </trkpt>
      <trkpt lat="45.71959" lon="6.56305">
        <ele>768</ele>
        <time>2022-08-16T07:56:26Z</time>
      </trkpt>
      <trkpt lat="45.71958" lon="6.56313">
        <ele>769</ele>
        <time>2022-08-16T07:56:27Z</time>
      </trkpt>
      <trkpt lat="45.71956" lon="6.56321">
        <ele>769</ele>
        <time>2022-08-16T07:56:28Z</time>
      </trkpt>
      <trkpt lat="45.71955" lon="6.56328">
        <ele>769</ele>
        <time>2022-08-16T07:56:29Z</time>
      </trkpt>
      <trkpt lat="45.71955" lon="6.56335">
        <ele>769</ele>
        <time>2022-08-16T07:56:30Z</time>
      </trkpt>
      <trkpt lat="45.71953" lon="6.56342">
        <ele>769</ele>
        <time>2022-08-16T07:56:31Z</time>
      </trkpt>
      <trkpt lat="45.71952" lon="6.5635">
        <ele>769</ele>
        <time>2022-08-16T07:56:32Z</time>
      </trkpt>
      <trkpt lat="45.71952" lon="6.56357">
        <ele>769</ele>
        <time>2022-08-16T07:56:33Z</time>
      </trkpt>
      <trkpt lat="45.71951" lon="6.56364">
        <ele>769</ele>
        <time>2022-08-16T07:56:34Z</time>
      </trkpt>
      <trkpt lat="45.71951" lon="6.56371">
        <ele>770</ele>
        <time>2022-08-16T07:56:35Z</time>
      </trkpt>
      <trkpt lat="45.71951" lon="6.56378">
        <ele>770</ele>
        <time>2022-08-16T07:56:36Z</time>
      </trkpt>
      <trkpt lat="45.71951" lon="6.56386">
        <ele>770</ele>
        <time>2022-08-16T07:56:37Z</time>
      </trkpt>
      <trkpt lat="45.71951" lon="6.56393">
        <ele>770</ele>
        <time>2022-08-16T07:56:38Z</time>
      </trkpt>
      <trkpt lat="45.71951" lon="6.564">
        <ele>770</ele>
        <time>2022-08-16T07:56:39Z</time>
      </trkpt>
      <trkpt lat="45.7195" lon="6.56408">
        <ele>771</ele>
        <time>2022-08-16T07:56:40Z</time>
      </trkpt>
      <trkpt lat="45.71951" lon="6.56416">
        <ele>771</ele>
        <time>2022-08-16T07:56:41Z</time>
      </trkpt>
      <trkpt lat="45.71951" lon="6.56423">
        <ele>771</ele>
        <time>2022-08-16T07:56:42Z</time>
      </trkpt>
      <trkpt lat="45.71952" lon="6.56431">
        <ele>771</ele>
        <time>2022-08-16T07:56:43Z</time>
      </trkpt>
      <trkpt lat="45.71952" lon="6.56439">
        <ele>771</ele>
        <time>2022-08-16T07:56:44Z</time>
      </trkpt>
      <trkpt lat="45.71953" lon="6.56447">
        <ele>771</ele>
        <time>2022-08-16T07:56:45Z</time>
      </trkpt>
      <trkpt lat="45.71954" lon="6.56455">
        <ele>771</ele>
        <time>2022-08-16T07:56:46Z</time>
      </trkpt>
      <trkpt lat="45.71955" lon="6.56463">
        <ele>772</ele>
        <time>2022-08-16T07:56:47Z</time>
      </trkpt>
      <trkpt lat="45.71955" lon="6.5647">
        <ele>772</ele>
        <time>2022-08-16T07:56:48Z</time>
      </trkpt>
      <trkpt lat="45.71956" lon="6.56478">
        <ele>772</ele>
        <time>2022-08-16T07:56:49Z</time>
      </trkpt>
      <trkpt lat="45.71957" lon="6.56485">
        <ele>772</ele>
        <time>2022-08-16T07:56:50Z</time>
      </trkpt>
      <trkpt lat="45.71957" lon="6.56493">
        <ele>772</ele>
        <time>2022-08-16T07:56:51Z</time>
      </trkpt>
      <trkpt lat="45.71958" lon="6.565">
        <ele>772</ele>
        <time>2022-08-16T07:56:52Z</time>
      </trkpt>
      <trkpt lat="45.71958" lon="6.56508">
        <ele>773</ele>
        <time>2022-08-16T07:56:53Z</time>
      </trkpt>
      <trkpt lat="45.71958" lon="6.56515">
        <ele>773</ele>
        <time>2022-08-16T07:56:54Z</time>
      </trkpt>
      <trkpt lat="45.71958" lon="6.56523">
        <ele>773</ele>
        <time>2022-08-16T07:56:55Z</time>
      </trkpt>
      <trkpt lat="45.71958" lon="6.5653">
        <ele>773</ele>
        <time>2022-08-16T07:56:56Z</time>
      </trkpt>
      <trkpt lat="45.71958" lon="6.56538">
        <ele>773</ele>
        <time>2022-08-16T07:56:57Z</time>
      </trkpt>
      <trkpt lat="45.71958" lon="6.56545">
        <ele>774</ele>
        <time>2022-08-16T07:56:58Z</time>
      </trkpt>
      <trkpt lat="45.71958" lon="6.56553">
        <ele>774</ele>
        <time>2022-08-16T07:56:59Z</time>
      </trkpt>
      <trkpt lat="45.71958" lon="6.5656">
        <ele>775</ele>
        <time>2022-08-16T07:57:00Z</time>
      </trkpt>
      <trkpt lat="45.71959" lon="6.56567">
        <ele>775</ele>
        <time>2022-08-16T07:57:01Z</time>
      </trkpt>
      <trkpt lat="45.7196" lon="6.56574">
        <ele>775</ele>
        <time>2022-08-16T07:57:02Z</time>
      </trkpt>
      <trkpt lat="45.71961" lon="6.5658">
        <ele>775</ele>
        <time>2022-08-16T07:57:03Z</time>
      </trkpt>
      <trkpt lat="45.71963" lon="6.56587">
        <ele>776</ele>
        <time>2022-08-16T07:57:04Z</time>
      </trkpt>
      <trkpt lat="45.71964" lon="6.56594">
        <ele>775</ele>
        <time>2022-08-16T07:57:05Z</time>
      </trkpt>
      <trkpt lat="45.71965" lon="6.56601">
        <ele>776</ele>
        <time>2022-08-16T07:57:06Z</time>
      </trkpt>
      <trkpt lat="45.71965" lon="6.56608">
        <ele>776</ele>
        <time>2022-08-16T07:57:07Z</time>
      </trkpt>
      <trkpt lat="45.71965" lon="6.56616">
        <ele>776</ele>
        <time>2022-08-16T07:57:08Z</time>
      </trkpt>
      <trkpt lat="45.71965" lon="6.56623">
        <ele>776</ele>
        <time>2022-08-16T07:57:09Z</time>
      </trkpt>
      <trkpt lat="45.71965" lon="6.5663">
        <ele>776</ele>
        <time>2022-08-16T07:57:10Z</time>
      </trkpt>
      <trkpt lat="45.71965" lon="6.56637">
        <ele>776</ele>
        <time>2022-08-16T07:57:11Z</time>
      </trkpt>
      <trkpt lat="45.71966" lon="6.56644">
        <ele>777</ele>
        <time>2022-08-16T07:57:12Z</time>
      </trkpt>
      <trkpt lat="45.71966" lon="6.56651">
        <ele>777</ele>
        <time>2022-08-16T07:57:13Z</time>
      </trkpt>
      <trkpt lat="45.71967" lon="6.56657">
        <ele>778</ele>
        <time>2022-08-16T07:57:14Z</time>
      </trkpt>
      <trkpt lat="45.71967" lon="6.56665">
        <ele>778</ele>
        <time>2022-08-16T07:57:15Z</time>
      </trkpt>
      <trkpt lat="45.71967" lon="6.56672">
        <ele>778</ele>
        <time>2022-08-16T07:57:16Z</time>
      </trkpt>
      <trkpt lat="45.71968" lon="6.56679">
        <ele>778</ele>
        <time>2022-08-16T07:57:17Z</time>
      </trkpt>
      <trkpt lat="45.71969" lon="6.56686">
        <ele>778</ele>
        <time>2022-08-16T07:57:18Z</time>
      </trkpt>
      <trkpt lat="45.7197" lon="6.56693">
        <ele>778</ele>
        <time>2022-08-16T07:57:19Z</time>
      </trkpt>
      <trkpt lat="45.7197" lon="6.567">
        <ele>778</ele>
        <time>2022-08-16T07:57:20Z</time>
      </trkpt>
      <trkpt lat="45.7197" lon="6.56706">
        <ele>778</ele>
        <time>2022-08-16T07:57:21Z</time>
      </trkpt>
      <trkpt lat="45.71971" lon="6.56713">
        <ele>778</ele>
        <time>2022-08-16T07:57:22Z</time>
      </trkpt>
      <trkpt lat="45.71971" lon="6.5672">
        <ele>778</ele>
        <time>2022-08-16T07:57:23Z</time>
      </trkpt>
      <trkpt lat="45.71972" lon="6.56727">
        <ele>778</ele>
        <time>2022-08-16T07:57:24Z</time>
      </trkpt>
      <trkpt lat="45.71972" lon="6.56734">
        <ele>778</ele>
        <time>2022-08-16T07:57:25Z</time>
      </trkpt>
      <trkpt lat="45.71972" lon="6.5674">
        <ele>778</ele>
        <time>2022-08-16T07:57:26Z</time>
      </trkpt>
      <trkpt lat="45.71972" lon="6.56747">
        <ele>778</ele>
        <time>2022-08-16T07:57:27Z</time>
      </trkpt>
      <trkpt lat="45.71972" lon="6.56754">
        <ele>778</ele>
        <time>2022-08-16T07:57:28Z</time>
      </trkpt>
      <trkpt lat="45.71973" lon="6.56761">
        <ele>778</ele>
        <time>2022-08-16T07:57:29Z</time>
      </trkpt>
      <trkpt lat="45.71973" lon="6.56768">
        <ele>777</ele>
        <time>2022-08-16T07:57:30Z</time>
      </trkpt>
      <trkpt lat="45.71973" lon="6.56775">
        <ele>777</ele>
        <time>2022-08-16T07:57:31Z</time>
      </trkpt>
      <trkpt lat="45.71974" lon="6.56783">
        <ele>777</ele>
        <time>2022-08-16T07:57:32Z</time>
      </trkpt>
      <trkpt lat="45.71974" lon="6.5679">
        <ele>777</ele>
        <time>2022-08-16T07:57:33Z</time>
      </trkpt>
      <trkpt lat="45.71974" lon="6.56797">
        <ele>777</ele>
        <time>2022-08-16T07:57:34Z</time>
      </trkpt>
      <trkpt lat="45.71974" lon="6.56805">
        <ele>777</ele>
        <time>2022-08-16T07:57:35Z</time>
      </trkpt>
      <trkpt lat="45.71975" lon="6.56812">
        <ele>777</ele>
        <time>2022-08-16T07:57:36Z</time>
      </trkpt>
      <trkpt lat="45.71975" lon="6.56818">
        <ele>777</ele>
        <time>2022-08-16T07:57:37Z</time>
      </trkpt>
      <trkpt lat="45.71976" lon="6.56826">
        <ele>777</ele>
        <time>2022-08-16T07:57:38Z</time>
      </trkpt>
      <trkpt lat="45.71977" lon="6.56832">
        <ele>777</ele>
        <time>2022-08-16T07:57:39Z</time>
      </trkpt>
      <trkpt lat="45.71977" lon="6.56839">
        <ele>777</ele>
        <time>2022-08-16T07:57:40Z</time>
      </trkpt>
      <trkpt lat="45.71978" lon="6.56846">
        <ele>777</ele>
        <time>2022-08-16T07:57:41Z</time>
      </trkpt>
      <trkpt lat="45.71978" lon="6.56853">
        <ele>777</ele>
        <time>2022-08-16T07:57:42Z</time>
      </trkpt>
      <trkpt lat="45.71978" lon="6.56859">
        <ele>777</ele>
        <time>2022-08-16T07:57:43Z</time>
      </trkpt>
      <trkpt lat="45.71979" lon="6.56866">
        <ele>777</ele>
        <time>2022-08-16T07:57:44Z</time>
      </trkpt>
      <trkpt lat="45.71979" lon="6.56872">
        <ele>777</ele>
        <time>2022-08-16T07:57:45Z</time>
      </trkpt>
      <trkpt lat="45.71979" lon="6.56878">
        <ele>778</ele>
        <time>2022-08-16T07:57:46Z</time>
      </trkpt>
      <trkpt lat="45.7198" lon="6.56884">
        <ele>778</ele>
        <time>2022-08-16T07:57:47Z</time>
      </trkpt>
      <trkpt lat="45.7198" lon="6.56891">
        <ele>779</ele>
        <time>2022-08-16T07:57:48Z</time>
      </trkpt>
      <trkpt lat="45.7198" lon="6.56897">
        <ele>779</ele>
        <time>2022-08-16T07:57:49Z</time>
      </trkpt>
      <trkpt lat="45.71981" lon="6.56903">
        <ele>779</ele>
        <time>2022-08-16T07:57:50Z</time>
      </trkpt>
      <trkpt lat="45.71981" lon="6.5691">
        <ele>780</ele>
        <time>2022-08-16T07:57:51Z</time>
      </trkpt>
      <trkpt lat="45.71982" lon="6.56916">
        <ele>780</ele>
        <time>2022-08-16T07:57:52Z</time>
      </trkpt>
      <trkpt lat="45.71982" lon="6.56923">
        <ele>780</ele>
        <time>2022-08-16T07:57:53Z</time>
      </trkpt>
      <trkpt lat="45.71983" lon="6.56929">
        <ele>780</ele>
        <time>2022-08-16T07:57:54Z</time>
      </trkpt>
      <trkpt lat="45.71983" lon="6.56936">
        <ele>780</ele>
        <time>2022-08-16T07:57:55Z</time>
      </trkpt>
      <trkpt lat="45.71983" lon="6.56942">
        <ele>781</ele>
        <time>2022-08-16T07:57:56Z</time>
      </trkpt>
      <trkpt lat="45.71984" lon="6.56949">
        <ele>781</ele>
        <time>2022-08-16T07:57:57Z</time>
      </trkpt>
      <trkpt lat="45.71984" lon="6.56956">
        <ele>781</ele>
        <time>2022-08-16T07:57:58Z</time>
      </trkpt>
      <trkpt lat="45.71985" lon="6.56962">
        <ele>781</ele>
        <time>2022-08-16T07:57:59Z</time>
      </trkpt>
      <trkpt lat="45.71985" lon="6.56968">
        <ele>781</ele>
        <time>2022-08-16T07:58:00Z</time>
      </trkpt>
      <trkpt lat="45.71986" lon="6.56975">
        <ele>781</ele>
        <time>2022-08-16T07:58:01Z</time>
      </trkpt>
      <trkpt lat="45.71987" lon="6.56982">
        <ele>781</ele>
        <time>2022-08-16T07:58:02Z</time>
      </trkpt>
      <trkpt lat="45.71987" lon="6.56988">
        <ele>782</ele>
        <time>2022-08-16T07:58:03Z</time>
      </trkpt>
      <trkpt lat="45.71987" lon="6.56995">
        <ele>781</ele>
        <time>2022-08-16T07:58:04Z</time>
      </trkpt>
      <trkpt lat="45.71988" lon="6.57002">
        <ele>781</ele>
        <time>2022-08-16T07:58:05Z</time>
      </trkpt>
      <trkpt lat="45.71988" lon="6.57008">
        <ele>782</ele>
        <time>2022-08-16T07:58:06Z</time>
      </trkpt>
      <trkpt lat="45.71989" lon="6.57015">
        <ele>782</ele>
        <time>2022-08-16T07:58:07Z</time>
      </trkpt>
      <trkpt lat="45.71989" lon="6.57022">
        <ele>782</ele>
        <time>2022-08-16T07:58:08Z</time>
      </trkpt>
      <trkpt lat="45.7199" lon="6.57028">
        <ele>782</ele>
        <time>2022-08-16T07:58:09Z</time>
      </trkpt>
      <trkpt lat="45.7199" lon="6.57035">
        <ele>782</ele>
        <time>2022-08-16T07:58:10Z</time>
      </trkpt>
      <trkpt lat="45.7199" lon="6.57042">
        <ele>782</ele>
        <time>2022-08-16T07:58:11Z</time>
      </trkpt>
      <trkpt lat="45.71991" lon="6.57048">
        <ele>782</ele>
        <time>2022-08-16T07:58:12Z</time>
      </trkpt>
      <trkpt lat="45.71992" lon="6.57055">
        <ele>782</ele>
        <time>2022-08-16T07:58:13Z</time>
      </trkpt>
      <trkpt lat="45.71992" lon="6.57062">
        <ele>782</ele>
        <time>2022-08-16T07:58:14Z</time>
      </trkpt>
      <trkpt lat="45.71993" lon="6.57068">
        <ele>782</ele>
        <time>2022-08-16T07:58:15Z</time>
      </trkpt>
      <trkpt lat="45.71994" lon="6.57075">
        <ele>782</ele>
        <time>2022-08-16T07:58:16Z</time>
      </trkpt>
      <trkpt lat="45.71994" lon="6.57083">
        <ele>782</ele>
        <time>2022-08-16T07:58:17Z</time>
      </trkpt>
      <trkpt lat="45.71995" lon="6.57089">
        <ele>782</ele>
        <time>2022-08-16T07:58:18Z</time>
      </trkpt>
      <trkpt lat="45.71995" lon="6.57096">
        <ele>782</ele>
        <time>2022-08-16T07:58:19Z</time>
      </trkpt>
      <trkpt lat="45.71996" lon="6.57102">
        <ele>783</ele>
        <time>2022-08-16T07:58:20Z</time>
      </trkpt>
      <trkpt lat="45.71996" lon="6.57108">
        <ele>783</ele>
        <time>2022-08-16T07:58:21Z</time>
      </trkpt>
      <trkpt lat="45.71996" lon="6.57115">
        <ele>783</ele>
        <time>2022-08-16T07:58:22Z</time>
      </trkpt>
      <trkpt lat="45.71997" lon="6.57121">
        <ele>783</ele>
        <time>2022-08-16T07:58:23Z</time>
      </trkpt>
      <trkpt lat="45.71997" lon="6.57128">
        <ele>783</ele>
        <time>2022-08-16T07:58:24Z</time>
      </trkpt>
      <trkpt lat="45.71998" lon="6.57135">
        <ele>783</ele>
        <time>2022-08-16T07:58:25Z</time>
      </trkpt>
      <trkpt lat="45.71998" lon="6.57141">
        <ele>783</ele>
        <time>2022-08-16T07:58:26Z</time>
      </trkpt>
      <trkpt lat="45.71998" lon="6.57147">
        <ele>783</ele>
        <time>2022-08-16T07:58:27Z</time>
      </trkpt>
      <trkpt lat="45.71998" lon="6.57154">
        <ele>783</ele>
        <time>2022-08-16T07:58:28Z</time>
      </trkpt>
      <trkpt lat="45.71998" lon="6.57162">
        <ele>783</ele>
        <time>2022-08-16T07:58:29Z</time>
      </trkpt>
      <trkpt lat="45.71998" lon="6.57169">
        <ele>782</ele>
        <time>2022-08-16T07:58:30Z</time>
      </trkpt>
      <trkpt lat="45.71998" lon="6.57175">
        <ele>783</ele>
        <time>2022-08-16T07:58:31Z</time>
      </trkpt>
      <trkpt lat="45.71997" lon="6.57181">
        <ele>783</ele>
        <time>2022-08-16T07:58:32Z</time>
      </trkpt>
      <trkpt lat="45.71997" lon="6.57188">
        <ele>783</ele>
        <time>2022-08-16T07:58:33Z</time>
      </trkpt>
      <trkpt lat="45.71997" lon="6.57195">
        <ele>783</ele>
        <time>2022-08-16T07:58:34Z</time>
      </trkpt>
      <trkpt lat="45.71995" lon="6.57202">
        <ele>784</ele>
        <time>2022-08-16T07:58:35Z</time>
      </trkpt>
      <trkpt lat="45.71992" lon="6.57208">
        <ele>784</ele>
        <time>2022-08-16T07:58:36Z</time>
      </trkpt>
      <trkpt lat="45.7199" lon="6.57214">
        <ele>784</ele>
        <time>2022-08-16T07:58:37Z</time>
      </trkpt>
      <trkpt lat="45.71988" lon="6.5722">
        <ele>784</ele>
        <time>2022-08-16T07:58:38Z</time>
      </trkpt>
      <trkpt lat="45.71986" lon="6.57226">
        <ele>784</ele>
        <time>2022-08-16T07:58:39Z</time>
      </trkpt>
      <trkpt lat="45.71984" lon="6.57233">
        <ele>783</ele>
        <time>2022-08-16T07:58:40Z</time>
      </trkpt>
      <trkpt lat="45.71982" lon="6.5724">
        <ele>783</ele>
        <time>2022-08-16T07:58:41Z</time>
      </trkpt>
      <trkpt lat="45.7198" lon="6.57247">
        <ele>783</ele>
        <time>2022-08-16T07:58:42Z</time>
      </trkpt>
      <trkpt lat="45.71978" lon="6.57253">
        <ele>783</ele>
        <time>2022-08-16T07:58:43Z</time>
      </trkpt>
      <trkpt lat="45.71975" lon="6.57258">
        <ele>784</ele>
        <time>2022-08-16T07:58:44Z</time>
      </trkpt>
      <trkpt lat="45.71973" lon="6.57263">
        <ele>784</ele>
        <time>2022-08-16T07:58:45Z</time>
      </trkpt>
      <trkpt lat="45.71971" lon="6.57268">
        <ele>784</ele>
        <time>2022-08-16T07:58:46Z</time>
      </trkpt>
      <trkpt lat="45.71968" lon="6.57273">
        <ele>784</ele>
        <time>2022-08-16T07:58:47Z</time>
      </trkpt>
      <trkpt lat="45.71966" lon="6.57278">
        <ele>784</ele>
        <time>2022-08-16T07:58:48Z</time>
      </trkpt>
      <trkpt lat="45.71964" lon="6.57282">
        <ele>784</ele>
        <time>2022-08-16T07:58:49Z</time>
      </trkpt>
      <trkpt lat="45.71962" lon="6.57287">
        <ele>784</ele>
        <time>2022-08-16T07:58:50Z</time>
      </trkpt>
      <trkpt lat="45.7196" lon="6.57291">
        <ele>784</ele>
        <time>2022-08-16T07:58:51Z</time>
      </trkpt>
      <trkpt lat="45.71958" lon="6.57296">
        <ele>785</ele>
        <time>2022-08-16T07:58:52Z</time>
      </trkpt>
      <trkpt lat="45.71956" lon="6.573">
        <ele>785</ele>
        <time>2022-08-16T07:58:53Z</time>
      </trkpt>
      <trkpt lat="45.71954" lon="6.57305">
        <ele>785</ele>
        <time>2022-08-16T07:58:54Z</time>
      </trkpt>
      <trkpt lat="45.71952" lon="6.57309">
        <ele>785</ele>
        <time>2022-08-16T07:58:55Z</time>
      </trkpt>
      <trkpt lat="45.71949" lon="6.57314">
        <ele>785</ele>
        <time>2022-08-16T07:58:56Z</time>
      </trkpt>
      <trkpt lat="45.71947" lon="6.57318">
        <ele>786</ele>
        <time>2022-08-16T07:58:57Z</time>
      </trkpt>
      <trkpt lat="45.71945" lon="6.57321">
        <ele>786</ele>
        <time>2022-08-16T07:58:58Z</time>
      </trkpt>
      <trkpt lat="45.71942" lon="6.57324">
        <ele>786</ele>
        <time>2022-08-16T07:58:59Z</time>
      </trkpt>
      <trkpt lat="45.71938" lon="6.57327">
        <ele>786</ele>
        <time>2022-08-16T07:59:00Z</time>
      </trkpt>
      <trkpt lat="45.71934" lon="6.57328">
        <ele>786</ele>
        <time>2022-08-16T07:59:01Z</time>
      </trkpt>
      <trkpt lat="45.7193" lon="6.5733">
        <ele>786</ele>
        <time>2022-08-16T07:59:02Z</time>
      </trkpt>
      <trkpt lat="45.71926" lon="6.57332">
        <ele>786</ele>
        <time>2022-08-16T07:59:03Z</time>
      </trkpt>
      <trkpt lat="45.71922" lon="6.57333">
        <ele>786</ele>
        <time>2022-08-16T07:59:04Z</time>
      </trkpt>
      <trkpt lat="45.71918" lon="6.57336">
        <ele>786</ele>
        <time>2022-08-16T07:59:05Z</time>
      </trkpt>
      <trkpt lat="45.71915" lon="6.57339">
        <ele>786</ele>
        <time>2022-08-16T07:59:06Z</time>
      </trkpt>
      <trkpt lat="45.71912" lon="6.57343">
        <ele>786</ele>
        <time>2022-08-16T07:59:07Z</time>
      </trkpt>
      <trkpt lat="45.71908" lon="6.57346">
        <ele>785</ele>
        <time>2022-08-16T07:59:08Z</time>
      </trkpt>
      <trkpt lat="45.71904" lon="6.5735">
        <ele>785</ele>
        <time>2022-08-16T07:59:09Z</time>
      </trkpt>
      <trkpt lat="45.71901" lon="6.57354">
        <ele>786</ele>
        <time>2022-08-16T07:59:10Z</time>
      </trkpt>
      <trkpt lat="45.71898" lon="6.57358">
        <ele>786</ele>
        <time>2022-08-16T07:59:11Z</time>
      </trkpt>
      <trkpt lat="45.71896" lon="6.57362">
        <ele>786</ele>
        <time>2022-08-16T07:59:12Z</time>
      </trkpt>
      <trkpt lat="45.71893" lon="6.57367">
        <ele>787</ele>
        <time>2022-08-16T07:59:13Z</time>
      </trkpt>
      <trkpt lat="45.71891" lon="6.57372">
        <ele>787</ele>
        <time>2022-08-16T07:59:14Z</time>
      </trkpt>
      <trkpt lat="45.71889" lon="6.57378">
        <ele>787</ele>
        <time>2022-08-16T07:59:15Z</time>
      </trkpt>
      <trkpt lat="45.71887" lon="6.57382">
        <ele>788</ele>
        <time>2022-08-16T07:59:16Z</time>
      </trkpt>
      <trkpt lat="45.71884" lon="6.57386">
        <ele>788</ele>
        <time>2022-08-16T07:59:17Z</time>
      </trkpt>
      <trkpt lat="45.71881" lon="6.5739">
        <ele>788</ele>
        <time>2022-08-16T07:59:18Z</time>
      </trkpt>
      <trkpt lat="45.71878" lon="6.57395">
        <ele>789</ele>
        <time>2022-08-16T07:59:19Z</time>
      </trkpt>
      <trkpt lat="45.71876" lon="6.57401">
        <ele>789</ele>
        <time>2022-08-16T07:59:20Z</time>
      </trkpt>
      <trkpt lat="45.71875" lon="6.57406">
        <ele>790</ele>
        <time>2022-08-16T07:59:21Z</time>
      </trkpt>
      <trkpt lat="45.71874" lon="6.57412">
        <ele>790</ele>
        <time>2022-08-16T07:59:22Z</time>
      </trkpt>
      <trkpt lat="45.71871" lon="6.57417">
        <ele>790</ele>
        <time>2022-08-16T07:59:23Z</time>
      </trkpt>
      <trkpt lat="45.71868" lon="6.5742">
        <ele>790</ele>
        <time>2022-08-16T07:59:24Z</time>
      </trkpt>
      <trkpt lat="45.71866" lon="6.57424">
        <ele>790</ele>
        <time>2022-08-16T07:59:25Z</time>
      </trkpt>
      <trkpt lat="45.71863" lon="6.57428">
        <ele>790</ele>
        <time>2022-08-16T07:59:26Z</time>
      </trkpt>
      <trkpt lat="45.7186" lon="6.57432">
        <ele>790</ele>
        <time>2022-08-16T07:59:27Z</time>
      </trkpt>
      <trkpt lat="45.71858" lon="6.57436">
        <ele>790</ele>
        <time>2022-08-16T07:59:28Z</time>
      </trkpt>
      <trkpt lat="45.71855" lon="6.5744">
        <ele>790</ele>
        <time>2022-08-16T07:59:29Z</time>
      </trkpt>
      <trkpt lat="45.71852" lon="6.57444">
        <ele>790</ele>
        <time>2022-08-16T07:59:30Z</time>
      </trkpt>
      <trkpt lat="45.7185" lon="6.57448">
        <ele>790</ele>
        <time>2022-08-16T07:59:31Z</time>
      </trkpt>
      <trkpt lat="45.71847" lon="6.57451">
        <ele>790</ele>
        <time>2022-08-16T07:59:32Z</time>
      </trkpt>
      <trkpt lat="45.71845" lon="6.57455">
        <ele>791</ele>
        <time>2022-08-16T07:59:33Z</time>
      </trkpt>
      <trkpt lat="45.71842" lon="6.57459">
        <ele>791</ele>
        <time>2022-08-16T07:59:34Z</time>
      </trkpt>
      <trkpt lat="45.7184" lon="6.57463">
        <ele>791</ele>
        <time>2022-08-16T07:59:35Z</time>
      </trkpt>
      <trkpt lat="45.71837" lon="6.57467">
        <ele>792</ele>
        <time>2022-08-16T07:59:36Z</time>
      </trkpt>
      <trkpt lat="45.71835" lon="6.5747">
        <ele>792</ele>
        <time>2022-08-16T07:59:37Z</time>
      </trkpt>
      <trkpt lat="45.71832" lon="6.57473">
        <ele>792</ele>
        <time>2022-08-16T07:59:38Z</time>
      </trkpt>
      <trkpt lat="45.7183" lon="6.57476">
        <ele>792</ele>
        <time>2022-08-16T07:59:39Z</time>
      </trkpt>
      <trkpt lat="45.71828" lon="6.57479">
        <ele>792</ele>
        <time>2022-08-16T07:59:40Z</time>
      </trkpt>
      <trkpt lat="45.71826" lon="6.57482">
        <ele>792</ele>
        <time>2022-08-16T07:59:41Z</time>
      </trkpt>
      <trkpt lat="45.71824" lon="6.57486">
        <ele>792</ele>
        <time>2022-08-16T07:59:42Z</time>
      </trkpt>
      <trkpt lat="45.71821" lon="6.57489">
        <ele>792</ele>
        <time>2022-08-16T07:59:43Z</time>
      </trkpt>
      <trkpt lat="45.71819" lon="6.57492">
        <ele>792</ele>
        <time>2022-08-16T07:59:44Z</time>
      </trkpt>
      <trkpt lat="45.71817" lon="6.57496">
        <ele>792</ele>
        <time>2022-08-16T07:59:45Z</time>
      </trkpt>
      <trkpt lat="45.71814" lon="6.57499">
        <ele>792</ele>
        <time>2022-08-16T07:59:46Z</time>
      </trkpt>
      <trkpt lat="45.71812" lon="6.57502">
        <ele>791</ele>
        <time>2022-08-16T07:59:47Z</time>
      </trkpt>
      <trkpt lat="45.7181" lon="6.57505">
        <ele>791</ele>
        <time>2022-08-16T07:59:48Z</time>
      </trkpt>
      <trkpt lat="45.71808" lon="6.57509">
        <ele>791</ele>
        <time>2022-08-16T07:59:49Z</time>
      </trkpt>
      <trkpt lat="45.71805" lon="6.57512">
        <ele>791</ele>
        <time>2022-08-16T07:59:50Z</time>
      </trkpt>
      <trkpt lat="45.71802" lon="6.57515">
        <ele>791</ele>
        <time>2022-08-16T07:59:51Z</time>
      </trkpt>
      <trkpt lat="45.718" lon="6.57518">
        <ele>792</ele>
        <time>2022-08-16T07:59:52Z</time>
      </trkpt>
      <trkpt lat="45.71798" lon="6.5752">
        <ele>792</ele>
        <time>2022-08-16T07:59:53Z</time>
      </trkpt>
      <trkpt lat="45.71796" lon="6.57522">
        <ele>792</ele>
        <time>2022-08-16T07:59:54Z</time>
      </trkpt>
      <trkpt lat="45.71794" lon="6.57525">
        <ele>792</ele>
        <time>2022-08-16T07:59:55Z</time>
      </trkpt>
      <trkpt lat="45.71792" lon="6.57527">
        <ele>792</ele>
        <time>2022-08-16T07:59:56Z</time>
      </trkpt>
      <trkpt lat="45.71789" lon="6.57531">
        <ele>791</ele>
        <time>2022-08-16T07:59:57Z</time>
      </trkpt>
      <trkpt lat="45.71786" lon="6.57534">
        <ele>791</ele>
        <time>2022-08-16T07:59:58Z</time>
      </trkpt>
      <trkpt lat="45.71783" lon="6.57537">
        <ele>791</ele>
        <time>2022-08-16T07:59:59Z</time>
      </trkpt>
      <trkpt lat="45.71781" lon="6.5754">
        <ele>791</ele>
        <time>2022-08-16T08:00:00Z</time>
      </trkpt>
      <trkpt lat="45.71778" lon="6.57543">
        <ele>791</ele>
        <time>2022-08-16T08:00:01Z</time>
      </trkpt>
      <trkpt lat="45.71775" lon="6.57546">
        <ele>791</ele>
        <time>2022-08-16T08:00:02Z</time>
      </trkpt>
      <trkpt lat="45.71771" lon="6.57548">
        <ele>791</ele>
        <time>2022-08-16T08:00:03Z</time>
      </trkpt>
      <trkpt lat="45.71768" lon="6.5755">
        <ele>792</ele>
        <time>2022-08-16T08:00:04Z</time>
      </trkpt>
      <trkpt lat="45.71765" lon="6.57552">
        <ele>792</ele>
        <time>2022-08-16T08:00:05Z</time>
      </trkpt>
      <trkpt lat="45.71762" lon="6.57554">
        <ele>792</ele>
        <time>2022-08-16T08:00:06Z</time>
      </trkpt>
      <trkpt lat="45.71759" lon="6.57556">
        <ele>792</ele>
        <time>2022-08-16T08:00:07Z</time>
      </trkpt>
      <trkpt lat="45.71756" lon="6.57558">
        <ele>792</ele>
        <time>2022-08-16T08:00:08Z</time>
      </trkpt>
      <trkpt lat="45.71753" lon="6.57559">
        <ele>793</ele>
        <time>2022-08-16T08:00:09Z</time>
      </trkpt>
      <trkpt lat="45.7175" lon="6.57561">
        <ele>793</ele>
        <time>2022-08-16T08:00:10Z</time>
      </trkpt>
      <trkpt lat="45.71748" lon="6.57561">
        <ele>793</ele>
        <time>2022-08-16T08:00:11Z</time>
      </trkpt>
      <trkpt lat="45.71745" lon="6.57562">
        <ele>793</ele>
        <time>2022-08-16T08:00:12Z</time>
      </trkpt>
      <trkpt lat="45.71742" lon="6.57563">
        <ele>793</ele>
        <time>2022-08-16T08:00:13Z</time>
      </trkpt>
      <trkpt lat="45.71739" lon="6.57563">
        <ele>793</ele>
        <time>2022-08-16T08:00:14Z</time>
      </trkpt>
      <trkpt lat="45.71736" lon="6.57564">
        <ele>793</ele>
        <time>2022-08-16T08:00:15Z</time>
      </trkpt>
      <trkpt lat="45.71734" lon="6.57565">
        <ele>794</ele>
        <time>2022-08-16T08:00:16Z</time>
      </trkpt>
      <trkpt lat="45.71732" lon="6.57567">
        <ele>794</ele>
        <time>2022-08-16T08:00:17Z</time>
      </trkpt>
      <trkpt lat="45.71729" lon="6.57569">
        <ele>794</ele>
        <time>2022-08-16T08:00:18Z</time>
      </trkpt>
      <trkpt lat="45.71726" lon="6.57572">
        <ele>794</ele>
        <time>2022-08-16T08:00:19Z</time>
      </trkpt>
      <trkpt lat="45.71723" lon="6.57574">
        <ele>794</ele>
        <time>2022-08-16T08:00:20Z</time>
      </trkpt>
      <trkpt lat="45.7172" lon="6.57577">
        <ele>794</ele>
        <time>2022-08-16T08:00:21Z</time>
      </trkpt>
      <trkpt lat="45.71717" lon="6.5758">
        <ele>794</ele>
        <time>2022-08-16T08:00:22Z</time>
      </trkpt>
      <trkpt lat="45.71713" lon="6.57583">
        <ele>795</ele>
        <time>2022-08-16T08:00:23Z</time>
      </trkpt>
      <trkpt lat="45.7171" lon="6.57585">
        <ele>795</ele>
        <time>2022-08-16T08:00:24Z</time>
      </trkpt>
      <trkpt lat="45.71706" lon="6.57587">
        <ele>795</ele>
        <time>2022-08-16T08:00:25Z</time>
      </trkpt>
      <trkpt lat="45.71703" lon="6.57589">
        <ele>795</ele>
        <time>2022-08-16T08:00:26Z</time>
      </trkpt>
      <trkpt lat="45.71701" lon="6.57592">
        <ele>795</ele>
        <time>2022-08-16T08:00:27Z</time>
      </trkpt>
      <trkpt lat="45.71698" lon="6.57596">
        <ele>795</ele>
        <time>2022-08-16T08:00:28Z</time>
      </trkpt>
      <trkpt lat="45.71697" lon="6.576">
        <ele>795</ele>
        <time>2022-08-16T08:00:29Z</time>
      </trkpt>
      <trkpt lat="45.71695" lon="6.57603">
        <ele>796</ele>
        <time>2022-08-16T08:00:30Z</time>
      </trkpt>
      <trkpt lat="45.71693" lon="6.57606">
        <ele>796</ele>
        <time>2022-08-16T08:00:31Z</time>
      </trkpt>
      <trkpt lat="45.7169" lon="6.57609">
        <ele>796</ele>
        <time>2022-08-16T08:00:32Z</time>
      </trkpt>
      <trkpt lat="45.71686" lon="6.5761">
        <ele>796</ele>
        <time>2022-08-16T08:00:33Z</time>
      </trkpt>
      <trkpt lat="45.71683" lon="6.5761">
        <ele>796</ele>
        <time>2022-08-16T08:00:34Z</time>
      </trkpt>
      <trkpt lat="45.7168" lon="6.57611">
        <ele>795</ele>
        <time>2022-08-16T08:00:35Z</time>
      </trkpt>
      <trkpt lat="45.71676" lon="6.57611">
        <ele>795</ele>
        <time>2022-08-16T08:00:36Z</time>
      </trkpt>
      <trkpt lat="45.71672" lon="6.57612">
        <ele>795</ele>
        <time>2022-08-16T08:00:37Z</time>
      </trkpt>
      <trkpt lat="45.71669" lon="6.57612">
        <ele>795</ele>
        <time>2022-08-16T08:00:38Z</time>
      </trkpt>
      <trkpt lat="45.71665" lon="6.57612">
        <ele>795</ele>
        <time>2022-08-16T08:00:39Z</time>
      </trkpt>
      <trkpt lat="45.71661" lon="6.57613">
        <ele>795</ele>
        <time>2022-08-16T08:00:40Z</time>
      </trkpt>
      <trkpt lat="45.71657" lon="6.57614">
        <ele>795</ele>
        <time>2022-08-16T08:00:41Z</time>
      </trkpt>
      <trkpt lat="45.71654" lon="6.57615">
        <ele>796</ele>
        <time>2022-08-16T08:00:42Z</time>
      </trkpt>
      <trkpt lat="45.7165" lon="6.57616">
        <ele>796</ele>
        <time>2022-08-16T08:00:43Z</time>
      </trkpt>
      <trkpt lat="45.71647" lon="6.57617">
        <ele>797</ele>
        <time>2022-08-16T08:00:44Z</time>
      </trkpt>
      <trkpt lat="45.71644" lon="6.57618">
        <ele>797</ele>
        <time>2022-08-16T08:00:45Z</time>
      </trkpt>
      <trkpt lat="45.71641" lon="6.57619">
        <ele>797</ele>
        <time>2022-08-16T08:00:46Z</time>
      </trkpt>
      <trkpt lat="45.71638" lon="6.5762">
        <ele>797</ele>
        <time>2022-08-16T08:00:47Z</time>
      </trkpt>
      <trkpt lat="45.71635" lon="6.57622">
        <ele>797</ele>
        <time>2022-08-16T08:00:48Z</time>
      </trkpt>
      <trkpt lat="45.71632" lon="6.57623">
        <ele>797</ele>
        <time>2022-08-16T08:00:49Z</time>
      </trkpt>
      <trkpt lat="45.71628" lon="6.57624">
        <ele>797</ele>
        <time>2022-08-16T08:00:50Z</time>
      </trkpt>
      <trkpt lat="45.71625" lon="6.57625">
        <ele>798</ele>
        <time>2022-08-16T08:00:51Z</time>
      </trkpt>
      <trkpt lat="45.71622" lon="6.57625">
        <ele>798</ele>
        <time>2022-08-16T08:00:52Z</time>
      </trkpt>
      <trkpt lat="45.71619" lon="6.57625">
        <ele>799</ele>
        <time>2022-08-16T08:00:53Z</time>
      </trkpt>
      <trkpt lat="45.71616" lon="6.57626">
        <ele>799</ele>
        <time>2022-08-16T08:00:54Z</time>
      </trkpt>
      <trkpt lat="45.71613" lon="6.57627">
        <ele>799</ele>
        <time>2022-08-16T08:00:55Z</time>
      </trkpt>
      <trkpt lat="45.7161" lon="6.57627">
        <ele>799</ele>
        <time>2022-08-16T08:00:56Z</time>
      </trkpt>
      <trkpt lat="45.71607" lon="6.57628">
        <ele>799</ele>
        <time>2022-08-16T08:00:57Z</time>
      </trkpt>
      <trkpt lat="45.71605" lon="6.57629">
        <ele>799</ele>
        <time>2022-08-16T08:00:58Z</time>
      </trkpt>
      <trkpt lat="45.71601" lon="6.57629">
        <ele>799</ele>
        <time>2022-08-16T08:00:59Z</time>
      </trkpt>
      <trkpt lat="45.71598" lon="6.5763">
        <ele>799</ele>
        <time>2022-08-16T08:01:00Z</time>
      </trkpt>
      <trkpt lat="45.71595" lon="6.57631">
        <ele>800</ele>
        <time>2022-08-16T08:01:01Z</time>
      </trkpt>
      <trkpt lat="45.71592" lon="6.57631">
        <ele>800</ele>
        <time>2022-08-16T08:01:02Z</time>
      </trkpt>
      <trkpt lat="45.71589" lon="6.57631">
        <ele>800</ele>
        <time>2022-08-16T08:01:03Z</time>
      </trkpt>
      <trkpt lat="45.71586" lon="6.57631">
        <ele>801</ele>
        <time>2022-08-16T08:01:04Z</time>
      </trkpt>
      <trkpt lat="45.71583" lon="6.57631">
        <ele>801</ele>
        <time>2022-08-16T08:01:05Z</time>
      </trkpt>
      <trkpt lat="45.7158" lon="6.57631">
        <ele>801</ele>
        <time>2022-08-16T08:01:06Z</time>
      </trkpt>
      <trkpt lat="45.71577" lon="6.57632">
        <ele>801</ele>
        <time>2022-08-16T08:01:07Z</time>
      </trkpt>
      <trkpt lat="45.71574" lon="6.57632">
        <ele>801</ele>
        <time>2022-08-16T08:01:08Z</time>
      </trkpt>
      <trkpt lat="45.71571" lon="6.57631">
        <ele>802</ele>
        <time>2022-08-16T08:01:09Z</time>
      </trkpt>
      <trkpt lat="45.71567" lon="6.5763">
        <ele>801</ele>
        <time>2022-08-16T08:01:10Z</time>
      </trkpt>
      <trkpt lat="45.71564" lon="6.5763">
        <ele>801</ele>
        <time>2022-08-16T08:01:11Z</time>
      </trkpt>
      <trkpt lat="45.71561" lon="6.57629">
        <ele>802</ele>
        <time>2022-08-16T08:01:12Z</time>
      </trkpt>
      <trkpt lat="45.71558" lon="6.57629">
        <ele>802</ele>
        <time>2022-08-16T08:01:13Z</time>
      </trkpt>
      <trkpt lat="45.71554" lon="6.5763">
        <ele>802</ele>
        <time>2022-08-16T08:01:14Z</time>
      </trkpt>
      <trkpt lat="45.71551" lon="6.57631">
        <ele>802</ele>
        <time>2022-08-16T08:01:15Z</time>
      </trkpt>
      <trkpt lat="45.71549" lon="6.5763">
        <ele>802</ele>
        <time>2022-08-16T08:01:16Z</time>
      </trkpt>
      <trkpt lat="45.71545" lon="6.5763">
        <ele>802</ele>
        <time>2022-08-16T08:01:17Z</time>
      </trkpt>
      <trkpt lat="45.71543" lon="6.57629">
        <ele>802</ele>
        <time>2022-08-16T08:01:18Z</time>
      </trkpt>
      <trkpt lat="45.71539" lon="6.57629">
        <ele>802</ele>
        <time>2022-08-16T08:01:19Z</time>
      </trkpt>
      <trkpt lat="45.71537" lon="6.57628">
        <ele>802</ele>
        <time>2022-08-16T08:01:20Z</time>
      </trkpt>
      <trkpt lat="45.71534" lon="6.57628">
        <ele>802</ele>
        <time>2022-08-16T08:01:21Z</time>
      </trkpt>
      <trkpt lat="45.71531" lon="6.57628">
        <ele>803</ele>
        <time>2022-08-16T08:01:22Z</time>
      </trkpt>
      <trkpt lat="45.71528" lon="6.57627">
        <ele>803</ele>
        <time>2022-08-16T08:01:23Z</time>
      </trkpt>
      <trkpt lat="45.71526" lon="6.57628">
        <ele>803</ele>
        <time>2022-08-16T08:01:24Z</time>
      </trkpt>
      <trkpt lat="45.71523" lon="6.57628">
        <ele>803</ele>
        <time>2022-08-16T08:01:25Z</time>
      </trkpt>
      <trkpt lat="45.71521" lon="6.57628">
        <ele>803</ele>
        <time>2022-08-16T08:01:26Z</time>
      </trkpt>
      <trkpt lat="45.71519" lon="6.57628">
        <ele>803</ele>
        <time>2022-08-16T08:01:27Z</time>
      </trkpt>
      <trkpt lat="45.71517" lon="6.57629">
        <ele>803</ele>
        <time>2022-08-16T08:01:28Z</time>
      </trkpt>
      <trkpt lat="45.71515" lon="6.57629">
        <ele>803</ele>
        <time>2022-08-16T08:01:29Z</time>
      </trkpt>
      <trkpt lat="45.71512" lon="6.57629">
        <ele>804</ele>
        <time>2022-08-16T08:01:30Z</time>
      </trkpt>
      <trkpt lat="45.7151" lon="6.57629">
        <ele>804</ele>
        <time>2022-08-16T08:01:31Z</time>
      </trkpt>
      <trkpt lat="45.71508" lon="6.5763">
        <ele>804</ele>
        <time>2022-08-16T08:01:32Z</time>
      </trkpt>
      <trkpt lat="45.71506" lon="6.5763">
        <ele>805</ele>
        <time>2022-08-16T08:01:33Z</time>
      </trkpt>
      <trkpt lat="45.71504" lon="6.57631">
        <ele>805</ele>
        <time>2022-08-16T08:01:34Z</time>
      </trkpt>
      <trkpt lat="45.71502" lon="6.57632">
        <ele>806</ele>
        <time>2022-08-16T08:01:35Z</time>
      </trkpt>
      <trkpt lat="45.71499" lon="6.57633">
        <ele>806</ele>
        <time>2022-08-16T08:01:36Z</time>
      </trkpt>
      <trkpt lat="45.71496" lon="6.57635">
        <ele>806</ele>
        <time>2022-08-16T08:01:37Z</time>
      </trkpt>
      <trkpt lat="45.71494" lon="6.57636">
        <ele>806</ele>
        <time>2022-08-16T08:01:38Z</time>
      </trkpt>
      <trkpt lat="45.71492" lon="6.57637">
        <ele>807</ele>
        <time>2022-08-16T08:01:39Z</time>
      </trkpt>
      <trkpt lat="45.7149" lon="6.57638">
        <ele>807</ele>
        <time>2022-08-16T08:01:40Z</time>
      </trkpt>
      <trkpt lat="45.71488" lon="6.57639">
        <ele>807</ele>
        <time>2022-08-16T08:01:41Z</time>
      </trkpt>
      <trkpt lat="45.71486" lon="6.5764">
        <ele>807</ele>
        <time>2022-08-16T08:01:42Z</time>
      </trkpt>
      <trkpt lat="45.71484" lon="6.57642">
        <ele>807</ele>
        <time>2022-08-16T08:01:43Z</time>
      </trkpt>
      <trkpt lat="45.71482" lon="6.57643">
        <ele>808</ele>
        <time>2022-08-16T08:01:44Z</time>
      </trkpt>
      <trkpt lat="45.71479" lon="6.57644">
        <ele>809</ele>
        <time>2022-08-16T08:01:45Z</time>
      </trkpt>
      <trkpt lat="45.71477" lon="6.57646">
        <ele>809</ele>
        <time>2022-08-16T08:01:46Z</time>
      </trkpt>
      <trkpt lat="45.71474" lon="6.57648">
        <ele>810</ele>
        <time>2022-08-16T08:01:47Z</time>
      </trkpt>
      <trkpt lat="45.71472" lon="6.57649">
        <ele>810</ele>
        <time>2022-08-16T08:01:48Z</time>
      </trkpt>
      <trkpt lat="45.7147" lon="6.57652">
        <ele>810</ele>
        <time>2022-08-16T08:01:49Z</time>
      </trkpt>
      <trkpt lat="45.71468" lon="6.57654">
        <ele>810</ele>
        <time>2022-08-16T08:01:50Z</time>
      </trkpt>
      <trkpt lat="45.71466" lon="6.57656">
        <ele>810</ele>
        <time>2022-08-16T08:01:51Z</time>
      </trkpt>
      <trkpt lat="45.71464" lon="6.57658">
        <ele>810</ele>
        <time>2022-08-16T08:01:52Z</time>
      </trkpt>
      <trkpt lat="45.71462" lon="6.5766">
        <ele>811</ele>
        <time>2022-08-16T08:01:53Z</time>
      </trkpt>
      <trkpt lat="45.7146" lon="6.57663">
        <ele>811</ele>
        <time>2022-08-16T08:01:54Z</time>
      </trkpt>
      <trkpt lat="45.71458" lon="6.57665">
        <ele>812</ele>
        <time>2022-08-16T08:01:55Z</time>
      </trkpt>
      <trkpt lat="45.71456" lon="6.57668">
        <ele>812</ele>
        <time>2022-08-16T08:01:56Z</time>
      </trkpt>
      <trkpt lat="45.71454" lon="6.57671">
        <ele>812</ele>
        <time>2022-08-16T08:01:57Z</time>
      </trkpt>
      <trkpt lat="45.71452" lon="6.57673">
        <ele>813</ele>
        <time>2022-08-16T08:01:58Z</time>
      </trkpt>
      <trkpt lat="45.7145" lon="6.57676">
        <ele>813</ele>
        <time>2022-08-16T08:01:59Z</time>
      </trkpt>
      <trkpt lat="45.71448" lon="6.57679">
        <ele>814</ele>
        <time>2022-08-16T08:02:00Z</time>
      </trkpt>
      <trkpt lat="45.71447" lon="6.57683">
        <ele>814</ele>
        <time>2022-08-16T08:02:01Z</time>
      </trkpt>
      <trkpt lat="45.71445" lon="6.57686">
        <ele>815</ele>
        <time>2022-08-16T08:02:02Z</time>
      </trkpt>
      <trkpt lat="45.71445" lon="6.57691">
        <ele>815</ele>
        <time>2022-08-16T08:02:03Z</time>
      </trkpt>
      <trkpt lat="45.71443" lon="6.57694">
        <ele>816</ele>
        <time>2022-08-16T08:02:04Z</time>
      </trkpt>
      <trkpt lat="45.71442" lon="6.57698">
        <ele>816</ele>
        <time>2022-08-16T08:02:05Z</time>
      </trkpt>
      <trkpt lat="45.71441" lon="6.57703">
        <ele>816</ele>
        <time>2022-08-16T08:02:06Z</time>
      </trkpt>
      <trkpt lat="45.71441" lon="6.57707">
        <ele>817</ele>
        <time>2022-08-16T08:02:07Z</time>
      </trkpt>
      <trkpt lat="45.7144" lon="6.57711">
        <ele>817</ele>
        <time>2022-08-16T08:02:08Z</time>
      </trkpt>
      <trkpt lat="45.71439" lon="6.57715">
        <ele>817</ele>
        <time>2022-08-16T08:02:09Z</time>
      </trkpt>
      <trkpt lat="45.71438" lon="6.5772">
        <ele>818</ele>
        <time>2022-08-16T08:02:10Z</time>
      </trkpt>
      <trkpt lat="45.71438" lon="6.57724">
        <ele>817</ele>
        <time>2022-08-16T08:02:11Z</time>
      </trkpt>
      <trkpt lat="45.71437" lon="6.57728">
        <ele>817</ele>
        <time>2022-08-16T08:02:12Z</time>
      </trkpt>
      <trkpt lat="45.71437" lon="6.57732">
        <ele>817</ele>
        <time>2022-08-16T08:02:13Z</time>
      </trkpt>
      <trkpt lat="45.71436" lon="6.57736">
        <ele>818</ele>
        <time>2022-08-16T08:02:14Z</time>
      </trkpt>
      <trkpt lat="45.71435" lon="6.5774">
        <ele>818</ele>
        <time>2022-08-16T08:02:15Z</time>
      </trkpt>
      <trkpt lat="45.71434" lon="6.57745">
        <ele>818</ele>
        <time>2022-08-16T08:02:16Z</time>
      </trkpt>
      <trkpt lat="45.71433" lon="6.57748">
        <ele>818</ele>
        <time>2022-08-16T08:02:17Z</time>
      </trkpt>
      <trkpt lat="45.71432" lon="6.57752">
        <ele>818</ele>
        <time>2022-08-16T08:02:18Z</time>
      </trkpt>
      <trkpt lat="45.71432" lon="6.57757">
        <ele>818</ele>
        <time>2022-08-16T08:02:19Z</time>
      </trkpt>
      <trkpt lat="45.71431" lon="6.57761">
        <ele>818</ele>
        <time>2022-08-16T08:02:20Z</time>
      </trkpt>
      <trkpt lat="45.71431" lon="6.57766">
        <ele>818</ele>
        <time>2022-08-16T08:02:21Z</time>
      </trkpt>
      <trkpt lat="45.7143" lon="6.57771">
        <ele>818</ele>
        <time>2022-08-16T08:02:22Z</time>
      </trkpt>
      <trkpt lat="45.7143" lon="6.57776">
        <ele>818</ele>
        <time>2022-08-16T08:02:23Z</time>
      </trkpt>
      <trkpt lat="45.7143" lon="6.5778">
        <ele>817</ele>
        <time>2022-08-16T08:02:24Z</time>
      </trkpt>
      <trkpt lat="45.7143" lon="6.57784">
        <ele>817</ele>
        <time>2022-08-16T08:02:25Z</time>
      </trkpt>
      <trkpt lat="45.71431" lon="6.57788">
        <ele>817</ele>
        <time>2022-08-16T08:02:26Z</time>
      </trkpt>
      <trkpt lat="45.71433" lon="6.5779">
        <ele>818</ele>
        <time>2022-08-16T08:02:27Z</time>
      </trkpt>
      <trkpt lat="45.71436" lon="6.57791">
        <ele>818</ele>
        <time>2022-08-16T08:02:28Z</time>
      </trkpt>
      <trkpt lat="45.71439" lon="6.5779">
        <ele>818</ele>
        <time>2022-08-16T08:02:29Z</time>
      </trkpt>
      <trkpt lat="45.71441" lon="6.57787">
        <ele>819</ele>
        <time>2022-08-16T08:02:30Z</time>
      </trkpt>
      <trkpt lat="45.71443" lon="6.57785">
        <ele>819</ele>
        <time>2022-08-16T08:02:31Z</time>
      </trkpt>
      <trkpt lat="45.71445" lon="6.57781">
        <ele>819</ele>
        <time>2022-08-16T08:02:32Z</time>
      </trkpt>
      <trkpt lat="45.71446" lon="6.57779">
        <ele>820</ele>
        <time>2022-08-16T08:02:33Z</time>
      </trkpt>
      <trkpt lat="45.71447" lon="6.57776">
        <ele>820</ele>
        <time>2022-08-16T08:02:34Z</time>
      </trkpt>
      <trkpt lat="45.71447" lon="6.57773">
        <ele>820</ele>
        <time>2022-08-16T08:02:35Z</time>
      </trkpt>
      <trkpt lat="45.71448" lon="6.57771">
        <ele>820</ele>
        <time>2022-08-16T08:02:36Z</time>
      </trkpt>
      <trkpt lat="45.71449" lon="6.57768">
        <ele>820</ele>
        <time>2022-08-16T08:02:37Z</time>
      </trkpt>
      <trkpt lat="45.7145" lon="6.57766">
        <ele>820</ele>
        <time>2022-08-16T08:02:38Z</time>
      </trkpt>
      <trkpt lat="45.71452" lon="6.57764">
        <ele>820</ele>
        <time>2022-08-16T08:02:39Z</time>
      </trkpt>
      <trkpt lat="45.71453" lon="6.57762">
        <ele>820</ele>
        <time>2022-08-16T08:02:40Z</time>
      </trkpt>
      <trkpt lat="45.71454" lon="6.5776">
        <ele>821</ele>
        <time>2022-08-16T08:02:41Z</time>
      </trkpt>
      <trkpt lat="45.71455" lon="6.57757">
        <ele>821</ele>
        <time>2022-08-16T08:02:42Z</time>
      </trkpt>
      <trkpt lat="45.71456" lon="6.57756">
        <ele>821</ele>
        <time>2022-08-16T08:02:43Z</time>
      </trkpt>
      <trkpt lat="45.71457" lon="6.57754">
        <ele>821</ele>
        <time>2022-08-16T08:02:44Z</time>
      </trkpt>
      <trkpt lat="45.71458" lon="6.57752">
        <ele>821</ele>
        <time>2022-08-16T08:02:45Z</time>
      </trkpt>
      <trkpt lat="45.7146" lon="6.57749">
        <ele>822</ele>
        <time>2022-08-16T08:02:46Z</time>
      </trkpt>
      <trkpt lat="45.71461" lon="6.57747">
        <ele>822</ele>
        <time>2022-08-16T08:02:47Z</time>
      </trkpt>
      <trkpt lat="45.71462" lon="6.57745">
        <ele>822</ele>
        <time>2022-08-16T08:02:48Z</time>
      </trkpt>
      <trkpt lat="45.71463" lon="6.57742">
        <ele>822</ele>
        <time>2022-08-16T08:02:49Z</time>
      </trkpt>
      <trkpt lat="45.71464" lon="6.5774">
        <ele>823</ele>
        <time>2022-08-16T08:02:50Z</time>
      </trkpt>
      <trkpt lat="45.71466" lon="6.57737">
        <ele>823</ele>
        <time>2022-08-16T08:02:51Z</time>
      </trkpt>
      <trkpt lat="45.71467" lon="6.57734">
        <ele>824</ele>
        <time>2022-08-16T08:02:52Z</time>
      </trkpt>
      <trkpt lat="45.71468" lon="6.57732">
        <ele>824</ele>
        <time>2022-08-16T08:02:53Z</time>
      </trkpt>
      <trkpt lat="45.71469" lon="6.5773">
        <ele>825</ele>
        <time>2022-08-16T08:02:54Z</time>
      </trkpt>
      <trkpt lat="45.7147" lon="6.57727">
        <ele>825</ele>
        <time>2022-08-16T08:02:55Z</time>
      </trkpt>
      <trkpt lat="45.71471" lon="6.57724">
        <ele>825</ele>
        <time>2022-08-16T08:02:56Z</time>
      </trkpt>
      <trkpt lat="45.71473" lon="6.57722">
        <ele>826</ele>
        <time>2022-08-16T08:02:57Z</time>
      </trkpt>
      <trkpt lat="45.71474" lon="6.5772">
        <ele>826</ele>
        <time>2022-08-16T08:02:58Z</time>
      </trkpt>
      <trkpt lat="45.71476" lon="6.57719">
        <ele>827</ele>
        <time>2022-08-16T08:02:59Z</time>
      </trkpt>
      <trkpt lat="45.71477" lon="6.57717">
        <ele>827</ele>
        <time>2022-08-16T08:03:00Z</time>
      </trkpt>
      <trkpt lat="45.71479" lon="6.57716">
        <ele>827</ele>
        <time>2022-08-16T08:03:01Z</time>
      </trkpt>
      <trkpt lat="45.7148" lon="6.57716">
        <ele>827</ele>
        <time>2022-08-16T08:03:02Z</time>
      </trkpt>
      <trkpt lat="45.71481" lon="6.57716">
        <ele>827</ele>
        <time>2022-08-16T08:03:03Z</time>
      </trkpt>
      <trkpt lat="45.71481" lon="6.57716">
        <ele>827</ele>
        <time>2022-08-16T08:03:04Z</time>
      </trkpt>
      <trkpt lat="45.71481" lon="6.57716">
        <ele>827</ele>
        <time>2022-08-16T08:03:05Z</time>
      </trkpt>
      <trkpt lat="45.71482" lon="6.57717">
        <ele>827</ele>
        <time>2022-08-16T08:03:06Z</time>
      </trkpt>
      <trkpt lat="45.71481" lon="6.57717">
        <ele>827</ele>
        <time>2022-08-16T08:03:07Z</time>
      </trkpt>
      <trkpt lat="45.71482" lon="6.57717">
        <ele>827</ele>
        <time>2022-08-16T08:03:08Z</time>
      </trkpt>
      <trkpt lat="45.71482" lon="6.57717">
        <ele>827</ele>
        <time>2022-08-16T08:03:09Z</time>
      </trkpt>
      <trkpt lat="45.71482" lon="6.57717">
        <ele>827</ele>
        <time>2022-08-16T08:03:10Z</time>
      </trkpt>
      <trkpt lat="45.71482" lon="6.57717">
        <ele>827</ele>
        <time>2022-08-16T08:03:11Z</time>
      </trkpt>
      <trkpt lat="45.71483" lon="6.57717">
        <ele>827</ele>
        <time>2022-08-16T08:03:12Z</time>
      </trkpt>
      <trkpt lat="45.71484" lon="6.57718">
        <ele>827</ele>
        <time>2022-08-16T08:03:13Z</time>
      </trkpt>
      <trkpt lat="45.71486" lon="6.57719">
        <ele>827</ele>
        <time>2022-08-16T08:03:14Z</time>
      </trkpt>
      <trkpt lat="45.71488" lon="6.57719">
        <ele>827</ele>
        <time>2022-08-16T08:03:15Z</time>
      </trkpt>
      <trkpt lat="45.7149" lon="6.5772">
        <ele>828</ele>
        <time>2022-08-16T08:03:16Z</time>
      </trkpt>
      <trkpt lat="45.71491" lon="6.57721">
        <ele>828</ele>
        <time>2022-08-16T08:03:17Z</time>
      </trkpt>
      <trkpt lat="45.71493" lon="6.57722">
        <ele>828</ele>
        <time>2022-08-16T08:03:18Z</time>
      </trkpt>
      <trkpt lat="45.71495" lon="6.57722">
        <ele>828</ele>
        <time>2022-08-16T08:03:19Z</time>
      </trkpt>
      <trkpt lat="45.71497" lon="6.57723">
        <ele>828</ele>
        <time>2022-08-16T08:03:20Z</time>
      </trkpt>
      <trkpt lat="45.71499" lon="6.57724">
        <ele>828</ele>
        <time>2022-08-16T08:03:21Z</time>
      </trkpt>
      <trkpt lat="45.71501" lon="6.57725">
        <ele>828</ele>
        <time>2022-08-16T08:03:22Z</time>
      </trkpt>
      <trkpt lat="45.71502" lon="6.57725">
        <ele>828</ele>
        <time>2022-08-16T08:03:23Z</time>
      </trkpt>
      <trkpt lat="45.71504" lon="6.57724">
        <ele>828</ele>
        <time>2022-08-16T08:03:24Z</time>
      </trkpt>
      <trkpt lat="45.71506" lon="6.57724">
        <ele>828</ele>
        <time>2022-08-16T08:03:25Z</time>
      </trkpt>
      <trkpt lat="45.71507" lon="6.57724">
        <ele>828</ele>
        <time>2022-08-16T08:03:26Z</time>
      </trkpt>
      <trkpt lat="45.71509" lon="6.57724">
        <ele>828</ele>
        <time>2022-08-16T08:03:27Z</time>
      </trkpt>
      <trkpt lat="45.71511" lon="6.57724">
        <ele>828</ele>
        <time>2022-08-16T08:03:28Z</time>
      </trkpt>
      <trkpt lat="45.71512" lon="6.57725">
        <ele>828</ele>
        <time>2022-08-16T08:03:29Z</time>
      </trkpt>
      <trkpt lat="45.71513" lon="6.57727">
        <ele>828</ele>
        <time>2022-08-16T08:03:30Z</time>
      </trkpt>
      <trkpt lat="45.71515" lon="6.57728">
        <ele>828</ele>
        <time>2022-08-16T08:03:31Z</time>
      </trkpt>
      <trkpt lat="45.71516" lon="6.57729">
        <ele>828</ele>
        <time>2022-08-16T08:03:32Z</time>
      </trkpt>
      <trkpt lat="45.71518" lon="6.5773">
        <ele>827</ele>
        <time>2022-08-16T08:03:33Z</time>
      </trkpt>
      <trkpt lat="45.7152" lon="6.57731">
        <ele>827</ele>
        <time>2022-08-16T08:03:34Z</time>
      </trkpt>
      <trkpt lat="45.71522" lon="6.57732">
        <ele>827</ele>
        <time>2022-08-16T08:03:35Z</time>
      </trkpt>
      <trkpt lat="45.71524" lon="6.57733">
        <ele>827</ele>
        <time>2022-08-16T08:03:36Z</time>
      </trkpt>
      <trkpt lat="45.71526" lon="6.57734">
        <ele>826</ele>
        <time>2022-08-16T08:03:37Z</time>
      </trkpt>
      <trkpt lat="45.71527" lon="6.57735">
        <ele>826</ele>
        <time>2022-08-16T08:03:38Z</time>
      </trkpt>
      <trkpt lat="45.71529" lon="6.57735">
        <ele>826</ele>
        <time>2022-08-16T08:03:39Z</time>
      </trkpt>
      <trkpt lat="45.71531" lon="6.57736">
        <ele>826</ele>
        <time>2022-08-16T08:03:40Z</time>
      </trkpt>
      <trkpt lat="45.71532" lon="6.57737">
        <ele>826</ele>
        <time>2022-08-16T08:03:41Z</time>
      </trkpt>
      <trkpt lat="45.71534" lon="6.57738">
        <ele>826</ele>
        <time>2022-08-16T08:03:42Z</time>
      </trkpt>
      <trkpt lat="45.71536" lon="6.57737">
        <ele>826</ele>
        <time>2022-08-16T08:03:43Z</time>
      </trkpt>
      <trkpt lat="45.71538" lon="6.57738">
        <ele>826</ele>
        <time>2022-08-16T08:03:44Z</time>
      </trkpt>
      <trkpt lat="45.7154" lon="6.57737">
        <ele>827</ele>
        <time>2022-08-16T08:03:45Z</time>
      </trkpt>
      <trkpt lat="45.71541" lon="6.57736">
        <ele>827</ele>
        <time>2022-08-16T08:03:46Z</time>
      </trkpt>
      <trkpt lat="45.71543" lon="6.57736">
        <ele>827</ele>
        <time>2022-08-16T08:03:47Z</time>
      </trkpt>
      <trkpt lat="45.71544" lon="6.57734">
        <ele>827</ele>
        <time>2022-08-16T08:03:48Z</time>
      </trkpt>
      <trkpt lat="45.71545" lon="6.57734">
        <ele>828</ele>
        <time>2022-08-16T08:03:49Z</time>
      </trkpt>
      <trkpt lat="45.71547" lon="6.57732">
        <ele>828</ele>
        <time>2022-08-16T08:03:50Z</time>
      </trkpt>
      <trkpt lat="45.71549" lon="6.57731">
        <ele>828</ele>
        <time>2022-08-16T08:03:51Z</time>
      </trkpt>
      <trkpt lat="45.71551" lon="6.5773">
        <ele>829</ele>
        <time>2022-08-16T08:03:52Z</time>
      </trkpt>
      <trkpt lat="45.71553" lon="6.57729">
        <ele>829</ele>
        <time>2022-08-16T08:03:53Z</time>
      </trkpt>
      <trkpt lat="45.71554" lon="6.57727">
        <ele>829</ele>
        <time>2022-08-16T08:03:54Z</time>
      </trkpt>
      <trkpt lat="45.71555" lon="6.57726">
        <ele>830</ele>
        <time>2022-08-16T08:03:55Z</time>
      </trkpt>
      <trkpt lat="45.71557" lon="6.57725">
        <ele>830</ele>
        <time>2022-08-16T08:03:56Z</time>
      </trkpt>
      <trkpt lat="45.71559" lon="6.57723">
        <ele>830</ele>
        <time>2022-08-16T08:03:57Z</time>
      </trkpt>
      <trkpt lat="45.7156" lon="6.57722">
        <ele>831</ele>
        <time>2022-08-16T08:03:58Z</time>
      </trkpt>
      <trkpt lat="45.71562" lon="6.5772">
        <ele>832</ele>
        <time>2022-08-16T08:03:59Z</time>
      </trkpt>
      <trkpt lat="45.71564" lon="6.57719">
        <ele>833</ele>
        <time>2022-08-16T08:04:00Z</time>
      </trkpt>
      <trkpt lat="45.71565" lon="6.57717">
        <ele>834</ele>
        <time>2022-08-16T08:04:01Z</time>
      </trkpt>
      <trkpt lat="45.71567" lon="6.57715">
        <ele>835</ele>
        <time>2022-08-16T08:04:02Z</time>
      </trkpt>
      <trkpt lat="45.7157" lon="6.57715">
        <ele>835</ele>
        <time>2022-08-16T08:04:03Z</time>
      </trkpt>
      <trkpt lat="45.71572" lon="6.57714">
        <ele>835</ele>
        <time>2022-08-16T08:04:04Z</time>
      </trkpt>
      <trkpt lat="45.71574" lon="6.57712">
        <ele>836</ele>
        <time>2022-08-16T08:04:05Z</time>
      </trkpt>
      <trkpt lat="45.71576" lon="6.57711">
        <ele>838</ele>
        <time>2022-08-16T08:04:06Z</time>
      </trkpt>
      <trkpt lat="45.71578" lon="6.5771">
        <ele>839</ele>
        <time>2022-08-16T08:04:07Z</time>
      </trkpt>
      <trkpt lat="45.7158" lon="6.57709">
        <ele>840</ele>
        <time>2022-08-16T08:04:08Z</time>
      </trkpt>
      <trkpt lat="45.71582" lon="6.57707">
        <ele>840</ele>
        <time>2022-08-16T08:04:09Z</time>
      </trkpt>
      <trkpt lat="45.71584" lon="6.57707">
        <ele>841</ele>
        <time>2022-08-16T08:04:10Z</time>
      </trkpt>
      <trkpt lat="45.71586" lon="6.57706">
        <ele>842</ele>
        <time>2022-08-16T08:04:11Z</time>
      </trkpt>
      <trkpt lat="45.71588" lon="6.57705">
        <ele>843</ele>
        <time>2022-08-16T08:04:12Z</time>
      </trkpt>
      <trkpt lat="45.7159" lon="6.57704">
        <ele>843</ele>
        <time>2022-08-16T08:04:13Z</time>
      </trkpt>
      <trkpt lat="45.71592" lon="6.57703">
        <ele>843</ele>
        <time>2022-08-16T08:04:14Z</time>
      </trkpt>
      <trkpt lat="45.71594" lon="6.57703">
        <ele>843</ele>
        <time>2022-08-16T08:04:15Z</time>
      </trkpt>
      <trkpt lat="45.71596" lon="6.57703">
        <ele>843</ele>
        <time>2022-08-16T08:04:16Z</time>
      </trkpt>
      <trkpt lat="45.71599" lon="6.57703">
        <ele>842</ele>
        <time>2022-08-16T08:04:17Z</time>
      </trkpt>
      <trkpt lat="45.71601" lon="6.57704">
        <ele>842</ele>
        <time>2022-08-16T08:04:18Z</time>
      </trkpt>
      <trkpt lat="45.71604" lon="6.57704">
        <ele>841</ele>
        <time>2022-08-16T08:04:19Z</time>
      </trkpt>
      <trkpt lat="45.71606" lon="6.57703">
        <ele>841</ele>
        <time>2022-08-16T08:04:20Z</time>
      </trkpt>
      <trkpt lat="45.71608" lon="6.57703">
        <ele>842</ele>
        <time>2022-08-16T08:04:21Z</time>
      </trkpt>
      <trkpt lat="45.71611" lon="6.57703">
        <ele>842</ele>
        <time>2022-08-16T08:04:22Z</time>
      </trkpt>
      <trkpt lat="45.71612" lon="6.57703">
        <ele>842</ele>
        <time>2022-08-16T08:04:23Z</time>
      </trkpt>
      <trkpt lat="45.71615" lon="6.57703">
        <ele>841</ele>
        <time>2022-08-16T08:04:24Z</time>
      </trkpt>
      <trkpt lat="45.71616" lon="6.57704">
        <ele>842</ele>
        <time>2022-08-16T08:04:25Z</time>
      </trkpt>
      <trkpt lat="45.71618" lon="6.57704">
        <ele>843</ele>
        <time>2022-08-16T08:04:26Z</time>
      </trkpt>
      <trkpt lat="45.7162" lon="6.57704">
        <ele>843</ele>
        <time>2022-08-16T08:04:27Z</time>
      </trkpt>
      <trkpt lat="45.71622" lon="6.57705">
        <ele>843</ele>
        <time>2022-08-16T08:04:28Z</time>
      </trkpt>
      <trkpt lat="45.71624" lon="6.57705">
        <ele>843</ele>
        <time>2022-08-16T08:04:29Z</time>
      </trkpt>
      <trkpt lat="45.71626" lon="6.57706">
        <ele>844</ele>
        <time>2022-08-16T08:04:30Z</time>
      </trkpt>
      <trkpt lat="45.71628" lon="6.57707">
        <ele>844</ele>
        <time>2022-08-16T08:04:31Z</time>
      </trkpt>
      <trkpt lat="45.7163" lon="6.57708">
        <ele>844</ele>
        <time>2022-08-16T08:04:32Z</time>
      </trkpt>
      <trkpt lat="45.71632" lon="6.57708">
        <ele>844</ele>
        <time>2022-08-16T08:04:33Z</time>
      </trkpt>
      <trkpt lat="45.71634" lon="6.57709">
        <ele>844</ele>
        <time>2022-08-16T08:04:34Z</time>
      </trkpt>
      <trkpt lat="45.71635" lon="6.5771">
        <ele>845</ele>
        <time>2022-08-16T08:04:35Z</time>
      </trkpt>
      <trkpt lat="45.71637" lon="6.57711">
        <ele>845</ele>
        <time>2022-08-16T08:04:36Z</time>
      </trkpt>
      <trkpt lat="45.71638" lon="6.57712">
        <ele>846</ele>
        <time>2022-08-16T08:04:37Z</time>
      </trkpt>
      <trkpt lat="45.7164" lon="6.57714">
        <ele>846</ele>
        <time>2022-08-16T08:04:38Z</time>
      </trkpt>
      <trkpt lat="45.71641" lon="6.57716">
        <ele>846</ele>
        <time>2022-08-16T08:04:39Z</time>
      </trkpt>
      <trkpt lat="45.71643" lon="6.57717">
        <ele>846</ele>
        <time>2022-08-16T08:04:40Z</time>
      </trkpt>
      <trkpt lat="45.71644" lon="6.57718">
        <ele>846</ele>
        <time>2022-08-16T08:04:41Z</time>
      </trkpt>
      <trkpt lat="45.71645" lon="6.5772">
        <ele>847</ele>
        <time>2022-08-16T08:04:42Z</time>
      </trkpt>
      <trkpt lat="45.71647" lon="6.57721">
        <ele>847</ele>
        <time>2022-08-16T08:04:43Z</time>
      </trkpt>
      <trkpt lat="45.71648" lon="6.57722">
        <ele>848</ele>
        <time>2022-08-16T08:04:44Z</time>
      </trkpt>
      <trkpt lat="45.7165" lon="6.57723">
        <ele>848</ele>
        <time>2022-08-16T08:04:45Z</time>
      </trkpt>
      <trkpt lat="45.71651" lon="6.57724">
        <ele>848</ele>
        <time>2022-08-16T08:04:46Z</time>
      </trkpt>
      <trkpt lat="45.71652" lon="6.57725">
        <ele>848</ele>
        <time>2022-08-16T08:04:47Z</time>
      </trkpt>
      <trkpt lat="45.71653" lon="6.57727">
        <ele>848</ele>
        <time>2022-08-16T08:04:48Z</time>
      </trkpt>
      <trkpt lat="45.71655" lon="6.57729">
        <ele>849</ele>
        <time>2022-08-16T08:04:49Z</time>
      </trkpt>
      <trkpt lat="45.71656" lon="6.5773">
        <ele>849</ele>
        <time>2022-08-16T08:04:50Z</time>
      </trkpt>
      <trkpt lat="45.71657" lon="6.57732">
        <ele>849</ele>
        <time>2022-08-16T08:04:51Z</time>
      </trkpt>
      <trkpt lat="45.71659" lon="6.57734">
        <ele>849</ele>
        <time>2022-08-16T08:04:52Z</time>
      </trkpt>
      <trkpt lat="45.7166" lon="6.57736">
        <ele>849</ele>
        <time>2022-08-16T08:04:53Z</time>
      </trkpt>
      <trkpt lat="45.71661" lon="6.57738">
        <ele>849</ele>
        <time>2022-08-16T08:04:54Z</time>
      </trkpt>
      <trkpt lat="45.71662" lon="6.5774">
        <ele>848</ele>
        <time>2022-08-16T08:04:55Z</time>
      </trkpt>
      <trkpt lat="45.71663" lon="6.57741">
        <ele>848</ele>
        <time>2022-08-16T08:04:56Z</time>
      </trkpt>
      <trkpt lat="45.71664" lon="6.57743">
        <ele>848</ele>
        <time>2022-08-16T08:04:57Z</time>
      </trkpt>
      <trkpt lat="45.71666" lon="6.57744">
        <ele>849</ele>
        <time>2022-08-16T08:04:58Z</time>
      </trkpt>
      <trkpt lat="45.71667" lon="6.57745">
        <ele>849</ele>
        <time>2022-08-16T08:04:59Z</time>
      </trkpt>
      <trkpt lat="45.71669" lon="6.57747">
        <ele>849</ele>
        <time>2022-08-16T08:05:00Z</time>
      </trkpt>
      <trkpt lat="45.7167" lon="6.57749">
        <ele>849</ele>
        <time>2022-08-16T08:05:01Z</time>
      </trkpt>
      <trkpt lat="45.71671" lon="6.57751">
        <ele>849</ele>
        <time>2022-08-16T08:05:02Z</time>
      </trkpt>
      <trkpt lat="45.71673" lon="6.57752">
        <ele>849</ele>
        <time>2022-08-16T08:05:03Z</time>
      </trkpt>
      <trkpt lat="45.71674" lon="6.57754">
        <ele>850</ele>
        <time>2022-08-16T08:05:04Z</time>
      </trkpt>
      <trkpt lat="45.71676" lon="6.57756">
        <ele>850</ele>
        <time>2022-08-16T08:05:05Z</time>
      </trkpt>
      <trkpt lat="45.71677" lon="6.57757">
        <ele>851</ele>
        <time>2022-08-16T08:05:06Z</time>
      </trkpt>
      <trkpt lat="45.71679" lon="6.57758">
        <ele>851</ele>
        <time>2022-08-16T08:05:07Z</time>
      </trkpt>
      <trkpt lat="45.7168" lon="6.5776">
        <ele>851</ele>
        <time>2022-08-16T08:05:08Z</time>
      </trkpt>
      <trkpt lat="45.71682" lon="6.57762">
        <ele>852</ele>
        <time>2022-08-16T08:05:09Z</time>
      </trkpt>
      <trkpt lat="45.71684" lon="6.57763">
        <ele>852</ele>
        <time>2022-08-16T08:05:10Z</time>
      </trkpt>
      <trkpt lat="45.71686" lon="6.57765">
        <ele>852</ele>
        <time>2022-08-16T08:05:11Z</time>
      </trkpt>
      <trkpt lat="45.71688" lon="6.57767">
        <ele>852</ele>
        <time>2022-08-16T08:05:12Z</time>
      </trkpt>
      <trkpt lat="45.7169" lon="6.57768">
        <ele>852</ele>
        <time>2022-08-16T08:05:13Z</time>
      </trkpt>
      <trkpt lat="45.71691" lon="6.5777">
        <ele>853</ele>
        <time>2022-08-16T08:05:14Z</time>
      </trkpt>
      <trkpt lat="45.71693" lon="6.57772">
        <ele>853</ele>
        <time>2022-08-16T08:05:15Z</time>
      </trkpt>
      <trkpt lat="45.71694" lon="6.57773">
        <ele>854</ele>
        <time>2022-08-16T08:05:16Z</time>
      </trkpt>
      <trkpt lat="45.71695" lon="6.57775">
        <ele>854</ele>
        <time>2022-08-16T08:05:17Z</time>
      </trkpt>
      <trkpt lat="45.71696" lon="6.57777">
        <ele>855</ele>
        <time>2022-08-16T08:05:18Z</time>
      </trkpt>
      <trkpt lat="45.71697" lon="6.57779">
        <ele>855</ele>
        <time>2022-08-16T08:05:19Z</time>
      </trkpt>
      <trkpt lat="45.71698" lon="6.57781">
        <ele>855</ele>
        <time>2022-08-16T08:05:20Z</time>
      </trkpt>
      <trkpt lat="45.71699" lon="6.57783">
        <ele>855</ele>
        <time>2022-08-16T08:05:21Z</time>
      </trkpt>
      <trkpt lat="45.71698" lon="6.57786">
        <ele>856</ele>
        <time>2022-08-16T08:05:22Z</time>
      </trkpt>
      <trkpt lat="45.71697" lon="6.57789">
        <ele>855</ele>
        <time>2022-08-16T08:05:23Z</time>
      </trkpt>
      <trkpt lat="45.71696" lon="6.57792">
        <ele>855</ele>
        <time>2022-08-16T08:05:24Z</time>
      </trkpt>
      <trkpt lat="45.71695" lon="6.57794">
        <ele>855</ele>
        <time>2022-08-16T08:05:25Z</time>
      </trkpt>
      <trkpt lat="45.71694" lon="6.57795">
        <ele>855</ele>
        <time>2022-08-16T08:05:26Z</time>
      </trkpt>
      <trkpt lat="45.71693" lon="6.57796">
        <ele>854</ele>
        <time>2022-08-16T08:05:27Z</time>
      </trkpt>
      <trkpt lat="45.71691" lon="6.57797">
        <ele>854</ele>
        <time>2022-08-16T08:05:28Z</time>
      </trkpt>
      <trkpt lat="45.71689" lon="6.57796">
        <ele>854</ele>
        <time>2022-08-16T08:05:29Z</time>
      </trkpt>
      <trkpt lat="45.71687" lon="6.57795">
        <ele>853</ele>
        <time>2022-08-16T08:05:30Z</time>
      </trkpt>
      <trkpt lat="45.71685" lon="6.57794">
        <ele>853</ele>
        <time>2022-08-16T08:05:31Z</time>
      </trkpt>
      <trkpt lat="45.71683" lon="6.57793">
        <ele>854</ele>
        <time>2022-08-16T08:05:32Z</time>
      </trkpt>
      <trkpt lat="45.71681" lon="6.57792">
        <ele>854</ele>
        <time>2022-08-16T08:05:33Z</time>
      </trkpt>
      <trkpt lat="45.71679" lon="6.5779">
        <ele>854</ele>
        <time>2022-08-16T08:05:34Z</time>
      </trkpt>
      <trkpt lat="45.71677" lon="6.57789">
        <ele>854</ele>
        <time>2022-08-16T08:05:35Z</time>
      </trkpt>
      <trkpt lat="45.71675" lon="6.57787">
        <ele>854</ele>
        <time>2022-08-16T08:05:36Z</time>
      </trkpt>
      <trkpt lat="45.71674" lon="6.57786">
        <ele>854</ele>
        <time>2022-08-16T08:05:37Z</time>
      </trkpt>
      <trkpt lat="45.71672" lon="6.57785">
        <ele>854</ele>
        <time>2022-08-16T08:05:38Z</time>
      </trkpt>
      <trkpt lat="45.7167" lon="6.57783">
        <ele>854</ele>
        <time>2022-08-16T08:05:39Z</time>
      </trkpt>
      <trkpt lat="45.71669" lon="6.57782">
        <ele>853</ele>
        <time>2022-08-16T08:05:40Z</time>
      </trkpt>
      <trkpt lat="45.71666" lon="6.57781">
        <ele>854</ele>
        <time>2022-08-16T08:05:41Z</time>
      </trkpt>
      <trkpt lat="45.71664" lon="6.5778">
        <ele>853</ele>
        <time>2022-08-16T08:05:42Z</time>
      </trkpt>
      <trkpt lat="45.71662" lon="6.57779">
        <ele>853</ele>
        <time>2022-08-16T08:05:43Z</time>
      </trkpt>
      <trkpt lat="45.7166" lon="6.57778">
        <ele>853</ele>
        <time>2022-08-16T08:05:44Z</time>
      </trkpt>
      <trkpt lat="45.71658" lon="6.57777">
        <ele>853</ele>
        <time>2022-08-16T08:05:45Z</time>
      </trkpt>
      <trkpt lat="45.71657" lon="6.57777">
        <ele>853</ele>
        <time>2022-08-16T08:05:46Z</time>
      </trkpt>
      <trkpt lat="45.71655" lon="6.57776">
        <ele>853</ele>
        <time>2022-08-16T08:05:47Z</time>
      </trkpt>
      <trkpt lat="45.71654" lon="6.57775">
        <ele>853</ele>
        <time>2022-08-16T08:05:48Z</time>
      </trkpt>
      <trkpt lat="45.71652" lon="6.57774">
        <ele>853</ele>
        <time>2022-08-16T08:05:49Z</time>
      </trkpt>
      <trkpt lat="45.7165" lon="6.57773">
        <ele>854</ele>
        <time>2022-08-16T08:05:50Z</time>
      </trkpt>
      <trkpt lat="45.71648" lon="6.57773">
        <ele>854</ele>
        <time>2022-08-16T08:05:51Z</time>
      </trkpt>
      <trkpt lat="45.71646" lon="6.57772">
        <ele>854</ele>
        <time>2022-08-16T08:05:52Z</time>
      </trkpt>
      <trkpt lat="45.71644" lon="6.57772">
        <ele>854</ele>
        <time>2022-08-16T08:05:53Z</time>
      </trkpt>
      <trkpt lat="45.71642" lon="6.57772">
        <ele>854</ele>
        <time>2022-08-16T08:05:54Z</time>
      </trkpt>
      <trkpt lat="45.71641" lon="6.57772">
        <ele>854</ele>
        <time>2022-08-16T08:05:55Z</time>
      </trkpt>
      <trkpt lat="45.71639" lon="6.57771">
        <ele>854</ele>
        <time>2022-08-16T08:05:56Z</time>
      </trkpt>
      <trkpt lat="45.71637" lon="6.57772">
        <ele>855</ele>
        <time>2022-08-16T08:05:57Z</time>
      </trkpt>
      <trkpt lat="45.71635" lon="6.57772">
        <ele>855</ele>
        <time>2022-08-16T08:05:58Z</time>
      </trkpt>
      <trkpt lat="45.71633" lon="6.57773">
        <ele>854</ele>
        <time>2022-08-16T08:05:59Z</time>
      </trkpt>
      <trkpt lat="45.71631" lon="6.57774">
        <ele>855</ele>
        <time>2022-08-16T08:06:00Z</time>
      </trkpt>
      <trkpt lat="45.71629" lon="6.57774">
        <ele>855</ele>
        <time>2022-08-16T08:06:01Z</time>
      </trkpt>
      <trkpt lat="45.71627" lon="6.57775">
        <ele>855</ele>
        <time>2022-08-16T08:06:02Z</time>
      </trkpt>
      <trkpt lat="45.71625" lon="6.57777">
        <ele>855</ele>
        <time>2022-08-16T08:06:03Z</time>
      </trkpt>
      <trkpt lat="45.71624" lon="6.57778">
        <ele>855</ele>
        <time>2022-08-16T08:06:04Z</time>
      </trkpt>
      <trkpt lat="45.71622" lon="6.57779">
        <ele>855</ele>
        <time>2022-08-16T08:06:05Z</time>
      </trkpt>
      <trkpt lat="45.71621" lon="6.5778">
        <ele>855</ele>
        <time>2022-08-16T08:06:06Z</time>
      </trkpt>
      <trkpt lat="45.71619" lon="6.57782">
        <ele>855</ele>
        <time>2022-08-16T08:06:07Z</time>
      </trkpt>
      <trkpt lat="45.71617" lon="6.57784">
        <ele>855</ele>
        <time>2022-08-16T08:06:08Z</time>
      </trkpt>
      <trkpt lat="45.71615" lon="6.57785">
        <ele>855</ele>
        <time>2022-08-16T08:06:09Z</time>
      </trkpt>
      <trkpt lat="45.71614" lon="6.57787">
        <ele>855</ele>
        <time>2022-08-16T08:06:10Z</time>
      </trkpt>
      <trkpt lat="45.71612" lon="6.57788">
        <ele>856</ele>
        <time>2022-08-16T08:06:11Z</time>
      </trkpt>
      <trkpt lat="45.7161" lon="6.5779">
        <ele>856</ele>
        <time>2022-08-16T08:06:12Z</time>
      </trkpt>
      <trkpt lat="45.71609" lon="6.57791">
        <ele>856</ele>
        <time>2022-08-16T08:06:13Z</time>
      </trkpt>
      <trkpt lat="45.71607" lon="6.57793">
        <ele>856</ele>
        <time>2022-08-16T08:06:14Z</time>
      </trkpt>
      <trkpt lat="45.71606" lon="6.57795">
        <ele>856</ele>
        <time>2022-08-16T08:06:15Z</time>
      </trkpt>
      <trkpt lat="45.71605" lon="6.57797">
        <ele>857</ele>
        <time>2022-08-16T08:06:16Z</time>
      </trkpt>
      <trkpt lat="45.71603" lon="6.578">
        <ele>857</ele>
        <time>2022-08-16T08:06:17Z</time>
      </trkpt>
      <trkpt lat="45.71601" lon="6.57802">
        <ele>857</ele>
        <time>2022-08-16T08:06:18Z</time>
      </trkpt>
      <trkpt lat="45.716" lon="6.57804">
        <ele>858</ele>
        <time>2022-08-16T08:06:19Z</time>
      </trkpt>
      <trkpt lat="45.71599" lon="6.57807">
        <ele>858</ele>
        <time>2022-08-16T08:06:20Z</time>
      </trkpt>
      <trkpt lat="45.71597" lon="6.5781">
        <ele>859</ele>
        <time>2022-08-16T08:06:21Z</time>
      </trkpt>
      <trkpt lat="45.71596" lon="6.57812">
        <ele>859</ele>
        <time>2022-08-16T08:06:22Z</time>
      </trkpt>
      <trkpt lat="45.71595" lon="6.57814">
        <ele>859</ele>
        <time>2022-08-16T08:06:23Z</time>
      </trkpt>
      <trkpt lat="45.71594" lon="6.57817">
        <ele>859</ele>
        <time>2022-08-16T08:06:24Z</time>
      </trkpt>
      <trkpt lat="45.71593" lon="6.57819">
        <ele>859</ele>
        <time>2022-08-16T08:06:25Z</time>
      </trkpt>
      <trkpt lat="45.71592" lon="6.57821">
        <ele>859</ele>
        <time>2022-08-16T08:06:26Z</time>
      </trkpt>
      <trkpt lat="45.71591" lon="6.57823">
        <ele>859</ele>
        <time>2022-08-16T08:06:27Z</time>
      </trkpt>
      <trkpt lat="45.7159" lon="6.57825">
        <ele>859</ele>
        <time>2022-08-16T08:06:28Z</time>
      </trkpt>
      <trkpt lat="45.71588" lon="6.57827">
        <ele>859</ele>
        <time>2022-08-16T08:06:29Z</time>
      </trkpt>
      <trkpt lat="45.71587" lon="6.5783">
        <ele>860</ele>
        <time>2022-08-16T08:06:30Z</time>
      </trkpt>
      <trkpt lat="45.71586" lon="6.57832">
        <ele>860</ele>
        <time>2022-08-16T08:06:31Z</time>
      </trkpt>
      <trkpt lat="45.71585" lon="6.57835">
        <ele>861</ele>
        <time>2022-08-16T08:06:32Z</time>
      </trkpt>
      <trkpt lat="45.71584" lon="6.57837">
        <ele>861</ele>
        <time>2022-08-16T08:06:33Z</time>
      </trkpt>
      <trkpt lat="45.71583" lon="6.57838">
        <ele>861</ele>
        <time>2022-08-16T08:06:34Z</time>
      </trkpt>
      <trkpt lat="45.71581" lon="6.5784">
        <ele>862</ele>
        <time>2022-08-16T08:06:35Z</time>
      </trkpt>
      <trkpt lat="45.7158" lon="6.57842">
        <ele>862</ele>
        <time>2022-08-16T08:06:36Z</time>
      </trkpt>
      <trkpt lat="45.71578" lon="6.57844">
        <ele>863</ele>
        <time>2022-08-16T08:06:37Z</time>
      </trkpt>
      <trkpt lat="45.71577" lon="6.57846">
        <ele>863</ele>
        <time>2022-08-16T08:06:38Z</time>
      </trkpt>
      <trkpt lat="45.71575" lon="6.57848">
        <ele>863</ele>
        <time>2022-08-16T08:06:39Z</time>
      </trkpt>
      <trkpt lat="45.71573" lon="6.57849">
        <ele>863</ele>
        <time>2022-08-16T08:06:40Z</time>
      </trkpt>
      <trkpt lat="45.71572" lon="6.57851">
        <ele>863</ele>
        <time>2022-08-16T08:06:41Z</time>
      </trkpt>
      <trkpt lat="45.7157" lon="6.57852">
        <ele>863</ele>
        <time>2022-08-16T08:06:42Z</time>
      </trkpt>
      <trkpt lat="45.71568" lon="6.57853">
        <ele>863</ele>
        <time>2022-08-16T08:06:43Z</time>
      </trkpt>
      <trkpt lat="45.71566" lon="6.57853">
        <ele>864</ele>
        <time>2022-08-16T08:06:44Z</time>
      </trkpt>
      <trkpt lat="45.71565" lon="6.57854">
        <ele>864</ele>
        <time>2022-08-16T08:06:45Z</time>
      </trkpt>
      <trkpt lat="45.71563" lon="6.57855">
        <ele>864</ele>
        <time>2022-08-16T08:06:46Z</time>
      </trkpt>
      <trkpt lat="45.71562" lon="6.57857">
        <ele>864</ele>
        <time>2022-08-16T08:06:47Z</time>
      </trkpt>
      <trkpt lat="45.7156" lon="6.57858">
        <ele>864</ele>
        <time>2022-08-16T08:06:48Z</time>
      </trkpt>
      <trkpt lat="45.71559" lon="6.5786">
        <ele>863</ele>
        <time>2022-08-16T08:06:49Z</time>
      </trkpt>
      <trkpt lat="45.71557" lon="6.5786">
        <ele>863</ele>
        <time>2022-08-16T08:06:50Z</time>
      </trkpt>
      <trkpt lat="45.71555" lon="6.57861">
        <ele>863</ele>
        <time>2022-08-16T08:06:51Z</time>
      </trkpt>
      <trkpt lat="45.71553" lon="6.57861">
        <ele>864</ele>
        <time>2022-08-16T08:06:52Z</time>
      </trkpt>
      <trkpt lat="45.71551" lon="6.57862">
        <ele>864</ele>
        <time>2022-08-16T08:06:53Z</time>
      </trkpt>
      <trkpt lat="45.71549" lon="6.57862">
        <ele>864</ele>
        <time>2022-08-16T08:06:54Z</time>
      </trkpt>
      <trkpt lat="45.71547" lon="6.57862">
        <ele>864</ele>
        <time>2022-08-16T08:06:55Z</time>
      </trkpt>
      <trkpt lat="45.71545" lon="6.57862">
        <ele>864</ele>
        <time>2022-08-16T08:06:56Z</time>
      </trkpt>
      <trkpt lat="45.71543" lon="6.57863">
        <ele>864</ele>
        <time>2022-08-16T08:06:57Z</time>
      </trkpt>
      <trkpt lat="45.71541" lon="6.57863">
        <ele>864</ele>
        <time>2022-08-16T08:06:58Z</time>
      </trkpt>
      <trkpt lat="45.71539" lon="6.57864">
        <ele>864</ele>
        <time>2022-08-16T08:06:59Z</time>
      </trkpt>
      <trkpt lat="45.71538" lon="6.57864">
        <ele>864</ele>
        <time>2022-08-16T08:07:00Z</time>
      </trkpt>
      <trkpt lat="45.71536" lon="6.57864">
        <ele>864</ele>
        <time>2022-08-16T08:07:01Z</time>
      </trkpt>
      <trkpt lat="45.71534" lon="6.57864">
        <ele>864</ele>
        <time>2022-08-16T08:07:02Z</time>
      </trkpt>
      <trkpt lat="45.71532" lon="6.57865">
        <ele>864</ele>
        <time>2022-08-16T08:07:03Z</time>
      </trkpt>
      <trkpt lat="45.71531" lon="6.57865">
        <ele>864</ele>
        <time>2022-08-16T08:07:04Z</time>
      </trkpt>
      <trkpt lat="45.71529" lon="6.57865">
        <ele>864</ele>
        <time>2022-08-16T08:07:05Z</time>
      </trkpt>
      <trkpt lat="45.71527" lon="6.57865">
        <ele>865</ele>
        <time>2022-08-16T08:07:06Z</time>
      </trkpt>
      <trkpt lat="45.71526" lon="6.57865">
        <ele>865</ele>
        <time>2022-08-16T08:07:07Z</time>
      </trkpt>
      <trkpt lat="45.71524" lon="6.57864">
        <ele>865</ele>
        <time>2022-08-16T08:07:08Z</time>
      </trkpt>
      <trkpt lat="45.71522" lon="6.57864">
        <ele>865</ele>
        <time>2022-08-16T08:07:09Z</time>
      </trkpt>
      <trkpt lat="45.7152" lon="6.57865">
        <ele>865</ele>
        <time>2022-08-16T08:07:10Z</time>
      </trkpt>
      <trkpt lat="45.71518" lon="6.57865">
        <ele>866</ele>
        <time>2022-08-16T08:07:11Z</time>
      </trkpt>
      <trkpt lat="45.71516" lon="6.57865">
        <ele>866</ele>
        <time>2022-08-16T08:07:12Z</time>
      </trkpt>
      <trkpt lat="45.71514" lon="6.57865">
        <ele>867</ele>
        <time>2022-08-16T08:07:13Z</time>
      </trkpt>
      <trkpt lat="45.71513" lon="6.57865">
        <ele>868</ele>
        <time>2022-08-16T08:07:14Z</time>
      </trkpt>
      <trkpt lat="45.71511" lon="6.57865">
        <ele>868</ele>
        <time>2022-08-16T08:07:15Z</time>
      </trkpt>
      <trkpt lat="45.71509" lon="6.57865">
        <ele>868</ele>
        <time>2022-08-16T08:07:16Z</time>
      </trkpt>
      <trkpt lat="45.71508" lon="6.57865">
        <ele>869</ele>
        <time>2022-08-16T08:07:17Z</time>
      </trkpt>
      <trkpt lat="45.71506" lon="6.57865">
        <ele>869</ele>
        <time>2022-08-16T08:07:18Z</time>
      </trkpt>
      <trkpt lat="45.71504" lon="6.57866">
        <ele>870</ele>
        <time>2022-08-16T08:07:19Z</time>
      </trkpt>
      <trkpt lat="45.71502" lon="6.57866">
        <ele>870</ele>
        <time>2022-08-16T08:07:20Z</time>
      </trkpt>
      <trkpt lat="45.715" lon="6.57866">
        <ele>870</ele>
        <time>2022-08-16T08:07:21Z</time>
      </trkpt>
      <trkpt lat="45.71499" lon="6.57867">
        <ele>870</ele>
        <time>2022-08-16T08:07:22Z</time>
      </trkpt>
      <trkpt lat="45.71498" lon="6.57868">
        <ele>870</ele>
        <time>2022-08-16T08:07:23Z</time>
      </trkpt>
      <trkpt lat="45.71497" lon="6.57869">
        <ele>870</ele>
        <time>2022-08-16T08:07:24Z</time>
      </trkpt>
      <trkpt lat="45.71495" lon="6.5787">
        <ele>870</ele>
        <time>2022-08-16T08:07:25Z</time>
      </trkpt>
      <trkpt lat="45.71494" lon="6.57873">
        <ele>871</ele>
        <time>2022-08-16T08:07:26Z</time>
      </trkpt>
      <trkpt lat="45.71493" lon="6.57875">
        <ele>871</ele>
        <time>2022-08-16T08:07:27Z</time>
      </trkpt>
      <trkpt lat="45.71491" lon="6.57878">
        <ele>871</ele>
        <time>2022-08-16T08:07:28Z</time>
      </trkpt>
      <trkpt lat="45.71491" lon="6.57881">
        <ele>872</ele>
        <time>2022-08-16T08:07:29Z</time>
      </trkpt>
      <trkpt lat="45.7149" lon="6.57885">
        <ele>872</ele>
        <time>2022-08-16T08:07:30Z</time>
      </trkpt>
      <trkpt lat="45.7149" lon="6.57888">
        <ele>871</ele>
        <time>2022-08-16T08:07:31Z</time>
      </trkpt>
      <trkpt lat="45.7149" lon="6.57891">
        <ele>871</ele>
        <time>2022-08-16T08:07:32Z</time>
      </trkpt>
      <trkpt lat="45.71491" lon="6.57894">
        <ele>871</ele>
        <time>2022-08-16T08:07:33Z</time>
      </trkpt>
      <trkpt lat="45.71492" lon="6.57897">
        <ele>871</ele>
        <time>2022-08-16T08:07:34Z</time>
      </trkpt>
      <trkpt lat="45.71494" lon="6.57898">
        <ele>871</ele>
        <time>2022-08-16T08:07:35Z</time>
      </trkpt>
      <trkpt lat="45.71496" lon="6.579">
        <ele>871</ele>
        <time>2022-08-16T08:07:36Z</time>
      </trkpt>
      <trkpt lat="45.71498" lon="6.579">
        <ele>871</ele>
        <time>2022-08-16T08:07:37Z</time>
      </trkpt>
      <trkpt lat="45.715" lon="6.579">
        <ele>871</ele>
        <time>2022-08-16T08:07:38Z</time>
      </trkpt>
      <trkpt lat="45.71502" lon="6.579">
        <ele>871</ele>
        <time>2022-08-16T08:07:39Z</time>
      </trkpt>
      <trkpt lat="45.71503" lon="6.57901">
        <ele>872</ele>
        <time>2022-08-16T08:07:40Z</time>
      </trkpt>
      <trkpt lat="45.71506" lon="6.57902">
        <ele>872</ele>
        <time>2022-08-16T08:07:41Z</time>
      </trkpt>
      <trkpt lat="45.71508" lon="6.57903">
        <ele>873</ele>
        <time>2022-08-16T08:07:42Z</time>
      </trkpt>
      <trkpt lat="45.7151" lon="6.57904">
        <ele>874</ele>
        <time>2022-08-16T08:07:43Z</time>
      </trkpt>
      <trkpt lat="45.71512" lon="6.57904">
        <ele>874</ele>
        <time>2022-08-16T08:07:44Z</time>
      </trkpt>
      <trkpt lat="45.71514" lon="6.57905">
        <ele>875</ele>
        <time>2022-08-16T08:07:45Z</time>
      </trkpt>
      <trkpt lat="45.71516" lon="6.57905">
        <ele>875</ele>
        <time>2022-08-16T08:07:46Z</time>
      </trkpt>
      <trkpt lat="45.71518" lon="6.57906">
        <ele>875</ele>
        <time>2022-08-16T08:07:47Z</time>
      </trkpt>
      <trkpt lat="45.7152" lon="6.57907">
        <ele>875</ele>
        <time>2022-08-16T08:07:48Z</time>
      </trkpt>
      <trkpt lat="45.71523" lon="6.57908">
        <ele>875</ele>
        <time>2022-08-16T08:07:49Z</time>
      </trkpt>
      <trkpt lat="45.71525" lon="6.57909">
        <ele>875</ele>
        <time>2022-08-16T08:07:50Z</time>
      </trkpt>
      <trkpt lat="45.71527" lon="6.5791">
        <ele>876</ele>
        <time>2022-08-16T08:07:51Z</time>
      </trkpt>
      <trkpt lat="45.71528" lon="6.57911">
        <ele>877</ele>
        <time>2022-08-16T08:07:52Z</time>
      </trkpt>
      <trkpt lat="45.7153" lon="6.57912">
        <ele>877</ele>
        <time>2022-08-16T08:07:53Z</time>
      </trkpt>
      <trkpt lat="45.71532" lon="6.57913">
        <ele>877</ele>
        <time>2022-08-16T08:07:54Z</time>
      </trkpt>
      <trkpt lat="45.71534" lon="6.57914">
        <ele>877</ele>
        <time>2022-08-16T08:07:55Z</time>
      </trkpt>
      <trkpt lat="45.71536" lon="6.57915">
        <ele>876</ele>
        <time>2022-08-16T08:07:56Z</time>
      </trkpt>
      <trkpt lat="45.71538" lon="6.57916">
        <ele>876</ele>
        <time>2022-08-16T08:07:57Z</time>
      </trkpt>
      <trkpt lat="45.7154" lon="6.57917">
        <ele>877</ele>
        <time>2022-08-16T08:07:58Z</time>
      </trkpt>
      <trkpt lat="45.71542" lon="6.57918">
        <ele>877</ele>
        <time>2022-08-16T08:07:59Z</time>
      </trkpt>
      <trkpt lat="45.71544" lon="6.57919">
        <ele>877</ele>
        <time>2022-08-16T08:08:00Z</time>
      </trkpt>
      <trkpt lat="45.71546" lon="6.5792">
        <ele>877</ele>
        <time>2022-08-16T08:08:01Z</time>
      </trkpt>
      <trkpt lat="45.71548" lon="6.57921">
        <ele>877</ele>
        <time>2022-08-16T08:08:02Z</time>
      </trkpt>
      <trkpt lat="45.71549" lon="6.57922">
        <ele>876</ele>
        <time>2022-08-16T08:08:03Z</time>
      </trkpt>
      <trkpt lat="45.71551" lon="6.57923">
        <ele>877</ele>
        <time>2022-08-16T08:08:04Z</time>
      </trkpt>
      <trkpt lat="45.71553" lon="6.57923">
        <ele>877</ele>
        <time>2022-08-16T08:08:05Z</time>
      </trkpt>
      <trkpt lat="45.71555" lon="6.57924">
        <ele>877</ele>
        <time>2022-08-16T08:08:06Z</time>
      </trkpt>
      <trkpt lat="45.71557" lon="6.57924">
        <ele>877</ele>
        <time>2022-08-16T08:08:07Z</time>
      </trkpt>
      <trkpt lat="45.71559" lon="6.57925">
        <ele>878</ele>
        <time>2022-08-16T08:08:08Z</time>
      </trkpt>
      <trkpt lat="45.71561" lon="6.57925">
        <ele>878</ele>
        <time>2022-08-16T08:08:09Z</time>
      </trkpt>
      <trkpt lat="45.71563" lon="6.57924">
        <ele>878</ele>
        <time>2022-08-16T08:08:10Z</time>
      </trkpt>
      <trkpt lat="45.71565" lon="6.57922">
        <ele>879</ele>
        <time>2022-08-16T08:08:11Z</time>
      </trkpt>
      <trkpt lat="45.71567" lon="6.57922">
        <ele>879</ele>
        <time>2022-08-16T08:08:12Z</time>
      </trkpt>
      <trkpt lat="45.71569" lon="6.57921">
        <ele>880</ele>
        <time>2022-08-16T08:08:13Z</time>
      </trkpt>
      <trkpt lat="45.71571" lon="6.57922">
        <ele>881</ele>
        <time>2022-08-16T08:08:14Z</time>
      </trkpt>
      <trkpt lat="45.71573" lon="6.57922">
        <ele>880</ele>
        <time>2022-08-16T08:08:15Z</time>
      </trkpt>
      <trkpt lat="45.71576" lon="6.57922">
        <ele>880</ele>
        <time>2022-08-16T08:08:16Z</time>
      </trkpt>
      <trkpt lat="45.71578" lon="6.57921">
        <ele>881</ele>
        <time>2022-08-16T08:08:17Z</time>
      </trkpt>
      <trkpt lat="45.7158" lon="6.5792">
        <ele>880</ele>
        <time>2022-08-16T08:08:18Z</time>
      </trkpt>
      <trkpt lat="45.71582" lon="6.57919">
        <ele>880</ele>
        <time>2022-08-16T08:08:19Z</time>
      </trkpt>
      <trkpt lat="45.71584" lon="6.57918">
        <ele>881</ele>
        <time>2022-08-16T08:08:20Z</time>
      </trkpt>
      <trkpt lat="45.71586" lon="6.57917">
        <ele>881</ele>
        <time>2022-08-16T08:08:21Z</time>
      </trkpt>
      <trkpt lat="45.71588" lon="6.57916">
        <ele>881</ele>
        <time>2022-08-16T08:08:22Z</time>
      </trkpt>
      <trkpt lat="45.71591" lon="6.57915">
        <ele>881</ele>
        <time>2022-08-16T08:08:23Z</time>
      </trkpt>
      <trkpt lat="45.71593" lon="6.57914">
        <ele>881</ele>
        <time>2022-08-16T08:08:24Z</time>
      </trkpt>
      <trkpt lat="45.71596" lon="6.57913">
        <ele>882</ele>
        <time>2022-08-16T08:08:25Z</time>
      </trkpt>
      <trkpt lat="45.71598" lon="6.57913">
        <ele>882</ele>
        <time>2022-08-16T08:08:26Z</time>
      </trkpt>
      <trkpt lat="45.71599" lon="6.57911">
        <ele>882</ele>
        <time>2022-08-16T08:08:27Z</time>
      </trkpt>
      <trkpt lat="45.71601" lon="6.57909">
        <ele>882</ele>
        <time>2022-08-16T08:08:28Z</time>
      </trkpt>
      <trkpt lat="45.71603" lon="6.57908">
        <ele>882</ele>
        <time>2022-08-16T08:08:29Z</time>
      </trkpt>
      <trkpt lat="45.71604" lon="6.57906">
        <ele>882</ele>
        <time>2022-08-16T08:08:30Z</time>
      </trkpt>
      <trkpt lat="45.71606" lon="6.57905">
        <ele>882</ele>
        <time>2022-08-16T08:08:31Z</time>
      </trkpt>
      <trkpt lat="45.71608" lon="6.57904">
        <ele>883</ele>
        <time>2022-08-16T08:08:32Z</time>
      </trkpt>
      <trkpt lat="45.7161" lon="6.57902">
        <ele>883</ele>
        <time>2022-08-16T08:08:33Z</time>
      </trkpt>
      <trkpt lat="45.71612" lon="6.579">
        <ele>883</ele>
        <time>2022-08-16T08:08:34Z</time>
      </trkpt>
      <trkpt lat="45.71613" lon="6.57898">
        <ele>883</ele>
        <time>2022-08-16T08:08:35Z</time>
      </trkpt>
      <trkpt lat="45.71615" lon="6.57895">
        <ele>883</ele>
        <time>2022-08-16T08:08:36Z</time>
      </trkpt>
      <trkpt lat="45.71616" lon="6.57892">
        <ele>884</ele>
        <time>2022-08-16T08:08:37Z</time>
      </trkpt>
      <trkpt lat="45.71618" lon="6.57889">
        <ele>884</ele>
        <time>2022-08-16T08:08:38Z</time>
      </trkpt>
      <trkpt lat="45.71619" lon="6.57887">
        <ele>884</ele>
        <time>2022-08-16T08:08:39Z</time>
      </trkpt>
      <trkpt lat="45.71621" lon="6.57884">
        <ele>884</ele>
        <time>2022-08-16T08:08:40Z</time>
      </trkpt>
      <trkpt lat="45.71623" lon="6.57882">
        <ele>884</ele>
        <time>2022-08-16T08:08:41Z</time>
      </trkpt>
      <trkpt lat="45.71624" lon="6.57879">
        <ele>884</ele>
        <time>2022-08-16T08:08:42Z</time>
      </trkpt>
      <trkpt lat="45.71625" lon="6.57876">
        <ele>884</ele>
        <time>2022-08-16T08:08:43Z</time>
      </trkpt>
      <trkpt lat="45.71627" lon="6.57873">
        <ele>885</ele>
        <time>2022-08-16T08:08:44Z</time>
      </trkpt>
      <trkpt lat="45.71628" lon="6.57871">
        <ele>885</ele>
        <time>2022-08-16T08:08:45Z</time>
      </trkpt>
      <trkpt lat="45.7163" lon="6.57869">
        <ele>885</ele>
        <time>2022-08-16T08:08:46Z</time>
      </trkpt>
      <trkpt lat="45.71632" lon="6.57867">
        <ele>884</ele>
        <time>2022-08-16T08:08:47Z</time>
      </trkpt>
      <trkpt lat="45.71633" lon="6.57864">
        <ele>884</ele>
        <time>2022-08-16T08:08:48Z</time>
      </trkpt>
      <trkpt lat="45.71634" lon="6.57862">
        <ele>884</ele>
        <time>2022-08-16T08:08:49Z</time>
      </trkpt>
      <trkpt lat="45.71635" lon="6.57859">
        <ele>884</ele>
        <time>2022-08-16T08:08:50Z</time>
      </trkpt>
      <trkpt lat="45.71636" lon="6.57858">
        <ele>885</ele>
        <time>2022-08-16T08:08:51Z</time>
      </trkpt>
      <trkpt lat="45.71638" lon="6.57856">
        <ele>885</ele>
        <time>2022-08-16T08:08:52Z</time>
      </trkpt>
      <trkpt lat="45.7164" lon="6.57855">
        <ele>885</ele>
        <time>2022-08-16T08:08:53Z</time>
      </trkpt>
      <trkpt lat="45.71642" lon="6.57854">
        <ele>885</ele>
        <time>2022-08-16T08:08:54Z</time>
      </trkpt>
      <trkpt lat="45.71643" lon="6.57853">
        <ele>885</ele>
        <time>2022-08-16T08:08:55Z</time>
      </trkpt>
      <trkpt lat="45.71645" lon="6.57853">
        <ele>885</ele>
        <time>2022-08-16T08:08:56Z</time>
      </trkpt>
      <trkpt lat="45.71647" lon="6.57853">
        <ele>885</ele>
        <time>2022-08-16T08:08:57Z</time>
      </trkpt>
      <trkpt lat="45.71649" lon="6.57853">
        <ele>885</ele>
        <time>2022-08-16T08:08:58Z</time>
      </trkpt>
      <trkpt lat="45.71651" lon="6.57853">
        <ele>886</ele>
        <time>2022-08-16T08:08:59Z</time>
      </trkpt>
      <trkpt lat="45.71654" lon="6.57854">
        <ele>887</ele>
        <time>2022-08-16T08:09:00Z</time>
      </trkpt>
      <trkpt lat="45.71656" lon="6.57855">
        <ele>887</ele>
        <time>2022-08-16T08:09:01Z</time>
      </trkpt>
      <trkpt lat="45.71657" lon="6.57857">
        <ele>887</ele>
        <time>2022-08-16T08:09:02Z</time>
      </trkpt>
      <trkpt lat="45.71658" lon="6.57859">
        <ele>887</ele>
        <time>2022-08-16T08:09:03Z</time>
      </trkpt>
      <trkpt lat="45.7166" lon="6.5786">
        <ele>887</ele>
        <time>2022-08-16T08:09:04Z</time>
      </trkpt>
      <trkpt lat="45.71661" lon="6.57862">
        <ele>887</ele>
        <time>2022-08-16T08:09:05Z</time>
      </trkpt>
      <trkpt lat="45.71663" lon="6.57864">
        <ele>887</ele>
        <time>2022-08-16T08:09:06Z</time>
      </trkpt>
      <trkpt lat="45.71664" lon="6.57866">
        <ele>888</ele>
        <time>2022-08-16T08:09:07Z</time>
      </trkpt>
      <trkpt lat="45.71666" lon="6.57868">
        <ele>888</ele>
        <time>2022-08-16T08:09:08Z</time>
      </trkpt>
      <trkpt lat="45.71668" lon="6.5787">
        <ele>888</ele>
        <time>2022-08-16T08:09:09Z</time>
      </trkpt>
      <trkpt lat="45.7167" lon="6.57871">
        <ele>889</ele>
        <time>2022-08-16T08:09:10Z</time>
      </trkpt>
      <trkpt lat="45.71671" lon="6.57873">
        <ele>889</ele>
        <time>2022-08-16T08:09:11Z</time>
      </trkpt>
      <trkpt lat="45.71672" lon="6.57875">
        <ele>890</ele>
        <time>2022-08-16T08:09:12Z</time>
      </trkpt>
      <trkpt lat="45.71674" lon="6.57878">
        <ele>890</ele>
        <time>2022-08-16T08:09:13Z</time>
      </trkpt>
      <trkpt lat="45.71675" lon="6.57879">
        <ele>891</ele>
        <time>2022-08-16T08:09:14Z</time>
      </trkpt>
      <trkpt lat="45.71677" lon="6.57881">
        <ele>891</ele>
        <time>2022-08-16T08:09:15Z</time>
      </trkpt>
      <trkpt lat="45.71678" lon="6.57882">
        <ele>891</ele>
        <time>2022-08-16T08:09:16Z</time>
      </trkpt>
      <trkpt lat="45.7168" lon="6.57884">
        <ele>891</ele>
        <time>2022-08-16T08:09:17Z</time>
      </trkpt>
      <trkpt lat="45.71682" lon="6.57886">
        <ele>892</ele>
        <time>2022-08-16T08:09:18Z</time>
      </trkpt>
      <trkpt lat="45.71683" lon="6.57887">
        <ele>892</ele>
        <time>2022-08-16T08:09:19Z</time>
      </trkpt>
      <trkpt lat="45.71685" lon="6.57888">
        <ele>892</ele>
        <time>2022-08-16T08:09:20Z</time>
      </trkpt>
      <trkpt lat="45.71686" lon="6.57889">
        <ele>892</ele>
        <time>2022-08-16T08:09:21Z</time>
      </trkpt>
      <trkpt lat="45.71687" lon="6.57891">
        <ele>893</ele>
        <time>2022-08-16T08:09:22Z</time>
      </trkpt>
      <trkpt lat="45.71689" lon="6.57894">
        <ele>893</ele>
        <time>2022-08-16T08:09:23Z</time>
      </trkpt>
      <trkpt lat="45.7169" lon="6.57896">
        <ele>892</ele>
        <time>2022-08-16T08:09:24Z</time>
      </trkpt>
      <trkpt lat="45.71692" lon="6.57898">
        <ele>892</ele>
        <time>2022-08-16T08:09:25Z</time>
      </trkpt>
      <trkpt lat="45.71694" lon="6.579">
        <ele>892</ele>
        <time>2022-08-16T08:09:26Z</time>
      </trkpt>
      <trkpt lat="45.71695" lon="6.57902">
        <ele>893</ele>
        <time>2022-08-16T08:09:27Z</time>
      </trkpt>
      <trkpt lat="45.71697" lon="6.57904">
        <ele>893</ele>
        <time>2022-08-16T08:09:28Z</time>
      </trkpt>
      <trkpt lat="45.71698" lon="6.57907">
        <ele>893</ele>
        <time>2022-08-16T08:09:29Z</time>
      </trkpt>
      <trkpt lat="45.717" lon="6.57909">
        <ele>893</ele>
        <time>2022-08-16T08:09:30Z</time>
      </trkpt>
      <trkpt lat="45.71701" lon="6.57911">
        <ele>893</ele>
        <time>2022-08-16T08:09:31Z</time>
      </trkpt>
      <trkpt lat="45.71703" lon="6.57912">
        <ele>893</ele>
        <time>2022-08-16T08:09:32Z</time>
      </trkpt>
      <trkpt lat="45.71704" lon="6.57914">
        <ele>893</ele>
        <time>2022-08-16T08:09:33Z</time>
      </trkpt>
      <trkpt lat="45.71706" lon="6.57916">
        <ele>893</ele>
        <time>2022-08-16T08:09:34Z</time>
      </trkpt>
      <trkpt lat="45.71707" lon="6.57917">
        <ele>894</ele>
        <time>2022-08-16T08:09:35Z</time>
      </trkpt>
      <trkpt lat="45.71709" lon="6.57919">
        <ele>894</ele>
        <time>2022-08-16T08:09:36Z</time>
      </trkpt>
      <trkpt lat="45.7171" lon="6.57921">
        <ele>894</ele>
        <time>2022-08-16T08:09:37Z</time>
      </trkpt>
      <trkpt lat="45.71712" lon="6.57923">
        <ele>894</ele>
        <time>2022-08-16T08:09:38Z</time>
      </trkpt>
      <trkpt lat="45.71713" lon="6.57925">
        <ele>894</ele>
        <time>2022-08-16T08:09:39Z</time>
      </trkpt>
      <trkpt lat="45.71714" lon="6.57927">
        <ele>894</ele>
        <time>2022-08-16T08:09:40Z</time>
      </trkpt>
      <trkpt lat="45.71715" lon="6.57929">
        <ele>893</ele>
        <time>2022-08-16T08:09:41Z</time>
      </trkpt>
      <trkpt lat="45.71716" lon="6.57931">
        <ele>893</ele>
        <time>2022-08-16T08:09:42Z</time>
      </trkpt>
      <trkpt lat="45.71718" lon="6.57933">
        <ele>893</ele>
        <time>2022-08-16T08:09:43Z</time>
      </trkpt>
      <trkpt lat="45.71719" lon="6.57935">
        <ele>894</ele>
        <time>2022-08-16T08:09:44Z</time>
      </trkpt>
      <trkpt lat="45.7172" lon="6.57937">
        <ele>894</ele>
        <time>2022-08-16T08:09:45Z</time>
      </trkpt>
      <trkpt lat="45.71722" lon="6.5794">
        <ele>894</ele>
        <time>2022-08-16T08:09:46Z</time>
      </trkpt>
      <trkpt lat="45.71723" lon="6.57942">
        <ele>894</ele>
        <time>2022-08-16T08:09:47Z</time>
      </trkpt>
      <trkpt lat="45.71724" lon="6.57944">
        <ele>895</ele>
        <time>2022-08-16T08:09:48Z</time>
      </trkpt>
      <trkpt lat="45.71726" lon="6.57946">
        <ele>895</ele>
        <time>2022-08-16T08:09:49Z</time>
      </trkpt>
      <trkpt lat="45.71727" lon="6.57949">
        <ele>895</ele>
        <time>2022-08-16T08:09:50Z</time>
      </trkpt>
      <trkpt lat="45.71728" lon="6.57951">
        <ele>897</ele>
        <time>2022-08-16T08:09:51Z</time>
      </trkpt>
      <trkpt lat="45.7173" lon="6.57953">
        <ele>896</ele>
        <time>2022-08-16T08:09:52Z</time>
      </trkpt>
      <trkpt lat="45.71731" lon="6.57956">
        <ele>896</ele>
        <time>2022-08-16T08:09:53Z</time>
      </trkpt>
      <trkpt lat="45.71732" lon="6.57958">
        <ele>897</ele>
        <time>2022-08-16T08:09:54Z</time>
      </trkpt>
      <trkpt lat="45.71732" lon="6.5796">
        <ele>897</ele>
        <time>2022-08-16T08:09:55Z</time>
      </trkpt>
      <trkpt lat="45.71733" lon="6.57963">
        <ele>896</ele>
        <time>2022-08-16T08:09:56Z</time>
      </trkpt>
      <trkpt lat="45.71735" lon="6.57965">
        <ele>897</ele>
        <time>2022-08-16T08:09:57Z</time>
      </trkpt>
      <trkpt lat="45.71736" lon="6.57968">
        <ele>897</ele>
        <time>2022-08-16T08:09:58Z</time>
      </trkpt>
      <trkpt lat="45.71737" lon="6.5797">
        <ele>897</ele>
        <time>2022-08-16T08:09:59Z</time>
      </trkpt>
      <trkpt lat="45.71739" lon="6.57973">
        <ele>898</ele>
        <time>2022-08-16T08:10:00Z</time>
      </trkpt>
      <trkpt lat="45.7174" lon="6.57975">
        <ele>898</ele>
        <time>2022-08-16T08:10:01Z</time>
      </trkpt>
      <trkpt lat="45.71741" lon="6.57977">
        <ele>899</ele>
        <time>2022-08-16T08:10:02Z</time>
      </trkpt>
      <trkpt lat="45.71743" lon="6.57979">
        <ele>898</ele>
        <time>2022-08-16T08:10:03Z</time>
      </trkpt>
      <trkpt lat="45.71744" lon="6.57982">
        <ele>899</ele>
        <time>2022-08-16T08:10:04Z</time>
      </trkpt>
      <trkpt lat="45.71746" lon="6.57985">
        <ele>898</ele>
        <time>2022-08-16T08:10:05Z</time>
      </trkpt>
      <trkpt lat="45.71746" lon="6.57987">
        <ele>899</ele>
        <time>2022-08-16T08:10:06Z</time>
      </trkpt>
      <trkpt lat="45.71748" lon="6.5799">
        <ele>899</ele>
        <time>2022-08-16T08:10:07Z</time>
      </trkpt>
      <trkpt lat="45.71748" lon="6.57992">
        <ele>899</ele>
        <time>2022-08-16T08:10:08Z</time>
      </trkpt>
      <trkpt lat="45.7175" lon="6.57995">
        <ele>899</ele>
        <time>2022-08-16T08:10:09Z</time>
      </trkpt>
      <trkpt lat="45.71751" lon="6.57998">
        <ele>899</ele>
        <time>2022-08-16T08:10:10Z</time>
      </trkpt>
      <trkpt lat="45.71752" lon="6.58">
        <ele>899</ele>
        <time>2022-08-16T08:10:11Z</time>
      </trkpt>
      <trkpt lat="45.71753" lon="6.58003">
        <ele>899</ele>
        <time>2022-08-16T08:10:12Z</time>
      </trkpt>
      <trkpt lat="45.71754" lon="6.58005">
        <ele>899</ele>
        <time>2022-08-16T08:10:13Z</time>
      </trkpt>
      <trkpt lat="45.71756" lon="6.58008">
        <ele>899</ele>
        <time>2022-08-16T08:10:14Z</time>
      </trkpt>
      <trkpt lat="45.71757" lon="6.5801">
        <ele>899</ele>
        <time>2022-08-16T08:10:15Z</time>
      </trkpt>
      <trkpt lat="45.71759" lon="6.58012">
        <ele>899</ele>
        <time>2022-08-16T08:10:16Z</time>
      </trkpt>
      <trkpt lat="45.7176" lon="6.58014">
        <ele>899</ele>
        <time>2022-08-16T08:10:17Z</time>
      </trkpt>
      <trkpt lat="45.71762" lon="6.58016">
        <ele>899</ele>
        <time>2022-08-16T08:10:18Z</time>
      </trkpt>
      <trkpt lat="45.71764" lon="6.58018">
        <ele>900</ele>
        <time>2022-08-16T08:10:19Z</time>
      </trkpt>
      <trkpt lat="45.71766" lon="6.5802">
        <ele>900</ele>
        <time>2022-08-16T08:10:20Z</time>
      </trkpt>
      <trkpt lat="45.71768" lon="6.58021">
        <ele>900</ele>
        <time>2022-08-16T08:10:21Z</time>
      </trkpt>
      <trkpt lat="45.7177" lon="6.58023">
        <ele>900</ele>
        <time>2022-08-16T08:10:22Z</time>
      </trkpt>
      <trkpt lat="45.71773" lon="6.58024">
        <ele>900</ele>
        <time>2022-08-16T08:10:23Z</time>
      </trkpt>
      <trkpt lat="45.71775" lon="6.58024">
        <ele>900</ele>
        <time>2022-08-16T08:10:24Z</time>
      </trkpt>
      <trkpt lat="45.71777" lon="6.58025">
        <ele>900</ele>
        <time>2022-08-16T08:10:25Z</time>
      </trkpt>
      <trkpt lat="45.71779" lon="6.58025">
        <ele>900</ele>
        <time>2022-08-16T08:10:26Z</time>
      </trkpt>
      <trkpt lat="45.71782" lon="6.58025">
        <ele>900</ele>
        <time>2022-08-16T08:10:27Z</time>
      </trkpt>
      <trkpt lat="45.71784" lon="6.58025">
        <ele>900</ele>
        <time>2022-08-16T08:10:28Z</time>
      </trkpt>
      <trkpt lat="45.71786" lon="6.58025">
        <ele>900</ele>
        <time>2022-08-16T08:10:29Z</time>
      </trkpt>
      <trkpt lat="45.71788" lon="6.58024">
        <ele>900</ele>
        <time>2022-08-16T08:10:30Z</time>
      </trkpt>
      <trkpt lat="45.7179" lon="6.58024">
        <ele>900</ele>
        <time>2022-08-16T08:10:31Z</time>
      </trkpt>
      <trkpt lat="45.71792" lon="6.58024">
        <ele>900</ele>
        <time>2022-08-16T08:10:32Z</time>
      </trkpt>
      <trkpt lat="45.71794" lon="6.58024">
        <ele>900</ele>
        <time>2022-08-16T08:10:33Z</time>
      </trkpt>
      <trkpt lat="45.71797" lon="6.58024">
        <ele>900</ele>
        <time>2022-08-16T08:10:34Z</time>
      </trkpt>
      <trkpt lat="45.71799" lon="6.58024">
        <ele>901</ele>
        <time>2022-08-16T08:10:35Z</time>
      </trkpt>
      <trkpt lat="45.71801" lon="6.58023">
        <ele>901</ele>
        <time>2022-08-16T08:10:36Z</time>
      </trkpt>
      <trkpt lat="45.71803" lon="6.58023">
        <ele>901</ele>
        <time>2022-08-16T08:10:37Z</time>
      </trkpt>
      <trkpt lat="45.71805" lon="6.58022">
        <ele>901</ele>
        <time>2022-08-16T08:10:38Z</time>
      </trkpt>
      <trkpt lat="45.71807" lon="6.58021">
        <ele>901</ele>
        <time>2022-08-16T08:10:39Z</time>
      </trkpt>
      <trkpt lat="45.71809" lon="6.5802">
        <ele>901</ele>
        <time>2022-08-16T08:10:40Z</time>
      </trkpt>
      <trkpt lat="45.71811" lon="6.58019">
        <ele>901</ele>
        <time>2022-08-16T08:10:41Z</time>
      </trkpt>
      <trkpt lat="45.71813" lon="6.58018">
        <ele>901</ele>
        <time>2022-08-16T08:10:42Z</time>
      </trkpt>
      <trkpt lat="45.71815" lon="6.58018">
        <ele>901</ele>
        <time>2022-08-16T08:10:43Z</time>
      </trkpt>
      <trkpt lat="45.71817" lon="6.58018">
        <ele>902</ele>
        <time>2022-08-16T08:10:44Z</time>
      </trkpt>
      <trkpt lat="45.71818" lon="6.58018">
        <ele>902</ele>
        <time>2022-08-16T08:10:45Z</time>
      </trkpt>
      <trkpt lat="45.71819" lon="6.58018">
        <ele>902</ele>
        <time>2022-08-16T08:10:46Z</time>
      </trkpt>
      <trkpt lat="45.7182" lon="6.58018">
        <ele>902</ele>
        <time>2022-08-16T08:10:47Z</time>
      </trkpt>
      <trkpt lat="45.7182" lon="6.58018">
        <ele>901</ele>
        <time>2022-08-16T08:10:48Z</time>
      </trkpt>
      <trkpt lat="45.7182" lon="6.58018">
        <ele>902</ele>
        <time>2022-08-16T08:10:49Z</time>
      </trkpt>
      <trkpt lat="45.7182" lon="6.58018">
        <ele>903</ele>
        <time>2022-08-16T08:10:50Z</time>
      </trkpt>
      <trkpt lat="45.7182" lon="6.58018">
        <ele>903</ele>
        <time>2022-08-16T08:10:54Z</time>
      </trkpt>
      <trkpt lat="45.7182" lon="6.58018">
        <ele>903</ele>
        <time>2022-08-16T08:10:58Z</time>
      </trkpt>
      <trkpt lat="45.7182" lon="6.58018">
        <ele>903</ele>
        <time>2022-08-16T08:11:02Z</time>
      </trkpt>
      <trkpt lat="45.7182" lon="6.58018">
        <ele>903</ele>
        <time>2022-08-16T08:11:06Z</time>
      </trkpt>
      <trkpt lat="45.7182" lon="6.58018">
        <ele>903</ele>
        <time>2022-08-16T08:11:10Z</time>
      </trkpt>
      <trkpt lat="45.7182" lon="6.58018">
        <ele>903</ele>
        <time>2022-08-16T08:11:14Z</time>
      </trkpt>
      <trkpt lat="45.7182" lon="6.58018">
        <ele>903</ele>
        <time>2022-08-16T08:11:18Z</time>
      </trkpt>
      <trkpt lat="45.7182" lon="6.58018">
        <ele>903</ele>
        <time>2022-08-16T08:11:22Z</time>
      </trkpt>
      <trkpt lat="45.7182" lon="6.58018">
        <ele>903</ele>
        <time>2022-08-16T08:11:26Z</time>
      </trkpt>
      <trkpt lat="45.71819" lon="6.5802">
        <ele>904</ele>
        <time>2022-08-16T08:11:27Z</time>
      </trkpt>
      <trkpt lat="45.71819" lon="6.58021">
        <ele>904</ele>
        <time>2022-08-16T08:11:28Z</time>
      </trkpt>
      <trkpt lat="45.7182" lon="6.58021">
        <ele>904</ele>
        <time>2022-08-16T08:11:29Z</time>
      </trkpt>
      <trkpt lat="45.71821" lon="6.58021">
        <ele>904</ele>
        <time>2022-08-16T08:11:30Z</time>
      </trkpt>
      <trkpt lat="45.71822" lon="6.58021">
        <ele>904</ele>
        <time>2022-08-16T08:11:31Z</time>
      </trkpt>
      <trkpt lat="45.71824" lon="6.5802">
        <ele>904</ele>
        <time>2022-08-16T08:11:32Z</time>
      </trkpt>
      <trkpt lat="45.71826" lon="6.5802">
        <ele>905</ele>
        <time>2022-08-16T08:11:33Z</time>
      </trkpt>
      <trkpt lat="45.71827" lon="6.5802">
        <ele>905</ele>
        <time>2022-08-16T08:11:34Z</time>
      </trkpt>
      <trkpt lat="45.7183" lon="6.58019">
        <ele>905</ele>
        <time>2022-08-16T08:11:35Z</time>
      </trkpt>
      <trkpt lat="45.71832" lon="6.58018">
        <ele>905</ele>
        <time>2022-08-16T08:11:36Z</time>
      </trkpt>
      <trkpt lat="45.71834" lon="6.58017">
        <ele>906</ele>
        <time>2022-08-16T08:11:37Z</time>
      </trkpt>
      <trkpt lat="45.71836" lon="6.58016">
        <ele>906</ele>
        <time>2022-08-16T08:11:38Z</time>
      </trkpt>
      <trkpt lat="45.71839" lon="6.58015">
        <ele>906</ele>
        <time>2022-08-16T08:11:39Z</time>
      </trkpt>
      <trkpt lat="45.71841" lon="6.58015">
        <ele>906</ele>
        <time>2022-08-16T08:11:40Z</time>
      </trkpt>
      <trkpt lat="45.71843" lon="6.58015">
        <ele>906</ele>
        <time>2022-08-16T08:11:41Z</time>
      </trkpt>
      <trkpt lat="45.71846" lon="6.58014">
        <ele>907</ele>
        <time>2022-08-16T08:11:42Z</time>
      </trkpt>
      <trkpt lat="45.71848" lon="6.58014">
        <ele>907</ele>
        <time>2022-08-16T08:11:43Z</time>
      </trkpt>
      <trkpt lat="45.7185" lon="6.58013">
        <ele>907</ele>
        <time>2022-08-16T08:11:44Z</time>
      </trkpt>
      <trkpt lat="45.71852" lon="6.58013">
        <ele>908</ele>
        <time>2022-08-16T08:11:45Z</time>
      </trkpt>
      <trkpt lat="45.71854" lon="6.58013">
        <ele>908</ele>
        <time>2022-08-16T08:11:46Z</time>
      </trkpt>
      <trkpt lat="45.71857" lon="6.58012">
        <ele>908</ele>
        <time>2022-08-16T08:11:47Z</time>
      </trkpt>
      <trkpt lat="45.71859" lon="6.58012">
        <ele>908</ele>
        <time>2022-08-16T08:11:48Z</time>
      </trkpt>
      <trkpt lat="45.71861" lon="6.58012">
        <ele>908</ele>
        <time>2022-08-16T08:11:49Z</time>
      </trkpt>
      <trkpt lat="45.71863" lon="6.58012">
        <ele>908</ele>
        <time>2022-08-16T08:11:50Z</time>
      </trkpt>
      <trkpt lat="45.71865" lon="6.58012">
        <ele>908</ele>
        <time>2022-08-16T08:11:51Z</time>
      </trkpt>
      <trkpt lat="45.71867" lon="6.58012">
        <ele>907</ele>
        <time>2022-08-16T08:11:52Z</time>
      </trkpt>
      <trkpt lat="45.71869" lon="6.58013">
        <ele>907</ele>
        <time>2022-08-16T08:11:53Z</time>
      </trkpt>
      <trkpt lat="45.71871" lon="6.58013">
        <ele>907</ele>
        <time>2022-08-16T08:11:54Z</time>
      </trkpt>
      <trkpt lat="45.71874" lon="6.58012">
        <ele>908</ele>
        <time>2022-08-16T08:11:55Z</time>
      </trkpt>
      <trkpt lat="45.71876" lon="6.58012">
        <ele>908</ele>
        <time>2022-08-16T08:11:56Z</time>
      </trkpt>
      <trkpt lat="45.71877" lon="6.58012">
        <ele>908</ele>
        <time>2022-08-16T08:11:57Z</time>
      </trkpt>
      <trkpt lat="45.7188" lon="6.58012">
        <ele>908</ele>
        <time>2022-08-16T08:11:58Z</time>
      </trkpt>
      <trkpt lat="45.71882" lon="6.58013">
        <ele>908</ele>
        <time>2022-08-16T08:11:59Z</time>
      </trkpt>
      <trkpt lat="45.71884" lon="6.58013">
        <ele>909</ele>
        <time>2022-08-16T08:12:00Z</time>
      </trkpt>
      <trkpt lat="45.71886" lon="6.58013">
        <ele>909</ele>
        <time>2022-08-16T08:12:01Z</time>
      </trkpt>
      <trkpt lat="45.71888" lon="6.58013">
        <ele>909</ele>
        <time>2022-08-16T08:12:02Z</time>
      </trkpt>
      <trkpt lat="45.7189" lon="6.58013">
        <ele>909</ele>
        <time>2022-08-16T08:12:03Z</time>
      </trkpt>
      <trkpt lat="45.71892" lon="6.58013">
        <ele>909</ele>
        <time>2022-08-16T08:12:04Z</time>
      </trkpt>
      <trkpt lat="45.71894" lon="6.58014">
        <ele>909</ele>
        <time>2022-08-16T08:12:05Z</time>
      </trkpt>
      <trkpt lat="45.71896" lon="6.58014">
        <ele>909</ele>
        <time>2022-08-16T08:12:06Z</time>
      </trkpt>
      <trkpt lat="45.71897" lon="6.58014">
        <ele>910</ele>
        <time>2022-08-16T08:12:07Z</time>
      </trkpt>
      <trkpt lat="45.71899" lon="6.58014">
        <ele>910</ele>
        <time>2022-08-16T08:12:08Z</time>
      </trkpt>
      <trkpt lat="45.71902" lon="6.58014">
        <ele>910</ele>
        <time>2022-08-16T08:12:09Z</time>
      </trkpt>
      <trkpt lat="45.71904" lon="6.58014">
        <ele>911</ele>
        <time>2022-08-16T08:12:10Z</time>
      </trkpt>
      <trkpt lat="45.71906" lon="6.58014">
        <ele>911</ele>
        <time>2022-08-16T08:12:11Z</time>
      </trkpt>
      <trkpt lat="45.71908" lon="6.58014">
        <ele>911</ele>
        <time>2022-08-16T08:12:12Z</time>
      </trkpt>
      <trkpt lat="45.7191" lon="6.58015">
        <ele>911</ele>
        <time>2022-08-16T08:12:13Z</time>
      </trkpt>
      <trkpt lat="45.71912" lon="6.58015">
        <ele>911</ele>
        <time>2022-08-16T08:12:14Z</time>
      </trkpt>
      <trkpt lat="45.71914" lon="6.58015">
        <ele>911</ele>
        <time>2022-08-16T08:12:15Z</time>
      </trkpt>
      <trkpt lat="45.71915" lon="6.58016">
        <ele>912</ele>
        <time>2022-08-16T08:12:16Z</time>
      </trkpt>
      <trkpt lat="45.71917" lon="6.58016">
        <ele>912</ele>
        <time>2022-08-16T08:12:17Z</time>
      </trkpt>
      <trkpt lat="45.71919" lon="6.58016">
        <ele>913</ele>
        <time>2022-08-16T08:12:18Z</time>
      </trkpt>
      <trkpt lat="45.71922" lon="6.58017">
        <ele>913</ele>
        <time>2022-08-16T08:12:19Z</time>
      </trkpt>
      <trkpt lat="45.71924" lon="6.58017">
        <ele>912</ele>
        <time>2022-08-16T08:12:20Z</time>
      </trkpt>
      <trkpt lat="45.71926" lon="6.58017">
        <ele>913</ele>
        <time>2022-08-16T08:12:21Z</time>
      </trkpt>
      <trkpt lat="45.71928" lon="6.58017">
        <ele>914</ele>
        <time>2022-08-16T08:12:22Z</time>
      </trkpt>
      <trkpt lat="45.71929" lon="6.58018">
        <ele>914</ele>
        <time>2022-08-16T08:12:23Z</time>
      </trkpt>
      <trkpt lat="45.71931" lon="6.58018">
        <ele>914</ele>
        <time>2022-08-16T08:12:24Z</time>
      </trkpt>
      <trkpt lat="45.71933" lon="6.58018">
        <ele>914</ele>
        <time>2022-08-16T08:12:25Z</time>
      </trkpt>
      <trkpt lat="45.71935" lon="6.58018">
        <ele>915</ele>
        <time>2022-08-16T08:12:26Z</time>
      </trkpt>
      <trkpt lat="45.71937" lon="6.58018">
        <ele>915</ele>
        <time>2022-08-16T08:12:27Z</time>
      </trkpt>
      <trkpt lat="45.71939" lon="6.58018">
        <ele>915</ele>
        <time>2022-08-16T08:12:28Z</time>
      </trkpt>
      <trkpt lat="45.71941" lon="6.58018">
        <ele>914</ele>
        <time>2022-08-16T08:12:29Z</time>
      </trkpt>
      <trkpt lat="45.71944" lon="6.58018">
        <ele>914</ele>
        <time>2022-08-16T08:12:30Z</time>
      </trkpt>
      <trkpt lat="45.71946" lon="6.58018">
        <ele>914</ele>
        <time>2022-08-16T08:12:31Z</time>
      </trkpt>
      <trkpt lat="45.71948" lon="6.58019">
        <ele>915</ele>
        <time>2022-08-16T08:12:32Z</time>
      </trkpt>
      <trkpt lat="45.71949" lon="6.58019">
        <ele>914</ele>
        <time>2022-08-16T08:12:33Z</time>
      </trkpt>
      <trkpt lat="45.71951" lon="6.58019">
        <ele>914</ele>
        <time>2022-08-16T08:12:34Z</time>
      </trkpt>
      <trkpt lat="45.71953" lon="6.5802">
        <ele>914</ele>
        <time>2022-08-16T08:12:35Z</time>
      </trkpt>
      <trkpt lat="45.71956" lon="6.5802">
        <ele>914</ele>
        <time>2022-08-16T08:12:36Z</time>
      </trkpt>
      <trkpt lat="45.71957" lon="6.58021">
        <ele>914</ele>
        <time>2022-08-16T08:12:37Z</time>
      </trkpt>
      <trkpt lat="45.7196" lon="6.58021">
        <ele>914</ele>
        <time>2022-08-16T08:12:38Z</time>
      </trkpt>
      <trkpt lat="45.71962" lon="6.58022">
        <ele>915</ele>
        <time>2022-08-16T08:12:39Z</time>
      </trkpt>
      <trkpt lat="45.71963" lon="6.58022">
        <ele>915</ele>
        <time>2022-08-16T08:12:40Z</time>
      </trkpt>
      <trkpt lat="45.71965" lon="6.58023">
        <ele>915</ele>
        <time>2022-08-16T08:12:41Z</time>
      </trkpt>
      <trkpt lat="45.71967" lon="6.58023">
        <ele>915</ele>
        <time>2022-08-16T08:12:42Z</time>
      </trkpt>
      <trkpt lat="45.71969" lon="6.58024">
        <ele>915</ele>
        <time>2022-08-16T08:12:43Z</time>
      </trkpt>
      <trkpt lat="45.71971" lon="6.58025">
        <ele>914</ele>
        <time>2022-08-16T08:12:44Z</time>
      </trkpt>
      <trkpt lat="45.71973" lon="6.58025">
        <ele>915</ele>
        <time>2022-08-16T08:12:45Z</time>
      </trkpt>
      <trkpt lat="45.71975" lon="6.58025">
        <ele>915</ele>
        <time>2022-08-16T08:12:46Z</time>
      </trkpt>
      <trkpt lat="45.71977" lon="6.58025">
        <ele>915</ele>
        <time>2022-08-16T08:12:47Z</time>
      </trkpt>
      <trkpt lat="45.71979" lon="6.58025">
        <ele>914</ele>
        <time>2022-08-16T08:12:48Z</time>
      </trkpt>
      <trkpt lat="45.71981" lon="6.58026">
        <ele>914</ele>
        <time>2022-08-16T08:12:49Z</time>
      </trkpt>
      <trkpt lat="45.71983" lon="6.58026">
        <ele>914</ele>
        <time>2022-08-16T08:12:50Z</time>
      </trkpt>
      <trkpt lat="45.71985" lon="6.58027">
        <ele>914</ele>
        <time>2022-08-16T08:12:51Z</time>
      </trkpt>
      <trkpt lat="45.71986" lon="6.58027">
        <ele>914</ele>
        <time>2022-08-16T08:12:52Z</time>
      </trkpt>
      <trkpt lat="45.71988" lon="6.58027">
        <ele>914</ele>
        <time>2022-08-16T08:12:53Z</time>
      </trkpt>
      <trkpt lat="45.7199" lon="6.58028">
        <ele>915</ele>
        <time>2022-08-16T08:12:54Z</time>
      </trkpt>
      <trkpt lat="45.71992" lon="6.58028">
        <ele>915</ele>
        <time>2022-08-16T08:12:55Z</time>
      </trkpt>
      <trkpt lat="45.71994" lon="6.58028">
        <ele>916</ele>
        <time>2022-08-16T08:12:56Z</time>
      </trkpt>
      <trkpt lat="45.71995" lon="6.58029">
        <ele>916</ele>
        <time>2022-08-16T08:12:57Z</time>
      </trkpt>
      <trkpt lat="45.71997" lon="6.58029">
        <ele>916</ele>
        <time>2022-08-16T08:12:58Z</time>
      </trkpt>
      <trkpt lat="45.71999" lon="6.58029">
        <ele>916</ele>
        <time>2022-08-16T08:12:59Z</time>
      </trkpt>
      <trkpt lat="45.72001" lon="6.58029">
        <ele>916</ele>
        <time>2022-08-16T08:13:00Z</time>
      </trkpt>
      <trkpt lat="45.72003" lon="6.58029">
        <ele>917</ele>
        <time>2022-08-16T08:13:01Z</time>
      </trkpt>
      <trkpt lat="45.72005" lon="6.58029">
        <ele>918</ele>
        <time>2022-08-16T08:13:02Z</time>
      </trkpt>
      <trkpt lat="45.72007" lon="6.58028">
        <ele>918</ele>
        <time>2022-08-16T08:13:03Z</time>
      </trkpt>
      <trkpt lat="45.7201" lon="6.58028">
        <ele>918</ele>
        <time>2022-08-16T08:13:04Z</time>
      </trkpt>
      <trkpt lat="45.72012" lon="6.58027">
        <ele>918</ele>
        <time>2022-08-16T08:13:05Z</time>
      </trkpt>
      <trkpt lat="45.72014" lon="6.58027">
        <ele>918</ele>
        <time>2022-08-16T08:13:06Z</time>
      </trkpt>
      <trkpt lat="45.72015" lon="6.58026">
        <ele>919</ele>
        <time>2022-08-16T08:13:07Z</time>
      </trkpt>
      <trkpt lat="45.72017" lon="6.58025">
        <ele>919</ele>
        <time>2022-08-16T08:13:08Z</time>
      </trkpt>
      <trkpt lat="45.72019" lon="6.58024">
        <ele>918</ele>
        <time>2022-08-16T08:13:09Z</time>
      </trkpt>
      <trkpt lat="45.72021" lon="6.58023">
        <ele>918</ele>
        <time>2022-08-16T08:13:10Z</time>
      </trkpt>
      <trkpt lat="45.72023" lon="6.58022">
        <ele>918</ele>
        <time>2022-08-16T08:13:11Z</time>
      </trkpt>
      <trkpt lat="45.72025" lon="6.5802">
        <ele>918</ele>
        <time>2022-08-16T08:13:12Z</time>
      </trkpt>
      <trkpt lat="45.72027" lon="6.58018">
        <ele>919</ele>
        <time>2022-08-16T08:13:13Z</time>
      </trkpt>
      <trkpt lat="45.72028" lon="6.58017">
        <ele>918</ele>
        <time>2022-08-16T08:13:14Z</time>
      </trkpt>
      <trkpt lat="45.7203" lon="6.58015">
        <ele>918</ele>
        <time>2022-08-16T08:13:15Z</time>
      </trkpt>
      <trkpt lat="45.72032" lon="6.58013">
        <ele>918</ele>
        <time>2022-08-16T08:13:16Z</time>
      </trkpt>
      <trkpt lat="45.72033" lon="6.58012">
        <ele>918</ele>
        <time>2022-08-16T08:13:17Z</time>
      </trkpt>
      <trkpt lat="45.72035" lon="6.5801">
        <ele>918</ele>
        <time>2022-08-16T08:13:18Z</time>
      </trkpt>
      <trkpt lat="45.72037" lon="6.58009">
        <ele>918</ele>
        <time>2022-08-16T08:13:19Z</time>
      </trkpt>
      <trkpt lat="45.72039" lon="6.58007">
        <ele>918</ele>
        <time>2022-08-16T08:13:20Z</time>
      </trkpt>
      <trkpt lat="45.7204" lon="6.58006">
        <ele>919</ele>
        <time>2022-08-16T08:13:21Z</time>
      </trkpt>
      <trkpt lat="45.72042" lon="6.58005">
        <ele>919</ele>
        <time>2022-08-16T08:13:22Z</time>
      </trkpt>
      <trkpt lat="45.72044" lon="6.58003">
        <ele>919</ele>
        <time>2022-08-16T08:13:23Z</time>
      </trkpt>
      <trkpt lat="45.72046" lon="6.58002">
        <ele>920</ele>
        <time>2022-08-16T08:13:24Z</time>
      </trkpt>
      <trkpt lat="45.72048" lon="6.58001">
        <ele>920</ele>
        <time>2022-08-16T08:13:25Z</time>
      </trkpt>
      <trkpt lat="45.7205" lon="6.58">
        <ele>921</ele>
        <time>2022-08-16T08:13:26Z</time>
      </trkpt>
      <trkpt lat="45.72051" lon="6.57999">
        <ele>921</ele>
        <time>2022-08-16T08:13:27Z</time>
      </trkpt>
      <trkpt lat="45.72053" lon="6.57998">
        <ele>921</ele>
        <time>2022-08-16T08:13:28Z</time>
      </trkpt>
      <trkpt lat="45.72055" lon="6.57997">
        <ele>921</ele>
        <time>2022-08-16T08:13:29Z</time>
      </trkpt>
      <trkpt lat="45.72057" lon="6.57997">
        <ele>921</ele>
        <time>2022-08-16T08:13:30Z</time>
      </trkpt>
      <trkpt lat="45.72059" lon="6.57996">
        <ele>921</ele>
        <time>2022-08-16T08:13:31Z</time>
      </trkpt>
      <trkpt lat="45.7206" lon="6.57996">
        <ele>921</ele>
        <time>2022-08-16T08:13:32Z</time>
      </trkpt>
      <trkpt lat="45.72062" lon="6.57995">
        <ele>921</ele>
        <time>2022-08-16T08:13:33Z</time>
      </trkpt>
      <trkpt lat="45.72064" lon="6.57995">
        <ele>922</ele>
        <time>2022-08-16T08:13:34Z</time>
      </trkpt>
      <trkpt lat="45.72066" lon="6.57995">
        <ele>922</ele>
        <time>2022-08-16T08:13:35Z</time>
      </trkpt>
      <trkpt lat="45.72068" lon="6.57994">
        <ele>922</ele>
        <time>2022-08-16T08:13:36Z</time>
      </trkpt>
      <trkpt lat="45.7207" lon="6.57994">
        <ele>922</ele>
        <time>2022-08-16T08:13:37Z</time>
      </trkpt>
      <trkpt lat="45.72072" lon="6.57993">
        <ele>922</ele>
        <time>2022-08-16T08:13:38Z</time>
      </trkpt>
      <trkpt lat="45.72073" lon="6.57993">
        <ele>922</ele>
        <time>2022-08-16T08:13:39Z</time>
      </trkpt>
      <trkpt lat="45.72075" lon="6.57993">
        <ele>923</ele>
        <time>2022-08-16T08:13:40Z</time>
      </trkpt>
      <trkpt lat="45.72077" lon="6.57993">
        <ele>923</ele>
        <time>2022-08-16T08:13:41Z</time>
      </trkpt>
      <trkpt lat="45.7208" lon="6.57992">
        <ele>923</ele>
        <time>2022-08-16T08:13:42Z</time>
      </trkpt>
      <trkpt lat="45.72082" lon="6.57992">
        <ele>923</ele>
        <time>2022-08-16T08:13:43Z</time>
      </trkpt>
      <trkpt lat="45.72083" lon="6.57992">
        <ele>923</ele>
        <time>2022-08-16T08:13:44Z</time>
      </trkpt>
      <trkpt lat="45.72085" lon="6.57992">
        <ele>923</ele>
        <time>2022-08-16T08:13:45Z</time>
      </trkpt>
      <trkpt lat="45.72087" lon="6.57992">
        <ele>923</ele>
        <time>2022-08-16T08:13:46Z</time>
      </trkpt>
      <trkpt lat="45.72089" lon="6.57992">
        <ele>923</ele>
        <time>2022-08-16T08:13:47Z</time>
      </trkpt>
      <trkpt lat="45.72091" lon="6.57992">
        <ele>923</ele>
        <time>2022-08-16T08:13:48Z</time>
      </trkpt>
      <trkpt lat="45.72092" lon="6.57992">
        <ele>922</ele>
        <time>2022-08-16T08:13:49Z</time>
      </trkpt>
      <trkpt lat="45.72094" lon="6.57992">
        <ele>922</ele>
        <time>2022-08-16T08:13:50Z</time>
      </trkpt>
      <trkpt lat="45.72096" lon="6.57992">
        <ele>923</ele>
        <time>2022-08-16T08:13:51Z</time>
      </trkpt>
      <trkpt lat="45.72098" lon="6.57992">
        <ele>923</ele>
        <time>2022-08-16T08:13:52Z</time>
      </trkpt>
      <trkpt lat="45.721" lon="6.57992">
        <ele>923</ele>
        <time>2022-08-16T08:13:53Z</time>
      </trkpt>
      <trkpt lat="45.72102" lon="6.57991">
        <ele>924</ele>
        <time>2022-08-16T08:13:54Z</time>
      </trkpt>
      <trkpt lat="45.72104" lon="6.57991">
        <ele>924</ele>
        <time>2022-08-16T08:13:55Z</time>
      </trkpt>
      <trkpt lat="45.72106" lon="6.57991">
        <ele>925</ele>
        <time>2022-08-16T08:13:56Z</time>
      </trkpt>
      <trkpt lat="45.72108" lon="6.57991">
        <ele>925</ele>
        <time>2022-08-16T08:13:57Z</time>
      </trkpt>
      <trkpt lat="45.7211" lon="6.57991">
        <ele>926</ele>
        <time>2022-08-16T08:13:58Z</time>
      </trkpt>
      <trkpt lat="45.72112" lon="6.57992">
        <ele>926</ele>
        <time>2022-08-16T08:13:59Z</time>
      </trkpt>
      <trkpt lat="45.72114" lon="6.57993">
        <ele>927</ele>
        <time>2022-08-16T08:14:00Z</time>
      </trkpt>
      <trkpt lat="45.72116" lon="6.57993">
        <ele>927</ele>
        <time>2022-08-16T08:14:01Z</time>
      </trkpt>
      <trkpt lat="45.72118" lon="6.57994">
        <ele>927</ele>
        <time>2022-08-16T08:14:02Z</time>
      </trkpt>
      <trkpt lat="45.7212" lon="6.57995">
        <ele>927</ele>
        <time>2022-08-16T08:14:03Z</time>
      </trkpt>
      <trkpt lat="45.72122" lon="6.57996">
        <ele>927</ele>
        <time>2022-08-16T08:14:04Z</time>
      </trkpt>
      <trkpt lat="45.72124" lon="6.57996">
        <ele>927</ele>
        <time>2022-08-16T08:14:05Z</time>
      </trkpt>
      <trkpt lat="45.72126" lon="6.57997">
        <ele>927</ele>
        <time>2022-08-16T08:14:06Z</time>
      </trkpt>
      <trkpt lat="45.72128" lon="6.57998">
        <ele>927</ele>
        <time>2022-08-16T08:14:07Z</time>
      </trkpt>
      <trkpt lat="45.7213" lon="6.57998">
        <ele>927</ele>
        <time>2022-08-16T08:14:08Z</time>
      </trkpt>
      <trkpt lat="45.72132" lon="6.57999">
        <ele>927</ele>
        <time>2022-08-16T08:14:09Z</time>
      </trkpt>
      <trkpt lat="45.72133" lon="6.57999">
        <ele>927</ele>
        <time>2022-08-16T08:14:10Z</time>
      </trkpt>
      <trkpt lat="45.72135" lon="6.57999">
        <ele>928</ele>
        <time>2022-08-16T08:14:11Z</time>
      </trkpt>
      <trkpt lat="45.72137" lon="6.57999">
        <ele>928</ele>
        <time>2022-08-16T08:14:12Z</time>
      </trkpt>
      <trkpt lat="45.72139" lon="6.57999">
        <ele>928</ele>
        <time>2022-08-16T08:14:13Z</time>
      </trkpt>
      <trkpt lat="45.72141" lon="6.57998">
        <ele>928</ele>
        <time>2022-08-16T08:14:14Z</time>
      </trkpt>
      <trkpt lat="45.72143" lon="6.57997">
        <ele>929</ele>
        <time>2022-08-16T08:14:15Z</time>
      </trkpt>
      <trkpt lat="45.72145" lon="6.57996">
        <ele>929</ele>
        <time>2022-08-16T08:14:16Z</time>
      </trkpt>
      <trkpt lat="45.72146" lon="6.57994">
        <ele>929</ele>
        <time>2022-08-16T08:14:17Z</time>
      </trkpt>
      <trkpt lat="45.72147" lon="6.57993">
        <ele>930</ele>
        <time>2022-08-16T08:14:18Z</time>
      </trkpt>
      <trkpt lat="45.72148" lon="6.57991">
        <ele>930</ele>
        <time>2022-08-16T08:14:19Z</time>
      </trkpt>
      <trkpt lat="45.7215" lon="6.57988">
        <ele>931</ele>
        <time>2022-08-16T08:14:20Z</time>
      </trkpt>
      <trkpt lat="45.72151" lon="6.57986">
        <ele>931</ele>
        <time>2022-08-16T08:14:21Z</time>
      </trkpt>
      <trkpt lat="45.72152" lon="6.57983">
        <ele>931</ele>
        <time>2022-08-16T08:14:22Z</time>
      </trkpt>
      <trkpt lat="45.72154" lon="6.5798">
        <ele>932</ele>
        <time>2022-08-16T08:14:23Z</time>
      </trkpt>
      <trkpt lat="45.72155" lon="6.57977">
        <ele>932</ele>
        <time>2022-08-16T08:14:24Z</time>
      </trkpt>
      <trkpt lat="45.72156" lon="6.57975">
        <ele>933</ele>
        <time>2022-08-16T08:14:25Z</time>
      </trkpt>
      <trkpt lat="45.72157" lon="6.57972">
        <ele>934</ele>
        <time>2022-08-16T08:14:26Z</time>
      </trkpt>
      <trkpt lat="45.72158" lon="6.57969">
        <ele>934</ele>
        <time>2022-08-16T08:14:27Z</time>
      </trkpt>
      <trkpt lat="45.72159" lon="6.57967">
        <ele>934</ele>
        <time>2022-08-16T08:14:28Z</time>
      </trkpt>
      <trkpt lat="45.72161" lon="6.57965">
        <ele>934</ele>
        <time>2022-08-16T08:14:29Z</time>
      </trkpt>
      <trkpt lat="45.72162" lon="6.57962">
        <ele>934</ele>
        <time>2022-08-16T08:14:30Z</time>
      </trkpt>
      <trkpt lat="45.72163" lon="6.5796">
        <ele>934</ele>
        <time>2022-08-16T08:14:31Z</time>
      </trkpt>
      <trkpt lat="45.72164" lon="6.57957">
        <ele>935</ele>
        <time>2022-08-16T08:14:32Z</time>
      </trkpt>
      <trkpt lat="45.72165" lon="6.57955">
        <ele>935</ele>
        <time>2022-08-16T08:14:33Z</time>
      </trkpt>
      <trkpt lat="45.72166" lon="6.57953">
        <ele>935</ele>
        <time>2022-08-16T08:14:34Z</time>
      </trkpt>
      <trkpt lat="45.72168" lon="6.57951">
        <ele>935</ele>
        <time>2022-08-16T08:14:35Z</time>
      </trkpt>
      <trkpt lat="45.72169" lon="6.57949">
        <ele>935</ele>
        <time>2022-08-16T08:14:36Z</time>
      </trkpt>
      <trkpt lat="45.72171" lon="6.57948">
        <ele>935</ele>
        <time>2022-08-16T08:14:37Z</time>
      </trkpt>
      <trkpt lat="45.72173" lon="6.57947">
        <ele>936</ele>
        <time>2022-08-16T08:14:38Z</time>
      </trkpt>
      <trkpt lat="45.72175" lon="6.57946">
        <ele>936</ele>
        <time>2022-08-16T08:14:39Z</time>
      </trkpt>
      <trkpt lat="45.72176" lon="6.57945">
        <ele>936</ele>
        <time>2022-08-16T08:14:40Z</time>
      </trkpt>
      <trkpt lat="45.72178" lon="6.57943">
        <ele>937</ele>
        <time>2022-08-16T08:14:41Z</time>
      </trkpt>
      <trkpt lat="45.72179" lon="6.57942">
        <ele>938</ele>
        <time>2022-08-16T08:14:42Z</time>
      </trkpt>
      <trkpt lat="45.72181" lon="6.57941">
        <ele>938</ele>
        <time>2022-08-16T08:14:43Z</time>
      </trkpt>
      <trkpt lat="45.72183" lon="6.5794">
        <ele>938</ele>
        <time>2022-08-16T08:14:44Z</time>
      </trkpt>
      <trkpt lat="45.72185" lon="6.57939">
        <ele>939</ele>
        <time>2022-08-16T08:14:45Z</time>
      </trkpt>
      <trkpt lat="45.72186" lon="6.57938">
        <ele>939</ele>
        <time>2022-08-16T08:14:46Z</time>
      </trkpt>
      <trkpt lat="45.72188" lon="6.57937">
        <ele>939</ele>
        <time>2022-08-16T08:14:47Z</time>
      </trkpt>
      <trkpt lat="45.7219" lon="6.57936">
        <ele>939</ele>
        <time>2022-08-16T08:14:48Z</time>
      </trkpt>
      <trkpt lat="45.72192" lon="6.57935">
        <ele>939</ele>
        <time>2022-08-16T08:14:49Z</time>
      </trkpt>
      <trkpt lat="45.72193" lon="6.57934">
        <ele>939</ele>
        <time>2022-08-16T08:14:50Z</time>
      </trkpt>
      <trkpt lat="45.72195" lon="6.57932">
        <ele>939</ele>
        <time>2022-08-16T08:14:51Z</time>
      </trkpt>
      <trkpt lat="45.72196" lon="6.57931">
        <ele>939</ele>
        <time>2022-08-16T08:14:52Z</time>
      </trkpt>
      <trkpt lat="45.72198" lon="6.5793">
        <ele>939</ele>
        <time>2022-08-16T08:14:53Z</time>
      </trkpt>
      <trkpt lat="45.722" lon="6.57928">
        <ele>939</ele>
        <time>2022-08-16T08:14:54Z</time>
      </trkpt>
      <trkpt lat="45.72202" lon="6.57927">
        <ele>940</ele>
        <time>2022-08-16T08:14:55Z</time>
      </trkpt>
      <trkpt lat="45.72204" lon="6.57926">
        <ele>940</ele>
        <time>2022-08-16T08:14:56Z</time>
      </trkpt>
      <trkpt lat="45.72205" lon="6.57925">
        <ele>941</ele>
        <time>2022-08-16T08:14:57Z</time>
      </trkpt>
      <trkpt lat="45.72207" lon="6.57923">
        <ele>941</ele>
        <time>2022-08-16T08:14:58Z</time>
      </trkpt>
      <trkpt lat="45.72209" lon="6.57922">
        <ele>942</ele>
        <time>2022-08-16T08:14:59Z</time>
      </trkpt>
      <trkpt lat="45.72211" lon="6.5792">
        <ele>942</ele>
        <time>2022-08-16T08:15:00Z</time>
      </trkpt>
      <trkpt lat="45.72212" lon="6.57919">
        <ele>942</ele>
        <time>2022-08-16T08:15:01Z</time>
      </trkpt>
      <trkpt lat="45.72214" lon="6.57918">
        <ele>942</ele>
        <time>2022-08-16T08:15:02Z</time>
      </trkpt>
      <trkpt lat="45.72216" lon="6.57917">
        <ele>942</ele>
        <time>2022-08-16T08:15:03Z</time>
      </trkpt>
      <trkpt lat="45.72218" lon="6.57916">
        <ele>942</ele>
        <time>2022-08-16T08:15:04Z</time>
      </trkpt>
      <trkpt lat="45.7222" lon="6.57915">
        <ele>942</ele>
        <time>2022-08-16T08:15:05Z</time>
      </trkpt>
      <trkpt lat="45.72222" lon="6.57914">
        <ele>942</ele>
        <time>2022-08-16T08:15:06Z</time>
      </trkpt>
      <trkpt lat="45.72223" lon="6.57913">
        <ele>942</ele>
        <time>2022-08-16T08:15:07Z</time>
      </trkpt>
      <trkpt lat="45.72225" lon="6.57912">
        <ele>943</ele>
        <time>2022-08-16T08:15:08Z</time>
      </trkpt>
      <trkpt lat="45.72227" lon="6.57911">
        <ele>943</ele>
        <time>2022-08-16T08:15:09Z</time>
      </trkpt>
      <trkpt lat="45.72229" lon="6.5791">
        <ele>943</ele>
        <time>2022-08-16T08:15:10Z</time>
      </trkpt>
      <trkpt lat="45.72232" lon="6.57909">
        <ele>943</ele>
        <time>2022-08-16T08:15:11Z</time>
      </trkpt>
      <trkpt lat="45.72234" lon="6.57909">
        <ele>943</ele>
        <time>2022-08-16T08:15:12Z</time>
      </trkpt>
      <trkpt lat="45.72235" lon="6.57908">
        <ele>943</ele>
        <time>2022-08-16T08:15:13Z</time>
      </trkpt>
      <trkpt lat="45.72237" lon="6.57907">
        <ele>944</ele>
        <time>2022-08-16T08:15:14Z</time>
      </trkpt>
      <trkpt lat="45.72239" lon="6.57907">
        <ele>944</ele>
        <time>2022-08-16T08:15:15Z</time>
      </trkpt>
      <trkpt lat="45.72241" lon="6.57906">
        <ele>944</ele>
        <time>2022-08-16T08:15:16Z</time>
      </trkpt>
      <trkpt lat="45.72242" lon="6.57905">
        <ele>944</ele>
        <time>2022-08-16T08:15:17Z</time>
      </trkpt>
      <trkpt lat="45.72244" lon="6.57904">
        <ele>945</ele>
        <time>2022-08-16T08:15:18Z</time>
      </trkpt>
      <trkpt lat="45.72246" lon="6.57904">
        <ele>945</ele>
        <time>2022-08-16T08:15:19Z</time>
      </trkpt>
      <trkpt lat="45.72248" lon="6.57904">
        <ele>945</ele>
        <time>2022-08-16T08:15:20Z</time>
      </trkpt>
      <trkpt lat="45.7225" lon="6.57904">
        <ele>946</ele>
        <time>2022-08-16T08:15:21Z</time>
      </trkpt>
      <trkpt lat="45.72252" lon="6.57904">
        <ele>946</ele>
        <time>2022-08-16T08:15:22Z</time>
      </trkpt>
      <trkpt lat="45.72254" lon="6.57905">
        <ele>946</ele>
        <time>2022-08-16T08:15:23Z</time>
      </trkpt>
      <trkpt lat="45.72256" lon="6.57906">
        <ele>946</ele>
        <time>2022-08-16T08:15:24Z</time>
      </trkpt>
      <trkpt lat="45.72258" lon="6.57906">
        <ele>946</ele>
        <time>2022-08-16T08:15:25Z</time>
      </trkpt>
      <trkpt lat="45.7226" lon="6.57906">
        <ele>946</ele>
        <time>2022-08-16T08:15:26Z</time>
      </trkpt>
      <trkpt lat="45.72261" lon="6.57906">
        <ele>946</ele>
        <time>2022-08-16T08:15:27Z</time>
      </trkpt>
      <trkpt lat="45.72263" lon="6.57906">
        <ele>946</ele>
        <time>2022-08-16T08:15:28Z</time>
      </trkpt>
      <trkpt lat="45.72265" lon="6.57907">
        <ele>945</ele>
        <time>2022-08-16T08:15:29Z</time>
      </trkpt>
      <trkpt lat="45.72267" lon="6.57907">
        <ele>945</ele>
        <time>2022-08-16T08:15:30Z</time>
      </trkpt>
      <trkpt lat="45.72269" lon="6.57908">
        <ele>945</ele>
        <time>2022-08-16T08:15:31Z</time>
      </trkpt>
      <trkpt lat="45.72271" lon="6.57908">
        <ele>945</ele>
        <time>2022-08-16T08:15:32Z</time>
      </trkpt>
      <trkpt lat="45.72273" lon="6.57908">
        <ele>946</ele>
        <time>2022-08-16T08:15:33Z</time>
      </trkpt>
      <trkpt lat="45.72275" lon="6.57908">
        <ele>946</ele>
        <time>2022-08-16T08:15:34Z</time>
      </trkpt>
      <trkpt lat="45.72277" lon="6.57908">
        <ele>947</ele>
        <time>2022-08-16T08:15:35Z</time>
      </trkpt>
      <trkpt lat="45.72279" lon="6.57908">
        <ele>947</ele>
        <time>2022-08-16T08:15:36Z</time>
      </trkpt>
      <trkpt lat="45.72281" lon="6.57908">
        <ele>948</ele>
        <time>2022-08-16T08:15:37Z</time>
      </trkpt>
      <trkpt lat="45.72283" lon="6.57908">
        <ele>947</ele>
        <time>2022-08-16T08:15:38Z</time>
      </trkpt>
      <trkpt lat="45.72285" lon="6.57907">
        <ele>947</ele>
        <time>2022-08-16T08:15:39Z</time>
      </trkpt>
      <trkpt lat="45.72287" lon="6.57907">
        <ele>948</ele>
        <time>2022-08-16T08:15:40Z</time>
      </trkpt>
      <trkpt lat="45.72289" lon="6.57906">
        <ele>948</ele>
        <time>2022-08-16T08:15:41Z</time>
      </trkpt>
      <trkpt lat="45.72291" lon="6.57905">
        <ele>947</ele>
        <time>2022-08-16T08:15:42Z</time>
      </trkpt>
      <trkpt lat="45.72293" lon="6.57904">
        <ele>947</ele>
        <time>2022-08-16T08:15:43Z</time>
      </trkpt>
      <trkpt lat="45.72295" lon="6.57903">
        <ele>947</ele>
        <time>2022-08-16T08:15:44Z</time>
      </trkpt>
      <trkpt lat="45.72297" lon="6.57901">
        <ele>948</ele>
        <time>2022-08-16T08:15:45Z</time>
      </trkpt>
      <trkpt lat="45.72299" lon="6.579">
        <ele>949</ele>
        <time>2022-08-16T08:15:46Z</time>
      </trkpt>
      <trkpt lat="45.72301" lon="6.57899">
        <ele>949</ele>
        <time>2022-08-16T08:15:47Z</time>
      </trkpt>
      <trkpt lat="45.72303" lon="6.57899">
        <ele>949</ele>
        <time>2022-08-16T08:15:48Z</time>
      </trkpt>
      <trkpt lat="45.72305" lon="6.57898">
        <ele>950</ele>
        <time>2022-08-16T08:15:49Z</time>
      </trkpt>
      <trkpt lat="45.72307" lon="6.57897">
        <ele>950</ele>
        <time>2022-08-16T08:15:50Z</time>
      </trkpt>
      <trkpt lat="45.72309" lon="6.57896">
        <ele>950</ele>
        <time>2022-08-16T08:15:51Z</time>
      </trkpt>
      <trkpt lat="45.7231" lon="6.57896">
        <ele>950</ele>
        <time>2022-08-16T08:15:52Z</time>
      </trkpt>
      <trkpt lat="45.72312" lon="6.57895">
        <ele>951</ele>
        <time>2022-08-16T08:15:53Z</time>
      </trkpt>
      <trkpt lat="45.72314" lon="6.57894">
        <ele>951</ele>
        <time>2022-08-16T08:15:54Z</time>
      </trkpt>
      <trkpt lat="45.72316" lon="6.57893">
        <ele>951</ele>
        <time>2022-08-16T08:15:55Z</time>
      </trkpt>
      <trkpt lat="45.72318" lon="6.57891">
        <ele>951</ele>
        <time>2022-08-16T08:15:56Z</time>
      </trkpt>
      <trkpt lat="45.7232" lon="6.5789">
        <ele>951</ele>
        <time>2022-08-16T08:15:57Z</time>
      </trkpt>
      <trkpt lat="45.72321" lon="6.57889">
        <ele>951</ele>
        <time>2022-08-16T08:15:58Z</time>
      </trkpt>
      <trkpt lat="45.72323" lon="6.57888">
        <ele>951</ele>
        <time>2022-08-16T08:15:59Z</time>
      </trkpt>
      <trkpt lat="45.72325" lon="6.57887">
        <ele>951</ele>
        <time>2022-08-16T08:16:00Z</time>
      </trkpt>
      <trkpt lat="45.72327" lon="6.57887">
        <ele>951</ele>
        <time>2022-08-16T08:16:01Z</time>
      </trkpt>
      <trkpt lat="45.72329" lon="6.57886">
        <ele>951</ele>
        <time>2022-08-16T08:16:02Z</time>
      </trkpt>
      <trkpt lat="45.72331" lon="6.57885">
        <ele>952</ele>
        <time>2022-08-16T08:16:03Z</time>
      </trkpt>
      <trkpt lat="45.72332" lon="6.57884">
        <ele>952</ele>
        <time>2022-08-16T08:16:04Z</time>
      </trkpt>
      <trkpt lat="45.72334" lon="6.57884">
        <ele>952</ele>
        <time>2022-08-16T08:16:05Z</time>
      </trkpt>
      <trkpt lat="45.72336" lon="6.57883">
        <ele>952</ele>
        <time>2022-08-16T08:16:06Z</time>
      </trkpt>
      <trkpt lat="45.72338" lon="6.57882">
        <ele>953</ele>
        <time>2022-08-16T08:16:07Z</time>
      </trkpt>
      <trkpt lat="45.7234" lon="6.57882">
        <ele>953</ele>
        <time>2022-08-16T08:16:08Z</time>
      </trkpt>
      <trkpt lat="45.72342" lon="6.57881">
        <ele>953</ele>
        <time>2022-08-16T08:16:09Z</time>
      </trkpt>
      <trkpt lat="45.72344" lon="6.57881">
        <ele>953</ele>
        <time>2022-08-16T08:16:10Z</time>
      </trkpt>
      <trkpt lat="45.72346" lon="6.57881">
        <ele>953</ele>
        <time>2022-08-16T08:16:11Z</time>
      </trkpt>
      <trkpt lat="45.72348" lon="6.57881">
        <ele>953</ele>
        <time>2022-08-16T08:16:12Z</time>
      </trkpt>
      <trkpt lat="45.7235" lon="6.5788">
        <ele>953</ele>
        <time>2022-08-16T08:16:13Z</time>
      </trkpt>
      <trkpt lat="45.72352" lon="6.5788">
        <ele>953</ele>
        <time>2022-08-16T08:16:14Z</time>
      </trkpt>
      <trkpt lat="45.72354" lon="6.57879">
        <ele>954</ele>
        <time>2022-08-16T08:16:15Z</time>
      </trkpt>
      <trkpt lat="45.72356" lon="6.57878">
        <ele>954</ele>
        <time>2022-08-16T08:16:16Z</time>
      </trkpt>
      <trkpt lat="45.72358" lon="6.57878">
        <ele>953</ele>
        <time>2022-08-16T08:16:17Z</time>
      </trkpt>
      <trkpt lat="45.7236" lon="6.57877">
        <ele>953</ele>
        <time>2022-08-16T08:16:18Z</time>
      </trkpt>
      <trkpt lat="45.72362" lon="6.57876">
        <ele>953</ele>
        <time>2022-08-16T08:16:19Z</time>
      </trkpt>
      <trkpt lat="45.72364" lon="6.57876">
        <ele>953</ele>
        <time>2022-08-16T08:16:20Z</time>
      </trkpt>
      <trkpt lat="45.72366" lon="6.57876">
        <ele>954</ele>
        <time>2022-08-16T08:16:21Z</time>
      </trkpt>
      <trkpt lat="45.72367" lon="6.57875">
        <ele>953</ele>
        <time>2022-08-16T08:16:22Z</time>
      </trkpt>
      <trkpt lat="45.72369" lon="6.57874">
        <ele>954</ele>
        <time>2022-08-16T08:16:23Z</time>
      </trkpt>
      <trkpt lat="45.72371" lon="6.57874">
        <ele>954</ele>
        <time>2022-08-16T08:16:24Z</time>
      </trkpt>
      <trkpt lat="45.72373" lon="6.57872">
        <ele>955</ele>
        <time>2022-08-16T08:16:25Z</time>
      </trkpt>
      <trkpt lat="45.72375" lon="6.57871">
        <ele>955</ele>
        <time>2022-08-16T08:16:26Z</time>
      </trkpt>
      <trkpt lat="45.72376" lon="6.5787">
        <ele>955</ele>
        <time>2022-08-16T08:16:27Z</time>
      </trkpt>
      <trkpt lat="45.72378" lon="6.57868">
        <ele>955</ele>
        <time>2022-08-16T08:16:28Z</time>
      </trkpt>
      <trkpt lat="45.7238" lon="6.57867">
        <ele>955</ele>
        <time>2022-08-16T08:16:29Z</time>
      </trkpt>
      <trkpt lat="45.72381" lon="6.57865">
        <ele>956</ele>
        <time>2022-08-16T08:16:30Z</time>
      </trkpt>
      <trkpt lat="45.72383" lon="6.57864">
        <ele>957</ele>
        <time>2022-08-16T08:16:31Z</time>
      </trkpt>
      <trkpt lat="45.72385" lon="6.57862">
        <ele>957</ele>
        <time>2022-08-16T08:16:32Z</time>
      </trkpt>
      <trkpt lat="45.72387" lon="6.57861">
        <ele>957</ele>
        <time>2022-08-16T08:16:33Z</time>
      </trkpt>
      <trkpt lat="45.72389" lon="6.5786">
        <ele>957</ele>
        <time>2022-08-16T08:16:34Z</time>
      </trkpt>
      <trkpt lat="45.72391" lon="6.57858">
        <ele>957</ele>
        <time>2022-08-16T08:16:35Z</time>
      </trkpt>
      <trkpt lat="45.72393" lon="6.57857">
        <ele>957</ele>
        <time>2022-08-16T08:16:36Z</time>
      </trkpt>
      <trkpt lat="45.72394" lon="6.57856">
        <ele>957</ele>
        <time>2022-08-16T08:16:37Z</time>
      </trkpt>
      <trkpt lat="45.72396" lon="6.57855">
        <ele>958</ele>
        <time>2022-08-16T08:16:38Z</time>
      </trkpt>
      <trkpt lat="45.72398" lon="6.57855">
        <ele>958</ele>
        <time>2022-08-16T08:16:39Z</time>
      </trkpt>
      <trkpt lat="45.724" lon="6.57855">
        <ele>958</ele>
        <time>2022-08-16T08:16:40Z</time>
      </trkpt>
      <trkpt lat="45.72402" lon="6.57856">
        <ele>958</ele>
        <time>2022-08-16T08:16:41Z</time>
      </trkpt>
      <trkpt lat="45.72404" lon="6.57856">
        <ele>958</ele>
        <time>2022-08-16T08:16:42Z</time>
      </trkpt>
      <trkpt lat="45.72406" lon="6.57857">
        <ele>958</ele>
        <time>2022-08-16T08:16:43Z</time>
      </trkpt>
      <trkpt lat="45.72408" lon="6.57857">
        <ele>959</ele>
        <time>2022-08-16T08:16:44Z</time>
      </trkpt>
      <trkpt lat="45.72409" lon="6.57858">
        <ele>959</ele>
        <time>2022-08-16T08:16:45Z</time>
      </trkpt>
      <trkpt lat="45.72411" lon="6.57859">
        <ele>959</ele>
        <time>2022-08-16T08:16:46Z</time>
      </trkpt>
      <trkpt lat="45.72413" lon="6.5786">
        <ele>959</ele>
        <time>2022-08-16T08:16:47Z</time>
      </trkpt>
      <trkpt lat="45.72414" lon="6.57861">
        <ele>960</ele>
        <time>2022-08-16T08:16:48Z</time>
      </trkpt>
      <trkpt lat="45.72416" lon="6.57862">
        <ele>960</ele>
        <time>2022-08-16T08:16:49Z</time>
      </trkpt>
      <trkpt lat="45.72418" lon="6.57863">
        <ele>960</ele>
        <time>2022-08-16T08:16:50Z</time>
      </trkpt>
      <trkpt lat="45.7242" lon="6.57863">
        <ele>960</ele>
        <time>2022-08-16T08:16:51Z</time>
      </trkpt>
      <trkpt lat="45.72421" lon="6.57864">
        <ele>960</ele>
        <time>2022-08-16T08:16:52Z</time>
      </trkpt>
      <trkpt lat="45.72423" lon="6.57865">
        <ele>960</ele>
        <time>2022-08-16T08:16:53Z</time>
      </trkpt>
      <trkpt lat="45.72425" lon="6.57866">
        <ele>961</ele>
        <time>2022-08-16T08:16:54Z</time>
      </trkpt>
      <trkpt lat="45.72426" lon="6.57867">
        <ele>961</ele>
        <time>2022-08-16T08:16:55Z</time>
      </trkpt>
      <trkpt lat="45.72428" lon="6.57868">
        <ele>961</ele>
        <time>2022-08-16T08:16:56Z</time>
      </trkpt>
      <trkpt lat="45.7243" lon="6.57869">
        <ele>962</ele>
        <time>2022-08-16T08:16:57Z</time>
      </trkpt>
      <trkpt lat="45.72432" lon="6.5787">
        <ele>961</ele>
        <time>2022-08-16T08:16:58Z</time>
      </trkpt>
      <trkpt lat="45.72434" lon="6.5787">
        <ele>961</ele>
        <time>2022-08-16T08:16:59Z</time>
      </trkpt>
      <trkpt lat="45.72435" lon="6.57871">
        <ele>961</ele>
        <time>2022-08-16T08:17:00Z</time>
      </trkpt>
      <trkpt lat="45.72437" lon="6.57872">
        <ele>962</ele>
        <time>2022-08-16T08:17:01Z</time>
      </trkpt>
      <trkpt lat="45.72439" lon="6.57873">
        <ele>962</ele>
        <time>2022-08-16T08:17:02Z</time>
      </trkpt>
      <trkpt lat="45.72441" lon="6.57873">
        <ele>962</ele>
        <time>2022-08-16T08:17:03Z</time>
      </trkpt>
      <trkpt lat="45.72443" lon="6.57874">
        <ele>962</ele>
        <time>2022-08-16T08:17:04Z</time>
      </trkpt>
      <trkpt lat="45.72445" lon="6.57875">
        <ele>963</ele>
        <time>2022-08-16T08:17:05Z</time>
      </trkpt>
      <trkpt lat="45.72447" lon="6.57876">
        <ele>963</ele>
        <time>2022-08-16T08:17:06Z</time>
      </trkpt>
      <trkpt lat="45.72449" lon="6.57877">
        <ele>963</ele>
        <time>2022-08-16T08:17:07Z</time>
      </trkpt>
      <trkpt lat="45.7245" lon="6.57878">
        <ele>963</ele>
        <time>2022-08-16T08:17:08Z</time>
      </trkpt>
      <trkpt lat="45.72452" lon="6.57879">
        <ele>963</ele>
        <time>2022-08-16T08:17:09Z</time>
      </trkpt>
      <trkpt lat="45.72454" lon="6.5788">
        <ele>963</ele>
        <time>2022-08-16T08:17:10Z</time>
      </trkpt>
      <trkpt lat="45.72455" lon="6.57881">
        <ele>963</ele>
        <time>2022-08-16T08:17:11Z</time>
      </trkpt>
      <trkpt lat="45.72456" lon="6.57882">
        <ele>964</ele>
        <time>2022-08-16T08:17:12Z</time>
      </trkpt>
      <trkpt lat="45.72458" lon="6.57884">
        <ele>964</ele>
        <time>2022-08-16T08:17:13Z</time>
      </trkpt>
      <trkpt lat="45.72459" lon="6.57885">
        <ele>963</ele>
        <time>2022-08-16T08:17:14Z</time>
      </trkpt>
      <trkpt lat="45.72461" lon="6.57887">
        <ele>963</ele>
        <time>2022-08-16T08:17:15Z</time>
      </trkpt>
      <trkpt lat="45.72462" lon="6.57888">
        <ele>963</ele>
        <time>2022-08-16T08:17:16Z</time>
      </trkpt>
      <trkpt lat="45.72463" lon="6.5789">
        <ele>963</ele>
        <time>2022-08-16T08:17:17Z</time>
      </trkpt>
      <trkpt lat="45.72464" lon="6.57891">
        <ele>963</ele>
        <time>2022-08-16T08:17:18Z</time>
      </trkpt>
      <trkpt lat="45.72465" lon="6.57893">
        <ele>964</ele>
        <time>2022-08-16T08:17:19Z</time>
      </trkpt>
      <trkpt lat="45.72466" lon="6.57895">
        <ele>964</ele>
        <time>2022-08-16T08:17:20Z</time>
      </trkpt>
      <trkpt lat="45.72467" lon="6.57898">
        <ele>963</ele>
        <time>2022-08-16T08:17:21Z</time>
      </trkpt>
      <trkpt lat="45.72468" lon="6.57901">
        <ele>963</ele>
        <time>2022-08-16T08:17:22Z</time>
      </trkpt>
      <trkpt lat="45.72469" lon="6.57904">
        <ele>963</ele>
        <time>2022-08-16T08:17:23Z</time>
      </trkpt>
      <trkpt lat="45.72471" lon="6.57906">
        <ele>964</ele>
        <time>2022-08-16T08:17:24Z</time>
      </trkpt>
      <trkpt lat="45.72472" lon="6.57909">
        <ele>964</ele>
        <time>2022-08-16T08:17:25Z</time>
      </trkpt>
      <trkpt lat="45.72472" lon="6.57912">
        <ele>965</ele>
        <time>2022-08-16T08:17:26Z</time>
      </trkpt>
      <trkpt lat="45.72473" lon="6.57914">
        <ele>965</ele>
        <time>2022-08-16T08:17:27Z</time>
      </trkpt>
      <trkpt lat="45.72474" lon="6.57917">
        <ele>965</ele>
        <time>2022-08-16T08:17:28Z</time>
      </trkpt>
      <trkpt lat="45.72474" lon="6.57921">
        <ele>966</ele>
        <time>2022-08-16T08:17:29Z</time>
      </trkpt>
      <trkpt lat="45.72475" lon="6.57924">
        <ele>966</ele>
        <time>2022-08-16T08:17:30Z</time>
      </trkpt>
      <trkpt lat="45.72476" lon="6.57927">
        <ele>966</ele>
        <time>2022-08-16T08:17:31Z</time>
      </trkpt>
      <trkpt lat="45.72477" lon="6.5793">
        <ele>967</ele>
        <time>2022-08-16T08:17:32Z</time>
      </trkpt>
      <trkpt lat="45.72479" lon="6.57932">
        <ele>967</ele>
        <time>2022-08-16T08:17:33Z</time>
      </trkpt>
      <trkpt lat="45.7248" lon="6.57935">
        <ele>967</ele>
        <time>2022-08-16T08:17:34Z</time>
      </trkpt>
      <trkpt lat="45.72481" lon="6.57937">
        <ele>967</ele>
        <time>2022-08-16T08:17:35Z</time>
      </trkpt>
      <trkpt lat="45.72483" lon="6.57939">
        <ele>967</ele>
        <time>2022-08-16T08:17:36Z</time>
      </trkpt>
      <trkpt lat="45.72484" lon="6.57941">
        <ele>966</ele>
        <time>2022-08-16T08:17:37Z</time>
      </trkpt>
      <trkpt lat="45.72486" lon="6.57943">
        <ele>966</ele>
        <time>2022-08-16T08:17:38Z</time>
      </trkpt>
      <trkpt lat="45.72488" lon="6.57945">
        <ele>966</ele>
        <time>2022-08-16T08:17:39Z</time>
      </trkpt>
      <trkpt lat="45.7249" lon="6.57947">
        <ele>966</ele>
        <time>2022-08-16T08:17:40Z</time>
      </trkpt>
      <trkpt lat="45.72491" lon="6.57949">
        <ele>966</ele>
        <time>2022-08-16T08:17:41Z</time>
      </trkpt>
      <trkpt lat="45.72493" lon="6.5795">
        <ele>966</ele>
        <time>2022-08-16T08:17:42Z</time>
      </trkpt>
      <trkpt lat="45.72495" lon="6.57951">
        <ele>967</ele>
        <time>2022-08-16T08:17:43Z</time>
      </trkpt>
      <trkpt lat="45.72497" lon="6.57952">
        <ele>967</ele>
        <time>2022-08-16T08:17:44Z</time>
      </trkpt>
      <trkpt lat="45.72498" lon="6.57952">
        <ele>967</ele>
        <time>2022-08-16T08:17:45Z</time>
      </trkpt>
      <trkpt lat="45.725" lon="6.57952">
        <ele>968</ele>
        <time>2022-08-16T08:17:46Z</time>
      </trkpt>
      <trkpt lat="45.72502" lon="6.57953">
        <ele>968</ele>
        <time>2022-08-16T08:17:47Z</time>
      </trkpt>
      <trkpt lat="45.72504" lon="6.57953">
        <ele>968</ele>
        <time>2022-08-16T08:17:48Z</time>
      </trkpt>
      <trkpt lat="45.72505" lon="6.57953">
        <ele>968</ele>
        <time>2022-08-16T08:17:49Z</time>
      </trkpt>
      <trkpt lat="45.72507" lon="6.57953">
        <ele>968</ele>
        <time>2022-08-16T08:17:50Z</time>
      </trkpt>
      <trkpt lat="45.72508" lon="6.57953">
        <ele>968</ele>
        <time>2022-08-16T08:17:51Z</time>
      </trkpt>
      <trkpt lat="45.7251" lon="6.57953">
        <ele>970</ele>
        <time>2022-08-16T08:17:52Z</time>
      </trkpt>
      <trkpt lat="45.72511" lon="6.57953">
        <ele>970</ele>
        <time>2022-08-16T08:17:53Z</time>
      </trkpt>
      <trkpt lat="45.72512" lon="6.57953">
        <ele>971</ele>
        <time>2022-08-16T08:17:54Z</time>
      </trkpt>
      <trkpt lat="45.72514" lon="6.57952">
        <ele>972</ele>
        <time>2022-08-16T08:17:55Z</time>
      </trkpt>
      <trkpt lat="45.72516" lon="6.57952">
        <ele>972</ele>
        <time>2022-08-16T08:17:56Z</time>
      </trkpt>
      <trkpt lat="45.72518" lon="6.57951">
        <ele>972</ele>
        <time>2022-08-16T08:17:57Z</time>
      </trkpt>
      <trkpt lat="45.72519" lon="6.57951">
        <ele>972</ele>
        <time>2022-08-16T08:17:58Z</time>
      </trkpt>
      <trkpt lat="45.72521" lon="6.5795">
        <ele>972</ele>
        <time>2022-08-16T08:17:59Z</time>
      </trkpt>
      <trkpt lat="45.72523" lon="6.57949">
        <ele>973</ele>
        <time>2022-08-16T08:18:00Z</time>
      </trkpt>
      <trkpt lat="45.72525" lon="6.57948">
        <ele>973</ele>
        <time>2022-08-16T08:18:01Z</time>
      </trkpt>
      <trkpt lat="45.72527" lon="6.57947">
        <ele>973</ele>
        <time>2022-08-16T08:18:02Z</time>
      </trkpt>
      <trkpt lat="45.72529" lon="6.57946">
        <ele>973</ele>
        <time>2022-08-16T08:18:03Z</time>
      </trkpt>
      <trkpt lat="45.7253" lon="6.57945">
        <ele>974</ele>
        <time>2022-08-16T08:18:04Z</time>
      </trkpt>
      <trkpt lat="45.72532" lon="6.57945">
        <ele>974</ele>
        <time>2022-08-16T08:18:05Z</time>
      </trkpt>
      <trkpt lat="45.72534" lon="6.57944">
        <ele>974</ele>
        <time>2022-08-16T08:18:06Z</time>
      </trkpt>
      <trkpt lat="45.72536" lon="6.57943">
        <ele>974</ele>
        <time>2022-08-16T08:18:07Z</time>
      </trkpt>
      <trkpt lat="45.72538" lon="6.57942">
        <ele>974</ele>
        <time>2022-08-16T08:18:08Z</time>
      </trkpt>
      <trkpt lat="45.72539" lon="6.5794">
        <ele>975</ele>
        <time>2022-08-16T08:18:09Z</time>
      </trkpt>
      <trkpt lat="45.72541" lon="6.57939">
        <ele>976</ele>
        <time>2022-08-16T08:18:10Z</time>
      </trkpt>
      <trkpt lat="45.72542" lon="6.57938">
        <ele>976</ele>
        <time>2022-08-16T08:18:11Z</time>
      </trkpt>
      <trkpt lat="45.72544" lon="6.57937">
        <ele>977</ele>
        <time>2022-08-16T08:18:12Z</time>
      </trkpt>
      <trkpt lat="45.72546" lon="6.57936">
        <ele>977</ele>
        <time>2022-08-16T08:18:13Z</time>
      </trkpt>
      <trkpt lat="45.72548" lon="6.57935">
        <ele>977</ele>
        <time>2022-08-16T08:18:14Z</time>
      </trkpt>
      <trkpt lat="45.72551" lon="6.57934">
        <ele>977</ele>
        <time>2022-08-16T08:18:15Z</time>
      </trkpt>
      <trkpt lat="45.72552" lon="6.57932">
        <ele>977</ele>
        <time>2022-08-16T08:18:16Z</time>
      </trkpt>
      <trkpt lat="45.72554" lon="6.57931">
        <ele>977</ele>
        <time>2022-08-16T08:18:17Z</time>
      </trkpt>
      <trkpt lat="45.72556" lon="6.5793">
        <ele>977</ele>
        <time>2022-08-16T08:18:18Z</time>
      </trkpt>
      <trkpt lat="45.72558" lon="6.57929">
        <ele>977</ele>
        <time>2022-08-16T08:18:19Z</time>
      </trkpt>
      <trkpt lat="45.72559" lon="6.57928">
        <ele>977</ele>
        <time>2022-08-16T08:18:20Z</time>
      </trkpt>
      <trkpt lat="45.72561" lon="6.57927">
        <ele>977</ele>
        <time>2022-08-16T08:18:21Z</time>
      </trkpt>
      <trkpt lat="45.72563" lon="6.57925">
        <ele>977</ele>
        <time>2022-08-16T08:18:22Z</time>
      </trkpt>
      <trkpt lat="45.72564" lon="6.57924">
        <ele>979</ele>
        <time>2022-08-16T08:18:23Z</time>
      </trkpt>
      <trkpt lat="45.72566" lon="6.57923">
        <ele>979</ele>
        <time>2022-08-16T08:18:24Z</time>
      </trkpt>
      <trkpt lat="45.72568" lon="6.57921">
        <ele>979</ele>
        <time>2022-08-16T08:18:25Z</time>
      </trkpt>
      <trkpt lat="45.7257" lon="6.5792">
        <ele>979</ele>
        <time>2022-08-16T08:18:26Z</time>
      </trkpt>
      <trkpt lat="45.72572" lon="6.57919">
        <ele>980</ele>
        <time>2022-08-16T08:18:27Z</time>
      </trkpt>
      <trkpt lat="45.72573" lon="6.57917">
        <ele>980</ele>
        <time>2022-08-16T08:18:28Z</time>
      </trkpt>
      <trkpt lat="45.72575" lon="6.57916">
        <ele>980</ele>
        <time>2022-08-16T08:18:29Z</time>
      </trkpt>
      <trkpt lat="45.72576" lon="6.57914">
        <ele>980</ele>
        <time>2022-08-16T08:18:30Z</time>
      </trkpt>
      <trkpt lat="45.72578" lon="6.57913">
        <ele>980</ele>
        <time>2022-08-16T08:18:31Z</time>
      </trkpt>
      <trkpt lat="45.72579" lon="6.57912">
        <ele>980</ele>
        <time>2022-08-16T08:18:32Z</time>
      </trkpt>
      <trkpt lat="45.7258" lon="6.57911">
        <ele>980</ele>
        <time>2022-08-16T08:18:33Z</time>
      </trkpt>
      <trkpt lat="45.72581" lon="6.57909">
        <ele>980</ele>
        <time>2022-08-16T08:18:34Z</time>
      </trkpt>
      <trkpt lat="45.72582" lon="6.57906">
        <ele>980</ele>
        <time>2022-08-16T08:18:35Z</time>
      </trkpt>
      <trkpt lat="45.72583" lon="6.57903">
        <ele>981</ele>
        <time>2022-08-16T08:18:36Z</time>
      </trkpt>
      <trkpt lat="45.72584" lon="6.57899">
        <ele>982</ele>
        <time>2022-08-16T08:18:37Z</time>
      </trkpt>
      <trkpt lat="45.72585" lon="6.57896">
        <ele>982</ele>
        <time>2022-08-16T08:18:38Z</time>
      </trkpt>
      <trkpt lat="45.72585" lon="6.57892">
        <ele>982</ele>
        <time>2022-08-16T08:18:39Z</time>
      </trkpt>
      <trkpt lat="45.72586" lon="6.57889">
        <ele>983</ele>
        <time>2022-08-16T08:18:40Z</time>
      </trkpt>
      <trkpt lat="45.72586" lon="6.57885">
        <ele>982</ele>
        <time>2022-08-16T08:18:41Z</time>
      </trkpt>
      <trkpt lat="45.72586" lon="6.57882">
        <ele>983</ele>
        <time>2022-08-16T08:18:42Z</time>
      </trkpt>
      <trkpt lat="45.72586" lon="6.57879">
        <ele>984</ele>
        <time>2022-08-16T08:18:43Z</time>
      </trkpt>
      <trkpt lat="45.72586" lon="6.57875">
        <ele>984</ele>
        <time>2022-08-16T08:18:44Z</time>
      </trkpt>
      <trkpt lat="45.72586" lon="6.57873">
        <ele>984</ele>
        <time>2022-08-16T08:18:45Z</time>
      </trkpt>
      <trkpt lat="45.72586" lon="6.5787">
        <ele>984</ele>
        <time>2022-08-16T08:18:46Z</time>
      </trkpt>
      <trkpt lat="45.72586" lon="6.57867">
        <ele>984</ele>
        <time>2022-08-16T08:18:47Z</time>
      </trkpt>
      <trkpt lat="45.72586" lon="6.57864">
        <ele>985</ele>
        <time>2022-08-16T08:18:48Z</time>
      </trkpt>
      <trkpt lat="45.72586" lon="6.57861">
        <ele>985</ele>
        <time>2022-08-16T08:18:49Z</time>
      </trkpt>
      <trkpt lat="45.72586" lon="6.57858">
        <ele>986</ele>
        <time>2022-08-16T08:18:50Z</time>
      </trkpt>
      <trkpt lat="45.72586" lon="6.57855">
        <ele>986</ele>
        <time>2022-08-16T08:18:51Z</time>
      </trkpt>
      <trkpt lat="45.72585" lon="6.57852">
        <ele>986</ele>
        <time>2022-08-16T08:18:52Z</time>
      </trkpt>
      <trkpt lat="45.72585" lon="6.5785">
        <ele>986</ele>
        <time>2022-08-16T08:18:53Z</time>
      </trkpt>
      <trkpt lat="45.72585" lon="6.57847">
        <ele>985</ele>
        <time>2022-08-16T08:18:54Z</time>
      </trkpt>
      <trkpt lat="45.72585" lon="6.57844">
        <ele>986</ele>
        <time>2022-08-16T08:18:55Z</time>
      </trkpt>
      <trkpt lat="45.72585" lon="6.57841">
        <ele>986</ele>
        <time>2022-08-16T08:18:56Z</time>
      </trkpt>
      <trkpt lat="45.72585" lon="6.57839">
        <ele>986</ele>
        <time>2022-08-16T08:18:57Z</time>
      </trkpt>
      <trkpt lat="45.72585" lon="6.57836">
        <ele>986</ele>
        <time>2022-08-16T08:18:58Z</time>
      </trkpt>
      <trkpt lat="45.72585" lon="6.57833">
        <ele>987</ele>
        <time>2022-08-16T08:18:59Z</time>
      </trkpt>
      <trkpt lat="45.72585" lon="6.57829">
        <ele>987</ele>
        <time>2022-08-16T08:19:00Z</time>
      </trkpt>
      <trkpt lat="45.72585" lon="6.57826">
        <ele>987</ele>
        <time>2022-08-16T08:19:01Z</time>
      </trkpt>
      <trkpt lat="45.72586" lon="6.57823">
        <ele>988</ele>
        <time>2022-08-16T08:19:02Z</time>
      </trkpt>
      <trkpt lat="45.72586" lon="6.5782">
        <ele>988</ele>
        <time>2022-08-16T08:19:03Z</time>
      </trkpt>
      <trkpt lat="45.72587" lon="6.57817">
        <ele>988</ele>
        <time>2022-08-16T08:19:04Z</time>
      </trkpt>
      <trkpt lat="45.72588" lon="6.57814">
        <ele>989</ele>
        <time>2022-08-16T08:19:05Z</time>
      </trkpt>
      <trkpt lat="45.72588" lon="6.57811">
        <ele>989</ele>
        <time>2022-08-16T08:19:06Z</time>
      </trkpt>
      <trkpt lat="45.72589" lon="6.57808">
        <ele>989</ele>
        <time>2022-08-16T08:19:07Z</time>
      </trkpt>
      <trkpt lat="45.72589" lon="6.57805">
        <ele>989</ele>
        <time>2022-08-16T08:19:08Z</time>
      </trkpt>
      <trkpt lat="45.7259" lon="6.57803">
        <ele>989</ele>
        <time>2022-08-16T08:19:09Z</time>
      </trkpt>
      <trkpt lat="45.72591" lon="6.578">
        <ele>990</ele>
        <time>2022-08-16T08:19:10Z</time>
      </trkpt>
      <trkpt lat="45.72592" lon="6.57797">
        <ele>990</ele>
        <time>2022-08-16T08:19:11Z</time>
      </trkpt>
      <trkpt lat="45.72593" lon="6.57794">
        <ele>990</ele>
        <time>2022-08-16T08:19:12Z</time>
      </trkpt>
      <trkpt lat="45.72594" lon="6.57792">
        <ele>990</ele>
        <time>2022-08-16T08:19:13Z</time>
      </trkpt>
      <trkpt lat="45.72594" lon="6.57788">
        <ele>990</ele>
        <time>2022-08-16T08:19:14Z</time>
      </trkpt>
      <trkpt lat="45.72595" lon="6.57786">
        <ele>990</ele>
        <time>2022-08-16T08:19:15Z</time>
      </trkpt>
      <trkpt lat="45.72596" lon="6.57783">
        <ele>990</ele>
        <time>2022-08-16T08:19:16Z</time>
      </trkpt>
      <trkpt lat="45.72597" lon="6.5778">
        <ele>990</ele>
        <time>2022-08-16T08:19:17Z</time>
      </trkpt>
      <trkpt lat="45.72598" lon="6.57777">
        <ele>990</ele>
        <time>2022-08-16T08:19:18Z</time>
      </trkpt>
      <trkpt lat="45.72598" lon="6.57774">
        <ele>991</ele>
        <time>2022-08-16T08:19:19Z</time>
      </trkpt>
      <trkpt lat="45.72599" lon="6.57771">
        <ele>990</ele>
        <time>2022-08-16T08:19:20Z</time>
      </trkpt>
      <trkpt lat="45.72599" lon="6.57768">
        <ele>991</ele>
        <time>2022-08-16T08:19:21Z</time>
      </trkpt>
      <trkpt lat="45.726" lon="6.57765">
        <ele>991</ele>
        <time>2022-08-16T08:19:22Z</time>
      </trkpt>
      <trkpt lat="45.72601" lon="6.57763">
        <ele>991</ele>
        <time>2022-08-16T08:19:23Z</time>
      </trkpt>
      <trkpt lat="45.72601" lon="6.5776">
        <ele>991</ele>
        <time>2022-08-16T08:19:24Z</time>
      </trkpt>
      <trkpt lat="45.72602" lon="6.57757">
        <ele>991</ele>
        <time>2022-08-16T08:19:25Z</time>
      </trkpt>
      <trkpt lat="45.72603" lon="6.57754">
        <ele>992</ele>
        <time>2022-08-16T08:19:26Z</time>
      </trkpt>
      <trkpt lat="45.72603" lon="6.5775">
        <ele>992</ele>
        <time>2022-08-16T08:19:27Z</time>
      </trkpt>
      <trkpt lat="45.72604" lon="6.57747">
        <ele>993</ele>
        <time>2022-08-16T08:19:28Z</time>
      </trkpt>
      <trkpt lat="45.72605" lon="6.57744">
        <ele>993</ele>
        <time>2022-08-16T08:19:29Z</time>
      </trkpt>
      <trkpt lat="45.72605" lon="6.57741">
        <ele>994</ele>
        <time>2022-08-16T08:19:30Z</time>
      </trkpt>
      <trkpt lat="45.72605" lon="6.57738">
        <ele>994</ele>
        <time>2022-08-16T08:19:31Z</time>
      </trkpt>
      <trkpt lat="45.72606" lon="6.57735">
        <ele>994</ele>
        <time>2022-08-16T08:19:32Z</time>
      </trkpt>
      <trkpt lat="45.72607" lon="6.57733">
        <ele>995</ele>
        <time>2022-08-16T08:19:33Z</time>
      </trkpt>
      <trkpt lat="45.72608" lon="6.5773">
        <ele>995</ele>
        <time>2022-08-16T08:19:34Z</time>
      </trkpt>
      <trkpt lat="45.72608" lon="6.57727">
        <ele>995</ele>
        <time>2022-08-16T08:19:35Z</time>
      </trkpt>
      <trkpt lat="45.72609" lon="6.57723">
        <ele>995</ele>
        <time>2022-08-16T08:19:36Z</time>
      </trkpt>
      <trkpt lat="45.72609" lon="6.5772">
        <ele>995</ele>
        <time>2022-08-16T08:19:37Z</time>
      </trkpt>
      <trkpt lat="45.7261" lon="6.57717">
        <ele>995</ele>
        <time>2022-08-16T08:19:38Z</time>
      </trkpt>
      <trkpt lat="45.72611" lon="6.57714">
        <ele>996</ele>
        <time>2022-08-16T08:19:39Z</time>
      </trkpt>
      <trkpt lat="45.72612" lon="6.57711">
        <ele>996</ele>
        <time>2022-08-16T08:19:40Z</time>
      </trkpt>
      <trkpt lat="45.72612" lon="6.57708">
        <ele>996</ele>
        <time>2022-08-16T08:19:41Z</time>
      </trkpt>
      <trkpt lat="45.72613" lon="6.57704">
        <ele>996</ele>
        <time>2022-08-16T08:19:42Z</time>
      </trkpt>
      <trkpt lat="45.72614" lon="6.57701">
        <ele>996</ele>
        <time>2022-08-16T08:19:43Z</time>
      </trkpt>
      <trkpt lat="45.72615" lon="6.57697">
        <ele>996</ele>
        <time>2022-08-16T08:19:44Z</time>
      </trkpt>
      <trkpt lat="45.72616" lon="6.57693">
        <ele>996</ele>
        <time>2022-08-16T08:19:45Z</time>
      </trkpt>
      <trkpt lat="45.72616" lon="6.5769">
        <ele>996</ele>
        <time>2022-08-16T08:19:46Z</time>
      </trkpt>
      <trkpt lat="45.72617" lon="6.57686">
        <ele>996</ele>
        <time>2022-08-16T08:19:47Z</time>
      </trkpt>
      <trkpt lat="45.72619" lon="6.57682">
        <ele>996</ele>
        <time>2022-08-16T08:19:48Z</time>
      </trkpt>
      <trkpt lat="45.7262" lon="6.57678">
        <ele>996</ele>
        <time>2022-08-16T08:19:49Z</time>
      </trkpt>
      <trkpt lat="45.72621" lon="6.57673">
        <ele>996</ele>
        <time>2022-08-16T08:19:50Z</time>
      </trkpt>
      <trkpt lat="45.72621" lon="6.57669">
        <ele>995</ele>
        <time>2022-08-16T08:19:51Z</time>
      </trkpt>
      <trkpt lat="45.72622" lon="6.57665">
        <ele>995</ele>
        <time>2022-08-16T08:19:52Z</time>
      </trkpt>
      <trkpt lat="45.72622" lon="6.5766">
        <ele>996</ele>
        <time>2022-08-16T08:19:53Z</time>
      </trkpt>
      <trkpt lat="45.72624" lon="6.57656">
        <ele>995</ele>
        <time>2022-08-16T08:19:54Z</time>
      </trkpt>
      <trkpt lat="45.72624" lon="6.57652">
        <ele>995</ele>
        <time>2022-08-16T08:19:55Z</time>
      </trkpt>
      <trkpt lat="45.72625" lon="6.57647">
        <ele>994</ele>
        <time>2022-08-16T08:19:56Z</time>
      </trkpt>
      <trkpt lat="45.72626" lon="6.57642">
        <ele>994</ele>
        <time>2022-08-16T08:19:57Z</time>
      </trkpt>
      <trkpt lat="45.72627" lon="6.57638">
        <ele>994</ele>
        <time>2022-08-16T08:19:58Z</time>
      </trkpt>
      <trkpt lat="45.72626" lon="6.57634">
        <ele>994</ele>
        <time>2022-08-16T08:19:59Z</time>
      </trkpt>
      <trkpt lat="45.72626" lon="6.57629">
        <ele>995</ele>
        <time>2022-08-16T08:20:00Z</time>
      </trkpt>
      <trkpt lat="45.72625" lon="6.57624">
        <ele>996</ele>
        <time>2022-08-16T08:20:01Z</time>
      </trkpt>
      <trkpt lat="45.72625" lon="6.57618">
        <ele>997</ele>
        <time>2022-08-16T08:20:02Z</time>
      </trkpt>
      <trkpt lat="45.72623" lon="6.57613">
        <ele>998</ele>
        <time>2022-08-16T08:20:03Z</time>
      </trkpt>
      <trkpt lat="45.72623" lon="6.57608">
        <ele>998</ele>
        <time>2022-08-16T08:20:04Z</time>
      </trkpt>
      <trkpt lat="45.72622" lon="6.57604">
        <ele>998</ele>
        <time>2022-08-16T08:20:05Z</time>
      </trkpt>
      <trkpt lat="45.72622" lon="6.57599">
        <ele>998</ele>
        <time>2022-08-16T08:20:06Z</time>
      </trkpt>
      <trkpt lat="45.72621" lon="6.57595">
        <ele>998</ele>
        <time>2022-08-16T08:20:07Z</time>
      </trkpt>
      <trkpt lat="45.72621" lon="6.57591">
        <ele>998</ele>
        <time>2022-08-16T08:20:08Z</time>
      </trkpt>
      <trkpt lat="45.72621" lon="6.57587">
        <ele>998</ele>
        <time>2022-08-16T08:20:09Z</time>
      </trkpt>
      <trkpt lat="45.72621" lon="6.57582">
        <ele>998</ele>
        <time>2022-08-16T08:20:10Z</time>
      </trkpt>
      <trkpt lat="45.72621" lon="6.57578">
        <ele>998</ele>
        <time>2022-08-16T08:20:11Z</time>
      </trkpt>
      <trkpt lat="45.72621" lon="6.57573">
        <ele>998</ele>
        <time>2022-08-16T08:20:12Z</time>
      </trkpt>
      <trkpt lat="45.72621" lon="6.57568">
        <ele>998</ele>
        <time>2022-08-16T08:20:13Z</time>
      </trkpt>
      <trkpt lat="45.72621" lon="6.57563">
        <ele>998</ele>
        <time>2022-08-16T08:20:14Z</time>
      </trkpt>
      <trkpt lat="45.72621" lon="6.57558">
        <ele>998</ele>
        <time>2022-08-16T08:20:15Z</time>
      </trkpt>
      <trkpt lat="45.7262" lon="6.57553">
        <ele>998</ele>
        <time>2022-08-16T08:20:16Z</time>
      </trkpt>
      <trkpt lat="45.7262" lon="6.57547">
        <ele>999</ele>
        <time>2022-08-16T08:20:17Z</time>
      </trkpt>
      <trkpt lat="45.72619" lon="6.57542">
        <ele>1000</ele>
        <time>2022-08-16T08:20:18Z</time>
      </trkpt>
      <trkpt lat="45.72617" lon="6.57535">
        <ele>1000</ele>
        <time>2022-08-16T08:20:19Z</time>
      </trkpt>
      <trkpt lat="45.72616" lon="6.5753">
        <ele>1000</ele>
        <time>2022-08-16T08:20:20Z</time>
      </trkpt>
      <trkpt lat="45.72614" lon="6.57525">
        <ele>1001</ele>
        <time>2022-08-16T08:20:21Z</time>
      </trkpt>
      <trkpt lat="45.72612" lon="6.57519">
        <ele>1001</ele>
        <time>2022-08-16T08:20:22Z</time>
      </trkpt>
      <trkpt lat="45.72611" lon="6.57514">
        <ele>1002</ele>
        <time>2022-08-16T08:20:23Z</time>
      </trkpt>
      <trkpt lat="45.7261" lon="6.57509">
        <ele>1001</ele>
        <time>2022-08-16T08:20:24Z</time>
      </trkpt>
      <trkpt lat="45.72609" lon="6.57503">
        <ele>1001</ele>
        <time>2022-08-16T08:20:25Z</time>
      </trkpt>
      <trkpt lat="45.72609" lon="6.57498">
        <ele>1001</ele>
        <time>2022-08-16T08:20:26Z</time>
      </trkpt>
      <trkpt lat="45.72609" lon="6.57494">
        <ele>1001</ele>
        <time>2022-08-16T08:20:27Z</time>
      </trkpt>
      <trkpt lat="45.7261" lon="6.5749">
        <ele>1001</ele>
        <time>2022-08-16T08:20:28Z</time>
      </trkpt>
      <trkpt lat="45.7261" lon="6.57486">
        <ele>1001</ele>
        <time>2022-08-16T08:20:29Z</time>
      </trkpt>
      <trkpt lat="45.72611" lon="6.57481">
        <ele>1001</ele>
        <time>2022-08-16T08:20:30Z</time>
      </trkpt>
      <trkpt lat="45.72612" lon="6.57476">
        <ele>1002</ele>
        <time>2022-08-16T08:20:31Z</time>
      </trkpt>
      <trkpt lat="45.72612" lon="6.57471">
        <ele>1002</ele>
        <time>2022-08-16T08:20:32Z</time>
      </trkpt>
      <trkpt lat="45.72613" lon="6.57466">
        <ele>1002</ele>
        <time>2022-08-16T08:20:33Z</time>
      </trkpt>
      <trkpt lat="45.72614" lon="6.5746">
        <ele>1002</ele>
        <time>2022-08-16T08:20:34Z</time>
      </trkpt>
      <trkpt lat="45.72614" lon="6.57455">
        <ele>1002</ele>
        <time>2022-08-16T08:20:35Z</time>
      </trkpt>
      <trkpt lat="45.72614" lon="6.57449">
        <ele>1002</ele>
        <time>2022-08-16T08:20:36Z</time>
      </trkpt>
      <trkpt lat="45.72615" lon="6.57443">
        <ele>1002</ele>
        <time>2022-08-16T08:20:37Z</time>
      </trkpt>
      <trkpt lat="45.72615" lon="6.57438">
        <ele>1002</ele>
        <time>2022-08-16T08:20:38Z</time>
      </trkpt>
      <trkpt lat="45.72617" lon="6.57433">
        <ele>1002</ele>
        <time>2022-08-16T08:20:39Z</time>
      </trkpt>
      <trkpt lat="45.72619" lon="6.57428">
        <ele>1002</ele>
        <time>2022-08-16T08:20:40Z</time>
      </trkpt>
      <trkpt lat="45.72621" lon="6.57423">
        <ele>1002</ele>
        <time>2022-08-16T08:20:41Z</time>
      </trkpt>
      <trkpt lat="45.72624" lon="6.57419">
        <ele>1002</ele>
        <time>2022-08-16T08:20:42Z</time>
      </trkpt>
      <trkpt lat="45.72627" lon="6.57416">
        <ele>1002</ele>
        <time>2022-08-16T08:20:43Z</time>
      </trkpt>
      <trkpt lat="45.7263" lon="6.57414">
        <ele>1002</ele>
        <time>2022-08-16T08:20:44Z</time>
      </trkpt>
      <trkpt lat="45.72634" lon="6.57413">
        <ele>1002</ele>
        <time>2022-08-16T08:20:45Z</time>
      </trkpt>
      <trkpt lat="45.72637" lon="6.57411">
        <ele>1002</ele>
        <time>2022-08-16T08:20:46Z</time>
      </trkpt>
      <trkpt lat="45.72641" lon="6.5741">
        <ele>1002</ele>
        <time>2022-08-16T08:20:47Z</time>
      </trkpt>
      <trkpt lat="45.72646" lon="6.57409">
        <ele>1002</ele>
        <time>2022-08-16T08:20:48Z</time>
      </trkpt>
      <trkpt lat="45.7265" lon="6.57408">
        <ele>1002</ele>
        <time>2022-08-16T08:20:49Z</time>
      </trkpt>
      <trkpt lat="45.72654" lon="6.57407">
        <ele>1002</ele>
        <time>2022-08-16T08:20:50Z</time>
      </trkpt>
      <trkpt lat="45.72658" lon="6.57405">
        <ele>1002</ele>
        <time>2022-08-16T08:20:51Z</time>
      </trkpt>
      <trkpt lat="45.72661" lon="6.57404">
        <ele>1001</ele>
        <time>2022-08-16T08:20:52Z</time>
      </trkpt>
      <trkpt lat="45.72665" lon="6.57402">
        <ele>1001</ele>
        <time>2022-08-16T08:20:53Z</time>
      </trkpt>
      <trkpt lat="45.72669" lon="6.57401">
        <ele>1001</ele>
        <time>2022-08-16T08:20:54Z</time>
      </trkpt>
      <trkpt lat="45.72672" lon="6.574">
        <ele>1001</ele>
        <time>2022-08-16T08:20:55Z</time>
      </trkpt>
      <trkpt lat="45.72676" lon="6.57399">
        <ele>1002</ele>
        <time>2022-08-16T08:20:56Z</time>
      </trkpt>
      <trkpt lat="45.7268" lon="6.57398">
        <ele>1002</ele>
        <time>2022-08-16T08:20:57Z</time>
      </trkpt>
      <trkpt lat="45.72684" lon="6.57396">
        <ele>1002</ele>
        <time>2022-08-16T08:20:58Z</time>
      </trkpt>
      <trkpt lat="45.72687" lon="6.57395">
        <ele>1002</ele>
        <time>2022-08-16T08:20:59Z</time>
      </trkpt>
      <trkpt lat="45.72691" lon="6.57393">
        <ele>1002</ele>
        <time>2022-08-16T08:21:00Z</time>
      </trkpt>
      <trkpt lat="45.72694" lon="6.57392">
        <ele>1003</ele>
        <time>2022-08-16T08:21:01Z</time>
      </trkpt>
      <trkpt lat="45.72698" lon="6.57391">
        <ele>1003</ele>
        <time>2022-08-16T08:21:02Z</time>
      </trkpt>
      <trkpt lat="45.72703" lon="6.5739">
        <ele>1003</ele>
        <time>2022-08-16T08:21:03Z</time>
      </trkpt>
      <trkpt lat="45.72706" lon="6.57389">
        <ele>1003</ele>
        <time>2022-08-16T08:21:04Z</time>
      </trkpt>
      <trkpt lat="45.7271" lon="6.57389">
        <ele>1003</ele>
        <time>2022-08-16T08:21:05Z</time>
      </trkpt>
      <trkpt lat="45.72714" lon="6.57389">
        <ele>1004</ele>
        <time>2022-08-16T08:21:06Z</time>
      </trkpt>
      <trkpt lat="45.72718" lon="6.5739">
        <ele>1003</ele>
        <time>2022-08-16T08:21:07Z</time>
      </trkpt>
      <trkpt lat="45.72722" lon="6.5739">
        <ele>1003</ele>
        <time>2022-08-16T08:21:08Z</time>
      </trkpt>
      <trkpt lat="45.72726" lon="6.57391">
        <ele>1003</ele>
        <time>2022-08-16T08:21:09Z</time>
      </trkpt>
      <trkpt lat="45.7273" lon="6.57392">
        <ele>1003</ele>
        <time>2022-08-16T08:21:10Z</time>
      </trkpt>
      <trkpt lat="45.72734" lon="6.57392">
        <ele>1003</ele>
        <time>2022-08-16T08:21:11Z</time>
      </trkpt>
      <trkpt lat="45.72738" lon="6.57393">
        <ele>1003</ele>
        <time>2022-08-16T08:21:12Z</time>
      </trkpt>
      <trkpt lat="45.72743" lon="6.57393">
        <ele>1003</ele>
        <time>2022-08-16T08:21:13Z</time>
      </trkpt>
      <trkpt lat="45.72746" lon="6.57393">
        <ele>1003</ele>
        <time>2022-08-16T08:21:14Z</time>
      </trkpt>
      <trkpt lat="45.72751" lon="6.57393">
        <ele>1003</ele>
        <time>2022-08-16T08:21:15Z</time>
      </trkpt>
      <trkpt lat="45.72755" lon="6.57394">
        <ele>1004</ele>
        <time>2022-08-16T08:21:16Z</time>
      </trkpt>
      <trkpt lat="45.72759" lon="6.57394">
        <ele>1004</ele>
        <time>2022-08-16T08:21:17Z</time>
      </trkpt>
      <trkpt lat="45.72764" lon="6.57395">
        <ele>1003</ele>
        <time>2022-08-16T08:21:18Z</time>
      </trkpt>
      <trkpt lat="45.72768" lon="6.57394">
        <ele>1004</ele>
        <time>2022-08-16T08:21:19Z</time>
      </trkpt>
      <trkpt lat="45.72773" lon="6.57394">
        <ele>1003</ele>
        <time>2022-08-16T08:21:20Z</time>
      </trkpt>
      <trkpt lat="45.72778" lon="6.57394">
        <ele>1004</ele>
        <time>2022-08-16T08:21:21Z</time>
      </trkpt>
      <trkpt lat="45.72782" lon="6.57394">
        <ele>1004</ele>
        <time>2022-08-16T08:21:22Z</time>
      </trkpt>
      <trkpt lat="45.72787" lon="6.57394">
        <ele>1004</ele>
        <time>2022-08-16T08:21:23Z</time>
      </trkpt>
      <trkpt lat="45.72791" lon="6.57393">
        <ele>1004</ele>
        <time>2022-08-16T08:21:24Z</time>
      </trkpt>
      <trkpt lat="45.72795" lon="6.57392">
        <ele>1004</ele>
        <time>2022-08-16T08:21:25Z</time>
      </trkpt>
      <trkpt lat="45.72799" lon="6.5739">
        <ele>1004</ele>
        <time>2022-08-16T08:21:26Z</time>
      </trkpt>
      <trkpt lat="45.72802" lon="6.57388">
        <ele>1004</ele>
        <time>2022-08-16T08:21:27Z</time>
      </trkpt>
      <trkpt lat="45.72805" lon="6.57386">
        <ele>1004</ele>
        <time>2022-08-16T08:21:28Z</time>
      </trkpt>
      <trkpt lat="45.72808" lon="6.57384">
        <ele>1004</ele>
        <time>2022-08-16T08:21:29Z</time>
      </trkpt>
      <trkpt lat="45.7281" lon="6.57383">
        <ele>1004</ele>
        <time>2022-08-16T08:21:30Z</time>
      </trkpt>
      <trkpt lat="45.72813" lon="6.57381">
        <ele>1004</ele>
        <time>2022-08-16T08:21:31Z</time>
      </trkpt>
      <trkpt lat="45.72816" lon="6.57379">
        <ele>1004</ele>
        <time>2022-08-16T08:21:32Z</time>
      </trkpt>
      <trkpt lat="45.72818" lon="6.57377">
        <ele>1004</ele>
        <time>2022-08-16T08:21:33Z</time>
      </trkpt>
      <trkpt lat="45.72822" lon="6.57375">
        <ele>1004</ele>
        <time>2022-08-16T08:21:34Z</time>
      </trkpt>
      <trkpt lat="45.72825" lon="6.57373">
        <ele>1004</ele>
        <time>2022-08-16T08:21:35Z</time>
      </trkpt>
      <trkpt lat="45.72828" lon="6.57371">
        <ele>1004</ele>
        <time>2022-08-16T08:21:36Z</time>
      </trkpt>
      <trkpt lat="45.72832" lon="6.5737">
        <ele>1004</ele>
        <time>2022-08-16T08:21:37Z</time>
      </trkpt>
      <trkpt lat="45.72835" lon="6.57368">
        <ele>1005</ele>
        <time>2022-08-16T08:21:38Z</time>
      </trkpt>
      <trkpt lat="45.72839" lon="6.57367">
        <ele>1005</ele>
        <time>2022-08-16T08:21:39Z</time>
      </trkpt>
      <trkpt lat="45.72843" lon="6.57366">
        <ele>1005</ele>
        <time>2022-08-16T08:21:40Z</time>
      </trkpt>
      <trkpt lat="45.72847" lon="6.57365">
        <ele>1005</ele>
        <time>2022-08-16T08:21:41Z</time>
      </trkpt>
      <trkpt lat="45.7285" lon="6.57366">
        <ele>1005</ele>
        <time>2022-08-16T08:21:42Z</time>
      </trkpt>
      <trkpt lat="45.72854" lon="6.57367">
        <ele>1005</ele>
        <time>2022-08-16T08:21:43Z</time>
      </trkpt>
      <trkpt lat="45.72858" lon="6.57368">
        <ele>1005</ele>
        <time>2022-08-16T08:21:44Z</time>
      </trkpt>
      <trkpt lat="45.72862" lon="6.57369">
        <ele>1004</ele>
        <time>2022-08-16T08:21:45Z</time>
      </trkpt>
      <trkpt lat="45.72866" lon="6.5737">
        <ele>1004</ele>
        <time>2022-08-16T08:21:46Z</time>
      </trkpt>
      <trkpt lat="45.7287" lon="6.57372">
        <ele>1004</ele>
        <time>2022-08-16T08:21:47Z</time>
      </trkpt>
      <trkpt lat="45.72874" lon="6.57373">
        <ele>1004</ele>
        <time>2022-08-16T08:21:48Z</time>
      </trkpt>
      <trkpt lat="45.72878" lon="6.57374">
        <ele>1004</ele>
        <time>2022-08-16T08:21:49Z</time>
      </trkpt>
      <trkpt lat="45.72883" lon="6.57374">
        <ele>1004</ele>
        <time>2022-08-16T08:21:50Z</time>
      </trkpt>
      <trkpt lat="45.72887" lon="6.57375">
        <ele>1004</ele>
        <time>2022-08-16T08:21:51Z</time>
      </trkpt>
      <trkpt lat="45.72891" lon="6.57376">
        <ele>1004</ele>
        <time>2022-08-16T08:21:52Z</time>
      </trkpt>
      <trkpt lat="45.72895" lon="6.57378">
        <ele>1004</ele>
        <time>2022-08-16T08:21:53Z</time>
      </trkpt>
      <trkpt lat="45.72899" lon="6.57378">
        <ele>1004</ele>
        <time>2022-08-16T08:21:54Z</time>
      </trkpt>
      <trkpt lat="45.72903" lon="6.57379">
        <ele>1004</ele>
        <time>2022-08-16T08:21:55Z</time>
      </trkpt>
      <trkpt lat="45.72907" lon="6.5738">
        <ele>1003</ele>
        <time>2022-08-16T08:21:56Z</time>
      </trkpt>
      <trkpt lat="45.72911" lon="6.57382">
        <ele>1003</ele>
        <time>2022-08-16T08:21:57Z</time>
      </trkpt>
      <trkpt lat="45.72914" lon="6.57383">
        <ele>1003</ele>
        <time>2022-08-16T08:21:58Z</time>
      </trkpt>
      <trkpt lat="45.72918" lon="6.57385">
        <ele>1003</ele>
        <time>2022-08-16T08:21:59Z</time>
      </trkpt>
      <trkpt lat="45.72922" lon="6.57387">
        <ele>1003</ele>
        <time>2022-08-16T08:22:00Z</time>
      </trkpt>
      <trkpt lat="45.72926" lon="6.57389">
        <ele>1003</ele>
        <time>2022-08-16T08:22:01Z</time>
      </trkpt>
      <trkpt lat="45.72929" lon="6.5739">
        <ele>1003</ele>
        <time>2022-08-16T08:22:02Z</time>
      </trkpt>
      <trkpt lat="45.72933" lon="6.57391">
        <ele>1003</ele>
        <time>2022-08-16T08:22:03Z</time>
      </trkpt>
      <trkpt lat="45.72936" lon="6.57392">
        <ele>1002</ele>
        <time>2022-08-16T08:22:04Z</time>
      </trkpt>
      <trkpt lat="45.7294" lon="6.57393">
        <ele>1002</ele>
        <time>2022-08-16T08:22:05Z</time>
      </trkpt>
      <trkpt lat="45.72944" lon="6.57393">
        <ele>1002</ele>
        <time>2022-08-16T08:22:06Z</time>
      </trkpt>
      <trkpt lat="45.72948" lon="6.57393">
        <ele>1002</ele>
        <time>2022-08-16T08:22:07Z</time>
      </trkpt>
      <trkpt lat="45.72952" lon="6.57392">
        <ele>1002</ele>
        <time>2022-08-16T08:22:08Z</time>
      </trkpt>
      <trkpt lat="45.72956" lon="6.57392">
        <ele>1002</ele>
        <time>2022-08-16T08:22:09Z</time>
      </trkpt>
      <trkpt lat="45.72959" lon="6.57392">
        <ele>1002</ele>
        <time>2022-08-16T08:22:10Z</time>
      </trkpt>
      <trkpt lat="45.72961" lon="6.57391">
        <ele>1002</ele>
        <time>2022-08-16T08:22:11Z</time>
      </trkpt>
      <trkpt lat="45.72964" lon="6.5739">
        <ele>1002</ele>
        <time>2022-08-16T08:22:12Z</time>
      </trkpt>
      <trkpt lat="45.72967" lon="6.57389">
        <ele>1002</ele>
        <time>2022-08-16T08:22:13Z</time>
      </trkpt>
      <trkpt lat="45.7297" lon="6.57388">
        <ele>1002</ele>
        <time>2022-08-16T08:22:14Z</time>
      </trkpt>
      <trkpt lat="45.72973" lon="6.57387">
        <ele>1003</ele>
        <time>2022-08-16T08:22:15Z</time>
      </trkpt>
      <trkpt lat="45.72976" lon="6.57386">
        <ele>1003</ele>
        <time>2022-08-16T08:22:16Z</time>
      </trkpt>
      <trkpt lat="45.72979" lon="6.57385">
        <ele>1003</ele>
        <time>2022-08-16T08:22:17Z</time>
      </trkpt>
      <trkpt lat="45.72982" lon="6.57383">
        <ele>1003</ele>
        <time>2022-08-16T08:22:18Z</time>
      </trkpt>
      <trkpt lat="45.72984" lon="6.57382">
        <ele>1003</ele>
        <time>2022-08-16T08:22:19Z</time>
      </trkpt>
      <trkpt lat="45.72987" lon="6.57381">
        <ele>1004</ele>
        <time>2022-08-16T08:22:20Z</time>
      </trkpt>
      <trkpt lat="45.72989" lon="6.57379">
        <ele>1004</ele>
        <time>2022-08-16T08:22:21Z</time>
      </trkpt>
      <trkpt lat="45.72992" lon="6.57378">
        <ele>1005</ele>
        <time>2022-08-16T08:22:22Z</time>
      </trkpt>
      <trkpt lat="45.72995" lon="6.57377">
        <ele>1005</ele>
        <time>2022-08-16T08:22:23Z</time>
      </trkpt>
      <trkpt lat="45.72998" lon="6.57376">
        <ele>1005</ele>
        <time>2022-08-16T08:22:24Z</time>
      </trkpt>
      <trkpt lat="45.73" lon="6.57374">
        <ele>1006</ele>
        <time>2022-08-16T08:22:25Z</time>
      </trkpt>
      <trkpt lat="45.73003" lon="6.57373">
        <ele>1006</ele>
        <time>2022-08-16T08:22:26Z</time>
      </trkpt>
      <trkpt lat="45.73006" lon="6.57371">
        <ele>1007</ele>
        <time>2022-08-16T08:22:27Z</time>
      </trkpt>
      <trkpt lat="45.73009" lon="6.5737">
        <ele>1007</ele>
        <time>2022-08-16T08:22:28Z</time>
      </trkpt>
      <trkpt lat="45.73012" lon="6.57368">
        <ele>1007</ele>
        <time>2022-08-16T08:22:29Z</time>
      </trkpt>
      <trkpt lat="45.73015" lon="6.57367">
        <ele>1008</ele>
        <time>2022-08-16T08:22:30Z</time>
      </trkpt>
      <trkpt lat="45.73018" lon="6.57366">
        <ele>1008</ele>
        <time>2022-08-16T08:22:31Z</time>
      </trkpt>
      <trkpt lat="45.7302" lon="6.57365">
        <ele>1008</ele>
        <time>2022-08-16T08:22:32Z</time>
      </trkpt>
      <trkpt lat="45.73023" lon="6.57363">
        <ele>1008</ele>
        <time>2022-08-16T08:22:33Z</time>
      </trkpt>
      <trkpt lat="45.73026" lon="6.57362">
        <ele>1008</ele>
        <time>2022-08-16T08:22:34Z</time>
      </trkpt>
      <trkpt lat="45.73029" lon="6.57361">
        <ele>1009</ele>
        <time>2022-08-16T08:22:35Z</time>
      </trkpt>
      <trkpt lat="45.73031" lon="6.57359">
        <ele>1009</ele>
        <time>2022-08-16T08:22:36Z</time>
      </trkpt>
      <trkpt lat="45.73034" lon="6.57358">
        <ele>1009</ele>
        <time>2022-08-16T08:22:37Z</time>
      </trkpt>
      <trkpt lat="45.73037" lon="6.57356">
        <ele>1009</ele>
        <time>2022-08-16T08:22:38Z</time>
      </trkpt>
      <trkpt lat="45.7304" lon="6.57355">
        <ele>1009</ele>
        <time>2022-08-16T08:22:39Z</time>
      </trkpt>
      <trkpt lat="45.73043" lon="6.57353">
        <ele>1010</ele>
        <time>2022-08-16T08:22:40Z</time>
      </trkpt>
      <trkpt lat="45.73046" lon="6.57351">
        <ele>1010</ele>
        <time>2022-08-16T08:22:41Z</time>
      </trkpt>
      <trkpt lat="45.73049" lon="6.57348">
        <ele>1010</ele>
        <time>2022-08-16T08:22:42Z</time>
      </trkpt>
      <trkpt lat="45.73051" lon="6.57346">
        <ele>1010</ele>
        <time>2022-08-16T08:22:43Z</time>
      </trkpt>
      <trkpt lat="45.73054" lon="6.57345">
        <ele>1010</ele>
        <time>2022-08-16T08:22:44Z</time>
      </trkpt>
      <trkpt lat="45.73057" lon="6.57343">
        <ele>1010</ele>
        <time>2022-08-16T08:22:45Z</time>
      </trkpt>
      <trkpt lat="45.73061" lon="6.57342">
        <ele>1010</ele>
        <time>2022-08-16T08:22:46Z</time>
      </trkpt>
      <trkpt lat="45.73063" lon="6.57341">
        <ele>1011</ele>
        <time>2022-08-16T08:22:47Z</time>
      </trkpt>
      <trkpt lat="45.73066" lon="6.57341">
        <ele>1011</ele>
        <time>2022-08-16T08:22:48Z</time>
      </trkpt>
      <trkpt lat="45.73069" lon="6.5734">
        <ele>1011</ele>
        <time>2022-08-16T08:22:49Z</time>
      </trkpt>
      <trkpt lat="45.73072" lon="6.57338">
        <ele>1010</ele>
        <time>2022-08-16T08:22:50Z</time>
      </trkpt>
      <trkpt lat="45.73075" lon="6.57337">
        <ele>1011</ele>
        <time>2022-08-16T08:22:51Z</time>
      </trkpt>
      <trkpt lat="45.73079" lon="6.57336">
        <ele>1011</ele>
        <time>2022-08-16T08:22:52Z</time>
      </trkpt>
      <trkpt lat="45.73083" lon="6.57335">
        <ele>1011</ele>
        <time>2022-08-16T08:22:53Z</time>
      </trkpt>
      <trkpt lat="45.73087" lon="6.57333">
        <ele>1011</ele>
        <time>2022-08-16T08:22:54Z</time>
      </trkpt>
      <trkpt lat="45.7309" lon="6.57332">
        <ele>1011</ele>
        <time>2022-08-16T08:22:55Z</time>
      </trkpt>
      <trkpt lat="45.73093" lon="6.57332">
        <ele>1012</ele>
        <time>2022-08-16T08:22:56Z</time>
      </trkpt>
      <trkpt lat="45.73096" lon="6.57331">
        <ele>1012</ele>
        <time>2022-08-16T08:22:57Z</time>
      </trkpt>
      <trkpt lat="45.73099" lon="6.57331">
        <ele>1012</ele>
        <time>2022-08-16T08:22:58Z</time>
      </trkpt>
      <trkpt lat="45.73101" lon="6.57331">
        <ele>1012</ele>
        <time>2022-08-16T08:22:59Z</time>
      </trkpt>
      <trkpt lat="45.73104" lon="6.5733">
        <ele>1012</ele>
        <time>2022-08-16T08:23:00Z</time>
      </trkpt>
      <trkpt lat="45.73107" lon="6.57329">
        <ele>1012</ele>
        <time>2022-08-16T08:23:01Z</time>
      </trkpt>
      <trkpt lat="45.7311" lon="6.57328">
        <ele>1012</ele>
        <time>2022-08-16T08:23:02Z</time>
      </trkpt>
      <trkpt lat="45.73113" lon="6.57327">
        <ele>1012</ele>
        <time>2022-08-16T08:23:03Z</time>
      </trkpt>
      <trkpt lat="45.73116" lon="6.57325">
        <ele>1012</ele>
        <time>2022-08-16T08:23:04Z</time>
      </trkpt>
      <trkpt lat="45.73119" lon="6.57325">
        <ele>1012</ele>
        <time>2022-08-16T08:23:05Z</time>
      </trkpt>
      <trkpt lat="45.73122" lon="6.57324">
        <ele>1013</ele>
        <time>2022-08-16T08:23:06Z</time>
      </trkpt>
      <trkpt lat="45.73125" lon="6.57323">
        <ele>1013</ele>
        <time>2022-08-16T08:23:07Z</time>
      </trkpt>
      <trkpt lat="45.73128" lon="6.57322">
        <ele>1013</ele>
        <time>2022-08-16T08:23:08Z</time>
      </trkpt>
      <trkpt lat="45.73131" lon="6.57321">
        <ele>1013</ele>
        <time>2022-08-16T08:23:09Z</time>
      </trkpt>
      <trkpt lat="45.73135" lon="6.5732">
        <ele>1013</ele>
        <time>2022-08-16T08:23:10Z</time>
      </trkpt>
      <trkpt lat="45.73139" lon="6.57319">
        <ele>1013</ele>
        <time>2022-08-16T08:23:11Z</time>
      </trkpt>
      <trkpt lat="45.73142" lon="6.57319">
        <ele>1013</ele>
        <time>2022-08-16T08:23:12Z</time>
      </trkpt>
      <trkpt lat="45.73145" lon="6.57319">
        <ele>1014</ele>
        <time>2022-08-16T08:23:13Z</time>
      </trkpt>
      <trkpt lat="45.73148" lon="6.57318">
        <ele>1014</ele>
        <time>2022-08-16T08:23:14Z</time>
      </trkpt>
      <trkpt lat="45.73152" lon="6.57318">
        <ele>1014</ele>
        <time>2022-08-16T08:23:15Z</time>
      </trkpt>
      <trkpt lat="45.73155" lon="6.57317">
        <ele>1014</ele>
        <time>2022-08-16T08:23:16Z</time>
      </trkpt>
      <trkpt lat="45.73158" lon="6.57316">
        <ele>1014</ele>
        <time>2022-08-16T08:23:17Z</time>
      </trkpt>
      <trkpt lat="45.73162" lon="6.57315">
        <ele>1014</ele>
        <time>2022-08-16T08:23:18Z</time>
      </trkpt>
      <trkpt lat="45.73165" lon="6.57314">
        <ele>1014</ele>
        <time>2022-08-16T08:23:19Z</time>
      </trkpt>
      <trkpt lat="45.73169" lon="6.57312">
        <ele>1014</ele>
        <time>2022-08-16T08:23:20Z</time>
      </trkpt>
      <trkpt lat="45.73172" lon="6.5731">
        <ele>1014</ele>
        <time>2022-08-16T08:23:21Z</time>
      </trkpt>
      <trkpt lat="45.73176" lon="6.57309">
        <ele>1015</ele>
        <time>2022-08-16T08:23:22Z</time>
      </trkpt>
      <trkpt lat="45.7318" lon="6.57309">
        <ele>1015</ele>
        <time>2022-08-16T08:23:23Z</time>
      </trkpt>
      <trkpt lat="45.73184" lon="6.57308">
        <ele>1016</ele>
        <time>2022-08-16T08:23:24Z</time>
      </trkpt>
      <trkpt lat="45.73188" lon="6.57308">
        <ele>1016</ele>
        <time>2022-08-16T08:23:25Z</time>
      </trkpt>
      <trkpt lat="45.73192" lon="6.57308">
        <ele>1016</ele>
        <time>2022-08-16T08:23:26Z</time>
      </trkpt>
      <trkpt lat="45.73196" lon="6.57308">
        <ele>1016</ele>
        <time>2022-08-16T08:23:27Z</time>
      </trkpt>
      <trkpt lat="45.732" lon="6.57308">
        <ele>1017</ele>
        <time>2022-08-16T08:23:28Z</time>
      </trkpt>
      <trkpt lat="45.73205" lon="6.57309">
        <ele>1017</ele>
        <time>2022-08-16T08:23:29Z</time>
      </trkpt>
      <trkpt lat="45.73209" lon="6.57309">
        <ele>1017</ele>
        <time>2022-08-16T08:23:30Z</time>
      </trkpt>
      <trkpt lat="45.73214" lon="6.57309">
        <ele>1018</ele>
        <time>2022-08-16T08:23:31Z</time>
      </trkpt>
      <trkpt lat="45.73219" lon="6.57309">
        <ele>1019</ele>
        <time>2022-08-16T08:23:32Z</time>
      </trkpt>
      <trkpt lat="45.73223" lon="6.57309">
        <ele>1019</ele>
        <time>2022-08-16T08:23:33Z</time>
      </trkpt>
      <trkpt lat="45.73227" lon="6.57309">
        <ele>1020</ele>
        <time>2022-08-16T08:23:34Z</time>
      </trkpt>
      <trkpt lat="45.7323" lon="6.57309">
        <ele>1020</ele>
        <time>2022-08-16T08:23:35Z</time>
      </trkpt>
      <trkpt lat="45.73234" lon="6.5731">
        <ele>1020</ele>
        <time>2022-08-16T08:23:36Z</time>
      </trkpt>
      <trkpt lat="45.73238" lon="6.57311">
        <ele>1020</ele>
        <time>2022-08-16T08:23:37Z</time>
      </trkpt>
      <trkpt lat="45.73241" lon="6.57312">
        <ele>1020</ele>
        <time>2022-08-16T08:23:38Z</time>
      </trkpt>
      <trkpt lat="45.73245" lon="6.57313">
        <ele>1020</ele>
        <time>2022-08-16T08:23:39Z</time>
      </trkpt>
      <trkpt lat="45.73249" lon="6.57315">
        <ele>1020</ele>
        <time>2022-08-16T08:23:40Z</time>
      </trkpt>
      <trkpt lat="45.73252" lon="6.57316">
        <ele>1020</ele>
        <time>2022-08-16T08:23:41Z</time>
      </trkpt>
      <trkpt lat="45.73257" lon="6.57317">
        <ele>1021</ele>
        <time>2022-08-16T08:23:42Z</time>
      </trkpt>
      <trkpt lat="45.7326" lon="6.57319">
        <ele>1021</ele>
        <time>2022-08-16T08:23:43Z</time>
      </trkpt>
      <trkpt lat="45.73263" lon="6.57321">
        <ele>1021</ele>
        <time>2022-08-16T08:23:44Z</time>
      </trkpt>
      <trkpt lat="45.73267" lon="6.57322">
        <ele>1021</ele>
        <time>2022-08-16T08:23:45Z</time>
      </trkpt>
      <trkpt lat="45.7327" lon="6.57324">
        <ele>1021</ele>
        <time>2022-08-16T08:23:46Z</time>
      </trkpt>
      <trkpt lat="45.73273" lon="6.57326">
        <ele>1021</ele>
        <time>2022-08-16T08:23:47Z</time>
      </trkpt>
      <trkpt lat="45.73276" lon="6.57327">
        <ele>1020</ele>
        <time>2022-08-16T08:23:48Z</time>
      </trkpt>
      <trkpt lat="45.73279" lon="6.57329">
        <ele>1020</ele>
        <time>2022-08-16T08:23:49Z</time>
      </trkpt>
      <trkpt lat="45.73283" lon="6.5733">
        <ele>1020</ele>
        <time>2022-08-16T08:23:50Z</time>
      </trkpt>
      <trkpt lat="45.73286" lon="6.57332">
        <ele>1020</ele>
        <time>2022-08-16T08:23:51Z</time>
      </trkpt>
      <trkpt lat="45.73289" lon="6.57333">
        <ele>1020</ele>
        <time>2022-08-16T08:23:52Z</time>
      </trkpt>
      <trkpt lat="45.73293" lon="6.57335">
        <ele>1019</ele>
        <time>2022-08-16T08:23:53Z</time>
      </trkpt>
      <trkpt lat="45.73296" lon="6.57337">
        <ele>1019</ele>
        <time>2022-08-16T08:23:54Z</time>
      </trkpt>
      <trkpt lat="45.733" lon="6.57338">
        <ele>1018</ele>
        <time>2022-08-16T08:23:55Z</time>
      </trkpt>
      <trkpt lat="45.73303" lon="6.5734">
        <ele>1018</ele>
        <time>2022-08-16T08:23:56Z</time>
      </trkpt>
      <trkpt lat="45.73306" lon="6.57342">
        <ele>1018</ele>
        <time>2022-08-16T08:23:57Z</time>
      </trkpt>
      <trkpt lat="45.73309" lon="6.57345">
        <ele>1018</ele>
        <time>2022-08-16T08:23:58Z</time>
      </trkpt>
      <trkpt lat="45.73312" lon="6.57348">
        <ele>1018</ele>
        <time>2022-08-16T08:23:59Z</time>
      </trkpt>
      <trkpt lat="45.73315" lon="6.57351">
        <ele>1018</ele>
        <time>2022-08-16T08:24:00Z</time>
      </trkpt>
      <trkpt lat="45.73318" lon="6.57353">
        <ele>1018</ele>
        <time>2022-08-16T08:24:01Z</time>
      </trkpt>
      <trkpt lat="45.73321" lon="6.57356">
        <ele>1018</ele>
        <time>2022-08-16T08:24:02Z</time>
      </trkpt>
      <trkpt lat="45.73324" lon="6.57358">
        <ele>1019</ele>
        <time>2022-08-16T08:24:03Z</time>
      </trkpt>
      <trkpt lat="45.73327" lon="6.57361">
        <ele>1019</ele>
        <time>2022-08-16T08:24:04Z</time>
      </trkpt>
      <trkpt lat="45.7333" lon="6.57364">
        <ele>1018</ele>
        <time>2022-08-16T08:24:05Z</time>
      </trkpt>
      <trkpt lat="45.73333" lon="6.57367">
        <ele>1018</ele>
        <time>2022-08-16T08:24:06Z</time>
      </trkpt>
      <trkpt lat="45.73336" lon="6.57371">
        <ele>1019</ele>
        <time>2022-08-16T08:24:07Z</time>
      </trkpt>
      <trkpt lat="45.73339" lon="6.57374">
        <ele>1018</ele>
        <time>2022-08-16T08:24:08Z</time>
      </trkpt>
      <trkpt lat="45.73341" lon="6.57377">
        <ele>1019</ele>
        <time>2022-08-16T08:24:09Z</time>
      </trkpt>
      <trkpt lat="45.73344" lon="6.57381">
        <ele>1019</ele>
        <time>2022-08-16T08:24:10Z</time>
      </trkpt>
      <trkpt lat="45.73346" lon="6.57384">
        <ele>1020</ele>
        <time>2022-08-16T08:24:11Z</time>
      </trkpt>
      <trkpt lat="45.73348" lon="6.57387">
        <ele>1020</ele>
        <time>2022-08-16T08:24:12Z</time>
      </trkpt>
      <trkpt lat="45.73351" lon="6.5739">
        <ele>1021</ele>
        <time>2022-08-16T08:24:13Z</time>
      </trkpt>
      <trkpt lat="45.73353" lon="6.57393">
        <ele>1021</ele>
        <time>2022-08-16T08:24:14Z</time>
      </trkpt>
      <trkpt lat="45.73355" lon="6.57397">
        <ele>1021</ele>
        <time>2022-08-16T08:24:15Z</time>
      </trkpt>
      <trkpt lat="45.73357" lon="6.574">
        <ele>1021</ele>
        <time>2022-08-16T08:24:16Z</time>
      </trkpt>
      <trkpt lat="45.73359" lon="6.57403">
        <ele>1021</ele>
        <time>2022-08-16T08:24:17Z</time>
      </trkpt>
      <trkpt lat="45.73361" lon="6.57407">
        <ele>1022</ele>
        <time>2022-08-16T08:24:18Z</time>
      </trkpt>
      <trkpt lat="45.73363" lon="6.57411">
        <ele>1022</ele>
        <time>2022-08-16T08:24:19Z</time>
      </trkpt>
      <trkpt lat="45.73365" lon="6.57414">
        <ele>1023</ele>
        <time>2022-08-16T08:24:20Z</time>
      </trkpt>
      <trkpt lat="45.73367" lon="6.57417">
        <ele>1023</ele>
        <time>2022-08-16T08:24:21Z</time>
      </trkpt>
      <trkpt lat="45.73368" lon="6.57419">
        <ele>1023</ele>
        <time>2022-08-16T08:24:22Z</time>
      </trkpt>
      <trkpt lat="45.7337" lon="6.57421">
        <ele>1023</ele>
        <time>2022-08-16T08:24:23Z</time>
      </trkpt>
      <trkpt lat="45.73372" lon="6.57424">
        <ele>1023</ele>
        <time>2022-08-16T08:24:24Z</time>
      </trkpt>
      <trkpt lat="45.73374" lon="6.57426">
        <ele>1024</ele>
        <time>2022-08-16T08:24:25Z</time>
      </trkpt>
      <trkpt lat="45.73375" lon="6.57428">
        <ele>1024</ele>
        <time>2022-08-16T08:24:26Z</time>
      </trkpt>
      <trkpt lat="45.73377" lon="6.5743">
        <ele>1024</ele>
        <time>2022-08-16T08:24:27Z</time>
      </trkpt>
      <trkpt lat="45.73379" lon="6.57433">
        <ele>1024</ele>
        <time>2022-08-16T08:24:28Z</time>
      </trkpt>
      <trkpt lat="45.73381" lon="6.57436">
        <ele>1024</ele>
        <time>2022-08-16T08:24:29Z</time>
      </trkpt>
      <trkpt lat="45.73383" lon="6.57439">
        <ele>1024</ele>
        <time>2022-08-16T08:24:30Z</time>
      </trkpt>
      <trkpt lat="45.73384" lon="6.57441">
        <ele>1024</ele>
        <time>2022-08-16T08:24:31Z</time>
      </trkpt>
      <trkpt lat="45.73386" lon="6.57444">
        <ele>1024</ele>
        <time>2022-08-16T08:24:32Z</time>
      </trkpt>
      <trkpt lat="45.73387" lon="6.57446">
        <ele>1025</ele>
        <time>2022-08-16T08:24:33Z</time>
      </trkpt>
      <trkpt lat="45.73389" lon="6.57449">
        <ele>1025</ele>
        <time>2022-08-16T08:24:34Z</time>
      </trkpt>
      <trkpt lat="45.73391" lon="6.57452">
        <ele>1025</ele>
        <time>2022-08-16T08:24:35Z</time>
      </trkpt>
      <trkpt lat="45.73393" lon="6.57455">
        <ele>1025</ele>
        <time>2022-08-16T08:24:36Z</time>
      </trkpt>
      <trkpt lat="45.73395" lon="6.57457">
        <ele>1025</ele>
        <time>2022-08-16T08:24:37Z</time>
      </trkpt>
      <trkpt lat="45.73396" lon="6.57459">
        <ele>1025</ele>
        <time>2022-08-16T08:24:38Z</time>
      </trkpt>
      <trkpt lat="45.73398" lon="6.57462">
        <ele>1025</ele>
        <time>2022-08-16T08:24:39Z</time>
      </trkpt>
      <trkpt lat="45.73399" lon="6.57466">
        <ele>1024</ele>
        <time>2022-08-16T08:24:40Z</time>
      </trkpt>
      <trkpt lat="45.73401" lon="6.57469">
        <ele>1024</ele>
        <time>2022-08-16T08:24:41Z</time>
      </trkpt>
      <trkpt lat="45.73403" lon="6.57471">
        <ele>1024</ele>
        <time>2022-08-16T08:24:42Z</time>
      </trkpt>
      <trkpt lat="45.73406" lon="6.57474">
        <ele>1024</ele>
        <time>2022-08-16T08:24:43Z</time>
      </trkpt>
      <trkpt lat="45.73409" lon="6.57476">
        <ele>1024</ele>
        <time>2022-08-16T08:24:44Z</time>
      </trkpt>
      <trkpt lat="45.73411" lon="6.57478">
        <ele>1024</ele>
        <time>2022-08-16T08:24:45Z</time>
      </trkpt>
      <trkpt lat="45.73414" lon="6.57481">
        <ele>1024</ele>
        <time>2022-08-16T08:24:46Z</time>
      </trkpt>
      <trkpt lat="45.73416" lon="6.57483">
        <ele>1025</ele>
        <time>2022-08-16T08:24:47Z</time>
      </trkpt>
      <trkpt lat="45.73419" lon="6.57485">
        <ele>1026</ele>
        <time>2022-08-16T08:24:48Z</time>
      </trkpt>
      <trkpt lat="45.73421" lon="6.57487">
        <ele>1026</ele>
        <time>2022-08-16T08:24:49Z</time>
      </trkpt>
      <trkpt lat="45.73424" lon="6.5749">
        <ele>1026</ele>
        <time>2022-08-16T08:24:50Z</time>
      </trkpt>
      <trkpt lat="45.73426" lon="6.57492">
        <ele>1027</ele>
        <time>2022-08-16T08:24:51Z</time>
      </trkpt>
      <trkpt lat="45.73429" lon="6.57495">
        <ele>1027</ele>
        <time>2022-08-16T08:24:52Z</time>
      </trkpt>
      <trkpt lat="45.73431" lon="6.57498">
        <ele>1028</ele>
        <time>2022-08-16T08:24:53Z</time>
      </trkpt>
      <trkpt lat="45.73433" lon="6.57501">
        <ele>1028</ele>
        <time>2022-08-16T08:24:54Z</time>
      </trkpt>
      <trkpt lat="45.73435" lon="6.57503">
        <ele>1028</ele>
        <time>2022-08-16T08:24:55Z</time>
      </trkpt>
      <trkpt lat="45.73437" lon="6.57504">
        <ele>1028</ele>
        <time>2022-08-16T08:24:56Z</time>
      </trkpt>
      <trkpt lat="45.73439" lon="6.57506">
        <ele>1028</ele>
        <time>2022-08-16T08:24:57Z</time>
      </trkpt>
      <trkpt lat="45.73441" lon="6.57507">
        <ele>1028</ele>
        <time>2022-08-16T08:24:58Z</time>
      </trkpt>
      <trkpt lat="45.73442" lon="6.57508">
        <ele>1028</ele>
        <time>2022-08-16T08:24:59Z</time>
      </trkpt>
      <trkpt lat="45.73443" lon="6.57509">
        <ele>1028</ele>
        <time>2022-08-16T08:25:00Z</time>
      </trkpt>
      <trkpt lat="45.73445" lon="6.57511">
        <ele>1029</ele>
        <time>2022-08-16T08:25:01Z</time>
      </trkpt>
      <trkpt lat="45.73446" lon="6.57512">
        <ele>1029</ele>
        <time>2022-08-16T08:25:02Z</time>
      </trkpt>
      <trkpt lat="45.73448" lon="6.57514">
        <ele>1029</ele>
        <time>2022-08-16T08:25:03Z</time>
      </trkpt>
      <trkpt lat="45.73448" lon="6.57516">
        <ele>1029</ele>
        <time>2022-08-16T08:25:04Z</time>
      </trkpt>
      <trkpt lat="45.73449" lon="6.57518">
        <ele>1029</ele>
        <time>2022-08-16T08:25:05Z</time>
      </trkpt>
      <trkpt lat="45.7345" lon="6.5752">
        <ele>1029</ele>
        <time>2022-08-16T08:25:06Z</time>
      </trkpt>
      <trkpt lat="45.73452" lon="6.57522">
        <ele>1029</ele>
        <time>2022-08-16T08:25:07Z</time>
      </trkpt>
      <trkpt lat="45.73453" lon="6.57524">
        <ele>1029</ele>
        <time>2022-08-16T08:25:08Z</time>
      </trkpt>
      <trkpt lat="45.73455" lon="6.57527">
        <ele>1029</ele>
        <time>2022-08-16T08:25:09Z</time>
      </trkpt>
      <trkpt lat="45.73456" lon="6.5753">
        <ele>1029</ele>
        <time>2022-08-16T08:25:10Z</time>
      </trkpt>
      <trkpt lat="45.73457" lon="6.57532">
        <ele>1029</ele>
        <time>2022-08-16T08:25:11Z</time>
      </trkpt>
      <trkpt lat="45.73459" lon="6.57534">
        <ele>1029</ele>
        <time>2022-08-16T08:25:12Z</time>
      </trkpt>
      <trkpt lat="45.73461" lon="6.57536">
        <ele>1029</ele>
        <time>2022-08-16T08:25:13Z</time>
      </trkpt>
      <trkpt lat="45.73462" lon="6.57539">
        <ele>1030</ele>
        <time>2022-08-16T08:25:14Z</time>
      </trkpt>
      <trkpt lat="45.73462" lon="6.57542">
        <ele>1030</ele>
        <time>2022-08-16T08:25:15Z</time>
      </trkpt>
      <trkpt lat="45.73463" lon="6.57544">
        <ele>1030</ele>
        <time>2022-08-16T08:25:16Z</time>
      </trkpt>
      <trkpt lat="45.73465" lon="6.57547">
        <ele>1030</ele>
        <time>2022-08-16T08:25:17Z</time>
      </trkpt>
      <trkpt lat="45.73466" lon="6.5755">
        <ele>1030</ele>
        <time>2022-08-16T08:25:18Z</time>
      </trkpt>
      <trkpt lat="45.73467" lon="6.57552">
        <ele>1031</ele>
        <time>2022-08-16T08:25:19Z</time>
      </trkpt>
      <trkpt lat="45.73468" lon="6.57555">
        <ele>1031</ele>
        <time>2022-08-16T08:25:20Z</time>
      </trkpt>
      <trkpt lat="45.7347" lon="6.57557">
        <ele>1031</ele>
        <time>2022-08-16T08:25:21Z</time>
      </trkpt>
      <trkpt lat="45.73471" lon="6.57559">
        <ele>1032</ele>
        <time>2022-08-16T08:25:22Z</time>
      </trkpt>
      <trkpt lat="45.73473" lon="6.57562">
        <ele>1032</ele>
        <time>2022-08-16T08:25:23Z</time>
      </trkpt>
      <trkpt lat="45.73474" lon="6.57565">
        <ele>1031</ele>
        <time>2022-08-16T08:25:24Z</time>
      </trkpt>
      <trkpt lat="45.73475" lon="6.57567">
        <ele>1032</ele>
        <time>2022-08-16T08:25:25Z</time>
      </trkpt>
      <trkpt lat="45.73476" lon="6.5757">
        <ele>1032</ele>
        <time>2022-08-16T08:25:26Z</time>
      </trkpt>
      <trkpt lat="45.73478" lon="6.57574">
        <ele>1032</ele>
        <time>2022-08-16T08:25:27Z</time>
      </trkpt>
      <trkpt lat="45.73479" lon="6.57576">
        <ele>1032</ele>
        <time>2022-08-16T08:25:28Z</time>
      </trkpt>
      <trkpt lat="45.73481" lon="6.57579">
        <ele>1032</ele>
        <time>2022-08-16T08:25:29Z</time>
      </trkpt>
      <trkpt lat="45.73482" lon="6.57582">
        <ele>1031</ele>
        <time>2022-08-16T08:25:30Z</time>
      </trkpt>
      <trkpt lat="45.73484" lon="6.57585">
        <ele>1032</ele>
        <time>2022-08-16T08:25:31Z</time>
      </trkpt>
      <trkpt lat="45.73485" lon="6.57588">
        <ele>1032</ele>
        <time>2022-08-16T08:25:32Z</time>
      </trkpt>
      <trkpt lat="45.73487" lon="6.57591">
        <ele>1032</ele>
        <time>2022-08-16T08:25:33Z</time>
      </trkpt>
      <trkpt lat="45.73489" lon="6.57594">
        <ele>1032</ele>
        <time>2022-08-16T08:25:34Z</time>
      </trkpt>
      <trkpt lat="45.7349" lon="6.57596">
        <ele>1032</ele>
        <time>2022-08-16T08:25:35Z</time>
      </trkpt>
      <trkpt lat="45.73492" lon="6.57599">
        <ele>1033</ele>
        <time>2022-08-16T08:25:36Z</time>
      </trkpt>
      <trkpt lat="45.73494" lon="6.57602">
        <ele>1032</ele>
        <time>2022-08-16T08:25:37Z</time>
      </trkpt>
      <trkpt lat="45.73496" lon="6.57604">
        <ele>1032</ele>
        <time>2022-08-16T08:25:38Z</time>
      </trkpt>
      <trkpt lat="45.73497" lon="6.57607">
        <ele>1032</ele>
        <time>2022-08-16T08:25:39Z</time>
      </trkpt>
      <trkpt lat="45.73499" lon="6.5761">
        <ele>1032</ele>
        <time>2022-08-16T08:25:40Z</time>
      </trkpt>
      <trkpt lat="45.73501" lon="6.57613">
        <ele>1032</ele>
        <time>2022-08-16T08:25:41Z</time>
      </trkpt>
      <trkpt lat="45.73502" lon="6.57615">
        <ele>1032</ele>
        <time>2022-08-16T08:25:42Z</time>
      </trkpt>
      <trkpt lat="45.73504" lon="6.57617">
        <ele>1032</ele>
        <time>2022-08-16T08:25:43Z</time>
      </trkpt>
      <trkpt lat="45.73506" lon="6.5762">
        <ele>1032</ele>
        <time>2022-08-16T08:25:44Z</time>
      </trkpt>
      <trkpt lat="45.73509" lon="6.57622">
        <ele>1033</ele>
        <time>2022-08-16T08:25:45Z</time>
      </trkpt>
      <trkpt lat="45.7351" lon="6.57624">
        <ele>1033</ele>
        <time>2022-08-16T08:25:46Z</time>
      </trkpt>
      <trkpt lat="45.73513" lon="6.57627">
        <ele>1033</ele>
        <time>2022-08-16T08:25:47Z</time>
      </trkpt>
      <trkpt lat="45.73514" lon="6.57629">
        <ele>1032</ele>
        <time>2022-08-16T08:25:48Z</time>
      </trkpt>
      <trkpt lat="45.73516" lon="6.57631">
        <ele>1032</ele>
        <time>2022-08-16T08:25:49Z</time>
      </trkpt>
      <trkpt lat="45.73518" lon="6.57633">
        <ele>1033</ele>
        <time>2022-08-16T08:25:50Z</time>
      </trkpt>
      <trkpt lat="45.7352" lon="6.57635">
        <ele>1033</ele>
        <time>2022-08-16T08:25:51Z</time>
      </trkpt>
      <trkpt lat="45.73522" lon="6.57637">
        <ele>1033</ele>
        <time>2022-08-16T08:25:52Z</time>
      </trkpt>
      <trkpt lat="45.73524" lon="6.57639">
        <ele>1033</ele>
        <time>2022-08-16T08:25:53Z</time>
      </trkpt>
      <trkpt lat="45.73526" lon="6.57641">
        <ele>1033</ele>
        <time>2022-08-16T08:25:54Z</time>
      </trkpt>
      <trkpt lat="45.73528" lon="6.57644">
        <ele>1034</ele>
        <time>2022-08-16T08:25:55Z</time>
      </trkpt>
      <trkpt lat="45.7353" lon="6.57647">
        <ele>1034</ele>
        <time>2022-08-16T08:25:56Z</time>
      </trkpt>
      <trkpt lat="45.73531" lon="6.57649">
        <ele>1034</ele>
        <time>2022-08-16T08:25:57Z</time>
      </trkpt>
      <trkpt lat="45.73533" lon="6.57652">
        <ele>1034</ele>
        <time>2022-08-16T08:25:58Z</time>
      </trkpt>
      <trkpt lat="45.73535" lon="6.57654">
        <ele>1035</ele>
        <time>2022-08-16T08:25:59Z</time>
      </trkpt>
      <trkpt lat="45.73537" lon="6.57657">
        <ele>1035</ele>
        <time>2022-08-16T08:26:00Z</time>
      </trkpt>
      <trkpt lat="45.73539" lon="6.57659">
        <ele>1035</ele>
        <time>2022-08-16T08:26:01Z</time>
      </trkpt>
      <trkpt lat="45.73541" lon="6.57662">
        <ele>1035</ele>
        <time>2022-08-16T08:26:02Z</time>
      </trkpt>
      <trkpt lat="45.73543" lon="6.57665">
        <ele>1035</ele>
        <time>2022-08-16T08:26:03Z</time>
      </trkpt>
      <trkpt lat="45.73545" lon="6.57667">
        <ele>1035</ele>
        <time>2022-08-16T08:26:04Z</time>
      </trkpt>
      <trkpt lat="45.73547" lon="6.57669">
        <ele>1035</ele>
        <time>2022-08-16T08:26:05Z</time>
      </trkpt>
      <trkpt lat="45.73549" lon="6.57672">
        <ele>1034</ele>
        <time>2022-08-16T08:26:06Z</time>
      </trkpt>
      <trkpt lat="45.73552" lon="6.57674">
        <ele>1034</ele>
        <time>2022-08-16T08:26:07Z</time>
      </trkpt>
      <trkpt lat="45.73554" lon="6.57676">
        <ele>1034</ele>
        <time>2022-08-16T08:26:08Z</time>
      </trkpt>
      <trkpt lat="45.73556" lon="6.57679">
        <ele>1034</ele>
        <time>2022-08-16T08:26:09Z</time>
      </trkpt>
      <trkpt lat="45.73558" lon="6.57681">
        <ele>1034</ele>
        <time>2022-08-16T08:26:10Z</time>
      </trkpt>
      <trkpt lat="45.7356" lon="6.57684">
        <ele>1035</ele>
        <time>2022-08-16T08:26:11Z</time>
      </trkpt>
      <trkpt lat="45.73562" lon="6.57686">
        <ele>1035</ele>
        <time>2022-08-16T08:26:12Z</time>
      </trkpt>
      <trkpt lat="45.73565" lon="6.57688">
        <ele>1036</ele>
        <time>2022-08-16T08:26:13Z</time>
      </trkpt>
      <trkpt lat="45.73567" lon="6.57691">
        <ele>1036</ele>
        <time>2022-08-16T08:26:14Z</time>
      </trkpt>
      <trkpt lat="45.73569" lon="6.57693">
        <ele>1037</ele>
        <time>2022-08-16T08:26:15Z</time>
      </trkpt>
      <trkpt lat="45.73571" lon="6.57695">
        <ele>1038</ele>
        <time>2022-08-16T08:26:16Z</time>
      </trkpt>
      <trkpt lat="45.73574" lon="6.57697">
        <ele>1039</ele>
        <time>2022-08-16T08:26:17Z</time>
      </trkpt>
      <trkpt lat="45.73576" lon="6.577">
        <ele>1039</ele>
        <time>2022-08-16T08:26:18Z</time>
      </trkpt>
      <trkpt lat="45.73579" lon="6.57701">
        <ele>1040</ele>
        <time>2022-08-16T08:26:19Z</time>
      </trkpt>
      <trkpt lat="45.73581" lon="6.57703">
        <ele>1040</ele>
        <time>2022-08-16T08:26:20Z</time>
      </trkpt>
      <trkpt lat="45.73584" lon="6.57704">
        <ele>1040</ele>
        <time>2022-08-16T08:26:21Z</time>
      </trkpt>
      <trkpt lat="45.73587" lon="6.57706">
        <ele>1040</ele>
        <time>2022-08-16T08:26:22Z</time>
      </trkpt>
      <trkpt lat="45.7359" lon="6.57708">
        <ele>1040</ele>
        <time>2022-08-16T08:26:23Z</time>
      </trkpt>
      <trkpt lat="45.73593" lon="6.57709">
        <ele>1041</ele>
        <time>2022-08-16T08:26:24Z</time>
      </trkpt>
      <trkpt lat="45.73596" lon="6.57711">
        <ele>1041</ele>
        <time>2022-08-16T08:26:25Z</time>
      </trkpt>
      <trkpt lat="45.73599" lon="6.57712">
        <ele>1041</ele>
        <time>2022-08-16T08:26:26Z</time>
      </trkpt>
      <trkpt lat="45.73602" lon="6.57713">
        <ele>1041</ele>
        <time>2022-08-16T08:26:27Z</time>
      </trkpt>
      <trkpt lat="45.73605" lon="6.57714">
        <ele>1041</ele>
        <time>2022-08-16T08:26:28Z</time>
      </trkpt>
      <trkpt lat="45.73608" lon="6.57715">
        <ele>1041</ele>
        <time>2022-08-16T08:26:29Z</time>
      </trkpt>
      <trkpt lat="45.73611" lon="6.57715">
        <ele>1041</ele>
        <time>2022-08-16T08:26:30Z</time>
      </trkpt>
      <trkpt lat="45.73614" lon="6.57716">
        <ele>1041</ele>
        <time>2022-08-16T08:26:31Z</time>
      </trkpt>
      <trkpt lat="45.73617" lon="6.57717">
        <ele>1041</ele>
        <time>2022-08-16T08:26:32Z</time>
      </trkpt>
      <trkpt lat="45.7362" lon="6.57718">
        <ele>1041</ele>
        <time>2022-08-16T08:26:33Z</time>
      </trkpt>
      <trkpt lat="45.73623" lon="6.57719">
        <ele>1041</ele>
        <time>2022-08-16T08:26:34Z</time>
      </trkpt>
      <trkpt lat="45.73626" lon="6.57721">
        <ele>1041</ele>
        <time>2022-08-16T08:26:35Z</time>
      </trkpt>
      <trkpt lat="45.73629" lon="6.57722">
        <ele>1042</ele>
        <time>2022-08-16T08:26:36Z</time>
      </trkpt>
      <trkpt lat="45.73631" lon="6.57723">
        <ele>1042</ele>
        <time>2022-08-16T08:26:37Z</time>
      </trkpt>
      <trkpt lat="45.73634" lon="6.57723">
        <ele>1042</ele>
        <time>2022-08-16T08:26:38Z</time>
      </trkpt>
      <trkpt lat="45.73637" lon="6.57723">
        <ele>1042</ele>
        <time>2022-08-16T08:26:39Z</time>
      </trkpt>
      <trkpt lat="45.7364" lon="6.57724">
        <ele>1043</ele>
        <time>2022-08-16T08:26:40Z</time>
      </trkpt>
      <trkpt lat="45.73644" lon="6.57725">
        <ele>1043</ele>
        <time>2022-08-16T08:26:41Z</time>
      </trkpt>
      <trkpt lat="45.73647" lon="6.57727">
        <ele>1043</ele>
        <time>2022-08-16T08:26:42Z</time>
      </trkpt>
      <trkpt lat="45.7365" lon="6.57729">
        <ele>1043</ele>
        <time>2022-08-16T08:26:43Z</time>
      </trkpt>
      <trkpt lat="45.73654" lon="6.5773">
        <ele>1043</ele>
        <time>2022-08-16T08:26:44Z</time>
      </trkpt>
      <trkpt lat="45.73658" lon="6.57732">
        <ele>1044</ele>
        <time>2022-08-16T08:26:45Z</time>
      </trkpt>
      <trkpt lat="45.73661" lon="6.57733">
        <ele>1044</ele>
        <time>2022-08-16T08:26:46Z</time>
      </trkpt>
      <trkpt lat="45.73664" lon="6.57735">
        <ele>1044</ele>
        <time>2022-08-16T08:26:47Z</time>
      </trkpt>
      <trkpt lat="45.73668" lon="6.57736">
        <ele>1045</ele>
        <time>2022-08-16T08:26:48Z</time>
      </trkpt>
      <trkpt lat="45.73671" lon="6.57737">
        <ele>1045</ele>
        <time>2022-08-16T08:26:49Z</time>
      </trkpt>
      <trkpt lat="45.73674" lon="6.57738">
        <ele>1045</ele>
        <time>2022-08-16T08:26:50Z</time>
      </trkpt>
      <trkpt lat="45.73678" lon="6.57738">
        <ele>1046</ele>
        <time>2022-08-16T08:26:51Z</time>
      </trkpt>
      <trkpt lat="45.73681" lon="6.57739">
        <ele>1046</ele>
        <time>2022-08-16T08:26:52Z</time>
      </trkpt>
      <trkpt lat="45.73685" lon="6.5774">
        <ele>1046</ele>
        <time>2022-08-16T08:26:53Z</time>
      </trkpt>
      <trkpt lat="45.73688" lon="6.57741">
        <ele>1047</ele>
        <time>2022-08-16T08:26:54Z</time>
      </trkpt>
      <trkpt lat="45.73691" lon="6.57743">
        <ele>1047</ele>
        <time>2022-08-16T08:26:55Z</time>
      </trkpt>
      <trkpt lat="45.73694" lon="6.57744">
        <ele>1047</ele>
        <time>2022-08-16T08:26:56Z</time>
      </trkpt>
      <trkpt lat="45.73698" lon="6.57746">
        <ele>1048</ele>
        <time>2022-08-16T08:26:57Z</time>
      </trkpt>
      <trkpt lat="45.73701" lon="6.57747">
        <ele>1048</ele>
        <time>2022-08-16T08:26:58Z</time>
      </trkpt>
      <trkpt lat="45.73704" lon="6.57749">
        <ele>1048</ele>
        <time>2022-08-16T08:26:59Z</time>
      </trkpt>
      <trkpt lat="45.73707" lon="6.5775">
        <ele>1047</ele>
        <time>2022-08-16T08:27:00Z</time>
      </trkpt>
      <trkpt lat="45.7371" lon="6.57751">
        <ele>1047</ele>
        <time>2022-08-16T08:27:01Z</time>
      </trkpt>
      <trkpt lat="45.73712" lon="6.57752">
        <ele>1047</ele>
        <time>2022-08-16T08:27:02Z</time>
      </trkpt>
      <trkpt lat="45.73715" lon="6.57753">
        <ele>1047</ele>
        <time>2022-08-16T08:27:03Z</time>
      </trkpt>
      <trkpt lat="45.73718" lon="6.57754">
        <ele>1047</ele>
        <time>2022-08-16T08:27:04Z</time>
      </trkpt>
      <trkpt lat="45.73721" lon="6.57755">
        <ele>1047</ele>
        <time>2022-08-16T08:27:05Z</time>
      </trkpt>
      <trkpt lat="45.73723" lon="6.57757">
        <ele>1047</ele>
        <time>2022-08-16T08:27:06Z</time>
      </trkpt>
      <trkpt lat="45.73726" lon="6.57758">
        <ele>1047</ele>
        <time>2022-08-16T08:27:07Z</time>
      </trkpt>
      <trkpt lat="45.73728" lon="6.5776">
        <ele>1047</ele>
        <time>2022-08-16T08:27:08Z</time>
      </trkpt>
      <trkpt lat="45.7373" lon="6.57762">
        <ele>1047</ele>
        <time>2022-08-16T08:27:09Z</time>
      </trkpt>
      <trkpt lat="45.73732" lon="6.57763">
        <ele>1047</ele>
        <time>2022-08-16T08:27:10Z</time>
      </trkpt>
      <trkpt lat="45.73734" lon="6.57765">
        <ele>1047</ele>
        <time>2022-08-16T08:27:11Z</time>
      </trkpt>
      <trkpt lat="45.73736" lon="6.57767">
        <ele>1046</ele>
        <time>2022-08-16T08:27:12Z</time>
      </trkpt>
      <trkpt lat="45.73739" lon="6.57769">
        <ele>1046</ele>
        <time>2022-08-16T08:27:13Z</time>
      </trkpt>
      <trkpt lat="45.73741" lon="6.5777">
        <ele>1045</ele>
        <time>2022-08-16T08:27:14Z</time>
      </trkpt>
      <trkpt lat="45.73743" lon="6.57772">
        <ele>1046</ele>
        <time>2022-08-16T08:27:15Z</time>
      </trkpt>
      <trkpt lat="45.73745" lon="6.57774">
        <ele>1046</ele>
        <time>2022-08-16T08:27:16Z</time>
      </trkpt>
      <trkpt lat="45.73748" lon="6.57776">
        <ele>1046</ele>
        <time>2022-08-16T08:27:17Z</time>
      </trkpt>
      <trkpt lat="45.73749" lon="6.57778">
        <ele>1046</ele>
        <time>2022-08-16T08:27:18Z</time>
      </trkpt>
      <trkpt lat="45.73751" lon="6.57779">
        <ele>1046</ele>
        <time>2022-08-16T08:27:19Z</time>
      </trkpt>
      <trkpt lat="45.73754" lon="6.5778">
        <ele>1046</ele>
        <time>2022-08-16T08:27:20Z</time>
      </trkpt>
      <trkpt lat="45.73756" lon="6.57782">
        <ele>1046</ele>
        <time>2022-08-16T08:27:21Z</time>
      </trkpt>
      <trkpt lat="45.73759" lon="6.57785">
        <ele>1046</ele>
        <time>2022-08-16T08:27:22Z</time>
      </trkpt>
      <trkpt lat="45.73761" lon="6.57787">
        <ele>1046</ele>
        <time>2022-08-16T08:27:23Z</time>
      </trkpt>
      <trkpt lat="45.73764" lon="6.57789">
        <ele>1046</ele>
        <time>2022-08-16T08:27:24Z</time>
      </trkpt>
      <trkpt lat="45.73767" lon="6.5779">
        <ele>1045</ele>
        <time>2022-08-16T08:27:25Z</time>
      </trkpt>
      <trkpt lat="45.7377" lon="6.57793">
        <ele>1045</ele>
        <time>2022-08-16T08:27:26Z</time>
      </trkpt>
      <trkpt lat="45.73772" lon="6.57795">
        <ele>1045</ele>
        <time>2022-08-16T08:27:27Z</time>
      </trkpt>
      <trkpt lat="45.73774" lon="6.57797">
        <ele>1045</ele>
        <time>2022-08-16T08:27:28Z</time>
      </trkpt>
      <trkpt lat="45.73776" lon="6.57799">
        <ele>1045</ele>
        <time>2022-08-16T08:27:29Z</time>
      </trkpt>
      <trkpt lat="45.73778" lon="6.57802">
        <ele>1045</ele>
        <time>2022-08-16T08:27:30Z</time>
      </trkpt>
      <trkpt lat="45.7378" lon="6.57805">
        <ele>1045</ele>
        <time>2022-08-16T08:27:31Z</time>
      </trkpt>
      <trkpt lat="45.73782" lon="6.57808">
        <ele>1046</ele>
        <time>2022-08-16T08:27:32Z</time>
      </trkpt>
      <trkpt lat="45.73785" lon="6.57811">
        <ele>1046</ele>
        <time>2022-08-16T08:27:33Z</time>
      </trkpt>
      <trkpt lat="45.73788" lon="6.57813">
        <ele>1046</ele>
        <time>2022-08-16T08:27:34Z</time>
      </trkpt>
      <trkpt lat="45.7379" lon="6.57815">
        <ele>1047</ele>
        <time>2022-08-16T08:27:35Z</time>
      </trkpt>
      <trkpt lat="45.73793" lon="6.57817">
        <ele>1047</ele>
        <time>2022-08-16T08:27:36Z</time>
      </trkpt>
      <trkpt lat="45.73795" lon="6.57819">
        <ele>1048</ele>
        <time>2022-08-16T08:27:37Z</time>
      </trkpt>
      <trkpt lat="45.73797" lon="6.5782">
        <ele>1048</ele>
        <time>2022-08-16T08:27:38Z</time>
      </trkpt>
      <trkpt lat="45.73798" lon="6.57823">
        <ele>1049</ele>
        <time>2022-08-16T08:27:39Z</time>
      </trkpt>
      <trkpt lat="45.738" lon="6.57826">
        <ele>1049</ele>
        <time>2022-08-16T08:27:40Z</time>
      </trkpt>
      <trkpt lat="45.73802" lon="6.57828">
        <ele>1050</ele>
        <time>2022-08-16T08:27:41Z</time>
      </trkpt>
      <trkpt lat="45.73804" lon="6.5783">
        <ele>1050</ele>
        <time>2022-08-16T08:27:42Z</time>
      </trkpt>
      <trkpt lat="45.73806" lon="6.57831">
        <ele>1050</ele>
        <time>2022-08-16T08:27:43Z</time>
      </trkpt>
      <trkpt lat="45.73808" lon="6.57834">
        <ele>1051</ele>
        <time>2022-08-16T08:27:44Z</time>
      </trkpt>
      <trkpt lat="45.73811" lon="6.57835">
        <ele>1051</ele>
        <time>2022-08-16T08:27:45Z</time>
      </trkpt>
      <trkpt lat="45.73813" lon="6.57838">
        <ele>1052</ele>
        <time>2022-08-16T08:27:46Z</time>
      </trkpt>
      <trkpt lat="45.73815" lon="6.57841">
        <ele>1052</ele>
        <time>2022-08-16T08:27:47Z</time>
      </trkpt>
      <trkpt lat="45.73817" lon="6.57843">
        <ele>1052</ele>
        <time>2022-08-16T08:27:48Z</time>
      </trkpt>
      <trkpt lat="45.73819" lon="6.57845">
        <ele>1053</ele>
        <time>2022-08-16T08:27:49Z</time>
      </trkpt>
      <trkpt lat="45.73821" lon="6.57848">
        <ele>1053</ele>
        <time>2022-08-16T08:27:50Z</time>
      </trkpt>
      <trkpt lat="45.73823" lon="6.5785">
        <ele>1054</ele>
        <time>2022-08-16T08:27:51Z</time>
      </trkpt>
      <trkpt lat="45.73825" lon="6.57852">
        <ele>1054</ele>
        <time>2022-08-16T08:27:52Z</time>
      </trkpt>
      <trkpt lat="45.73827" lon="6.57855">
        <ele>1054</ele>
        <time>2022-08-16T08:27:53Z</time>
      </trkpt>
      <trkpt lat="45.73829" lon="6.57858">
        <ele>1055</ele>
        <time>2022-08-16T08:27:54Z</time>
      </trkpt>
      <trkpt lat="45.7383" lon="6.5786">
        <ele>1056</ele>
        <time>2022-08-16T08:27:55Z</time>
      </trkpt>
      <trkpt lat="45.73832" lon="6.57863">
        <ele>1056</ele>
        <time>2022-08-16T08:27:56Z</time>
      </trkpt>
      <trkpt lat="45.73834" lon="6.57866">
        <ele>1056</ele>
        <time>2022-08-16T08:27:57Z</time>
      </trkpt>
      <trkpt lat="45.73835" lon="6.57868">
        <ele>1057</ele>
        <time>2022-08-16T08:27:58Z</time>
      </trkpt>
      <trkpt lat="45.73837" lon="6.57871">
        <ele>1057</ele>
        <time>2022-08-16T08:27:59Z</time>
      </trkpt>
      <trkpt lat="45.73838" lon="6.57874">
        <ele>1057</ele>
        <time>2022-08-16T08:28:00Z</time>
      </trkpt>
      <trkpt lat="45.7384" lon="6.57877">
        <ele>1058</ele>
        <time>2022-08-16T08:28:01Z</time>
      </trkpt>
      <trkpt lat="45.73842" lon="6.57879">
        <ele>1058</ele>
        <time>2022-08-16T08:28:02Z</time>
      </trkpt>
      <trkpt lat="45.73843" lon="6.57882">
        <ele>1058</ele>
        <time>2022-08-16T08:28:03Z</time>
      </trkpt>
      <trkpt lat="45.73845" lon="6.57884">
        <ele>1059</ele>
        <time>2022-08-16T08:28:04Z</time>
      </trkpt>
      <trkpt lat="45.73846" lon="6.57887">
        <ele>1059</ele>
        <time>2022-08-16T08:28:05Z</time>
      </trkpt>
      <trkpt lat="45.73848" lon="6.57889">
        <ele>1059</ele>
        <time>2022-08-16T08:28:06Z</time>
      </trkpt>
      <trkpt lat="45.7385" lon="6.57891">
        <ele>1060</ele>
        <time>2022-08-16T08:28:07Z</time>
      </trkpt>
      <trkpt lat="45.73852" lon="6.57892">
        <ele>1060</ele>
        <time>2022-08-16T08:28:08Z</time>
      </trkpt>
      <trkpt lat="45.73854" lon="6.57893">
        <ele>1060</ele>
        <time>2022-08-16T08:28:09Z</time>
      </trkpt>
      <trkpt lat="45.73856" lon="6.57893">
        <ele>1060</ele>
        <time>2022-08-16T08:28:10Z</time>
      </trkpt>
      <trkpt lat="45.73858" lon="6.57894">
        <ele>1061</ele>
        <time>2022-08-16T08:28:11Z</time>
      </trkpt>
      <trkpt lat="45.7386" lon="6.57894">
        <ele>1061</ele>
        <time>2022-08-16T08:28:12Z</time>
      </trkpt>
      <trkpt lat="45.73863" lon="6.57895">
        <ele>1062</ele>
        <time>2022-08-16T08:28:13Z</time>
      </trkpt>
      <trkpt lat="45.73864" lon="6.57895">
        <ele>1062</ele>
        <time>2022-08-16T08:28:14Z</time>
      </trkpt>
      <trkpt lat="45.73866" lon="6.57895">
        <ele>1062</ele>
        <time>2022-08-16T08:28:15Z</time>
      </trkpt>
      <trkpt lat="45.73867" lon="6.57895">
        <ele>1062</ele>
        <time>2022-08-16T08:28:16Z</time>
      </trkpt>
      <trkpt lat="45.73868" lon="6.57895">
        <ele>1062</ele>
        <time>2022-08-16T08:28:17Z</time>
      </trkpt>
      <trkpt lat="45.73869" lon="6.57894">
        <ele>1064</ele>
        <time>2022-08-16T08:28:18Z</time>
      </trkpt>
      <trkpt lat="45.73869" lon="6.57893">
        <ele>1064</ele>
        <time>2022-08-16T08:28:19Z</time>
      </trkpt>
      <trkpt lat="45.73869" lon="6.57893">
        <ele>1063</ele>
        <time>2022-08-16T08:28:20Z</time>
      </trkpt>
      <trkpt lat="45.73869" lon="6.57893">
        <ele>1062</ele>
        <time>2022-08-16T08:28:21Z</time>
      </trkpt>
      <trkpt lat="45.7387" lon="6.57894">
        <ele>1061</ele>
        <time>2022-08-16T08:28:22Z</time>
      </trkpt>
      <trkpt lat="45.7387" lon="6.57894">
        <ele>1061</ele>
        <time>2022-08-16T08:28:23Z</time>
      </trkpt>
      <trkpt lat="45.7387" lon="6.57896">
        <ele>1061</ele>
        <time>2022-08-16T08:28:24Z</time>
      </trkpt>
      <trkpt lat="45.73871" lon="6.57897">
        <ele>1060</ele>
        <time>2022-08-16T08:28:27Z</time>
      </trkpt>
      <trkpt lat="45.73871" lon="6.57897">
        <ele>1060</ele>
        <time>2022-08-16T08:28:28Z</time>
      </trkpt>
      <trkpt lat="45.73871" lon="6.57897">
        <ele>1060</ele>
        <time>2022-08-16T08:28:29Z</time>
      </trkpt>
      <trkpt lat="45.73871" lon="6.57897">
        <ele>1060</ele>
        <time>2022-08-16T08:28:30Z</time>
      </trkpt>
      <trkpt lat="45.73871" lon="6.57896">
        <ele>1061</ele>
        <time>2022-08-16T08:28:31Z</time>
      </trkpt>
      <trkpt lat="45.73871" lon="6.57896">
        <ele>1061</ele>
        <time>2022-08-16T08:28:35Z</time>
      </trkpt>
      <trkpt lat="45.73871" lon="6.57896">
        <ele>1061</ele>
        <time>2022-08-16T08:28:39Z</time>
      </trkpt>
      <trkpt lat="45.73871" lon="6.57897">
        <ele>1059</ele>
        <time>2022-08-16T08:28:42Z</time>
      </trkpt>
      <trkpt lat="45.73871" lon="6.57898">
        <ele>1059</ele>
        <time>2022-08-16T08:28:43Z</time>
      </trkpt>
      <trkpt lat="45.7387" lon="6.57899">
        <ele>1059</ele>
        <time>2022-08-16T08:28:44Z</time>
      </trkpt>
      <trkpt lat="45.7387" lon="6.57899">
        <ele>1059</ele>
        <time>2022-08-16T08:28:45Z</time>
      </trkpt>
      <trkpt lat="45.7387" lon="6.57899">
        <ele>1058</ele>
        <time>2022-08-16T08:28:47Z</time>
      </trkpt>
      <trkpt lat="45.73869" lon="6.579">
        <ele>1058</ele>
        <time>2022-08-16T08:28:48Z</time>
      </trkpt>
      <trkpt lat="45.73869" lon="6.57901">
        <ele>1058</ele>
        <time>2022-08-16T08:28:49Z</time>
      </trkpt>
      <trkpt lat="45.73868" lon="6.57902">
        <ele>1057</ele>
        <time>2022-08-16T08:28:50Z</time>
      </trkpt>
      <trkpt lat="45.73868" lon="6.57902">
        <ele>1057</ele>
        <time>2022-08-16T08:28:51Z</time>
      </trkpt>
      <trkpt lat="45.73868" lon="6.57902">
        <ele>1057</ele>
        <time>2022-08-16T08:28:52Z</time>
      </trkpt>
      <trkpt lat="45.73867" lon="6.57903">
        <ele>1057</ele>
        <time>2022-08-16T08:28:53Z</time>
      </trkpt>
      <trkpt lat="45.73867" lon="6.57903">
        <ele>1057</ele>
        <time>2022-08-16T08:28:54Z</time>
      </trkpt>
      <trkpt lat="45.73867" lon="6.57903">
        <ele>1057</ele>
        <time>2022-08-16T08:28:58Z</time>
      </trkpt>
      <trkpt lat="45.73868" lon="6.57903">
        <ele>1058</ele>
        <time>2022-08-16T08:29:00Z</time>
      </trkpt>
      <trkpt lat="45.73867" lon="6.57903">
        <ele>1057</ele>
        <time>2022-08-16T08:29:01Z</time>
      </trkpt>
      <trkpt lat="45.73868" lon="6.57902">
        <ele>1057</ele>
        <time>2022-08-16T08:29:02Z</time>
      </trkpt>
      <trkpt lat="45.73868" lon="6.57901">
        <ele>1057</ele>
        <time>2022-08-16T08:29:03Z</time>
      </trkpt>
      <trkpt lat="45.73868" lon="6.579">
        <ele>1057</ele>
        <time>2022-08-16T08:29:04Z</time>
      </trkpt>
      <trkpt lat="45.73868" lon="6.579">
        <ele>1057</ele>
        <time>2022-08-16T08:29:05Z</time>
      </trkpt>
      <trkpt lat="45.73868" lon="6.57899">
        <ele>1056</ele>
        <time>2022-08-16T08:29:06Z</time>
      </trkpt>
      <trkpt lat="45.73869" lon="6.57899">
        <ele>1056</ele>
        <time>2022-08-16T08:29:07Z</time>
      </trkpt>
      <trkpt lat="45.73869" lon="6.57899">
        <ele>1056</ele>
        <time>2022-08-16T08:29:11Z</time>
      </trkpt>
      <trkpt lat="45.73869" lon="6.57899">
        <ele>1054</ele>
        <time>2022-08-16T08:29:13Z</time>
      </trkpt>
      <trkpt lat="45.7387" lon="6.57897">
        <ele>1055</ele>
        <time>2022-08-16T08:29:14Z</time>
      </trkpt>
      <trkpt lat="45.7387" lon="6.57896">
        <ele>1054</ele>
        <time>2022-08-16T08:29:15Z</time>
      </trkpt>
      <trkpt lat="45.7387" lon="6.57896">
        <ele>1054</ele>
        <time>2022-08-16T08:29:16Z</time>
      </trkpt>
      <trkpt lat="45.7387" lon="6.57896">
        <ele>1054</ele>
        <time>2022-08-16T08:29:20Z</time>
      </trkpt>
      <trkpt lat="45.7387" lon="6.57898">
        <ele>1052</ele>
        <time>2022-08-16T08:29:24Z</time>
      </trkpt>
      <trkpt lat="45.7387" lon="6.57898">
        <ele>1051</ele>
        <time>2022-08-16T08:29:25Z</time>
      </trkpt>
      <trkpt lat="45.7387" lon="6.57898">
        <ele>1052</ele>
        <time>2022-08-16T08:29:26Z</time>
      </trkpt>
      <trkpt lat="45.7387" lon="6.57898">
        <ele>1052</ele>
        <time>2022-08-16T08:29:27Z</time>
      </trkpt>
      <trkpt lat="45.7387" lon="6.57898">
        <ele>1053</ele>
        <time>2022-08-16T08:29:31Z</time>
      </trkpt>
      <trkpt lat="45.7387" lon="6.57897">
        <ele>1053</ele>
        <time>2022-08-16T08:29:32Z</time>
      </trkpt>
      <trkpt lat="45.7387" lon="6.57896">
        <ele>1053</ele>
        <time>2022-08-16T08:29:33Z</time>
      </trkpt>
      <trkpt lat="45.73871" lon="6.57895">
        <ele>1053</ele>
        <time>2022-08-16T08:29:34Z</time>
      </trkpt>
      <trkpt lat="45.73871" lon="6.57895">
        <ele>1053</ele>
        <time>2022-08-16T08:29:35Z</time>
      </trkpt>
      <trkpt lat="45.73871" lon="6.57895">
        <ele>1053</ele>
        <time>2022-08-16T08:29:36Z</time>
      </trkpt>
      <trkpt lat="45.73872" lon="6.57895">
        <ele>1053</ele>
        <time>2022-08-16T08:29:37Z</time>
      </trkpt>
      <trkpt lat="45.73872" lon="6.57895">
        <ele>1053</ele>
        <time>2022-08-16T08:29:38Z</time>
      </trkpt>
      <trkpt lat="45.73872" lon="6.57895">
        <ele>1053</ele>
        <time>2022-08-16T08:29:42Z</time>
      </trkpt>
      <trkpt lat="45.73872" lon="6.57895">
        <ele>1053</ele>
        <time>2022-08-16T08:29:46Z</time>
      </trkpt>
      <trkpt lat="45.73872" lon="6.57895">
        <ele>1053</ele>
        <time>2022-08-16T08:29:50Z</time>
      </trkpt>
      <trkpt lat="45.73872" lon="6.57895">
        <ele>1053</ele>
        <time>2022-08-16T08:29:54Z</time>
      </trkpt>
      <trkpt lat="45.73872" lon="6.57895">
        <ele>1053</ele>
        <time>2022-08-16T08:29:58Z</time>
      </trkpt>
      <trkpt lat="45.73872" lon="6.57895">
        <ele>1053</ele>
        <time>2022-08-16T08:30:02Z</time>
      </trkpt>
      <trkpt lat="45.73872" lon="6.57894">
        <ele>1055</ele>
        <time>2022-08-16T08:30:05Z</time>
      </trkpt>
      <trkpt lat="45.73872" lon="6.57895">
        <ele>1055</ele>
        <time>2022-08-16T08:30:06Z</time>
      </trkpt>
      <trkpt lat="45.73872" lon="6.57896">
        <ele>1055</ele>
        <time>2022-08-16T08:30:07Z</time>
      </trkpt>
      <trkpt lat="45.73873" lon="6.57898">
        <ele>1055</ele>
        <time>2022-08-16T08:30:08Z</time>
      </trkpt>
      <trkpt lat="45.73873" lon="6.57898">
        <ele>1055</ele>
        <time>2022-08-16T08:30:09Z</time>
      </trkpt>
      <trkpt lat="45.73873" lon="6.57898">
        <ele>1055</ele>
        <time>2022-08-16T08:30:10Z</time>
      </trkpt>
      <trkpt lat="45.73873" lon="6.57897">
        <ele>1055</ele>
        <time>2022-08-16T08:30:11Z</time>
      </trkpt>
      <trkpt lat="45.73873" lon="6.57897">
        <ele>1055</ele>
        <time>2022-08-16T08:30:12Z</time>
      </trkpt>
      <trkpt lat="45.73873" lon="6.57897">
        <ele>1055</ele>
        <time>2022-08-16T08:30:16Z</time>
      </trkpt>
      <trkpt lat="45.73873" lon="6.57897">
        <ele>1055</ele>
        <time>2022-08-16T08:30:20Z</time>
      </trkpt>
      <trkpt lat="45.73873" lon="6.57897">
        <ele>1055</ele>
        <time>2022-08-16T08:30:24Z</time>
      </trkpt>
      <trkpt lat="45.73873" lon="6.57897">
        <ele>1055</ele>
        <time>2022-08-16T08:30:28Z</time>
      </trkpt>
      <trkpt lat="45.73873" lon="6.57897">
        <ele>1055</ele>
        <time>2022-08-16T08:30:32Z</time>
      </trkpt>
      <trkpt lat="45.73873" lon="6.57897">
        <ele>1055</ele>
        <time>2022-08-16T08:30:36Z</time>
      </trkpt>
      <trkpt lat="45.73873" lon="6.57897">
        <ele>1055</ele>
        <time>2022-08-16T08:30:40Z</time>
      </trkpt>
      <trkpt lat="45.73873" lon="6.57897">
        <ele>1055</ele>
        <time>2022-08-16T08:30:44Z</time>
      </trkpt>
      <trkpt lat="45.73873" lon="6.57897">
        <ele>1055</ele>
        <time>2022-08-16T08:30:48Z</time>
      </trkpt>
      <trkpt lat="45.73873" lon="6.57897">
        <ele>1055</ele>
        <time>2022-08-16T08:30:52Z</time>
      </trkpt>
      <trkpt lat="45.73873" lon="6.57897">
        <ele>1055</ele>
        <time>2022-08-16T08:30:56Z</time>
      </trkpt>
      <trkpt lat="45.73873" lon="6.57897">
        <ele>1055</ele>
        <time>2022-08-16T08:31:00Z</time>
      </trkpt>
      <trkpt lat="45.73873" lon="6.57897">
        <ele>1055</ele>
        <time>2022-08-16T08:31:04Z</time>
      </trkpt>
      <trkpt lat="45.73873" lon="6.57897">
        <ele>1055</ele>
        <time>2022-08-16T08:31:08Z</time>
      </trkpt>
      <trkpt lat="45.73873" lon="6.57897">
        <ele>1055</ele>
        <time>2022-08-16T08:31:12Z</time>
      </trkpt>
      <trkpt lat="45.73873" lon="6.57897">
        <ele>1055</ele>
        <time>2022-08-16T08:31:16Z</time>
      </trkpt>
      <trkpt lat="45.73873" lon="6.57897">
        <ele>1055</ele>
        <time>2022-08-16T08:31:20Z</time>
      </trkpt>
      <trkpt lat="45.73873" lon="6.57897">
        <ele>1055</ele>
        <time>2022-08-16T08:31:24Z</time>
      </trkpt>
      <trkpt lat="45.73873" lon="6.57899">
        <ele>1055</ele>
        <time>2022-08-16T08:31:25Z</time>
      </trkpt>
      <trkpt lat="45.73873" lon="6.57901">
        <ele>1054</ele>
        <time>2022-08-16T08:31:26Z</time>
      </trkpt>
      <trkpt lat="45.73873" lon="6.57902">
        <ele>1054</ele>
        <time>2022-08-16T08:31:27Z</time>
      </trkpt>
      <trkpt lat="45.73873" lon="6.57904">
        <ele>1054</ele>
        <time>2022-08-16T08:31:28Z</time>
      </trkpt>
      <trkpt lat="45.73873" lon="6.57905">
        <ele>1054</ele>
        <time>2022-08-16T08:31:29Z</time>
      </trkpt>
      <trkpt lat="45.73873" lon="6.57906">
        <ele>1054</ele>
        <time>2022-08-16T08:31:30Z</time>
      </trkpt>
      <trkpt lat="45.73873" lon="6.57907">
        <ele>1054</ele>
        <time>2022-08-16T08:31:31Z</time>
      </trkpt>
      <trkpt lat="45.73873" lon="6.57907">
        <ele>1054</ele>
        <time>2022-08-16T08:31:32Z</time>
      </trkpt>
      <trkpt lat="45.73874" lon="6.57909">
        <ele>1054</ele>
        <time>2022-08-16T08:31:33Z</time>
      </trkpt>
      <trkpt lat="45.73874" lon="6.5791">
        <ele>1054</ele>
        <time>2022-08-16T08:31:34Z</time>
      </trkpt>
      <trkpt lat="45.73875" lon="6.5791">
        <ele>1054</ele>
        <time>2022-08-16T08:31:35Z</time>
      </trkpt>
      <trkpt lat="45.73876" lon="6.57911">
        <ele>1054</ele>
        <time>2022-08-16T08:31:36Z</time>
      </trkpt>
      <trkpt lat="45.73876" lon="6.57911">
        <ele>1054</ele>
        <time>2022-08-16T08:31:40Z</time>
      </trkpt>
      <trkpt lat="45.73879" lon="6.57913">
        <ele>1052</ele>
        <time>2022-08-16T08:31:42Z</time>
      </trkpt>
      <trkpt lat="45.7388" lon="6.57913">
        <ele>1052</ele>
        <time>2022-08-16T08:31:43Z</time>
      </trkpt>
      <trkpt lat="45.73881" lon="6.57912">
        <ele>1052</ele>
        <time>2022-08-16T08:31:44Z</time>
      </trkpt>
      <trkpt lat="45.73882" lon="6.57912">
        <ele>1052</ele>
        <time>2022-08-16T08:31:45Z</time>
      </trkpt>
      <trkpt lat="45.73882" lon="6.57912">
        <ele>1052</ele>
        <time>2022-08-16T08:31:49Z</time>
      </trkpt>
      <trkpt lat="45.73882" lon="6.57912">
        <ele>1052</ele>
        <time>2022-08-16T08:31:53Z</time>
      </trkpt>
      <trkpt lat="45.73882" lon="6.57912">
        <ele>1052</ele>
        <time>2022-08-16T08:31:57Z</time>
      </trkpt>
      <trkpt lat="45.73882" lon="6.57912">
        <ele>1052</ele>
        <time>2022-08-16T08:32:01Z</time>
      </trkpt>
      <trkpt lat="45.73882" lon="6.57912">
        <ele>1052</ele>
        <time>2022-08-16T08:32:05Z</time>
      </trkpt>
      <trkpt lat="45.73882" lon="6.57912">
        <ele>1052</ele>
        <time>2022-08-16T08:32:09Z</time>
      </trkpt>
      <trkpt lat="45.73882" lon="6.57912">
        <ele>1052</ele>
        <time>2022-08-16T08:32:13Z</time>
      </trkpt>
      <trkpt lat="45.73881" lon="6.57911">
        <ele>1052</ele>
        <time>2022-08-16T08:32:14Z</time>
      </trkpt>
      <trkpt lat="45.73881" lon="6.5791">
        <ele>1052</ele>
        <time>2022-08-16T08:32:15Z</time>
      </trkpt>
      <trkpt lat="45.73881" lon="6.5791">
        <ele>1052</ele>
        <time>2022-08-16T08:32:16Z</time>
      </trkpt>
      <trkpt lat="45.73881" lon="6.57911">
        <ele>1051</ele>
        <time>2022-08-16T08:32:17Z</time>
      </trkpt>
      <trkpt lat="45.7388" lon="6.57911">
        <ele>1051</ele>
        <time>2022-08-16T08:32:18Z</time>
      </trkpt>
      <trkpt lat="45.73879" lon="6.57911">
        <ele>1051</ele>
        <time>2022-08-16T08:32:19Z</time>
      </trkpt>
      <trkpt lat="45.73879" lon="6.57911">
        <ele>1052</ele>
        <time>2022-08-16T08:32:20Z</time>
      </trkpt>
      <trkpt lat="45.73878" lon="6.57911">
        <ele>1052</ele>
        <time>2022-08-16T08:32:21Z</time>
      </trkpt>
      <trkpt lat="45.73878" lon="6.57911">
        <ele>1053</ele>
        <time>2022-08-16T08:32:22Z</time>
      </trkpt>
      <trkpt lat="45.73877" lon="6.5791">
        <ele>1054</ele>
        <time>2022-08-16T08:32:23Z</time>
      </trkpt>
      <trkpt lat="45.73876" lon="6.5791">
        <ele>1054</ele>
        <time>2022-08-16T08:32:24Z</time>
      </trkpt>
      <trkpt lat="45.73875" lon="6.57909">
        <ele>1055</ele>
        <time>2022-08-16T08:32:25Z</time>
      </trkpt>
      <trkpt lat="45.73875" lon="6.57908">
        <ele>1055</ele>
        <time>2022-08-16T08:32:26Z</time>
      </trkpt>
      <trkpt lat="45.73874" lon="6.57907">
        <ele>1055</ele>
        <time>2022-08-16T08:32:27Z</time>
      </trkpt>
      <trkpt lat="45.73874" lon="6.57907">
        <ele>1054</ele>
        <time>2022-08-16T08:32:28Z</time>
      </trkpt>
      <trkpt lat="45.73873" lon="6.57907">
        <ele>1054</ele>
        <time>2022-08-16T08:32:29Z</time>
      </trkpt>
      <trkpt lat="45.73872" lon="6.57906">
        <ele>1054</ele>
        <time>2022-08-16T08:32:30Z</time>
      </trkpt>
      <trkpt lat="45.73872" lon="6.57905">
        <ele>1054</ele>
        <time>2022-08-16T08:32:31Z</time>
      </trkpt>
      <trkpt lat="45.73871" lon="6.57904">
        <ele>1054</ele>
        <time>2022-08-16T08:32:32Z</time>
      </trkpt>
      <trkpt lat="45.73871" lon="6.57903">
        <ele>1054</ele>
        <time>2022-08-16T08:32:33Z</time>
      </trkpt>
      <trkpt lat="45.7387" lon="6.57902">
        <ele>1054</ele>
        <time>2022-08-16T08:32:34Z</time>
      </trkpt>
      <trkpt lat="45.7387" lon="6.57901">
        <ele>1054</ele>
        <time>2022-08-16T08:32:35Z</time>
      </trkpt>
      <trkpt lat="45.7387" lon="6.57901">
        <ele>1054</ele>
        <time>2022-08-16T08:32:36Z</time>
      </trkpt>
      <trkpt lat="45.73871" lon="6.579">
        <ele>1054</ele>
        <time>2022-08-16T08:32:37Z</time>
      </trkpt>
      <trkpt lat="45.73871" lon="6.579">
        <ele>1054</ele>
        <time>2022-08-16T08:32:38Z</time>
      </trkpt>
      <trkpt lat="45.73871" lon="6.579">
        <ele>1054</ele>
        <time>2022-08-16T08:32:42Z</time>
      </trkpt>
      <trkpt lat="45.73871" lon="6.579">
        <ele>1054</ele>
        <time>2022-08-16T08:32:46Z</time>
      </trkpt>
      <trkpt lat="45.73871" lon="6.579">
        <ele>1054</ele>
        <time>2022-08-16T08:32:50Z</time>
      </trkpt>
      <trkpt lat="45.73871" lon="6.579">
        <ele>1054</ele>
        <time>2022-08-16T08:32:54Z</time>
      </trkpt>
      <trkpt lat="45.73871" lon="6.579">
        <ele>1054</ele>
        <time>2022-08-16T08:32:58Z</time>
      </trkpt>
      <trkpt lat="45.73871" lon="6.579">
        <ele>1054</ele>
        <time>2022-08-16T08:33:02Z</time>
      </trkpt>
      <trkpt lat="45.73871" lon="6.57898">
        <ele>1055</ele>
        <time>2022-08-16T08:33:04Z</time>
      </trkpt>
      <trkpt lat="45.73871" lon="6.57898">
        <ele>1055</ele>
        <time>2022-08-16T08:33:05Z</time>
      </trkpt>
      <trkpt lat="45.73871" lon="6.57898">
        <ele>1055</ele>
        <time>2022-08-16T08:33:06Z</time>
      </trkpt>
      <trkpt lat="45.73871" lon="6.57898">
        <ele>1055</ele>
        <time>2022-08-16T08:33:07Z</time>
      </trkpt>
      <trkpt lat="45.73871" lon="6.57898">
        <ele>1055</ele>
        <time>2022-08-16T08:33:11Z</time>
      </trkpt>
      <trkpt lat="45.73871" lon="6.57898">
        <ele>1055</ele>
        <time>2022-08-16T08:33:15Z</time>
      </trkpt>
      <trkpt lat="45.73871" lon="6.57898">
        <ele>1055</ele>
        <time>2022-08-16T08:33:19Z</time>
      </trkpt>
      <trkpt lat="45.73871" lon="6.57898">
        <ele>1055</ele>
        <time>2022-08-16T08:33:23Z</time>
      </trkpt>
      <trkpt lat="45.73872" lon="6.57896">
        <ele>1054</ele>
        <time>2022-08-16T08:33:26Z</time>
      </trkpt>
      <trkpt lat="45.73872" lon="6.57896">
        <ele>1054</ele>
        <time>2022-08-16T08:33:27Z</time>
      </trkpt>
      <trkpt lat="45.73872" lon="6.57896">
        <ele>1054</ele>
        <time>2022-08-16T08:33:28Z</time>
      </trkpt>
      <trkpt lat="45.73872" lon="6.57896">
        <ele>1055</ele>
        <time>2022-08-16T08:33:29Z</time>
      </trkpt>
      <trkpt lat="45.73872" lon="6.57896">
        <ele>1055</ele>
        <time>2022-08-16T08:33:33Z</time>
      </trkpt>
      <trkpt lat="45.73872" lon="6.57896">
        <ele>1055</ele>
        <time>2022-08-16T08:33:37Z</time>
      </trkpt>
      <trkpt lat="45.73872" lon="6.57896">
        <ele>1055</ele>
        <time>2022-08-16T08:33:41Z</time>
      </trkpt>
      <trkpt lat="45.73872" lon="6.57896">
        <ele>1055</ele>
        <time>2022-08-16T08:33:45Z</time>
      </trkpt>
      <trkpt lat="45.73872" lon="6.57896">
        <ele>1055</ele>
        <time>2022-08-16T08:33:49Z</time>
      </trkpt>
      <trkpt lat="45.73872" lon="6.57896">
        <ele>1055</ele>
        <time>2022-08-16T08:33:53Z</time>
      </trkpt>
      <trkpt lat="45.73872" lon="6.57896">
        <ele>1055</ele>
        <time>2022-08-16T08:33:57Z</time>
      </trkpt>
      <trkpt lat="45.73872" lon="6.57896">
        <ele>1055</ele>
        <time>2022-08-16T08:34:01Z</time>
      </trkpt>
      <trkpt lat="45.73872" lon="6.57896">
        <ele>1054</ele>
        <time>2022-08-16T08:34:04Z</time>
      </trkpt>
      <trkpt lat="45.73872" lon="6.57895">
        <ele>1054</ele>
        <time>2022-08-16T08:34:05Z</time>
      </trkpt>
      <trkpt lat="45.73872" lon="6.57896">
        <ele>1055</ele>
        <time>2022-08-16T08:34:06Z</time>
      </trkpt>
      <trkpt lat="45.73872" lon="6.57898">
        <ele>1055</ele>
        <time>2022-08-16T08:34:07Z</time>
      </trkpt>
      <trkpt lat="45.73872" lon="6.57899">
        <ele>1055</ele>
        <time>2022-08-16T08:34:08Z</time>
      </trkpt>
      <trkpt lat="45.73872" lon="6.57901">
        <ele>1055</ele>
        <time>2022-08-16T08:34:09Z</time>
      </trkpt>
      <trkpt lat="45.73872" lon="6.57902">
        <ele>1055</ele>
        <time>2022-08-16T08:34:10Z</time>
      </trkpt>
      <trkpt lat="45.73873" lon="6.57903">
        <ele>1055</ele>
        <time>2022-08-16T08:34:11Z</time>
      </trkpt>
      <trkpt lat="45.73874" lon="6.57903">
        <ele>1055</ele>
        <time>2022-08-16T08:34:12Z</time>
      </trkpt>
      <trkpt lat="45.73875" lon="6.57904">
        <ele>1055</ele>
        <time>2022-08-16T08:34:13Z</time>
      </trkpt>
      <trkpt lat="45.73875" lon="6.57905">
        <ele>1056</ele>
        <time>2022-08-16T08:34:14Z</time>
      </trkpt>
      <trkpt lat="45.73874" lon="6.57906">
        <ele>1056</ele>
        <time>2022-08-16T08:34:15Z</time>
      </trkpt>
      <trkpt lat="45.73874" lon="6.57906">
        <ele>1056</ele>
        <time>2022-08-16T08:34:16Z</time>
      </trkpt>
      <trkpt lat="45.73874" lon="6.57906">
        <ele>1056</ele>
        <time>2022-08-16T08:34:17Z</time>
      </trkpt>
      <trkpt lat="45.73874" lon="6.57906">
        <ele>1056</ele>
        <time>2022-08-16T08:34:18Z</time>
      </trkpt>
      <trkpt lat="45.73874" lon="6.57906">
        <ele>1056</ele>
        <time>2022-08-16T08:34:22Z</time>
      </trkpt>
      <trkpt lat="45.73874" lon="6.57906">
        <ele>1056</ele>
        <time>2022-08-16T08:34:26Z</time>
      </trkpt>
      <trkpt lat="45.73874" lon="6.57906">
        <ele>1056</ele>
        <time>2022-08-16T08:34:30Z</time>
      </trkpt>
      <trkpt lat="45.73874" lon="6.57905">
        <ele>1057</ele>
        <time>2022-08-16T08:34:31Z</time>
      </trkpt>
      <trkpt lat="45.73874" lon="6.57905">
        <ele>1057</ele>
        <time>2022-08-16T08:34:32Z</time>
      </trkpt>
      <trkpt lat="45.73873" lon="6.57906">
        <ele>1056</ele>
        <time>2022-08-16T08:34:33Z</time>
      </trkpt>
      <trkpt lat="45.73873" lon="6.57906">
        <ele>1056</ele>
        <time>2022-08-16T08:34:34Z</time>
      </trkpt>
      <trkpt lat="45.73873" lon="6.57907">
        <ele>1057</ele>
        <time>2022-08-16T08:34:38Z</time>
      </trkpt>
      <trkpt lat="45.73873" lon="6.57907">
        <ele>1057</ele>
        <time>2022-08-16T08:34:39Z</time>
      </trkpt>
      <trkpt lat="45.73873" lon="6.57907">
        <ele>1057</ele>
        <time>2022-08-16T08:34:40Z</time>
      </trkpt>
      <trkpt lat="45.73873" lon="6.57907">
        <ele>1057</ele>
        <time>2022-08-16T08:34:41Z</time>
      </trkpt>
      <trkpt lat="45.73873" lon="6.57907">
        <ele>1057</ele>
        <time>2022-08-16T08:34:42Z</time>
      </trkpt>
      <trkpt lat="45.73873" lon="6.57907">
        <ele>1057</ele>
        <time>2022-08-16T08:34:46Z</time>
      </trkpt>
      <trkpt lat="45.73873" lon="6.57907">
        <ele>1057</ele>
        <time>2022-08-16T08:34:50Z</time>
      </trkpt>
      <trkpt lat="45.73873" lon="6.57907">
        <ele>1057</ele>
        <time>2022-08-16T08:34:54Z</time>
      </trkpt>
      <trkpt lat="45.73873" lon="6.57907">
        <ele>1057</ele>
        <time>2022-08-16T08:34:58Z</time>
      </trkpt>
      <trkpt lat="45.73873" lon="6.57907">
        <ele>1057</ele>
        <time>2022-08-16T08:35:02Z</time>
      </trkpt>
      <trkpt lat="45.73873" lon="6.57907">
        <ele>1057</ele>
        <time>2022-08-16T08:35:06Z</time>
      </trkpt>
      <trkpt lat="45.73873" lon="6.57907">
        <ele>1057</ele>
        <time>2022-08-16T08:35:10Z</time>
      </trkpt>
      <trkpt lat="45.73872" lon="6.57906">
        <ele>1055</ele>
        <time>2022-08-16T08:35:11Z</time>
      </trkpt>
      <trkpt lat="45.73872" lon="6.57907">
        <ele>1055</ele>
        <time>2022-08-16T08:35:12Z</time>
      </trkpt>
      <trkpt lat="45.73872" lon="6.57907">
        <ele>1055</ele>
        <time>2022-08-16T08:35:13Z</time>
      </trkpt>
      <trkpt lat="45.73872" lon="6.57907">
        <ele>1055</ele>
        <time>2022-08-16T08:35:14Z</time>
      </trkpt>
      <trkpt lat="45.73872" lon="6.57907">
        <ele>1055</ele>
        <time>2022-08-16T08:35:15Z</time>
      </trkpt>
      <trkpt lat="45.73872" lon="6.57907">
        <ele>1055</ele>
        <time>2022-08-16T08:35:16Z</time>
      </trkpt>
      <trkpt lat="45.73871" lon="6.57908">
        <ele>1054</ele>
        <time>2022-08-16T08:35:18Z</time>
      </trkpt>
      <trkpt lat="45.7387" lon="6.57908">
        <ele>1054</ele>
        <time>2022-08-16T08:35:19Z</time>
      </trkpt>
      <trkpt lat="45.7387" lon="6.57908">
        <ele>1054</ele>
        <time>2022-08-16T08:35:20Z</time>
      </trkpt>
      <trkpt lat="45.7387" lon="6.57908">
        <ele>1054</ele>
        <time>2022-08-16T08:35:21Z</time>
      </trkpt>
      <trkpt lat="45.7387" lon="6.57908">
        <ele>1054</ele>
        <time>2022-08-16T08:35:22Z</time>
      </trkpt>
      <trkpt lat="45.73871" lon="6.57909">
        <ele>1053</ele>
        <time>2022-08-16T08:35:23Z</time>
      </trkpt>
      <trkpt lat="45.7387" lon="6.57909">
        <ele>1053</ele>
        <time>2022-08-16T08:35:24Z</time>
      </trkpt>
      <trkpt lat="45.7387" lon="6.57908">
        <ele>1053</ele>
        <time>2022-08-16T08:35:25Z</time>
      </trkpt>
      <trkpt lat="45.7387" lon="6.57907">
        <ele>1054</ele>
        <time>2022-08-16T08:35:26Z</time>
      </trkpt>
      <trkpt lat="45.7387" lon="6.57906">
        <ele>1054</ele>
        <time>2022-08-16T08:35:27Z</time>
      </trkpt>
      <trkpt lat="45.7387" lon="6.57905">
        <ele>1054</ele>
        <time>2022-08-16T08:35:28Z</time>
      </trkpt>
      <trkpt lat="45.7387" lon="6.57904">
        <ele>1054</ele>
        <time>2022-08-16T08:35:29Z</time>
      </trkpt>
      <trkpt lat="45.7387" lon="6.57903">
        <ele>1054</ele>
        <time>2022-08-16T08:35:30Z</time>
      </trkpt>
      <trkpt lat="45.7387" lon="6.57902">
        <ele>1054</ele>
        <time>2022-08-16T08:35:31Z</time>
      </trkpt>
      <trkpt lat="45.7387" lon="6.57902">
        <ele>1054</ele>
        <time>2022-08-16T08:35:32Z</time>
      </trkpt>
      <trkpt lat="45.7387" lon="6.57902">
        <ele>1053</ele>
        <time>2022-08-16T08:35:33Z</time>
      </trkpt>
      <trkpt lat="45.73869" lon="6.57901">
        <ele>1054</ele>
        <time>2022-08-16T08:35:37Z</time>
      </trkpt>
      <trkpt lat="45.73869" lon="6.579">
        <ele>1054</ele>
        <time>2022-08-16T08:35:38Z</time>
      </trkpt>
      <trkpt lat="45.73869" lon="6.57901">
        <ele>1054</ele>
        <time>2022-08-16T08:35:39Z</time>
      </trkpt>
      <trkpt lat="45.7387" lon="6.57901">
        <ele>1055</ele>
        <time>2022-08-16T08:35:40Z</time>
      </trkpt>
      <trkpt lat="45.73869" lon="6.57901">
        <ele>1055</ele>
        <time>2022-08-16T08:35:41Z</time>
      </trkpt>
      <trkpt lat="45.73869" lon="6.57901">
        <ele>1055</ele>
        <time>2022-08-16T08:35:42Z</time>
      </trkpt>
      <trkpt lat="45.73869" lon="6.57901">
        <ele>1055</ele>
        <time>2022-08-16T08:35:43Z</time>
      </trkpt>
      <trkpt lat="45.73869" lon="6.57901">
        <ele>1056</ele>
        <time>2022-08-16T08:35:44Z</time>
      </trkpt>
      <trkpt lat="45.73869" lon="6.57902">
        <ele>1056</ele>
        <time>2022-08-16T08:35:45Z</time>
      </trkpt>
      <trkpt lat="45.73869" lon="6.57904">
        <ele>1056</ele>
        <time>2022-08-16T08:35:46Z</time>
      </trkpt>
      <trkpt lat="45.7387" lon="6.57906">
        <ele>1056</ele>
        <time>2022-08-16T08:35:47Z</time>
      </trkpt>
      <trkpt lat="45.7387" lon="6.57909">
        <ele>1056</ele>
        <time>2022-08-16T08:35:48Z</time>
      </trkpt>
      <trkpt lat="45.7387" lon="6.57911">
        <ele>1056</ele>
        <time>2022-08-16T08:35:49Z</time>
      </trkpt>
      <trkpt lat="45.7387" lon="6.57914">
        <ele>1056</ele>
        <time>2022-08-16T08:35:50Z</time>
      </trkpt>
      <trkpt lat="45.73871" lon="6.57917">
        <ele>1056</ele>
        <time>2022-08-16T08:35:51Z</time>
      </trkpt>
      <trkpt lat="45.73872" lon="6.5792">
        <ele>1056</ele>
        <time>2022-08-16T08:35:52Z</time>
      </trkpt>
      <trkpt lat="45.73873" lon="6.57923">
        <ele>1056</ele>
        <time>2022-08-16T08:35:53Z</time>
      </trkpt>
      <trkpt lat="45.73874" lon="6.57926">
        <ele>1056</ele>
        <time>2022-08-16T08:35:54Z</time>
      </trkpt>
      <trkpt lat="45.73876" lon="6.57928">
        <ele>1056</ele>
        <time>2022-08-16T08:35:55Z</time>
      </trkpt>
      <trkpt lat="45.73878" lon="6.57931">
        <ele>1056</ele>
        <time>2022-08-16T08:35:56Z</time>
      </trkpt>
      <trkpt lat="45.73879" lon="6.57934">
        <ele>1057</ele>
        <time>2022-08-16T08:35:57Z</time>
      </trkpt>
      <trkpt lat="45.7388" lon="6.57938">
        <ele>1057</ele>
        <time>2022-08-16T08:35:58Z</time>
      </trkpt>
      <trkpt lat="45.73881" lon="6.57941">
        <ele>1057</ele>
        <time>2022-08-16T08:35:59Z</time>
      </trkpt>
      <trkpt lat="45.73882" lon="6.57944">
        <ele>1058</ele>
        <time>2022-08-16T08:36:00Z</time>
      </trkpt>
      <trkpt lat="45.73883" lon="6.57946">
        <ele>1058</ele>
        <time>2022-08-16T08:36:01Z</time>
      </trkpt>
      <trkpt lat="45.73884" lon="6.57949">
        <ele>1059</ele>
        <time>2022-08-16T08:36:02Z</time>
      </trkpt>
      <trkpt lat="45.73885" lon="6.57952">
        <ele>1059</ele>
        <time>2022-08-16T08:36:03Z</time>
      </trkpt>
      <trkpt lat="45.73887" lon="6.57954">
        <ele>1059</ele>
        <time>2022-08-16T08:36:04Z</time>
      </trkpt>
      <trkpt lat="45.73888" lon="6.57957">
        <ele>1059</ele>
        <time>2022-08-16T08:36:05Z</time>
      </trkpt>
      <trkpt lat="45.73888" lon="6.5796">
        <ele>1060</ele>
        <time>2022-08-16T08:36:06Z</time>
      </trkpt>
      <trkpt lat="45.73889" lon="6.57963">
        <ele>1060</ele>
        <time>2022-08-16T08:36:07Z</time>
      </trkpt>
      <trkpt lat="45.7389" lon="6.57966">
        <ele>1060</ele>
        <time>2022-08-16T08:36:08Z</time>
      </trkpt>
      <trkpt lat="45.7389" lon="6.57969">
        <ele>1060</ele>
        <time>2022-08-16T08:36:09Z</time>
      </trkpt>
      <trkpt lat="45.73891" lon="6.57971">
        <ele>1060</ele>
        <time>2022-08-16T08:36:10Z</time>
      </trkpt>
      <trkpt lat="45.73892" lon="6.57974">
        <ele>1061</ele>
        <time>2022-08-16T08:36:11Z</time>
      </trkpt>
      <trkpt lat="45.73892" lon="6.57976">
        <ele>1061</ele>
        <time>2022-08-16T08:36:12Z</time>
      </trkpt>
      <trkpt lat="45.73892" lon="6.57979">
        <ele>1061</ele>
        <time>2022-08-16T08:36:13Z</time>
      </trkpt>
      <trkpt lat="45.73893" lon="6.57982">
        <ele>1061</ele>
        <time>2022-08-16T08:36:14Z</time>
      </trkpt>
      <trkpt lat="45.73893" lon="6.57985">
        <ele>1061</ele>
        <time>2022-08-16T08:36:15Z</time>
      </trkpt>
      <trkpt lat="45.73893" lon="6.57988">
        <ele>1062</ele>
        <time>2022-08-16T08:36:16Z</time>
      </trkpt>
      <trkpt lat="45.73893" lon="6.57991">
        <ele>1062</ele>
        <time>2022-08-16T08:36:17Z</time>
      </trkpt>
      <trkpt lat="45.73892" lon="6.57994">
        <ele>1062</ele>
        <time>2022-08-16T08:36:18Z</time>
      </trkpt>
      <trkpt lat="45.73892" lon="6.57998">
        <ele>1062</ele>
        <time>2022-08-16T08:36:19Z</time>
      </trkpt>
      <trkpt lat="45.73892" lon="6.58001">
        <ele>1062</ele>
        <time>2022-08-16T08:36:20Z</time>
      </trkpt>
      <trkpt lat="45.73892" lon="6.58004">
        <ele>1062</ele>
        <time>2022-08-16T08:36:21Z</time>
      </trkpt>
      <trkpt lat="45.73893" lon="6.58008">
        <ele>1062</ele>
        <time>2022-08-16T08:36:22Z</time>
      </trkpt>
      <trkpt lat="45.73893" lon="6.58011">
        <ele>1062</ele>
        <time>2022-08-16T08:36:23Z</time>
      </trkpt>
      <trkpt lat="45.73894" lon="6.58014">
        <ele>1062</ele>
        <time>2022-08-16T08:36:24Z</time>
      </trkpt>
      <trkpt lat="45.73895" lon="6.58017">
        <ele>1062</ele>
        <time>2022-08-16T08:36:25Z</time>
      </trkpt>
      <trkpt lat="45.73896" lon="6.5802">
        <ele>1062</ele>
        <time>2022-08-16T08:36:26Z</time>
      </trkpt>
      <trkpt lat="45.73897" lon="6.58023">
        <ele>1062</ele>
        <time>2022-08-16T08:36:27Z</time>
      </trkpt>
      <trkpt lat="45.73898" lon="6.58026">
        <ele>1063</ele>
        <time>2022-08-16T08:36:28Z</time>
      </trkpt>
      <trkpt lat="45.73899" lon="6.58029">
        <ele>1063</ele>
        <time>2022-08-16T08:36:29Z</time>
      </trkpt>
      <trkpt lat="45.739" lon="6.58031">
        <ele>1063</ele>
        <time>2022-08-16T08:36:30Z</time>
      </trkpt>
      <trkpt lat="45.73901" lon="6.58034">
        <ele>1063</ele>
        <time>2022-08-16T08:36:31Z</time>
      </trkpt>
      <trkpt lat="45.73902" lon="6.58037">
        <ele>1063</ele>
        <time>2022-08-16T08:36:32Z</time>
      </trkpt>
      <trkpt lat="45.73903" lon="6.58039">
        <ele>1064</ele>
        <time>2022-08-16T08:36:33Z</time>
      </trkpt>
      <trkpt lat="45.73905" lon="6.58041">
        <ele>1065</ele>
        <time>2022-08-16T08:36:34Z</time>
      </trkpt>
      <trkpt lat="45.73907" lon="6.58044">
        <ele>1065</ele>
        <time>2022-08-16T08:36:35Z</time>
      </trkpt>
      <trkpt lat="45.73909" lon="6.58047">
        <ele>1065</ele>
        <time>2022-08-16T08:36:36Z</time>
      </trkpt>
      <trkpt lat="45.73911" lon="6.58049">
        <ele>1065</ele>
        <time>2022-08-16T08:36:37Z</time>
      </trkpt>
      <trkpt lat="45.73913" lon="6.58051">
        <ele>1065</ele>
        <time>2022-08-16T08:36:38Z</time>
      </trkpt>
      <trkpt lat="45.73915" lon="6.58054">
        <ele>1065</ele>
        <time>2022-08-16T08:36:39Z</time>
      </trkpt>
      <trkpt lat="45.73917" lon="6.58056">
        <ele>1064</ele>
        <time>2022-08-16T08:36:40Z</time>
      </trkpt>
      <trkpt lat="45.7392" lon="6.58057">
        <ele>1064</ele>
        <time>2022-08-16T08:36:41Z</time>
      </trkpt>
      <trkpt lat="45.73922" lon="6.5806">
        <ele>1064</ele>
        <time>2022-08-16T08:36:42Z</time>
      </trkpt>
      <trkpt lat="45.73924" lon="6.58061">
        <ele>1064</ele>
        <time>2022-08-16T08:36:43Z</time>
      </trkpt>
      <trkpt lat="45.73927" lon="6.58063">
        <ele>1065</ele>
        <time>2022-08-16T08:36:44Z</time>
      </trkpt>
      <trkpt lat="45.73929" lon="6.58064">
        <ele>1065</ele>
        <time>2022-08-16T08:36:45Z</time>
      </trkpt>
      <trkpt lat="45.73931" lon="6.58065">
        <ele>1066</ele>
        <time>2022-08-16T08:36:46Z</time>
      </trkpt>
      <trkpt lat="45.73934" lon="6.58067">
        <ele>1066</ele>
        <time>2022-08-16T08:36:47Z</time>
      </trkpt>
      <trkpt lat="45.73936" lon="6.58068">
        <ele>1067</ele>
        <time>2022-08-16T08:36:48Z</time>
      </trkpt>
      <trkpt lat="45.73938" lon="6.5807">
        <ele>1067</ele>
        <time>2022-08-16T08:36:49Z</time>
      </trkpt>
      <trkpt lat="45.73941" lon="6.58072">
        <ele>1068</ele>
        <time>2022-08-16T08:36:50Z</time>
      </trkpt>
      <trkpt lat="45.73943" lon="6.58074">
        <ele>1068</ele>
        <time>2022-08-16T08:36:51Z</time>
      </trkpt>
      <trkpt lat="45.73946" lon="6.58075">
        <ele>1069</ele>
        <time>2022-08-16T08:36:52Z</time>
      </trkpt>
      <trkpt lat="45.73948" lon="6.58076">
        <ele>1070</ele>
        <time>2022-08-16T08:36:53Z</time>
      </trkpt>
      <trkpt lat="45.7395" lon="6.58077">
        <ele>1071</ele>
        <time>2022-08-16T08:36:54Z</time>
      </trkpt>
      <trkpt lat="45.73952" lon="6.58078">
        <ele>1071</ele>
        <time>2022-08-16T08:36:55Z</time>
      </trkpt>
      <trkpt lat="45.73955" lon="6.5808">
        <ele>1071</ele>
        <time>2022-08-16T08:36:56Z</time>
      </trkpt>
      <trkpt lat="45.73957" lon="6.58083">
        <ele>1072</ele>
        <time>2022-08-16T08:36:57Z</time>
      </trkpt>
      <trkpt lat="45.73959" lon="6.58084">
        <ele>1072</ele>
        <time>2022-08-16T08:36:58Z</time>
      </trkpt>
      <trkpt lat="45.73962" lon="6.58087">
        <ele>1072</ele>
        <time>2022-08-16T08:36:59Z</time>
      </trkpt>
      <trkpt lat="45.73964" lon="6.58089">
        <ele>1072</ele>
        <time>2022-08-16T08:37:00Z</time>
      </trkpt>
      <trkpt lat="45.73967" lon="6.58092">
        <ele>1072</ele>
        <time>2022-08-16T08:37:01Z</time>
      </trkpt>
      <trkpt lat="45.73968" lon="6.58095">
        <ele>1072</ele>
        <time>2022-08-16T08:37:02Z</time>
      </trkpt>
      <trkpt lat="45.7397" lon="6.58098">
        <ele>1072</ele>
        <time>2022-08-16T08:37:03Z</time>
      </trkpt>
      <trkpt lat="45.73972" lon="6.58101">
        <ele>1072</ele>
        <time>2022-08-16T08:37:04Z</time>
      </trkpt>
      <trkpt lat="45.73973" lon="6.58103">
        <ele>1072</ele>
        <time>2022-08-16T08:37:05Z</time>
      </trkpt>
      <trkpt lat="45.73974" lon="6.58106">
        <ele>1072</ele>
        <time>2022-08-16T08:37:06Z</time>
      </trkpt>
      <trkpt lat="45.73975" lon="6.58109">
        <ele>1071</ele>
        <time>2022-08-16T08:37:07Z</time>
      </trkpt>
      <trkpt lat="45.73976" lon="6.58112">
        <ele>1071</ele>
        <time>2022-08-16T08:37:08Z</time>
      </trkpt>
      <trkpt lat="45.73976" lon="6.58115">
        <ele>1071</ele>
        <time>2022-08-16T08:37:09Z</time>
      </trkpt>
      <trkpt lat="45.73977" lon="6.58118">
        <ele>1071</ele>
        <time>2022-08-16T08:37:10Z</time>
      </trkpt>
      <trkpt lat="45.73977" lon="6.58121">
        <ele>1072</ele>
        <time>2022-08-16T08:37:11Z</time>
      </trkpt>
      <trkpt lat="45.73977" lon="6.58124">
        <ele>1071</ele>
        <time>2022-08-16T08:37:12Z</time>
      </trkpt>
      <trkpt lat="45.73977" lon="6.58128">
        <ele>1072</ele>
        <time>2022-08-16T08:37:13Z</time>
      </trkpt>
      <trkpt lat="45.73977" lon="6.5813">
        <ele>1072</ele>
        <time>2022-08-16T08:37:14Z</time>
      </trkpt>
      <trkpt lat="45.73977" lon="6.58133">
        <ele>1073</ele>
        <time>2022-08-16T08:37:15Z</time>
      </trkpt>
      <trkpt lat="45.73977" lon="6.58136">
        <ele>1074</ele>
        <time>2022-08-16T08:37:16Z</time>
      </trkpt>
      <trkpt lat="45.73977" lon="6.58139">
        <ele>1075</ele>
        <time>2022-08-16T08:37:17Z</time>
      </trkpt>
      <trkpt lat="45.73977" lon="6.58142">
        <ele>1075</ele>
        <time>2022-08-16T08:37:18Z</time>
      </trkpt>
      <trkpt lat="45.73977" lon="6.58146">
        <ele>1075</ele>
        <time>2022-08-16T08:37:19Z</time>
      </trkpt>
      <trkpt lat="45.73978" lon="6.58149">
        <ele>1076</ele>
        <time>2022-08-16T08:37:20Z</time>
      </trkpt>
      <trkpt lat="45.73978" lon="6.58152">
        <ele>1078</ele>
        <time>2022-08-16T08:37:21Z</time>
      </trkpt>
      <trkpt lat="45.73978" lon="6.58155">
        <ele>1079</ele>
        <time>2022-08-16T08:37:22Z</time>
      </trkpt>
      <trkpt lat="45.73977" lon="6.58157">
        <ele>1079</ele>
        <time>2022-08-16T08:37:23Z</time>
      </trkpt>
      <trkpt lat="45.73977" lon="6.5816">
        <ele>1080</ele>
        <time>2022-08-16T08:37:24Z</time>
      </trkpt>
      <trkpt lat="45.73977" lon="6.58163">
        <ele>1081</ele>
        <time>2022-08-16T08:37:25Z</time>
      </trkpt>
      <trkpt lat="45.73976" lon="6.58167">
        <ele>1082</ele>
        <time>2022-08-16T08:37:26Z</time>
      </trkpt>
      <trkpt lat="45.73977" lon="6.58172">
        <ele>1083</ele>
        <time>2022-08-16T08:37:27Z</time>
      </trkpt>
      <trkpt lat="45.73978" lon="6.58176">
        <ele>1083</ele>
        <time>2022-08-16T08:37:28Z</time>
      </trkpt>
      <trkpt lat="45.73979" lon="6.58181">
        <ele>1084</ele>
        <time>2022-08-16T08:37:29Z</time>
      </trkpt>
      <trkpt lat="45.73982" lon="6.58185">
        <ele>1084</ele>
        <time>2022-08-16T08:37:30Z</time>
      </trkpt>
      <trkpt lat="45.73983" lon="6.58189">
        <ele>1084</ele>
        <time>2022-08-16T08:37:31Z</time>
      </trkpt>
      <trkpt lat="45.73985" lon="6.58193">
        <ele>1083</ele>
        <time>2022-08-16T08:37:32Z</time>
      </trkpt>
      <trkpt lat="45.73987" lon="6.58196">
        <ele>1083</ele>
        <time>2022-08-16T08:37:33Z</time>
      </trkpt>
      <trkpt lat="45.73989" lon="6.58199">
        <ele>1082</ele>
        <time>2022-08-16T08:37:34Z</time>
      </trkpt>
      <trkpt lat="45.73991" lon="6.58202">
        <ele>1081</ele>
        <time>2022-08-16T08:37:35Z</time>
      </trkpt>
      <trkpt lat="45.73994" lon="6.58205">
        <ele>1080</ele>
        <time>2022-08-16T08:37:36Z</time>
      </trkpt>
      <trkpt lat="45.73996" lon="6.58208">
        <ele>1079</ele>
        <time>2022-08-16T08:37:37Z</time>
      </trkpt>
      <trkpt lat="45.73998" lon="6.58211">
        <ele>1079</ele>
        <time>2022-08-16T08:37:38Z</time>
      </trkpt>
      <trkpt lat="45.74001" lon="6.58214">
        <ele>1079</ele>
        <time>2022-08-16T08:37:39Z</time>
      </trkpt>
      <trkpt lat="45.74003" lon="6.58217">
        <ele>1079</ele>
        <time>2022-08-16T08:37:40Z</time>
      </trkpt>
      <trkpt lat="45.74006" lon="6.58221">
        <ele>1079</ele>
        <time>2022-08-16T08:37:41Z</time>
      </trkpt>
      <trkpt lat="45.74008" lon="6.58224">
        <ele>1078</ele>
        <time>2022-08-16T08:37:42Z</time>
      </trkpt>
      <trkpt lat="45.7401" lon="6.58228">
        <ele>1078</ele>
        <time>2022-08-16T08:37:43Z</time>
      </trkpt>
      <trkpt lat="45.74012" lon="6.58231">
        <ele>1078</ele>
        <time>2022-08-16T08:37:44Z</time>
      </trkpt>
      <trkpt lat="45.74014" lon="6.58236">
        <ele>1078</ele>
        <time>2022-08-16T08:37:45Z</time>
      </trkpt>
      <trkpt lat="45.74016" lon="6.58239">
        <ele>1078</ele>
        <time>2022-08-16T08:37:46Z</time>
      </trkpt>
      <trkpt lat="45.74017" lon="6.58243">
        <ele>1077</ele>
        <time>2022-08-16T08:37:47Z</time>
      </trkpt>
      <trkpt lat="45.74019" lon="6.58247">
        <ele>1077</ele>
        <time>2022-08-16T08:37:48Z</time>
      </trkpt>
      <trkpt lat="45.7402" lon="6.58251">
        <ele>1076</ele>
        <time>2022-08-16T08:37:49Z</time>
      </trkpt>
      <trkpt lat="45.74022" lon="6.58254">
        <ele>1076</ele>
        <time>2022-08-16T08:37:50Z</time>
      </trkpt>
      <trkpt lat="45.74023" lon="6.58257">
        <ele>1076</ele>
        <time>2022-08-16T08:37:51Z</time>
      </trkpt>
      <trkpt lat="45.74024" lon="6.58261">
        <ele>1077</ele>
        <time>2022-08-16T08:37:52Z</time>
      </trkpt>
      <trkpt lat="45.74026" lon="6.58264">
        <ele>1077</ele>
        <time>2022-08-16T08:37:53Z</time>
      </trkpt>
      <trkpt lat="45.74028" lon="6.58267">
        <ele>1077</ele>
        <time>2022-08-16T08:37:54Z</time>
      </trkpt>
      <trkpt lat="45.7403" lon="6.58271">
        <ele>1077</ele>
        <time>2022-08-16T08:37:55Z</time>
      </trkpt>
      <trkpt lat="45.74032" lon="6.58275">
        <ele>1077</ele>
        <time>2022-08-16T08:37:56Z</time>
      </trkpt>
      <trkpt lat="45.74034" lon="6.58278">
        <ele>1077</ele>
        <time>2022-08-16T08:37:57Z</time>
      </trkpt>
      <trkpt lat="45.74037" lon="6.58281">
        <ele>1077</ele>
        <time>2022-08-16T08:37:58Z</time>
      </trkpt>
      <trkpt lat="45.74039" lon="6.58284">
        <ele>1077</ele>
        <time>2022-08-16T08:37:59Z</time>
      </trkpt>
      <trkpt lat="45.74041" lon="6.58287">
        <ele>1077</ele>
        <time>2022-08-16T08:38:00Z</time>
      </trkpt>
      <trkpt lat="45.74044" lon="6.58289">
        <ele>1077</ele>
        <time>2022-08-16T08:38:01Z</time>
      </trkpt>
      <trkpt lat="45.74046" lon="6.58291">
        <ele>1077</ele>
        <time>2022-08-16T08:38:02Z</time>
      </trkpt>
      <trkpt lat="45.74049" lon="6.58293">
        <ele>1076</ele>
        <time>2022-08-16T08:38:03Z</time>
      </trkpt>
      <trkpt lat="45.74052" lon="6.58294">
        <ele>1077</ele>
        <time>2022-08-16T08:38:04Z</time>
      </trkpt>
      <trkpt lat="45.74054" lon="6.58294">
        <ele>1077</ele>
        <time>2022-08-16T08:38:05Z</time>
      </trkpt>
      <trkpt lat="45.74056" lon="6.58295">
        <ele>1078</ele>
        <time>2022-08-16T08:38:06Z</time>
      </trkpt>
      <trkpt lat="45.74058" lon="6.58295">
        <ele>1078</ele>
        <time>2022-08-16T08:38:07Z</time>
      </trkpt>
      <trkpt lat="45.7406" lon="6.58295">
        <ele>1077</ele>
        <time>2022-08-16T08:38:08Z</time>
      </trkpt>
      <trkpt lat="45.74062" lon="6.58295">
        <ele>1077</ele>
        <time>2022-08-16T08:38:09Z</time>
      </trkpt>
      <trkpt lat="45.74065" lon="6.58294">
        <ele>1078</ele>
        <time>2022-08-16T08:38:10Z</time>
      </trkpt>
      <trkpt lat="45.74068" lon="6.58294">
        <ele>1077</ele>
        <time>2022-08-16T08:38:11Z</time>
      </trkpt>
      <trkpt lat="45.7407" lon="6.58293">
        <ele>1077</ele>
        <time>2022-08-16T08:38:12Z</time>
      </trkpt>
      <trkpt lat="45.74073" lon="6.58293">
        <ele>1077</ele>
        <time>2022-08-16T08:38:13Z</time>
      </trkpt>
      <trkpt lat="45.74077" lon="6.58294">
        <ele>1078</ele>
        <time>2022-08-16T08:38:14Z</time>
      </trkpt>
      <trkpt lat="45.7408" lon="6.58295">
        <ele>1079</ele>
        <time>2022-08-16T08:38:15Z</time>
      </trkpt>
      <trkpt lat="45.74083" lon="6.58296">
        <ele>1079</ele>
        <time>2022-08-16T08:38:16Z</time>
      </trkpt>
      <trkpt lat="45.74086" lon="6.58297">
        <ele>1079</ele>
        <time>2022-08-16T08:38:17Z</time>
      </trkpt>
      <trkpt lat="45.74089" lon="6.58299">
        <ele>1079</ele>
        <time>2022-08-16T08:38:18Z</time>
      </trkpt>
      <trkpt lat="45.74091" lon="6.583">
        <ele>1079</ele>
        <time>2022-08-16T08:38:19Z</time>
      </trkpt>
      <trkpt lat="45.74094" lon="6.58301">
        <ele>1079</ele>
        <time>2022-08-16T08:38:20Z</time>
      </trkpt>
      <trkpt lat="45.74097" lon="6.58302">
        <ele>1079</ele>
        <time>2022-08-16T08:38:21Z</time>
      </trkpt>
      <trkpt lat="45.741" lon="6.58303">
        <ele>1079</ele>
        <time>2022-08-16T08:38:22Z</time>
      </trkpt>
      <trkpt lat="45.74103" lon="6.58305">
        <ele>1080</ele>
        <time>2022-08-16T08:38:23Z</time>
      </trkpt>
      <trkpt lat="45.74106" lon="6.58307">
        <ele>1080</ele>
        <time>2022-08-16T08:38:24Z</time>
      </trkpt>
      <trkpt lat="45.74109" lon="6.58308">
        <ele>1080</ele>
        <time>2022-08-16T08:38:25Z</time>
      </trkpt>
      <trkpt lat="45.74112" lon="6.58308">
        <ele>1080</ele>
        <time>2022-08-16T08:38:26Z</time>
      </trkpt>
      <trkpt lat="45.74115" lon="6.58309">
        <ele>1079</ele>
        <time>2022-08-16T08:38:27Z</time>
      </trkpt>
      <trkpt lat="45.74118" lon="6.58311">
        <ele>1080</ele>
        <time>2022-08-16T08:38:28Z</time>
      </trkpt>
      <trkpt lat="45.74122" lon="6.58312">
        <ele>1080</ele>
        <time>2022-08-16T08:38:29Z</time>
      </trkpt>
      <trkpt lat="45.74126" lon="6.58313">
        <ele>1080</ele>
        <time>2022-08-16T08:38:30Z</time>
      </trkpt>
      <trkpt lat="45.74129" lon="6.58314">
        <ele>1080</ele>
        <time>2022-08-16T08:38:31Z</time>
      </trkpt>
      <trkpt lat="45.74133" lon="6.58315">
        <ele>1080</ele>
        <time>2022-08-16T08:38:32Z</time>
      </trkpt>
      <trkpt lat="45.74138" lon="6.58313">
        <ele>1081</ele>
        <time>2022-08-16T08:38:33Z</time>
      </trkpt>
      <trkpt lat="45.74142" lon="6.58314">
        <ele>1082</ele>
        <time>2022-08-16T08:38:34Z</time>
      </trkpt>
      <trkpt lat="45.74146" lon="6.58314">
        <ele>1082</ele>
        <time>2022-08-16T08:38:35Z</time>
      </trkpt>
      <trkpt lat="45.7415" lon="6.58313">
        <ele>1082</ele>
        <time>2022-08-16T08:38:36Z</time>
      </trkpt>
      <trkpt lat="45.74153" lon="6.58312">
        <ele>1082</ele>
        <time>2022-08-16T08:38:37Z</time>
      </trkpt>
      <trkpt lat="45.74157" lon="6.58312">
        <ele>1082</ele>
        <time>2022-08-16T08:38:38Z</time>
      </trkpt>
      <trkpt lat="45.7416" lon="6.58311">
        <ele>1083</ele>
        <time>2022-08-16T08:38:39Z</time>
      </trkpt>
      <trkpt lat="45.74164" lon="6.5831">
        <ele>1083</ele>
        <time>2022-08-16T08:38:40Z</time>
      </trkpt>
      <trkpt lat="45.74168" lon="6.5831">
        <ele>1083</ele>
        <time>2022-08-16T08:38:41Z</time>
      </trkpt>
      <trkpt lat="45.74172" lon="6.58309">
        <ele>1083</ele>
        <time>2022-08-16T08:38:42Z</time>
      </trkpt>
      <trkpt lat="45.74176" lon="6.58309">
        <ele>1083</ele>
        <time>2022-08-16T08:38:43Z</time>
      </trkpt>
      <trkpt lat="45.74181" lon="6.5831">
        <ele>1083</ele>
        <time>2022-08-16T08:38:44Z</time>
      </trkpt>
      <trkpt lat="45.74185" lon="6.58313">
        <ele>1082</ele>
        <time>2022-08-16T08:38:45Z</time>
      </trkpt>
      <trkpt lat="45.74188" lon="6.58314">
        <ele>1083</ele>
        <time>2022-08-16T08:38:46Z</time>
      </trkpt>
      <trkpt lat="45.74192" lon="6.58317">
        <ele>1082</ele>
        <time>2022-08-16T08:38:47Z</time>
      </trkpt>
      <trkpt lat="45.74196" lon="6.5832">
        <ele>1082</ele>
        <time>2022-08-16T08:38:48Z</time>
      </trkpt>
      <trkpt lat="45.74199" lon="6.58323">
        <ele>1082</ele>
        <time>2022-08-16T08:38:49Z</time>
      </trkpt>
      <trkpt lat="45.74203" lon="6.58326">
        <ele>1082</ele>
        <time>2022-08-16T08:38:50Z</time>
      </trkpt>
      <trkpt lat="45.74207" lon="6.58329">
        <ele>1081</ele>
        <time>2022-08-16T08:38:51Z</time>
      </trkpt>
      <trkpt lat="45.7421" lon="6.58333">
        <ele>1081</ele>
        <time>2022-08-16T08:38:52Z</time>
      </trkpt>
      <trkpt lat="45.74214" lon="6.58335">
        <ele>1081</ele>
        <time>2022-08-16T08:38:53Z</time>
      </trkpt>
      <trkpt lat="45.74217" lon="6.58338">
        <ele>1081</ele>
        <time>2022-08-16T08:38:54Z</time>
      </trkpt>
      <trkpt lat="45.74221" lon="6.5834">
        <ele>1081</ele>
        <time>2022-08-16T08:38:55Z</time>
      </trkpt>
      <trkpt lat="45.74224" lon="6.58341">
        <ele>1081</ele>
        <time>2022-08-16T08:38:56Z</time>
      </trkpt>
      <trkpt lat="45.74227" lon="6.58343">
        <ele>1081</ele>
        <time>2022-08-16T08:38:57Z</time>
      </trkpt>
      <trkpt lat="45.7423" lon="6.58344">
        <ele>1081</ele>
        <time>2022-08-16T08:38:58Z</time>
      </trkpt>
      <trkpt lat="45.74234" lon="6.58345">
        <ele>1081</ele>
        <time>2022-08-16T08:38:59Z</time>
      </trkpt>
      <trkpt lat="45.74237" lon="6.58345">
        <ele>1080</ele>
        <time>2022-08-16T08:39:00Z</time>
      </trkpt>
      <trkpt lat="45.74241" lon="6.58346">
        <ele>1080</ele>
        <time>2022-08-16T08:39:01Z</time>
      </trkpt>
      <trkpt lat="45.74244" lon="6.58347">
        <ele>1080</ele>
        <time>2022-08-16T08:39:02Z</time>
      </trkpt>
      <trkpt lat="45.74247" lon="6.58348">
        <ele>1080</ele>
        <time>2022-08-16T08:39:03Z</time>
      </trkpt>
      <trkpt lat="45.7425" lon="6.58349">
        <ele>1080</ele>
        <time>2022-08-16T08:39:04Z</time>
      </trkpt>
      <trkpt lat="45.74253" lon="6.58351">
        <ele>1079</ele>
        <time>2022-08-16T08:39:05Z</time>
      </trkpt>
      <trkpt lat="45.74256" lon="6.58354">
        <ele>1079</ele>
        <time>2022-08-16T08:39:06Z</time>
      </trkpt>
      <trkpt lat="45.74259" lon="6.58356">
        <ele>1079</ele>
        <time>2022-08-16T08:39:07Z</time>
      </trkpt>
      <trkpt lat="45.74261" lon="6.58359">
        <ele>1079</ele>
        <time>2022-08-16T08:39:08Z</time>
      </trkpt>
      <trkpt lat="45.74263" lon="6.58362">
        <ele>1079</ele>
        <time>2022-08-16T08:39:09Z</time>
      </trkpt>
      <trkpt lat="45.74264" lon="6.58365">
        <ele>1079</ele>
        <time>2022-08-16T08:39:10Z</time>
      </trkpt>
      <trkpt lat="45.74266" lon="6.5837">
        <ele>1079</ele>
        <time>2022-08-16T08:39:11Z</time>
      </trkpt>
      <trkpt lat="45.74268" lon="6.58375">
        <ele>1079</ele>
        <time>2022-08-16T08:39:12Z</time>
      </trkpt>
      <trkpt lat="45.7427" lon="6.5838">
        <ele>1079</ele>
        <time>2022-08-16T08:39:13Z</time>
      </trkpt>
      <trkpt lat="45.74271" lon="6.58387">
        <ele>1079</ele>
        <time>2022-08-16T08:39:14Z</time>
      </trkpt>
      <trkpt lat="45.74272" lon="6.58394">
        <ele>1079</ele>
        <time>2022-08-16T08:39:15Z</time>
      </trkpt>
      <trkpt lat="45.74272" lon="6.58401">
        <ele>1079</ele>
        <time>2022-08-16T08:39:16Z</time>
      </trkpt>
      <trkpt lat="45.74272" lon="6.58409">
        <ele>1078</ele>
        <time>2022-08-16T08:39:17Z</time>
      </trkpt>
      <trkpt lat="45.74273" lon="6.58416">
        <ele>1078</ele>
        <time>2022-08-16T08:39:18Z</time>
      </trkpt>
      <trkpt lat="45.74273" lon="6.58422">
        <ele>1077</ele>
        <time>2022-08-16T08:39:19Z</time>
      </trkpt>
      <trkpt lat="45.74273" lon="6.58429">
        <ele>1077</ele>
        <time>2022-08-16T08:39:20Z</time>
      </trkpt>
      <trkpt lat="45.74272" lon="6.58435">
        <ele>1077</ele>
        <time>2022-08-16T08:39:21Z</time>
      </trkpt>
      <trkpt lat="45.74271" lon="6.58441">
        <ele>1077</ele>
        <time>2022-08-16T08:39:22Z</time>
      </trkpt>
      <trkpt lat="45.7427" lon="6.58447">
        <ele>1077</ele>
        <time>2022-08-16T08:39:23Z</time>
      </trkpt>
      <trkpt lat="45.74269" lon="6.58453">
        <ele>1078</ele>
        <time>2022-08-16T08:39:24Z</time>
      </trkpt>
      <trkpt lat="45.74267" lon="6.58459">
        <ele>1078</ele>
        <time>2022-08-16T08:39:25Z</time>
      </trkpt>
      <trkpt lat="45.74265" lon="6.58465">
        <ele>1079</ele>
        <time>2022-08-16T08:39:26Z</time>
      </trkpt>
      <trkpt lat="45.74263" lon="6.5847">
        <ele>1079</ele>
        <time>2022-08-16T08:39:27Z</time>
      </trkpt>
      <trkpt lat="45.74261" lon="6.58476">
        <ele>1080</ele>
        <time>2022-08-16T08:39:28Z</time>
      </trkpt>
      <trkpt lat="45.7426" lon="6.58483">
        <ele>1080</ele>
        <time>2022-08-16T08:39:29Z</time>
      </trkpt>
      <trkpt lat="45.74258" lon="6.58489">
        <ele>1080</ele>
        <time>2022-08-16T08:39:30Z</time>
      </trkpt>
      <trkpt lat="45.74256" lon="6.58496">
        <ele>1080</ele>
        <time>2022-08-16T08:39:31Z</time>
      </trkpt>
      <trkpt lat="45.74254" lon="6.58502">
        <ele>1081</ele>
        <time>2022-08-16T08:39:32Z</time>
      </trkpt>
      <trkpt lat="45.74253" lon="6.58509">
        <ele>1081</ele>
        <time>2022-08-16T08:39:33Z</time>
      </trkpt>
      <trkpt lat="45.74253" lon="6.58515">
        <ele>1082</ele>
        <time>2022-08-16T08:39:34Z</time>
      </trkpt>
      <trkpt lat="45.74252" lon="6.58522">
        <ele>1082</ele>
        <time>2022-08-16T08:39:35Z</time>
      </trkpt>
      <trkpt lat="45.74253" lon="6.58527">
        <ele>1082</ele>
        <time>2022-08-16T08:39:36Z</time>
      </trkpt>
      <trkpt lat="45.74254" lon="6.58532">
        <ele>1082</ele>
        <time>2022-08-16T08:39:37Z</time>
      </trkpt>
      <trkpt lat="45.74256" lon="6.58538">
        <ele>1083</ele>
        <time>2022-08-16T08:39:38Z</time>
      </trkpt>
      <trkpt lat="45.74258" lon="6.58542">
        <ele>1083</ele>
        <time>2022-08-16T08:39:39Z</time>
      </trkpt>
      <trkpt lat="45.74262" lon="6.58545">
        <ele>1084</ele>
        <time>2022-08-16T08:39:40Z</time>
      </trkpt>
      <trkpt lat="45.74267" lon="6.58546">
        <ele>1084</ele>
        <time>2022-08-16T08:39:41Z</time>
      </trkpt>
      <trkpt lat="45.74271" lon="6.58547">
        <ele>1084</ele>
        <time>2022-08-16T08:39:42Z</time>
      </trkpt>
      <trkpt lat="45.74276" lon="6.58546">
        <ele>1084</ele>
        <time>2022-08-16T08:39:43Z</time>
      </trkpt>
      <trkpt lat="45.74279" lon="6.58544">
        <ele>1085</ele>
        <time>2022-08-16T08:39:44Z</time>
      </trkpt>
      <trkpt lat="45.74282" lon="6.58541">
        <ele>1085</ele>
        <time>2022-08-16T08:39:45Z</time>
      </trkpt>
      <trkpt lat="45.74285" lon="6.58538">
        <ele>1085</ele>
        <time>2022-08-16T08:39:46Z</time>
      </trkpt>
      <trkpt lat="45.74288" lon="6.58534">
        <ele>1085</ele>
        <time>2022-08-16T08:39:47Z</time>
      </trkpt>
      <trkpt lat="45.7429" lon="6.5853">
        <ele>1085</ele>
        <time>2022-08-16T08:39:48Z</time>
      </trkpt>
      <trkpt lat="45.74293" lon="6.58525">
        <ele>1085</ele>
        <time>2022-08-16T08:39:49Z</time>
      </trkpt>
      <trkpt lat="45.74295" lon="6.58521">
        <ele>1084</ele>
        <time>2022-08-16T08:39:50Z</time>
      </trkpt>
      <trkpt lat="45.74298" lon="6.58517">
        <ele>1084</ele>
        <time>2022-08-16T08:39:51Z</time>
      </trkpt>
      <trkpt lat="45.74301" lon="6.58514">
        <ele>1084</ele>
        <time>2022-08-16T08:39:52Z</time>
      </trkpt>
      <trkpt lat="45.74303" lon="6.5851">
        <ele>1084</ele>
        <time>2022-08-16T08:39:53Z</time>
      </trkpt>
      <trkpt lat="45.74306" lon="6.58507">
        <ele>1084</ele>
        <time>2022-08-16T08:39:54Z</time>
      </trkpt>
      <trkpt lat="45.74309" lon="6.58504">
        <ele>1085</ele>
        <time>2022-08-16T08:39:55Z</time>
      </trkpt>
      <trkpt lat="45.74312" lon="6.58502">
        <ele>1084</ele>
        <time>2022-08-16T08:39:56Z</time>
      </trkpt>
      <trkpt lat="45.74315" lon="6.58501">
        <ele>1084</ele>
        <time>2022-08-16T08:39:57Z</time>
      </trkpt>
      <trkpt lat="45.74318" lon="6.58498">
        <ele>1084</ele>
        <time>2022-08-16T08:39:58Z</time>
      </trkpt>
      <trkpt lat="45.74321" lon="6.58497">
        <ele>1084</ele>
        <time>2022-08-16T08:39:59Z</time>
      </trkpt>
      <trkpt lat="45.74325" lon="6.58495">
        <ele>1085</ele>
        <time>2022-08-16T08:40:00Z</time>
      </trkpt>
      <trkpt lat="45.7433" lon="6.58496">
        <ele>1085</ele>
        <time>2022-08-16T08:40:01Z</time>
      </trkpt>
      <trkpt lat="45.74335" lon="6.58497">
        <ele>1085</ele>
        <time>2022-08-16T08:40:02Z</time>
      </trkpt>
      <trkpt lat="45.74339" lon="6.58496">
        <ele>1085</ele>
        <time>2022-08-16T08:40:03Z</time>
      </trkpt>
      <trkpt lat="45.74343" lon="6.58495">
        <ele>1086</ele>
        <time>2022-08-16T08:40:04Z</time>
      </trkpt>
      <trkpt lat="45.74347" lon="6.58494">
        <ele>1086</ele>
        <time>2022-08-16T08:40:05Z</time>
      </trkpt>
      <trkpt lat="45.7435" lon="6.58495">
        <ele>1087</ele>
        <time>2022-08-16T08:40:06Z</time>
      </trkpt>
      <trkpt lat="45.74354" lon="6.58495">
        <ele>1087</ele>
        <time>2022-08-16T08:40:07Z</time>
      </trkpt>
      <trkpt lat="45.74357" lon="6.58496">
        <ele>1087</ele>
        <time>2022-08-16T08:40:08Z</time>
      </trkpt>
      <trkpt lat="45.7436" lon="6.58496">
        <ele>1087</ele>
        <time>2022-08-16T08:40:09Z</time>
      </trkpt>
      <trkpt lat="45.74363" lon="6.58497">
        <ele>1087</ele>
        <time>2022-08-16T08:40:10Z</time>
      </trkpt>
      <trkpt lat="45.74367" lon="6.58497">
        <ele>1087</ele>
        <time>2022-08-16T08:40:11Z</time>
      </trkpt>
      <trkpt lat="45.7437" lon="6.58497">
        <ele>1088</ele>
        <time>2022-08-16T08:40:12Z</time>
      </trkpt>
      <trkpt lat="45.74374" lon="6.58498">
        <ele>1088</ele>
        <time>2022-08-16T08:40:13Z</time>
      </trkpt>
      <trkpt lat="45.74377" lon="6.58498">
        <ele>1088</ele>
        <time>2022-08-16T08:40:14Z</time>
      </trkpt>
      <trkpt lat="45.7438" lon="6.58497">
        <ele>1088</ele>
        <time>2022-08-16T08:40:15Z</time>
      </trkpt>
      <trkpt lat="45.74383" lon="6.58497">
        <ele>1088</ele>
        <time>2022-08-16T08:40:16Z</time>
      </trkpt>
      <trkpt lat="45.74386" lon="6.58497">
        <ele>1088</ele>
        <time>2022-08-16T08:40:17Z</time>
      </trkpt>
      <trkpt lat="45.74389" lon="6.58498">
        <ele>1088</ele>
        <time>2022-08-16T08:40:18Z</time>
      </trkpt>
      <trkpt lat="45.74392" lon="6.585">
        <ele>1089</ele>
        <time>2022-08-16T08:40:19Z</time>
      </trkpt>
      <trkpt lat="45.74395" lon="6.585">
        <ele>1089</ele>
        <time>2022-08-16T08:40:20Z</time>
      </trkpt>
      <trkpt lat="45.74398" lon="6.58502">
        <ele>1089</ele>
        <time>2022-08-16T08:40:21Z</time>
      </trkpt>
      <trkpt lat="45.74401" lon="6.58503">
        <ele>1090</ele>
        <time>2022-08-16T08:40:22Z</time>
      </trkpt>
      <trkpt lat="45.74404" lon="6.58504">
        <ele>1090</ele>
        <time>2022-08-16T08:40:23Z</time>
      </trkpt>
      <trkpt lat="45.74406" lon="6.58506">
        <ele>1091</ele>
        <time>2022-08-16T08:40:24Z</time>
      </trkpt>
      <trkpt lat="45.74409" lon="6.58508">
        <ele>1091</ele>
        <time>2022-08-16T08:40:25Z</time>
      </trkpt>
      <trkpt lat="45.74411" lon="6.5851">
        <ele>1091</ele>
        <time>2022-08-16T08:40:26Z</time>
      </trkpt>
      <trkpt lat="45.74413" lon="6.58514">
        <ele>1091</ele>
        <time>2022-08-16T08:40:27Z</time>
      </trkpt>
      <trkpt lat="45.74414" lon="6.58517">
        <ele>1091</ele>
        <time>2022-08-16T08:40:28Z</time>
      </trkpt>
      <trkpt lat="45.74416" lon="6.58521">
        <ele>1092</ele>
        <time>2022-08-16T08:40:29Z</time>
      </trkpt>
      <trkpt lat="45.74417" lon="6.58524">
        <ele>1091</ele>
        <time>2022-08-16T08:40:30Z</time>
      </trkpt>
      <trkpt lat="45.74418" lon="6.58528">
        <ele>1092</ele>
        <time>2022-08-16T08:40:31Z</time>
      </trkpt>
      <trkpt lat="45.74418" lon="6.58532">
        <ele>1092</ele>
        <time>2022-08-16T08:40:32Z</time>
      </trkpt>
      <trkpt lat="45.74418" lon="6.58536">
        <ele>1092</ele>
        <time>2022-08-16T08:40:33Z</time>
      </trkpt>
      <trkpt lat="45.74419" lon="6.58539">
        <ele>1092</ele>
        <time>2022-08-16T08:40:34Z</time>
      </trkpt>
      <trkpt lat="45.74419" lon="6.58543">
        <ele>1091</ele>
        <time>2022-08-16T08:40:35Z</time>
      </trkpt>
      <trkpt lat="45.74419" lon="6.58547">
        <ele>1091</ele>
        <time>2022-08-16T08:40:36Z</time>
      </trkpt>
      <trkpt lat="45.74419" lon="6.5855">
        <ele>1091</ele>
        <time>2022-08-16T08:40:37Z</time>
      </trkpt>
      <trkpt lat="45.74419" lon="6.58553">
        <ele>1092</ele>
        <time>2022-08-16T08:40:38Z</time>
      </trkpt>
      <trkpt lat="45.74419" lon="6.58556">
        <ele>1092</ele>
        <time>2022-08-16T08:40:39Z</time>
      </trkpt>
      <trkpt lat="45.7442" lon="6.5856">
        <ele>1092</ele>
        <time>2022-08-16T08:40:40Z</time>
      </trkpt>
      <trkpt lat="45.74421" lon="6.58563">
        <ele>1092</ele>
        <time>2022-08-16T08:40:41Z</time>
      </trkpt>
      <trkpt lat="45.74421" lon="6.58567">
        <ele>1092</ele>
        <time>2022-08-16T08:40:42Z</time>
      </trkpt>
      <trkpt lat="45.74422" lon="6.5857">
        <ele>1092</ele>
        <time>2022-08-16T08:40:43Z</time>
      </trkpt>
      <trkpt lat="45.74422" lon="6.58574">
        <ele>1092</ele>
        <time>2022-08-16T08:40:44Z</time>
      </trkpt>
      <trkpt lat="45.74423" lon="6.58577">
        <ele>1092</ele>
        <time>2022-08-16T08:40:45Z</time>
      </trkpt>
      <trkpt lat="45.74424" lon="6.5858">
        <ele>1092</ele>
        <time>2022-08-16T08:40:46Z</time>
      </trkpt>
      <trkpt lat="45.74425" lon="6.58583">
        <ele>1093</ele>
        <time>2022-08-16T08:40:47Z</time>
      </trkpt>
      <trkpt lat="45.74427" lon="6.58585">
        <ele>1093</ele>
        <time>2022-08-16T08:40:48Z</time>
      </trkpt>
      <trkpt lat="45.74428" lon="6.58587">
        <ele>1093</ele>
        <time>2022-08-16T08:40:49Z</time>
      </trkpt>
      <trkpt lat="45.7443" lon="6.58589">
        <ele>1094</ele>
        <time>2022-08-16T08:40:50Z</time>
      </trkpt>
      <trkpt lat="45.74432" lon="6.58591">
        <ele>1094</ele>
        <time>2022-08-16T08:40:51Z</time>
      </trkpt>
      <trkpt lat="45.74434" lon="6.58592">
        <ele>1093</ele>
        <time>2022-08-16T08:40:52Z</time>
      </trkpt>
      <trkpt lat="45.74436" lon="6.58593">
        <ele>1093</ele>
        <time>2022-08-16T08:40:53Z</time>
      </trkpt>
      <trkpt lat="45.74438" lon="6.58594">
        <ele>1094</ele>
        <time>2022-08-16T08:40:54Z</time>
      </trkpt>
      <trkpt lat="45.74441" lon="6.58594">
        <ele>1094</ele>
        <time>2022-08-16T08:40:55Z</time>
      </trkpt>
      <trkpt lat="45.74443" lon="6.58594">
        <ele>1094</ele>
        <time>2022-08-16T08:40:56Z</time>
      </trkpt>
      <trkpt lat="45.74446" lon="6.58594">
        <ele>1094</ele>
        <time>2022-08-16T08:40:57Z</time>
      </trkpt>
      <trkpt lat="45.74449" lon="6.58594">
        <ele>1094</ele>
        <time>2022-08-16T08:40:58Z</time>
      </trkpt>
      <trkpt lat="45.74452" lon="6.58594">
        <ele>1094</ele>
        <time>2022-08-16T08:40:59Z</time>
      </trkpt>
      <trkpt lat="45.74455" lon="6.58594">
        <ele>1094</ele>
        <time>2022-08-16T08:41:00Z</time>
      </trkpt>
      <trkpt lat="45.74458" lon="6.58594">
        <ele>1094</ele>
        <time>2022-08-16T08:41:01Z</time>
      </trkpt>
      <trkpt lat="45.74462" lon="6.58594">
        <ele>1095</ele>
        <time>2022-08-16T08:41:02Z</time>
      </trkpt>
      <trkpt lat="45.74465" lon="6.58594">
        <ele>1095</ele>
        <time>2022-08-16T08:41:03Z</time>
      </trkpt>
      <trkpt lat="45.74468" lon="6.58594">
        <ele>1096</ele>
        <time>2022-08-16T08:41:04Z</time>
      </trkpt>
      <trkpt lat="45.74472" lon="6.58595">
        <ele>1096</ele>
        <time>2022-08-16T08:41:05Z</time>
      </trkpt>
      <trkpt lat="45.74474" lon="6.58596">
        <ele>1095</ele>
        <time>2022-08-16T08:41:06Z</time>
      </trkpt>
      <trkpt lat="45.74477" lon="6.58597">
        <ele>1095</ele>
        <time>2022-08-16T08:41:07Z</time>
      </trkpt>
      <trkpt lat="45.7448" lon="6.58599">
        <ele>1095</ele>
        <time>2022-08-16T08:41:08Z</time>
      </trkpt>
      <trkpt lat="45.74483" lon="6.58602">
        <ele>1096</ele>
        <time>2022-08-16T08:41:09Z</time>
      </trkpt>
      <trkpt lat="45.74486" lon="6.58605">
        <ele>1096</ele>
        <time>2022-08-16T08:41:10Z</time>
      </trkpt>
      <trkpt lat="45.74488" lon="6.58609">
        <ele>1097</ele>
        <time>2022-08-16T08:41:11Z</time>
      </trkpt>
      <trkpt lat="45.74489" lon="6.58614">
        <ele>1097</ele>
        <time>2022-08-16T08:41:12Z</time>
      </trkpt>
      <trkpt lat="45.7449" lon="6.58619">
        <ele>1098</ele>
        <time>2022-08-16T08:41:13Z</time>
      </trkpt>
      <trkpt lat="45.74491" lon="6.58624">
        <ele>1099</ele>
        <time>2022-08-16T08:41:14Z</time>
      </trkpt>
      <trkpt lat="45.74491" lon="6.58629">
        <ele>1099</ele>
        <time>2022-08-16T08:41:15Z</time>
      </trkpt>
      <trkpt lat="45.74492" lon="6.58634">
        <ele>1100</ele>
        <time>2022-08-16T08:41:16Z</time>
      </trkpt>
      <trkpt lat="45.74491" lon="6.58639">
        <ele>1100</ele>
        <time>2022-08-16T08:41:17Z</time>
      </trkpt>
      <trkpt lat="45.74491" lon="6.58644">
        <ele>1101</ele>
        <time>2022-08-16T08:41:18Z</time>
      </trkpt>
      <trkpt lat="45.74491" lon="6.58649">
        <ele>1101</ele>
        <time>2022-08-16T08:41:19Z</time>
      </trkpt>
      <trkpt lat="45.74491" lon="6.58655">
        <ele>1100</ele>
        <time>2022-08-16T08:41:20Z</time>
      </trkpt>
      <trkpt lat="45.7449" lon="6.58661">
        <ele>1100</ele>
        <time>2022-08-16T08:41:21Z</time>
      </trkpt>
      <trkpt lat="45.7449" lon="6.58668">
        <ele>1099</ele>
        <time>2022-08-16T08:41:22Z</time>
      </trkpt>
      <trkpt lat="45.7449" lon="6.58674">
        <ele>1099</ele>
        <time>2022-08-16T08:41:23Z</time>
      </trkpt>
      <trkpt lat="45.7449" lon="6.5868">
        <ele>1098</ele>
        <time>2022-08-16T08:41:24Z</time>
      </trkpt>
      <trkpt lat="45.74489" lon="6.58686">
        <ele>1099</ele>
        <time>2022-08-16T08:41:25Z</time>
      </trkpt>
      <trkpt lat="45.74488" lon="6.58692">
        <ele>1100</ele>
        <time>2022-08-16T08:41:26Z</time>
      </trkpt>
      <trkpt lat="45.74487" lon="6.58698">
        <ele>1100</ele>
        <time>2022-08-16T08:41:27Z</time>
      </trkpt>
      <trkpt lat="45.74486" lon="6.58705">
        <ele>1100</ele>
        <time>2022-08-16T08:41:28Z</time>
      </trkpt>
      <trkpt lat="45.74485" lon="6.58712">
        <ele>1100</ele>
        <time>2022-08-16T08:41:29Z</time>
      </trkpt>
      <trkpt lat="45.74484" lon="6.58719">
        <ele>1100</ele>
        <time>2022-08-16T08:41:30Z</time>
      </trkpt>
      <trkpt lat="45.74483" lon="6.58727">
        <ele>1100</ele>
        <time>2022-08-16T08:41:31Z</time>
      </trkpt>
      <trkpt lat="45.74482" lon="6.58734">
        <ele>1100</ele>
        <time>2022-08-16T08:41:32Z</time>
      </trkpt>
      <trkpt lat="45.7448" lon="6.58742">
        <ele>1101</ele>
        <time>2022-08-16T08:41:33Z</time>
      </trkpt>
      <trkpt lat="45.7448" lon="6.58751">
        <ele>1100</ele>
        <time>2022-08-16T08:41:34Z</time>
      </trkpt>
      <trkpt lat="45.74479" lon="6.58759">
        <ele>1100</ele>
        <time>2022-08-16T08:41:35Z</time>
      </trkpt>
      <trkpt lat="45.74479" lon="6.58768">
        <ele>1100</ele>
        <time>2022-08-16T08:41:36Z</time>
      </trkpt>
      <trkpt lat="45.74479" lon="6.58777">
        <ele>1099</ele>
        <time>2022-08-16T08:41:37Z</time>
      </trkpt>
      <trkpt lat="45.74477" lon="6.58788">
        <ele>1099</ele>
        <time>2022-08-16T08:41:38Z</time>
      </trkpt>
      <trkpt lat="45.74474" lon="6.58799">
        <ele>1099</ele>
        <time>2022-08-16T08:41:39Z</time>
      </trkpt>
      <trkpt lat="45.74472" lon="6.58811">
        <ele>1099</ele>
        <time>2022-08-16T08:41:40Z</time>
      </trkpt>
      <trkpt lat="45.74473" lon="6.58823">
        <ele>1098</ele>
        <time>2022-08-16T08:41:41Z</time>
      </trkpt>
      <trkpt lat="45.74478" lon="6.58832">
        <ele>1098</ele>
        <time>2022-08-16T08:41:42Z</time>
      </trkpt>
      <trkpt lat="45.74485" lon="6.58837">
        <ele>1097</ele>
        <time>2022-08-16T08:41:43Z</time>
      </trkpt>
      <trkpt lat="45.74492" lon="6.58838">
        <ele>1098</ele>
        <time>2022-08-16T08:41:44Z</time>
      </trkpt>
      <trkpt lat="45.745" lon="6.58835">
        <ele>1098</ele>
        <time>2022-08-16T08:41:45Z</time>
      </trkpt>
      <trkpt lat="45.74507" lon="6.58831">
        <ele>1099</ele>
        <time>2022-08-16T08:41:46Z</time>
      </trkpt>
      <trkpt lat="45.74513" lon="6.58826">
        <ele>1098</ele>
        <time>2022-08-16T08:41:47Z</time>
      </trkpt>
      <trkpt lat="45.74518" lon="6.58822">
        <ele>1098</ele>
        <time>2022-08-16T08:41:48Z</time>
      </trkpt>
      <trkpt lat="45.74524" lon="6.5882">
        <ele>1098</ele>
        <time>2022-08-16T08:41:49Z</time>
      </trkpt>
      <trkpt lat="45.74529" lon="6.58816">
        <ele>1098</ele>
        <time>2022-08-16T08:41:50Z</time>
      </trkpt>
      <trkpt lat="45.74533" lon="6.58815">
        <ele>1097</ele>
        <time>2022-08-16T08:41:51Z</time>
      </trkpt>
      <trkpt lat="45.74537" lon="6.58812">
        <ele>1097</ele>
        <time>2022-08-16T08:41:52Z</time>
      </trkpt>
      <trkpt lat="45.74541" lon="6.58809">
        <ele>1097</ele>
        <time>2022-08-16T08:41:53Z</time>
      </trkpt>
      <trkpt lat="45.74546" lon="6.58806">
        <ele>1097</ele>
        <time>2022-08-16T08:41:54Z</time>
      </trkpt>
      <trkpt lat="45.7455" lon="6.58803">
        <ele>1096</ele>
        <time>2022-08-16T08:41:55Z</time>
      </trkpt>
      <trkpt lat="45.74554" lon="6.58801">
        <ele>1096</ele>
        <time>2022-08-16T08:41:56Z</time>
      </trkpt>
      <trkpt lat="45.74558" lon="6.588">
        <ele>1096</ele>
        <time>2022-08-16T08:41:57Z</time>
      </trkpt>
      <trkpt lat="45.74563" lon="6.588">
        <ele>1096</ele>
        <time>2022-08-16T08:41:58Z</time>
      </trkpt>
      <trkpt lat="45.74568" lon="6.58803">
        <ele>1095</ele>
        <time>2022-08-16T08:41:59Z</time>
      </trkpt>
      <trkpt lat="45.74573" lon="6.58805">
        <ele>1096</ele>
        <time>2022-08-16T08:42:00Z</time>
      </trkpt>
      <trkpt lat="45.74577" lon="6.58808">
        <ele>1096</ele>
        <time>2022-08-16T08:42:01Z</time>
      </trkpt>
      <trkpt lat="45.74581" lon="6.58811">
        <ele>1096</ele>
        <time>2022-08-16T08:42:02Z</time>
      </trkpt>
      <trkpt lat="45.74585" lon="6.58813">
        <ele>1097</ele>
        <time>2022-08-16T08:42:03Z</time>
      </trkpt>
      <trkpt lat="45.74589" lon="6.58817">
        <ele>1097</ele>
        <time>2022-08-16T08:42:04Z</time>
      </trkpt>
      <trkpt lat="45.74593" lon="6.5882">
        <ele>1096</ele>
        <time>2022-08-16T08:42:05Z</time>
      </trkpt>
      <trkpt lat="45.74596" lon="6.58823">
        <ele>1096</ele>
        <time>2022-08-16T08:42:06Z</time>
      </trkpt>
      <trkpt lat="45.746" lon="6.58825">
        <ele>1096</ele>
        <time>2022-08-16T08:42:07Z</time>
      </trkpt>
      <trkpt lat="45.74603" lon="6.58828">
        <ele>1096</ele>
        <time>2022-08-16T08:42:08Z</time>
      </trkpt>
      <trkpt lat="45.74607" lon="6.5883">
        <ele>1095</ele>
        <time>2022-08-16T08:42:09Z</time>
      </trkpt>
      <trkpt lat="45.74611" lon="6.58833">
        <ele>1096</ele>
        <time>2022-08-16T08:42:10Z</time>
      </trkpt>
      <trkpt lat="45.74615" lon="6.58836">
        <ele>1096</ele>
        <time>2022-08-16T08:42:11Z</time>
      </trkpt>
      <trkpt lat="45.74618" lon="6.58838">
        <ele>1096</ele>
        <time>2022-08-16T08:42:12Z</time>
      </trkpt>
      <trkpt lat="45.74623" lon="6.5884">
        <ele>1096</ele>
        <time>2022-08-16T08:42:13Z</time>
      </trkpt>
      <trkpt lat="45.74626" lon="6.58843">
        <ele>1096</ele>
        <time>2022-08-16T08:42:14Z</time>
      </trkpt>
      <trkpt lat="45.7463" lon="6.58845">
        <ele>1096</ele>
        <time>2022-08-16T08:42:15Z</time>
      </trkpt>
      <trkpt lat="45.74633" lon="6.58848">
        <ele>1096</ele>
        <time>2022-08-16T08:42:16Z</time>
      </trkpt>
      <trkpt lat="45.74637" lon="6.5885">
        <ele>1096</ele>
        <time>2022-08-16T08:42:17Z</time>
      </trkpt>
      <trkpt lat="45.74641" lon="6.58853">
        <ele>1096</ele>
        <time>2022-08-16T08:42:18Z</time>
      </trkpt>
      <trkpt lat="45.74644" lon="6.58855">
        <ele>1096</ele>
        <time>2022-08-16T08:42:19Z</time>
      </trkpt>
      <trkpt lat="45.74647" lon="6.58858">
        <ele>1096</ele>
        <time>2022-08-16T08:42:20Z</time>
      </trkpt>
      <trkpt lat="45.74651" lon="6.5886">
        <ele>1097</ele>
        <time>2022-08-16T08:42:21Z</time>
      </trkpt>
      <trkpt lat="45.74655" lon="6.58863">
        <ele>1097</ele>
        <time>2022-08-16T08:42:22Z</time>
      </trkpt>
      <trkpt lat="45.74659" lon="6.58865">
        <ele>1097</ele>
        <time>2022-08-16T08:42:23Z</time>
      </trkpt>
      <trkpt lat="45.74662" lon="6.58868">
        <ele>1096</ele>
        <time>2022-08-16T08:42:24Z</time>
      </trkpt>
      <trkpt lat="45.74666" lon="6.5887">
        <ele>1096</ele>
        <time>2022-08-16T08:42:25Z</time>
      </trkpt>
      <trkpt lat="45.74669" lon="6.58873">
        <ele>1096</ele>
        <time>2022-08-16T08:42:26Z</time>
      </trkpt>
      <trkpt lat="45.74673" lon="6.58876">
        <ele>1096</ele>
        <time>2022-08-16T08:42:27Z</time>
      </trkpt>
      <trkpt lat="45.74677" lon="6.5888">
        <ele>1096</ele>
        <time>2022-08-16T08:42:28Z</time>
      </trkpt>
      <trkpt lat="45.7468" lon="6.58884">
        <ele>1096</ele>
        <time>2022-08-16T08:42:29Z</time>
      </trkpt>
      <trkpt lat="45.74683" lon="6.58888">
        <ele>1096</ele>
        <time>2022-08-16T08:42:30Z</time>
      </trkpt>
      <trkpt lat="45.74686" lon="6.58893">
        <ele>1096</ele>
        <time>2022-08-16T08:42:31Z</time>
      </trkpt>
      <trkpt lat="45.74688" lon="6.589">
        <ele>1096</ele>
        <time>2022-08-16T08:42:32Z</time>
      </trkpt>
      <trkpt lat="45.7469" lon="6.58906">
        <ele>1096</ele>
        <time>2022-08-16T08:42:33Z</time>
      </trkpt>
      <trkpt lat="45.74691" lon="6.58914">
        <ele>1096</ele>
        <time>2022-08-16T08:42:34Z</time>
      </trkpt>
      <trkpt lat="45.74691" lon="6.58922">
        <ele>1096</ele>
        <time>2022-08-16T08:42:35Z</time>
      </trkpt>
      <trkpt lat="45.7469" lon="6.58931">
        <ele>1096</ele>
        <time>2022-08-16T08:42:36Z</time>
      </trkpt>
      <trkpt lat="45.74689" lon="6.58939">
        <ele>1096</ele>
        <time>2022-08-16T08:42:37Z</time>
      </trkpt>
      <trkpt lat="45.74688" lon="6.58946">
        <ele>1097</ele>
        <time>2022-08-16T08:42:38Z</time>
      </trkpt>
      <trkpt lat="45.74687" lon="6.58953">
        <ele>1097</ele>
        <time>2022-08-16T08:42:39Z</time>
      </trkpt>
      <trkpt lat="45.74685" lon="6.58961">
        <ele>1097</ele>
        <time>2022-08-16T08:42:40Z</time>
      </trkpt>
      <trkpt lat="45.74684" lon="6.58967">
        <ele>1098</ele>
        <time>2022-08-16T08:42:41Z</time>
      </trkpt>
      <trkpt lat="45.74684" lon="6.58974">
        <ele>1098</ele>
        <time>2022-08-16T08:42:42Z</time>
      </trkpt>
      <trkpt lat="45.74684" lon="6.58981">
        <ele>1098</ele>
        <time>2022-08-16T08:42:43Z</time>
      </trkpt>
      <trkpt lat="45.74685" lon="6.58988">
        <ele>1098</ele>
        <time>2022-08-16T08:42:44Z</time>
      </trkpt>
      <trkpt lat="45.74686" lon="6.58994">
        <ele>1098</ele>
        <time>2022-08-16T08:42:45Z</time>
      </trkpt>
      <trkpt lat="45.74689" lon="6.58999">
        <ele>1098</ele>
        <time>2022-08-16T08:42:46Z</time>
      </trkpt>
      <trkpt lat="45.74693" lon="6.59004">
        <ele>1098</ele>
        <time>2022-08-16T08:42:47Z</time>
      </trkpt>
      <trkpt lat="45.74698" lon="6.59009">
        <ele>1098</ele>
        <time>2022-08-16T08:42:48Z</time>
      </trkpt>
      <trkpt lat="45.74704" lon="6.59013">
        <ele>1098</ele>
        <time>2022-08-16T08:42:49Z</time>
      </trkpt>
      <trkpt lat="45.74709" lon="6.59016">
        <ele>1098</ele>
        <time>2022-08-16T08:42:50Z</time>
      </trkpt>
      <trkpt lat="45.74714" lon="6.59018">
        <ele>1098</ele>
        <time>2022-08-16T08:42:51Z</time>
      </trkpt>
      <trkpt lat="45.74719" lon="6.59023">
        <ele>1098</ele>
        <time>2022-08-16T08:42:52Z</time>
      </trkpt>
      <trkpt lat="45.74723" lon="6.59029">
        <ele>1098</ele>
        <time>2022-08-16T08:42:53Z</time>
      </trkpt>
      <trkpt lat="45.74727" lon="6.59035">
        <ele>1098</ele>
        <time>2022-08-16T08:42:54Z</time>
      </trkpt>
      <trkpt lat="45.7473" lon="6.59042">
        <ele>1097</ele>
        <time>2022-08-16T08:42:55Z</time>
      </trkpt>
      <trkpt lat="45.74733" lon="6.59048">
        <ele>1097</ele>
        <time>2022-08-16T08:42:56Z</time>
      </trkpt>
      <trkpt lat="45.74737" lon="6.59054">
        <ele>1097</ele>
        <time>2022-08-16T08:42:57Z</time>
      </trkpt>
      <trkpt lat="45.74741" lon="6.5906">
        <ele>1096</ele>
        <time>2022-08-16T08:42:58Z</time>
      </trkpt>
      <trkpt lat="45.74745" lon="6.59067">
        <ele>1096</ele>
        <time>2022-08-16T08:42:59Z</time>
      </trkpt>
      <trkpt lat="45.74749" lon="6.59073">
        <ele>1095</ele>
        <time>2022-08-16T08:43:00Z</time>
      </trkpt>
      <trkpt lat="45.74753" lon="6.59079">
        <ele>1095</ele>
        <time>2022-08-16T08:43:01Z</time>
      </trkpt>
      <trkpt lat="45.74756" lon="6.59086">
        <ele>1095</ele>
        <time>2022-08-16T08:43:02Z</time>
      </trkpt>
      <trkpt lat="45.74759" lon="6.59093">
        <ele>1095</ele>
        <time>2022-08-16T08:43:03Z</time>
      </trkpt>
      <trkpt lat="45.74763" lon="6.59098">
        <ele>1095</ele>
        <time>2022-08-16T08:43:04Z</time>
      </trkpt>
      <trkpt lat="45.74767" lon="6.59103">
        <ele>1095</ele>
        <time>2022-08-16T08:43:05Z</time>
      </trkpt>
      <trkpt lat="45.74771" lon="6.59107">
        <ele>1095</ele>
        <time>2022-08-16T08:43:06Z</time>
      </trkpt>
      <trkpt lat="45.74775" lon="6.59111">
        <ele>1095</ele>
        <time>2022-08-16T08:43:07Z</time>
      </trkpt>
      <trkpt lat="45.7478" lon="6.59115">
        <ele>1095</ele>
        <time>2022-08-16T08:43:08Z</time>
      </trkpt>
      <trkpt lat="45.74784" lon="6.59119">
        <ele>1096</ele>
        <time>2022-08-16T08:43:09Z</time>
      </trkpt>
      <trkpt lat="45.74787" lon="6.59124">
        <ele>1095</ele>
        <time>2022-08-16T08:43:10Z</time>
      </trkpt>
      <trkpt lat="45.7479" lon="6.59129">
        <ele>1095</ele>
        <time>2022-08-16T08:43:11Z</time>
      </trkpt>
      <trkpt lat="45.74791" lon="6.59135">
        <ele>1095</ele>
        <time>2022-08-16T08:43:12Z</time>
      </trkpt>
      <trkpt lat="45.74793" lon="6.59141">
        <ele>1096</ele>
        <time>2022-08-16T08:43:13Z</time>
      </trkpt>
      <trkpt lat="45.74793" lon="6.59147">
        <ele>1096</ele>
        <time>2022-08-16T08:43:14Z</time>
      </trkpt>
      <trkpt lat="45.74793" lon="6.59152">
        <ele>1096</ele>
        <time>2022-08-16T08:43:15Z</time>
      </trkpt>
      <trkpt lat="45.74794" lon="6.59157">
        <ele>1097</ele>
        <time>2022-08-16T08:43:16Z</time>
      </trkpt>
      <trkpt lat="45.74795" lon="6.59161">
        <ele>1097</ele>
        <time>2022-08-16T08:43:17Z</time>
      </trkpt>
      <trkpt lat="45.74795" lon="6.59166">
        <ele>1097</ele>
        <time>2022-08-16T08:43:18Z</time>
      </trkpt>
      <trkpt lat="45.74795" lon="6.5917">
        <ele>1098</ele>
        <time>2022-08-16T08:43:19Z</time>
      </trkpt>
      <trkpt lat="45.74795" lon="6.59175">
        <ele>1098</ele>
        <time>2022-08-16T08:43:20Z</time>
      </trkpt>
      <trkpt lat="45.74795" lon="6.59179">
        <ele>1099</ele>
        <time>2022-08-16T08:43:21Z</time>
      </trkpt>
      <trkpt lat="45.74796" lon="6.59184">
        <ele>1099</ele>
        <time>2022-08-16T08:43:22Z</time>
      </trkpt>
      <trkpt lat="45.74796" lon="6.59188">
        <ele>1099</ele>
        <time>2022-08-16T08:43:23Z</time>
      </trkpt>
      <trkpt lat="45.74796" lon="6.59192">
        <ele>1099</ele>
        <time>2022-08-16T08:43:24Z</time>
      </trkpt>
      <trkpt lat="45.74796" lon="6.59196">
        <ele>1100</ele>
        <time>2022-08-16T08:43:25Z</time>
      </trkpt>
      <trkpt lat="45.74797" lon="6.592">
        <ele>1100</ele>
        <time>2022-08-16T08:43:26Z</time>
      </trkpt>
      <trkpt lat="45.74798" lon="6.59204">
        <ele>1100</ele>
        <time>2022-08-16T08:43:27Z</time>
      </trkpt>
      <trkpt lat="45.748" lon="6.59208">
        <ele>1099</ele>
        <time>2022-08-16T08:43:28Z</time>
      </trkpt>
      <trkpt lat="45.74802" lon="6.59211">
        <ele>1099</ele>
        <time>2022-08-16T08:43:29Z</time>
      </trkpt>
      <trkpt lat="45.74804" lon="6.59214">
        <ele>1099</ele>
        <time>2022-08-16T08:43:30Z</time>
      </trkpt>
      <trkpt lat="45.74807" lon="6.59216">
        <ele>1099</ele>
        <time>2022-08-16T08:43:31Z</time>
      </trkpt>
      <trkpt lat="45.7481" lon="6.59218">
        <ele>1100</ele>
        <time>2022-08-16T08:43:32Z</time>
      </trkpt>
      <trkpt lat="45.74812" lon="6.59218">
        <ele>1100</ele>
        <time>2022-08-16T08:43:33Z</time>
      </trkpt>
      <trkpt lat="45.74816" lon="6.59218">
        <ele>1100</ele>
        <time>2022-08-16T08:43:34Z</time>
      </trkpt>
      <trkpt lat="45.74819" lon="6.59217">
        <ele>1100</ele>
        <time>2022-08-16T08:43:35Z</time>
      </trkpt>
      <trkpt lat="45.74822" lon="6.59216">
        <ele>1100</ele>
        <time>2022-08-16T08:43:36Z</time>
      </trkpt>
      <trkpt lat="45.74825" lon="6.59215">
        <ele>1100</ele>
        <time>2022-08-16T08:43:37Z</time>
      </trkpt>
      <trkpt lat="45.74828" lon="6.59212">
        <ele>1100</ele>
        <time>2022-08-16T08:43:38Z</time>
      </trkpt>
      <trkpt lat="45.7483" lon="6.59209">
        <ele>1100</ele>
        <time>2022-08-16T08:43:39Z</time>
      </trkpt>
      <trkpt lat="45.74833" lon="6.59206">
        <ele>1100</ele>
        <time>2022-08-16T08:43:40Z</time>
      </trkpt>
      <trkpt lat="45.74836" lon="6.59202">
        <ele>1100</ele>
        <time>2022-08-16T08:43:41Z</time>
      </trkpt>
      <trkpt lat="45.74838" lon="6.592">
        <ele>1101</ele>
        <time>2022-08-16T08:43:42Z</time>
      </trkpt>
      <trkpt lat="45.7484" lon="6.59197">
        <ele>1101</ele>
        <time>2022-08-16T08:43:43Z</time>
      </trkpt>
      <trkpt lat="45.74842" lon="6.59195">
        <ele>1101</ele>
        <time>2022-08-16T08:43:44Z</time>
      </trkpt>
      <trkpt lat="45.74844" lon="6.59192">
        <ele>1101</ele>
        <time>2022-08-16T08:43:45Z</time>
      </trkpt>
      <trkpt lat="45.74846" lon="6.59188">
        <ele>1102</ele>
        <time>2022-08-16T08:43:46Z</time>
      </trkpt>
      <trkpt lat="45.74847" lon="6.59185">
        <ele>1101</ele>
        <time>2022-08-16T08:43:47Z</time>
      </trkpt>
      <trkpt lat="45.74849" lon="6.59182">
        <ele>1101</ele>
        <time>2022-08-16T08:43:48Z</time>
      </trkpt>
      <trkpt lat="45.74851" lon="6.59178">
        <ele>1101</ele>
        <time>2022-08-16T08:43:49Z</time>
      </trkpt>
      <trkpt lat="45.74852" lon="6.59174">
        <ele>1101</ele>
        <time>2022-08-16T08:43:50Z</time>
      </trkpt>
      <trkpt lat="45.74854" lon="6.59169">
        <ele>1101</ele>
        <time>2022-08-16T08:43:51Z</time>
      </trkpt>
      <trkpt lat="45.74856" lon="6.59164">
        <ele>1101</ele>
        <time>2022-08-16T08:43:52Z</time>
      </trkpt>
      <trkpt lat="45.74858" lon="6.5916">
        <ele>1102</ele>
        <time>2022-08-16T08:43:53Z</time>
      </trkpt>
      <trkpt lat="45.74861" lon="6.59156">
        <ele>1102</ele>
        <time>2022-08-16T08:43:54Z</time>
      </trkpt>
      <trkpt lat="45.74863" lon="6.59152">
        <ele>1102</ele>
        <time>2022-08-16T08:43:55Z</time>
      </trkpt>
      <trkpt lat="45.74866" lon="6.59146">
        <ele>1102</ele>
        <time>2022-08-16T08:43:56Z</time>
      </trkpt>
      <trkpt lat="45.7487" lon="6.59141">
        <ele>1104</ele>
        <time>2022-08-16T08:43:57Z</time>
      </trkpt>
      <trkpt lat="45.74874" lon="6.59137">
        <ele>1104</ele>
        <time>2022-08-16T08:43:58Z</time>
      </trkpt>
      <trkpt lat="45.74878" lon="6.59134">
        <ele>1106</ele>
        <time>2022-08-16T08:43:59Z</time>
      </trkpt>
      <trkpt lat="45.74883" lon="6.59132">
        <ele>1106</ele>
        <time>2022-08-16T08:44:00Z</time>
      </trkpt>
      <trkpt lat="45.74888" lon="6.5913">
        <ele>1106</ele>
        <time>2022-08-16T08:44:01Z</time>
      </trkpt>
      <trkpt lat="45.74893" lon="6.5913">
        <ele>1106</ele>
        <time>2022-08-16T08:44:02Z</time>
      </trkpt>
      <trkpt lat="45.74899" lon="6.59131">
        <ele>1106</ele>
        <time>2022-08-16T08:44:03Z</time>
      </trkpt>
      <trkpt lat="45.74904" lon="6.59133">
        <ele>1105</ele>
        <time>2022-08-16T08:44:04Z</time>
      </trkpt>
      <trkpt lat="45.74908" lon="6.59136">
        <ele>1105</ele>
        <time>2022-08-16T08:44:05Z</time>
      </trkpt>
      <trkpt lat="45.74913" lon="6.59139">
        <ele>1105</ele>
        <time>2022-08-16T08:44:06Z</time>
      </trkpt>
      <trkpt lat="45.74916" lon="6.59142">
        <ele>1105</ele>
        <time>2022-08-16T08:44:07Z</time>
      </trkpt>
      <trkpt lat="45.74919" lon="6.59144">
        <ele>1106</ele>
        <time>2022-08-16T08:44:08Z</time>
      </trkpt>
      <trkpt lat="45.74922" lon="6.59145">
        <ele>1106</ele>
        <time>2022-08-16T08:44:09Z</time>
      </trkpt>
      <trkpt lat="45.74925" lon="6.59147">
        <ele>1106</ele>
        <time>2022-08-16T08:44:10Z</time>
      </trkpt>
      <trkpt lat="45.74928" lon="6.59149">
        <ele>1106</ele>
        <time>2022-08-16T08:44:11Z</time>
      </trkpt>
      <trkpt lat="45.7493" lon="6.59152">
        <ele>1106</ele>
        <time>2022-08-16T08:44:12Z</time>
      </trkpt>
      <trkpt lat="45.74932" lon="6.59154">
        <ele>1106</ele>
        <time>2022-08-16T08:44:13Z</time>
      </trkpt>
      <trkpt lat="45.74933" lon="6.59156">
        <ele>1106</ele>
        <time>2022-08-16T08:44:14Z</time>
      </trkpt>
      <trkpt lat="45.74933" lon="6.59158">
        <ele>1106</ele>
        <time>2022-08-16T08:44:15Z</time>
      </trkpt>
      <trkpt lat="45.74934" lon="6.59161">
        <ele>1107</ele>
        <time>2022-08-16T08:44:16Z</time>
      </trkpt>
      <trkpt lat="45.74935" lon="6.59163">
        <ele>1107</ele>
        <time>2022-08-16T08:44:17Z</time>
      </trkpt>
      <trkpt lat="45.74936" lon="6.59166">
        <ele>1107</ele>
        <time>2022-08-16T08:44:18Z</time>
      </trkpt>
      <trkpt lat="45.74937" lon="6.59168">
        <ele>1107</ele>
        <time>2022-08-16T08:44:19Z</time>
      </trkpt>
      <trkpt lat="45.74937" lon="6.5917">
        <ele>1107</ele>
        <time>2022-08-16T08:44:20Z</time>
      </trkpt>
      <trkpt lat="45.74938" lon="6.59173">
        <ele>1107</ele>
        <time>2022-08-16T08:44:21Z</time>
      </trkpt>
      <trkpt lat="45.74938" lon="6.59175">
        <ele>1107</ele>
        <time>2022-08-16T08:44:22Z</time>
      </trkpt>
      <trkpt lat="45.74939" lon="6.59177">
        <ele>1107</ele>
        <time>2022-08-16T08:44:23Z</time>
      </trkpt>
      <trkpt lat="45.7494" lon="6.5918">
        <ele>1107</ele>
        <time>2022-08-16T08:44:24Z</time>
      </trkpt>
      <trkpt lat="45.7494" lon="6.59183">
        <ele>1108</ele>
        <time>2022-08-16T08:44:25Z</time>
      </trkpt>
      <trkpt lat="45.74941" lon="6.59185">
        <ele>1108</ele>
        <time>2022-08-16T08:44:26Z</time>
      </trkpt>
      <trkpt lat="45.74942" lon="6.59188">
        <ele>1108</ele>
        <time>2022-08-16T08:44:27Z</time>
      </trkpt>
      <trkpt lat="45.74943" lon="6.59191">
        <ele>1109</ele>
        <time>2022-08-16T08:44:28Z</time>
      </trkpt>
      <trkpt lat="45.74943" lon="6.59193">
        <ele>1109</ele>
        <time>2022-08-16T08:44:29Z</time>
      </trkpt>
      <trkpt lat="45.74944" lon="6.59196">
        <ele>1109</ele>
        <time>2022-08-16T08:44:30Z</time>
      </trkpt>
      <trkpt lat="45.74945" lon="6.59198">
        <ele>1110</ele>
        <time>2022-08-16T08:44:31Z</time>
      </trkpt>
      <trkpt lat="45.74945" lon="6.59201">
        <ele>1110</ele>
        <time>2022-08-16T08:44:32Z</time>
      </trkpt>
      <trkpt lat="45.74946" lon="6.59203">
        <ele>1110</ele>
        <time>2022-08-16T08:44:33Z</time>
      </trkpt>
      <trkpt lat="45.74947" lon="6.59206">
        <ele>1110</ele>
        <time>2022-08-16T08:44:34Z</time>
      </trkpt>
      <trkpt lat="45.74948" lon="6.59209">
        <ele>1110</ele>
        <time>2022-08-16T08:44:35Z</time>
      </trkpt>
      <trkpt lat="45.74948" lon="6.59212">
        <ele>1110</ele>
        <time>2022-08-16T08:44:36Z</time>
      </trkpt>
      <trkpt lat="45.74949" lon="6.59214">
        <ele>1110</ele>
        <time>2022-08-16T08:44:37Z</time>
      </trkpt>
      <trkpt lat="45.7495" lon="6.59217">
        <ele>1110</ele>
        <time>2022-08-16T08:44:38Z</time>
      </trkpt>
      <trkpt lat="45.7495" lon="6.5922">
        <ele>1111</ele>
        <time>2022-08-16T08:44:39Z</time>
      </trkpt>
      <trkpt lat="45.74951" lon="6.59222">
        <ele>1111</ele>
        <time>2022-08-16T08:44:40Z</time>
      </trkpt>
      <trkpt lat="45.74952" lon="6.59225">
        <ele>1112</ele>
        <time>2022-08-16T08:44:41Z</time>
      </trkpt>
      <trkpt lat="45.74953" lon="6.59228">
        <ele>1112</ele>
        <time>2022-08-16T08:44:42Z</time>
      </trkpt>
      <trkpt lat="45.74953" lon="6.5923">
        <ele>1112</ele>
        <time>2022-08-16T08:44:43Z</time>
      </trkpt>
      <trkpt lat="45.74954" lon="6.59233">
        <ele>1113</ele>
        <time>2022-08-16T08:44:44Z</time>
      </trkpt>
      <trkpt lat="45.74955" lon="6.59236">
        <ele>1113</ele>
        <time>2022-08-16T08:44:45Z</time>
      </trkpt>
      <trkpt lat="45.74956" lon="6.59238">
        <ele>1113</ele>
        <time>2022-08-16T08:44:46Z</time>
      </trkpt>
      <trkpt lat="45.74957" lon="6.59241">
        <ele>1113</ele>
        <time>2022-08-16T08:44:47Z</time>
      </trkpt>
      <trkpt lat="45.74958" lon="6.59244">
        <ele>1113</ele>
        <time>2022-08-16T08:44:48Z</time>
      </trkpt>
      <trkpt lat="45.74959" lon="6.59246">
        <ele>1113</ele>
        <time>2022-08-16T08:44:49Z</time>
      </trkpt>
      <trkpt lat="45.7496" lon="6.59249">
        <ele>1113</ele>
        <time>2022-08-16T08:44:50Z</time>
      </trkpt>
      <trkpt lat="45.74962" lon="6.59251">
        <ele>1113</ele>
        <time>2022-08-16T08:44:51Z</time>
      </trkpt>
      <trkpt lat="45.74963" lon="6.59253">
        <ele>1113</ele>
        <time>2022-08-16T08:44:52Z</time>
      </trkpt>
      <trkpt lat="45.74964" lon="6.59255">
        <ele>1113</ele>
        <time>2022-08-16T08:44:53Z</time>
      </trkpt>
      <trkpt lat="45.74965" lon="6.59258">
        <ele>1113</ele>
        <time>2022-08-16T08:44:54Z</time>
      </trkpt>
      <trkpt lat="45.74966" lon="6.59261">
        <ele>1113</ele>
        <time>2022-08-16T08:44:55Z</time>
      </trkpt>
      <trkpt lat="45.74967" lon="6.59263">
        <ele>1113</ele>
        <time>2022-08-16T08:44:56Z</time>
      </trkpt>
      <trkpt lat="45.74968" lon="6.59265">
        <ele>1113</ele>
        <time>2022-08-16T08:44:57Z</time>
      </trkpt>
      <trkpt lat="45.74969" lon="6.59267">
        <ele>1113</ele>
        <time>2022-08-16T08:44:58Z</time>
      </trkpt>
      <trkpt lat="45.74971" lon="6.59269">
        <ele>1113</ele>
        <time>2022-08-16T08:44:59Z</time>
      </trkpt>
      <trkpt lat="45.74972" lon="6.59271">
        <ele>1114</ele>
        <time>2022-08-16T08:45:00Z</time>
      </trkpt>
      <trkpt lat="45.74974" lon="6.59273">
        <ele>1114</ele>
        <time>2022-08-16T08:45:01Z</time>
      </trkpt>
      <trkpt lat="45.74975" lon="6.59275">
        <ele>1114</ele>
        <time>2022-08-16T08:45:02Z</time>
      </trkpt>
      <trkpt lat="45.74976" lon="6.59278">
        <ele>1114</ele>
        <time>2022-08-16T08:45:03Z</time>
      </trkpt>
      <trkpt lat="45.74977" lon="6.5928">
        <ele>1114</ele>
        <time>2022-08-16T08:45:04Z</time>
      </trkpt>
      <trkpt lat="45.74978" lon="6.59283">
        <ele>1114</ele>
        <time>2022-08-16T08:45:05Z</time>
      </trkpt>
      <trkpt lat="45.7498" lon="6.59284">
        <ele>1114</ele>
        <time>2022-08-16T08:45:06Z</time>
      </trkpt>
      <trkpt lat="45.74981" lon="6.59286">
        <ele>1114</ele>
        <time>2022-08-16T08:45:07Z</time>
      </trkpt>
      <trkpt lat="45.74983" lon="6.59287">
        <ele>1115</ele>
        <time>2022-08-16T08:45:08Z</time>
      </trkpt>
      <trkpt lat="45.74984" lon="6.59289">
        <ele>1115</ele>
        <time>2022-08-16T08:45:09Z</time>
      </trkpt>
      <trkpt lat="45.74985" lon="6.59291">
        <ele>1115</ele>
        <time>2022-08-16T08:45:10Z</time>
      </trkpt>
      <trkpt lat="45.74986" lon="6.59293">
        <ele>1115</ele>
        <time>2022-08-16T08:45:11Z</time>
      </trkpt>
      <trkpt lat="45.74988" lon="6.59294">
        <ele>1115</ele>
        <time>2022-08-16T08:45:12Z</time>
      </trkpt>
      <trkpt lat="45.74989" lon="6.59296">
        <ele>1116</ele>
        <time>2022-08-16T08:45:13Z</time>
      </trkpt>
      <trkpt lat="45.7499" lon="6.59299">
        <ele>1116</ele>
        <time>2022-08-16T08:45:14Z</time>
      </trkpt>
      <trkpt lat="45.74991" lon="6.59301">
        <ele>1116</ele>
        <time>2022-08-16T08:45:15Z</time>
      </trkpt>
      <trkpt lat="45.74991" lon="6.59303">
        <ele>1116</ele>
        <time>2022-08-16T08:45:16Z</time>
      </trkpt>
      <trkpt lat="45.74993" lon="6.59305">
        <ele>1116</ele>
        <time>2022-08-16T08:45:17Z</time>
      </trkpt>
      <trkpt lat="45.74993" lon="6.59307">
        <ele>1116</ele>
        <time>2022-08-16T08:45:18Z</time>
      </trkpt>
      <trkpt lat="45.74994" lon="6.59309">
        <ele>1116</ele>
        <time>2022-08-16T08:45:19Z</time>
      </trkpt>
      <trkpt lat="45.74995" lon="6.59311">
        <ele>1117</ele>
        <time>2022-08-16T08:45:20Z</time>
      </trkpt>
      <trkpt lat="45.74995" lon="6.59314">
        <ele>1117</ele>
        <time>2022-08-16T08:45:21Z</time>
      </trkpt>
      <trkpt lat="45.74996" lon="6.59316">
        <ele>1117</ele>
        <time>2022-08-16T08:45:22Z</time>
      </trkpt>
      <trkpt lat="45.74996" lon="6.59319">
        <ele>1118</ele>
        <time>2022-08-16T08:45:23Z</time>
      </trkpt>
      <trkpt lat="45.74996" lon="6.59321">
        <ele>1118</ele>
        <time>2022-08-16T08:45:24Z</time>
      </trkpt>
      <trkpt lat="45.74997" lon="6.59324">
        <ele>1119</ele>
        <time>2022-08-16T08:45:25Z</time>
      </trkpt>
      <trkpt lat="45.74997" lon="6.59326">
        <ele>1119</ele>
        <time>2022-08-16T08:45:26Z</time>
      </trkpt>
      <trkpt lat="45.74997" lon="6.59329">
        <ele>1119</ele>
        <time>2022-08-16T08:45:27Z</time>
      </trkpt>
      <trkpt lat="45.74997" lon="6.59332">
        <ele>1119</ele>
        <time>2022-08-16T08:45:28Z</time>
      </trkpt>
      <trkpt lat="45.74997" lon="6.59335">
        <ele>1118</ele>
        <time>2022-08-16T08:45:29Z</time>
      </trkpt>
      <trkpt lat="45.74997" lon="6.59337">
        <ele>1118</ele>
        <time>2022-08-16T08:45:30Z</time>
      </trkpt>
      <trkpt lat="45.74996" lon="6.5934">
        <ele>1118</ele>
        <time>2022-08-16T08:45:31Z</time>
      </trkpt>
      <trkpt lat="45.74997" lon="6.59343">
        <ele>1118</ele>
        <time>2022-08-16T08:45:32Z</time>
      </trkpt>
      <trkpt lat="45.74997" lon="6.59346">
        <ele>1118</ele>
        <time>2022-08-16T08:45:33Z</time>
      </trkpt>
      <trkpt lat="45.74997" lon="6.59348">
        <ele>1118</ele>
        <time>2022-08-16T08:45:34Z</time>
      </trkpt>
      <trkpt lat="45.74997" lon="6.59351">
        <ele>1118</ele>
        <time>2022-08-16T08:45:35Z</time>
      </trkpt>
      <trkpt lat="45.74997" lon="6.59353">
        <ele>1118</ele>
        <time>2022-08-16T08:45:36Z</time>
      </trkpt>
      <trkpt lat="45.74997" lon="6.59356">
        <ele>1117</ele>
        <time>2022-08-16T08:45:37Z</time>
      </trkpt>
      <trkpt lat="45.74997" lon="6.59359">
        <ele>1117</ele>
        <time>2022-08-16T08:45:38Z</time>
      </trkpt>
      <trkpt lat="45.74997" lon="6.59362">
        <ele>1117</ele>
        <time>2022-08-16T08:45:39Z</time>
      </trkpt>
      <trkpt lat="45.74997" lon="6.59364">
        <ele>1117</ele>
        <time>2022-08-16T08:45:40Z</time>
      </trkpt>
      <trkpt lat="45.74997" lon="6.59367">
        <ele>1117</ele>
        <time>2022-08-16T08:45:41Z</time>
      </trkpt>
      <trkpt lat="45.74997" lon="6.5937">
        <ele>1117</ele>
        <time>2022-08-16T08:45:42Z</time>
      </trkpt>
      <trkpt lat="45.74997" lon="6.59373">
        <ele>1118</ele>
        <time>2022-08-16T08:45:43Z</time>
      </trkpt>
      <trkpt lat="45.74998" lon="6.59376">
        <ele>1118</ele>
        <time>2022-08-16T08:45:44Z</time>
      </trkpt>
      <trkpt lat="45.74998" lon="6.59378">
        <ele>1118</ele>
        <time>2022-08-16T08:45:45Z</time>
      </trkpt>
      <trkpt lat="45.74999" lon="6.59381">
        <ele>1119</ele>
        <time>2022-08-16T08:45:46Z</time>
      </trkpt>
      <trkpt lat="45.74999" lon="6.59383">
        <ele>1119</ele>
        <time>2022-08-16T08:45:47Z</time>
      </trkpt>
      <trkpt lat="45.75" lon="6.59385">
        <ele>1120</ele>
        <time>2022-08-16T08:45:48Z</time>
      </trkpt>
      <trkpt lat="45.75001" lon="6.59387">
        <ele>1121</ele>
        <time>2022-08-16T08:45:49Z</time>
      </trkpt>
      <trkpt lat="45.75001" lon="6.59389">
        <ele>1121</ele>
        <time>2022-08-16T08:45:50Z</time>
      </trkpt>
      <trkpt lat="45.75002" lon="6.59391">
        <ele>1122</ele>
        <time>2022-08-16T08:45:51Z</time>
      </trkpt>
      <trkpt lat="45.75003" lon="6.59393">
        <ele>1122</ele>
        <time>2022-08-16T08:45:52Z</time>
      </trkpt>
      <trkpt lat="45.75005" lon="6.59396">
        <ele>1123</ele>
        <time>2022-08-16T08:45:53Z</time>
      </trkpt>
      <trkpt lat="45.75006" lon="6.59398">
        <ele>1123</ele>
        <time>2022-08-16T08:45:54Z</time>
      </trkpt>
      <trkpt lat="45.75008" lon="6.59401">
        <ele>1123</ele>
        <time>2022-08-16T08:45:55Z</time>
      </trkpt>
      <trkpt lat="45.7501" lon="6.59404">
        <ele>1123</ele>
        <time>2022-08-16T08:45:56Z</time>
      </trkpt>
      <trkpt lat="45.75011" lon="6.59407">
        <ele>1123</ele>
        <time>2022-08-16T08:45:57Z</time>
      </trkpt>
      <trkpt lat="45.75013" lon="6.59409">
        <ele>1124</ele>
        <time>2022-08-16T08:45:58Z</time>
      </trkpt>
      <trkpt lat="45.75014" lon="6.5941">
        <ele>1125</ele>
        <time>2022-08-16T08:45:59Z</time>
      </trkpt>
      <trkpt lat="45.75016" lon="6.59412">
        <ele>1125</ele>
        <time>2022-08-16T08:46:00Z</time>
      </trkpt>
      <trkpt lat="45.75018" lon="6.59413">
        <ele>1126</ele>
        <time>2022-08-16T08:46:01Z</time>
      </trkpt>
      <trkpt lat="45.7502" lon="6.59415">
        <ele>1126</ele>
        <time>2022-08-16T08:46:02Z</time>
      </trkpt>
      <trkpt lat="45.75021" lon="6.59417">
        <ele>1126</ele>
        <time>2022-08-16T08:46:03Z</time>
      </trkpt>
      <trkpt lat="45.75023" lon="6.59419">
        <ele>1127</ele>
        <time>2022-08-16T08:46:04Z</time>
      </trkpt>
      <trkpt lat="45.75024" lon="6.59421">
        <ele>1127</ele>
        <time>2022-08-16T08:46:05Z</time>
      </trkpt>
      <trkpt lat="45.75026" lon="6.59422">
        <ele>1128</ele>
        <time>2022-08-16T08:46:06Z</time>
      </trkpt>
      <trkpt lat="45.75028" lon="6.59424">
        <ele>1129</ele>
        <time>2022-08-16T08:46:07Z</time>
      </trkpt>
      <trkpt lat="45.75029" lon="6.59426">
        <ele>1129</ele>
        <time>2022-08-16T08:46:08Z</time>
      </trkpt>
      <trkpt lat="45.75031" lon="6.59428">
        <ele>1129</ele>
        <time>2022-08-16T08:46:09Z</time>
      </trkpt>
      <trkpt lat="45.75032" lon="6.5943">
        <ele>1129</ele>
        <time>2022-08-16T08:46:10Z</time>
      </trkpt>
      <trkpt lat="45.75034" lon="6.59432">
        <ele>1130</ele>
        <time>2022-08-16T08:46:11Z</time>
      </trkpt>
      <trkpt lat="45.75036" lon="6.59435">
        <ele>1130</ele>
        <time>2022-08-16T08:46:12Z</time>
      </trkpt>
      <trkpt lat="45.75037" lon="6.59438">
        <ele>1130</ele>
        <time>2022-08-16T08:46:13Z</time>
      </trkpt>
      <trkpt lat="45.75039" lon="6.59441">
        <ele>1131</ele>
        <time>2022-08-16T08:46:14Z</time>
      </trkpt>
      <trkpt lat="45.7504" lon="6.59443">
        <ele>1131</ele>
        <time>2022-08-16T08:46:15Z</time>
      </trkpt>
      <trkpt lat="45.7504" lon="6.59445">
        <ele>1132</ele>
        <time>2022-08-16T08:46:16Z</time>
      </trkpt>
      <trkpt lat="45.75041" lon="6.59448">
        <ele>1133</ele>
        <time>2022-08-16T08:46:17Z</time>
      </trkpt>
      <trkpt lat="45.75042" lon="6.59452">
        <ele>1133</ele>
        <time>2022-08-16T08:46:18Z</time>
      </trkpt>
      <trkpt lat="45.75042" lon="6.59455">
        <ele>1133</ele>
        <time>2022-08-16T08:46:19Z</time>
      </trkpt>
      <trkpt lat="45.75042" lon="6.59458">
        <ele>1133</ele>
        <time>2022-08-16T08:46:20Z</time>
      </trkpt>
      <trkpt lat="45.75042" lon="6.59461">
        <ele>1132</ele>
        <time>2022-08-16T08:46:21Z</time>
      </trkpt>
      <trkpt lat="45.75042" lon="6.59464">
        <ele>1132</ele>
        <time>2022-08-16T08:46:22Z</time>
      </trkpt>
      <trkpt lat="45.75042" lon="6.59467">
        <ele>1132</ele>
        <time>2022-08-16T08:46:23Z</time>
      </trkpt>
      <trkpt lat="45.75041" lon="6.5947">
        <ele>1132</ele>
        <time>2022-08-16T08:46:24Z</time>
      </trkpt>
      <trkpt lat="45.75041" lon="6.59473">
        <ele>1132</ele>
        <time>2022-08-16T08:46:25Z</time>
      </trkpt>
      <trkpt lat="45.7504" lon="6.59476">
        <ele>1131</ele>
        <time>2022-08-16T08:46:26Z</time>
      </trkpt>
      <trkpt lat="45.75039" lon="6.59479">
        <ele>1131</ele>
        <time>2022-08-16T08:46:27Z</time>
      </trkpt>
      <trkpt lat="45.75038" lon="6.59482">
        <ele>1131</ele>
        <time>2022-08-16T08:46:28Z</time>
      </trkpt>
      <trkpt lat="45.75037" lon="6.59484">
        <ele>1130</ele>
        <time>2022-08-16T08:46:29Z</time>
      </trkpt>
      <trkpt lat="45.75035" lon="6.59486">
        <ele>1130</ele>
        <time>2022-08-16T08:46:30Z</time>
      </trkpt>
      <trkpt lat="45.75033" lon="6.59489">
        <ele>1130</ele>
        <time>2022-08-16T08:46:31Z</time>
      </trkpt>
      <trkpt lat="45.75031" lon="6.59491">
        <ele>1130</ele>
        <time>2022-08-16T08:46:32Z</time>
      </trkpt>
      <trkpt lat="45.75029" lon="6.59494">
        <ele>1130</ele>
        <time>2022-08-16T08:46:33Z</time>
      </trkpt>
      <trkpt lat="45.75028" lon="6.59496">
        <ele>1130</ele>
        <time>2022-08-16T08:46:34Z</time>
      </trkpt>
      <trkpt lat="45.75026" lon="6.59499">
        <ele>1130</ele>
        <time>2022-08-16T08:46:35Z</time>
      </trkpt>
      <trkpt lat="45.75025" lon="6.59502">
        <ele>1130</ele>
        <time>2022-08-16T08:46:36Z</time>
      </trkpt>
      <trkpt lat="45.75024" lon="6.59505">
        <ele>1130</ele>
        <time>2022-08-16T08:46:37Z</time>
      </trkpt>
      <trkpt lat="45.75023" lon="6.59509">
        <ele>1131</ele>
        <time>2022-08-16T08:46:38Z</time>
      </trkpt>
      <trkpt lat="45.75022" lon="6.59512">
        <ele>1131</ele>
        <time>2022-08-16T08:46:39Z</time>
      </trkpt>
      <trkpt lat="45.75022" lon="6.59515">
        <ele>1132</ele>
        <time>2022-08-16T08:46:40Z</time>
      </trkpt>
      <trkpt lat="45.75021" lon="6.59518">
        <ele>1132</ele>
        <time>2022-08-16T08:46:41Z</time>
      </trkpt>
      <trkpt lat="45.75021" lon="6.59522">
        <ele>1132</ele>
        <time>2022-08-16T08:46:42Z</time>
      </trkpt>
      <trkpt lat="45.75021" lon="6.59525">
        <ele>1132</ele>
        <time>2022-08-16T08:46:43Z</time>
      </trkpt>
      <trkpt lat="45.75022" lon="6.59528">
        <ele>1131</ele>
        <time>2022-08-16T08:46:44Z</time>
      </trkpt>
      <trkpt lat="45.75023" lon="6.5953">
        <ele>1131</ele>
        <time>2022-08-16T08:46:45Z</time>
      </trkpt>
      <trkpt lat="45.75024" lon="6.59533">
        <ele>1131</ele>
        <time>2022-08-16T08:46:46Z</time>
      </trkpt>
      <trkpt lat="45.75025" lon="6.59535">
        <ele>1132</ele>
        <time>2022-08-16T08:46:47Z</time>
      </trkpt>
      <trkpt lat="45.75027" lon="6.59537">
        <ele>1132</ele>
        <time>2022-08-16T08:46:48Z</time>
      </trkpt>
      <trkpt lat="45.75029" lon="6.5954">
        <ele>1132</ele>
        <time>2022-08-16T08:46:49Z</time>
      </trkpt>
      <trkpt lat="45.75031" lon="6.59542">
        <ele>1133</ele>
        <time>2022-08-16T08:46:50Z</time>
      </trkpt>
      <trkpt lat="45.75033" lon="6.59544">
        <ele>1133</ele>
        <time>2022-08-16T08:46:51Z</time>
      </trkpt>
      <trkpt lat="45.75035" lon="6.59545">
        <ele>1133</ele>
        <time>2022-08-16T08:46:52Z</time>
      </trkpt>
      <trkpt lat="45.75037" lon="6.59547">
        <ele>1134</ele>
        <time>2022-08-16T08:46:53Z</time>
      </trkpt>
      <trkpt lat="45.75039" lon="6.59548">
        <ele>1134</ele>
        <time>2022-08-16T08:46:54Z</time>
      </trkpt>
      <trkpt lat="45.75041" lon="6.5955">
        <ele>1135</ele>
        <time>2022-08-16T08:46:55Z</time>
      </trkpt>
      <trkpt lat="45.75043" lon="6.59552">
        <ele>1135</ele>
        <time>2022-08-16T08:46:56Z</time>
      </trkpt>
      <trkpt lat="45.75045" lon="6.59554">
        <ele>1136</ele>
        <time>2022-08-16T08:46:57Z</time>
      </trkpt>
      <trkpt lat="45.75047" lon="6.59556">
        <ele>1136</ele>
        <time>2022-08-16T08:46:58Z</time>
      </trkpt>
      <trkpt lat="45.75049" lon="6.59557">
        <ele>1137</ele>
        <time>2022-08-16T08:46:59Z</time>
      </trkpt>
      <trkpt lat="45.75051" lon="6.59559">
        <ele>1137</ele>
        <time>2022-08-16T08:47:00Z</time>
      </trkpt>
      <trkpt lat="45.75053" lon="6.59561">
        <ele>1137</ele>
        <time>2022-08-16T08:47:01Z</time>
      </trkpt>
      <trkpt lat="45.75055" lon="6.59563">
        <ele>1137</ele>
        <time>2022-08-16T08:47:02Z</time>
      </trkpt>
      <trkpt lat="45.75057" lon="6.59565">
        <ele>1137</ele>
        <time>2022-08-16T08:47:03Z</time>
      </trkpt>
      <trkpt lat="45.75059" lon="6.59568">
        <ele>1137</ele>
        <time>2022-08-16T08:47:04Z</time>
      </trkpt>
      <trkpt lat="45.7506" lon="6.5957">
        <ele>1137</ele>
        <time>2022-08-16T08:47:05Z</time>
      </trkpt>
      <trkpt lat="45.75061" lon="6.59573">
        <ele>1137</ele>
        <time>2022-08-16T08:47:06Z</time>
      </trkpt>
      <trkpt lat="45.75063" lon="6.59575">
        <ele>1137</ele>
        <time>2022-08-16T08:47:07Z</time>
      </trkpt>
      <trkpt lat="45.75064" lon="6.59577">
        <ele>1138</ele>
        <time>2022-08-16T08:47:08Z</time>
      </trkpt>
      <trkpt lat="45.75066" lon="6.5958">
        <ele>1138</ele>
        <time>2022-08-16T08:47:09Z</time>
      </trkpt>
      <trkpt lat="45.75067" lon="6.59582">
        <ele>1138</ele>
        <time>2022-08-16T08:47:10Z</time>
      </trkpt>
      <trkpt lat="45.75069" lon="6.59584">
        <ele>1138</ele>
        <time>2022-08-16T08:47:11Z</time>
      </trkpt>
      <trkpt lat="45.7507" lon="6.59585">
        <ele>1138</ele>
        <time>2022-08-16T08:47:12Z</time>
      </trkpt>
      <trkpt lat="45.75072" lon="6.59588">
        <ele>1138</ele>
        <time>2022-08-16T08:47:13Z</time>
      </trkpt>
      <trkpt lat="45.75074" lon="6.59591">
        <ele>1138</ele>
        <time>2022-08-16T08:47:14Z</time>
      </trkpt>
      <trkpt lat="45.75075" lon="6.59594">
        <ele>1139</ele>
        <time>2022-08-16T08:47:15Z</time>
      </trkpt>
      <trkpt lat="45.75077" lon="6.59597">
        <ele>1139</ele>
        <time>2022-08-16T08:47:16Z</time>
      </trkpt>
      <trkpt lat="45.75078" lon="6.59599">
        <ele>1139</ele>
        <time>2022-08-16T08:47:17Z</time>
      </trkpt>
      <trkpt lat="45.7508" lon="6.59602">
        <ele>1139</ele>
        <time>2022-08-16T08:47:18Z</time>
      </trkpt>
      <trkpt lat="45.75082" lon="6.59606">
        <ele>1139</ele>
        <time>2022-08-16T08:47:19Z</time>
      </trkpt>
      <trkpt lat="45.75084" lon="6.59609">
        <ele>1139</ele>
        <time>2022-08-16T08:47:20Z</time>
      </trkpt>
      <trkpt lat="45.75086" lon="6.59611">
        <ele>1139</ele>
        <time>2022-08-16T08:47:21Z</time>
      </trkpt>
      <trkpt lat="45.75088" lon="6.59614">
        <ele>1139</ele>
        <time>2022-08-16T08:47:22Z</time>
      </trkpt>
      <trkpt lat="45.7509" lon="6.59617">
        <ele>1139</ele>
        <time>2022-08-16T08:47:23Z</time>
      </trkpt>
      <trkpt lat="45.75092" lon="6.5962">
        <ele>1138</ele>
        <time>2022-08-16T08:47:24Z</time>
      </trkpt>
      <trkpt lat="45.75094" lon="6.59622">
        <ele>1138</ele>
        <time>2022-08-16T08:47:25Z</time>
      </trkpt>
      <trkpt lat="45.75096" lon="6.59626">
        <ele>1139</ele>
        <time>2022-08-16T08:47:26Z</time>
      </trkpt>
      <trkpt lat="45.75098" lon="6.59628">
        <ele>1139</ele>
        <time>2022-08-16T08:47:27Z</time>
      </trkpt>
      <trkpt lat="45.75099" lon="6.59631">
        <ele>1139</ele>
        <time>2022-08-16T08:47:28Z</time>
      </trkpt>
      <trkpt lat="45.75101" lon="6.59634">
        <ele>1139</ele>
        <time>2022-08-16T08:47:29Z</time>
      </trkpt>
      <trkpt lat="45.75103" lon="6.59637">
        <ele>1139</ele>
        <time>2022-08-16T08:47:30Z</time>
      </trkpt>
      <trkpt lat="45.75104" lon="6.59639">
        <ele>1139</ele>
        <time>2022-08-16T08:47:31Z</time>
      </trkpt>
      <trkpt lat="45.75106" lon="6.59641">
        <ele>1138</ele>
        <time>2022-08-16T08:47:32Z</time>
      </trkpt>
      <trkpt lat="45.75107" lon="6.59644">
        <ele>1138</ele>
        <time>2022-08-16T08:47:33Z</time>
      </trkpt>
      <trkpt lat="45.75109" lon="6.59646">
        <ele>1139</ele>
        <time>2022-08-16T08:47:34Z</time>
      </trkpt>
      <trkpt lat="45.7511" lon="6.59648">
        <ele>1139</ele>
        <time>2022-08-16T08:47:35Z</time>
      </trkpt>
      <trkpt lat="45.75112" lon="6.59651">
        <ele>1140</ele>
        <time>2022-08-16T08:47:36Z</time>
      </trkpt>
      <trkpt lat="45.75114" lon="6.59653">
        <ele>1140</ele>
        <time>2022-08-16T08:47:37Z</time>
      </trkpt>
      <trkpt lat="45.75116" lon="6.59655">
        <ele>1140</ele>
        <time>2022-08-16T08:47:38Z</time>
      </trkpt>
      <trkpt lat="45.75118" lon="6.59657">
        <ele>1140</ele>
        <time>2022-08-16T08:47:39Z</time>
      </trkpt>
      <trkpt lat="45.75119" lon="6.59659">
        <ele>1140</ele>
        <time>2022-08-16T08:47:40Z</time>
      </trkpt>
      <trkpt lat="45.75121" lon="6.59662">
        <ele>1140</ele>
        <time>2022-08-16T08:47:41Z</time>
      </trkpt>
      <trkpt lat="45.75122" lon="6.59664">
        <ele>1141</ele>
        <time>2022-08-16T08:47:42Z</time>
      </trkpt>
      <trkpt lat="45.75123" lon="6.59666">
        <ele>1141</ele>
        <time>2022-08-16T08:47:43Z</time>
      </trkpt>
      <trkpt lat="45.75125" lon="6.59668">
        <ele>1142</ele>
        <time>2022-08-16T08:47:44Z</time>
      </trkpt>
      <trkpt lat="45.75127" lon="6.59671">
        <ele>1142</ele>
        <time>2022-08-16T08:47:45Z</time>
      </trkpt>
      <trkpt lat="45.75128" lon="6.59673">
        <ele>1142</ele>
        <time>2022-08-16T08:47:46Z</time>
      </trkpt>
      <trkpt lat="45.7513" lon="6.59676">
        <ele>1142</ele>
        <time>2022-08-16T08:47:47Z</time>
      </trkpt>
      <trkpt lat="45.75133" lon="6.59678">
        <ele>1141</ele>
        <time>2022-08-16T08:47:48Z</time>
      </trkpt>
      <trkpt lat="45.75135" lon="6.5968">
        <ele>1141</ele>
        <time>2022-08-16T08:47:49Z</time>
      </trkpt>
      <trkpt lat="45.75136" lon="6.59682">
        <ele>1141</ele>
        <time>2022-08-16T08:47:50Z</time>
      </trkpt>
      <trkpt lat="45.75138" lon="6.59684">
        <ele>1141</ele>
        <time>2022-08-16T08:47:51Z</time>
      </trkpt>
      <trkpt lat="45.7514" lon="6.59686">
        <ele>1141</ele>
        <time>2022-08-16T08:47:52Z</time>
      </trkpt>
      <trkpt lat="45.75142" lon="6.59688">
        <ele>1142</ele>
        <time>2022-08-16T08:47:53Z</time>
      </trkpt>
      <trkpt lat="45.75144" lon="6.5969">
        <ele>1142</ele>
        <time>2022-08-16T08:47:54Z</time>
      </trkpt>
      <trkpt lat="45.75146" lon="6.59693">
        <ele>1143</ele>
        <time>2022-08-16T08:47:55Z</time>
      </trkpt>
      <trkpt lat="45.75148" lon="6.59696">
        <ele>1142</ele>
        <time>2022-08-16T08:47:56Z</time>
      </trkpt>
      <trkpt lat="45.7515" lon="6.59698">
        <ele>1142</ele>
        <time>2022-08-16T08:47:57Z</time>
      </trkpt>
      <trkpt lat="45.75151" lon="6.59701">
        <ele>1142</ele>
        <time>2022-08-16T08:47:58Z</time>
      </trkpt>
      <trkpt lat="45.75153" lon="6.59704">
        <ele>1143</ele>
        <time>2022-08-16T08:47:59Z</time>
      </trkpt>
      <trkpt lat="45.75155" lon="6.59707">
        <ele>1143</ele>
        <time>2022-08-16T08:48:00Z</time>
      </trkpt>
      <trkpt lat="45.75157" lon="6.5971">
        <ele>1143</ele>
        <time>2022-08-16T08:48:01Z</time>
      </trkpt>
      <trkpt lat="45.75159" lon="6.59712">
        <ele>1143</ele>
        <time>2022-08-16T08:48:02Z</time>
      </trkpt>
      <trkpt lat="45.75161" lon="6.59715">
        <ele>1144</ele>
        <time>2022-08-16T08:48:03Z</time>
      </trkpt>
      <trkpt lat="45.75162" lon="6.59717">
        <ele>1144</ele>
        <time>2022-08-16T08:48:04Z</time>
      </trkpt>
      <trkpt lat="45.75164" lon="6.5972">
        <ele>1144</ele>
        <time>2022-08-16T08:48:05Z</time>
      </trkpt>
      <trkpt lat="45.75166" lon="6.59723">
        <ele>1143</ele>
        <time>2022-08-16T08:48:06Z</time>
      </trkpt>
      <trkpt lat="45.75167" lon="6.59725">
        <ele>1143</ele>
        <time>2022-08-16T08:48:07Z</time>
      </trkpt>
      <trkpt lat="45.75169" lon="6.59728">
        <ele>1143</ele>
        <time>2022-08-16T08:48:08Z</time>
      </trkpt>
      <trkpt lat="45.75171" lon="6.59731">
        <ele>1143</ele>
        <time>2022-08-16T08:48:09Z</time>
      </trkpt>
      <trkpt lat="45.75173" lon="6.59734">
        <ele>1143</ele>
        <time>2022-08-16T08:48:10Z</time>
      </trkpt>
      <trkpt lat="45.75174" lon="6.59736">
        <ele>1144</ele>
        <time>2022-08-16T08:48:11Z</time>
      </trkpt>
      <trkpt lat="45.75176" lon="6.59738">
        <ele>1144</ele>
        <time>2022-08-16T08:48:12Z</time>
      </trkpt>
      <trkpt lat="45.75177" lon="6.5974">
        <ele>1145</ele>
        <time>2022-08-16T08:48:13Z</time>
      </trkpt>
      <trkpt lat="45.75178" lon="6.59741">
        <ele>1145</ele>
        <time>2022-08-16T08:48:14Z</time>
      </trkpt>
      <trkpt lat="45.75179" lon="6.59742">
        <ele>1145</ele>
        <time>2022-08-16T08:48:15Z</time>
      </trkpt>
      <trkpt lat="45.7518" lon="6.59742">
        <ele>1145</ele>
        <time>2022-08-16T08:48:16Z</time>
      </trkpt>
      <trkpt lat="45.7518" lon="6.59742">
        <ele>1145</ele>
        <time>2022-08-16T08:48:17Z</time>
      </trkpt>
      <trkpt lat="45.75179" lon="6.59742">
        <ele>1145</ele>
        <time>2022-08-16T08:48:18Z</time>
      </trkpt>
      <trkpt lat="45.75179" lon="6.59742">
        <ele>1145</ele>
        <time>2022-08-16T08:48:19Z</time>
      </trkpt>
      <trkpt lat="45.75179" lon="6.59742">
        <ele>1146</ele>
        <time>2022-08-16T08:48:20Z</time>
      </trkpt>
      <trkpt lat="45.75179" lon="6.59742">
        <ele>1146</ele>
        <time>2022-08-16T08:48:24Z</time>
      </trkpt>
      <trkpt lat="45.75179" lon="6.59742">
        <ele>1146</ele>
        <time>2022-08-16T08:48:28Z</time>
      </trkpt>
      <trkpt lat="45.75179" lon="6.59742">
        <ele>1146</ele>
        <time>2022-08-16T08:48:32Z</time>
      </trkpt>
      <trkpt lat="45.75179" lon="6.59742">
        <ele>1146</ele>
        <time>2022-08-16T08:48:36Z</time>
      </trkpt>
      <trkpt lat="45.75179" lon="6.59742">
        <ele>1145</ele>
        <time>2022-08-16T08:48:37Z</time>
      </trkpt>
      <trkpt lat="45.75178" lon="6.59743">
        <ele>1145</ele>
        <time>2022-08-16T08:48:38Z</time>
      </trkpt>
      <trkpt lat="45.75178" lon="6.59743">
        <ele>1146</ele>
        <time>2022-08-16T08:48:39Z</time>
      </trkpt>
      <trkpt lat="45.75178" lon="6.59743">
        <ele>1146</ele>
        <time>2022-08-16T08:48:40Z</time>
      </trkpt>
      <trkpt lat="45.75178" lon="6.59743">
        <ele>1146</ele>
        <time>2022-08-16T08:48:41Z</time>
      </trkpt>
      <trkpt lat="45.75178" lon="6.59743">
        <ele>1146</ele>
        <time>2022-08-16T08:48:42Z</time>
      </trkpt>
      <trkpt lat="45.75178" lon="6.59743">
        <ele>1146</ele>
        <time>2022-08-16T08:48:46Z</time>
      </trkpt>
      <trkpt lat="45.75178" lon="6.59743">
        <ele>1146</ele>
        <time>2022-08-16T08:48:50Z</time>
      </trkpt>
      <trkpt lat="45.75178" lon="6.59743">
        <ele>1143</ele>
        <time>2022-08-16T08:48:52Z</time>
      </trkpt>
      <trkpt lat="45.7518" lon="6.59744">
        <ele>1143</ele>
        <time>2022-08-16T08:48:53Z</time>
      </trkpt>
      <trkpt lat="45.75181" lon="6.59746">
        <ele>1143</ele>
        <time>2022-08-16T08:48:54Z</time>
      </trkpt>
      <trkpt lat="45.75183" lon="6.59748">
        <ele>1143</ele>
        <time>2022-08-16T08:48:55Z</time>
      </trkpt>
      <trkpt lat="45.75185" lon="6.59749">
        <ele>1143</ele>
        <time>2022-08-16T08:48:56Z</time>
      </trkpt>
      <trkpt lat="45.75188" lon="6.59749">
        <ele>1144</ele>
        <time>2022-08-16T08:48:57Z</time>
      </trkpt>
      <trkpt lat="45.7519" lon="6.59751">
        <ele>1145</ele>
        <time>2022-08-16T08:48:58Z</time>
      </trkpt>
      <trkpt lat="45.75193" lon="6.59753">
        <ele>1145</ele>
        <time>2022-08-16T08:48:59Z</time>
      </trkpt>
      <trkpt lat="45.75196" lon="6.59755">
        <ele>1145</ele>
        <time>2022-08-16T08:49:00Z</time>
      </trkpt>
      <trkpt lat="45.75198" lon="6.59756">
        <ele>1146</ele>
        <time>2022-08-16T08:49:01Z</time>
      </trkpt>
      <trkpt lat="45.75201" lon="6.59759">
        <ele>1146</ele>
        <time>2022-08-16T08:49:02Z</time>
      </trkpt>
      <trkpt lat="45.75203" lon="6.5976">
        <ele>1147</ele>
        <time>2022-08-16T08:49:03Z</time>
      </trkpt>
      <trkpt lat="45.75205" lon="6.59762">
        <ele>1147</ele>
        <time>2022-08-16T08:49:04Z</time>
      </trkpt>
      <trkpt lat="45.75207" lon="6.59763">
        <ele>1147</ele>
        <time>2022-08-16T08:49:05Z</time>
      </trkpt>
      <trkpt lat="45.75209" lon="6.59765">
        <ele>1148</ele>
        <time>2022-08-16T08:49:06Z</time>
      </trkpt>
      <trkpt lat="45.75211" lon="6.59766">
        <ele>1149</ele>
        <time>2022-08-16T08:49:07Z</time>
      </trkpt>
      <trkpt lat="45.75213" lon="6.59767">
        <ele>1149</ele>
        <time>2022-08-16T08:49:08Z</time>
      </trkpt>
      <trkpt lat="45.75215" lon="6.59769">
        <ele>1150</ele>
        <time>2022-08-16T08:49:09Z</time>
      </trkpt>
      <trkpt lat="45.75217" lon="6.59771">
        <ele>1150</ele>
        <time>2022-08-16T08:49:10Z</time>
      </trkpt>
      <trkpt lat="45.75219" lon="6.59772">
        <ele>1151</ele>
        <time>2022-08-16T08:49:11Z</time>
      </trkpt>
      <trkpt lat="45.75221" lon="6.59774">
        <ele>1151</ele>
        <time>2022-08-16T08:49:12Z</time>
      </trkpt>
      <trkpt lat="45.75222" lon="6.59776">
        <ele>1151</ele>
        <time>2022-08-16T08:49:13Z</time>
      </trkpt>
      <trkpt lat="45.75224" lon="6.59778">
        <ele>1152</ele>
        <time>2022-08-16T08:49:14Z</time>
      </trkpt>
      <trkpt lat="45.75225" lon="6.5978">
        <ele>1152</ele>
        <time>2022-08-16T08:49:15Z</time>
      </trkpt>
      <trkpt lat="45.75226" lon="6.59783">
        <ele>1152</ele>
        <time>2022-08-16T08:49:16Z</time>
      </trkpt>
      <trkpt lat="45.75228" lon="6.59785">
        <ele>1153</ele>
        <time>2022-08-16T08:49:17Z</time>
      </trkpt>
      <trkpt lat="45.75229" lon="6.59787">
        <ele>1153</ele>
        <time>2022-08-16T08:49:18Z</time>
      </trkpt>
      <trkpt lat="45.7523" lon="6.59789">
        <ele>1154</ele>
        <time>2022-08-16T08:49:19Z</time>
      </trkpt>
      <trkpt lat="45.75231" lon="6.59792">
        <ele>1154</ele>
        <time>2022-08-16T08:49:20Z</time>
      </trkpt>
      <trkpt lat="45.75232" lon="6.59795">
        <ele>1155</ele>
        <time>2022-08-16T08:49:21Z</time>
      </trkpt>
      <trkpt lat="45.75233" lon="6.59798">
        <ele>1155</ele>
        <time>2022-08-16T08:49:22Z</time>
      </trkpt>
      <trkpt lat="45.75234" lon="6.598">
        <ele>1155</ele>
        <time>2022-08-16T08:49:23Z</time>
      </trkpt>
      <trkpt lat="45.75236" lon="6.59802">
        <ele>1155</ele>
        <time>2022-08-16T08:49:24Z</time>
      </trkpt>
      <trkpt lat="45.75237" lon="6.59805">
        <ele>1155</ele>
        <time>2022-08-16T08:49:25Z</time>
      </trkpt>
      <trkpt lat="45.75238" lon="6.59808">
        <ele>1155</ele>
        <time>2022-08-16T08:49:26Z</time>
      </trkpt>
      <trkpt lat="45.75239" lon="6.5981">
        <ele>1154</ele>
        <time>2022-08-16T08:49:27Z</time>
      </trkpt>
      <trkpt lat="45.7524" lon="6.59812">
        <ele>1154</ele>
        <time>2022-08-16T08:49:28Z</time>
      </trkpt>
      <trkpt lat="45.75242" lon="6.59815">
        <ele>1155</ele>
        <time>2022-08-16T08:49:29Z</time>
      </trkpt>
      <trkpt lat="45.75243" lon="6.59818">
        <ele>1155</ele>
        <time>2022-08-16T08:49:30Z</time>
      </trkpt>
      <trkpt lat="45.75244" lon="6.5982">
        <ele>1155</ele>
        <time>2022-08-16T08:49:31Z</time>
      </trkpt>
      <trkpt lat="45.75245" lon="6.59823">
        <ele>1155</ele>
        <time>2022-08-16T08:49:32Z</time>
      </trkpt>
      <trkpt lat="45.75246" lon="6.59826">
        <ele>1154</ele>
        <time>2022-08-16T08:49:33Z</time>
      </trkpt>
      <trkpt lat="45.75248" lon="6.59828">
        <ele>1155</ele>
        <time>2022-08-16T08:49:34Z</time>
      </trkpt>
      <trkpt lat="45.75249" lon="6.59831">
        <ele>1155</ele>
        <time>2022-08-16T08:49:35Z</time>
      </trkpt>
      <trkpt lat="45.7525" lon="6.59834">
        <ele>1156</ele>
        <time>2022-08-16T08:49:36Z</time>
      </trkpt>
      <trkpt lat="45.75251" lon="6.59836">
        <ele>1156</ele>
        <time>2022-08-16T08:49:37Z</time>
      </trkpt>
      <trkpt lat="45.75253" lon="6.59839">
        <ele>1156</ele>
        <time>2022-08-16T08:49:38Z</time>
      </trkpt>
      <trkpt lat="45.75254" lon="6.59841">
        <ele>1156</ele>
        <time>2022-08-16T08:49:39Z</time>
      </trkpt>
      <trkpt lat="45.75255" lon="6.59844">
        <ele>1156</ele>
        <time>2022-08-16T08:49:40Z</time>
      </trkpt>
      <trkpt lat="45.75256" lon="6.59847">
        <ele>1157</ele>
        <time>2022-08-16T08:49:41Z</time>
      </trkpt>
      <trkpt lat="45.75257" lon="6.5985">
        <ele>1156</ele>
        <time>2022-08-16T08:49:42Z</time>
      </trkpt>
      <trkpt lat="45.75258" lon="6.59854">
        <ele>1156</ele>
        <time>2022-08-16T08:49:43Z</time>
      </trkpt>
      <trkpt lat="45.75258" lon="6.59857">
        <ele>1157</ele>
        <time>2022-08-16T08:49:44Z</time>
      </trkpt>
      <trkpt lat="45.75259" lon="6.5986">
        <ele>1157</ele>
        <time>2022-08-16T08:49:45Z</time>
      </trkpt>
      <trkpt lat="45.7526" lon="6.59863">
        <ele>1158</ele>
        <time>2022-08-16T08:49:46Z</time>
      </trkpt>
      <trkpt lat="45.75261" lon="6.59866">
        <ele>1158</ele>
        <time>2022-08-16T08:49:47Z</time>
      </trkpt>
      <trkpt lat="45.75262" lon="6.59869">
        <ele>1159</ele>
        <time>2022-08-16T08:49:48Z</time>
      </trkpt>
      <trkpt lat="45.75262" lon="6.59872">
        <ele>1159</ele>
        <time>2022-08-16T08:49:49Z</time>
      </trkpt>
      <trkpt lat="45.75263" lon="6.59875">
        <ele>1159</ele>
        <time>2022-08-16T08:49:50Z</time>
      </trkpt>
      <trkpt lat="45.75264" lon="6.59877">
        <ele>1160</ele>
        <time>2022-08-16T08:49:51Z</time>
      </trkpt>
      <trkpt lat="45.75264" lon="6.5988">
        <ele>1160</ele>
        <time>2022-08-16T08:49:52Z</time>
      </trkpt>
      <trkpt lat="45.75265" lon="6.59883">
        <ele>1160</ele>
        <time>2022-08-16T08:49:53Z</time>
      </trkpt>
      <trkpt lat="45.75265" lon="6.59886">
        <ele>1160</ele>
        <time>2022-08-16T08:49:54Z</time>
      </trkpt>
      <trkpt lat="45.75266" lon="6.59889">
        <ele>1160</ele>
        <time>2022-08-16T08:49:55Z</time>
      </trkpt>
      <trkpt lat="45.75267" lon="6.59892">
        <ele>1160</ele>
        <time>2022-08-16T08:49:56Z</time>
      </trkpt>
      <trkpt lat="45.75268" lon="6.59894">
        <ele>1161</ele>
        <time>2022-08-16T08:49:57Z</time>
      </trkpt>
      <trkpt lat="45.75269" lon="6.59897">
        <ele>1161</ele>
        <time>2022-08-16T08:49:58Z</time>
      </trkpt>
      <trkpt lat="45.7527" lon="6.599">
        <ele>1162</ele>
        <time>2022-08-16T08:49:59Z</time>
      </trkpt>
      <trkpt lat="45.7527" lon="6.59902">
        <ele>1162</ele>
        <time>2022-08-16T08:50:00Z</time>
      </trkpt>
      <trkpt lat="45.75271" lon="6.59905">
        <ele>1163</ele>
        <time>2022-08-16T08:50:01Z</time>
      </trkpt>
      <trkpt lat="45.75272" lon="6.59907">
        <ele>1164</ele>
        <time>2022-08-16T08:50:02Z</time>
      </trkpt>
      <trkpt lat="45.75273" lon="6.59909">
        <ele>1164</ele>
        <time>2022-08-16T08:50:03Z</time>
      </trkpt>
      <trkpt lat="45.75274" lon="6.59912">
        <ele>1164</ele>
        <time>2022-08-16T08:50:04Z</time>
      </trkpt>
      <trkpt lat="45.75275" lon="6.59915">
        <ele>1165</ele>
        <time>2022-08-16T08:50:05Z</time>
      </trkpt>
      <trkpt lat="45.75277" lon="6.59918">
        <ele>1165</ele>
        <time>2022-08-16T08:50:06Z</time>
      </trkpt>
      <trkpt lat="45.75278" lon="6.59921">
        <ele>1166</ele>
        <time>2022-08-16T08:50:07Z</time>
      </trkpt>
      <trkpt lat="45.75279" lon="6.59924">
        <ele>1166</ele>
        <time>2022-08-16T08:50:08Z</time>
      </trkpt>
      <trkpt lat="45.7528" lon="6.59926">
        <ele>1167</ele>
        <time>2022-08-16T08:50:09Z</time>
      </trkpt>
      <trkpt lat="45.75282" lon="6.59929">
        <ele>1167</ele>
        <time>2022-08-16T08:50:10Z</time>
      </trkpt>
      <trkpt lat="45.75283" lon="6.59931">
        <ele>1168</ele>
        <time>2022-08-16T08:50:11Z</time>
      </trkpt>
      <trkpt lat="45.75284" lon="6.59934">
        <ele>1168</ele>
        <time>2022-08-16T08:50:12Z</time>
      </trkpt>
      <trkpt lat="45.75286" lon="6.59936">
        <ele>1168</ele>
        <time>2022-08-16T08:50:13Z</time>
      </trkpt>
      <trkpt lat="45.75287" lon="6.59938">
        <ele>1169</ele>
        <time>2022-08-16T08:50:14Z</time>
      </trkpt>
      <trkpt lat="45.75289" lon="6.59941">
        <ele>1169</ele>
        <time>2022-08-16T08:50:15Z</time>
      </trkpt>
      <trkpt lat="45.7529" lon="6.59944">
        <ele>1169</ele>
        <time>2022-08-16T08:50:16Z</time>
      </trkpt>
      <trkpt lat="45.75292" lon="6.59946">
        <ele>1169</ele>
        <time>2022-08-16T08:50:17Z</time>
      </trkpt>
      <trkpt lat="45.75293" lon="6.59949">
        <ele>1169</ele>
        <time>2022-08-16T08:50:18Z</time>
      </trkpt>
      <trkpt lat="45.75295" lon="6.59951">
        <ele>1169</ele>
        <time>2022-08-16T08:50:19Z</time>
      </trkpt>
      <trkpt lat="45.75296" lon="6.59954">
        <ele>1169</ele>
        <time>2022-08-16T08:50:20Z</time>
      </trkpt>
      <trkpt lat="45.75297" lon="6.59956">
        <ele>1169</ele>
        <time>2022-08-16T08:50:21Z</time>
      </trkpt>
      <trkpt lat="45.75299" lon="6.59957">
        <ele>1169</ele>
        <time>2022-08-16T08:50:22Z</time>
      </trkpt>
      <trkpt lat="45.753" lon="6.59959">
        <ele>1169</ele>
        <time>2022-08-16T08:50:23Z</time>
      </trkpt>
      <trkpt lat="45.753" lon="6.59961">
        <ele>1168</ele>
        <time>2022-08-16T08:50:24Z</time>
      </trkpt>
      <trkpt lat="45.75301" lon="6.59963">
        <ele>1168</ele>
        <time>2022-08-16T08:50:25Z</time>
      </trkpt>
      <trkpt lat="45.75303" lon="6.59966">
        <ele>1169</ele>
        <time>2022-08-16T08:50:26Z</time>
      </trkpt>
      <trkpt lat="45.75304" lon="6.59969">
        <ele>1169</ele>
        <time>2022-08-16T08:50:27Z</time>
      </trkpt>
      <trkpt lat="45.75307" lon="6.59971">
        <ele>1170</ele>
        <time>2022-08-16T08:50:28Z</time>
      </trkpt>
      <trkpt lat="45.75309" lon="6.59973">
        <ele>1170</ele>
        <time>2022-08-16T08:50:29Z</time>
      </trkpt>
      <trkpt lat="45.7531" lon="6.59976">
        <ele>1170</ele>
        <time>2022-08-16T08:50:30Z</time>
      </trkpt>
      <trkpt lat="45.75312" lon="6.59978">
        <ele>1170</ele>
        <time>2022-08-16T08:50:31Z</time>
      </trkpt>
      <trkpt lat="45.75314" lon="6.59981">
        <ele>1170</ele>
        <time>2022-08-16T08:50:32Z</time>
      </trkpt>
      <trkpt lat="45.75316" lon="6.59983">
        <ele>1170</ele>
        <time>2022-08-16T08:50:33Z</time>
      </trkpt>
      <trkpt lat="45.75318" lon="6.59986">
        <ele>1170</ele>
        <time>2022-08-16T08:50:34Z</time>
      </trkpt>
      <trkpt lat="45.75319" lon="6.59988">
        <ele>1169</ele>
        <time>2022-08-16T08:50:35Z</time>
      </trkpt>
      <trkpt lat="45.75321" lon="6.59991">
        <ele>1170</ele>
        <time>2022-08-16T08:50:36Z</time>
      </trkpt>
      <trkpt lat="45.75322" lon="6.59994">
        <ele>1170</ele>
        <time>2022-08-16T08:50:37Z</time>
      </trkpt>
      <trkpt lat="45.75323" lon="6.59997">
        <ele>1170</ele>
        <time>2022-08-16T08:50:38Z</time>
      </trkpt>
      <trkpt lat="45.75325" lon="6.6">
        <ele>1171</ele>
        <time>2022-08-16T08:50:39Z</time>
      </trkpt>
      <trkpt lat="45.75326" lon="6.60003">
        <ele>1171</ele>
        <time>2022-08-16T08:50:40Z</time>
      </trkpt>
      <trkpt lat="45.75328" lon="6.60006">
        <ele>1171</ele>
        <time>2022-08-16T08:50:41Z</time>
      </trkpt>
      <trkpt lat="45.7533" lon="6.60009">
        <ele>1171</ele>
        <time>2022-08-16T08:50:42Z</time>
      </trkpt>
      <trkpt lat="45.75331" lon="6.60011">
        <ele>1172</ele>
        <time>2022-08-16T08:50:43Z</time>
      </trkpt>
      <trkpt lat="45.75332" lon="6.60014">
        <ele>1172</ele>
        <time>2022-08-16T08:50:44Z</time>
      </trkpt>
      <trkpt lat="45.75334" lon="6.60017">
        <ele>1173</ele>
        <time>2022-08-16T08:50:45Z</time>
      </trkpt>
      <trkpt lat="45.75335" lon="6.60019">
        <ele>1173</ele>
        <time>2022-08-16T08:50:46Z</time>
      </trkpt>
      <trkpt lat="45.75337" lon="6.60022">
        <ele>1174</ele>
        <time>2022-08-16T08:50:47Z</time>
      </trkpt>
      <trkpt lat="45.75339" lon="6.60025">
        <ele>1174</ele>
        <time>2022-08-16T08:50:48Z</time>
      </trkpt>
      <trkpt lat="45.7534" lon="6.60027">
        <ele>1174</ele>
        <time>2022-08-16T08:50:49Z</time>
      </trkpt>
      <trkpt lat="45.75342" lon="6.6003">
        <ele>1174</ele>
        <time>2022-08-16T08:50:50Z</time>
      </trkpt>
      <trkpt lat="45.75343" lon="6.60033">
        <ele>1174</ele>
        <time>2022-08-16T08:50:51Z</time>
      </trkpt>
      <trkpt lat="45.75345" lon="6.60035">
        <ele>1175</ele>
        <time>2022-08-16T08:50:52Z</time>
      </trkpt>
      <trkpt lat="45.75346" lon="6.60038">
        <ele>1175</ele>
        <time>2022-08-16T08:50:53Z</time>
      </trkpt>
      <trkpt lat="45.75348" lon="6.60041">
        <ele>1175</ele>
        <time>2022-08-16T08:50:54Z</time>
      </trkpt>
      <trkpt lat="45.75349" lon="6.60043">
        <ele>1175</ele>
        <time>2022-08-16T08:50:55Z</time>
      </trkpt>
      <trkpt lat="45.7535" lon="6.60046">
        <ele>1174</ele>
        <time>2022-08-16T08:50:56Z</time>
      </trkpt>
      <trkpt lat="45.75351" lon="6.6005">
        <ele>1174</ele>
        <time>2022-08-16T08:50:57Z</time>
      </trkpt>
      <trkpt lat="45.75352" lon="6.60052">
        <ele>1174</ele>
        <time>2022-08-16T08:50:58Z</time>
      </trkpt>
      <trkpt lat="45.75353" lon="6.60054">
        <ele>1174</ele>
        <time>2022-08-16T08:50:59Z</time>
      </trkpt>
      <trkpt lat="45.75353" lon="6.60056">
        <ele>1174</ele>
        <time>2022-08-16T08:51:00Z</time>
      </trkpt>
      <trkpt lat="45.75353" lon="6.60058">
        <ele>1174</ele>
        <time>2022-08-16T08:51:01Z</time>
      </trkpt>
      <trkpt lat="45.75354" lon="6.6006">
        <ele>1175</ele>
        <time>2022-08-16T08:51:02Z</time>
      </trkpt>
      <trkpt lat="45.75354" lon="6.60063">
        <ele>1176</ele>
        <time>2022-08-16T08:51:03Z</time>
      </trkpt>
      <trkpt lat="45.75354" lon="6.60066">
        <ele>1178</ele>
        <time>2022-08-16T08:51:04Z</time>
      </trkpt>
      <trkpt lat="45.75354" lon="6.60068">
        <ele>1178</ele>
        <time>2022-08-16T08:51:05Z</time>
      </trkpt>
      <trkpt lat="45.75355" lon="6.60071">
        <ele>1179</ele>
        <time>2022-08-16T08:51:06Z</time>
      </trkpt>
      <trkpt lat="45.75356" lon="6.60073">
        <ele>1179</ele>
        <time>2022-08-16T08:51:07Z</time>
      </trkpt>
      <trkpt lat="45.75357" lon="6.60076">
        <ele>1179</ele>
        <time>2022-08-16T08:51:08Z</time>
      </trkpt>
      <trkpt lat="45.75358" lon="6.60079">
        <ele>1179</ele>
        <time>2022-08-16T08:51:09Z</time>
      </trkpt>
      <trkpt lat="45.75359" lon="6.60082">
        <ele>1179</ele>
        <time>2022-08-16T08:51:10Z</time>
      </trkpt>
      <trkpt lat="45.75361" lon="6.60084">
        <ele>1179</ele>
        <time>2022-08-16T08:51:11Z</time>
      </trkpt>
      <trkpt lat="45.75362" lon="6.60087">
        <ele>1179</ele>
        <time>2022-08-16T08:51:12Z</time>
      </trkpt>
      <trkpt lat="45.75363" lon="6.6009">
        <ele>1180</ele>
        <time>2022-08-16T08:51:13Z</time>
      </trkpt>
      <trkpt lat="45.75364" lon="6.60093">
        <ele>1180</ele>
        <time>2022-08-16T08:51:14Z</time>
      </trkpt>
      <trkpt lat="45.75365" lon="6.60096">
        <ele>1180</ele>
        <time>2022-08-16T08:51:15Z</time>
      </trkpt>
      <trkpt lat="45.75366" lon="6.60099">
        <ele>1181</ele>
        <time>2022-08-16T08:51:16Z</time>
      </trkpt>
      <trkpt lat="45.75366" lon="6.60102">
        <ele>1181</ele>
        <time>2022-08-16T08:51:17Z</time>
      </trkpt>
      <trkpt lat="45.75368" lon="6.60105">
        <ele>1181</ele>
        <time>2022-08-16T08:51:18Z</time>
      </trkpt>
      <trkpt lat="45.75369" lon="6.60108">
        <ele>1181</ele>
        <time>2022-08-16T08:51:19Z</time>
      </trkpt>
      <trkpt lat="45.75371" lon="6.60111">
        <ele>1182</ele>
        <time>2022-08-16T08:51:20Z</time>
      </trkpt>
      <trkpt lat="45.75373" lon="6.60113">
        <ele>1182</ele>
        <time>2022-08-16T08:51:21Z</time>
      </trkpt>
      <trkpt lat="45.75374" lon="6.60116">
        <ele>1182</ele>
        <time>2022-08-16T08:51:22Z</time>
      </trkpt>
      <trkpt lat="45.75376" lon="6.60118">
        <ele>1182</ele>
        <time>2022-08-16T08:51:23Z</time>
      </trkpt>
      <trkpt lat="45.75377" lon="6.60121">
        <ele>1183</ele>
        <time>2022-08-16T08:51:24Z</time>
      </trkpt>
      <trkpt lat="45.75379" lon="6.60123">
        <ele>1183</ele>
        <time>2022-08-16T08:51:25Z</time>
      </trkpt>
      <trkpt lat="45.7538" lon="6.60125">
        <ele>1183</ele>
        <time>2022-08-16T08:51:26Z</time>
      </trkpt>
      <trkpt lat="45.75382" lon="6.60128">
        <ele>1183</ele>
        <time>2022-08-16T08:51:27Z</time>
      </trkpt>
      <trkpt lat="45.75383" lon="6.6013">
        <ele>1183</ele>
        <time>2022-08-16T08:51:28Z</time>
      </trkpt>
      <trkpt lat="45.75384" lon="6.60133">
        <ele>1184</ele>
        <time>2022-08-16T08:51:29Z</time>
      </trkpt>
      <trkpt lat="45.75385" lon="6.60136">
        <ele>1184</ele>
        <time>2022-08-16T08:51:30Z</time>
      </trkpt>
      <trkpt lat="45.75387" lon="6.60138">
        <ele>1184</ele>
        <time>2022-08-16T08:51:31Z</time>
      </trkpt>
      <trkpt lat="45.75388" lon="6.60141">
        <ele>1184</ele>
        <time>2022-08-16T08:51:32Z</time>
      </trkpt>
      <trkpt lat="45.75389" lon="6.60143">
        <ele>1184</ele>
        <time>2022-08-16T08:51:33Z</time>
      </trkpt>
      <trkpt lat="45.7539" lon="6.60146">
        <ele>1185</ele>
        <time>2022-08-16T08:51:34Z</time>
      </trkpt>
      <trkpt lat="45.75392" lon="6.60148">
        <ele>1185</ele>
        <time>2022-08-16T08:51:35Z</time>
      </trkpt>
      <trkpt lat="45.75393" lon="6.6015">
        <ele>1185</ele>
        <time>2022-08-16T08:51:36Z</time>
      </trkpt>
      <trkpt lat="45.75394" lon="6.60153">
        <ele>1185</ele>
        <time>2022-08-16T08:51:37Z</time>
      </trkpt>
      <trkpt lat="45.75395" lon="6.60155">
        <ele>1185</ele>
        <time>2022-08-16T08:51:38Z</time>
      </trkpt>
      <trkpt lat="45.75396" lon="6.60158">
        <ele>1185</ele>
        <time>2022-08-16T08:51:39Z</time>
      </trkpt>
      <trkpt lat="45.75398" lon="6.6016">
        <ele>1185</ele>
        <time>2022-08-16T08:51:40Z</time>
      </trkpt>
      <trkpt lat="45.75399" lon="6.60162">
        <ele>1185</ele>
        <time>2022-08-16T08:51:41Z</time>
      </trkpt>
      <trkpt lat="45.754" lon="6.60164">
        <ele>1186</ele>
        <time>2022-08-16T08:51:42Z</time>
      </trkpt>
      <trkpt lat="45.75401" lon="6.60167">
        <ele>1187</ele>
        <time>2022-08-16T08:51:43Z</time>
      </trkpt>
      <trkpt lat="45.75402" lon="6.60169">
        <ele>1187</ele>
        <time>2022-08-16T08:51:44Z</time>
      </trkpt>
      <trkpt lat="45.75403" lon="6.60172">
        <ele>1187</ele>
        <time>2022-08-16T08:51:45Z</time>
      </trkpt>
      <trkpt lat="45.75404" lon="6.60175">
        <ele>1187</ele>
        <time>2022-08-16T08:51:46Z</time>
      </trkpt>
      <trkpt lat="45.75405" lon="6.60177">
        <ele>1187</ele>
        <time>2022-08-16T08:51:47Z</time>
      </trkpt>
      <trkpt lat="45.75407" lon="6.6018">
        <ele>1188</ele>
        <time>2022-08-16T08:51:48Z</time>
      </trkpt>
      <trkpt lat="45.75408" lon="6.60183">
        <ele>1188</ele>
        <time>2022-08-16T08:51:49Z</time>
      </trkpt>
      <trkpt lat="45.75409" lon="6.60185">
        <ele>1188</ele>
        <time>2022-08-16T08:51:50Z</time>
      </trkpt>
      <trkpt lat="45.7541" lon="6.60188">
        <ele>1188</ele>
        <time>2022-08-16T08:51:51Z</time>
      </trkpt>
      <trkpt lat="45.75411" lon="6.6019">
        <ele>1188</ele>
        <time>2022-08-16T08:51:52Z</time>
      </trkpt>
      <trkpt lat="45.75412" lon="6.60192">
        <ele>1188</ele>
        <time>2022-08-16T08:51:53Z</time>
      </trkpt>
      <trkpt lat="45.75413" lon="6.60195">
        <ele>1188</ele>
        <time>2022-08-16T08:51:54Z</time>
      </trkpt>
      <trkpt lat="45.75414" lon="6.60198">
        <ele>1189</ele>
        <time>2022-08-16T08:51:55Z</time>
      </trkpt>
      <trkpt lat="45.75415" lon="6.602">
        <ele>1189</ele>
        <time>2022-08-16T08:51:56Z</time>
      </trkpt>
      <trkpt lat="45.75416" lon="6.60203">
        <ele>1189</ele>
        <time>2022-08-16T08:51:57Z</time>
      </trkpt>
      <trkpt lat="45.75417" lon="6.60206">
        <ele>1189</ele>
        <time>2022-08-16T08:51:58Z</time>
      </trkpt>
      <trkpt lat="45.75417" lon="6.60208">
        <ele>1189</ele>
        <time>2022-08-16T08:51:59Z</time>
      </trkpt>
      <trkpt lat="45.75418" lon="6.60211">
        <ele>1190</ele>
        <time>2022-08-16T08:52:00Z</time>
      </trkpt>
      <trkpt lat="45.75419" lon="6.60214">
        <ele>1190</ele>
        <time>2022-08-16T08:52:01Z</time>
      </trkpt>
      <trkpt lat="45.75419" lon="6.60217">
        <ele>1190</ele>
        <time>2022-08-16T08:52:02Z</time>
      </trkpt>
      <trkpt lat="45.7542" lon="6.6022">
        <ele>1189</ele>
        <time>2022-08-16T08:52:03Z</time>
      </trkpt>
      <trkpt lat="45.75421" lon="6.60223">
        <ele>1190</ele>
        <time>2022-08-16T08:52:04Z</time>
      </trkpt>
      <trkpt lat="45.75422" lon="6.60225">
        <ele>1190</ele>
        <time>2022-08-16T08:52:05Z</time>
      </trkpt>
      <trkpt lat="45.75423" lon="6.60228">
        <ele>1190</ele>
        <time>2022-08-16T08:52:06Z</time>
      </trkpt>
      <trkpt lat="45.75423" lon="6.60232">
        <ele>1190</ele>
        <time>2022-08-16T08:52:07Z</time>
      </trkpt>
      <trkpt lat="45.75424" lon="6.60235">
        <ele>1190</ele>
        <time>2022-08-16T08:52:08Z</time>
      </trkpt>
      <trkpt lat="45.75425" lon="6.60238">
        <ele>1190</ele>
        <time>2022-08-16T08:52:09Z</time>
      </trkpt>
      <trkpt lat="45.75426" lon="6.60241">
        <ele>1191</ele>
        <time>2022-08-16T08:52:10Z</time>
      </trkpt>
      <trkpt lat="45.75427" lon="6.60245">
        <ele>1191</ele>
        <time>2022-08-16T08:52:11Z</time>
      </trkpt>
      <trkpt lat="45.75428" lon="6.60249">
        <ele>1191</ele>
        <time>2022-08-16T08:52:12Z</time>
      </trkpt>
      <trkpt lat="45.75429" lon="6.60252">
        <ele>1191</ele>
        <time>2022-08-16T08:52:13Z</time>
      </trkpt>
      <trkpt lat="45.7543" lon="6.60255">
        <ele>1191</ele>
        <time>2022-08-16T08:52:14Z</time>
      </trkpt>
      <trkpt lat="45.75431" lon="6.60258">
        <ele>1191</ele>
        <time>2022-08-16T08:52:15Z</time>
      </trkpt>
      <trkpt lat="45.75432" lon="6.60261">
        <ele>1191</ele>
        <time>2022-08-16T08:52:16Z</time>
      </trkpt>
      <trkpt lat="45.75433" lon="6.60265">
        <ele>1191</ele>
        <time>2022-08-16T08:52:17Z</time>
      </trkpt>
      <trkpt lat="45.75434" lon="6.60268">
        <ele>1191</ele>
        <time>2022-08-16T08:52:18Z</time>
      </trkpt>
      <trkpt lat="45.75435" lon="6.60271">
        <ele>1191</ele>
        <time>2022-08-16T08:52:19Z</time>
      </trkpt>
      <trkpt lat="45.75437" lon="6.60274">
        <ele>1191</ele>
        <time>2022-08-16T08:52:20Z</time>
      </trkpt>
      <trkpt lat="45.75438" lon="6.60277">
        <ele>1191</ele>
        <time>2022-08-16T08:52:21Z</time>
      </trkpt>
      <trkpt lat="45.75439" lon="6.6028">
        <ele>1191</ele>
        <time>2022-08-16T08:52:22Z</time>
      </trkpt>
      <trkpt lat="45.7544" lon="6.60283">
        <ele>1191</ele>
        <time>2022-08-16T08:52:23Z</time>
      </trkpt>
      <trkpt lat="45.75441" lon="6.60285">
        <ele>1191</ele>
        <time>2022-08-16T08:52:24Z</time>
      </trkpt>
      <trkpt lat="45.75442" lon="6.60288">
        <ele>1191</ele>
        <time>2022-08-16T08:52:25Z</time>
      </trkpt>
      <trkpt lat="45.75443" lon="6.60291">
        <ele>1191</ele>
        <time>2022-08-16T08:52:26Z</time>
      </trkpt>
      <trkpt lat="45.75444" lon="6.60294">
        <ele>1191</ele>
        <time>2022-08-16T08:52:27Z</time>
      </trkpt>
      <trkpt lat="45.75444" lon="6.60297">
        <ele>1191</ele>
        <time>2022-08-16T08:52:28Z</time>
      </trkpt>
      <trkpt lat="45.75445" lon="6.603">
        <ele>1191</ele>
        <time>2022-08-16T08:52:29Z</time>
      </trkpt>
      <trkpt lat="45.75446" lon="6.60303">
        <ele>1192</ele>
        <time>2022-08-16T08:52:30Z</time>
      </trkpt>
      <trkpt lat="45.75448" lon="6.60305">
        <ele>1192</ele>
        <time>2022-08-16T08:52:31Z</time>
      </trkpt>
      <trkpt lat="45.7545" lon="6.60308">
        <ele>1192</ele>
        <time>2022-08-16T08:52:32Z</time>
      </trkpt>
      <trkpt lat="45.75451" lon="6.60311">
        <ele>1191</ele>
        <time>2022-08-16T08:52:33Z</time>
      </trkpt>
      <trkpt lat="45.75452" lon="6.60313">
        <ele>1191</ele>
        <time>2022-08-16T08:52:34Z</time>
      </trkpt>
      <trkpt lat="45.75454" lon="6.60316">
        <ele>1191</ele>
        <time>2022-08-16T08:52:35Z</time>
      </trkpt>
      <trkpt lat="45.75456" lon="6.60318">
        <ele>1191</ele>
        <time>2022-08-16T08:52:36Z</time>
      </trkpt>
      <trkpt lat="45.75457" lon="6.6032">
        <ele>1191</ele>
        <time>2022-08-16T08:52:37Z</time>
      </trkpt>
      <trkpt lat="45.75459" lon="6.60323">
        <ele>1191</ele>
        <time>2022-08-16T08:52:38Z</time>
      </trkpt>
      <trkpt lat="45.7546" lon="6.60325">
        <ele>1192</ele>
        <time>2022-08-16T08:52:39Z</time>
      </trkpt>
      <trkpt lat="45.75462" lon="6.60328">
        <ele>1191</ele>
        <time>2022-08-16T08:52:40Z</time>
      </trkpt>
      <trkpt lat="45.75464" lon="6.6033">
        <ele>1192</ele>
        <time>2022-08-16T08:52:41Z</time>
      </trkpt>
      <trkpt lat="45.75465" lon="6.60333">
        <ele>1192</ele>
        <time>2022-08-16T08:52:42Z</time>
      </trkpt>
      <trkpt lat="45.75466" lon="6.60335">
        <ele>1191</ele>
        <time>2022-08-16T08:52:43Z</time>
      </trkpt>
      <trkpt lat="45.75468" lon="6.60338">
        <ele>1192</ele>
        <time>2022-08-16T08:52:44Z</time>
      </trkpt>
      <trkpt lat="45.75469" lon="6.60341">
        <ele>1192</ele>
        <time>2022-08-16T08:52:45Z</time>
      </trkpt>
      <trkpt lat="45.7547" lon="6.60344">
        <ele>1192</ele>
        <time>2022-08-16T08:52:46Z</time>
      </trkpt>
      <trkpt lat="45.75472" lon="6.60346">
        <ele>1192</ele>
        <time>2022-08-16T08:52:47Z</time>
      </trkpt>
      <trkpt lat="45.75473" lon="6.6035">
        <ele>1192</ele>
        <time>2022-08-16T08:52:48Z</time>
      </trkpt>
      <trkpt lat="45.75474" lon="6.60352">
        <ele>1192</ele>
        <time>2022-08-16T08:52:49Z</time>
      </trkpt>
      <trkpt lat="45.75475" lon="6.60356">
        <ele>1193</ele>
        <time>2022-08-16T08:52:50Z</time>
      </trkpt>
      <trkpt lat="45.75475" lon="6.6036">
        <ele>1193</ele>
        <time>2022-08-16T08:52:51Z</time>
      </trkpt>
      <trkpt lat="45.75476" lon="6.60363">
        <ele>1192</ele>
        <time>2022-08-16T08:52:52Z</time>
      </trkpt>
      <trkpt lat="45.75477" lon="6.60367">
        <ele>1193</ele>
        <time>2022-08-16T08:52:53Z</time>
      </trkpt>
      <trkpt lat="45.75477" lon="6.6037">
        <ele>1192</ele>
        <time>2022-08-16T08:52:54Z</time>
      </trkpt>
      <trkpt lat="45.75478" lon="6.60374">
        <ele>1192</ele>
        <time>2022-08-16T08:52:55Z</time>
      </trkpt>
      <trkpt lat="45.75479" lon="6.60377">
        <ele>1193</ele>
        <time>2022-08-16T08:52:56Z</time>
      </trkpt>
      <trkpt lat="45.7548" lon="6.60381">
        <ele>1193</ele>
        <time>2022-08-16T08:52:57Z</time>
      </trkpt>
      <trkpt lat="45.75481" lon="6.60384">
        <ele>1193</ele>
        <time>2022-08-16T08:52:58Z</time>
      </trkpt>
      <trkpt lat="45.75482" lon="6.60387">
        <ele>1193</ele>
        <time>2022-08-16T08:52:59Z</time>
      </trkpt>
      <trkpt lat="45.75483" lon="6.60391">
        <ele>1193</ele>
        <time>2022-08-16T08:53:00Z</time>
      </trkpt>
      <trkpt lat="45.75484" lon="6.60394">
        <ele>1193</ele>
        <time>2022-08-16T08:53:01Z</time>
      </trkpt>
      <trkpt lat="45.75485" lon="6.60398">
        <ele>1193</ele>
        <time>2022-08-16T08:53:02Z</time>
      </trkpt>
      <trkpt lat="45.75486" lon="6.60401">
        <ele>1193</ele>
        <time>2022-08-16T08:53:03Z</time>
      </trkpt>
      <trkpt lat="45.75488" lon="6.60404">
        <ele>1193</ele>
        <time>2022-08-16T08:53:04Z</time>
      </trkpt>
      <trkpt lat="45.75489" lon="6.60408">
        <ele>1192</ele>
        <time>2022-08-16T08:53:05Z</time>
      </trkpt>
      <trkpt lat="45.7549" lon="6.60411">
        <ele>1192</ele>
        <time>2022-08-16T08:53:06Z</time>
      </trkpt>
      <trkpt lat="45.75491" lon="6.60415">
        <ele>1192</ele>
        <time>2022-08-16T08:53:07Z</time>
      </trkpt>
      <trkpt lat="45.75492" lon="6.60418">
        <ele>1192</ele>
        <time>2022-08-16T08:53:08Z</time>
      </trkpt>
      <trkpt lat="45.75493" lon="6.60422">
        <ele>1192</ele>
        <time>2022-08-16T08:53:09Z</time>
      </trkpt>
      <trkpt lat="45.75495" lon="6.60426">
        <ele>1193</ele>
        <time>2022-08-16T08:53:10Z</time>
      </trkpt>
      <trkpt lat="45.75496" lon="6.60429">
        <ele>1193</ele>
        <time>2022-08-16T08:53:11Z</time>
      </trkpt>
      <trkpt lat="45.75497" lon="6.60433">
        <ele>1193</ele>
        <time>2022-08-16T08:53:12Z</time>
      </trkpt>
      <trkpt lat="45.75499" lon="6.60437">
        <ele>1193</ele>
        <time>2022-08-16T08:53:13Z</time>
      </trkpt>
      <trkpt lat="45.755" lon="6.60441">
        <ele>1193</ele>
        <time>2022-08-16T08:53:14Z</time>
      </trkpt>
      <trkpt lat="45.75501" lon="6.60445">
        <ele>1193</ele>
        <time>2022-08-16T08:53:15Z</time>
      </trkpt>
      <trkpt lat="45.75503" lon="6.60449">
        <ele>1193</ele>
        <time>2022-08-16T08:53:16Z</time>
      </trkpt>
      <trkpt lat="45.75504" lon="6.60454">
        <ele>1193</ele>
        <time>2022-08-16T08:53:17Z</time>
      </trkpt>
      <trkpt lat="45.75505" lon="6.60458">
        <ele>1194</ele>
        <time>2022-08-16T08:53:18Z</time>
      </trkpt>
      <trkpt lat="45.75506" lon="6.60461">
        <ele>1195</ele>
        <time>2022-08-16T08:53:19Z</time>
      </trkpt>
      <trkpt lat="45.75507" lon="6.60465">
        <ele>1195</ele>
        <time>2022-08-16T08:53:20Z</time>
      </trkpt>
      <trkpt lat="45.75509" lon="6.6047">
        <ele>1195</ele>
        <time>2022-08-16T08:53:21Z</time>
      </trkpt>
      <trkpt lat="45.7551" lon="6.60474">
        <ele>1195</ele>
        <time>2022-08-16T08:53:22Z</time>
      </trkpt>
      <trkpt lat="45.75511" lon="6.60479">
        <ele>1195</ele>
        <time>2022-08-16T08:53:23Z</time>
      </trkpt>
      <trkpt lat="45.75512" lon="6.60484">
        <ele>1195</ele>
        <time>2022-08-16T08:53:24Z</time>
      </trkpt>
      <trkpt lat="45.75513" lon="6.60488">
        <ele>1195</ele>
        <time>2022-08-16T08:53:25Z</time>
      </trkpt>
      <trkpt lat="45.75513" lon="6.60493">
        <ele>1195</ele>
        <time>2022-08-16T08:53:26Z</time>
      </trkpt>
      <trkpt lat="45.75514" lon="6.60497">
        <ele>1195</ele>
        <time>2022-08-16T08:53:27Z</time>
      </trkpt>
      <trkpt lat="45.75514" lon="6.60501">
        <ele>1195</ele>
        <time>2022-08-16T08:53:28Z</time>
      </trkpt>
      <trkpt lat="45.75515" lon="6.60505">
        <ele>1196</ele>
        <time>2022-08-16T08:53:29Z</time>
      </trkpt>
      <trkpt lat="45.75515" lon="6.60508">
        <ele>1196</ele>
        <time>2022-08-16T08:53:30Z</time>
      </trkpt>
      <trkpt lat="45.75515" lon="6.60511">
        <ele>1197</ele>
        <time>2022-08-16T08:53:31Z</time>
      </trkpt>
      <trkpt lat="45.75515" lon="6.60515">
        <ele>1197</ele>
        <time>2022-08-16T08:53:32Z</time>
      </trkpt>
      <trkpt lat="45.75514" lon="6.60518">
        <ele>1197</ele>
        <time>2022-08-16T08:53:33Z</time>
      </trkpt>
      <trkpt lat="45.75514" lon="6.60521">
        <ele>1197</ele>
        <time>2022-08-16T08:53:34Z</time>
      </trkpt>
      <trkpt lat="45.75513" lon="6.60524">
        <ele>1197</ele>
        <time>2022-08-16T08:53:35Z</time>
      </trkpt>
      <trkpt lat="45.75513" lon="6.60528">
        <ele>1198</ele>
        <time>2022-08-16T08:53:36Z</time>
      </trkpt>
      <trkpt lat="45.75512" lon="6.60531">
        <ele>1198</ele>
        <time>2022-08-16T08:53:37Z</time>
      </trkpt>
      <trkpt lat="45.75511" lon="6.60535">
        <ele>1198</ele>
        <time>2022-08-16T08:53:38Z</time>
      </trkpt>
      <trkpt lat="45.7551" lon="6.60538">
        <ele>1199</ele>
        <time>2022-08-16T08:53:39Z</time>
      </trkpt>
      <trkpt lat="45.7551" lon="6.60543">
        <ele>1200</ele>
        <time>2022-08-16T08:53:40Z</time>
      </trkpt>
      <trkpt lat="45.75509" lon="6.60547">
        <ele>1200</ele>
        <time>2022-08-16T08:53:41Z</time>
      </trkpt>
      <trkpt lat="45.75509" lon="6.60552">
        <ele>1201</ele>
        <time>2022-08-16T08:53:42Z</time>
      </trkpt>
      <trkpt lat="45.7551" lon="6.60556">
        <ele>1202</ele>
        <time>2022-08-16T08:53:43Z</time>
      </trkpt>
      <trkpt lat="45.7551" lon="6.60562">
        <ele>1202</ele>
        <time>2022-08-16T08:53:44Z</time>
      </trkpt>
      <trkpt lat="45.75511" lon="6.60567">
        <ele>1202</ele>
        <time>2022-08-16T08:53:45Z</time>
      </trkpt>
      <trkpt lat="45.75513" lon="6.60572">
        <ele>1202</ele>
        <time>2022-08-16T08:53:46Z</time>
      </trkpt>
      <trkpt lat="45.75514" lon="6.60577">
        <ele>1203</ele>
        <time>2022-08-16T08:53:47Z</time>
      </trkpt>
      <trkpt lat="45.75516" lon="6.60583">
        <ele>1203</ele>
        <time>2022-08-16T08:53:48Z</time>
      </trkpt>
      <trkpt lat="45.75517" lon="6.60588">
        <ele>1203</ele>
        <time>2022-08-16T08:53:49Z</time>
      </trkpt>
      <trkpt lat="45.75519" lon="6.60593">
        <ele>1203</ele>
        <time>2022-08-16T08:53:50Z</time>
      </trkpt>
      <trkpt lat="45.75521" lon="6.60598">
        <ele>1203</ele>
        <time>2022-08-16T08:53:51Z</time>
      </trkpt>
      <trkpt lat="45.75523" lon="6.60603">
        <ele>1203</ele>
        <time>2022-08-16T08:53:52Z</time>
      </trkpt>
      <trkpt lat="45.75525" lon="6.60608">
        <ele>1203</ele>
        <time>2022-08-16T08:53:53Z</time>
      </trkpt>
      <trkpt lat="45.75527" lon="6.60613">
        <ele>1203</ele>
        <time>2022-08-16T08:53:54Z</time>
      </trkpt>
      <trkpt lat="45.75528" lon="6.60619">
        <ele>1203</ele>
        <time>2022-08-16T08:53:55Z</time>
      </trkpt>
      <trkpt lat="45.7553" lon="6.60624">
        <ele>1202</ele>
        <time>2022-08-16T08:53:56Z</time>
      </trkpt>
      <trkpt lat="45.75532" lon="6.60629">
        <ele>1202</ele>
        <time>2022-08-16T08:53:57Z</time>
      </trkpt>
      <trkpt lat="45.75533" lon="6.60635">
        <ele>1202</ele>
        <time>2022-08-16T08:53:58Z</time>
      </trkpt>
      <trkpt lat="45.75535" lon="6.6064">
        <ele>1202</ele>
        <time>2022-08-16T08:53:59Z</time>
      </trkpt>
      <trkpt lat="45.75536" lon="6.60645">
        <ele>1202</ele>
        <time>2022-08-16T08:54:00Z</time>
      </trkpt>
      <trkpt lat="45.75538" lon="6.60649">
        <ele>1202</ele>
        <time>2022-08-16T08:54:01Z</time>
      </trkpt>
      <trkpt lat="45.75539" lon="6.60654">
        <ele>1202</ele>
        <time>2022-08-16T08:54:02Z</time>
      </trkpt>
      <trkpt lat="45.7554" lon="6.60659">
        <ele>1202</ele>
        <time>2022-08-16T08:54:03Z</time>
      </trkpt>
      <trkpt lat="45.75542" lon="6.60664">
        <ele>1202</ele>
        <time>2022-08-16T08:54:04Z</time>
      </trkpt>
      <trkpt lat="45.75543" lon="6.60669">
        <ele>1202</ele>
        <time>2022-08-16T08:54:05Z</time>
      </trkpt>
      <trkpt lat="45.75544" lon="6.60674">
        <ele>1202</ele>
        <time>2022-08-16T08:54:06Z</time>
      </trkpt>
      <trkpt lat="45.75545" lon="6.60679">
        <ele>1202</ele>
        <time>2022-08-16T08:54:07Z</time>
      </trkpt>
      <trkpt lat="45.75547" lon="6.60684">
        <ele>1202</ele>
        <time>2022-08-16T08:54:08Z</time>
      </trkpt>
      <trkpt lat="45.75548" lon="6.60689">
        <ele>1202</ele>
        <time>2022-08-16T08:54:09Z</time>
      </trkpt>
      <trkpt lat="45.7555" lon="6.60693">
        <ele>1202</ele>
        <time>2022-08-16T08:54:10Z</time>
      </trkpt>
      <trkpt lat="45.75552" lon="6.60697">
        <ele>1203</ele>
        <time>2022-08-16T08:54:11Z</time>
      </trkpt>
      <trkpt lat="45.75554" lon="6.60702">
        <ele>1203</ele>
        <time>2022-08-16T08:54:12Z</time>
      </trkpt>
      <trkpt lat="45.75556" lon="6.60706">
        <ele>1203</ele>
        <time>2022-08-16T08:54:13Z</time>
      </trkpt>
      <trkpt lat="45.75558" lon="6.6071">
        <ele>1204</ele>
        <time>2022-08-16T08:54:14Z</time>
      </trkpt>
      <trkpt lat="45.7556" lon="6.60714">
        <ele>1205</ele>
        <time>2022-08-16T08:54:15Z</time>
      </trkpt>
      <trkpt lat="45.75562" lon="6.60719">
        <ele>1205</ele>
        <time>2022-08-16T08:54:16Z</time>
      </trkpt>
      <trkpt lat="45.75563" lon="6.60723">
        <ele>1205</ele>
        <time>2022-08-16T08:54:17Z</time>
      </trkpt>
      <trkpt lat="45.75565" lon="6.60727">
        <ele>1205</ele>
        <time>2022-08-16T08:54:18Z</time>
      </trkpt>
      <trkpt lat="45.75567" lon="6.60731">
        <ele>1205</ele>
        <time>2022-08-16T08:54:19Z</time>
      </trkpt>
      <trkpt lat="45.75569" lon="6.60735">
        <ele>1206</ele>
        <time>2022-08-16T08:54:20Z</time>
      </trkpt>
      <trkpt lat="45.75571" lon="6.60739">
        <ele>1206</ele>
        <time>2022-08-16T08:54:21Z</time>
      </trkpt>
      <trkpt lat="45.75573" lon="6.60743">
        <ele>1206</ele>
        <time>2022-08-16T08:54:22Z</time>
      </trkpt>
      <trkpt lat="45.75575" lon="6.60747">
        <ele>1206</ele>
        <time>2022-08-16T08:54:23Z</time>
      </trkpt>
      <trkpt lat="45.75577" lon="6.60751">
        <ele>1207</ele>
        <time>2022-08-16T08:54:24Z</time>
      </trkpt>
      <trkpt lat="45.75578" lon="6.60755">
        <ele>1207</ele>
        <time>2022-08-16T08:54:25Z</time>
      </trkpt>
      <trkpt lat="45.7558" lon="6.6076">
        <ele>1207</ele>
        <time>2022-08-16T08:54:26Z</time>
      </trkpt>
      <trkpt lat="45.75581" lon="6.60765">
        <ele>1208</ele>
        <time>2022-08-16T08:54:27Z</time>
      </trkpt>
      <trkpt lat="45.75583" lon="6.60769">
        <ele>1208</ele>
        <time>2022-08-16T08:54:28Z</time>
      </trkpt>
      <trkpt lat="45.75584" lon="6.60774">
        <ele>1209</ele>
        <time>2022-08-16T08:54:29Z</time>
      </trkpt>
      <trkpt lat="45.75586" lon="6.60778">
        <ele>1209</ele>
        <time>2022-08-16T08:54:30Z</time>
      </trkpt>
      <trkpt lat="45.75588" lon="6.60782">
        <ele>1209</ele>
        <time>2022-08-16T08:54:31Z</time>
      </trkpt>
      <trkpt lat="45.75589" lon="6.60787">
        <ele>1209</ele>
        <time>2022-08-16T08:54:32Z</time>
      </trkpt>
      <trkpt lat="45.75592" lon="6.60792">
        <ele>1209</ele>
        <time>2022-08-16T08:54:33Z</time>
      </trkpt>
      <trkpt lat="45.75594" lon="6.60797">
        <ele>1209</ele>
        <time>2022-08-16T08:54:34Z</time>
      </trkpt>
      <trkpt lat="45.75596" lon="6.60802">
        <ele>1209</ele>
        <time>2022-08-16T08:54:35Z</time>
      </trkpt>
      <trkpt lat="45.75599" lon="6.60806">
        <ele>1209</ele>
        <time>2022-08-16T08:54:36Z</time>
      </trkpt>
      <trkpt lat="45.75602" lon="6.60811">
        <ele>1209</ele>
        <time>2022-08-16T08:54:37Z</time>
      </trkpt>
      <trkpt lat="45.75605" lon="6.60814">
        <ele>1209</ele>
        <time>2022-08-16T08:54:38Z</time>
      </trkpt>
      <trkpt lat="45.75608" lon="6.60818">
        <ele>1209</ele>
        <time>2022-08-16T08:54:39Z</time>
      </trkpt>
      <trkpt lat="45.75611" lon="6.60821">
        <ele>1209</ele>
        <time>2022-08-16T08:54:40Z</time>
      </trkpt>
      <trkpt lat="45.75614" lon="6.60824">
        <ele>1208</ele>
        <time>2022-08-16T08:54:41Z</time>
      </trkpt>
      <trkpt lat="45.75618" lon="6.60827">
        <ele>1208</ele>
        <time>2022-08-16T08:54:42Z</time>
      </trkpt>
      <trkpt lat="45.75621" lon="6.60829">
        <ele>1208</ele>
        <time>2022-08-16T08:54:43Z</time>
      </trkpt>
      <trkpt lat="45.75624" lon="6.60831">
        <ele>1208</ele>
        <time>2022-08-16T08:54:44Z</time>
      </trkpt>
      <trkpt lat="45.75627" lon="6.60834">
        <ele>1208</ele>
        <time>2022-08-16T08:54:45Z</time>
      </trkpt>
      <trkpt lat="45.75631" lon="6.60836">
        <ele>1208</ele>
        <time>2022-08-16T08:54:46Z</time>
      </trkpt>
      <trkpt lat="45.75634" lon="6.60839">
        <ele>1209</ele>
        <time>2022-08-16T08:54:47Z</time>
      </trkpt>
      <trkpt lat="45.75637" lon="6.60842">
        <ele>1209</ele>
        <time>2022-08-16T08:54:48Z</time>
      </trkpt>
      <trkpt lat="45.75641" lon="6.60845">
        <ele>1209</ele>
        <time>2022-08-16T08:54:49Z</time>
      </trkpt>
      <trkpt lat="45.75644" lon="6.60848">
        <ele>1209</ele>
        <time>2022-08-16T08:54:50Z</time>
      </trkpt>
      <trkpt lat="45.75648" lon="6.60851">
        <ele>1209</ele>
        <time>2022-08-16T08:54:51Z</time>
      </trkpt>
      <trkpt lat="45.75651" lon="6.60854">
        <ele>1209</ele>
        <time>2022-08-16T08:54:52Z</time>
      </trkpt>
      <trkpt lat="45.75654" lon="6.60856">
        <ele>1210</ele>
        <time>2022-08-16T08:54:53Z</time>
      </trkpt>
      <trkpt lat="45.75657" lon="6.60859">
        <ele>1210</ele>
        <time>2022-08-16T08:54:54Z</time>
      </trkpt>
      <trkpt lat="45.7566" lon="6.60862">
        <ele>1210</ele>
        <time>2022-08-16T08:54:55Z</time>
      </trkpt>
      <trkpt lat="45.75663" lon="6.60864">
        <ele>1210</ele>
        <time>2022-08-16T08:54:56Z</time>
      </trkpt>
      <trkpt lat="45.75665" lon="6.60867">
        <ele>1210</ele>
        <time>2022-08-16T08:54:57Z</time>
      </trkpt>
      <trkpt lat="45.75668" lon="6.60869">
        <ele>1210</ele>
        <time>2022-08-16T08:54:58Z</time>
      </trkpt>
      <trkpt lat="45.75671" lon="6.60871">
        <ele>1211</ele>
        <time>2022-08-16T08:54:59Z</time>
      </trkpt>
      <trkpt lat="45.75674" lon="6.60874">
        <ele>1210</ele>
        <time>2022-08-16T08:55:00Z</time>
      </trkpt>
      <trkpt lat="45.75676" lon="6.60877">
        <ele>1210</ele>
        <time>2022-08-16T08:55:01Z</time>
      </trkpt>
      <trkpt lat="45.75678" lon="6.6088">
        <ele>1211</ele>
        <time>2022-08-16T08:55:02Z</time>
      </trkpt>
      <trkpt lat="45.75681" lon="6.60884">
        <ele>1211</ele>
        <time>2022-08-16T08:55:03Z</time>
      </trkpt>
      <trkpt lat="45.75684" lon="6.60888">
        <ele>1211</ele>
        <time>2022-08-16T08:55:04Z</time>
      </trkpt>
      <trkpt lat="45.75687" lon="6.60893">
        <ele>1211</ele>
        <time>2022-08-16T08:55:05Z</time>
      </trkpt>
      <trkpt lat="45.75689" lon="6.60898">
        <ele>1210</ele>
        <time>2022-08-16T08:55:06Z</time>
      </trkpt>
      <trkpt lat="45.75691" lon="6.60902">
        <ele>1210</ele>
        <time>2022-08-16T08:55:07Z</time>
      </trkpt>
      <trkpt lat="45.75693" lon="6.60906">
        <ele>1210</ele>
        <time>2022-08-16T08:55:08Z</time>
      </trkpt>
      <trkpt lat="45.75696" lon="6.60911">
        <ele>1209</ele>
        <time>2022-08-16T08:55:09Z</time>
      </trkpt>
      <trkpt lat="45.75698" lon="6.60916">
        <ele>1209</ele>
        <time>2022-08-16T08:55:10Z</time>
      </trkpt>
      <trkpt lat="45.757" lon="6.60921">
        <ele>1209</ele>
        <time>2022-08-16T08:55:11Z</time>
      </trkpt>
      <trkpt lat="45.75702" lon="6.60927">
        <ele>1208</ele>
        <time>2022-08-16T08:55:12Z</time>
      </trkpt>
      <trkpt lat="45.75704" lon="6.60932">
        <ele>1208</ele>
        <time>2022-08-16T08:55:13Z</time>
      </trkpt>
      <trkpt lat="45.75705" lon="6.60938">
        <ele>1208</ele>
        <time>2022-08-16T08:55:14Z</time>
      </trkpt>
      <trkpt lat="45.75706" lon="6.60944">
        <ele>1208</ele>
        <time>2022-08-16T08:55:15Z</time>
      </trkpt>
      <trkpt lat="45.75708" lon="6.60949">
        <ele>1208</ele>
        <time>2022-08-16T08:55:16Z</time>
      </trkpt>
      <trkpt lat="45.75709" lon="6.60956">
        <ele>1208</ele>
        <time>2022-08-16T08:55:17Z</time>
      </trkpt>
      <trkpt lat="45.75709" lon="6.60963">
        <ele>1208</ele>
        <time>2022-08-16T08:55:18Z</time>
      </trkpt>
      <trkpt lat="45.7571" lon="6.60969">
        <ele>1208</ele>
        <time>2022-08-16T08:55:19Z</time>
      </trkpt>
      <trkpt lat="45.75711" lon="6.60976">
        <ele>1208</ele>
        <time>2022-08-16T08:55:20Z</time>
      </trkpt>
      <trkpt lat="45.75711" lon="6.60983">
        <ele>1208</ele>
        <time>2022-08-16T08:55:21Z</time>
      </trkpt>
      <trkpt lat="45.75712" lon="6.60989">
        <ele>1208</ele>
        <time>2022-08-16T08:55:22Z</time>
      </trkpt>
      <trkpt lat="45.75712" lon="6.60995">
        <ele>1208</ele>
        <time>2022-08-16T08:55:23Z</time>
      </trkpt>
      <trkpt lat="45.75712" lon="6.61">
        <ele>1208</ele>
        <time>2022-08-16T08:55:24Z</time>
      </trkpt>
      <trkpt lat="45.75713" lon="6.61006">
        <ele>1207</ele>
        <time>2022-08-16T08:55:25Z</time>
      </trkpt>
      <trkpt lat="45.75713" lon="6.61011">
        <ele>1208</ele>
        <time>2022-08-16T08:55:26Z</time>
      </trkpt>
      <trkpt lat="45.75713" lon="6.61017">
        <ele>1208</ele>
        <time>2022-08-16T08:55:27Z</time>
      </trkpt>
      <trkpt lat="45.75713" lon="6.61022">
        <ele>1208</ele>
        <time>2022-08-16T08:55:28Z</time>
      </trkpt>
      <trkpt lat="45.75713" lon="6.61028">
        <ele>1207</ele>
        <time>2022-08-16T08:55:29Z</time>
      </trkpt>
      <trkpt lat="45.75714" lon="6.61033">
        <ele>1207</ele>
        <time>2022-08-16T08:55:30Z</time>
      </trkpt>
      <trkpt lat="45.75714" lon="6.61038">
        <ele>1207</ele>
        <time>2022-08-16T08:55:31Z</time>
      </trkpt>
      <trkpt lat="45.75715" lon="6.61043">
        <ele>1207</ele>
        <time>2022-08-16T08:55:32Z</time>
      </trkpt>
      <trkpt lat="45.75716" lon="6.61049">
        <ele>1207</ele>
        <time>2022-08-16T08:55:33Z</time>
      </trkpt>
      <trkpt lat="45.75717" lon="6.61053">
        <ele>1208</ele>
        <time>2022-08-16T08:55:34Z</time>
      </trkpt>
      <trkpt lat="45.75718" lon="6.61058">
        <ele>1208</ele>
        <time>2022-08-16T08:55:35Z</time>
      </trkpt>
      <trkpt lat="45.7572" lon="6.61063">
        <ele>1208</ele>
        <time>2022-08-16T08:55:36Z</time>
      </trkpt>
      <trkpt lat="45.75722" lon="6.61068">
        <ele>1208</ele>
        <time>2022-08-16T08:55:37Z</time>
      </trkpt>
      <trkpt lat="45.75724" lon="6.61073">
        <ele>1209</ele>
        <time>2022-08-16T08:55:38Z</time>
      </trkpt>
      <trkpt lat="45.75725" lon="6.61079">
        <ele>1209</ele>
        <time>2022-08-16T08:55:39Z</time>
      </trkpt>
      <trkpt lat="45.75726" lon="6.61086">
        <ele>1209</ele>
        <time>2022-08-16T08:55:40Z</time>
      </trkpt>
      <trkpt lat="45.75726" lon="6.61093">
        <ele>1209</ele>
        <time>2022-08-16T08:55:41Z</time>
      </trkpt>
      <trkpt lat="45.75725" lon="6.61099">
        <ele>1209</ele>
        <time>2022-08-16T08:55:42Z</time>
      </trkpt>
      <trkpt lat="45.75724" lon="6.61105">
        <ele>1209</ele>
        <time>2022-08-16T08:55:43Z</time>
      </trkpt>
      <trkpt lat="45.75722" lon="6.61111">
        <ele>1209</ele>
        <time>2022-08-16T08:55:44Z</time>
      </trkpt>
      <trkpt lat="45.75721" lon="6.61116">
        <ele>1209</ele>
        <time>2022-08-16T08:55:45Z</time>
      </trkpt>
      <trkpt lat="45.75719" lon="6.61122">
        <ele>1209</ele>
        <time>2022-08-16T08:55:46Z</time>
      </trkpt>
      <trkpt lat="45.75718" lon="6.61129">
        <ele>1209</ele>
        <time>2022-08-16T08:55:47Z</time>
      </trkpt>
      <trkpt lat="45.75717" lon="6.61135">
        <ele>1209</ele>
        <time>2022-08-16T08:55:48Z</time>
      </trkpt>
      <trkpt lat="45.75717" lon="6.61141">
        <ele>1209</ele>
        <time>2022-08-16T08:55:49Z</time>
      </trkpt>
      <trkpt lat="45.75717" lon="6.61147">
        <ele>1209</ele>
        <time>2022-08-16T08:55:50Z</time>
      </trkpt>
      <trkpt lat="45.75718" lon="6.61152">
        <ele>1209</ele>
        <time>2022-08-16T08:55:51Z</time>
      </trkpt>
      <trkpt lat="45.75719" lon="6.61158">
        <ele>1210</ele>
        <time>2022-08-16T08:55:52Z</time>
      </trkpt>
      <trkpt lat="45.75721" lon="6.61163">
        <ele>1210</ele>
        <time>2022-08-16T08:55:53Z</time>
      </trkpt>
      <trkpt lat="45.75723" lon="6.61168">
        <ele>1210</ele>
        <time>2022-08-16T08:55:54Z</time>
      </trkpt>
      <trkpt lat="45.75725" lon="6.61172">
        <ele>1211</ele>
        <time>2022-08-16T08:55:55Z</time>
      </trkpt>
      <trkpt lat="45.75727" lon="6.61177">
        <ele>1211</ele>
        <time>2022-08-16T08:55:56Z</time>
      </trkpt>
      <trkpt lat="45.75729" lon="6.61181">
        <ele>1212</ele>
        <time>2022-08-16T08:55:57Z</time>
      </trkpt>
      <trkpt lat="45.75731" lon="6.61186">
        <ele>1212</ele>
        <time>2022-08-16T08:55:58Z</time>
      </trkpt>
      <trkpt lat="45.75734" lon="6.6119">
        <ele>1212</ele>
        <time>2022-08-16T08:55:59Z</time>
      </trkpt>
      <trkpt lat="45.75738" lon="6.61194">
        <ele>1212</ele>
        <time>2022-08-16T08:56:00Z</time>
      </trkpt>
      <trkpt lat="45.75741" lon="6.61199">
        <ele>1212</ele>
        <time>2022-08-16T08:56:01Z</time>
      </trkpt>
      <trkpt lat="45.75743" lon="6.61205">
        <ele>1212</ele>
        <time>2022-08-16T08:56:02Z</time>
      </trkpt>
      <trkpt lat="45.75746" lon="6.61209">
        <ele>1212</ele>
        <time>2022-08-16T08:56:03Z</time>
      </trkpt>
      <trkpt lat="45.75748" lon="6.61214">
        <ele>1212</ele>
        <time>2022-08-16T08:56:04Z</time>
      </trkpt>
      <trkpt lat="45.75751" lon="6.61219">
        <ele>1212</ele>
        <time>2022-08-16T08:56:05Z</time>
      </trkpt>
      <trkpt lat="45.75754" lon="6.61223">
        <ele>1213</ele>
        <time>2022-08-16T08:56:06Z</time>
      </trkpt>
      <trkpt lat="45.75756" lon="6.61229">
        <ele>1213</ele>
        <time>2022-08-16T08:56:07Z</time>
      </trkpt>
      <trkpt lat="45.75757" lon="6.61234">
        <ele>1214</ele>
        <time>2022-08-16T08:56:08Z</time>
      </trkpt>
      <trkpt lat="45.75759" lon="6.61239">
        <ele>1214</ele>
        <time>2022-08-16T08:56:09Z</time>
      </trkpt>
      <trkpt lat="45.75761" lon="6.61245">
        <ele>1214</ele>
        <time>2022-08-16T08:56:10Z</time>
      </trkpt>
      <trkpt lat="45.75763" lon="6.6125">
        <ele>1214</ele>
        <time>2022-08-16T08:56:11Z</time>
      </trkpt>
      <trkpt lat="45.75765" lon="6.61255">
        <ele>1214</ele>
        <time>2022-08-16T08:56:12Z</time>
      </trkpt>
      <trkpt lat="45.75766" lon="6.6126">
        <ele>1214</ele>
        <time>2022-08-16T08:56:13Z</time>
      </trkpt>
      <trkpt lat="45.75766" lon="6.61266">
        <ele>1215</ele>
        <time>2022-08-16T08:56:14Z</time>
      </trkpt>
      <trkpt lat="45.75767" lon="6.61271">
        <ele>1216</ele>
        <time>2022-08-16T08:56:15Z</time>
      </trkpt>
      <trkpt lat="45.75767" lon="6.61276">
        <ele>1216</ele>
        <time>2022-08-16T08:56:16Z</time>
      </trkpt>
      <trkpt lat="45.75768" lon="6.61281">
        <ele>1216</ele>
        <time>2022-08-16T08:56:17Z</time>
      </trkpt>
      <trkpt lat="45.75769" lon="6.61286">
        <ele>1217</ele>
        <time>2022-08-16T08:56:18Z</time>
      </trkpt>
      <trkpt lat="45.7577" lon="6.6129">
        <ele>1217</ele>
        <time>2022-08-16T08:56:19Z</time>
      </trkpt>
      <trkpt lat="45.75772" lon="6.61296">
        <ele>1217</ele>
        <time>2022-08-16T08:56:20Z</time>
      </trkpt>
      <trkpt lat="45.75774" lon="6.613">
        <ele>1218</ele>
        <time>2022-08-16T08:56:21Z</time>
      </trkpt>
      <trkpt lat="45.75777" lon="6.61304">
        <ele>1217</ele>
        <time>2022-08-16T08:56:22Z</time>
      </trkpt>
      <trkpt lat="45.75778" lon="6.61309">
        <ele>1217</ele>
        <time>2022-08-16T08:56:23Z</time>
      </trkpt>
      <trkpt lat="45.7578" lon="6.61313">
        <ele>1217</ele>
        <time>2022-08-16T08:56:24Z</time>
      </trkpt>
      <trkpt lat="45.75782" lon="6.61317">
        <ele>1218</ele>
        <time>2022-08-16T08:56:25Z</time>
      </trkpt>
      <trkpt lat="45.75784" lon="6.61321">
        <ele>1218</ele>
        <time>2022-08-16T08:56:26Z</time>
      </trkpt>
      <trkpt lat="45.75786" lon="6.61325">
        <ele>1218</ele>
        <time>2022-08-16T08:56:27Z</time>
      </trkpt>
      <trkpt lat="45.75788" lon="6.6133">
        <ele>1218</ele>
        <time>2022-08-16T08:56:28Z</time>
      </trkpt>
      <trkpt lat="45.75791" lon="6.61334">
        <ele>1218</ele>
        <time>2022-08-16T08:56:29Z</time>
      </trkpt>
      <trkpt lat="45.75793" lon="6.61338">
        <ele>1218</ele>
        <time>2022-08-16T08:56:30Z</time>
      </trkpt>
      <trkpt lat="45.75796" lon="6.61341">
        <ele>1218</ele>
        <time>2022-08-16T08:56:31Z</time>
      </trkpt>
      <trkpt lat="45.758" lon="6.61345">
        <ele>1219</ele>
        <time>2022-08-16T08:56:32Z</time>
      </trkpt>
      <trkpt lat="45.75804" lon="6.61349">
        <ele>1219</ele>
        <time>2022-08-16T08:56:33Z</time>
      </trkpt>
      <trkpt lat="45.75808" lon="6.61351">
        <ele>1219</ele>
        <time>2022-08-16T08:56:34Z</time>
      </trkpt>
      <trkpt lat="45.75812" lon="6.61353">
        <ele>1219</ele>
        <time>2022-08-16T08:56:35Z</time>
      </trkpt>
      <trkpt lat="45.75816" lon="6.61355">
        <ele>1219</ele>
        <time>2022-08-16T08:56:36Z</time>
      </trkpt>
      <trkpt lat="45.7582" lon="6.61357">
        <ele>1220</ele>
        <time>2022-08-16T08:56:37Z</time>
      </trkpt>
      <trkpt lat="45.75823" lon="6.6136">
        <ele>1220</ele>
        <time>2022-08-16T08:56:38Z</time>
      </trkpt>
      <trkpt lat="45.75827" lon="6.61362">
        <ele>1220</ele>
        <time>2022-08-16T08:56:39Z</time>
      </trkpt>
      <trkpt lat="45.7583" lon="6.61365">
        <ele>1220</ele>
        <time>2022-08-16T08:56:40Z</time>
      </trkpt>
      <trkpt lat="45.75833" lon="6.61367">
        <ele>1221</ele>
        <time>2022-08-16T08:56:41Z</time>
      </trkpt>
      <trkpt lat="45.75837" lon="6.61369">
        <ele>1221</ele>
        <time>2022-08-16T08:56:42Z</time>
      </trkpt>
      <trkpt lat="45.7584" lon="6.61371">
        <ele>1221</ele>
        <time>2022-08-16T08:56:43Z</time>
      </trkpt>
      <trkpt lat="45.75844" lon="6.61373">
        <ele>1221</ele>
        <time>2022-08-16T08:56:44Z</time>
      </trkpt>
      <trkpt lat="45.75847" lon="6.61375">
        <ele>1221</ele>
        <time>2022-08-16T08:56:45Z</time>
      </trkpt>
      <trkpt lat="45.7585" lon="6.61377">
        <ele>1221</ele>
        <time>2022-08-16T08:56:46Z</time>
      </trkpt>
      <trkpt lat="45.75854" lon="6.61379">
        <ele>1222</ele>
        <time>2022-08-16T08:56:47Z</time>
      </trkpt>
      <trkpt lat="45.75857" lon="6.61381">
        <ele>1222</ele>
        <time>2022-08-16T08:56:48Z</time>
      </trkpt>
      <trkpt lat="45.75861" lon="6.61384">
        <ele>1222</ele>
        <time>2022-08-16T08:56:49Z</time>
      </trkpt>
      <trkpt lat="45.75864" lon="6.61386">
        <ele>1222</ele>
        <time>2022-08-16T08:56:50Z</time>
      </trkpt>
      <trkpt lat="45.75868" lon="6.61389">
        <ele>1222</ele>
        <time>2022-08-16T08:56:51Z</time>
      </trkpt>
      <trkpt lat="45.75872" lon="6.61392">
        <ele>1223</ele>
        <time>2022-08-16T08:56:52Z</time>
      </trkpt>
      <trkpt lat="45.75875" lon="6.61394">
        <ele>1223</ele>
        <time>2022-08-16T08:56:53Z</time>
      </trkpt>
      <trkpt lat="45.75879" lon="6.61396">
        <ele>1223</ele>
        <time>2022-08-16T08:56:54Z</time>
      </trkpt>
      <trkpt lat="45.75882" lon="6.614">
        <ele>1223</ele>
        <time>2022-08-16T08:56:55Z</time>
      </trkpt>
      <trkpt lat="45.75886" lon="6.61403">
        <ele>1223</ele>
        <time>2022-08-16T08:56:56Z</time>
      </trkpt>
      <trkpt lat="45.75891" lon="6.61406">
        <ele>1224</ele>
        <time>2022-08-16T08:56:57Z</time>
      </trkpt>
      <trkpt lat="45.75895" lon="6.6141">
        <ele>1224</ele>
        <time>2022-08-16T08:56:58Z</time>
      </trkpt>
      <trkpt lat="45.75898" lon="6.61414">
        <ele>1224</ele>
        <time>2022-08-16T08:56:59Z</time>
      </trkpt>
      <trkpt lat="45.75902" lon="6.61418">
        <ele>1224</ele>
        <time>2022-08-16T08:57:00Z</time>
      </trkpt>
      <trkpt lat="45.75905" lon="6.61421">
        <ele>1224</ele>
        <time>2022-08-16T08:57:01Z</time>
      </trkpt>
      <trkpt lat="45.75907" lon="6.61425">
        <ele>1224</ele>
        <time>2022-08-16T08:57:02Z</time>
      </trkpt>
      <trkpt lat="45.7591" lon="6.61429">
        <ele>1225</ele>
        <time>2022-08-16T08:57:03Z</time>
      </trkpt>
      <trkpt lat="45.75913" lon="6.61433">
        <ele>1225</ele>
        <time>2022-08-16T08:57:04Z</time>
      </trkpt>
      <trkpt lat="45.75916" lon="6.61437">
        <ele>1225</ele>
        <time>2022-08-16T08:57:05Z</time>
      </trkpt>
      <trkpt lat="45.75919" lon="6.61441">
        <ele>1225</ele>
        <time>2022-08-16T08:57:06Z</time>
      </trkpt>
      <trkpt lat="45.75922" lon="6.61446">
        <ele>1225</ele>
        <time>2022-08-16T08:57:07Z</time>
      </trkpt>
      <trkpt lat="45.75925" lon="6.6145">
        <ele>1225</ele>
        <time>2022-08-16T08:57:08Z</time>
      </trkpt>
      <trkpt lat="45.75928" lon="6.61454">
        <ele>1225</ele>
        <time>2022-08-16T08:57:09Z</time>
      </trkpt>
      <trkpt lat="45.75931" lon="6.61459">
        <ele>1225</ele>
        <time>2022-08-16T08:57:10Z</time>
      </trkpt>
      <trkpt lat="45.75933" lon="6.61464">
        <ele>1225</ele>
        <time>2022-08-16T08:57:11Z</time>
      </trkpt>
      <trkpt lat="45.75936" lon="6.61468">
        <ele>1225</ele>
        <time>2022-08-16T08:57:12Z</time>
      </trkpt>
      <trkpt lat="45.75938" lon="6.61473">
        <ele>1225</ele>
        <time>2022-08-16T08:57:13Z</time>
      </trkpt>
      <trkpt lat="45.7594" lon="6.61478">
        <ele>1225</ele>
        <time>2022-08-16T08:57:14Z</time>
      </trkpt>
      <trkpt lat="45.75942" lon="6.61483">
        <ele>1225</ele>
        <time>2022-08-16T08:57:15Z</time>
      </trkpt>
      <trkpt lat="45.75944" lon="6.61487">
        <ele>1226</ele>
        <time>2022-08-16T08:57:16Z</time>
      </trkpt>
      <trkpt lat="45.75945" lon="6.61492">
        <ele>1226</ele>
        <time>2022-08-16T08:57:17Z</time>
      </trkpt>
      <trkpt lat="45.75947" lon="6.61497">
        <ele>1226</ele>
        <time>2022-08-16T08:57:18Z</time>
      </trkpt>
      <trkpt lat="45.75948" lon="6.61502">
        <ele>1226</ele>
        <time>2022-08-16T08:57:19Z</time>
      </trkpt>
      <trkpt lat="45.75949" lon="6.61507">
        <ele>1226</ele>
        <time>2022-08-16T08:57:20Z</time>
      </trkpt>
      <trkpt lat="45.7595" lon="6.61513">
        <ele>1226</ele>
        <time>2022-08-16T08:57:21Z</time>
      </trkpt>
      <trkpt lat="45.7595" lon="6.61517">
        <ele>1226</ele>
        <time>2022-08-16T08:57:22Z</time>
      </trkpt>
      <trkpt lat="45.75951" lon="6.61522">
        <ele>1226</ele>
        <time>2022-08-16T08:57:23Z</time>
      </trkpt>
      <trkpt lat="45.75952" lon="6.61527">
        <ele>1226</ele>
        <time>2022-08-16T08:57:24Z</time>
      </trkpt>
      <trkpt lat="45.75953" lon="6.61531">
        <ele>1226</ele>
        <time>2022-08-16T08:57:25Z</time>
      </trkpt>
      <trkpt lat="45.75954" lon="6.61536">
        <ele>1227</ele>
        <time>2022-08-16T08:57:26Z</time>
      </trkpt>
      <trkpt lat="45.75955" lon="6.6154">
        <ele>1227</ele>
        <time>2022-08-16T08:57:27Z</time>
      </trkpt>
      <trkpt lat="45.75956" lon="6.61544">
        <ele>1227</ele>
        <time>2022-08-16T08:57:28Z</time>
      </trkpt>
      <trkpt lat="45.75958" lon="6.61547">
        <ele>1227</ele>
        <time>2022-08-16T08:57:29Z</time>
      </trkpt>
      <trkpt lat="45.7596" lon="6.6155">
        <ele>1227</ele>
        <time>2022-08-16T08:57:30Z</time>
      </trkpt>
      <trkpt lat="45.75963" lon="6.61553">
        <ele>1227</ele>
        <time>2022-08-16T08:57:31Z</time>
      </trkpt>
      <trkpt lat="45.75965" lon="6.61556">
        <ele>1228</ele>
        <time>2022-08-16T08:57:32Z</time>
      </trkpt>
      <trkpt lat="45.75968" lon="6.61559">
        <ele>1228</ele>
        <time>2022-08-16T08:57:33Z</time>
      </trkpt>
      <trkpt lat="45.75971" lon="6.61562">
        <ele>1228</ele>
        <time>2022-08-16T08:57:34Z</time>
      </trkpt>
      <trkpt lat="45.75973" lon="6.61565">
        <ele>1228</ele>
        <time>2022-08-16T08:57:35Z</time>
      </trkpt>
      <trkpt lat="45.75976" lon="6.61569">
        <ele>1228</ele>
        <time>2022-08-16T08:57:36Z</time>
      </trkpt>
      <trkpt lat="45.75978" lon="6.61572">
        <ele>1228</ele>
        <time>2022-08-16T08:57:37Z</time>
      </trkpt>
      <trkpt lat="45.7598" lon="6.61576">
        <ele>1228</ele>
        <time>2022-08-16T08:57:38Z</time>
      </trkpt>
      <trkpt lat="45.75982" lon="6.6158">
        <ele>1228</ele>
        <time>2022-08-16T08:57:39Z</time>
      </trkpt>
      <trkpt lat="45.75984" lon="6.61585">
        <ele>1229</ele>
        <time>2022-08-16T08:57:40Z</time>
      </trkpt>
      <trkpt lat="45.75986" lon="6.61589">
        <ele>1229</ele>
        <time>2022-08-16T08:57:41Z</time>
      </trkpt>
      <trkpt lat="45.75987" lon="6.61593">
        <ele>1229</ele>
        <time>2022-08-16T08:57:42Z</time>
      </trkpt>
      <trkpt lat="45.75988" lon="6.61598">
        <ele>1229</ele>
        <time>2022-08-16T08:57:43Z</time>
      </trkpt>
      <trkpt lat="45.7599" lon="6.61602">
        <ele>1230</ele>
        <time>2022-08-16T08:57:44Z</time>
      </trkpt>
      <trkpt lat="45.75992" lon="6.61606">
        <ele>1230</ele>
        <time>2022-08-16T08:57:45Z</time>
      </trkpt>
      <trkpt lat="45.75994" lon="6.6161">
        <ele>1230</ele>
        <time>2022-08-16T08:57:46Z</time>
      </trkpt>
      <trkpt lat="45.75997" lon="6.61615">
        <ele>1230</ele>
        <time>2022-08-16T08:57:47Z</time>
      </trkpt>
      <trkpt lat="45.76" lon="6.61619">
        <ele>1231</ele>
        <time>2022-08-16T08:57:48Z</time>
      </trkpt>
      <trkpt lat="45.76002" lon="6.61623">
        <ele>1231</ele>
        <time>2022-08-16T08:57:49Z</time>
      </trkpt>
      <trkpt lat="45.76004" lon="6.61627">
        <ele>1231</ele>
        <time>2022-08-16T08:57:50Z</time>
      </trkpt>
      <trkpt lat="45.76007" lon="6.61631">
        <ele>1232</ele>
        <time>2022-08-16T08:57:51Z</time>
      </trkpt>
      <trkpt lat="45.7601" lon="6.61635">
        <ele>1231</ele>
        <time>2022-08-16T08:57:52Z</time>
      </trkpt>
      <trkpt lat="45.76012" lon="6.6164">
        <ele>1231</ele>
        <time>2022-08-16T08:57:53Z</time>
      </trkpt>
      <trkpt lat="45.76015" lon="6.61644">
        <ele>1231</ele>
        <time>2022-08-16T08:57:54Z</time>
      </trkpt>
      <trkpt lat="45.76018" lon="6.61648">
        <ele>1231</ele>
        <time>2022-08-16T08:57:55Z</time>
      </trkpt>
      <trkpt lat="45.7602" lon="6.61652">
        <ele>1231</ele>
        <time>2022-08-16T08:57:56Z</time>
      </trkpt>
      <trkpt lat="45.76023" lon="6.61656">
        <ele>1232</ele>
        <time>2022-08-16T08:57:57Z</time>
      </trkpt>
      <trkpt lat="45.76026" lon="6.6166">
        <ele>1232</ele>
        <time>2022-08-16T08:57:58Z</time>
      </trkpt>
      <trkpt lat="45.76029" lon="6.61665">
        <ele>1232</ele>
        <time>2022-08-16T08:57:59Z</time>
      </trkpt>
      <trkpt lat="45.76032" lon="6.61669">
        <ele>1232</ele>
        <time>2022-08-16T08:58:00Z</time>
      </trkpt>
      <trkpt lat="45.76034" lon="6.61673">
        <ele>1233</ele>
        <time>2022-08-16T08:58:01Z</time>
      </trkpt>
      <trkpt lat="45.76037" lon="6.61678">
        <ele>1233</ele>
        <time>2022-08-16T08:58:02Z</time>
      </trkpt>
      <trkpt lat="45.7604" lon="6.61682">
        <ele>1233</ele>
        <time>2022-08-16T08:58:03Z</time>
      </trkpt>
      <trkpt lat="45.76043" lon="6.61686">
        <ele>1233</ele>
        <time>2022-08-16T08:58:04Z</time>
      </trkpt>
      <trkpt lat="45.76045" lon="6.61691">
        <ele>1233</ele>
        <time>2022-08-16T08:58:05Z</time>
      </trkpt>
      <trkpt lat="45.76048" lon="6.61694">
        <ele>1234</ele>
        <time>2022-08-16T08:58:06Z</time>
      </trkpt>
      <trkpt lat="45.7605" lon="6.61698">
        <ele>1233</ele>
        <time>2022-08-16T08:58:07Z</time>
      </trkpt>
      <trkpt lat="45.76052" lon="6.61703">
        <ele>1233</ele>
        <time>2022-08-16T08:58:08Z</time>
      </trkpt>
      <trkpt lat="45.76055" lon="6.61708">
        <ele>1233</ele>
        <time>2022-08-16T08:58:09Z</time>
      </trkpt>
      <trkpt lat="45.76057" lon="6.61713">
        <ele>1234</ele>
        <time>2022-08-16T08:58:10Z</time>
      </trkpt>
      <trkpt lat="45.7606" lon="6.61719">
        <ele>1234</ele>
        <time>2022-08-16T08:58:11Z</time>
      </trkpt>
      <trkpt lat="45.76062" lon="6.61723">
        <ele>1235</ele>
        <time>2022-08-16T08:58:12Z</time>
      </trkpt>
      <trkpt lat="45.76065" lon="6.61728">
        <ele>1235</ele>
        <time>2022-08-16T08:58:13Z</time>
      </trkpt>
      <trkpt lat="45.76068" lon="6.61733">
        <ele>1235</ele>
        <time>2022-08-16T08:58:14Z</time>
      </trkpt>
      <trkpt lat="45.76071" lon="6.61737">
        <ele>1235</ele>
        <time>2022-08-16T08:58:15Z</time>
      </trkpt>
      <trkpt lat="45.76075" lon="6.6174">
        <ele>1235</ele>
        <time>2022-08-16T08:58:16Z</time>
      </trkpt>
      <trkpt lat="45.76077" lon="6.61745">
        <ele>1236</ele>
        <time>2022-08-16T08:58:17Z</time>
      </trkpt>
      <trkpt lat="45.76081" lon="6.61748">
        <ele>1236</ele>
        <time>2022-08-16T08:58:18Z</time>
      </trkpt>
      <trkpt lat="45.76084" lon="6.61751">
        <ele>1236</ele>
        <time>2022-08-16T08:58:19Z</time>
      </trkpt>
      <trkpt lat="45.76088" lon="6.61754">
        <ele>1237</ele>
        <time>2022-08-16T08:58:20Z</time>
      </trkpt>
      <trkpt lat="45.76092" lon="6.61755">
        <ele>1237</ele>
        <time>2022-08-16T08:58:21Z</time>
      </trkpt>
      <trkpt lat="45.76095" lon="6.61757">
        <ele>1237</ele>
        <time>2022-08-16T08:58:22Z</time>
      </trkpt>
      <trkpt lat="45.76099" lon="6.6176">
        <ele>1237</ele>
        <time>2022-08-16T08:58:23Z</time>
      </trkpt>
      <trkpt lat="45.76103" lon="6.61762">
        <ele>1237</ele>
        <time>2022-08-16T08:58:24Z</time>
      </trkpt>
      <trkpt lat="45.76106" lon="6.61764">
        <ele>1238</ele>
        <time>2022-08-16T08:58:25Z</time>
      </trkpt>
      <trkpt lat="45.76109" lon="6.61767">
        <ele>1238</ele>
        <time>2022-08-16T08:58:26Z</time>
      </trkpt>
      <trkpt lat="45.76113" lon="6.6177">
        <ele>1238</ele>
        <time>2022-08-16T08:58:27Z</time>
      </trkpt>
      <trkpt lat="45.76118" lon="6.61773">
        <ele>1237</ele>
        <time>2022-08-16T08:58:28Z</time>
      </trkpt>
      <trkpt lat="45.76122" lon="6.61777">
        <ele>1237</ele>
        <time>2022-08-16T08:58:29Z</time>
      </trkpt>
      <trkpt lat="45.76126" lon="6.61781">
        <ele>1237</ele>
        <time>2022-08-16T08:58:30Z</time>
      </trkpt>
      <trkpt lat="45.76129" lon="6.61785">
        <ele>1237</ele>
        <time>2022-08-16T08:58:31Z</time>
      </trkpt>
      <trkpt lat="45.76131" lon="6.61789">
        <ele>1237</ele>
        <time>2022-08-16T08:58:32Z</time>
      </trkpt>
      <trkpt lat="45.76134" lon="6.61794">
        <ele>1237</ele>
        <time>2022-08-16T08:58:33Z</time>
      </trkpt>
      <trkpt lat="45.76136" lon="6.61797">
        <ele>1237</ele>
        <time>2022-08-16T08:58:34Z</time>
      </trkpt>
      <trkpt lat="45.76138" lon="6.61801">
        <ele>1238</ele>
        <time>2022-08-16T08:58:35Z</time>
      </trkpt>
      <trkpt lat="45.7614" lon="6.61805">
        <ele>1238</ele>
        <time>2022-08-16T08:58:36Z</time>
      </trkpt>
      <trkpt lat="45.76142" lon="6.61809">
        <ele>1239</ele>
        <time>2022-08-16T08:58:37Z</time>
      </trkpt>
      <trkpt lat="45.76145" lon="6.61815">
        <ele>1239</ele>
        <time>2022-08-16T08:58:38Z</time>
      </trkpt>
      <trkpt lat="45.76147" lon="6.6182">
        <ele>1240</ele>
        <time>2022-08-16T08:58:39Z</time>
      </trkpt>
      <trkpt lat="45.76149" lon="6.61825">
        <ele>1241</ele>
        <time>2022-08-16T08:58:40Z</time>
      </trkpt>
      <trkpt lat="45.76151" lon="6.61831">
        <ele>1241</ele>
        <time>2022-08-16T08:58:41Z</time>
      </trkpt>
      <trkpt lat="45.76154" lon="6.61837">
        <ele>1241</ele>
        <time>2022-08-16T08:58:42Z</time>
      </trkpt>
      <trkpt lat="45.76157" lon="6.61842">
        <ele>1242</ele>
        <time>2022-08-16T08:58:43Z</time>
      </trkpt>
      <trkpt lat="45.7616" lon="6.61847">
        <ele>1243</ele>
        <time>2022-08-16T08:58:44Z</time>
      </trkpt>
      <trkpt lat="45.76162" lon="6.61852">
        <ele>1244</ele>
        <time>2022-08-16T08:58:45Z</time>
      </trkpt>
      <trkpt lat="45.76165" lon="6.61856">
        <ele>1245</ele>
        <time>2022-08-16T08:58:46Z</time>
      </trkpt>
      <trkpt lat="45.76168" lon="6.61859">
        <ele>1245</ele>
        <time>2022-08-16T08:58:47Z</time>
      </trkpt>
      <trkpt lat="45.76171" lon="6.61861">
        <ele>1246</ele>
        <time>2022-08-16T08:58:48Z</time>
      </trkpt>
      <trkpt lat="45.76174" lon="6.61864">
        <ele>1246</ele>
        <time>2022-08-16T08:58:49Z</time>
      </trkpt>
      <trkpt lat="45.76178" lon="6.61867">
        <ele>1245</ele>
        <time>2022-08-16T08:58:50Z</time>
      </trkpt>
      <trkpt lat="45.76183" lon="6.6187">
        <ele>1245</ele>
        <time>2022-08-16T08:58:51Z</time>
      </trkpt>
      <trkpt lat="45.76187" lon="6.61873">
        <ele>1244</ele>
        <time>2022-08-16T08:58:52Z</time>
      </trkpt>
      <trkpt lat="45.76192" lon="6.61873">
        <ele>1244</ele>
        <time>2022-08-16T08:58:53Z</time>
      </trkpt>
      <trkpt lat="45.76196" lon="6.61875">
        <ele>1244</ele>
        <time>2022-08-16T08:58:54Z</time>
      </trkpt>
      <trkpt lat="45.76201" lon="6.61876">
        <ele>1243</ele>
        <time>2022-08-16T08:58:55Z</time>
      </trkpt>
      <trkpt lat="45.76206" lon="6.61878">
        <ele>1243</ele>
        <time>2022-08-16T08:58:56Z</time>
      </trkpt>
      <trkpt lat="45.76212" lon="6.6188">
        <ele>1243</ele>
        <time>2022-08-16T08:58:57Z</time>
      </trkpt>
      <trkpt lat="45.76218" lon="6.61883">
        <ele>1243</ele>
        <time>2022-08-16T08:58:58Z</time>
      </trkpt>
      <trkpt lat="45.76222" lon="6.61886">
        <ele>1242</ele>
        <time>2022-08-16T08:58:59Z</time>
      </trkpt>
      <trkpt lat="45.76227" lon="6.61889">
        <ele>1242</ele>
        <time>2022-08-16T08:59:00Z</time>
      </trkpt>
      <trkpt lat="45.76231" lon="6.61893">
        <ele>1241</ele>
        <time>2022-08-16T08:59:01Z</time>
      </trkpt>
      <trkpt lat="45.76236" lon="6.61897">
        <ele>1241</ele>
        <time>2022-08-16T08:59:02Z</time>
      </trkpt>
      <trkpt lat="45.7624" lon="6.619">
        <ele>1241</ele>
        <time>2022-08-16T08:59:03Z</time>
      </trkpt>
      <trkpt lat="45.76244" lon="6.61904">
        <ele>1240</ele>
        <time>2022-08-16T08:59:04Z</time>
      </trkpt>
      <trkpt lat="45.76248" lon="6.61908">
        <ele>1240</ele>
        <time>2022-08-16T08:59:05Z</time>
      </trkpt>
      <trkpt lat="45.76252" lon="6.61911">
        <ele>1240</ele>
        <time>2022-08-16T08:59:06Z</time>
      </trkpt>
      <trkpt lat="45.76257" lon="6.61914">
        <ele>1240</ele>
        <time>2022-08-16T08:59:07Z</time>
      </trkpt>
      <trkpt lat="45.76261" lon="6.61917">
        <ele>1239</ele>
        <time>2022-08-16T08:59:08Z</time>
      </trkpt>
      <trkpt lat="45.76265" lon="6.61921">
        <ele>1239</ele>
        <time>2022-08-16T08:59:09Z</time>
      </trkpt>
      <trkpt lat="45.76269" lon="6.61924">
        <ele>1239</ele>
        <time>2022-08-16T08:59:10Z</time>
      </trkpt>
      <trkpt lat="45.76274" lon="6.61927">
        <ele>1239</ele>
        <time>2022-08-16T08:59:11Z</time>
      </trkpt>
      <trkpt lat="45.76278" lon="6.61929">
        <ele>1239</ele>
        <time>2022-08-16T08:59:12Z</time>
      </trkpt>
      <trkpt lat="45.76283" lon="6.61932">
        <ele>1239</ele>
        <time>2022-08-16T08:59:13Z</time>
      </trkpt>
      <trkpt lat="45.76288" lon="6.61933">
        <ele>1240</ele>
        <time>2022-08-16T08:59:14Z</time>
      </trkpt>
      <trkpt lat="45.76293" lon="6.61934">
        <ele>1240</ele>
        <time>2022-08-16T08:59:15Z</time>
      </trkpt>
      <trkpt lat="45.76298" lon="6.61935">
        <ele>1240</ele>
        <time>2022-08-16T08:59:16Z</time>
      </trkpt>
      <trkpt lat="45.76303" lon="6.61936">
        <ele>1240</ele>
        <time>2022-08-16T08:59:17Z</time>
      </trkpt>
      <trkpt lat="45.76308" lon="6.61938">
        <ele>1239</ele>
        <time>2022-08-16T08:59:18Z</time>
      </trkpt>
      <trkpt lat="45.76312" lon="6.6194">
        <ele>1239</ele>
        <time>2022-08-16T08:59:19Z</time>
      </trkpt>
      <trkpt lat="45.76317" lon="6.61943">
        <ele>1238</ele>
        <time>2022-08-16T08:59:20Z</time>
      </trkpt>
      <trkpt lat="45.76321" lon="6.61947">
        <ele>1238</ele>
        <time>2022-08-16T08:59:21Z</time>
      </trkpt>
      <trkpt lat="45.76325" lon="6.61952">
        <ele>1237</ele>
        <time>2022-08-16T08:59:22Z</time>
      </trkpt>
      <trkpt lat="45.7633" lon="6.61955">
        <ele>1237</ele>
        <time>2022-08-16T08:59:23Z</time>
      </trkpt>
      <trkpt lat="45.76334" lon="6.61959">
        <ele>1235</ele>
        <time>2022-08-16T08:59:24Z</time>
      </trkpt>
      <trkpt lat="45.76339" lon="6.61963">
        <ele>1235</ele>
        <time>2022-08-16T08:59:25Z</time>
      </trkpt>
      <trkpt lat="45.76344" lon="6.61967">
        <ele>1234</ele>
        <time>2022-08-16T08:59:26Z</time>
      </trkpt>
      <trkpt lat="45.76349" lon="6.61971">
        <ele>1233</ele>
        <time>2022-08-16T08:59:27Z</time>
      </trkpt>
      <trkpt lat="45.76354" lon="6.61974">
        <ele>1233</ele>
        <time>2022-08-16T08:59:28Z</time>
      </trkpt>
      <trkpt lat="45.76359" lon="6.61977">
        <ele>1232</ele>
        <time>2022-08-16T08:59:29Z</time>
      </trkpt>
      <trkpt lat="45.76363" lon="6.61981">
        <ele>1232</ele>
        <time>2022-08-16T08:59:30Z</time>
      </trkpt>
      <trkpt lat="45.76368" lon="6.61986">
        <ele>1231</ele>
        <time>2022-08-16T08:59:31Z</time>
      </trkpt>
      <trkpt lat="45.76372" lon="6.61991">
        <ele>1230</ele>
        <time>2022-08-16T08:59:32Z</time>
      </trkpt>
      <trkpt lat="45.76376" lon="6.61996">
        <ele>1230</ele>
        <time>2022-08-16T08:59:33Z</time>
      </trkpt>
      <trkpt lat="45.7638" lon="6.62001">
        <ele>1229</ele>
        <time>2022-08-16T08:59:34Z</time>
      </trkpt>
      <trkpt lat="45.76385" lon="6.62006">
        <ele>1229</ele>
        <time>2022-08-16T08:59:35Z</time>
      </trkpt>
      <trkpt lat="45.76389" lon="6.62012">
        <ele>1228</ele>
        <time>2022-08-16T08:59:36Z</time>
      </trkpt>
      <trkpt lat="45.76394" lon="6.62018">
        <ele>1228</ele>
        <time>2022-08-16T08:59:37Z</time>
      </trkpt>
      <trkpt lat="45.76399" lon="6.62025">
        <ele>1228</ele>
        <time>2022-08-16T08:59:38Z</time>
      </trkpt>
      <trkpt lat="45.76403" lon="6.62031">
        <ele>1228</ele>
        <time>2022-08-16T08:59:39Z</time>
      </trkpt>
      <trkpt lat="45.76406" lon="6.62036">
        <ele>1227</ele>
        <time>2022-08-16T08:59:40Z</time>
      </trkpt>
      <trkpt lat="45.76409" lon="6.62042">
        <ele>1227</ele>
        <time>2022-08-16T08:59:41Z</time>
      </trkpt>
      <trkpt lat="45.76412" lon="6.62048">
        <ele>1226</ele>
        <time>2022-08-16T08:59:42Z</time>
      </trkpt>
      <trkpt lat="45.76414" lon="6.62054">
        <ele>1226</ele>
        <time>2022-08-16T08:59:43Z</time>
      </trkpt>
      <trkpt lat="45.76417" lon="6.62059">
        <ele>1226</ele>
        <time>2022-08-16T08:59:44Z</time>
      </trkpt>
      <trkpt lat="45.76421" lon="6.62063">
        <ele>1226</ele>
        <time>2022-08-16T08:59:45Z</time>
      </trkpt>
      <trkpt lat="45.76424" lon="6.62067">
        <ele>1225</ele>
        <time>2022-08-16T08:59:46Z</time>
      </trkpt>
      <trkpt lat="45.76427" lon="6.62071">
        <ele>1225</ele>
        <time>2022-08-16T08:59:47Z</time>
      </trkpt>
      <trkpt lat="45.7643" lon="6.62075">
        <ele>1225</ele>
        <time>2022-08-16T08:59:48Z</time>
      </trkpt>
      <trkpt lat="45.76433" lon="6.6208">
        <ele>1225</ele>
        <time>2022-08-16T08:59:49Z</time>
      </trkpt>
      <trkpt lat="45.76436" lon="6.62083">
        <ele>1224</ele>
        <time>2022-08-16T08:59:50Z</time>
      </trkpt>
      <trkpt lat="45.76439" lon="6.62087">
        <ele>1225</ele>
        <time>2022-08-16T08:59:51Z</time>
      </trkpt>
      <trkpt lat="45.76442" lon="6.62091">
        <ele>1224</ele>
        <time>2022-08-16T08:59:52Z</time>
      </trkpt>
      <trkpt lat="45.76446" lon="6.62094">
        <ele>1224</ele>
        <time>2022-08-16T08:59:53Z</time>
      </trkpt>
      <trkpt lat="45.76448" lon="6.62098">
        <ele>1224</ele>
        <time>2022-08-16T08:59:54Z</time>
      </trkpt>
      <trkpt lat="45.76451" lon="6.62101">
        <ele>1224</ele>
        <time>2022-08-16T08:59:55Z</time>
      </trkpt>
      <trkpt lat="45.76453" lon="6.62105">
        <ele>1224</ele>
        <time>2022-08-16T08:59:56Z</time>
      </trkpt>
      <trkpt lat="45.76455" lon="6.62109">
        <ele>1224</ele>
        <time>2022-08-16T08:59:57Z</time>
      </trkpt>
      <trkpt lat="45.76456" lon="6.62112">
        <ele>1224</ele>
        <time>2022-08-16T08:59:58Z</time>
      </trkpt>
      <trkpt lat="45.76459" lon="6.62116">
        <ele>1224</ele>
        <time>2022-08-16T08:59:59Z</time>
      </trkpt>
      <trkpt lat="45.76461" lon="6.62118">
        <ele>1224</ele>
        <time>2022-08-16T09:00:00Z</time>
      </trkpt>
      <trkpt lat="45.76463" lon="6.62121">
        <ele>1224</ele>
        <time>2022-08-16T09:00:01Z</time>
      </trkpt>
      <trkpt lat="45.76465" lon="6.62124">
        <ele>1224</ele>
        <time>2022-08-16T09:00:02Z</time>
      </trkpt>
      <trkpt lat="45.76466" lon="6.62127">
        <ele>1225</ele>
        <time>2022-08-16T09:00:03Z</time>
      </trkpt>
      <trkpt lat="45.76468" lon="6.6213">
        <ele>1225</ele>
        <time>2022-08-16T09:00:04Z</time>
      </trkpt>
      <trkpt lat="45.7647" lon="6.62132">
        <ele>1225</ele>
        <time>2022-08-16T09:00:05Z</time>
      </trkpt>
      <trkpt lat="45.76472" lon="6.62135">
        <ele>1225</ele>
        <time>2022-08-16T09:00:06Z</time>
      </trkpt>
      <trkpt lat="45.76475" lon="6.62137">
        <ele>1226</ele>
        <time>2022-08-16T09:00:07Z</time>
      </trkpt>
      <trkpt lat="45.76476" lon="6.6214">
        <ele>1226</ele>
        <time>2022-08-16T09:00:08Z</time>
      </trkpt>
      <trkpt lat="45.76478" lon="6.62141">
        <ele>1226</ele>
        <time>2022-08-16T09:00:09Z</time>
      </trkpt>
      <trkpt lat="45.7648" lon="6.62143">
        <ele>1227</ele>
        <time>2022-08-16T09:00:10Z</time>
      </trkpt>
      <trkpt lat="45.76482" lon="6.62145">
        <ele>1227</ele>
        <time>2022-08-16T09:00:11Z</time>
      </trkpt>
      <trkpt lat="45.76484" lon="6.62148">
        <ele>1227</ele>
        <time>2022-08-16T09:00:12Z</time>
      </trkpt>
      <trkpt lat="45.76487" lon="6.62151">
        <ele>1227</ele>
        <time>2022-08-16T09:00:13Z</time>
      </trkpt>
      <trkpt lat="45.76489" lon="6.62153">
        <ele>1227</ele>
        <time>2022-08-16T09:00:14Z</time>
      </trkpt>
      <trkpt lat="45.76491" lon="6.62157">
        <ele>1228</ele>
        <time>2022-08-16T09:00:15Z</time>
      </trkpt>
      <trkpt lat="45.76493" lon="6.6216">
        <ele>1228</ele>
        <time>2022-08-16T09:00:16Z</time>
      </trkpt>
      <trkpt lat="45.76495" lon="6.62163">
        <ele>1228</ele>
        <time>2022-08-16T09:00:17Z</time>
      </trkpt>
      <trkpt lat="45.76497" lon="6.62167">
        <ele>1228</ele>
        <time>2022-08-16T09:00:18Z</time>
      </trkpt>
      <trkpt lat="45.76499" lon="6.62171">
        <ele>1227</ele>
        <time>2022-08-16T09:00:19Z</time>
      </trkpt>
      <trkpt lat="45.76502" lon="6.62175">
        <ele>1227</ele>
        <time>2022-08-16T09:00:20Z</time>
      </trkpt>
      <trkpt lat="45.76504" lon="6.6218">
        <ele>1227</ele>
        <time>2022-08-16T09:00:21Z</time>
      </trkpt>
      <trkpt lat="45.76507" lon="6.62185">
        <ele>1226</ele>
        <time>2022-08-16T09:00:22Z</time>
      </trkpt>
      <trkpt lat="45.76509" lon="6.62189">
        <ele>1226</ele>
        <time>2022-08-16T09:00:23Z</time>
      </trkpt>
      <trkpt lat="45.76513" lon="6.62193">
        <ele>1225</ele>
        <time>2022-08-16T09:00:24Z</time>
      </trkpt>
      <trkpt lat="45.76515" lon="6.62197">
        <ele>1226</ele>
        <time>2022-08-16T09:00:25Z</time>
      </trkpt>
      <trkpt lat="45.76518" lon="6.622">
        <ele>1226</ele>
        <time>2022-08-16T09:00:26Z</time>
      </trkpt>
      <trkpt lat="45.76522" lon="6.62205">
        <ele>1225</ele>
        <time>2022-08-16T09:00:27Z</time>
      </trkpt>
      <trkpt lat="45.76527" lon="6.62211">
        <ele>1225</ele>
        <time>2022-08-16T09:00:28Z</time>
      </trkpt>
      <trkpt lat="45.76531" lon="6.62217">
        <ele>1225</ele>
        <time>2022-08-16T09:00:29Z</time>
      </trkpt>
      <trkpt lat="45.76535" lon="6.62223">
        <ele>1225</ele>
        <time>2022-08-16T09:00:30Z</time>
      </trkpt>
      <trkpt lat="45.76539" lon="6.6223">
        <ele>1225</ele>
        <time>2022-08-16T09:00:31Z</time>
      </trkpt>
      <trkpt lat="45.76543" lon="6.62237">
        <ele>1226</ele>
        <time>2022-08-16T09:00:32Z</time>
      </trkpt>
      <trkpt lat="45.76547" lon="6.62244">
        <ele>1226</ele>
        <time>2022-08-16T09:00:33Z</time>
      </trkpt>
      <trkpt lat="45.76551" lon="6.62252">
        <ele>1226</ele>
        <time>2022-08-16T09:00:34Z</time>
      </trkpt>
      <trkpt lat="45.76556" lon="6.62257">
        <ele>1226</ele>
        <time>2022-08-16T09:00:35Z</time>
      </trkpt>
      <trkpt lat="45.76562" lon="6.62263">
        <ele>1226</ele>
        <time>2022-08-16T09:00:36Z</time>
      </trkpt>
      <trkpt lat="45.76567" lon="6.62268">
        <ele>1227</ele>
        <time>2022-08-16T09:00:37Z</time>
      </trkpt>
      <trkpt lat="45.76573" lon="6.62273">
        <ele>1227</ele>
        <time>2022-08-16T09:00:38Z</time>
      </trkpt>
      <trkpt lat="45.7658" lon="6.62277">
        <ele>1226</ele>
        <time>2022-08-16T09:00:39Z</time>
      </trkpt>
      <trkpt lat="45.76587" lon="6.62281">
        <ele>1226</ele>
        <time>2022-08-16T09:00:40Z</time>
      </trkpt>
      <trkpt lat="45.76594" lon="6.62285">
        <ele>1226</ele>
        <time>2022-08-16T09:00:41Z</time>
      </trkpt>
      <trkpt lat="45.76601" lon="6.6229">
        <ele>1225</ele>
        <time>2022-08-16T09:00:42Z</time>
      </trkpt>
      <trkpt lat="45.76609" lon="6.62293">
        <ele>1225</ele>
        <time>2022-08-16T09:00:43Z</time>
      </trkpt>
      <trkpt lat="45.76617" lon="6.62296">
        <ele>1225</ele>
        <time>2022-08-16T09:00:44Z</time>
      </trkpt>
      <trkpt lat="45.76625" lon="6.62298">
        <ele>1225</ele>
        <time>2022-08-16T09:00:45Z</time>
      </trkpt>
      <trkpt lat="45.76633" lon="6.62297">
        <ele>1225</ele>
        <time>2022-08-16T09:00:46Z</time>
      </trkpt>
      <trkpt lat="45.76643" lon="6.62294">
        <ele>1224</ele>
        <time>2022-08-16T09:00:47Z</time>
      </trkpt>
      <trkpt lat="45.76652" lon="6.6229">
        <ele>1224</ele>
        <time>2022-08-16T09:00:48Z</time>
      </trkpt>
      <trkpt lat="45.76661" lon="6.62287">
        <ele>1223</ele>
        <time>2022-08-16T09:00:49Z</time>
      </trkpt>
      <trkpt lat="45.7667" lon="6.62284">
        <ele>1223</ele>
        <time>2022-08-16T09:00:50Z</time>
      </trkpt>
      <trkpt lat="45.76679" lon="6.62281">
        <ele>1223</ele>
        <time>2022-08-16T09:00:51Z</time>
      </trkpt>
      <trkpt lat="45.76687" lon="6.62278">
        <ele>1223</ele>
        <time>2022-08-16T09:00:52Z</time>
      </trkpt>
      <trkpt lat="45.76694" lon="6.62275">
        <ele>1223</ele>
        <time>2022-08-16T09:00:53Z</time>
      </trkpt>
      <trkpt lat="45.76701" lon="6.62272">
        <ele>1223</ele>
        <time>2022-08-16T09:00:54Z</time>
      </trkpt>
      <trkpt lat="45.76708" lon="6.6227">
        <ele>1223</ele>
        <time>2022-08-16T09:00:55Z</time>
      </trkpt>
      <trkpt lat="45.76713" lon="6.62268">
        <ele>1223</ele>
        <time>2022-08-16T09:00:56Z</time>
      </trkpt>
      <trkpt lat="45.76719" lon="6.62266">
        <ele>1224</ele>
        <time>2022-08-16T09:00:57Z</time>
      </trkpt>
      <trkpt lat="45.76723" lon="6.62264">
        <ele>1224</ele>
        <time>2022-08-16T09:00:58Z</time>
      </trkpt>
      <trkpt lat="45.76727" lon="6.62263">
        <ele>1224</ele>
        <time>2022-08-16T09:00:59Z</time>
      </trkpt>
      <trkpt lat="45.7673" lon="6.62261">
        <ele>1225</ele>
        <time>2022-08-16T09:01:00Z</time>
      </trkpt>
      <trkpt lat="45.76733" lon="6.6226">
        <ele>1225</ele>
        <time>2022-08-16T09:01:01Z</time>
      </trkpt>
      <trkpt lat="45.76735" lon="6.62259">
        <ele>1225</ele>
        <time>2022-08-16T09:01:02Z</time>
      </trkpt>
      <trkpt lat="45.76738" lon="6.62259">
        <ele>1226</ele>
        <time>2022-08-16T09:01:03Z</time>
      </trkpt>
      <trkpt lat="45.7674" lon="6.62259">
        <ele>1226</ele>
        <time>2022-08-16T09:01:04Z</time>
      </trkpt>
      <trkpt lat="45.76741" lon="6.62258">
        <ele>1226</ele>
        <time>2022-08-16T09:01:05Z</time>
      </trkpt>
      <trkpt lat="45.76743" lon="6.62258">
        <ele>1226</ele>
        <time>2022-08-16T09:01:06Z</time>
      </trkpt>
      <trkpt lat="45.76745" lon="6.62258">
        <ele>1226</ele>
        <time>2022-08-16T09:01:07Z</time>
      </trkpt>
      <trkpt lat="45.76747" lon="6.62258">
        <ele>1226</ele>
        <time>2022-08-16T09:01:08Z</time>
      </trkpt>
      <trkpt lat="45.76749" lon="6.62258">
        <ele>1226</ele>
        <time>2022-08-16T09:01:09Z</time>
      </trkpt>
      <trkpt lat="45.76751" lon="6.62257">
        <ele>1226</ele>
        <time>2022-08-16T09:01:10Z</time>
      </trkpt>
      <trkpt lat="45.76753" lon="6.62256">
        <ele>1226</ele>
        <time>2022-08-16T09:01:11Z</time>
      </trkpt>
      <trkpt lat="45.76756" lon="6.62256">
        <ele>1226</ele>
        <time>2022-08-16T09:01:12Z</time>
      </trkpt>
      <trkpt lat="45.76758" lon="6.62255">
        <ele>1226</ele>
        <time>2022-08-16T09:01:13Z</time>
      </trkpt>
      <trkpt lat="45.7676" lon="6.62254">
        <ele>1226</ele>
        <time>2022-08-16T09:01:14Z</time>
      </trkpt>
      <trkpt lat="45.76762" lon="6.62252">
        <ele>1227</ele>
        <time>2022-08-16T09:01:15Z</time>
      </trkpt>
      <trkpt lat="45.76765" lon="6.62251">
        <ele>1227</ele>
        <time>2022-08-16T09:01:16Z</time>
      </trkpt>
      <trkpt lat="45.76767" lon="6.62251">
        <ele>1227</ele>
        <time>2022-08-16T09:01:17Z</time>
      </trkpt>
      <trkpt lat="45.76769" lon="6.6225">
        <ele>1227</ele>
        <time>2022-08-16T09:01:18Z</time>
      </trkpt>
      <trkpt lat="45.76771" lon="6.62249">
        <ele>1227</ele>
        <time>2022-08-16T09:01:19Z</time>
      </trkpt>
      <trkpt lat="45.76774" lon="6.62249">
        <ele>1228</ele>
        <time>2022-08-16T09:01:20Z</time>
      </trkpt>
      <trkpt lat="45.76776" lon="6.62248">
        <ele>1228</ele>
        <time>2022-08-16T09:01:21Z</time>
      </trkpt>
      <trkpt lat="45.76778" lon="6.62246">
        <ele>1228</ele>
        <time>2022-08-16T09:01:22Z</time>
      </trkpt>
      <trkpt lat="45.76781" lon="6.62245">
        <ele>1228</ele>
        <time>2022-08-16T09:01:23Z</time>
      </trkpt>
      <trkpt lat="45.76783" lon="6.62244">
        <ele>1228</ele>
        <time>2022-08-16T09:01:24Z</time>
      </trkpt>
      <trkpt lat="45.76785" lon="6.62244">
        <ele>1228</ele>
        <time>2022-08-16T09:01:25Z</time>
      </trkpt>
      <trkpt lat="45.76787" lon="6.62243">
        <ele>1228</ele>
        <time>2022-08-16T09:01:26Z</time>
      </trkpt>
      <trkpt lat="45.76789" lon="6.62243">
        <ele>1228</ele>
        <time>2022-08-16T09:01:27Z</time>
      </trkpt>
      <trkpt lat="45.76791" lon="6.62242">
        <ele>1229</ele>
        <time>2022-08-16T09:01:28Z</time>
      </trkpt>
      <trkpt lat="45.76793" lon="6.6224">
        <ele>1229</ele>
        <time>2022-08-16T09:01:29Z</time>
      </trkpt>
      <trkpt lat="45.76795" lon="6.6224">
        <ele>1230</ele>
        <time>2022-08-16T09:01:30Z</time>
      </trkpt>
      <trkpt lat="45.76797" lon="6.62239">
        <ele>1230</ele>
        <time>2022-08-16T09:01:31Z</time>
      </trkpt>
      <trkpt lat="45.76799" lon="6.62239">
        <ele>1230</ele>
        <time>2022-08-16T09:01:32Z</time>
      </trkpt>
      <trkpt lat="45.76801" lon="6.62238">
        <ele>1230</ele>
        <time>2022-08-16T09:01:33Z</time>
      </trkpt>
      <trkpt lat="45.76803" lon="6.62238">
        <ele>1231</ele>
        <time>2022-08-16T09:01:34Z</time>
      </trkpt>
      <trkpt lat="45.76805" lon="6.62238">
        <ele>1231</ele>
        <time>2022-08-16T09:01:35Z</time>
      </trkpt>
      <trkpt lat="45.76806" lon="6.62237">
        <ele>1231</ele>
        <time>2022-08-16T09:01:36Z</time>
      </trkpt>
      <trkpt lat="45.76806" lon="6.62237">
        <ele>1231</ele>
        <time>2022-08-16T09:01:37Z</time>
      </trkpt>
      <trkpt lat="45.76806" lon="6.62237">
        <ele>1231</ele>
        <time>2022-08-16T09:01:38Z</time>
      </trkpt>
      <trkpt lat="45.76806" lon="6.62237">
        <ele>1231</ele>
        <time>2022-08-16T09:01:39Z</time>
      </trkpt>
      <trkpt lat="45.76806" lon="6.62237">
        <ele>1231</ele>
        <time>2022-08-16T09:01:40Z</time>
      </trkpt>
      <trkpt lat="45.76806" lon="6.62237">
        <ele>1231</ele>
        <time>2022-08-16T09:01:44Z</time>
      </trkpt>
      <trkpt lat="45.76806" lon="6.62237">
        <ele>1231</ele>
        <time>2022-08-16T09:01:48Z</time>
      </trkpt>
      <trkpt lat="45.76806" lon="6.62237">
        <ele>1231</ele>
        <time>2022-08-16T09:01:52Z</time>
      </trkpt>
      <trkpt lat="45.76806" lon="6.62237">
        <ele>1231</ele>
        <time>2022-08-16T09:01:56Z</time>
      </trkpt>
      <trkpt lat="45.76806" lon="6.62237">
        <ele>1231</ele>
        <time>2022-08-16T09:02:00Z</time>
      </trkpt>
      <trkpt lat="45.76806" lon="6.62237">
        <ele>1231</ele>
        <time>2022-08-16T09:02:04Z</time>
      </trkpt>
      <trkpt lat="45.76806" lon="6.62237">
        <ele>1231</ele>
        <time>2022-08-16T09:02:08Z</time>
      </trkpt>
      <trkpt lat="45.76806" lon="6.62237">
        <ele>1231</ele>
        <time>2022-08-16T09:02:12Z</time>
      </trkpt>
      <trkpt lat="45.76806" lon="6.62237">
        <ele>1231</ele>
        <time>2022-08-16T09:02:16Z</time>
      </trkpt>
      <trkpt lat="45.76806" lon="6.62237">
        <ele>1231</ele>
        <time>2022-08-16T09:02:20Z</time>
      </trkpt>
      <trkpt lat="45.76806" lon="6.62237">
        <ele>1231</ele>
        <time>2022-08-16T09:02:24Z</time>
      </trkpt>
      <trkpt lat="45.76806" lon="6.62237">
        <ele>1231</ele>
        <time>2022-08-16T09:02:28Z</time>
      </trkpt>
      <trkpt lat="45.76806" lon="6.62237">
        <ele>1231</ele>
        <time>2022-08-16T09:02:32Z</time>
      </trkpt>
      <trkpt lat="45.76806" lon="6.62237">
        <ele>1231</ele>
        <time>2022-08-16T09:02:36Z</time>
      </trkpt>
      <trkpt lat="45.76806" lon="6.62237">
        <ele>1231</ele>
        <time>2022-08-16T09:02:40Z</time>
      </trkpt>
      <trkpt lat="45.76806" lon="6.62237">
        <ele>1231</ele>
        <time>2022-08-16T09:02:44Z</time>
      </trkpt>
      <trkpt lat="45.76806" lon="6.62237">
        <ele>1231</ele>
        <time>2022-08-16T09:02:48Z</time>
      </trkpt>
      <trkpt lat="45.76806" lon="6.62237">
        <ele>1231</ele>
        <time>2022-08-16T09:02:52Z</time>
      </trkpt>
      <trkpt lat="45.76806" lon="6.62237">
        <ele>1231</ele>
        <time>2022-08-16T09:02:56Z</time>
      </trkpt>
      <trkpt lat="45.76806" lon="6.62237">
        <ele>1231</ele>
        <time>2022-08-16T09:03:00Z</time>
      </trkpt>
      <trkpt lat="45.76806" lon="6.62237">
        <ele>1231</ele>
        <time>2022-08-16T09:03:04Z</time>
      </trkpt>
      <trkpt lat="45.76806" lon="6.62237">
        <ele>1231</ele>
        <time>2022-08-16T09:03:08Z</time>
      </trkpt>
      <trkpt lat="45.76806" lon="6.62237">
        <ele>1231</ele>
        <time>2022-08-16T09:03:12Z</time>
      </trkpt>
      <trkpt lat="45.76806" lon="6.62237">
        <ele>1231</ele>
        <time>2022-08-16T09:03:16Z</time>
      </trkpt>
      <trkpt lat="45.76806" lon="6.62237">
        <ele>1231</ele>
        <time>2022-08-16T09:03:20Z</time>
      </trkpt>
      <trkpt lat="45.76806" lon="6.62237">
        <ele>1231</ele>
        <time>2022-08-16T09:03:24Z</time>
      </trkpt>
      <trkpt lat="45.76806" lon="6.62237">
        <ele>1231</ele>
        <time>2022-08-16T09:03:28Z</time>
      </trkpt>
      <trkpt lat="45.76806" lon="6.62237">
        <ele>1231</ele>
        <time>2022-08-16T09:03:32Z</time>
      </trkpt>
      <trkpt lat="45.76806" lon="6.62237">
        <ele>1231</ele>
        <time>2022-08-16T09:03:36Z</time>
      </trkpt>
      <trkpt lat="45.76806" lon="6.62237">
        <ele>1231</ele>
        <time>2022-08-16T09:03:40Z</time>
      </trkpt>
      <trkpt lat="45.76806" lon="6.62237">
        <ele>1231</ele>
        <time>2022-08-16T09:03:44Z</time>
      </trkpt>
      <trkpt lat="45.76806" lon="6.62237">
        <ele>1231</ele>
        <time>2022-08-16T09:03:48Z</time>
      </trkpt>
      <trkpt lat="45.76806" lon="6.62237">
        <ele>1231</ele>
        <time>2022-08-16T09:03:52Z</time>
      </trkpt>
      <trkpt lat="45.76806" lon="6.62237">
        <ele>1231</ele>
        <time>2022-08-16T09:03:56Z</time>
      </trkpt>
      <trkpt lat="45.76805" lon="6.62238">
        <ele>1230</ele>
        <time>2022-08-16T09:03:58Z</time>
      </trkpt>
      <trkpt lat="45.76805" lon="6.62238">
        <ele>1229</ele>
        <time>2022-08-16T09:03:59Z</time>
      </trkpt>
      <trkpt lat="45.76805" lon="6.62238">
        <ele>1229</ele>
        <time>2022-08-16T09:04:00Z</time>
      </trkpt>
      <trkpt lat="45.76805" lon="6.62238">
        <ele>1229</ele>
        <time>2022-08-16T09:04:01Z</time>
      </trkpt>
      <trkpt lat="45.76805" lon="6.62238">
        <ele>1229</ele>
        <time>2022-08-16T09:04:05Z</time>
      </trkpt>
      <trkpt lat="45.76805" lon="6.62238">
        <ele>1229</ele>
        <time>2022-08-16T09:04:09Z</time>
      </trkpt>
      <trkpt lat="45.76805" lon="6.62238">
        <ele>1229</ele>
        <time>2022-08-16T09:04:13Z</time>
      </trkpt>
      <trkpt lat="45.76805" lon="6.62238">
        <ele>1229</ele>
        <time>2022-08-16T09:04:17Z</time>
      </trkpt>
      <trkpt lat="45.76805" lon="6.62238">
        <ele>1229</ele>
        <time>2022-08-16T09:04:21Z</time>
      </trkpt>
      <trkpt lat="45.76805" lon="6.62238">
        <ele>1229</ele>
        <time>2022-08-16T09:04:25Z</time>
      </trkpt>
      <trkpt lat="45.76805" lon="6.62238">
        <ele>1229</ele>
        <time>2022-08-16T09:04:29Z</time>
      </trkpt>
      <trkpt lat="45.76805" lon="6.62238">
        <ele>1229</ele>
        <time>2022-08-16T09:04:33Z</time>
      </trkpt>
      <trkpt lat="45.76805" lon="6.62238">
        <ele>1229</ele>
        <time>2022-08-16T09:04:37Z</time>
      </trkpt>
      <trkpt lat="45.76805" lon="6.62238">
        <ele>1229</ele>
        <time>2022-08-16T09:04:41Z</time>
      </trkpt>
      <trkpt lat="45.76805" lon="6.62238">
        <ele>1229</ele>
        <time>2022-08-16T09:04:45Z</time>
      </trkpt>
      <trkpt lat="45.76805" lon="6.62238">
        <ele>1229</ele>
        <time>2022-08-16T09:04:49Z</time>
      </trkpt>
      <trkpt lat="45.76805" lon="6.62238">
        <ele>1229</ele>
        <time>2022-08-16T09:04:53Z</time>
      </trkpt>
      <trkpt lat="45.76805" lon="6.62238">
        <ele>1229</ele>
        <time>2022-08-16T09:04:54Z</time>
      </trkpt>
      <trkpt lat="45.76805" lon="6.62238">
        <ele>1228</ele>
        <time>2022-08-16T09:04:55Z</time>
      </trkpt>
      <trkpt lat="45.76805" lon="6.62238">
        <ele>1228</ele>
        <time>2022-08-16T09:04:56Z</time>
      </trkpt>
      <trkpt lat="45.76805" lon="6.62238">
        <ele>1228</ele>
        <time>2022-08-16T09:04:57Z</time>
      </trkpt>
      <trkpt lat="45.76805" lon="6.62238">
        <ele>1228</ele>
        <time>2022-08-16T09:04:58Z</time>
      </trkpt>
      <trkpt lat="45.76805" lon="6.62238">
        <ele>1228</ele>
        <time>2022-08-16T09:05:02Z</time>
      </trkpt>
      <trkpt lat="45.76805" lon="6.62238">
        <ele>1228</ele>
        <time>2022-08-16T09:05:06Z</time>
      </trkpt>
      <trkpt lat="45.76805" lon="6.62238">
        <ele>1228</ele>
        <time>2022-08-16T09:05:10Z</time>
      </trkpt>
      <trkpt lat="45.76805" lon="6.62238">
        <ele>1228</ele>
        <time>2022-08-16T09:05:14Z</time>
      </trkpt>
      <trkpt lat="45.76805" lon="6.62239">
        <ele>1228</ele>
        <time>2022-08-16T09:05:18Z</time>
      </trkpt>
      <trkpt lat="45.76806" lon="6.62239">
        <ele>1229</ele>
        <time>2022-08-16T09:05:19Z</time>
      </trkpt>
      <trkpt lat="45.76807" lon="6.62237">
        <ele>1229</ele>
        <time>2022-08-16T09:05:20Z</time>
      </trkpt>
      <trkpt lat="45.76808" lon="6.62237">
        <ele>1229</ele>
        <time>2022-08-16T09:05:21Z</time>
      </trkpt>
      <trkpt lat="45.7681" lon="6.62236">
        <ele>1229</ele>
        <time>2022-08-16T09:05:22Z</time>
      </trkpt>
      <trkpt lat="45.76811" lon="6.62236">
        <ele>1229</ele>
        <time>2022-08-16T09:05:23Z</time>
      </trkpt>
      <trkpt lat="45.76812" lon="6.62235">
        <ele>1229</ele>
        <time>2022-08-16T09:05:24Z</time>
      </trkpt>
      <trkpt lat="45.76814" lon="6.62234">
        <ele>1229</ele>
        <time>2022-08-16T09:05:25Z</time>
      </trkpt>
      <trkpt lat="45.76816" lon="6.62234">
        <ele>1228</ele>
        <time>2022-08-16T09:05:26Z</time>
      </trkpt>
      <trkpt lat="45.76818" lon="6.62234">
        <ele>1228</ele>
        <time>2022-08-16T09:05:27Z</time>
      </trkpt>
      <trkpt lat="45.7682" lon="6.62233">
        <ele>1228</ele>
        <time>2022-08-16T09:05:28Z</time>
      </trkpt>
      <trkpt lat="45.76822" lon="6.62232">
        <ele>1228</ele>
        <time>2022-08-16T09:05:29Z</time>
      </trkpt>
      <trkpt lat="45.76823" lon="6.62231">
        <ele>1228</ele>
        <time>2022-08-16T09:05:30Z</time>
      </trkpt>
      <trkpt lat="45.76825" lon="6.6223">
        <ele>1227</ele>
        <time>2022-08-16T09:05:31Z</time>
      </trkpt>
      <trkpt lat="45.76827" lon="6.6223">
        <ele>1227</ele>
        <time>2022-08-16T09:05:32Z</time>
      </trkpt>
      <trkpt lat="45.76829" lon="6.62229">
        <ele>1227</ele>
        <time>2022-08-16T09:05:33Z</time>
      </trkpt>
      <trkpt lat="45.76831" lon="6.62229">
        <ele>1227</ele>
        <time>2022-08-16T09:05:34Z</time>
      </trkpt>
      <trkpt lat="45.76833" lon="6.62227">
        <ele>1227</ele>
        <time>2022-08-16T09:05:35Z</time>
      </trkpt>
      <trkpt lat="45.76836" lon="6.62226">
        <ele>1227</ele>
        <time>2022-08-16T09:05:36Z</time>
      </trkpt>
      <trkpt lat="45.76838" lon="6.62225">
        <ele>1227</ele>
        <time>2022-08-16T09:05:37Z</time>
      </trkpt>
      <trkpt lat="45.7684" lon="6.62225">
        <ele>1227</ele>
        <time>2022-08-16T09:05:38Z</time>
      </trkpt>
      <trkpt lat="45.76841" lon="6.62224">
        <ele>1227</ele>
        <time>2022-08-16T09:05:39Z</time>
      </trkpt>
      <trkpt lat="45.76843" lon="6.62223">
        <ele>1227</ele>
        <time>2022-08-16T09:05:40Z</time>
      </trkpt>
      <trkpt lat="45.76845" lon="6.62222">
        <ele>1227</ele>
        <time>2022-08-16T09:05:41Z</time>
      </trkpt>
      <trkpt lat="45.76847" lon="6.62222">
        <ele>1227</ele>
        <time>2022-08-16T09:05:42Z</time>
      </trkpt>
      <trkpt lat="45.76849" lon="6.62221">
        <ele>1227</ele>
        <time>2022-08-16T09:05:43Z</time>
      </trkpt>
      <trkpt lat="45.7685" lon="6.62221">
        <ele>1227</ele>
        <time>2022-08-16T09:05:44Z</time>
      </trkpt>
      <trkpt lat="45.76852" lon="6.6222">
        <ele>1227</ele>
        <time>2022-08-16T09:05:45Z</time>
      </trkpt>
      <trkpt lat="45.76854" lon="6.6222">
        <ele>1228</ele>
        <time>2022-08-16T09:05:46Z</time>
      </trkpt>
      <trkpt lat="45.76856" lon="6.62219">
        <ele>1228</ele>
        <time>2022-08-16T09:05:47Z</time>
      </trkpt>
      <trkpt lat="45.76858" lon="6.62218">
        <ele>1229</ele>
        <time>2022-08-16T09:05:48Z</time>
      </trkpt>
      <trkpt lat="45.76859" lon="6.62217">
        <ele>1229</ele>
        <time>2022-08-16T09:05:49Z</time>
      </trkpt>
      <trkpt lat="45.76861" lon="6.62216">
        <ele>1229</ele>
        <time>2022-08-16T09:05:50Z</time>
      </trkpt>
      <trkpt lat="45.76863" lon="6.62215">
        <ele>1229</ele>
        <time>2022-08-16T09:05:51Z</time>
      </trkpt>
      <trkpt lat="45.76865" lon="6.62214">
        <ele>1230</ele>
        <time>2022-08-16T09:05:52Z</time>
      </trkpt>
      <trkpt lat="45.76867" lon="6.62214">
        <ele>1230</ele>
        <time>2022-08-16T09:05:53Z</time>
      </trkpt>
      <trkpt lat="45.76869" lon="6.62214">
        <ele>1230</ele>
        <time>2022-08-16T09:05:54Z</time>
      </trkpt>
      <trkpt lat="45.76871" lon="6.62214">
        <ele>1230</ele>
        <time>2022-08-16T09:05:55Z</time>
      </trkpt>
      <trkpt lat="45.76873" lon="6.62214">
        <ele>1230</ele>
        <time>2022-08-16T09:05:56Z</time>
      </trkpt>
      <trkpt lat="45.76875" lon="6.62214">
        <ele>1230</ele>
        <time>2022-08-16T09:05:57Z</time>
      </trkpt>
      <trkpt lat="45.76877" lon="6.62214">
        <ele>1230</ele>
        <time>2022-08-16T09:05:58Z</time>
      </trkpt>
      <trkpt lat="45.76879" lon="6.62214">
        <ele>1230</ele>
        <time>2022-08-16T09:05:59Z</time>
      </trkpt>
      <trkpt lat="45.76881" lon="6.62214">
        <ele>1230</ele>
        <time>2022-08-16T09:06:00Z</time>
      </trkpt>
      <trkpt lat="45.76883" lon="6.62214">
        <ele>1230</ele>
        <time>2022-08-16T09:06:01Z</time>
      </trkpt>
      <trkpt lat="45.76885" lon="6.62214">
        <ele>1230</ele>
        <time>2022-08-16T09:06:02Z</time>
      </trkpt>
      <trkpt lat="45.76887" lon="6.62214">
        <ele>1230</ele>
        <time>2022-08-16T09:06:03Z</time>
      </trkpt>
      <trkpt lat="45.76889" lon="6.62215">
        <ele>1231</ele>
        <time>2022-08-16T09:06:04Z</time>
      </trkpt>
      <trkpt lat="45.7689" lon="6.62215">
        <ele>1231</ele>
        <time>2022-08-16T09:06:05Z</time>
      </trkpt>
      <trkpt lat="45.76892" lon="6.62216">
        <ele>1231</ele>
        <time>2022-08-16T09:06:06Z</time>
      </trkpt>
      <trkpt lat="45.76894" lon="6.62217">
        <ele>1231</ele>
        <time>2022-08-16T09:06:07Z</time>
      </trkpt>
      <trkpt lat="45.76896" lon="6.62218">
        <ele>1232</ele>
        <time>2022-08-16T09:06:08Z</time>
      </trkpt>
      <trkpt lat="45.76897" lon="6.6222">
        <ele>1233</ele>
        <time>2022-08-16T09:06:09Z</time>
      </trkpt>
      <trkpt lat="45.76899" lon="6.62221">
        <ele>1233</ele>
        <time>2022-08-16T09:06:10Z</time>
      </trkpt>
      <trkpt lat="45.76901" lon="6.62223">
        <ele>1233</ele>
        <time>2022-08-16T09:06:11Z</time>
      </trkpt>
      <trkpt lat="45.76903" lon="6.62224">
        <ele>1234</ele>
        <time>2022-08-16T09:06:12Z</time>
      </trkpt>
      <trkpt lat="45.76905" lon="6.62226">
        <ele>1234</ele>
        <time>2022-08-16T09:06:13Z</time>
      </trkpt>
      <trkpt lat="45.76907" lon="6.62228">
        <ele>1234</ele>
        <time>2022-08-16T09:06:14Z</time>
      </trkpt>
      <trkpt lat="45.76908" lon="6.62231">
        <ele>1235</ele>
        <time>2022-08-16T09:06:15Z</time>
      </trkpt>
      <trkpt lat="45.7691" lon="6.62234">
        <ele>1235</ele>
        <time>2022-08-16T09:06:16Z</time>
      </trkpt>
      <trkpt lat="45.76911" lon="6.62237">
        <ele>1235</ele>
        <time>2022-08-16T09:06:17Z</time>
      </trkpt>
      <trkpt lat="45.76913" lon="6.6224">
        <ele>1235</ele>
        <time>2022-08-16T09:06:18Z</time>
      </trkpt>
      <trkpt lat="45.76915" lon="6.62243">
        <ele>1235</ele>
        <time>2022-08-16T09:06:19Z</time>
      </trkpt>
      <trkpt lat="45.76916" lon="6.62246">
        <ele>1236</ele>
        <time>2022-08-16T09:06:20Z</time>
      </trkpt>
      <trkpt lat="45.76917" lon="6.62249">
        <ele>1235</ele>
        <time>2022-08-16T09:06:21Z</time>
      </trkpt>
      <trkpt lat="45.76918" lon="6.62252">
        <ele>1235</ele>
        <time>2022-08-16T09:06:22Z</time>
      </trkpt>
      <trkpt lat="45.76918" lon="6.62255">
        <ele>1235</ele>
        <time>2022-08-16T09:06:23Z</time>
      </trkpt>
      <trkpt lat="45.7692" lon="6.62258">
        <ele>1235</ele>
        <time>2022-08-16T09:06:24Z</time>
      </trkpt>
      <trkpt lat="45.76921" lon="6.62262">
        <ele>1234</ele>
        <time>2022-08-16T09:06:25Z</time>
      </trkpt>
      <trkpt lat="45.76922" lon="6.62265">
        <ele>1234</ele>
        <time>2022-08-16T09:06:26Z</time>
      </trkpt>
      <trkpt lat="45.76923" lon="6.62269">
        <ele>1234</ele>
        <time>2022-08-16T09:06:27Z</time>
      </trkpt>
      <trkpt lat="45.76924" lon="6.62273">
        <ele>1235</ele>
        <time>2022-08-16T09:06:28Z</time>
      </trkpt>
      <trkpt lat="45.76925" lon="6.62276">
        <ele>1235</ele>
        <time>2022-08-16T09:06:29Z</time>
      </trkpt>
      <trkpt lat="45.76926" lon="6.62281">
        <ele>1235</ele>
        <time>2022-08-16T09:06:30Z</time>
      </trkpt>
      <trkpt lat="45.76927" lon="6.62285">
        <ele>1235</ele>
        <time>2022-08-16T09:06:31Z</time>
      </trkpt>
      <trkpt lat="45.76928" lon="6.6229">
        <ele>1235</ele>
        <time>2022-08-16T09:06:32Z</time>
      </trkpt>
      <trkpt lat="45.76929" lon="6.62294">
        <ele>1235</ele>
        <time>2022-08-16T09:06:33Z</time>
      </trkpt>
      <trkpt lat="45.76929" lon="6.62299">
        <ele>1235</ele>
        <time>2022-08-16T09:06:34Z</time>
      </trkpt>
      <trkpt lat="45.76929" lon="6.62302">
        <ele>1235</ele>
        <time>2022-08-16T09:06:35Z</time>
      </trkpt>
      <trkpt lat="45.7693" lon="6.62307">
        <ele>1235</ele>
        <time>2022-08-16T09:06:36Z</time>
      </trkpt>
      <trkpt lat="45.76931" lon="6.6231">
        <ele>1235</ele>
        <time>2022-08-16T09:06:37Z</time>
      </trkpt>
      <trkpt lat="45.76931" lon="6.62313">
        <ele>1234</ele>
        <time>2022-08-16T09:06:38Z</time>
      </trkpt>
      <trkpt lat="45.76932" lon="6.62317">
        <ele>1234</ele>
        <time>2022-08-16T09:06:39Z</time>
      </trkpt>
      <trkpt lat="45.76932" lon="6.62321">
        <ele>1234</ele>
        <time>2022-08-16T09:06:40Z</time>
      </trkpt>
      <trkpt lat="45.76933" lon="6.62324">
        <ele>1234</ele>
        <time>2022-08-16T09:06:41Z</time>
      </trkpt>
      <trkpt lat="45.76934" lon="6.62328">
        <ele>1234</ele>
        <time>2022-08-16T09:06:42Z</time>
      </trkpt>
      <trkpt lat="45.76934" lon="6.62332">
        <ele>1235</ele>
        <time>2022-08-16T09:06:43Z</time>
      </trkpt>
      <trkpt lat="45.76935" lon="6.62337">
        <ele>1235</ele>
        <time>2022-08-16T09:06:44Z</time>
      </trkpt>
      <trkpt lat="45.76936" lon="6.62342">
        <ele>1235</ele>
        <time>2022-08-16T09:06:45Z</time>
      </trkpt>
      <trkpt lat="45.76936" lon="6.62346">
        <ele>1235</ele>
        <time>2022-08-16T09:06:46Z</time>
      </trkpt>
      <trkpt lat="45.76937" lon="6.62351">
        <ele>1235</ele>
        <time>2022-08-16T09:06:47Z</time>
      </trkpt>
      <trkpt lat="45.76938" lon="6.62355">
        <ele>1234</ele>
        <time>2022-08-16T09:06:48Z</time>
      </trkpt>
      <trkpt lat="45.76939" lon="6.6236">
        <ele>1235</ele>
        <time>2022-08-16T09:06:49Z</time>
      </trkpt>
      <trkpt lat="45.7694" lon="6.62365">
        <ele>1235</ele>
        <time>2022-08-16T09:06:50Z</time>
      </trkpt>
      <trkpt lat="45.76941" lon="6.6237">
        <ele>1235</ele>
        <time>2022-08-16T09:06:51Z</time>
      </trkpt>
      <trkpt lat="45.76943" lon="6.62375">
        <ele>1234</ele>
        <time>2022-08-16T09:06:52Z</time>
      </trkpt>
      <trkpt lat="45.76944" lon="6.6238">
        <ele>1233</ele>
        <time>2022-08-16T09:06:53Z</time>
      </trkpt>
      <trkpt lat="45.76946" lon="6.62385">
        <ele>1233</ele>
        <time>2022-08-16T09:06:54Z</time>
      </trkpt>
      <trkpt lat="45.76948" lon="6.6239">
        <ele>1233</ele>
        <time>2022-08-16T09:06:55Z</time>
      </trkpt>
      <trkpt lat="45.76949" lon="6.62396">
        <ele>1233</ele>
        <time>2022-08-16T09:06:56Z</time>
      </trkpt>
      <trkpt lat="45.76951" lon="6.62401">
        <ele>1234</ele>
        <time>2022-08-16T09:06:57Z</time>
      </trkpt>
      <trkpt lat="45.76953" lon="6.62406">
        <ele>1234</ele>
        <time>2022-08-16T09:06:58Z</time>
      </trkpt>
      <trkpt lat="45.76955" lon="6.62412">
        <ele>1234</ele>
        <time>2022-08-16T09:06:59Z</time>
      </trkpt>
      <trkpt lat="45.76957" lon="6.62417">
        <ele>1234</ele>
        <time>2022-08-16T09:07:00Z</time>
      </trkpt>
      <trkpt lat="45.76958" lon="6.62422">
        <ele>1234</ele>
        <time>2022-08-16T09:07:01Z</time>
      </trkpt>
      <trkpt lat="45.7696" lon="6.62427">
        <ele>1234</ele>
        <time>2022-08-16T09:07:02Z</time>
      </trkpt>
      <trkpt lat="45.76962" lon="6.62432">
        <ele>1234</ele>
        <time>2022-08-16T09:07:03Z</time>
      </trkpt>
      <trkpt lat="45.76963" lon="6.62437">
        <ele>1234</ele>
        <time>2022-08-16T09:07:04Z</time>
      </trkpt>
      <trkpt lat="45.76965" lon="6.62442">
        <ele>1234</ele>
        <time>2022-08-16T09:07:05Z</time>
      </trkpt>
      <trkpt lat="45.76967" lon="6.62447">
        <ele>1233</ele>
        <time>2022-08-16T09:07:06Z</time>
      </trkpt>
      <trkpt lat="45.76968" lon="6.62452">
        <ele>1233</ele>
        <time>2022-08-16T09:07:07Z</time>
      </trkpt>
      <trkpt lat="45.76969" lon="6.62457">
        <ele>1233</ele>
        <time>2022-08-16T09:07:08Z</time>
      </trkpt>
      <trkpt lat="45.7697" lon="6.62462">
        <ele>1233</ele>
        <time>2022-08-16T09:07:09Z</time>
      </trkpt>
      <trkpt lat="45.76972" lon="6.62467">
        <ele>1233</ele>
        <time>2022-08-16T09:07:10Z</time>
      </trkpt>
      <trkpt lat="45.76973" lon="6.62472">
        <ele>1233</ele>
        <time>2022-08-16T09:07:11Z</time>
      </trkpt>
      <trkpt lat="45.76975" lon="6.62478">
        <ele>1233</ele>
        <time>2022-08-16T09:07:12Z</time>
      </trkpt>
      <trkpt lat="45.76976" lon="6.62483">
        <ele>1233</ele>
        <time>2022-08-16T09:07:13Z</time>
      </trkpt>
      <trkpt lat="45.76978" lon="6.62489">
        <ele>1233</ele>
        <time>2022-08-16T09:07:14Z</time>
      </trkpt>
      <trkpt lat="45.76979" lon="6.62494">
        <ele>1233</ele>
        <time>2022-08-16T09:07:15Z</time>
      </trkpt>
      <trkpt lat="45.7698" lon="6.62499">
        <ele>1233</ele>
        <time>2022-08-16T09:07:16Z</time>
      </trkpt>
      <trkpt lat="45.76981" lon="6.62505">
        <ele>1233</ele>
        <time>2022-08-16T09:07:17Z</time>
      </trkpt>
      <trkpt lat="45.76983" lon="6.62511">
        <ele>1233</ele>
        <time>2022-08-16T09:07:18Z</time>
      </trkpt>
      <trkpt lat="45.76985" lon="6.62517">
        <ele>1233</ele>
        <time>2022-08-16T09:07:19Z</time>
      </trkpt>
      <trkpt lat="45.76986" lon="6.62522">
        <ele>1232</ele>
        <time>2022-08-16T09:07:20Z</time>
      </trkpt>
      <trkpt lat="45.76987" lon="6.62529">
        <ele>1232</ele>
        <time>2022-08-16T09:07:21Z</time>
      </trkpt>
      <trkpt lat="45.76989" lon="6.62535">
        <ele>1232</ele>
        <time>2022-08-16T09:07:22Z</time>
      </trkpt>
      <trkpt lat="45.7699" lon="6.62541">
        <ele>1232</ele>
        <time>2022-08-16T09:07:23Z</time>
      </trkpt>
      <trkpt lat="45.76991" lon="6.62547">
        <ele>1233</ele>
        <time>2022-08-16T09:07:24Z</time>
      </trkpt>
      <trkpt lat="45.76993" lon="6.62552">
        <ele>1232</ele>
        <time>2022-08-16T09:07:25Z</time>
      </trkpt>
      <trkpt lat="45.76994" lon="6.62558">
        <ele>1232</ele>
        <time>2022-08-16T09:07:26Z</time>
      </trkpt>
      <trkpt lat="45.76996" lon="6.62563">
        <ele>1232</ele>
        <time>2022-08-16T09:07:27Z</time>
      </trkpt>
      <trkpt lat="45.76997" lon="6.62569">
        <ele>1232</ele>
        <time>2022-08-16T09:07:28Z</time>
      </trkpt>
      <trkpt lat="45.76999" lon="6.62575">
        <ele>1232</ele>
        <time>2022-08-16T09:07:29Z</time>
      </trkpt>
      <trkpt lat="45.77001" lon="6.6258">
        <ele>1232</ele>
        <time>2022-08-16T09:07:30Z</time>
      </trkpt>
      <trkpt lat="45.77002" lon="6.62586">
        <ele>1233</ele>
        <time>2022-08-16T09:07:31Z</time>
      </trkpt>
      <trkpt lat="45.77004" lon="6.62591">
        <ele>1233</ele>
        <time>2022-08-16T09:07:32Z</time>
      </trkpt>
      <trkpt lat="45.77006" lon="6.62596">
        <ele>1233</ele>
        <time>2022-08-16T09:07:33Z</time>
      </trkpt>
      <trkpt lat="45.77008" lon="6.626">
        <ele>1234</ele>
        <time>2022-08-16T09:07:34Z</time>
      </trkpt>
      <trkpt lat="45.7701" lon="6.62605">
        <ele>1234</ele>
        <time>2022-08-16T09:07:35Z</time>
      </trkpt>
      <trkpt lat="45.77012" lon="6.6261">
        <ele>1234</ele>
        <time>2022-08-16T09:07:36Z</time>
      </trkpt>
      <trkpt lat="45.77015" lon="6.62614">
        <ele>1234</ele>
        <time>2022-08-16T09:07:37Z</time>
      </trkpt>
      <trkpt lat="45.77018" lon="6.62619">
        <ele>1234</ele>
        <time>2022-08-16T09:07:38Z</time>
      </trkpt>
      <trkpt lat="45.7702" lon="6.62623">
        <ele>1234</ele>
        <time>2022-08-16T09:07:39Z</time>
      </trkpt>
      <trkpt lat="45.77022" lon="6.62628">
        <ele>1235</ele>
        <time>2022-08-16T09:07:40Z</time>
      </trkpt>
      <trkpt lat="45.77025" lon="6.62633">
        <ele>1235</ele>
        <time>2022-08-16T09:07:41Z</time>
      </trkpt>
      <trkpt lat="45.77027" lon="6.62637">
        <ele>1235</ele>
        <time>2022-08-16T09:07:42Z</time>
      </trkpt>
      <trkpt lat="45.7703" lon="6.62642">
        <ele>1235</ele>
        <time>2022-08-16T09:07:43Z</time>
      </trkpt>
      <trkpt lat="45.77032" lon="6.62647">
        <ele>1235</ele>
        <time>2022-08-16T09:07:44Z</time>
      </trkpt>
      <trkpt lat="45.77034" lon="6.62652">
        <ele>1235</ele>
        <time>2022-08-16T09:07:45Z</time>
      </trkpt>
      <trkpt lat="45.77037" lon="6.62657">
        <ele>1236</ele>
        <time>2022-08-16T09:07:46Z</time>
      </trkpt>
      <trkpt lat="45.77038" lon="6.62663">
        <ele>1236</ele>
        <time>2022-08-16T09:07:47Z</time>
      </trkpt>
      <trkpt lat="45.77041" lon="6.62667">
        <ele>1236</ele>
        <time>2022-08-16T09:07:48Z</time>
      </trkpt>
      <trkpt lat="45.77043" lon="6.62672">
        <ele>1237</ele>
        <time>2022-08-16T09:07:49Z</time>
      </trkpt>
      <trkpt lat="45.77045" lon="6.62676">
        <ele>1237</ele>
        <time>2022-08-16T09:07:50Z</time>
      </trkpt>
      <trkpt lat="45.77047" lon="6.62681">
        <ele>1237</ele>
        <time>2022-08-16T09:07:51Z</time>
      </trkpt>
      <trkpt lat="45.7705" lon="6.62686">
        <ele>1237</ele>
        <time>2022-08-16T09:07:52Z</time>
      </trkpt>
      <trkpt lat="45.77053" lon="6.62691">
        <ele>1237</ele>
        <time>2022-08-16T09:07:53Z</time>
      </trkpt>
      <trkpt lat="45.77056" lon="6.62696">
        <ele>1237</ele>
        <time>2022-08-16T09:07:54Z</time>
      </trkpt>
      <trkpt lat="45.77059" lon="6.62701">
        <ele>1237</ele>
        <time>2022-08-16T09:07:55Z</time>
      </trkpt>
      <trkpt lat="45.77061" lon="6.62705">
        <ele>1237</ele>
        <time>2022-08-16T09:07:56Z</time>
      </trkpt>
      <trkpt lat="45.77064" lon="6.6271">
        <ele>1237</ele>
        <time>2022-08-16T09:07:57Z</time>
      </trkpt>
      <trkpt lat="45.77066" lon="6.62714">
        <ele>1237</ele>
        <time>2022-08-16T09:07:58Z</time>
      </trkpt>
      <trkpt lat="45.77068" lon="6.62719">
        <ele>1237</ele>
        <time>2022-08-16T09:07:59Z</time>
      </trkpt>
      <trkpt lat="45.7707" lon="6.62724">
        <ele>1237</ele>
        <time>2022-08-16T09:08:00Z</time>
      </trkpt>
      <trkpt lat="45.77073" lon="6.62729">
        <ele>1237</ele>
        <time>2022-08-16T09:08:01Z</time>
      </trkpt>
      <trkpt lat="45.77075" lon="6.62733">
        <ele>1237</ele>
        <time>2022-08-16T09:08:02Z</time>
      </trkpt>
      <trkpt lat="45.77078" lon="6.62738">
        <ele>1238</ele>
        <time>2022-08-16T09:08:03Z</time>
      </trkpt>
      <trkpt lat="45.77081" lon="6.62743">
        <ele>1238</ele>
        <time>2022-08-16T09:08:04Z</time>
      </trkpt>
      <trkpt lat="45.77083" lon="6.62748">
        <ele>1238</ele>
        <time>2022-08-16T09:08:05Z</time>
      </trkpt>
      <trkpt lat="45.77086" lon="6.62753">
        <ele>1238</ele>
        <time>2022-08-16T09:08:06Z</time>
      </trkpt>
      <trkpt lat="45.77089" lon="6.62759">
        <ele>1238</ele>
        <time>2022-08-16T09:08:07Z</time>
      </trkpt>
      <trkpt lat="45.77092" lon="6.62764">
        <ele>1237</ele>
        <time>2022-08-16T09:08:08Z</time>
      </trkpt>
      <trkpt lat="45.77094" lon="6.62769">
        <ele>1237</ele>
        <time>2022-08-16T09:08:09Z</time>
      </trkpt>
      <trkpt lat="45.77097" lon="6.62774">
        <ele>1238</ele>
        <time>2022-08-16T09:08:10Z</time>
      </trkpt>
      <trkpt lat="45.77099" lon="6.62779">
        <ele>1238</ele>
        <time>2022-08-16T09:08:11Z</time>
      </trkpt>
      <trkpt lat="45.77102" lon="6.62783">
        <ele>1238</ele>
        <time>2022-08-16T09:08:12Z</time>
      </trkpt>
      <trkpt lat="45.77104" lon="6.62788">
        <ele>1237</ele>
        <time>2022-08-16T09:08:13Z</time>
      </trkpt>
      <trkpt lat="45.77107" lon="6.62793">
        <ele>1238</ele>
        <time>2022-08-16T09:08:14Z</time>
      </trkpt>
      <trkpt lat="45.7711" lon="6.62798">
        <ele>1238</ele>
        <time>2022-08-16T09:08:15Z</time>
      </trkpt>
      <trkpt lat="45.77112" lon="6.62804">
        <ele>1237</ele>
        <time>2022-08-16T09:08:16Z</time>
      </trkpt>
      <trkpt lat="45.77115" lon="6.62809">
        <ele>1238</ele>
        <time>2022-08-16T09:08:17Z</time>
      </trkpt>
      <trkpt lat="45.77117" lon="6.62814">
        <ele>1237</ele>
        <time>2022-08-16T09:08:18Z</time>
      </trkpt>
      <trkpt lat="45.77119" lon="6.62819">
        <ele>1237</ele>
        <time>2022-08-16T09:08:19Z</time>
      </trkpt>
      <trkpt lat="45.77122" lon="6.62823">
        <ele>1237</ele>
        <time>2022-08-16T09:08:20Z</time>
      </trkpt>
      <trkpt lat="45.77124" lon="6.62828">
        <ele>1237</ele>
        <time>2022-08-16T09:08:21Z</time>
      </trkpt>
      <trkpt lat="45.77126" lon="6.62834">
        <ele>1237</ele>
        <time>2022-08-16T09:08:22Z</time>
      </trkpt>
      <trkpt lat="45.77129" lon="6.62839">
        <ele>1237</ele>
        <time>2022-08-16T09:08:23Z</time>
      </trkpt>
      <trkpt lat="45.7713" lon="6.62845">
        <ele>1236</ele>
        <time>2022-08-16T09:08:24Z</time>
      </trkpt>
      <trkpt lat="45.77132" lon="6.6285">
        <ele>1236</ele>
        <time>2022-08-16T09:08:25Z</time>
      </trkpt>
      <trkpt lat="45.77134" lon="6.62855">
        <ele>1236</ele>
        <time>2022-08-16T09:08:26Z</time>
      </trkpt>
      <trkpt lat="45.77135" lon="6.62861">
        <ele>1236</ele>
        <time>2022-08-16T09:08:27Z</time>
      </trkpt>
      <trkpt lat="45.77137" lon="6.62867">
        <ele>1236</ele>
        <time>2022-08-16T09:08:28Z</time>
      </trkpt>
      <trkpt lat="45.77138" lon="6.62872">
        <ele>1236</ele>
        <time>2022-08-16T09:08:29Z</time>
      </trkpt>
      <trkpt lat="45.7714" lon="6.62877">
        <ele>1236</ele>
        <time>2022-08-16T09:08:30Z</time>
      </trkpt>
      <trkpt lat="45.77142" lon="6.62881">
        <ele>1236</ele>
        <time>2022-08-16T09:08:31Z</time>
      </trkpt>
      <trkpt lat="45.77144" lon="6.62885">
        <ele>1236</ele>
        <time>2022-08-16T09:08:32Z</time>
      </trkpt>
      <trkpt lat="45.77146" lon="6.62889">
        <ele>1237</ele>
        <time>2022-08-16T09:08:33Z</time>
      </trkpt>
      <trkpt lat="45.77148" lon="6.62894">
        <ele>1237</ele>
        <time>2022-08-16T09:08:34Z</time>
      </trkpt>
      <trkpt lat="45.77152" lon="6.62898">
        <ele>1237</ele>
        <time>2022-08-16T09:08:35Z</time>
      </trkpt>
      <trkpt lat="45.77155" lon="6.62902">
        <ele>1238</ele>
        <time>2022-08-16T09:08:36Z</time>
      </trkpt>
      <trkpt lat="45.77158" lon="6.62906">
        <ele>1238</ele>
        <time>2022-08-16T09:08:37Z</time>
      </trkpt>
      <trkpt lat="45.7716" lon="6.6291">
        <ele>1238</ele>
        <time>2022-08-16T09:08:38Z</time>
      </trkpt>
      <trkpt lat="45.77162" lon="6.62913">
        <ele>1239</ele>
        <time>2022-08-16T09:08:39Z</time>
      </trkpt>
      <trkpt lat="45.77165" lon="6.62916">
        <ele>1239</ele>
        <time>2022-08-16T09:08:40Z</time>
      </trkpt>
      <trkpt lat="45.77167" lon="6.6292">
        <ele>1239</ele>
        <time>2022-08-16T09:08:41Z</time>
      </trkpt>
      <trkpt lat="45.77169" lon="6.62924">
        <ele>1239</ele>
        <time>2022-08-16T09:08:42Z</time>
      </trkpt>
      <trkpt lat="45.77171" lon="6.62927">
        <ele>1240</ele>
        <time>2022-08-16T09:08:43Z</time>
      </trkpt>
      <trkpt lat="45.77173" lon="6.62931">
        <ele>1240</ele>
        <time>2022-08-16T09:08:44Z</time>
      </trkpt>
      <trkpt lat="45.77175" lon="6.62935">
        <ele>1240</ele>
        <time>2022-08-16T09:08:45Z</time>
      </trkpt>
      <trkpt lat="45.77177" lon="6.62938">
        <ele>1240</ele>
        <time>2022-08-16T09:08:46Z</time>
      </trkpt>
      <trkpt lat="45.77179" lon="6.62942">
        <ele>1240</ele>
        <time>2022-08-16T09:08:47Z</time>
      </trkpt>
      <trkpt lat="45.77181" lon="6.62945">
        <ele>1240</ele>
        <time>2022-08-16T09:08:48Z</time>
      </trkpt>
      <trkpt lat="45.77183" lon="6.62949">
        <ele>1241</ele>
        <time>2022-08-16T09:08:49Z</time>
      </trkpt>
      <trkpt lat="45.77185" lon="6.62953">
        <ele>1241</ele>
        <time>2022-08-16T09:08:50Z</time>
      </trkpt>
      <trkpt lat="45.77187" lon="6.62957">
        <ele>1241</ele>
        <time>2022-08-16T09:08:51Z</time>
      </trkpt>
      <trkpt lat="45.77188" lon="6.62961">
        <ele>1241</ele>
        <time>2022-08-16T09:08:52Z</time>
      </trkpt>
      <trkpt lat="45.77189" lon="6.62964">
        <ele>1242</ele>
        <time>2022-08-16T09:08:53Z</time>
      </trkpt>
      <trkpt lat="45.7719" lon="6.62968">
        <ele>1242</ele>
        <time>2022-08-16T09:08:54Z</time>
      </trkpt>
      <trkpt lat="45.77191" lon="6.62972">
        <ele>1243</ele>
        <time>2022-08-16T09:08:55Z</time>
      </trkpt>
      <trkpt lat="45.77193" lon="6.62975">
        <ele>1243</ele>
        <time>2022-08-16T09:08:56Z</time>
      </trkpt>
      <trkpt lat="45.77194" lon="6.62978">
        <ele>1243</ele>
        <time>2022-08-16T09:08:57Z</time>
      </trkpt>
      <trkpt lat="45.77195" lon="6.62982">
        <ele>1244</ele>
        <time>2022-08-16T09:08:58Z</time>
      </trkpt>
      <trkpt lat="45.77196" lon="6.62985">
        <ele>1244</ele>
        <time>2022-08-16T09:08:59Z</time>
      </trkpt>
      <trkpt lat="45.77197" lon="6.62988">
        <ele>1244</ele>
        <time>2022-08-16T09:09:00Z</time>
      </trkpt>
      <trkpt lat="45.77198" lon="6.62992">
        <ele>1244</ele>
        <time>2022-08-16T09:09:01Z</time>
      </trkpt>
      <trkpt lat="45.772" lon="6.62995">
        <ele>1244</ele>
        <time>2022-08-16T09:09:02Z</time>
      </trkpt>
      <trkpt lat="45.77201" lon="6.62999">
        <ele>1244</ele>
        <time>2022-08-16T09:09:03Z</time>
      </trkpt>
      <trkpt lat="45.77202" lon="6.63002">
        <ele>1244</ele>
        <time>2022-08-16T09:09:04Z</time>
      </trkpt>
      <trkpt lat="45.77204" lon="6.63005">
        <ele>1245</ele>
        <time>2022-08-16T09:09:05Z</time>
      </trkpt>
      <trkpt lat="45.77205" lon="6.63008">
        <ele>1245</ele>
        <time>2022-08-16T09:09:06Z</time>
      </trkpt>
      <trkpt lat="45.77205" lon="6.63012">
        <ele>1245</ele>
        <time>2022-08-16T09:09:07Z</time>
      </trkpt>
      <trkpt lat="45.77206" lon="6.63015">
        <ele>1245</ele>
        <time>2022-08-16T09:09:08Z</time>
      </trkpt>
      <trkpt lat="45.77207" lon="6.63019">
        <ele>1246</ele>
        <time>2022-08-16T09:09:09Z</time>
      </trkpt>
      <trkpt lat="45.77208" lon="6.63024">
        <ele>1246</ele>
        <time>2022-08-16T09:09:10Z</time>
      </trkpt>
      <trkpt lat="45.77209" lon="6.63028">
        <ele>1246</ele>
        <time>2022-08-16T09:09:11Z</time>
      </trkpt>
      <trkpt lat="45.7721" lon="6.63031">
        <ele>1246</ele>
        <time>2022-08-16T09:09:12Z</time>
      </trkpt>
      <trkpt lat="45.77211" lon="6.63035">
        <ele>1247</ele>
        <time>2022-08-16T09:09:13Z</time>
      </trkpt>
      <trkpt lat="45.77212" lon="6.63039">
        <ele>1246</ele>
        <time>2022-08-16T09:09:14Z</time>
      </trkpt>
      <trkpt lat="45.77212" lon="6.63043">
        <ele>1246</ele>
        <time>2022-08-16T09:09:15Z</time>
      </trkpt>
      <trkpt lat="45.77212" lon="6.63047">
        <ele>1246</ele>
        <time>2022-08-16T09:09:16Z</time>
      </trkpt>
      <trkpt lat="45.77212" lon="6.63051">
        <ele>1247</ele>
        <time>2022-08-16T09:09:17Z</time>
      </trkpt>
      <trkpt lat="45.77212" lon="6.63055">
        <ele>1247</ele>
        <time>2022-08-16T09:09:18Z</time>
      </trkpt>
      <trkpt lat="45.77212" lon="6.63059">
        <ele>1246</ele>
        <time>2022-08-16T09:09:19Z</time>
      </trkpt>
      <trkpt lat="45.77212" lon="6.63063">
        <ele>1247</ele>
        <time>2022-08-16T09:09:20Z</time>
      </trkpt>
      <trkpt lat="45.77211" lon="6.63067">
        <ele>1247</ele>
        <time>2022-08-16T09:09:21Z</time>
      </trkpt>
      <trkpt lat="45.7721" lon="6.63071">
        <ele>1247</ele>
        <time>2022-08-16T09:09:22Z</time>
      </trkpt>
      <trkpt lat="45.7721" lon="6.63075">
        <ele>1247</ele>
        <time>2022-08-16T09:09:23Z</time>
      </trkpt>
      <trkpt lat="45.77209" lon="6.63079">
        <ele>1247</ele>
        <time>2022-08-16T09:09:24Z</time>
      </trkpt>
      <trkpt lat="45.77208" lon="6.63083">
        <ele>1247</ele>
        <time>2022-08-16T09:09:25Z</time>
      </trkpt>
      <trkpt lat="45.77207" lon="6.63087">
        <ele>1247</ele>
        <time>2022-08-16T09:09:26Z</time>
      </trkpt>
      <trkpt lat="45.77206" lon="6.6309">
        <ele>1248</ele>
        <time>2022-08-16T09:09:27Z</time>
      </trkpt>
      <trkpt lat="45.77205" lon="6.63094">
        <ele>1248</ele>
        <time>2022-08-16T09:09:28Z</time>
      </trkpt>
      <trkpt lat="45.77204" lon="6.63098">
        <ele>1248</ele>
        <time>2022-08-16T09:09:29Z</time>
      </trkpt>
      <trkpt lat="45.77204" lon="6.63102">
        <ele>1248</ele>
        <time>2022-08-16T09:09:30Z</time>
      </trkpt>
      <trkpt lat="45.77203" lon="6.63105">
        <ele>1248</ele>
        <time>2022-08-16T09:09:31Z</time>
      </trkpt>
      <trkpt lat="45.77202" lon="6.63109">
        <ele>1248</ele>
        <time>2022-08-16T09:09:32Z</time>
      </trkpt>
      <trkpt lat="45.77201" lon="6.63113">
        <ele>1249</ele>
        <time>2022-08-16T09:09:33Z</time>
      </trkpt>
      <trkpt lat="45.772" lon="6.63116">
        <ele>1248</ele>
        <time>2022-08-16T09:09:34Z</time>
      </trkpt>
      <trkpt lat="45.77199" lon="6.6312">
        <ele>1248</ele>
        <time>2022-08-16T09:09:35Z</time>
      </trkpt>
      <trkpt lat="45.77198" lon="6.63124">
        <ele>1248</ele>
        <time>2022-08-16T09:09:36Z</time>
      </trkpt>
      <trkpt lat="45.77197" lon="6.63128">
        <ele>1248</ele>
        <time>2022-08-16T09:09:37Z</time>
      </trkpt>
      <trkpt lat="45.77196" lon="6.63132">
        <ele>1248</ele>
        <time>2022-08-16T09:09:38Z</time>
      </trkpt>
      <trkpt lat="45.77196" lon="6.63136">
        <ele>1248</ele>
        <time>2022-08-16T09:09:39Z</time>
      </trkpt>
      <trkpt lat="45.77195" lon="6.63141">
        <ele>1248</ele>
        <time>2022-08-16T09:09:40Z</time>
      </trkpt>
      <trkpt lat="45.77193" lon="6.63145">
        <ele>1248</ele>
        <time>2022-08-16T09:09:41Z</time>
      </trkpt>
      <trkpt lat="45.77192" lon="6.63148">
        <ele>1248</ele>
        <time>2022-08-16T09:09:42Z</time>
      </trkpt>
      <trkpt lat="45.77191" lon="6.63152">
        <ele>1249</ele>
        <time>2022-08-16T09:09:43Z</time>
      </trkpt>
      <trkpt lat="45.7719" lon="6.63156">
        <ele>1249</ele>
        <time>2022-08-16T09:09:44Z</time>
      </trkpt>
      <trkpt lat="45.77189" lon="6.6316">
        <ele>1249</ele>
        <time>2022-08-16T09:09:45Z</time>
      </trkpt>
      <trkpt lat="45.77188" lon="6.63164">
        <ele>1249</ele>
        <time>2022-08-16T09:09:46Z</time>
      </trkpt>
      <trkpt lat="45.77187" lon="6.63168">
        <ele>1249</ele>
        <time>2022-08-16T09:09:47Z</time>
      </trkpt>
      <trkpt lat="45.77186" lon="6.63172">
        <ele>1250</ele>
        <time>2022-08-16T09:09:48Z</time>
      </trkpt>
      <trkpt lat="45.77185" lon="6.63176">
        <ele>1250</ele>
        <time>2022-08-16T09:09:49Z</time>
      </trkpt>
      <trkpt lat="45.77185" lon="6.6318">
        <ele>1251</ele>
        <time>2022-08-16T09:09:50Z</time>
      </trkpt>
      <trkpt lat="45.77185" lon="6.63184">
        <ele>1251</ele>
        <time>2022-08-16T09:09:51Z</time>
      </trkpt>
      <trkpt lat="45.77185" lon="6.63188">
        <ele>1251</ele>
        <time>2022-08-16T09:09:52Z</time>
      </trkpt>
      <trkpt lat="45.77185" lon="6.63192">
        <ele>1251</ele>
        <time>2022-08-16T09:09:53Z</time>
      </trkpt>
      <trkpt lat="45.77185" lon="6.63196">
        <ele>1251</ele>
        <time>2022-08-16T09:09:54Z</time>
      </trkpt>
      <trkpt lat="45.77185" lon="6.632">
        <ele>1251</ele>
        <time>2022-08-16T09:09:55Z</time>
      </trkpt>
      <trkpt lat="45.77185" lon="6.63205">
        <ele>1251</ele>
        <time>2022-08-16T09:09:56Z</time>
      </trkpt>
      <trkpt lat="45.77185" lon="6.6321">
        <ele>1251</ele>
        <time>2022-08-16T09:09:57Z</time>
      </trkpt>
      <trkpt lat="45.77185" lon="6.63214">
        <ele>1252</ele>
        <time>2022-08-16T09:09:58Z</time>
      </trkpt>
      <trkpt lat="45.77185" lon="6.63219">
        <ele>1253</ele>
        <time>2022-08-16T09:09:59Z</time>
      </trkpt>
      <trkpt lat="45.77186" lon="6.63223">
        <ele>1253</ele>
        <time>2022-08-16T09:10:00Z</time>
      </trkpt>
      <trkpt lat="45.77186" lon="6.63228">
        <ele>1254</ele>
        <time>2022-08-16T09:10:01Z</time>
      </trkpt>
      <trkpt lat="45.77187" lon="6.63232">
        <ele>1254</ele>
        <time>2022-08-16T09:10:02Z</time>
      </trkpt>
      <trkpt lat="45.77187" lon="6.63237">
        <ele>1254</ele>
        <time>2022-08-16T09:10:03Z</time>
      </trkpt>
      <trkpt lat="45.77187" lon="6.63241">
        <ele>1254</ele>
        <time>2022-08-16T09:10:04Z</time>
      </trkpt>
      <trkpt lat="45.77187" lon="6.63246">
        <ele>1255</ele>
        <time>2022-08-16T09:10:05Z</time>
      </trkpt>
      <trkpt lat="45.77188" lon="6.6325">
        <ele>1255</ele>
        <time>2022-08-16T09:10:06Z</time>
      </trkpt>
      <trkpt lat="45.77188" lon="6.63255">
        <ele>1255</ele>
        <time>2022-08-16T09:10:07Z</time>
      </trkpt>
      <trkpt lat="45.77188" lon="6.6326">
        <ele>1255</ele>
        <time>2022-08-16T09:10:08Z</time>
      </trkpt>
      <trkpt lat="45.77188" lon="6.63265">
        <ele>1256</ele>
        <time>2022-08-16T09:10:09Z</time>
      </trkpt>
      <trkpt lat="45.77189" lon="6.6327">
        <ele>1256</ele>
        <time>2022-08-16T09:10:10Z</time>
      </trkpt>
      <trkpt lat="45.77189" lon="6.63274">
        <ele>1256</ele>
        <time>2022-08-16T09:10:11Z</time>
      </trkpt>
      <trkpt lat="45.7719" lon="6.63278">
        <ele>1256</ele>
        <time>2022-08-16T09:10:12Z</time>
      </trkpt>
      <trkpt lat="45.7719" lon="6.63283">
        <ele>1257</ele>
        <time>2022-08-16T09:10:13Z</time>
      </trkpt>
      <trkpt lat="45.7719" lon="6.63287">
        <ele>1257</ele>
        <time>2022-08-16T09:10:14Z</time>
      </trkpt>
      <trkpt lat="45.7719" lon="6.63292">
        <ele>1257</ele>
        <time>2022-08-16T09:10:15Z</time>
      </trkpt>
      <trkpt lat="45.7719" lon="6.63296">
        <ele>1257</ele>
        <time>2022-08-16T09:10:16Z</time>
      </trkpt>
      <trkpt lat="45.7719" lon="6.63301">
        <ele>1257</ele>
        <time>2022-08-16T09:10:17Z</time>
      </trkpt>
      <trkpt lat="45.7719" lon="6.63305">
        <ele>1257</ele>
        <time>2022-08-16T09:10:18Z</time>
      </trkpt>
      <trkpt lat="45.7719" lon="6.6331">
        <ele>1257</ele>
        <time>2022-08-16T09:10:19Z</time>
      </trkpt>
      <trkpt lat="45.77189" lon="6.63315">
        <ele>1257</ele>
        <time>2022-08-16T09:10:20Z</time>
      </trkpt>
      <trkpt lat="45.77189" lon="6.6332">
        <ele>1257</ele>
        <time>2022-08-16T09:10:21Z</time>
      </trkpt>
      <trkpt lat="45.77188" lon="6.63325">
        <ele>1257</ele>
        <time>2022-08-16T09:10:22Z</time>
      </trkpt>
      <trkpt lat="45.77188" lon="6.6333">
        <ele>1257</ele>
        <time>2022-08-16T09:10:23Z</time>
      </trkpt>
      <trkpt lat="45.77187" lon="6.63334">
        <ele>1258</ele>
        <time>2022-08-16T09:10:24Z</time>
      </trkpt>
      <trkpt lat="45.77186" lon="6.63338">
        <ele>1258</ele>
        <time>2022-08-16T09:10:25Z</time>
      </trkpt>
      <trkpt lat="45.77186" lon="6.63342">
        <ele>1258</ele>
        <time>2022-08-16T09:10:26Z</time>
      </trkpt>
      <trkpt lat="45.77185" lon="6.63346">
        <ele>1258</ele>
        <time>2022-08-16T09:10:27Z</time>
      </trkpt>
      <trkpt lat="45.77184" lon="6.63351">
        <ele>1258</ele>
        <time>2022-08-16T09:10:28Z</time>
      </trkpt>
      <trkpt lat="45.77184" lon="6.63355">
        <ele>1258</ele>
        <time>2022-08-16T09:10:29Z</time>
      </trkpt>
      <trkpt lat="45.77183" lon="6.63359">
        <ele>1258</ele>
        <time>2022-08-16T09:10:30Z</time>
      </trkpt>
      <trkpt lat="45.77183" lon="6.63364">
        <ele>1258</ele>
        <time>2022-08-16T09:10:31Z</time>
      </trkpt>
      <trkpt lat="45.77183" lon="6.63368">
        <ele>1258</ele>
        <time>2022-08-16T09:10:32Z</time>
      </trkpt>
      <trkpt lat="45.77182" lon="6.63373">
        <ele>1259</ele>
        <time>2022-08-16T09:10:33Z</time>
      </trkpt>
      <trkpt lat="45.77182" lon="6.63378">
        <ele>1260</ele>
        <time>2022-08-16T09:10:34Z</time>
      </trkpt>
      <trkpt lat="45.77182" lon="6.63382">
        <ele>1260</ele>
        <time>2022-08-16T09:10:35Z</time>
      </trkpt>
      <trkpt lat="45.77182" lon="6.63387">
        <ele>1261</ele>
        <time>2022-08-16T09:10:36Z</time>
      </trkpt>
      <trkpt lat="45.77182" lon="6.63391">
        <ele>1261</ele>
        <time>2022-08-16T09:10:37Z</time>
      </trkpt>
      <trkpt lat="45.77183" lon="6.63396">
        <ele>1261</ele>
        <time>2022-08-16T09:10:38Z</time>
      </trkpt>
      <trkpt lat="45.77183" lon="6.63401">
        <ele>1262</ele>
        <time>2022-08-16T09:10:39Z</time>
      </trkpt>
      <trkpt lat="45.77184" lon="6.63406">
        <ele>1262</ele>
        <time>2022-08-16T09:10:40Z</time>
      </trkpt>
      <trkpt lat="45.77186" lon="6.63411">
        <ele>1262</ele>
        <time>2022-08-16T09:10:41Z</time>
      </trkpt>
      <trkpt lat="45.77187" lon="6.63416">
        <ele>1261</ele>
        <time>2022-08-16T09:10:42Z</time>
      </trkpt>
      <trkpt lat="45.7719" lon="6.63421">
        <ele>1261</ele>
        <time>2022-08-16T09:10:43Z</time>
      </trkpt>
      <trkpt lat="45.77193" lon="6.63426">
        <ele>1261</ele>
        <time>2022-08-16T09:10:44Z</time>
      </trkpt>
      <trkpt lat="45.77196" lon="6.63431">
        <ele>1261</ele>
        <time>2022-08-16T09:10:45Z</time>
      </trkpt>
      <trkpt lat="45.77199" lon="6.63436">
        <ele>1262</ele>
        <time>2022-08-16T09:10:46Z</time>
      </trkpt>
      <trkpt lat="45.77202" lon="6.6344">
        <ele>1262</ele>
        <time>2022-08-16T09:10:47Z</time>
      </trkpt>
      <trkpt lat="45.77205" lon="6.63444">
        <ele>1263</ele>
        <time>2022-08-16T09:10:48Z</time>
      </trkpt>
      <trkpt lat="45.77209" lon="6.63448">
        <ele>1264</ele>
        <time>2022-08-16T09:10:49Z</time>
      </trkpt>
      <trkpt lat="45.77212" lon="6.63452">
        <ele>1264</ele>
        <time>2022-08-16T09:10:50Z</time>
      </trkpt>
      <trkpt lat="45.77215" lon="6.63456">
        <ele>1264</ele>
        <time>2022-08-16T09:10:51Z</time>
      </trkpt>
      <trkpt lat="45.77218" lon="6.63459">
        <ele>1265</ele>
        <time>2022-08-16T09:10:52Z</time>
      </trkpt>
      <trkpt lat="45.77221" lon="6.63462">
        <ele>1265</ele>
        <time>2022-08-16T09:10:53Z</time>
      </trkpt>
      <trkpt lat="45.77223" lon="6.63466">
        <ele>1265</ele>
        <time>2022-08-16T09:10:54Z</time>
      </trkpt>
      <trkpt lat="45.77226" lon="6.6347">
        <ele>1265</ele>
        <time>2022-08-16T09:10:55Z</time>
      </trkpt>
      <trkpt lat="45.77228" lon="6.63475">
        <ele>1265</ele>
        <time>2022-08-16T09:10:56Z</time>
      </trkpt>
      <trkpt lat="45.7723" lon="6.63479">
        <ele>1265</ele>
        <time>2022-08-16T09:10:57Z</time>
      </trkpt>
      <trkpt lat="45.77232" lon="6.63484">
        <ele>1265</ele>
        <time>2022-08-16T09:10:58Z</time>
      </trkpt>
      <trkpt lat="45.77235" lon="6.63488">
        <ele>1266</ele>
        <time>2022-08-16T09:10:59Z</time>
      </trkpt>
      <trkpt lat="45.77237" lon="6.63493">
        <ele>1266</ele>
        <time>2022-08-16T09:11:00Z</time>
      </trkpt>
      <trkpt lat="45.7724" lon="6.63497">
        <ele>1266</ele>
        <time>2022-08-16T09:11:01Z</time>
      </trkpt>
      <trkpt lat="45.77243" lon="6.63502">
        <ele>1266</ele>
        <time>2022-08-16T09:11:02Z</time>
      </trkpt>
      <trkpt lat="45.77246" lon="6.63505">
        <ele>1266</ele>
        <time>2022-08-16T09:11:03Z</time>
      </trkpt>
      <trkpt lat="45.77249" lon="6.63508">
        <ele>1266</ele>
        <time>2022-08-16T09:11:04Z</time>
      </trkpt>
      <trkpt lat="45.77252" lon="6.63511">
        <ele>1266</ele>
        <time>2022-08-16T09:11:05Z</time>
      </trkpt>
      <trkpt lat="45.77256" lon="6.63513">
        <ele>1266</ele>
        <time>2022-08-16T09:11:06Z</time>
      </trkpt>
      <trkpt lat="45.77259" lon="6.63515">
        <ele>1266</ele>
        <time>2022-08-16T09:11:07Z</time>
      </trkpt>
      <trkpt lat="45.77262" lon="6.63517">
        <ele>1266</ele>
        <time>2022-08-16T09:11:08Z</time>
      </trkpt>
      <trkpt lat="45.77265" lon="6.63519">
        <ele>1266</ele>
        <time>2022-08-16T09:11:09Z</time>
      </trkpt>
      <trkpt lat="45.77269" lon="6.63521">
        <ele>1267</ele>
        <time>2022-08-16T09:11:10Z</time>
      </trkpt>
      <trkpt lat="45.77272" lon="6.63523">
        <ele>1267</ele>
        <time>2022-08-16T09:11:11Z</time>
      </trkpt>
      <trkpt lat="45.77275" lon="6.63524">
        <ele>1267</ele>
        <time>2022-08-16T09:11:12Z</time>
      </trkpt>
      <trkpt lat="45.77279" lon="6.63526">
        <ele>1267</ele>
        <time>2022-08-16T09:11:13Z</time>
      </trkpt>
      <trkpt lat="45.77282" lon="6.63528">
        <ele>1267</ele>
        <time>2022-08-16T09:11:14Z</time>
      </trkpt>
      <trkpt lat="45.77285" lon="6.63531">
        <ele>1267</ele>
        <time>2022-08-16T09:11:15Z</time>
      </trkpt>
      <trkpt lat="45.77287" lon="6.63533">
        <ele>1267</ele>
        <time>2022-08-16T09:11:16Z</time>
      </trkpt>
      <trkpt lat="45.7729" lon="6.63536">
        <ele>1267</ele>
        <time>2022-08-16T09:11:17Z</time>
      </trkpt>
      <trkpt lat="45.77293" lon="6.63538">
        <ele>1267</ele>
        <time>2022-08-16T09:11:18Z</time>
      </trkpt>
      <trkpt lat="45.77296" lon="6.63542">
        <ele>1267</ele>
        <time>2022-08-16T09:11:19Z</time>
      </trkpt>
      <trkpt lat="45.77298" lon="6.63546">
        <ele>1267</ele>
        <time>2022-08-16T09:11:20Z</time>
      </trkpt>
      <trkpt lat="45.773" lon="6.63549">
        <ele>1267</ele>
        <time>2022-08-16T09:11:21Z</time>
      </trkpt>
      <trkpt lat="45.77302" lon="6.63554">
        <ele>1267</ele>
        <time>2022-08-16T09:11:22Z</time>
      </trkpt>
      <trkpt lat="45.77304" lon="6.63558">
        <ele>1268</ele>
        <time>2022-08-16T09:11:23Z</time>
      </trkpt>
      <trkpt lat="45.77306" lon="6.63563">
        <ele>1268</ele>
        <time>2022-08-16T09:11:24Z</time>
      </trkpt>
      <trkpt lat="45.77307" lon="6.63569">
        <ele>1267</ele>
        <time>2022-08-16T09:11:25Z</time>
      </trkpt>
      <trkpt lat="45.77309" lon="6.63574">
        <ele>1267</ele>
        <time>2022-08-16T09:11:26Z</time>
      </trkpt>
      <trkpt lat="45.7731" lon="6.6358">
        <ele>1267</ele>
        <time>2022-08-16T09:11:27Z</time>
      </trkpt>
      <trkpt lat="45.77311" lon="6.63585">
        <ele>1266</ele>
        <time>2022-08-16T09:11:28Z</time>
      </trkpt>
      <trkpt lat="45.77312" lon="6.63591">
        <ele>1266</ele>
        <time>2022-08-16T09:11:29Z</time>
      </trkpt>
      <trkpt lat="45.77312" lon="6.63597">
        <ele>1266</ele>
        <time>2022-08-16T09:11:30Z</time>
      </trkpt>
      <trkpt lat="45.77313" lon="6.63602">
        <ele>1266</ele>
        <time>2022-08-16T09:11:31Z</time>
      </trkpt>
      <trkpt lat="45.77313" lon="6.63607">
        <ele>1266</ele>
        <time>2022-08-16T09:11:32Z</time>
      </trkpt>
      <trkpt lat="45.77313" lon="6.63612">
        <ele>1266</ele>
        <time>2022-08-16T09:11:33Z</time>
      </trkpt>
      <trkpt lat="45.77312" lon="6.63618">
        <ele>1266</ele>
        <time>2022-08-16T09:11:34Z</time>
      </trkpt>
      <trkpt lat="45.77311" lon="6.63623">
        <ele>1266</ele>
        <time>2022-08-16T09:11:35Z</time>
      </trkpt>
      <trkpt lat="45.77311" lon="6.63628">
        <ele>1266</ele>
        <time>2022-08-16T09:11:36Z</time>
      </trkpt>
      <trkpt lat="45.7731" lon="6.63633">
        <ele>1266</ele>
        <time>2022-08-16T09:11:37Z</time>
      </trkpt>
      <trkpt lat="45.77309" lon="6.63638">
        <ele>1266</ele>
        <time>2022-08-16T09:11:38Z</time>
      </trkpt>
      <trkpt lat="45.77307" lon="6.63644">
        <ele>1266</ele>
        <time>2022-08-16T09:11:39Z</time>
      </trkpt>
      <trkpt lat="45.77306" lon="6.63649">
        <ele>1266</ele>
        <time>2022-08-16T09:11:40Z</time>
      </trkpt>
      <trkpt lat="45.77305" lon="6.63654">
        <ele>1266</ele>
        <time>2022-08-16T09:11:41Z</time>
      </trkpt>
      <trkpt lat="45.77304" lon="6.63659">
        <ele>1266</ele>
        <time>2022-08-16T09:11:42Z</time>
      </trkpt>
      <trkpt lat="45.77302" lon="6.63663">
        <ele>1266</ele>
        <time>2022-08-16T09:11:43Z</time>
      </trkpt>
      <trkpt lat="45.77301" lon="6.63668">
        <ele>1266</ele>
        <time>2022-08-16T09:11:44Z</time>
      </trkpt>
      <trkpt lat="45.773" lon="6.63672">
        <ele>1266</ele>
        <time>2022-08-16T09:11:45Z</time>
      </trkpt>
      <trkpt lat="45.77298" lon="6.63676">
        <ele>1267</ele>
        <time>2022-08-16T09:11:46Z</time>
      </trkpt>
      <trkpt lat="45.77296" lon="6.6368">
        <ele>1267</ele>
        <time>2022-08-16T09:11:47Z</time>
      </trkpt>
      <trkpt lat="45.77295" lon="6.63685">
        <ele>1266</ele>
        <time>2022-08-16T09:11:48Z</time>
      </trkpt>
      <trkpt lat="45.77293" lon="6.6369">
        <ele>1266</ele>
        <time>2022-08-16T09:11:49Z</time>
      </trkpt>
      <trkpt lat="45.7729" lon="6.63695">
        <ele>1266</ele>
        <time>2022-08-16T09:11:50Z</time>
      </trkpt>
      <trkpt lat="45.77289" lon="6.637">
        <ele>1266</ele>
        <time>2022-08-16T09:11:51Z</time>
      </trkpt>
      <trkpt lat="45.77288" lon="6.63706">
        <ele>1266</ele>
        <time>2022-08-16T09:11:52Z</time>
      </trkpt>
      <trkpt lat="45.77288" lon="6.63712">
        <ele>1266</ele>
        <time>2022-08-16T09:11:53Z</time>
      </trkpt>
      <trkpt lat="45.77289" lon="6.63717">
        <ele>1265</ele>
        <time>2022-08-16T09:11:54Z</time>
      </trkpt>
      <trkpt lat="45.77289" lon="6.63722">
        <ele>1265</ele>
        <time>2022-08-16T09:11:55Z</time>
      </trkpt>
      <trkpt lat="45.77289" lon="6.63727">
        <ele>1265</ele>
        <time>2022-08-16T09:11:56Z</time>
      </trkpt>
      <trkpt lat="45.77289" lon="6.63732">
        <ele>1265</ele>
        <time>2022-08-16T09:11:57Z</time>
      </trkpt>
      <trkpt lat="45.7729" lon="6.63737">
        <ele>1265</ele>
        <time>2022-08-16T09:11:58Z</time>
      </trkpt>
      <trkpt lat="45.7729" lon="6.63742">
        <ele>1266</ele>
        <time>2022-08-16T09:11:59Z</time>
      </trkpt>
      <trkpt lat="45.7729" lon="6.63746">
        <ele>1266</ele>
        <time>2022-08-16T09:12:00Z</time>
      </trkpt>
      <trkpt lat="45.7729" lon="6.63751">
        <ele>1266</ele>
        <time>2022-08-16T09:12:01Z</time>
      </trkpt>
      <trkpt lat="45.77291" lon="6.63756">
        <ele>1266</ele>
        <time>2022-08-16T09:12:02Z</time>
      </trkpt>
      <trkpt lat="45.77291" lon="6.63761">
        <ele>1266</ele>
        <time>2022-08-16T09:12:03Z</time>
      </trkpt>
      <trkpt lat="45.77292" lon="6.63765">
        <ele>1267</ele>
        <time>2022-08-16T09:12:04Z</time>
      </trkpt>
      <trkpt lat="45.77293" lon="6.63769">
        <ele>1267</ele>
        <time>2022-08-16T09:12:05Z</time>
      </trkpt>
      <trkpt lat="45.77294" lon="6.63773">
        <ele>1267</ele>
        <time>2022-08-16T09:12:06Z</time>
      </trkpt>
      <trkpt lat="45.77295" lon="6.63776">
        <ele>1267</ele>
        <time>2022-08-16T09:12:07Z</time>
      </trkpt>
      <trkpt lat="45.77296" lon="6.6378">
        <ele>1268</ele>
        <time>2022-08-16T09:12:08Z</time>
      </trkpt>
      <trkpt lat="45.77297" lon="6.63783">
        <ele>1268</ele>
        <time>2022-08-16T09:12:09Z</time>
      </trkpt>
      <trkpt lat="45.77298" lon="6.63786">
        <ele>1269</ele>
        <time>2022-08-16T09:12:10Z</time>
      </trkpt>
      <trkpt lat="45.77299" lon="6.63789">
        <ele>1269</ele>
        <time>2022-08-16T09:12:11Z</time>
      </trkpt>
      <trkpt lat="45.773" lon="6.63792">
        <ele>1269</ele>
        <time>2022-08-16T09:12:12Z</time>
      </trkpt>
      <trkpt lat="45.77301" lon="6.63794">
        <ele>1269</ele>
        <time>2022-08-16T09:12:13Z</time>
      </trkpt>
      <trkpt lat="45.77302" lon="6.63797">
        <ele>1270</ele>
        <time>2022-08-16T09:12:14Z</time>
      </trkpt>
      <trkpt lat="45.77303" lon="6.63801">
        <ele>1270</ele>
        <time>2022-08-16T09:12:15Z</time>
      </trkpt>
      <trkpt lat="45.77304" lon="6.63803">
        <ele>1270</ele>
        <time>2022-08-16T09:12:16Z</time>
      </trkpt>
      <trkpt lat="45.77304" lon="6.63806">
        <ele>1271</ele>
        <time>2022-08-16T09:12:17Z</time>
      </trkpt>
      <trkpt lat="45.77305" lon="6.63809">
        <ele>1271</ele>
        <time>2022-08-16T09:12:18Z</time>
      </trkpt>
      <trkpt lat="45.77305" lon="6.63812">
        <ele>1271</ele>
        <time>2022-08-16T09:12:19Z</time>
      </trkpt>
      <trkpt lat="45.77306" lon="6.63815">
        <ele>1271</ele>
        <time>2022-08-16T09:12:20Z</time>
      </trkpt>
      <trkpt lat="45.77307" lon="6.63818">
        <ele>1271</ele>
        <time>2022-08-16T09:12:21Z</time>
      </trkpt>
      <trkpt lat="45.77308" lon="6.6382">
        <ele>1272</ele>
        <time>2022-08-16T09:12:22Z</time>
      </trkpt>
      <trkpt lat="45.77308" lon="6.63823">
        <ele>1272</ele>
        <time>2022-08-16T09:12:23Z</time>
      </trkpt>
      <trkpt lat="45.77308" lon="6.63826">
        <ele>1272</ele>
        <time>2022-08-16T09:12:24Z</time>
      </trkpt>
      <trkpt lat="45.77309" lon="6.63828">
        <ele>1272</ele>
        <time>2022-08-16T09:12:25Z</time>
      </trkpt>
      <trkpt lat="45.77309" lon="6.63832">
        <ele>1272</ele>
        <time>2022-08-16T09:12:26Z</time>
      </trkpt>
      <trkpt lat="45.77309" lon="6.63834">
        <ele>1272</ele>
        <time>2022-08-16T09:12:27Z</time>
      </trkpt>
      <trkpt lat="45.77309" lon="6.63838">
        <ele>1273</ele>
        <time>2022-08-16T09:12:28Z</time>
      </trkpt>
      <trkpt lat="45.77309" lon="6.63841">
        <ele>1273</ele>
        <time>2022-08-16T09:12:29Z</time>
      </trkpt>
      <trkpt lat="45.77309" lon="6.63844">
        <ele>1273</ele>
        <time>2022-08-16T09:12:30Z</time>
      </trkpt>
      <trkpt lat="45.77309" lon="6.63847">
        <ele>1273</ele>
        <time>2022-08-16T09:12:31Z</time>
      </trkpt>
      <trkpt lat="45.77309" lon="6.6385">
        <ele>1273</ele>
        <time>2022-08-16T09:12:32Z</time>
      </trkpt>
      <trkpt lat="45.77309" lon="6.63852">
        <ele>1273</ele>
        <time>2022-08-16T09:12:33Z</time>
      </trkpt>
      <trkpt lat="45.77309" lon="6.63855">
        <ele>1273</ele>
        <time>2022-08-16T09:12:34Z</time>
      </trkpt>
      <trkpt lat="45.77309" lon="6.63858">
        <ele>1273</ele>
        <time>2022-08-16T09:12:35Z</time>
      </trkpt>
      <trkpt lat="45.77309" lon="6.6386">
        <ele>1273</ele>
        <time>2022-08-16T09:12:36Z</time>
      </trkpt>
      <trkpt lat="45.77309" lon="6.63863">
        <ele>1273</ele>
        <time>2022-08-16T09:12:37Z</time>
      </trkpt>
      <trkpt lat="45.77308" lon="6.63866">
        <ele>1274</ele>
        <time>2022-08-16T09:12:38Z</time>
      </trkpt>
      <trkpt lat="45.77308" lon="6.63869">
        <ele>1274</ele>
        <time>2022-08-16T09:12:39Z</time>
      </trkpt>
      <trkpt lat="45.77308" lon="6.63871">
        <ele>1274</ele>
        <time>2022-08-16T09:12:40Z</time>
      </trkpt>
      <trkpt lat="45.77308" lon="6.63874">
        <ele>1275</ele>
        <time>2022-08-16T09:12:41Z</time>
      </trkpt>
      <trkpt lat="45.77307" lon="6.63877">
        <ele>1275</ele>
        <time>2022-08-16T09:12:42Z</time>
      </trkpt>
      <trkpt lat="45.77307" lon="6.63879">
        <ele>1275</ele>
        <time>2022-08-16T09:12:43Z</time>
      </trkpt>
      <trkpt lat="45.77307" lon="6.63883">
        <ele>1275</ele>
        <time>2022-08-16T09:12:44Z</time>
      </trkpt>
      <trkpt lat="45.77307" lon="6.63885">
        <ele>1275</ele>
        <time>2022-08-16T09:12:45Z</time>
      </trkpt>
      <trkpt lat="45.77307" lon="6.63888">
        <ele>1275</ele>
        <time>2022-08-16T09:12:46Z</time>
      </trkpt>
      <trkpt lat="45.77307" lon="6.63891">
        <ele>1275</ele>
        <time>2022-08-16T09:12:47Z</time>
      </trkpt>
      <trkpt lat="45.77307" lon="6.63893">
        <ele>1276</ele>
        <time>2022-08-16T09:12:48Z</time>
      </trkpt>
      <trkpt lat="45.77306" lon="6.63896">
        <ele>1276</ele>
        <time>2022-08-16T09:12:49Z</time>
      </trkpt>
      <trkpt lat="45.77306" lon="6.63899">
        <ele>1276</ele>
        <time>2022-08-16T09:12:50Z</time>
      </trkpt>
      <trkpt lat="45.77306" lon="6.63902">
        <ele>1276</ele>
        <time>2022-08-16T09:12:51Z</time>
      </trkpt>
      <trkpt lat="45.77306" lon="6.63904">
        <ele>1276</ele>
        <time>2022-08-16T09:12:52Z</time>
      </trkpt>
      <trkpt lat="45.77305" lon="6.63907">
        <ele>1276</ele>
        <time>2022-08-16T09:12:53Z</time>
      </trkpt>
      <trkpt lat="45.77305" lon="6.6391">
        <ele>1276</ele>
        <time>2022-08-16T09:12:54Z</time>
      </trkpt>
      <trkpt lat="45.77305" lon="6.63913">
        <ele>1277</ele>
        <time>2022-08-16T09:12:55Z</time>
      </trkpt>
      <trkpt lat="45.77305" lon="6.63916">
        <ele>1276</ele>
        <time>2022-08-16T09:12:56Z</time>
      </trkpt>
      <trkpt lat="45.77304" lon="6.63919">
        <ele>1277</ele>
        <time>2022-08-16T09:12:57Z</time>
      </trkpt>
      <trkpt lat="45.77305" lon="6.63922">
        <ele>1277</ele>
        <time>2022-08-16T09:12:58Z</time>
      </trkpt>
      <trkpt lat="45.77305" lon="6.63925">
        <ele>1277</ele>
        <time>2022-08-16T09:12:59Z</time>
      </trkpt>
      <trkpt lat="45.77305" lon="6.63928">
        <ele>1277</ele>
        <time>2022-08-16T09:13:00Z</time>
      </trkpt>
      <trkpt lat="45.77306" lon="6.63932">
        <ele>1277</ele>
        <time>2022-08-16T09:13:01Z</time>
      </trkpt>
      <trkpt lat="45.77306" lon="6.63935">
        <ele>1277</ele>
        <time>2022-08-16T09:13:02Z</time>
      </trkpt>
      <trkpt lat="45.77306" lon="6.63937">
        <ele>1277</ele>
        <time>2022-08-16T09:13:03Z</time>
      </trkpt>
      <trkpt lat="45.77306" lon="6.6394">
        <ele>1278</ele>
        <time>2022-08-16T09:13:04Z</time>
      </trkpt>
      <trkpt lat="45.77306" lon="6.63943">
        <ele>1279</ele>
        <time>2022-08-16T09:13:05Z</time>
      </trkpt>
      <trkpt lat="45.77306" lon="6.63945">
        <ele>1279</ele>
        <time>2022-08-16T09:13:06Z</time>
      </trkpt>
      <trkpt lat="45.77306" lon="6.63948">
        <ele>1279</ele>
        <time>2022-08-16T09:13:07Z</time>
      </trkpt>
      <trkpt lat="45.77307" lon="6.6395">
        <ele>1280</ele>
        <time>2022-08-16T09:13:08Z</time>
      </trkpt>
      <trkpt lat="45.77307" lon="6.63953">
        <ele>1279</ele>
        <time>2022-08-16T09:13:09Z</time>
      </trkpt>
      <trkpt lat="45.77307" lon="6.63956">
        <ele>1280</ele>
        <time>2022-08-16T09:13:10Z</time>
      </trkpt>
      <trkpt lat="45.77307" lon="6.63959">
        <ele>1279</ele>
        <time>2022-08-16T09:13:11Z</time>
      </trkpt>
      <trkpt lat="45.77306" lon="6.63961">
        <ele>1279</ele>
        <time>2022-08-16T09:13:12Z</time>
      </trkpt>
      <trkpt lat="45.77307" lon="6.63964">
        <ele>1280</ele>
        <time>2022-08-16T09:13:13Z</time>
      </trkpt>
      <trkpt lat="45.77307" lon="6.63967">
        <ele>1280</ele>
        <time>2022-08-16T09:13:14Z</time>
      </trkpt>
      <trkpt lat="45.77307" lon="6.6397">
        <ele>1280</ele>
        <time>2022-08-16T09:13:15Z</time>
      </trkpt>
      <trkpt lat="45.77307" lon="6.63972">
        <ele>1281</ele>
        <time>2022-08-16T09:13:16Z</time>
      </trkpt>
      <trkpt lat="45.77308" lon="6.63975">
        <ele>1281</ele>
        <time>2022-08-16T09:13:17Z</time>
      </trkpt>
      <trkpt lat="45.77308" lon="6.63978">
        <ele>1280</ele>
        <time>2022-08-16T09:13:18Z</time>
      </trkpt>
      <trkpt lat="45.77308" lon="6.63981">
        <ele>1280</ele>
        <time>2022-08-16T09:13:19Z</time>
      </trkpt>
      <trkpt lat="45.77308" lon="6.63984">
        <ele>1280</ele>
        <time>2022-08-16T09:13:20Z</time>
      </trkpt>
      <trkpt lat="45.77308" lon="6.63986">
        <ele>1280</ele>
        <time>2022-08-16T09:13:21Z</time>
      </trkpt>
      <trkpt lat="45.77308" lon="6.63989">
        <ele>1280</ele>
        <time>2022-08-16T09:13:22Z</time>
      </trkpt>
      <trkpt lat="45.77308" lon="6.63992">
        <ele>1281</ele>
        <time>2022-08-16T09:13:23Z</time>
      </trkpt>
      <trkpt lat="45.77309" lon="6.63995">
        <ele>1282</ele>
        <time>2022-08-16T09:13:24Z</time>
      </trkpt>
      <trkpt lat="45.77309" lon="6.63998">
        <ele>1282</ele>
        <time>2022-08-16T09:13:25Z</time>
      </trkpt>
      <trkpt lat="45.7731" lon="6.64001">
        <ele>1283</ele>
        <time>2022-08-16T09:13:26Z</time>
      </trkpt>
      <trkpt lat="45.7731" lon="6.64003">
        <ele>1283</ele>
        <time>2022-08-16T09:13:27Z</time>
      </trkpt>
      <trkpt lat="45.77311" lon="6.64005">
        <ele>1284</ele>
        <time>2022-08-16T09:13:28Z</time>
      </trkpt>
      <trkpt lat="45.77312" lon="6.64007">
        <ele>1284</ele>
        <time>2022-08-16T09:13:29Z</time>
      </trkpt>
      <trkpt lat="45.77313" lon="6.64009">
        <ele>1284</ele>
        <time>2022-08-16T09:13:30Z</time>
      </trkpt>
      <trkpt lat="45.77313" lon="6.64011">
        <ele>1284</ele>
        <time>2022-08-16T09:13:31Z</time>
      </trkpt>
      <trkpt lat="45.77313" lon="6.64013">
        <ele>1284</ele>
        <time>2022-08-16T09:13:32Z</time>
      </trkpt>
      <trkpt lat="45.77314" lon="6.64015">
        <ele>1285</ele>
        <time>2022-08-16T09:13:33Z</time>
      </trkpt>
      <trkpt lat="45.77315" lon="6.64015">
        <ele>1285</ele>
        <time>2022-08-16T09:13:34Z</time>
      </trkpt>
      <trkpt lat="45.77316" lon="6.64016">
        <ele>1285</ele>
        <time>2022-08-16T09:13:35Z</time>
      </trkpt>
      <trkpt lat="45.77316" lon="6.64015">
        <ele>1286</ele>
        <time>2022-08-16T09:13:36Z</time>
      </trkpt>
      <trkpt lat="45.77316" lon="6.64013">
        <ele>1288</ele>
        <time>2022-08-16T09:13:37Z</time>
      </trkpt>
      <trkpt lat="45.77316" lon="6.64011">
        <ele>1289</ele>
        <time>2022-08-16T09:13:38Z</time>
      </trkpt>
      <trkpt lat="45.77315" lon="6.64007">
        <ele>1289</ele>
        <time>2022-08-16T09:13:39Z</time>
      </trkpt>
      <trkpt lat="45.77314" lon="6.64004">
        <ele>1289</ele>
        <time>2022-08-16T09:13:40Z</time>
      </trkpt>
      <trkpt lat="45.77313" lon="6.64001">
        <ele>1288</ele>
        <time>2022-08-16T09:13:41Z</time>
      </trkpt>
      <trkpt lat="45.77313" lon="6.63999">
        <ele>1288</ele>
        <time>2022-08-16T09:13:42Z</time>
      </trkpt>
      <trkpt lat="45.77312" lon="6.63997">
        <ele>1287</ele>
        <time>2022-08-16T09:13:43Z</time>
      </trkpt>
      <trkpt lat="45.77311" lon="6.63996">
        <ele>1287</ele>
        <time>2022-08-16T09:13:44Z</time>
      </trkpt>
      <trkpt lat="45.7731" lon="6.63997">
        <ele>1287</ele>
        <time>2022-08-16T09:13:45Z</time>
      </trkpt>
      <trkpt lat="45.77309" lon="6.63999">
        <ele>1287</ele>
        <time>2022-08-16T09:13:46Z</time>
      </trkpt>
      <trkpt lat="45.77309" lon="6.64001">
        <ele>1286</ele>
        <time>2022-08-16T09:13:47Z</time>
      </trkpt>
      <trkpt lat="45.7731" lon="6.64004">
        <ele>1286</ele>
        <time>2022-08-16T09:13:48Z</time>
      </trkpt>
      <trkpt lat="45.77312" lon="6.64006">
        <ele>1286</ele>
        <time>2022-08-16T09:13:49Z</time>
      </trkpt>
      <trkpt lat="45.77313" lon="6.64009">
        <ele>1286</ele>
        <time>2022-08-16T09:13:50Z</time>
      </trkpt>
      <trkpt lat="45.77314" lon="6.64011">
        <ele>1286</ele>
        <time>2022-08-16T09:13:51Z</time>
      </trkpt>
      <trkpt lat="45.77314" lon="6.64013">
        <ele>1287</ele>
        <time>2022-08-16T09:13:52Z</time>
      </trkpt>
      <trkpt lat="45.77315" lon="6.64016">
        <ele>1287</ele>
        <time>2022-08-16T09:13:53Z</time>
      </trkpt>
      <trkpt lat="45.77316" lon="6.64018">
        <ele>1288</ele>
        <time>2022-08-16T09:13:54Z</time>
      </trkpt>
      <trkpt lat="45.77317" lon="6.6402">
        <ele>1288</ele>
        <time>2022-08-16T09:13:55Z</time>
      </trkpt>
      <trkpt lat="45.77318" lon="6.64023">
        <ele>1288</ele>
        <time>2022-08-16T09:13:56Z</time>
      </trkpt>
      <trkpt lat="45.77319" lon="6.64026">
        <ele>1289</ele>
        <time>2022-08-16T09:13:57Z</time>
      </trkpt>
      <trkpt lat="45.7732" lon="6.64029">
        <ele>1288</ele>
        <time>2022-08-16T09:13:58Z</time>
      </trkpt>
      <trkpt lat="45.77321" lon="6.64032">
        <ele>1288</ele>
        <time>2022-08-16T09:13:59Z</time>
      </trkpt>
      <trkpt lat="45.77322" lon="6.64035">
        <ele>1288</ele>
        <time>2022-08-16T09:14:00Z</time>
      </trkpt>
      <trkpt lat="45.77322" lon="6.64037">
        <ele>1289</ele>
        <time>2022-08-16T09:14:01Z</time>
      </trkpt>
      <trkpt lat="45.77323" lon="6.6404">
        <ele>1289</ele>
        <time>2022-08-16T09:14:02Z</time>
      </trkpt>
      <trkpt lat="45.77323" lon="6.64042">
        <ele>1290</ele>
        <time>2022-08-16T09:14:03Z</time>
      </trkpt>
      <trkpt lat="45.77323" lon="6.64045">
        <ele>1290</ele>
        <time>2022-08-16T09:14:04Z</time>
      </trkpt>
      <trkpt lat="45.77324" lon="6.64048">
        <ele>1291</ele>
        <time>2022-08-16T09:14:05Z</time>
      </trkpt>
      <trkpt lat="45.77324" lon="6.64051">
        <ele>1291</ele>
        <time>2022-08-16T09:14:06Z</time>
      </trkpt>
      <trkpt lat="45.77325" lon="6.64053">
        <ele>1292</ele>
        <time>2022-08-16T09:14:07Z</time>
      </trkpt>
      <trkpt lat="45.77325" lon="6.64056">
        <ele>1292</ele>
        <time>2022-08-16T09:14:08Z</time>
      </trkpt>
      <trkpt lat="45.77325" lon="6.64059">
        <ele>1291</ele>
        <time>2022-08-16T09:14:09Z</time>
      </trkpt>
      <trkpt lat="45.77325" lon="6.64061">
        <ele>1291</ele>
        <time>2022-08-16T09:14:10Z</time>
      </trkpt>
      <trkpt lat="45.77325" lon="6.64064">
        <ele>1292</ele>
        <time>2022-08-16T09:14:11Z</time>
      </trkpt>
      <trkpt lat="45.77326" lon="6.64067">
        <ele>1292</ele>
        <time>2022-08-16T09:14:12Z</time>
      </trkpt>
      <trkpt lat="45.77326" lon="6.64069">
        <ele>1293</ele>
        <time>2022-08-16T09:14:13Z</time>
      </trkpt>
      <trkpt lat="45.77327" lon="6.64072">
        <ele>1293</ele>
        <time>2022-08-16T09:14:14Z</time>
      </trkpt>
      <trkpt lat="45.77328" lon="6.64075">
        <ele>1293</ele>
        <time>2022-08-16T09:14:15Z</time>
      </trkpt>
      <trkpt lat="45.77329" lon="6.64077">
        <ele>1294</ele>
        <time>2022-08-16T09:14:16Z</time>
      </trkpt>
      <trkpt lat="45.77331" lon="6.64078">
        <ele>1295</ele>
        <time>2022-08-16T09:14:17Z</time>
      </trkpt>
      <trkpt lat="45.77333" lon="6.64079">
        <ele>1295</ele>
        <time>2022-08-16T09:14:18Z</time>
      </trkpt>
      <trkpt lat="45.77335" lon="6.64079">
        <ele>1296</ele>
        <time>2022-08-16T09:14:19Z</time>
      </trkpt>
      <trkpt lat="45.77336" lon="6.64079">
        <ele>1296</ele>
        <time>2022-08-16T09:14:20Z</time>
      </trkpt>
      <trkpt lat="45.77338" lon="6.64078">
        <ele>1297</ele>
        <time>2022-08-16T09:14:21Z</time>
      </trkpt>
      <trkpt lat="45.7734" lon="6.64076">
        <ele>1297</ele>
        <time>2022-08-16T09:14:22Z</time>
      </trkpt>
      <trkpt lat="45.77342" lon="6.64074">
        <ele>1297</ele>
        <time>2022-08-16T09:14:23Z</time>
      </trkpt>
      <trkpt lat="45.77343" lon="6.6407">
        <ele>1298</ele>
        <time>2022-08-16T09:14:24Z</time>
      </trkpt>
      <trkpt lat="45.77343" lon="6.64067">
        <ele>1298</ele>
        <time>2022-08-16T09:14:25Z</time>
      </trkpt>
      <trkpt lat="45.77344" lon="6.64063">
        <ele>1298</ele>
        <time>2022-08-16T09:14:26Z</time>
      </trkpt>
      <trkpt lat="45.77344" lon="6.64059">
        <ele>1298</ele>
        <time>2022-08-16T09:14:27Z</time>
      </trkpt>
      <trkpt lat="45.77344" lon="6.64056">
        <ele>1298</ele>
        <time>2022-08-16T09:14:28Z</time>
      </trkpt>
      <trkpt lat="45.77344" lon="6.64052">
        <ele>1298</ele>
        <time>2022-08-16T09:14:29Z</time>
      </trkpt>
      <trkpt lat="45.77344" lon="6.64049">
        <ele>1298</ele>
        <time>2022-08-16T09:14:30Z</time>
      </trkpt>
      <trkpt lat="45.77344" lon="6.64046">
        <ele>1298</ele>
        <time>2022-08-16T09:14:31Z</time>
      </trkpt>
      <trkpt lat="45.77344" lon="6.64044">
        <ele>1298</ele>
        <time>2022-08-16T09:14:32Z</time>
      </trkpt>
      <trkpt lat="45.77343" lon="6.64041">
        <ele>1298</ele>
        <time>2022-08-16T09:14:33Z</time>
      </trkpt>
      <trkpt lat="45.77343" lon="6.64038">
        <ele>1298</ele>
        <time>2022-08-16T09:14:34Z</time>
      </trkpt>
      <trkpt lat="45.77343" lon="6.64036">
        <ele>1298</ele>
        <time>2022-08-16T09:14:35Z</time>
      </trkpt>
      <trkpt lat="45.77343" lon="6.64033">
        <ele>1298</ele>
        <time>2022-08-16T09:14:36Z</time>
      </trkpt>
      <trkpt lat="45.77343" lon="6.6403">
        <ele>1297</ele>
        <time>2022-08-16T09:14:37Z</time>
      </trkpt>
      <trkpt lat="45.77343" lon="6.64027">
        <ele>1298</ele>
        <time>2022-08-16T09:14:38Z</time>
      </trkpt>
      <trkpt lat="45.77343" lon="6.64024">
        <ele>1297</ele>
        <time>2022-08-16T09:14:39Z</time>
      </trkpt>
      <trkpt lat="45.77342" lon="6.64021">
        <ele>1297</ele>
        <time>2022-08-16T09:14:40Z</time>
      </trkpt>
      <trkpt lat="45.77343" lon="6.64018">
        <ele>1298</ele>
        <time>2022-08-16T09:14:41Z</time>
      </trkpt>
      <trkpt lat="45.77342" lon="6.64016">
        <ele>1298</ele>
        <time>2022-08-16T09:14:42Z</time>
      </trkpt>
      <trkpt lat="45.77343" lon="6.64013">
        <ele>1298</ele>
        <time>2022-08-16T09:14:43Z</time>
      </trkpt>
      <trkpt lat="45.77343" lon="6.6401">
        <ele>1298</ele>
        <time>2022-08-16T09:14:44Z</time>
      </trkpt>
      <trkpt lat="45.77343" lon="6.64007">
        <ele>1298</ele>
        <time>2022-08-16T09:14:45Z</time>
      </trkpt>
      <trkpt lat="45.77344" lon="6.64005">
        <ele>1297</ele>
        <time>2022-08-16T09:14:46Z</time>
      </trkpt>
      <trkpt lat="45.77344" lon="6.64002">
        <ele>1297</ele>
        <time>2022-08-16T09:14:47Z</time>
      </trkpt>
      <trkpt lat="45.77344" lon="6.64">
        <ele>1297</ele>
        <time>2022-08-16T09:14:48Z</time>
      </trkpt>
      <trkpt lat="45.77344" lon="6.63997">
        <ele>1297</ele>
        <time>2022-08-16T09:14:49Z</time>
      </trkpt>
      <trkpt lat="45.77345" lon="6.63994">
        <ele>1297</ele>
        <time>2022-08-16T09:14:50Z</time>
      </trkpt>
      <trkpt lat="45.77345" lon="6.63991">
        <ele>1297</ele>
        <time>2022-08-16T09:14:51Z</time>
      </trkpt>
      <trkpt lat="45.77346" lon="6.63988">
        <ele>1297</ele>
        <time>2022-08-16T09:14:52Z</time>
      </trkpt>
      <trkpt lat="45.77346" lon="6.63985">
        <ele>1297</ele>
        <time>2022-08-16T09:14:53Z</time>
      </trkpt>
      <trkpt lat="45.77347" lon="6.63983">
        <ele>1297</ele>
        <time>2022-08-16T09:14:54Z</time>
      </trkpt>
      <trkpt lat="45.77348" lon="6.63981">
        <ele>1297</ele>
        <time>2022-08-16T09:14:55Z</time>
      </trkpt>
      <trkpt lat="45.77349" lon="6.63978">
        <ele>1297</ele>
        <time>2022-08-16T09:14:56Z</time>
      </trkpt>
      <trkpt lat="45.77351" lon="6.63975">
        <ele>1296</ele>
        <time>2022-08-16T09:14:57Z</time>
      </trkpt>
      <trkpt lat="45.77352" lon="6.63973">
        <ele>1296</ele>
        <time>2022-08-16T09:14:58Z</time>
      </trkpt>
      <trkpt lat="45.77354" lon="6.6397">
        <ele>1296</ele>
        <time>2022-08-16T09:14:59Z</time>
      </trkpt>
      <trkpt lat="45.77356" lon="6.63968">
        <ele>1297</ele>
        <time>2022-08-16T09:15:00Z</time>
      </trkpt>
      <trkpt lat="45.77357" lon="6.63966">
        <ele>1297</ele>
        <time>2022-08-16T09:15:01Z</time>
      </trkpt>
      <trkpt lat="45.77359" lon="6.63963">
        <ele>1297</ele>
        <time>2022-08-16T09:15:02Z</time>
      </trkpt>
      <trkpt lat="45.77361" lon="6.63961">
        <ele>1297</ele>
        <time>2022-08-16T09:15:03Z</time>
      </trkpt>
      <trkpt lat="45.77363" lon="6.63959">
        <ele>1297</ele>
        <time>2022-08-16T09:15:04Z</time>
      </trkpt>
      <trkpt lat="45.77365" lon="6.63956">
        <ele>1297</ele>
        <time>2022-08-16T09:15:05Z</time>
      </trkpt>
      <trkpt lat="45.77366" lon="6.63954">
        <ele>1297</ele>
        <time>2022-08-16T09:15:06Z</time>
      </trkpt>
      <trkpt lat="45.77368" lon="6.63952">
        <ele>1297</ele>
        <time>2022-08-16T09:15:07Z</time>
      </trkpt>
      <trkpt lat="45.7737" lon="6.6395">
        <ele>1297</ele>
        <time>2022-08-16T09:15:08Z</time>
      </trkpt>
      <trkpt lat="45.77372" lon="6.63948">
        <ele>1297</ele>
        <time>2022-08-16T09:15:09Z</time>
      </trkpt>
      <trkpt lat="45.77374" lon="6.63946">
        <ele>1297</ele>
        <time>2022-08-16T09:15:10Z</time>
      </trkpt>
      <trkpt lat="45.77376" lon="6.63944">
        <ele>1297</ele>
        <time>2022-08-16T09:15:11Z</time>
      </trkpt>
      <trkpt lat="45.77377" lon="6.63942">
        <ele>1298</ele>
        <time>2022-08-16T09:15:12Z</time>
      </trkpt>
      <trkpt lat="45.77379" lon="6.63939">
        <ele>1298</ele>
        <time>2022-08-16T09:15:13Z</time>
      </trkpt>
      <trkpt lat="45.77381" lon="6.63937">
        <ele>1298</ele>
        <time>2022-08-16T09:15:14Z</time>
      </trkpt>
      <trkpt lat="45.77382" lon="6.63935">
        <ele>1297</ele>
        <time>2022-08-16T09:15:15Z</time>
      </trkpt>
      <trkpt lat="45.77384" lon="6.63932">
        <ele>1297</ele>
        <time>2022-08-16T09:15:16Z</time>
      </trkpt>
      <trkpt lat="45.77386" lon="6.6393">
        <ele>1297</ele>
        <time>2022-08-16T09:15:17Z</time>
      </trkpt>
      <trkpt lat="45.77387" lon="6.63928">
        <ele>1297</ele>
        <time>2022-08-16T09:15:18Z</time>
      </trkpt>
      <trkpt lat="45.77389" lon="6.63925">
        <ele>1297</ele>
        <time>2022-08-16T09:15:19Z</time>
      </trkpt>
      <trkpt lat="45.7739" lon="6.63923">
        <ele>1296</ele>
        <time>2022-08-16T09:15:20Z</time>
      </trkpt>
      <trkpt lat="45.77391" lon="6.63921">
        <ele>1296</ele>
        <time>2022-08-16T09:15:21Z</time>
      </trkpt>
      <trkpt lat="45.77392" lon="6.63919">
        <ele>1297</ele>
        <time>2022-08-16T09:15:22Z</time>
      </trkpt>
      <trkpt lat="45.77394" lon="6.63917">
        <ele>1297</ele>
        <time>2022-08-16T09:15:23Z</time>
      </trkpt>
      <trkpt lat="45.77395" lon="6.63914">
        <ele>1297</ele>
        <time>2022-08-16T09:15:24Z</time>
      </trkpt>
      <trkpt lat="45.77396" lon="6.63912">
        <ele>1297</ele>
        <time>2022-08-16T09:15:25Z</time>
      </trkpt>
      <trkpt lat="45.77397" lon="6.6391">
        <ele>1297</ele>
        <time>2022-08-16T09:15:26Z</time>
      </trkpt>
      <trkpt lat="45.77399" lon="6.63908">
        <ele>1298</ele>
        <time>2022-08-16T09:15:27Z</time>
      </trkpt>
      <trkpt lat="45.774" lon="6.63905">
        <ele>1299</ele>
        <time>2022-08-16T09:15:28Z</time>
      </trkpt>
      <trkpt lat="45.77401" lon="6.63903">
        <ele>1299</ele>
        <time>2022-08-16T09:15:29Z</time>
      </trkpt>
      <trkpt lat="45.77402" lon="6.63902">
        <ele>1299</ele>
        <time>2022-08-16T09:15:30Z</time>
      </trkpt>
      <trkpt lat="45.77403" lon="6.639">
        <ele>1300</ele>
        <time>2022-08-16T09:15:31Z</time>
      </trkpt>
      <trkpt lat="45.77404" lon="6.63898">
        <ele>1300</ele>
        <time>2022-08-16T09:15:32Z</time>
      </trkpt>
      <trkpt lat="45.77405" lon="6.63897">
        <ele>1301</ele>
        <time>2022-08-16T09:15:33Z</time>
      </trkpt>
      <trkpt lat="45.77406" lon="6.63895">
        <ele>1301</ele>
        <time>2022-08-16T09:15:34Z</time>
      </trkpt>
      <trkpt lat="45.77407" lon="6.63893">
        <ele>1301</ele>
        <time>2022-08-16T09:15:35Z</time>
      </trkpt>
      <trkpt lat="45.77408" lon="6.6389">
        <ele>1302</ele>
        <time>2022-08-16T09:15:36Z</time>
      </trkpt>
      <trkpt lat="45.77409" lon="6.63888">
        <ele>1302</ele>
        <time>2022-08-16T09:15:37Z</time>
      </trkpt>
      <trkpt lat="45.77411" lon="6.63886">
        <ele>1302</ele>
        <time>2022-08-16T09:15:38Z</time>
      </trkpt>
      <trkpt lat="45.77412" lon="6.63884">
        <ele>1302</ele>
        <time>2022-08-16T09:15:39Z</time>
      </trkpt>
      <trkpt lat="45.77414" lon="6.63882">
        <ele>1303</ele>
        <time>2022-08-16T09:15:40Z</time>
      </trkpt>
      <trkpt lat="45.77415" lon="6.6388">
        <ele>1303</ele>
        <time>2022-08-16T09:15:41Z</time>
      </trkpt>
      <trkpt lat="45.77416" lon="6.63877">
        <ele>1304</ele>
        <time>2022-08-16T09:15:42Z</time>
      </trkpt>
      <trkpt lat="45.77417" lon="6.63875">
        <ele>1304</ele>
        <time>2022-08-16T09:15:43Z</time>
      </trkpt>
      <trkpt lat="45.77419" lon="6.63872">
        <ele>1304</ele>
        <time>2022-08-16T09:15:44Z</time>
      </trkpt>
      <trkpt lat="45.7742" lon="6.63869">
        <ele>1305</ele>
        <time>2022-08-16T09:15:45Z</time>
      </trkpt>
      <trkpt lat="45.77421" lon="6.63866">
        <ele>1305</ele>
        <time>2022-08-16T09:15:46Z</time>
      </trkpt>
      <trkpt lat="45.77423" lon="6.63864">
        <ele>1305</ele>
        <time>2022-08-16T09:15:47Z</time>
      </trkpt>
      <trkpt lat="45.77424" lon="6.63862">
        <ele>1305</ele>
        <time>2022-08-16T09:15:48Z</time>
      </trkpt>
      <trkpt lat="45.77426" lon="6.6386">
        <ele>1305</ele>
        <time>2022-08-16T09:15:49Z</time>
      </trkpt>
      <trkpt lat="45.77428" lon="6.63858">
        <ele>1305</ele>
        <time>2022-08-16T09:15:50Z</time>
      </trkpt>
      <trkpt lat="45.77429" lon="6.63855">
        <ele>1305</ele>
        <time>2022-08-16T09:15:51Z</time>
      </trkpt>
      <trkpt lat="45.77431" lon="6.63852">
        <ele>1305</ele>
        <time>2022-08-16T09:15:52Z</time>
      </trkpt>
      <trkpt lat="45.77433" lon="6.6385">
        <ele>1305</ele>
        <time>2022-08-16T09:15:53Z</time>
      </trkpt>
      <trkpt lat="45.77434" lon="6.63847">
        <ele>1305</ele>
        <time>2022-08-16T09:15:54Z</time>
      </trkpt>
      <trkpt lat="45.77436" lon="6.63844">
        <ele>1305</ele>
        <time>2022-08-16T09:15:55Z</time>
      </trkpt>
      <trkpt lat="45.77438" lon="6.63842">
        <ele>1305</ele>
        <time>2022-08-16T09:15:56Z</time>
      </trkpt>
      <trkpt lat="45.7744" lon="6.63839">
        <ele>1305</ele>
        <time>2022-08-16T09:15:57Z</time>
      </trkpt>
      <trkpt lat="45.77442" lon="6.63837">
        <ele>1305</ele>
        <time>2022-08-16T09:15:58Z</time>
      </trkpt>
      <trkpt lat="45.77443" lon="6.63834">
        <ele>1305</ele>
        <time>2022-08-16T09:15:59Z</time>
      </trkpt>
      <trkpt lat="45.77445" lon="6.63831">
        <ele>1305</ele>
        <time>2022-08-16T09:16:00Z</time>
      </trkpt>
      <trkpt lat="45.77447" lon="6.63829">
        <ele>1305</ele>
        <time>2022-08-16T09:16:01Z</time>
      </trkpt>
      <trkpt lat="45.77449" lon="6.63827">
        <ele>1305</ele>
        <time>2022-08-16T09:16:02Z</time>
      </trkpt>
      <trkpt lat="45.77451" lon="6.63825">
        <ele>1306</ele>
        <time>2022-08-16T09:16:03Z</time>
      </trkpt>
      <trkpt lat="45.77453" lon="6.63823">
        <ele>1306</ele>
        <time>2022-08-16T09:16:04Z</time>
      </trkpt>
      <trkpt lat="45.77454" lon="6.63821">
        <ele>1306</ele>
        <time>2022-08-16T09:16:05Z</time>
      </trkpt>
      <trkpt lat="45.77456" lon="6.63818">
        <ele>1307</ele>
        <time>2022-08-16T09:16:06Z</time>
      </trkpt>
      <trkpt lat="45.77457" lon="6.63815">
        <ele>1307</ele>
        <time>2022-08-16T09:16:07Z</time>
      </trkpt>
      <trkpt lat="45.77458" lon="6.63813">
        <ele>1307</ele>
        <time>2022-08-16T09:16:08Z</time>
      </trkpt>
      <trkpt lat="45.77459" lon="6.6381">
        <ele>1308</ele>
        <time>2022-08-16T09:16:09Z</time>
      </trkpt>
      <trkpt lat="45.7746" lon="6.63808">
        <ele>1308</ele>
        <time>2022-08-16T09:16:10Z</time>
      </trkpt>
      <trkpt lat="45.7746" lon="6.63805">
        <ele>1309</ele>
        <time>2022-08-16T09:16:11Z</time>
      </trkpt>
      <trkpt lat="45.77461" lon="6.63803">
        <ele>1309</ele>
        <time>2022-08-16T09:16:12Z</time>
      </trkpt>
      <trkpt lat="45.77461" lon="6.638">
        <ele>1308</ele>
        <time>2022-08-16T09:16:13Z</time>
      </trkpt>
      <trkpt lat="45.77462" lon="6.63798">
        <ele>1309</ele>
        <time>2022-08-16T09:16:14Z</time>
      </trkpt>
      <trkpt lat="45.77463" lon="6.63795">
        <ele>1309</ele>
        <time>2022-08-16T09:16:15Z</time>
      </trkpt>
      <trkpt lat="45.77463" lon="6.63793">
        <ele>1309</ele>
        <time>2022-08-16T09:16:16Z</time>
      </trkpt>
      <trkpt lat="45.77464" lon="6.63791">
        <ele>1309</ele>
        <time>2022-08-16T09:16:17Z</time>
      </trkpt>
      <trkpt lat="45.77465" lon="6.63788">
        <ele>1310</ele>
        <time>2022-08-16T09:16:18Z</time>
      </trkpt>
      <trkpt lat="45.77466" lon="6.63785">
        <ele>1311</ele>
        <time>2022-08-16T09:16:19Z</time>
      </trkpt>
      <trkpt lat="45.77466" lon="6.63782">
        <ele>1311</ele>
        <time>2022-08-16T09:16:20Z</time>
      </trkpt>
      <trkpt lat="45.77466" lon="6.63779">
        <ele>1311</ele>
        <time>2022-08-16T09:16:21Z</time>
      </trkpt>
      <trkpt lat="45.77467" lon="6.63777">
        <ele>1311</ele>
        <time>2022-08-16T09:16:22Z</time>
      </trkpt>
      <trkpt lat="45.77467" lon="6.63774">
        <ele>1311</ele>
        <time>2022-08-16T09:16:23Z</time>
      </trkpt>
      <trkpt lat="45.77467" lon="6.63772">
        <ele>1311</ele>
        <time>2022-08-16T09:16:24Z</time>
      </trkpt>
      <trkpt lat="45.77468" lon="6.63769">
        <ele>1310</ele>
        <time>2022-08-16T09:16:25Z</time>
      </trkpt>
      <trkpt lat="45.77468" lon="6.63766">
        <ele>1311</ele>
        <time>2022-08-16T09:16:26Z</time>
      </trkpt>
      <trkpt lat="45.77468" lon="6.63763">
        <ele>1311</ele>
        <time>2022-08-16T09:16:27Z</time>
      </trkpt>
      <trkpt lat="45.77468" lon="6.63761">
        <ele>1312</ele>
        <time>2022-08-16T09:16:28Z</time>
      </trkpt>
      <trkpt lat="45.77469" lon="6.63758">
        <ele>1312</ele>
        <time>2022-08-16T09:16:29Z</time>
      </trkpt>
      <trkpt lat="45.77469" lon="6.63755">
        <ele>1313</ele>
        <time>2022-08-16T09:16:30Z</time>
      </trkpt>
      <trkpt lat="45.77469" lon="6.63751">
        <ele>1312</ele>
        <time>2022-08-16T09:16:31Z</time>
      </trkpt>
      <trkpt lat="45.77469" lon="6.63748">
        <ele>1312</ele>
        <time>2022-08-16T09:16:32Z</time>
      </trkpt>
      <trkpt lat="45.77469" lon="6.63746">
        <ele>1312</ele>
        <time>2022-08-16T09:16:33Z</time>
      </trkpt>
      <trkpt lat="45.77469" lon="6.63742">
        <ele>1312</ele>
        <time>2022-08-16T09:16:34Z</time>
      </trkpt>
      <trkpt lat="45.77469" lon="6.63738">
        <ele>1312</ele>
        <time>2022-08-16T09:16:35Z</time>
      </trkpt>
      <trkpt lat="45.7747" lon="6.63735">
        <ele>1312</ele>
        <time>2022-08-16T09:16:36Z</time>
      </trkpt>
      <trkpt lat="45.77471" lon="6.63732">
        <ele>1314</ele>
        <time>2022-08-16T09:16:37Z</time>
      </trkpt>
      <trkpt lat="45.77471" lon="6.63729">
        <ele>1314</ele>
        <time>2022-08-16T09:16:38Z</time>
      </trkpt>
      <trkpt lat="45.77472" lon="6.63726">
        <ele>1315</ele>
        <time>2022-08-16T09:16:39Z</time>
      </trkpt>
      <trkpt lat="45.77473" lon="6.63723">
        <ele>1315</ele>
        <time>2022-08-16T09:16:40Z</time>
      </trkpt>
      <trkpt lat="45.77473" lon="6.6372">
        <ele>1316</ele>
        <time>2022-08-16T09:16:41Z</time>
      </trkpt>
      <trkpt lat="45.77474" lon="6.63717">
        <ele>1315</ele>
        <time>2022-08-16T09:16:42Z</time>
      </trkpt>
      <trkpt lat="45.77474" lon="6.63715">
        <ele>1315</ele>
        <time>2022-08-16T09:16:43Z</time>
      </trkpt>
      <trkpt lat="45.77475" lon="6.63713">
        <ele>1316</ele>
        <time>2022-08-16T09:16:44Z</time>
      </trkpt>
      <trkpt lat="45.77476" lon="6.6371">
        <ele>1316</ele>
        <time>2022-08-16T09:16:45Z</time>
      </trkpt>
      <trkpt lat="45.77476" lon="6.63708">
        <ele>1316</ele>
        <time>2022-08-16T09:16:46Z</time>
      </trkpt>
      <trkpt lat="45.77477" lon="6.63705">
        <ele>1316</ele>
        <time>2022-08-16T09:16:47Z</time>
      </trkpt>
      <trkpt lat="45.77478" lon="6.63702">
        <ele>1317</ele>
        <time>2022-08-16T09:16:48Z</time>
      </trkpt>
      <trkpt lat="45.77478" lon="6.637">
        <ele>1317</ele>
        <time>2022-08-16T09:16:49Z</time>
      </trkpt>
      <trkpt lat="45.77478" lon="6.63696">
        <ele>1318</ele>
        <time>2022-08-16T09:16:50Z</time>
      </trkpt>
      <trkpt lat="45.77478" lon="6.63693">
        <ele>1318</ele>
        <time>2022-08-16T09:16:51Z</time>
      </trkpt>
      <trkpt lat="45.77478" lon="6.6369">
        <ele>1318</ele>
        <time>2022-08-16T09:16:52Z</time>
      </trkpt>
      <trkpt lat="45.77477" lon="6.63687">
        <ele>1318</ele>
        <time>2022-08-16T09:16:53Z</time>
      </trkpt>
      <trkpt lat="45.77477" lon="6.63684">
        <ele>1319</ele>
        <time>2022-08-16T09:16:54Z</time>
      </trkpt>
      <trkpt lat="45.77477" lon="6.63681">
        <ele>1318</ele>
        <time>2022-08-16T09:16:55Z</time>
      </trkpt>
      <trkpt lat="45.77478" lon="6.63677">
        <ele>1318</ele>
        <time>2022-08-16T09:16:56Z</time>
      </trkpt>
      <trkpt lat="45.77478" lon="6.63675">
        <ele>1318</ele>
        <time>2022-08-16T09:16:57Z</time>
      </trkpt>
      <trkpt lat="45.77477" lon="6.63672">
        <ele>1318</ele>
        <time>2022-08-16T09:16:58Z</time>
      </trkpt>
      <trkpt lat="45.77478" lon="6.6367">
        <ele>1318</ele>
        <time>2022-08-16T09:16:59Z</time>
      </trkpt>
      <trkpt lat="45.77478" lon="6.63667">
        <ele>1319</ele>
        <time>2022-08-16T09:17:00Z</time>
      </trkpt>
      <trkpt lat="45.77478" lon="6.63664">
        <ele>1319</ele>
        <time>2022-08-16T09:17:01Z</time>
      </trkpt>
      <trkpt lat="45.77477" lon="6.63661">
        <ele>1318</ele>
        <time>2022-08-16T09:17:02Z</time>
      </trkpt>
      <trkpt lat="45.77477" lon="6.63658">
        <ele>1318</ele>
        <time>2022-08-16T09:17:03Z</time>
      </trkpt>
      <trkpt lat="45.77477" lon="6.63655">
        <ele>1318</ele>
        <time>2022-08-16T09:17:04Z</time>
      </trkpt>
      <trkpt lat="45.77477" lon="6.63652">
        <ele>1318</ele>
        <time>2022-08-16T09:17:05Z</time>
      </trkpt>
      <trkpt lat="45.77477" lon="6.6365">
        <ele>1318</ele>
        <time>2022-08-16T09:17:06Z</time>
      </trkpt>
      <trkpt lat="45.77477" lon="6.63647">
        <ele>1318</ele>
        <time>2022-08-16T09:17:07Z</time>
      </trkpt>
      <trkpt lat="45.77477" lon="6.63644">
        <ele>1317</ele>
        <time>2022-08-16T09:17:08Z</time>
      </trkpt>
      <trkpt lat="45.77478" lon="6.63642">
        <ele>1317</ele>
        <time>2022-08-16T09:17:09Z</time>
      </trkpt>
      <trkpt lat="45.77478" lon="6.6364">
        <ele>1317</ele>
        <time>2022-08-16T09:17:10Z</time>
      </trkpt>
      <trkpt lat="45.77478" lon="6.63637">
        <ele>1317</ele>
        <time>2022-08-16T09:17:11Z</time>
      </trkpt>
      <trkpt lat="45.77479" lon="6.63635">
        <ele>1317</ele>
        <time>2022-08-16T09:17:12Z</time>
      </trkpt>
      <trkpt lat="45.7748" lon="6.63633">
        <ele>1317</ele>
        <time>2022-08-16T09:17:13Z</time>
      </trkpt>
      <trkpt lat="45.77481" lon="6.63631">
        <ele>1317</ele>
        <time>2022-08-16T09:17:14Z</time>
      </trkpt>
      <trkpt lat="45.77482" lon="6.6363">
        <ele>1317</ele>
        <time>2022-08-16T09:17:15Z</time>
      </trkpt>
      <trkpt lat="45.77484" lon="6.63629">
        <ele>1317</ele>
        <time>2022-08-16T09:17:16Z</time>
      </trkpt>
      <trkpt lat="45.77487" lon="6.63629">
        <ele>1317</ele>
        <time>2022-08-16T09:17:17Z</time>
      </trkpt>
      <trkpt lat="45.77489" lon="6.6363">
        <ele>1318</ele>
        <time>2022-08-16T09:17:18Z</time>
      </trkpt>
      <trkpt lat="45.7749" lon="6.63631">
        <ele>1318</ele>
        <time>2022-08-16T09:17:19Z</time>
      </trkpt>
      <trkpt lat="45.77491" lon="6.63634">
        <ele>1317</ele>
        <time>2022-08-16T09:17:20Z</time>
      </trkpt>
      <trkpt lat="45.77492" lon="6.63636">
        <ele>1318</ele>
        <time>2022-08-16T09:17:21Z</time>
      </trkpt>
      <trkpt lat="45.77492" lon="6.63639">
        <ele>1319</ele>
        <time>2022-08-16T09:17:22Z</time>
      </trkpt>
      <trkpt lat="45.77492" lon="6.63642">
        <ele>1319</ele>
        <time>2022-08-16T09:17:23Z</time>
      </trkpt>
      <trkpt lat="45.77493" lon="6.63645">
        <ele>1320</ele>
        <time>2022-08-16T09:17:24Z</time>
      </trkpt>
      <trkpt lat="45.77493" lon="6.63648">
        <ele>1320</ele>
        <time>2022-08-16T09:17:25Z</time>
      </trkpt>
      <trkpt lat="45.77493" lon="6.63651">
        <ele>1320</ele>
        <time>2022-08-16T09:17:26Z</time>
      </trkpt>
      <trkpt lat="45.77493" lon="6.63653">
        <ele>1320</ele>
        <time>2022-08-16T09:17:27Z</time>
      </trkpt>
      <trkpt lat="45.77493" lon="6.63655">
        <ele>1321</ele>
        <time>2022-08-16T09:17:28Z</time>
      </trkpt>
      <trkpt lat="45.77493" lon="6.63658">
        <ele>1321</ele>
        <time>2022-08-16T09:17:29Z</time>
      </trkpt>
      <trkpt lat="45.77494" lon="6.6366">
        <ele>1321</ele>
        <time>2022-08-16T09:17:30Z</time>
      </trkpt>
      <trkpt lat="45.77494" lon="6.63663">
        <ele>1322</ele>
        <time>2022-08-16T09:17:31Z</time>
      </trkpt>
      <trkpt lat="45.77495" lon="6.63665">
        <ele>1322</ele>
        <time>2022-08-16T09:17:32Z</time>
      </trkpt>
      <trkpt lat="45.77495" lon="6.63668">
        <ele>1323</ele>
        <time>2022-08-16T09:17:33Z</time>
      </trkpt>
      <trkpt lat="45.77496" lon="6.63671">
        <ele>1323</ele>
        <time>2022-08-16T09:17:34Z</time>
      </trkpt>
      <trkpt lat="45.77496" lon="6.63674">
        <ele>1324</ele>
        <time>2022-08-16T09:17:35Z</time>
      </trkpt>
      <trkpt lat="45.77497" lon="6.63676">
        <ele>1324</ele>
        <time>2022-08-16T09:17:36Z</time>
      </trkpt>
      <trkpt lat="45.77498" lon="6.63679">
        <ele>1325</ele>
        <time>2022-08-16T09:17:37Z</time>
      </trkpt>
      <trkpt lat="45.77498" lon="6.63681">
        <ele>1325</ele>
        <time>2022-08-16T09:17:38Z</time>
      </trkpt>
      <trkpt lat="45.77498" lon="6.63684">
        <ele>1326</ele>
        <time>2022-08-16T09:17:39Z</time>
      </trkpt>
      <trkpt lat="45.77498" lon="6.63687">
        <ele>1326</ele>
        <time>2022-08-16T09:17:40Z</time>
      </trkpt>
      <trkpt lat="45.77499" lon="6.63689">
        <ele>1326</ele>
        <time>2022-08-16T09:17:41Z</time>
      </trkpt>
      <trkpt lat="45.77499" lon="6.63691">
        <ele>1326</ele>
        <time>2022-08-16T09:17:42Z</time>
      </trkpt>
      <trkpt lat="45.77499" lon="6.63694">
        <ele>1327</ele>
        <time>2022-08-16T09:17:43Z</time>
      </trkpt>
      <trkpt lat="45.77499" lon="6.63696">
        <ele>1327</ele>
        <time>2022-08-16T09:17:44Z</time>
      </trkpt>
      <trkpt lat="45.77499" lon="6.63699">
        <ele>1328</ele>
        <time>2022-08-16T09:17:45Z</time>
      </trkpt>
      <trkpt lat="45.77499" lon="6.63701">
        <ele>1328</ele>
        <time>2022-08-16T09:17:46Z</time>
      </trkpt>
      <trkpt lat="45.77499" lon="6.63704">
        <ele>1328</ele>
        <time>2022-08-16T09:17:47Z</time>
      </trkpt>
      <trkpt lat="45.775" lon="6.63707">
        <ele>1328</ele>
        <time>2022-08-16T09:17:48Z</time>
      </trkpt>
      <trkpt lat="45.775" lon="6.63709">
        <ele>1328</ele>
        <time>2022-08-16T09:17:49Z</time>
      </trkpt>
      <trkpt lat="45.775" lon="6.63712">
        <ele>1329</ele>
        <time>2022-08-16T09:17:50Z</time>
      </trkpt>
      <trkpt lat="45.775" lon="6.63714">
        <ele>1330</ele>
        <time>2022-08-16T09:17:51Z</time>
      </trkpt>
      <trkpt lat="45.775" lon="6.63716">
        <ele>1330</ele>
        <time>2022-08-16T09:17:52Z</time>
      </trkpt>
      <trkpt lat="45.775" lon="6.63719">
        <ele>1331</ele>
        <time>2022-08-16T09:17:53Z</time>
      </trkpt>
      <trkpt lat="45.77501" lon="6.63721">
        <ele>1332</ele>
        <time>2022-08-16T09:17:54Z</time>
      </trkpt>
      <trkpt lat="45.775" lon="6.63723">
        <ele>1332</ele>
        <time>2022-08-16T09:17:55Z</time>
      </trkpt>
      <trkpt lat="45.77501" lon="6.63725">
        <ele>1332</ele>
        <time>2022-08-16T09:17:56Z</time>
      </trkpt>
      <trkpt lat="45.775" lon="6.63728">
        <ele>1332</ele>
        <time>2022-08-16T09:17:57Z</time>
      </trkpt>
      <trkpt lat="45.775" lon="6.63731">
        <ele>1332</ele>
        <time>2022-08-16T09:17:58Z</time>
      </trkpt>
      <trkpt lat="45.775" lon="6.63734">
        <ele>1332</ele>
        <time>2022-08-16T09:17:59Z</time>
      </trkpt>
      <trkpt lat="45.77501" lon="6.63737">
        <ele>1331</ele>
        <time>2022-08-16T09:18:00Z</time>
      </trkpt>
      <trkpt lat="45.77501" lon="6.63739">
        <ele>1332</ele>
        <time>2022-08-16T09:18:01Z</time>
      </trkpt>
      <trkpt lat="45.77501" lon="6.6374">
        <ele>1331</ele>
        <time>2022-08-16T09:18:02Z</time>
      </trkpt>
      <trkpt lat="45.77501" lon="6.63742">
        <ele>1332</ele>
        <time>2022-08-16T09:18:03Z</time>
      </trkpt>
      <trkpt lat="45.77501" lon="6.63745">
        <ele>1332</ele>
        <time>2022-08-16T09:18:04Z</time>
      </trkpt>
      <trkpt lat="45.77502" lon="6.63747">
        <ele>1333</ele>
        <time>2022-08-16T09:18:05Z</time>
      </trkpt>
      <trkpt lat="45.77502" lon="6.6375">
        <ele>1333</ele>
        <time>2022-08-16T09:18:06Z</time>
      </trkpt>
      <trkpt lat="45.77502" lon="6.63752">
        <ele>1333</ele>
        <time>2022-08-16T09:18:07Z</time>
      </trkpt>
      <trkpt lat="45.77502" lon="6.63754">
        <ele>1333</ele>
        <time>2022-08-16T09:18:08Z</time>
      </trkpt>
      <trkpt lat="45.77503" lon="6.63757">
        <ele>1334</ele>
        <time>2022-08-16T09:18:09Z</time>
      </trkpt>
      <trkpt lat="45.77503" lon="6.63759">
        <ele>1335</ele>
        <time>2022-08-16T09:18:10Z</time>
      </trkpt>
      <trkpt lat="45.77503" lon="6.63762">
        <ele>1335</ele>
        <time>2022-08-16T09:18:11Z</time>
      </trkpt>
      <trkpt lat="45.77503" lon="6.63765">
        <ele>1336</ele>
        <time>2022-08-16T09:18:12Z</time>
      </trkpt>
      <trkpt lat="45.77503" lon="6.63768">
        <ele>1335</ele>
        <time>2022-08-16T09:18:13Z</time>
      </trkpt>
      <trkpt lat="45.77504" lon="6.6377">
        <ele>1336</ele>
        <time>2022-08-16T09:18:14Z</time>
      </trkpt>
      <trkpt lat="45.77504" lon="6.63772">
        <ele>1337</ele>
        <time>2022-08-16T09:18:15Z</time>
      </trkpt>
      <trkpt lat="45.77504" lon="6.63774">
        <ele>1337</ele>
        <time>2022-08-16T09:18:16Z</time>
      </trkpt>
      <trkpt lat="45.77505" lon="6.63776">
        <ele>1337</ele>
        <time>2022-08-16T09:18:17Z</time>
      </trkpt>
      <trkpt lat="45.77505" lon="6.63779">
        <ele>1338</ele>
        <time>2022-08-16T09:18:18Z</time>
      </trkpt>
      <trkpt lat="45.77505" lon="6.63781">
        <ele>1338</ele>
        <time>2022-08-16T09:18:19Z</time>
      </trkpt>
      <trkpt lat="45.77504" lon="6.63783">
        <ele>1338</ele>
        <time>2022-08-16T09:18:20Z</time>
      </trkpt>
      <trkpt lat="45.77504" lon="6.63785">
        <ele>1338</ele>
        <time>2022-08-16T09:18:21Z</time>
      </trkpt>
      <trkpt lat="45.77505" lon="6.63787">
        <ele>1338</ele>
        <time>2022-08-16T09:18:22Z</time>
      </trkpt>
      <trkpt lat="45.77505" lon="6.6379">
        <ele>1338</ele>
        <time>2022-08-16T09:18:23Z</time>
      </trkpt>
      <trkpt lat="45.77506" lon="6.63792">
        <ele>1338</ele>
        <time>2022-08-16T09:18:24Z</time>
      </trkpt>
      <trkpt lat="45.77506" lon="6.63795">
        <ele>1337</ele>
        <time>2022-08-16T09:18:25Z</time>
      </trkpt>
      <trkpt lat="45.77506" lon="6.63797">
        <ele>1337</ele>
        <time>2022-08-16T09:18:26Z</time>
      </trkpt>
      <trkpt lat="45.77506" lon="6.63799">
        <ele>1338</ele>
        <time>2022-08-16T09:18:27Z</time>
      </trkpt>
      <trkpt lat="45.77506" lon="6.63801">
        <ele>1338</ele>
        <time>2022-08-16T09:18:28Z</time>
      </trkpt>
      <trkpt lat="45.77506" lon="6.63803">
        <ele>1338</ele>
        <time>2022-08-16T09:18:29Z</time>
      </trkpt>
      <trkpt lat="45.77506" lon="6.63805">
        <ele>1338</ele>
        <time>2022-08-16T09:18:30Z</time>
      </trkpt>
      <trkpt lat="45.77506" lon="6.63808">
        <ele>1338</ele>
        <time>2022-08-16T09:18:31Z</time>
      </trkpt>
      <trkpt lat="45.77506" lon="6.63811">
        <ele>1339</ele>
        <time>2022-08-16T09:18:32Z</time>
      </trkpt>
      <trkpt lat="45.77506" lon="6.63813">
        <ele>1338</ele>
        <time>2022-08-16T09:18:33Z</time>
      </trkpt>
      <trkpt lat="45.77506" lon="6.63815">
        <ele>1338</ele>
        <time>2022-08-16T09:18:34Z</time>
      </trkpt>
      <trkpt lat="45.77506" lon="6.63818">
        <ele>1338</ele>
        <time>2022-08-16T09:18:35Z</time>
      </trkpt>
      <trkpt lat="45.77507" lon="6.6382">
        <ele>1339</ele>
        <time>2022-08-16T09:18:36Z</time>
      </trkpt>
      <trkpt lat="45.77508" lon="6.63823">
        <ele>1339</ele>
        <time>2022-08-16T09:18:37Z</time>
      </trkpt>
      <trkpt lat="45.77508" lon="6.63827">
        <ele>1338</ele>
        <time>2022-08-16T09:18:38Z</time>
      </trkpt>
      <trkpt lat="45.77508" lon="6.63829">
        <ele>1339</ele>
        <time>2022-08-16T09:18:39Z</time>
      </trkpt>
      <trkpt lat="45.77508" lon="6.63832">
        <ele>1339</ele>
        <time>2022-08-16T09:18:40Z</time>
      </trkpt>
      <trkpt lat="45.77508" lon="6.63834">
        <ele>1339</ele>
        <time>2022-08-16T09:18:41Z</time>
      </trkpt>
      <trkpt lat="45.77508" lon="6.63836">
        <ele>1340</ele>
        <time>2022-08-16T09:18:42Z</time>
      </trkpt>
      <trkpt lat="45.77508" lon="6.63839">
        <ele>1341</ele>
        <time>2022-08-16T09:18:43Z</time>
      </trkpt>
      <trkpt lat="45.77509" lon="6.63842">
        <ele>1341</ele>
        <time>2022-08-16T09:18:44Z</time>
      </trkpt>
      <trkpt lat="45.77509" lon="6.63844">
        <ele>1342</ele>
        <time>2022-08-16T09:18:45Z</time>
      </trkpt>
      <trkpt lat="45.7751" lon="6.63846">
        <ele>1342</ele>
        <time>2022-08-16T09:18:46Z</time>
      </trkpt>
      <trkpt lat="45.7751" lon="6.63848">
        <ele>1342</ele>
        <time>2022-08-16T09:18:47Z</time>
      </trkpt>
      <trkpt lat="45.7751" lon="6.6385">
        <ele>1343</ele>
        <time>2022-08-16T09:18:48Z</time>
      </trkpt>
      <trkpt lat="45.77511" lon="6.63851">
        <ele>1343</ele>
        <time>2022-08-16T09:18:49Z</time>
      </trkpt>
      <trkpt lat="45.77511" lon="6.63854">
        <ele>1343</ele>
        <time>2022-08-16T09:18:50Z</time>
      </trkpt>
      <trkpt lat="45.77511" lon="6.63856">
        <ele>1343</ele>
        <time>2022-08-16T09:18:51Z</time>
      </trkpt>
      <trkpt lat="45.77511" lon="6.63859">
        <ele>1343</ele>
        <time>2022-08-16T09:18:52Z</time>
      </trkpt>
      <trkpt lat="45.77511" lon="6.63861">
        <ele>1343</ele>
        <time>2022-08-16T09:18:53Z</time>
      </trkpt>
      <trkpt lat="45.77511" lon="6.63864">
        <ele>1343</ele>
        <time>2022-08-16T09:18:54Z</time>
      </trkpt>
      <trkpt lat="45.77512" lon="6.63866">
        <ele>1343</ele>
        <time>2022-08-16T09:18:55Z</time>
      </trkpt>
      <trkpt lat="45.77512" lon="6.63868">
        <ele>1343</ele>
        <time>2022-08-16T09:18:56Z</time>
      </trkpt>
      <trkpt lat="45.77512" lon="6.63871">
        <ele>1343</ele>
        <time>2022-08-16T09:18:57Z</time>
      </trkpt>
      <trkpt lat="45.77512" lon="6.63874">
        <ele>1344</ele>
        <time>2022-08-16T09:18:58Z</time>
      </trkpt>
      <trkpt lat="45.77512" lon="6.63876">
        <ele>1344</ele>
        <time>2022-08-16T09:18:59Z</time>
      </trkpt>
      <trkpt lat="45.77512" lon="6.63879">
        <ele>1344</ele>
        <time>2022-08-16T09:19:00Z</time>
      </trkpt>
      <trkpt lat="45.77513" lon="6.63883">
        <ele>1344</ele>
        <time>2022-08-16T09:19:01Z</time>
      </trkpt>
      <trkpt lat="45.77514" lon="6.63885">
        <ele>1344</ele>
        <time>2022-08-16T09:19:02Z</time>
      </trkpt>
      <trkpt lat="45.77514" lon="6.63888">
        <ele>1344</ele>
        <time>2022-08-16T09:19:03Z</time>
      </trkpt>
      <trkpt lat="45.77514" lon="6.63891">
        <ele>1343</ele>
        <time>2022-08-16T09:19:04Z</time>
      </trkpt>
      <trkpt lat="45.77514" lon="6.63893">
        <ele>1343</ele>
        <time>2022-08-16T09:19:05Z</time>
      </trkpt>
      <trkpt lat="45.77514" lon="6.63896">
        <ele>1343</ele>
        <time>2022-08-16T09:19:06Z</time>
      </trkpt>
      <trkpt lat="45.77514" lon="6.63898">
        <ele>1343</ele>
        <time>2022-08-16T09:19:07Z</time>
      </trkpt>
      <trkpt lat="45.77514" lon="6.639">
        <ele>1343</ele>
        <time>2022-08-16T09:19:08Z</time>
      </trkpt>
      <trkpt lat="45.77514" lon="6.63903">
        <ele>1344</ele>
        <time>2022-08-16T09:19:09Z</time>
      </trkpt>
      <trkpt lat="45.77514" lon="6.63906">
        <ele>1344</ele>
        <time>2022-08-16T09:19:10Z</time>
      </trkpt>
      <trkpt lat="45.77515" lon="6.63909">
        <ele>1344</ele>
        <time>2022-08-16T09:19:11Z</time>
      </trkpt>
      <trkpt lat="45.77515" lon="6.63911">
        <ele>1344</ele>
        <time>2022-08-16T09:19:12Z</time>
      </trkpt>
      <trkpt lat="45.77516" lon="6.63913">
        <ele>1344</ele>
        <time>2022-08-16T09:19:13Z</time>
      </trkpt>
      <trkpt lat="45.77516" lon="6.63916">
        <ele>1343</ele>
        <time>2022-08-16T09:19:14Z</time>
      </trkpt>
      <trkpt lat="45.77516" lon="6.6392">
        <ele>1344</ele>
        <time>2022-08-16T09:19:15Z</time>
      </trkpt>
      <trkpt lat="45.77517" lon="6.63922">
        <ele>1344</ele>
        <time>2022-08-16T09:19:16Z</time>
      </trkpt>
      <trkpt lat="45.77518" lon="6.63924">
        <ele>1343</ele>
        <time>2022-08-16T09:19:17Z</time>
      </trkpt>
      <trkpt lat="45.77519" lon="6.63926">
        <ele>1344</ele>
        <time>2022-08-16T09:19:18Z</time>
      </trkpt>
      <trkpt lat="45.77519" lon="6.63929">
        <ele>1344</ele>
        <time>2022-08-16T09:19:19Z</time>
      </trkpt>
      <trkpt lat="45.7752" lon="6.63932">
        <ele>1344</ele>
        <time>2022-08-16T09:19:20Z</time>
      </trkpt>
      <trkpt lat="45.7752" lon="6.63934">
        <ele>1344</ele>
        <time>2022-08-16T09:19:21Z</time>
      </trkpt>
      <trkpt lat="45.7752" lon="6.63936">
        <ele>1345</ele>
        <time>2022-08-16T09:19:22Z</time>
      </trkpt>
      <trkpt lat="45.77521" lon="6.63939">
        <ele>1344</ele>
        <time>2022-08-16T09:19:23Z</time>
      </trkpt>
      <trkpt lat="45.77521" lon="6.63941">
        <ele>1344</ele>
        <time>2022-08-16T09:19:24Z</time>
      </trkpt>
      <trkpt lat="45.77521" lon="6.63944">
        <ele>1344</ele>
        <time>2022-08-16T09:19:25Z</time>
      </trkpt>
      <trkpt lat="45.77521" lon="6.63946">
        <ele>1344</ele>
        <time>2022-08-16T09:19:26Z</time>
      </trkpt>
      <trkpt lat="45.77521" lon="6.63949">
        <ele>1344</ele>
        <time>2022-08-16T09:19:27Z</time>
      </trkpt>
      <trkpt lat="45.77521" lon="6.63951">
        <ele>1344</ele>
        <time>2022-08-16T09:19:28Z</time>
      </trkpt>
      <trkpt lat="45.77521" lon="6.63954">
        <ele>1345</ele>
        <time>2022-08-16T09:19:29Z</time>
      </trkpt>
      <trkpt lat="45.7752" lon="6.63956">
        <ele>1345</ele>
        <time>2022-08-16T09:19:30Z</time>
      </trkpt>
      <trkpt lat="45.7752" lon="6.63959">
        <ele>1345</ele>
        <time>2022-08-16T09:19:31Z</time>
      </trkpt>
      <trkpt lat="45.7752" lon="6.63962">
        <ele>1345</ele>
        <time>2022-08-16T09:19:32Z</time>
      </trkpt>
      <trkpt lat="45.7752" lon="6.63964">
        <ele>1345</ele>
        <time>2022-08-16T09:19:33Z</time>
      </trkpt>
      <trkpt lat="45.7752" lon="6.63967">
        <ele>1345</ele>
        <time>2022-08-16T09:19:34Z</time>
      </trkpt>
      <trkpt lat="45.77519" lon="6.63969">
        <ele>1346</ele>
        <time>2022-08-16T09:19:35Z</time>
      </trkpt>
      <trkpt lat="45.77519" lon="6.63972">
        <ele>1345</ele>
        <time>2022-08-16T09:19:36Z</time>
      </trkpt>
      <trkpt lat="45.77519" lon="6.63975">
        <ele>1346</ele>
        <time>2022-08-16T09:19:37Z</time>
      </trkpt>
      <trkpt lat="45.77519" lon="6.63977">
        <ele>1346</ele>
        <time>2022-08-16T09:19:38Z</time>
      </trkpt>
      <trkpt lat="45.77519" lon="6.6398">
        <ele>1346</ele>
        <time>2022-08-16T09:19:39Z</time>
      </trkpt>
      <trkpt lat="45.77519" lon="6.63982">
        <ele>1347</ele>
        <time>2022-08-16T09:19:40Z</time>
      </trkpt>
      <trkpt lat="45.77519" lon="6.63985">
        <ele>1347</ele>
        <time>2022-08-16T09:19:41Z</time>
      </trkpt>
      <trkpt lat="45.77519" lon="6.63987">
        <ele>1346</ele>
        <time>2022-08-16T09:19:42Z</time>
      </trkpt>
      <trkpt lat="45.77519" lon="6.6399">
        <ele>1347</ele>
        <time>2022-08-16T09:19:43Z</time>
      </trkpt>
      <trkpt lat="45.77518" lon="6.63992">
        <ele>1346</ele>
        <time>2022-08-16T09:19:44Z</time>
      </trkpt>
      <trkpt lat="45.77518" lon="6.63995">
        <ele>1347</ele>
        <time>2022-08-16T09:19:45Z</time>
      </trkpt>
      <trkpt lat="45.77518" lon="6.63998">
        <ele>1347</ele>
        <time>2022-08-16T09:19:46Z</time>
      </trkpt>
      <trkpt lat="45.77518" lon="6.64">
        <ele>1347</ele>
        <time>2022-08-16T09:19:47Z</time>
      </trkpt>
      <trkpt lat="45.77517" lon="6.64003">
        <ele>1347</ele>
        <time>2022-08-16T09:19:48Z</time>
      </trkpt>
      <trkpt lat="45.77517" lon="6.64005">
        <ele>1346</ele>
        <time>2022-08-16T09:19:49Z</time>
      </trkpt>
      <trkpt lat="45.77517" lon="6.64008">
        <ele>1347</ele>
        <time>2022-08-16T09:19:50Z</time>
      </trkpt>
      <trkpt lat="45.77517" lon="6.6401">
        <ele>1347</ele>
        <time>2022-08-16T09:19:51Z</time>
      </trkpt>
      <trkpt lat="45.77517" lon="6.64013">
        <ele>1347</ele>
        <time>2022-08-16T09:19:52Z</time>
      </trkpt>
      <trkpt lat="45.77517" lon="6.64016">
        <ele>1347</ele>
        <time>2022-08-16T09:19:53Z</time>
      </trkpt>
      <trkpt lat="45.77517" lon="6.64019">
        <ele>1347</ele>
        <time>2022-08-16T09:19:54Z</time>
      </trkpt>
      <trkpt lat="45.77517" lon="6.64021">
        <ele>1346</ele>
        <time>2022-08-16T09:19:55Z</time>
      </trkpt>
      <trkpt lat="45.77517" lon="6.64024">
        <ele>1346</ele>
        <time>2022-08-16T09:19:56Z</time>
      </trkpt>
      <trkpt lat="45.77517" lon="6.64027">
        <ele>1347</ele>
        <time>2022-08-16T09:19:57Z</time>
      </trkpt>
      <trkpt lat="45.77517" lon="6.6403">
        <ele>1347</ele>
        <time>2022-08-16T09:19:58Z</time>
      </trkpt>
      <trkpt lat="45.77517" lon="6.64032">
        <ele>1347</ele>
        <time>2022-08-16T09:19:59Z</time>
      </trkpt>
      <trkpt lat="45.77517" lon="6.64035">
        <ele>1346</ele>
        <time>2022-08-16T09:20:00Z</time>
      </trkpt>
      <trkpt lat="45.77517" lon="6.64037">
        <ele>1346</ele>
        <time>2022-08-16T09:20:01Z</time>
      </trkpt>
      <trkpt lat="45.77517" lon="6.6404">
        <ele>1347</ele>
        <time>2022-08-16T09:20:02Z</time>
      </trkpt>
      <trkpt lat="45.77517" lon="6.64042">
        <ele>1347</ele>
        <time>2022-08-16T09:20:03Z</time>
      </trkpt>
      <trkpt lat="45.77517" lon="6.64045">
        <ele>1347</ele>
        <time>2022-08-16T09:20:04Z</time>
      </trkpt>
      <trkpt lat="45.77517" lon="6.64048">
        <ele>1347</ele>
        <time>2022-08-16T09:20:05Z</time>
      </trkpt>
      <trkpt lat="45.77517" lon="6.6405">
        <ele>1348</ele>
        <time>2022-08-16T09:20:06Z</time>
      </trkpt>
      <trkpt lat="45.77517" lon="6.64053">
        <ele>1348</ele>
        <time>2022-08-16T09:20:07Z</time>
      </trkpt>
      <trkpt lat="45.77517" lon="6.64056">
        <ele>1348</ele>
        <time>2022-08-16T09:20:08Z</time>
      </trkpt>
      <trkpt lat="45.77517" lon="6.64058">
        <ele>1348</ele>
        <time>2022-08-16T09:20:09Z</time>
      </trkpt>
      <trkpt lat="45.77517" lon="6.64061">
        <ele>1348</ele>
        <time>2022-08-16T09:20:10Z</time>
      </trkpt>
      <trkpt lat="45.77517" lon="6.64063">
        <ele>1348</ele>
        <time>2022-08-16T09:20:11Z</time>
      </trkpt>
      <trkpt lat="45.77518" lon="6.64066">
        <ele>1348</ele>
        <time>2022-08-16T09:20:12Z</time>
      </trkpt>
      <trkpt lat="45.77518" lon="6.6407">
        <ele>1348</ele>
        <time>2022-08-16T09:20:13Z</time>
      </trkpt>
      <trkpt lat="45.77518" lon="6.64073">
        <ele>1348</ele>
        <time>2022-08-16T09:20:14Z</time>
      </trkpt>
      <trkpt lat="45.77518" lon="6.64075">
        <ele>1349</ele>
        <time>2022-08-16T09:20:15Z</time>
      </trkpt>
      <trkpt lat="45.77518" lon="6.64078">
        <ele>1349</ele>
        <time>2022-08-16T09:20:16Z</time>
      </trkpt>
      <trkpt lat="45.77518" lon="6.64081">
        <ele>1349</ele>
        <time>2022-08-16T09:20:17Z</time>
      </trkpt>
      <trkpt lat="45.77518" lon="6.64084">
        <ele>1350</ele>
        <time>2022-08-16T09:20:18Z</time>
      </trkpt>
      <trkpt lat="45.77519" lon="6.64087">
        <ele>1350</ele>
        <time>2022-08-16T09:20:19Z</time>
      </trkpt>
      <trkpt lat="45.77519" lon="6.64089">
        <ele>1350</ele>
        <time>2022-08-16T09:20:20Z</time>
      </trkpt>
      <trkpt lat="45.77519" lon="6.64092">
        <ele>1350</ele>
        <time>2022-08-16T09:20:21Z</time>
      </trkpt>
      <trkpt lat="45.77519" lon="6.64095">
        <ele>1350</ele>
        <time>2022-08-16T09:20:22Z</time>
      </trkpt>
      <trkpt lat="45.77519" lon="6.64097">
        <ele>1350</ele>
        <time>2022-08-16T09:20:23Z</time>
      </trkpt>
      <trkpt lat="45.77519" lon="6.64099">
        <ele>1350</ele>
        <time>2022-08-16T09:20:24Z</time>
      </trkpt>
      <trkpt lat="45.77519" lon="6.64102">
        <ele>1351</ele>
        <time>2022-08-16T09:20:25Z</time>
      </trkpt>
      <trkpt lat="45.77519" lon="6.64105">
        <ele>1351</ele>
        <time>2022-08-16T09:20:26Z</time>
      </trkpt>
      <trkpt lat="45.77519" lon="6.64107">
        <ele>1351</ele>
        <time>2022-08-16T09:20:27Z</time>
      </trkpt>
      <trkpt lat="45.77518" lon="6.64109">
        <ele>1351</ele>
        <time>2022-08-16T09:20:28Z</time>
      </trkpt>
      <trkpt lat="45.77519" lon="6.64112">
        <ele>1351</ele>
        <time>2022-08-16T09:20:29Z</time>
      </trkpt>
      <trkpt lat="45.77518" lon="6.64114">
        <ele>1351</ele>
        <time>2022-08-16T09:20:30Z</time>
      </trkpt>
      <trkpt lat="45.77518" lon="6.64117">
        <ele>1351</ele>
        <time>2022-08-16T09:20:31Z</time>
      </trkpt>
      <trkpt lat="45.77518" lon="6.64119">
        <ele>1351</ele>
        <time>2022-08-16T09:20:32Z</time>
      </trkpt>
      <trkpt lat="45.77518" lon="6.64122">
        <ele>1351</ele>
        <time>2022-08-16T09:20:33Z</time>
      </trkpt>
      <trkpt lat="45.77518" lon="6.64124">
        <ele>1351</ele>
        <time>2022-08-16T09:20:34Z</time>
      </trkpt>
      <trkpt lat="45.77518" lon="6.64127">
        <ele>1351</ele>
        <time>2022-08-16T09:20:35Z</time>
      </trkpt>
      <trkpt lat="45.77518" lon="6.64129">
        <ele>1351</ele>
        <time>2022-08-16T09:20:36Z</time>
      </trkpt>
      <trkpt lat="45.77518" lon="6.64131">
        <ele>1351</ele>
        <time>2022-08-16T09:20:37Z</time>
      </trkpt>
      <trkpt lat="45.77518" lon="6.64133">
        <ele>1351</ele>
        <time>2022-08-16T09:20:38Z</time>
      </trkpt>
      <trkpt lat="45.77518" lon="6.64136">
        <ele>1352</ele>
        <time>2022-08-16T09:20:39Z</time>
      </trkpt>
      <trkpt lat="45.77519" lon="6.64138">
        <ele>1352</ele>
        <time>2022-08-16T09:20:40Z</time>
      </trkpt>
      <trkpt lat="45.77519" lon="6.6414">
        <ele>1352</ele>
        <time>2022-08-16T09:20:41Z</time>
      </trkpt>
      <trkpt lat="45.77519" lon="6.64143">
        <ele>1352</ele>
        <time>2022-08-16T09:20:42Z</time>
      </trkpt>
      <trkpt lat="45.77519" lon="6.64145">
        <ele>1353</ele>
        <time>2022-08-16T09:20:43Z</time>
      </trkpt>
      <trkpt lat="45.77518" lon="6.64148">
        <ele>1354</ele>
        <time>2022-08-16T09:20:44Z</time>
      </trkpt>
      <trkpt lat="45.77518" lon="6.6415">
        <ele>1354</ele>
        <time>2022-08-16T09:20:45Z</time>
      </trkpt>
      <trkpt lat="45.77518" lon="6.64154">
        <ele>1354</ele>
        <time>2022-08-16T09:20:46Z</time>
      </trkpt>
      <trkpt lat="45.77518" lon="6.64156">
        <ele>1355</ele>
        <time>2022-08-16T09:20:47Z</time>
      </trkpt>
      <trkpt lat="45.77518" lon="6.64158">
        <ele>1354</ele>
        <time>2022-08-16T09:20:48Z</time>
      </trkpt>
      <trkpt lat="45.77518" lon="6.64161">
        <ele>1355</ele>
        <time>2022-08-16T09:20:49Z</time>
      </trkpt>
      <trkpt lat="45.77519" lon="6.64163">
        <ele>1355</ele>
        <time>2022-08-16T09:20:50Z</time>
      </trkpt>
      <trkpt lat="45.77519" lon="6.64165">
        <ele>1354</ele>
        <time>2022-08-16T09:20:51Z</time>
      </trkpt>
      <trkpt lat="45.77519" lon="6.64168">
        <ele>1355</ele>
        <time>2022-08-16T09:20:52Z</time>
      </trkpt>
      <trkpt lat="45.77519" lon="6.6417">
        <ele>1355</ele>
        <time>2022-08-16T09:20:53Z</time>
      </trkpt>
      <trkpt lat="45.7752" lon="6.64173">
        <ele>1356</ele>
        <time>2022-08-16T09:20:54Z</time>
      </trkpt>
      <trkpt lat="45.7752" lon="6.64176">
        <ele>1356</ele>
        <time>2022-08-16T09:20:55Z</time>
      </trkpt>
      <trkpt lat="45.7752" lon="6.64179">
        <ele>1356</ele>
        <time>2022-08-16T09:20:56Z</time>
      </trkpt>
      <trkpt lat="45.7752" lon="6.64182">
        <ele>1356</ele>
        <time>2022-08-16T09:20:57Z</time>
      </trkpt>
      <trkpt lat="45.7752" lon="6.64185">
        <ele>1357</ele>
        <time>2022-08-16T09:20:58Z</time>
      </trkpt>
      <trkpt lat="45.7752" lon="6.64187">
        <ele>1356</ele>
        <time>2022-08-16T09:20:59Z</time>
      </trkpt>
      <trkpt lat="45.7752" lon="6.6419">
        <ele>1357</ele>
        <time>2022-08-16T09:21:00Z</time>
      </trkpt>
      <trkpt lat="45.77521" lon="6.64193">
        <ele>1358</ele>
        <time>2022-08-16T09:21:01Z</time>
      </trkpt>
      <trkpt lat="45.77521" lon="6.64195">
        <ele>1358</ele>
        <time>2022-08-16T09:21:02Z</time>
      </trkpt>
      <trkpt lat="45.77522" lon="6.64198">
        <ele>1358</ele>
        <time>2022-08-16T09:21:03Z</time>
      </trkpt>
      <trkpt lat="45.77522" lon="6.64201">
        <ele>1359</ele>
        <time>2022-08-16T09:21:04Z</time>
      </trkpt>
      <trkpt lat="45.77523" lon="6.64203">
        <ele>1359</ele>
        <time>2022-08-16T09:21:05Z</time>
      </trkpt>
      <trkpt lat="45.77523" lon="6.64205">
        <ele>1359</ele>
        <time>2022-08-16T09:21:06Z</time>
      </trkpt>
      <trkpt lat="45.77523" lon="6.64207">
        <ele>1360</ele>
        <time>2022-08-16T09:21:07Z</time>
      </trkpt>
      <trkpt lat="45.77524" lon="6.6421">
        <ele>1360</ele>
        <time>2022-08-16T09:21:08Z</time>
      </trkpt>
      <trkpt lat="45.77524" lon="6.64213">
        <ele>1360</ele>
        <time>2022-08-16T09:21:09Z</time>
      </trkpt>
      <trkpt lat="45.77524" lon="6.64216">
        <ele>1360</ele>
        <time>2022-08-16T09:21:10Z</time>
      </trkpt>
      <trkpt lat="45.77524" lon="6.64219">
        <ele>1360</ele>
        <time>2022-08-16T09:21:11Z</time>
      </trkpt>
      <trkpt lat="45.77525" lon="6.64221">
        <ele>1361</ele>
        <time>2022-08-16T09:21:12Z</time>
      </trkpt>
      <trkpt lat="45.77525" lon="6.64224">
        <ele>1361</ele>
        <time>2022-08-16T09:21:13Z</time>
      </trkpt>
      <trkpt lat="45.77525" lon="6.64227">
        <ele>1361</ele>
        <time>2022-08-16T09:21:14Z</time>
      </trkpt>
      <trkpt lat="45.77526" lon="6.6423">
        <ele>1361</ele>
        <time>2022-08-16T09:21:15Z</time>
      </trkpt>
      <trkpt lat="45.77527" lon="6.64233">
        <ele>1362</ele>
        <time>2022-08-16T09:21:16Z</time>
      </trkpt>
      <trkpt lat="45.77527" lon="6.64235">
        <ele>1362</ele>
        <time>2022-08-16T09:21:17Z</time>
      </trkpt>
      <trkpt lat="45.77527" lon="6.64238">
        <ele>1362</ele>
        <time>2022-08-16T09:21:18Z</time>
      </trkpt>
      <trkpt lat="45.77527" lon="6.6424">
        <ele>1362</ele>
        <time>2022-08-16T09:21:19Z</time>
      </trkpt>
      <trkpt lat="45.77527" lon="6.64243">
        <ele>1362</ele>
        <time>2022-08-16T09:21:20Z</time>
      </trkpt>
      <trkpt lat="45.77528" lon="6.64246">
        <ele>1361</ele>
        <time>2022-08-16T09:21:21Z</time>
      </trkpt>
      <trkpt lat="45.77528" lon="6.64248">
        <ele>1362</ele>
        <time>2022-08-16T09:21:22Z</time>
      </trkpt>
      <trkpt lat="45.77529" lon="6.6425">
        <ele>1362</ele>
        <time>2022-08-16T09:21:23Z</time>
      </trkpt>
      <trkpt lat="45.7753" lon="6.64252">
        <ele>1362</ele>
        <time>2022-08-16T09:21:24Z</time>
      </trkpt>
      <trkpt lat="45.7753" lon="6.64255">
        <ele>1362</ele>
        <time>2022-08-16T09:21:25Z</time>
      </trkpt>
      <trkpt lat="45.77531" lon="6.64257">
        <ele>1362</ele>
        <time>2022-08-16T09:21:26Z</time>
      </trkpt>
      <trkpt lat="45.77531" lon="6.64259">
        <ele>1362</ele>
        <time>2022-08-16T09:21:27Z</time>
      </trkpt>
      <trkpt lat="45.77532" lon="6.64261">
        <ele>1362</ele>
        <time>2022-08-16T09:21:28Z</time>
      </trkpt>
      <trkpt lat="45.77532" lon="6.64264">
        <ele>1362</ele>
        <time>2022-08-16T09:21:29Z</time>
      </trkpt>
      <trkpt lat="45.77533" lon="6.64266">
        <ele>1362</ele>
        <time>2022-08-16T09:21:30Z</time>
      </trkpt>
      <trkpt lat="45.77534" lon="6.64269">
        <ele>1362</ele>
        <time>2022-08-16T09:21:31Z</time>
      </trkpt>
      <trkpt lat="45.77534" lon="6.64272">
        <ele>1363</ele>
        <time>2022-08-16T09:21:32Z</time>
      </trkpt>
      <trkpt lat="45.77534" lon="6.64275">
        <ele>1363</ele>
        <time>2022-08-16T09:21:33Z</time>
      </trkpt>
      <trkpt lat="45.77535" lon="6.64277">
        <ele>1364</ele>
        <time>2022-08-16T09:21:34Z</time>
      </trkpt>
      <trkpt lat="45.77536" lon="6.6428">
        <ele>1364</ele>
        <time>2022-08-16T09:21:35Z</time>
      </trkpt>
      <trkpt lat="45.77536" lon="6.64282">
        <ele>1364</ele>
        <time>2022-08-16T09:21:36Z</time>
      </trkpt>
      <trkpt lat="45.77537" lon="6.64285">
        <ele>1364</ele>
        <time>2022-08-16T09:21:37Z</time>
      </trkpt>
      <trkpt lat="45.77537" lon="6.64287">
        <ele>1365</ele>
        <time>2022-08-16T09:21:38Z</time>
      </trkpt>
      <trkpt lat="45.77538" lon="6.6429">
        <ele>1365</ele>
        <time>2022-08-16T09:21:39Z</time>
      </trkpt>
      <trkpt lat="45.77538" lon="6.64293">
        <ele>1365</ele>
        <time>2022-08-16T09:21:40Z</time>
      </trkpt>
      <trkpt lat="45.77539" lon="6.64296">
        <ele>1365</ele>
        <time>2022-08-16T09:21:41Z</time>
      </trkpt>
      <trkpt lat="45.7754" lon="6.64298">
        <ele>1365</ele>
        <time>2022-08-16T09:21:42Z</time>
      </trkpt>
      <trkpt lat="45.77542" lon="6.643">
        <ele>1365</ele>
        <time>2022-08-16T09:21:43Z</time>
      </trkpt>
      <trkpt lat="45.77543" lon="6.64303">
        <ele>1365</ele>
        <time>2022-08-16T09:21:44Z</time>
      </trkpt>
      <trkpt lat="45.77544" lon="6.64305">
        <ele>1366</ele>
        <time>2022-08-16T09:21:45Z</time>
      </trkpt>
      <trkpt lat="45.77545" lon="6.64307">
        <ele>1366</ele>
        <time>2022-08-16T09:21:46Z</time>
      </trkpt>
      <trkpt lat="45.77546" lon="6.64308">
        <ele>1367</ele>
        <time>2022-08-16T09:21:47Z</time>
      </trkpt>
      <trkpt lat="45.77548" lon="6.6431">
        <ele>1367</ele>
        <time>2022-08-16T09:21:48Z</time>
      </trkpt>
      <trkpt lat="45.77549" lon="6.64311">
        <ele>1367</ele>
        <time>2022-08-16T09:21:49Z</time>
      </trkpt>
      <trkpt lat="45.77551" lon="6.64313">
        <ele>1368</ele>
        <time>2022-08-16T09:21:50Z</time>
      </trkpt>
      <trkpt lat="45.77552" lon="6.64314">
        <ele>1368</ele>
        <time>2022-08-16T09:21:51Z</time>
      </trkpt>
      <trkpt lat="45.77554" lon="6.64316">
        <ele>1368</ele>
        <time>2022-08-16T09:21:52Z</time>
      </trkpt>
      <trkpt lat="45.77555" lon="6.64318">
        <ele>1368</ele>
        <time>2022-08-16T09:21:53Z</time>
      </trkpt>
      <trkpt lat="45.77557" lon="6.64319">
        <ele>1368</ele>
        <time>2022-08-16T09:21:54Z</time>
      </trkpt>
      <trkpt lat="45.77559" lon="6.64321">
        <ele>1369</ele>
        <time>2022-08-16T09:21:55Z</time>
      </trkpt>
      <trkpt lat="45.77561" lon="6.64322">
        <ele>1369</ele>
        <time>2022-08-16T09:21:56Z</time>
      </trkpt>
      <trkpt lat="45.77563" lon="6.64323">
        <ele>1370</ele>
        <time>2022-08-16T09:21:57Z</time>
      </trkpt>
      <trkpt lat="45.77565" lon="6.64323">
        <ele>1370</ele>
        <time>2022-08-16T09:21:58Z</time>
      </trkpt>
      <trkpt lat="45.77567" lon="6.64324">
        <ele>1371</ele>
        <time>2022-08-16T09:21:59Z</time>
      </trkpt>
      <trkpt lat="45.77569" lon="6.64324">
        <ele>1371</ele>
        <time>2022-08-16T09:22:00Z</time>
      </trkpt>
      <trkpt lat="45.77571" lon="6.64324">
        <ele>1371</ele>
        <time>2022-08-16T09:22:01Z</time>
      </trkpt>
      <trkpt lat="45.77573" lon="6.64324">
        <ele>1371</ele>
        <time>2022-08-16T09:22:02Z</time>
      </trkpt>
      <trkpt lat="45.77575" lon="6.64324">
        <ele>1372</ele>
        <time>2022-08-16T09:22:03Z</time>
      </trkpt>
      <trkpt lat="45.77577" lon="6.64324">
        <ele>1372</ele>
        <time>2022-08-16T09:22:04Z</time>
      </trkpt>
      <trkpt lat="45.77579" lon="6.64324">
        <ele>1372</ele>
        <time>2022-08-16T09:22:05Z</time>
      </trkpt>
      <trkpt lat="45.7758" lon="6.64324">
        <ele>1372</ele>
        <time>2022-08-16T09:22:06Z</time>
      </trkpt>
      <trkpt lat="45.77582" lon="6.64323">
        <ele>1372</ele>
        <time>2022-08-16T09:22:07Z</time>
      </trkpt>
      <trkpt lat="45.77584" lon="6.64323">
        <ele>1373</ele>
        <time>2022-08-16T09:22:08Z</time>
      </trkpt>
      <trkpt lat="45.77586" lon="6.64323">
        <ele>1373</ele>
        <time>2022-08-16T09:22:09Z</time>
      </trkpt>
      <trkpt lat="45.77588" lon="6.64322">
        <ele>1373</ele>
        <time>2022-08-16T09:22:10Z</time>
      </trkpt>
      <trkpt lat="45.7759" lon="6.64321">
        <ele>1373</ele>
        <time>2022-08-16T09:22:11Z</time>
      </trkpt>
      <trkpt lat="45.77591" lon="6.64319">
        <ele>1373</ele>
        <time>2022-08-16T09:22:12Z</time>
      </trkpt>
      <trkpt lat="45.77593" lon="6.64317">
        <ele>1373</ele>
        <time>2022-08-16T09:22:13Z</time>
      </trkpt>
      <trkpt lat="45.77594" lon="6.64315">
        <ele>1373</ele>
        <time>2022-08-16T09:22:14Z</time>
      </trkpt>
      <trkpt lat="45.77596" lon="6.64314">
        <ele>1373</ele>
        <time>2022-08-16T09:22:15Z</time>
      </trkpt>
      <trkpt lat="45.77597" lon="6.64313">
        <ele>1373</ele>
        <time>2022-08-16T09:22:16Z</time>
      </trkpt>
      <trkpt lat="45.77599" lon="6.64311">
        <ele>1373</ele>
        <time>2022-08-16T09:22:17Z</time>
      </trkpt>
      <trkpt lat="45.776" lon="6.64308">
        <ele>1374</ele>
        <time>2022-08-16T09:22:18Z</time>
      </trkpt>
      <trkpt lat="45.77602" lon="6.64306">
        <ele>1374</ele>
        <time>2022-08-16T09:22:19Z</time>
      </trkpt>
      <trkpt lat="45.77604" lon="6.64304">
        <ele>1374</ele>
        <time>2022-08-16T09:22:20Z</time>
      </trkpt>
      <trkpt lat="45.77606" lon="6.64301">
        <ele>1374</ele>
        <time>2022-08-16T09:22:21Z</time>
      </trkpt>
      <trkpt lat="45.77607" lon="6.64299">
        <ele>1374</ele>
        <time>2022-08-16T09:22:22Z</time>
      </trkpt>
      <trkpt lat="45.77608" lon="6.64297">
        <ele>1374</ele>
        <time>2022-08-16T09:22:23Z</time>
      </trkpt>
      <trkpt lat="45.7761" lon="6.64294">
        <ele>1374</ele>
        <time>2022-08-16T09:22:24Z</time>
      </trkpt>
      <trkpt lat="45.77611" lon="6.64291">
        <ele>1374</ele>
        <time>2022-08-16T09:22:25Z</time>
      </trkpt>
      <trkpt lat="45.77612" lon="6.64288">
        <ele>1374</ele>
        <time>2022-08-16T09:22:26Z</time>
      </trkpt>
      <trkpt lat="45.77613" lon="6.64285">
        <ele>1374</ele>
        <time>2022-08-16T09:22:27Z</time>
      </trkpt>
      <trkpt lat="45.77614" lon="6.64282">
        <ele>1374</ele>
        <time>2022-08-16T09:22:28Z</time>
      </trkpt>
      <trkpt lat="45.77615" lon="6.64279">
        <ele>1374</ele>
        <time>2022-08-16T09:22:29Z</time>
      </trkpt>
      <trkpt lat="45.77616" lon="6.64277">
        <ele>1374</ele>
        <time>2022-08-16T09:22:30Z</time>
      </trkpt>
      <trkpt lat="45.77617" lon="6.64275">
        <ele>1374</ele>
        <time>2022-08-16T09:22:31Z</time>
      </trkpt>
      <trkpt lat="45.77617" lon="6.64272">
        <ele>1374</ele>
        <time>2022-08-16T09:22:32Z</time>
      </trkpt>
      <trkpt lat="45.77618" lon="6.64269">
        <ele>1375</ele>
        <time>2022-08-16T09:22:33Z</time>
      </trkpt>
      <trkpt lat="45.77619" lon="6.64266">
        <ele>1374</ele>
        <time>2022-08-16T09:22:34Z</time>
      </trkpt>
      <trkpt lat="45.77619" lon="6.64264">
        <ele>1374</ele>
        <time>2022-08-16T09:22:35Z</time>
      </trkpt>
      <trkpt lat="45.7762" lon="6.64262">
        <ele>1374</ele>
        <time>2022-08-16T09:22:36Z</time>
      </trkpt>
      <trkpt lat="45.7762" lon="6.64259">
        <ele>1373</ele>
        <time>2022-08-16T09:22:37Z</time>
      </trkpt>
      <trkpt lat="45.77621" lon="6.64255">
        <ele>1373</ele>
        <time>2022-08-16T09:22:38Z</time>
      </trkpt>
      <trkpt lat="45.77621" lon="6.64252">
        <ele>1373</ele>
        <time>2022-08-16T09:22:39Z</time>
      </trkpt>
      <trkpt lat="45.77621" lon="6.6425">
        <ele>1373</ele>
        <time>2022-08-16T09:22:40Z</time>
      </trkpt>
      <trkpt lat="45.77621" lon="6.64247">
        <ele>1373</ele>
        <time>2022-08-16T09:22:41Z</time>
      </trkpt>
      <trkpt lat="45.7762" lon="6.64244">
        <ele>1373</ele>
        <time>2022-08-16T09:22:42Z</time>
      </trkpt>
      <trkpt lat="45.7762" lon="6.64242">
        <ele>1373</ele>
        <time>2022-08-16T09:22:43Z</time>
      </trkpt>
      <trkpt lat="45.77619" lon="6.64239">
        <ele>1374</ele>
        <time>2022-08-16T09:22:44Z</time>
      </trkpt>
      <trkpt lat="45.77618" lon="6.64236">
        <ele>1374</ele>
        <time>2022-08-16T09:22:45Z</time>
      </trkpt>
      <trkpt lat="45.77618" lon="6.64234">
        <ele>1375</ele>
        <time>2022-08-16T09:22:46Z</time>
      </trkpt>
      <trkpt lat="45.77617" lon="6.64232">
        <ele>1375</ele>
        <time>2022-08-16T09:22:47Z</time>
      </trkpt>
      <trkpt lat="45.77616" lon="6.6423">
        <ele>1374</ele>
        <time>2022-08-16T09:22:48Z</time>
      </trkpt>
      <trkpt lat="45.77615" lon="6.64228">
        <ele>1375</ele>
        <time>2022-08-16T09:22:49Z</time>
      </trkpt>
      <trkpt lat="45.77613" lon="6.64227">
        <ele>1375</ele>
        <time>2022-08-16T09:22:50Z</time>
      </trkpt>
      <trkpt lat="45.77612" lon="6.64225">
        <ele>1375</ele>
        <time>2022-08-16T09:22:51Z</time>
      </trkpt>
      <trkpt lat="45.77611" lon="6.64223">
        <ele>1375</ele>
        <time>2022-08-16T09:22:52Z</time>
      </trkpt>
      <trkpt lat="45.7761" lon="6.64221">
        <ele>1375</ele>
        <time>2022-08-16T09:22:53Z</time>
      </trkpt>
      <trkpt lat="45.77608" lon="6.64219">
        <ele>1376</ele>
        <time>2022-08-16T09:22:54Z</time>
      </trkpt>
      <trkpt lat="45.77607" lon="6.64217">
        <ele>1376</ele>
        <time>2022-08-16T09:22:55Z</time>
      </trkpt>
      <trkpt lat="45.77606" lon="6.64215">
        <ele>1376</ele>
        <time>2022-08-16T09:22:56Z</time>
      </trkpt>
      <trkpt lat="45.77605" lon="6.64213">
        <ele>1377</ele>
        <time>2022-08-16T09:22:57Z</time>
      </trkpt>
      <trkpt lat="45.77604" lon="6.64211">
        <ele>1377</ele>
        <time>2022-08-16T09:22:58Z</time>
      </trkpt>
      <trkpt lat="45.77603" lon="6.64209">
        <ele>1377</ele>
        <time>2022-08-16T09:22:59Z</time>
      </trkpt>
      <trkpt lat="45.77602" lon="6.64206">
        <ele>1377</ele>
        <time>2022-08-16T09:23:00Z</time>
      </trkpt>
      <trkpt lat="45.77601" lon="6.64204">
        <ele>1377</ele>
        <time>2022-08-16T09:23:01Z</time>
      </trkpt>
      <trkpt lat="45.776" lon="6.64202">
        <ele>1377</ele>
        <time>2022-08-16T09:23:02Z</time>
      </trkpt>
      <trkpt lat="45.77599" lon="6.642">
        <ele>1377</ele>
        <time>2022-08-16T09:23:03Z</time>
      </trkpt>
      <trkpt lat="45.77598" lon="6.64198">
        <ele>1377</ele>
        <time>2022-08-16T09:23:04Z</time>
      </trkpt>
      <trkpt lat="45.77598" lon="6.64195">
        <ele>1377</ele>
        <time>2022-08-16T09:23:05Z</time>
      </trkpt>
      <trkpt lat="45.77597" lon="6.64193">
        <ele>1378</ele>
        <time>2022-08-16T09:23:06Z</time>
      </trkpt>
      <trkpt lat="45.77596" lon="6.64191">
        <ele>1378</ele>
        <time>2022-08-16T09:23:07Z</time>
      </trkpt>
      <trkpt lat="45.77595" lon="6.64189">
        <ele>1378</ele>
        <time>2022-08-16T09:23:08Z</time>
      </trkpt>
      <trkpt lat="45.77594" lon="6.64187">
        <ele>1378</ele>
        <time>2022-08-16T09:23:09Z</time>
      </trkpt>
      <trkpt lat="45.77594" lon="6.64185">
        <ele>1378</ele>
        <time>2022-08-16T09:23:10Z</time>
      </trkpt>
      <trkpt lat="45.77593" lon="6.64182">
        <ele>1378</ele>
        <time>2022-08-16T09:23:11Z</time>
      </trkpt>
      <trkpt lat="45.77592" lon="6.64179">
        <ele>1379</ele>
        <time>2022-08-16T09:23:12Z</time>
      </trkpt>
      <trkpt lat="45.77591" lon="6.64177">
        <ele>1378</ele>
        <time>2022-08-16T09:23:13Z</time>
      </trkpt>
      <trkpt lat="45.7759" lon="6.64174">
        <ele>1378</ele>
        <time>2022-08-16T09:23:14Z</time>
      </trkpt>
      <trkpt lat="45.7759" lon="6.64172">
        <ele>1378</ele>
        <time>2022-08-16T09:23:15Z</time>
      </trkpt>
      <trkpt lat="45.77589" lon="6.64169">
        <ele>1379</ele>
        <time>2022-08-16T09:23:16Z</time>
      </trkpt>
      <trkpt lat="45.77589" lon="6.64167">
        <ele>1379</ele>
        <time>2022-08-16T09:23:17Z</time>
      </trkpt>
      <trkpt lat="45.77588" lon="6.64164">
        <ele>1378</ele>
        <time>2022-08-16T09:23:18Z</time>
      </trkpt>
      <trkpt lat="45.77588" lon="6.64162">
        <ele>1379</ele>
        <time>2022-08-16T09:23:19Z</time>
      </trkpt>
      <trkpt lat="45.77588" lon="6.64159">
        <ele>1378</ele>
        <time>2022-08-16T09:23:20Z</time>
      </trkpt>
      <trkpt lat="45.77588" lon="6.64157">
        <ele>1378</ele>
        <time>2022-08-16T09:23:21Z</time>
      </trkpt>
      <trkpt lat="45.77588" lon="6.64154">
        <ele>1378</ele>
        <time>2022-08-16T09:23:22Z</time>
      </trkpt>
      <trkpt lat="45.77588" lon="6.64152">
        <ele>1378</ele>
        <time>2022-08-16T09:23:23Z</time>
      </trkpt>
      <trkpt lat="45.77589" lon="6.64149">
        <ele>1378</ele>
        <time>2022-08-16T09:23:24Z</time>
      </trkpt>
      <trkpt lat="45.77589" lon="6.64146">
        <ele>1378</ele>
        <time>2022-08-16T09:23:25Z</time>
      </trkpt>
      <trkpt lat="45.77589" lon="6.64144">
        <ele>1378</ele>
        <time>2022-08-16T09:23:26Z</time>
      </trkpt>
      <trkpt lat="45.77589" lon="6.64141">
        <ele>1378</ele>
        <time>2022-08-16T09:23:27Z</time>
      </trkpt>
      <trkpt lat="45.7759" lon="6.64138">
        <ele>1379</ele>
        <time>2022-08-16T09:23:28Z</time>
      </trkpt>
      <trkpt lat="45.7759" lon="6.64135">
        <ele>1379</ele>
        <time>2022-08-16T09:23:29Z</time>
      </trkpt>
      <trkpt lat="45.7759" lon="6.64132">
        <ele>1379</ele>
        <time>2022-08-16T09:23:30Z</time>
      </trkpt>
      <trkpt lat="45.7759" lon="6.6413">
        <ele>1379</ele>
        <time>2022-08-16T09:23:31Z</time>
      </trkpt>
      <trkpt lat="45.77591" lon="6.64128">
        <ele>1380</ele>
        <time>2022-08-16T09:23:32Z</time>
      </trkpt>
      <trkpt lat="45.77592" lon="6.64125">
        <ele>1380</ele>
        <time>2022-08-16T09:23:33Z</time>
      </trkpt>
      <trkpt lat="45.77592" lon="6.64122">
        <ele>1380</ele>
        <time>2022-08-16T09:23:34Z</time>
      </trkpt>
      <trkpt lat="45.77593" lon="6.6412">
        <ele>1380</ele>
        <time>2022-08-16T09:23:35Z</time>
      </trkpt>
      <trkpt lat="45.77593" lon="6.64117">
        <ele>1380</ele>
        <time>2022-08-16T09:23:36Z</time>
      </trkpt>
      <trkpt lat="45.77594" lon="6.64115">
        <ele>1380</ele>
        <time>2022-08-16T09:23:37Z</time>
      </trkpt>
      <trkpt lat="45.77595" lon="6.64113">
        <ele>1380</ele>
        <time>2022-08-16T09:23:38Z</time>
      </trkpt>
      <trkpt lat="45.77595" lon="6.6411">
        <ele>1380</ele>
        <time>2022-08-16T09:23:39Z</time>
      </trkpt>
      <trkpt lat="45.77596" lon="6.64108">
        <ele>1381</ele>
        <time>2022-08-16T09:23:40Z</time>
      </trkpt>
      <trkpt lat="45.77596" lon="6.64105">
        <ele>1381</ele>
        <time>2022-08-16T09:23:41Z</time>
      </trkpt>
      <trkpt lat="45.77596" lon="6.64103">
        <ele>1381</ele>
        <time>2022-08-16T09:23:42Z</time>
      </trkpt>
      <trkpt lat="45.77597" lon="6.641">
        <ele>1381</ele>
        <time>2022-08-16T09:23:43Z</time>
      </trkpt>
      <trkpt lat="45.77597" lon="6.64097">
        <ele>1382</ele>
        <time>2022-08-16T09:23:44Z</time>
      </trkpt>
      <trkpt lat="45.77598" lon="6.64095">
        <ele>1382</ele>
        <time>2022-08-16T09:23:45Z</time>
      </trkpt>
      <trkpt lat="45.77598" lon="6.64092">
        <ele>1383</ele>
        <time>2022-08-16T09:23:46Z</time>
      </trkpt>
      <trkpt lat="45.77599" lon="6.6409">
        <ele>1383</ele>
        <time>2022-08-16T09:23:47Z</time>
      </trkpt>
      <trkpt lat="45.776" lon="6.64088">
        <ele>1383</ele>
        <time>2022-08-16T09:23:48Z</time>
      </trkpt>
      <trkpt lat="45.77601" lon="6.64085">
        <ele>1383</ele>
        <time>2022-08-16T09:23:49Z</time>
      </trkpt>
      <trkpt lat="45.77601" lon="6.64082">
        <ele>1383</ele>
        <time>2022-08-16T09:23:50Z</time>
      </trkpt>
      <trkpt lat="45.77602" lon="6.6408">
        <ele>1383</ele>
        <time>2022-08-16T09:23:51Z</time>
      </trkpt>
      <trkpt lat="45.77603" lon="6.64077">
        <ele>1383</ele>
        <time>2022-08-16T09:23:52Z</time>
      </trkpt>
      <trkpt lat="45.77603" lon="6.64074">
        <ele>1383</ele>
        <time>2022-08-16T09:23:53Z</time>
      </trkpt>
      <trkpt lat="45.77603" lon="6.64071">
        <ele>1383</ele>
        <time>2022-08-16T09:23:54Z</time>
      </trkpt>
      <trkpt lat="45.77603" lon="6.64068">
        <ele>1383</ele>
        <time>2022-08-16T09:23:55Z</time>
      </trkpt>
      <trkpt lat="45.77603" lon="6.64065">
        <ele>1383</ele>
        <time>2022-08-16T09:23:56Z</time>
      </trkpt>
      <trkpt lat="45.77603" lon="6.64062">
        <ele>1383</ele>
        <time>2022-08-16T09:23:57Z</time>
      </trkpt>
      <trkpt lat="45.77603" lon="6.6406">
        <ele>1383</ele>
        <time>2022-08-16T09:23:58Z</time>
      </trkpt>
      <trkpt lat="45.77604" lon="6.64057">
        <ele>1383</ele>
        <time>2022-08-16T09:23:59Z</time>
      </trkpt>
      <trkpt lat="45.77603" lon="6.64054">
        <ele>1383</ele>
        <time>2022-08-16T09:24:00Z</time>
      </trkpt>
      <trkpt lat="45.77603" lon="6.64051">
        <ele>1383</ele>
        <time>2022-08-16T09:24:01Z</time>
      </trkpt>
      <trkpt lat="45.77603" lon="6.64049">
        <ele>1383</ele>
        <time>2022-08-16T09:24:02Z</time>
      </trkpt>
      <trkpt lat="45.77602" lon="6.64046">
        <ele>1383</ele>
        <time>2022-08-16T09:24:03Z</time>
      </trkpt>
      <trkpt lat="45.77602" lon="6.64043">
        <ele>1384</ele>
        <time>2022-08-16T09:24:04Z</time>
      </trkpt>
      <trkpt lat="45.77602" lon="6.6404">
        <ele>1384</ele>
        <time>2022-08-16T09:24:05Z</time>
      </trkpt>
      <trkpt lat="45.77602" lon="6.64037">
        <ele>1384</ele>
        <time>2022-08-16T09:24:06Z</time>
      </trkpt>
      <trkpt lat="45.77602" lon="6.64034">
        <ele>1385</ele>
        <time>2022-08-16T09:24:07Z</time>
      </trkpt>
      <trkpt lat="45.77601" lon="6.64031">
        <ele>1385</ele>
        <time>2022-08-16T09:24:08Z</time>
      </trkpt>
      <trkpt lat="45.77601" lon="6.64029">
        <ele>1385</ele>
        <time>2022-08-16T09:24:09Z</time>
      </trkpt>
      <trkpt lat="45.776" lon="6.64027">
        <ele>1386</ele>
        <time>2022-08-16T09:24:10Z</time>
      </trkpt>
      <trkpt lat="45.776" lon="6.64025">
        <ele>1386</ele>
        <time>2022-08-16T09:24:11Z</time>
      </trkpt>
      <trkpt lat="45.776" lon="6.64023">
        <ele>1386</ele>
        <time>2022-08-16T09:24:12Z</time>
      </trkpt>
      <trkpt lat="45.776" lon="6.6402">
        <ele>1387</ele>
        <time>2022-08-16T09:24:13Z</time>
      </trkpt>
      <trkpt lat="45.77601" lon="6.64018">
        <ele>1387</ele>
        <time>2022-08-16T09:24:14Z</time>
      </trkpt>
      <trkpt lat="45.776" lon="6.64016">
        <ele>1388</ele>
        <time>2022-08-16T09:24:15Z</time>
      </trkpt>
      <trkpt lat="45.776" lon="6.64013">
        <ele>1388</ele>
        <time>2022-08-16T09:24:16Z</time>
      </trkpt>
      <trkpt lat="45.77601" lon="6.64011">
        <ele>1388</ele>
        <time>2022-08-16T09:24:17Z</time>
      </trkpt>
      <trkpt lat="45.77601" lon="6.64008">
        <ele>1388</ele>
        <time>2022-08-16T09:24:18Z</time>
      </trkpt>
      <trkpt lat="45.77601" lon="6.64006">
        <ele>1388</ele>
        <time>2022-08-16T09:24:19Z</time>
      </trkpt>
      <trkpt lat="45.77602" lon="6.64003">
        <ele>1389</ele>
        <time>2022-08-16T09:24:20Z</time>
      </trkpt>
      <trkpt lat="45.77603" lon="6.64001">
        <ele>1389</ele>
        <time>2022-08-16T09:24:21Z</time>
      </trkpt>
      <trkpt lat="45.77604" lon="6.63999">
        <ele>1389</ele>
        <time>2022-08-16T09:24:22Z</time>
      </trkpt>
      <trkpt lat="45.77606" lon="6.63997">
        <ele>1389</ele>
        <time>2022-08-16T09:24:23Z</time>
      </trkpt>
      <trkpt lat="45.77607" lon="6.63995">
        <ele>1390</ele>
        <time>2022-08-16T09:24:24Z</time>
      </trkpt>
      <trkpt lat="45.77609" lon="6.63993">
        <ele>1390</ele>
        <time>2022-08-16T09:24:25Z</time>
      </trkpt>
      <trkpt lat="45.77611" lon="6.63992">
        <ele>1390</ele>
        <time>2022-08-16T09:24:26Z</time>
      </trkpt>
      <trkpt lat="45.77613" lon="6.63992">
        <ele>1389</ele>
        <time>2022-08-16T09:24:27Z</time>
      </trkpt>
      <trkpt lat="45.77615" lon="6.63991">
        <ele>1389</ele>
        <time>2022-08-16T09:24:28Z</time>
      </trkpt>
      <trkpt lat="45.77617" lon="6.63991">
        <ele>1389</ele>
        <time>2022-08-16T09:24:29Z</time>
      </trkpt>
      <trkpt lat="45.77618" lon="6.63992">
        <ele>1389</ele>
        <time>2022-08-16T09:24:30Z</time>
      </trkpt>
      <trkpt lat="45.77619" lon="6.63993">
        <ele>1389</ele>
        <time>2022-08-16T09:24:31Z</time>
      </trkpt>
      <trkpt lat="45.77621" lon="6.63994">
        <ele>1389</ele>
        <time>2022-08-16T09:24:32Z</time>
      </trkpt>
      <trkpt lat="45.77622" lon="6.63996">
        <ele>1389</ele>
        <time>2022-08-16T09:24:33Z</time>
      </trkpt>
      <trkpt lat="45.77623" lon="6.63998">
        <ele>1389</ele>
        <time>2022-08-16T09:24:34Z</time>
      </trkpt>
      <trkpt lat="45.77624" lon="6.63999">
        <ele>1390</ele>
        <time>2022-08-16T09:24:35Z</time>
      </trkpt>
      <trkpt lat="45.77626" lon="6.64001">
        <ele>1390</ele>
        <time>2022-08-16T09:24:36Z</time>
      </trkpt>
      <trkpt lat="45.77627" lon="6.64004">
        <ele>1390</ele>
        <time>2022-08-16T09:24:37Z</time>
      </trkpt>
      <trkpt lat="45.77628" lon="6.64006">
        <ele>1390</ele>
        <time>2022-08-16T09:24:38Z</time>
      </trkpt>
      <trkpt lat="45.77629" lon="6.64009">
        <ele>1390</ele>
        <time>2022-08-16T09:24:39Z</time>
      </trkpt>
      <trkpt lat="45.7763" lon="6.64011">
        <ele>1391</ele>
        <time>2022-08-16T09:24:40Z</time>
      </trkpt>
      <trkpt lat="45.77631" lon="6.64014">
        <ele>1392</ele>
        <time>2022-08-16T09:24:41Z</time>
      </trkpt>
      <trkpt lat="45.77631" lon="6.64016">
        <ele>1392</ele>
        <time>2022-08-16T09:24:42Z</time>
      </trkpt>
      <trkpt lat="45.77632" lon="6.64019">
        <ele>1393</ele>
        <time>2022-08-16T09:24:43Z</time>
      </trkpt>
      <trkpt lat="45.77633" lon="6.64021">
        <ele>1393</ele>
        <time>2022-08-16T09:24:44Z</time>
      </trkpt>
      <trkpt lat="45.77634" lon="6.64024">
        <ele>1394</ele>
        <time>2022-08-16T09:24:45Z</time>
      </trkpt>
      <trkpt lat="45.77635" lon="6.64028">
        <ele>1394</ele>
        <time>2022-08-16T09:24:46Z</time>
      </trkpt>
      <trkpt lat="45.77636" lon="6.6403">
        <ele>1394</ele>
        <time>2022-08-16T09:24:47Z</time>
      </trkpt>
      <trkpt lat="45.77637" lon="6.64032">
        <ele>1395</ele>
        <time>2022-08-16T09:24:48Z</time>
      </trkpt>
      <trkpt lat="45.77638" lon="6.64035">
        <ele>1396</ele>
        <time>2022-08-16T09:24:49Z</time>
      </trkpt>
      <trkpt lat="45.77639" lon="6.64038">
        <ele>1397</ele>
        <time>2022-08-16T09:24:50Z</time>
      </trkpt>
      <trkpt lat="45.7764" lon="6.6404">
        <ele>1397</ele>
        <time>2022-08-16T09:24:51Z</time>
      </trkpt>
      <trkpt lat="45.77641" lon="6.64042">
        <ele>1397</ele>
        <time>2022-08-16T09:24:52Z</time>
      </trkpt>
      <trkpt lat="45.77643" lon="6.64044">
        <ele>1398</ele>
        <time>2022-08-16T09:24:53Z</time>
      </trkpt>
      <trkpt lat="45.77644" lon="6.64046">
        <ele>1399</ele>
        <time>2022-08-16T09:24:54Z</time>
      </trkpt>
      <trkpt lat="45.77645" lon="6.64048">
        <ele>1398</ele>
        <time>2022-08-16T09:24:55Z</time>
      </trkpt>
      <trkpt lat="45.77646" lon="6.6405">
        <ele>1399</ele>
        <time>2022-08-16T09:24:56Z</time>
      </trkpt>
      <trkpt lat="45.77648" lon="6.64052">
        <ele>1399</ele>
        <time>2022-08-16T09:24:57Z</time>
      </trkpt>
      <trkpt lat="45.77649" lon="6.64054">
        <ele>1399</ele>
        <time>2022-08-16T09:24:58Z</time>
      </trkpt>
      <trkpt lat="45.77651" lon="6.64056">
        <ele>1399</ele>
        <time>2022-08-16T09:24:59Z</time>
      </trkpt>
      <trkpt lat="45.77652" lon="6.64058">
        <ele>1400</ele>
        <time>2022-08-16T09:25:00Z</time>
      </trkpt>
      <trkpt lat="45.77653" lon="6.64061">
        <ele>1399</ele>
        <time>2022-08-16T09:25:01Z</time>
      </trkpt>
      <trkpt lat="45.77654" lon="6.64063">
        <ele>1400</ele>
        <time>2022-08-16T09:25:02Z</time>
      </trkpt>
      <trkpt lat="45.77655" lon="6.64066">
        <ele>1400</ele>
        <time>2022-08-16T09:25:03Z</time>
      </trkpt>
      <trkpt lat="45.77656" lon="6.64068">
        <ele>1400</ele>
        <time>2022-08-16T09:25:04Z</time>
      </trkpt>
      <trkpt lat="45.77658" lon="6.6407">
        <ele>1400</ele>
        <time>2022-08-16T09:25:05Z</time>
      </trkpt>
      <trkpt lat="45.77659" lon="6.64073">
        <ele>1400</ele>
        <time>2022-08-16T09:25:06Z</time>
      </trkpt>
      <trkpt lat="45.7766" lon="6.64074">
        <ele>1401</ele>
        <time>2022-08-16T09:25:07Z</time>
      </trkpt>
      <trkpt lat="45.77662" lon="6.64076">
        <ele>1400</ele>
        <time>2022-08-16T09:25:08Z</time>
      </trkpt>
      <trkpt lat="45.77663" lon="6.64079">
        <ele>1401</ele>
        <time>2022-08-16T09:25:09Z</time>
      </trkpt>
      <trkpt lat="45.77664" lon="6.64081">
        <ele>1401</ele>
        <time>2022-08-16T09:25:10Z</time>
      </trkpt>
      <trkpt lat="45.77665" lon="6.64084">
        <ele>1401</ele>
        <time>2022-08-16T09:25:11Z</time>
      </trkpt>
      <trkpt lat="45.77666" lon="6.64086">
        <ele>1401</ele>
        <time>2022-08-16T09:25:12Z</time>
      </trkpt>
      <trkpt lat="45.77668" lon="6.64088">
        <ele>1401</ele>
        <time>2022-08-16T09:25:13Z</time>
      </trkpt>
      <trkpt lat="45.77669" lon="6.6409">
        <ele>1401</ele>
        <time>2022-08-16T09:25:14Z</time>
      </trkpt>
      <trkpt lat="45.7767" lon="6.64092">
        <ele>1401</ele>
        <time>2022-08-16T09:25:15Z</time>
      </trkpt>
      <trkpt lat="45.77672" lon="6.64095">
        <ele>1401</ele>
        <time>2022-08-16T09:25:16Z</time>
      </trkpt>
      <trkpt lat="45.77673" lon="6.64097">
        <ele>1401</ele>
        <time>2022-08-16T09:25:17Z</time>
      </trkpt>
      <trkpt lat="45.77675" lon="6.64099">
        <ele>1401</ele>
        <time>2022-08-16T09:25:18Z</time>
      </trkpt>
      <trkpt lat="45.77676" lon="6.64101">
        <ele>1401</ele>
        <time>2022-08-16T09:25:19Z</time>
      </trkpt>
      <trkpt lat="45.77678" lon="6.64104">
        <ele>1402</ele>
        <time>2022-08-16T09:25:20Z</time>
      </trkpt>
      <trkpt lat="45.77679" lon="6.64106">
        <ele>1402</ele>
        <time>2022-08-16T09:25:21Z</time>
      </trkpt>
      <trkpt lat="45.7768" lon="6.64108">
        <ele>1402</ele>
        <time>2022-08-16T09:25:22Z</time>
      </trkpt>
      <trkpt lat="45.77682" lon="6.6411">
        <ele>1403</ele>
        <time>2022-08-16T09:25:23Z</time>
      </trkpt>
      <trkpt lat="45.77683" lon="6.64112">
        <ele>1403</ele>
        <time>2022-08-16T09:25:24Z</time>
      </trkpt>
      <trkpt lat="45.77685" lon="6.64114">
        <ele>1403</ele>
        <time>2022-08-16T09:25:25Z</time>
      </trkpt>
      <trkpt lat="45.77686" lon="6.64117">
        <ele>1403</ele>
        <time>2022-08-16T09:25:26Z</time>
      </trkpt>
      <trkpt lat="45.77687" lon="6.64118">
        <ele>1404</ele>
        <time>2022-08-16T09:25:27Z</time>
      </trkpt>
      <trkpt lat="45.77688" lon="6.6412">
        <ele>1405</ele>
        <time>2022-08-16T09:25:28Z</time>
      </trkpt>
      <trkpt lat="45.7769" lon="6.64122">
        <ele>1405</ele>
        <time>2022-08-16T09:25:29Z</time>
      </trkpt>
      <trkpt lat="45.77691" lon="6.64124">
        <ele>1405</ele>
        <time>2022-08-16T09:25:30Z</time>
      </trkpt>
      <trkpt lat="45.77692" lon="6.64126">
        <ele>1405</ele>
        <time>2022-08-16T09:25:31Z</time>
      </trkpt>
      <trkpt lat="45.77694" lon="6.64128">
        <ele>1405</ele>
        <time>2022-08-16T09:25:32Z</time>
      </trkpt>
      <trkpt lat="45.77695" lon="6.6413">
        <ele>1405</ele>
        <time>2022-08-16T09:25:33Z</time>
      </trkpt>
      <trkpt lat="45.77697" lon="6.64132">
        <ele>1405</ele>
        <time>2022-08-16T09:25:34Z</time>
      </trkpt>
      <trkpt lat="45.77698" lon="6.64134">
        <ele>1406</ele>
        <time>2022-08-16T09:25:35Z</time>
      </trkpt>
      <trkpt lat="45.777" lon="6.64135">
        <ele>1406</ele>
        <time>2022-08-16T09:25:36Z</time>
      </trkpt>
      <trkpt lat="45.77701" lon="6.64137">
        <ele>1406</ele>
        <time>2022-08-16T09:25:37Z</time>
      </trkpt>
      <trkpt lat="45.77702" lon="6.64138">
        <ele>1406</ele>
        <time>2022-08-16T09:25:38Z</time>
      </trkpt>
      <trkpt lat="45.77704" lon="6.64139">
        <ele>1406</ele>
        <time>2022-08-16T09:25:39Z</time>
      </trkpt>
      <trkpt lat="45.77705" lon="6.64141">
        <ele>1406</ele>
        <time>2022-08-16T09:25:40Z</time>
      </trkpt>
      <trkpt lat="45.77706" lon="6.64142">
        <ele>1406</ele>
        <time>2022-08-16T09:25:41Z</time>
      </trkpt>
      <trkpt lat="45.77707" lon="6.64142">
        <ele>1406</ele>
        <time>2022-08-16T09:25:42Z</time>
      </trkpt>
      <trkpt lat="45.77707" lon="6.64142">
        <ele>1406</ele>
        <time>2022-08-16T09:25:43Z</time>
      </trkpt>
      <trkpt lat="45.77707" lon="6.64142">
        <ele>1406</ele>
        <time>2022-08-16T09:25:44Z</time>
      </trkpt>
      <trkpt lat="45.77707" lon="6.64142">
        <ele>1406</ele>
        <time>2022-08-16T09:25:45Z</time>
      </trkpt>
      <trkpt lat="45.77708" lon="6.64142">
        <ele>1407</ele>
        <time>2022-08-16T09:25:46Z</time>
      </trkpt>
      <trkpt lat="45.77708" lon="6.64142">
        <ele>1407</ele>
        <time>2022-08-16T09:25:47Z</time>
      </trkpt>
      <trkpt lat="45.77708" lon="6.64142">
        <ele>1407</ele>
        <time>2022-08-16T09:25:48Z</time>
      </trkpt>
      <trkpt lat="45.77708" lon="6.64142">
        <ele>1407</ele>
        <time>2022-08-16T09:25:49Z</time>
      </trkpt>
      <trkpt lat="45.77708" lon="6.64142">
        <ele>1407</ele>
        <time>2022-08-16T09:25:53Z</time>
      </trkpt>
      <trkpt lat="45.77708" lon="6.64142">
        <ele>1407</ele>
        <time>2022-08-16T09:25:57Z</time>
      </trkpt>
      <trkpt lat="45.77708" lon="6.64142">
        <ele>1407</ele>
        <time>2022-08-16T09:26:01Z</time>
      </trkpt>
      <trkpt lat="45.77708" lon="6.64142">
        <ele>1407</ele>
        <time>2022-08-16T09:26:05Z</time>
      </trkpt>
      <trkpt lat="45.77708" lon="6.64142">
        <ele>1407</ele>
        <time>2022-08-16T09:26:09Z</time>
      </trkpt>
      <trkpt lat="45.77707" lon="6.64142">
        <ele>1406</ele>
        <time>2022-08-16T09:26:13Z</time>
      </trkpt>
      <trkpt lat="45.77707" lon="6.64141">
        <ele>1406</ele>
        <time>2022-08-16T09:26:14Z</time>
      </trkpt>
      <trkpt lat="45.77707" lon="6.64142">
        <ele>1406</ele>
        <time>2022-08-16T09:26:15Z</time>
      </trkpt>
      <trkpt lat="45.77707" lon="6.64141">
        <ele>1406</ele>
        <time>2022-08-16T09:26:16Z</time>
      </trkpt>
      <trkpt lat="45.77707" lon="6.64141">
        <ele>1406</ele>
        <time>2022-08-16T09:26:20Z</time>
      </trkpt>
      <trkpt lat="45.77707" lon="6.64141">
        <ele>1406</ele>
        <time>2022-08-16T09:26:24Z</time>
      </trkpt>
      <trkpt lat="45.77706" lon="6.64142">
        <ele>1408</ele>
        <time>2022-08-16T09:26:27Z</time>
      </trkpt>
      <trkpt lat="45.77706" lon="6.64142">
        <ele>1408</ele>
        <time>2022-08-16T09:26:28Z</time>
      </trkpt>
      <trkpt lat="45.77706" lon="6.64143">
        <ele>1408</ele>
        <time>2022-08-16T09:26:29Z</time>
      </trkpt>
      <trkpt lat="45.77706" lon="6.64143">
        <ele>1408</ele>
        <time>2022-08-16T09:26:30Z</time>
      </trkpt>
      <trkpt lat="45.77706" lon="6.64143">
        <ele>1408</ele>
        <time>2022-08-16T09:26:31Z</time>
      </trkpt>
      <trkpt lat="45.77706" lon="6.64143">
        <ele>1408</ele>
        <time>2022-08-16T09:26:35Z</time>
      </trkpt>
      <trkpt lat="45.77706" lon="6.64143">
        <ele>1408</ele>
        <time>2022-08-16T09:26:39Z</time>
      </trkpt>
      <trkpt lat="45.77706" lon="6.64143">
        <ele>1408</ele>
        <time>2022-08-16T09:26:43Z</time>
      </trkpt>
      <trkpt lat="45.77705" lon="6.64143">
        <ele>1408</ele>
        <time>2022-08-16T09:26:47Z</time>
      </trkpt>
      <trkpt lat="45.77705" lon="6.64143">
        <ele>1408</ele>
        <time>2022-08-16T09:26:48Z</time>
      </trkpt>
      <trkpt lat="45.77705" lon="6.64143">
        <ele>1408</ele>
        <time>2022-08-16T09:26:49Z</time>
      </trkpt>
      <trkpt lat="45.77705" lon="6.64143">
        <ele>1408</ele>
        <time>2022-08-16T09:26:50Z</time>
      </trkpt>
      <trkpt lat="45.77705" lon="6.64143">
        <ele>1408</ele>
        <time>2022-08-16T09:26:51Z</time>
      </trkpt>
      <trkpt lat="45.77706" lon="6.64143">
        <ele>1408</ele>
        <time>2022-08-16T09:26:52Z</time>
      </trkpt>
      <trkpt lat="45.77708" lon="6.64143">
        <ele>1408</ele>
        <time>2022-08-16T09:26:53Z</time>
      </trkpt>
      <trkpt lat="45.7771" lon="6.64143">
        <ele>1407</ele>
        <time>2022-08-16T09:26:54Z</time>
      </trkpt>
      <trkpt lat="45.77711" lon="6.64143">
        <ele>1407</ele>
        <time>2022-08-16T09:26:55Z</time>
      </trkpt>
      <trkpt lat="45.77713" lon="6.64143">
        <ele>1406</ele>
        <time>2022-08-16T09:26:56Z</time>
      </trkpt>
      <trkpt lat="45.77715" lon="6.64142">
        <ele>1406</ele>
        <time>2022-08-16T09:26:57Z</time>
      </trkpt>
      <trkpt lat="45.77716" lon="6.64141">
        <ele>1406</ele>
        <time>2022-08-16T09:26:58Z</time>
      </trkpt>
      <trkpt lat="45.77718" lon="6.64139">
        <ele>1406</ele>
        <time>2022-08-16T09:26:59Z</time>
      </trkpt>
      <trkpt lat="45.7772" lon="6.64137">
        <ele>1406</ele>
        <time>2022-08-16T09:27:00Z</time>
      </trkpt>
      <trkpt lat="45.77721" lon="6.64134">
        <ele>1406</ele>
        <time>2022-08-16T09:27:01Z</time>
      </trkpt>
      <trkpt lat="45.77722" lon="6.64131">
        <ele>1406</ele>
        <time>2022-08-16T09:27:02Z</time>
      </trkpt>
      <trkpt lat="45.77723" lon="6.64127">
        <ele>1406</ele>
        <time>2022-08-16T09:27:03Z</time>
      </trkpt>
      <trkpt lat="45.77723" lon="6.64123">
        <ele>1406</ele>
        <time>2022-08-16T09:27:04Z</time>
      </trkpt>
      <trkpt lat="45.77723" lon="6.64119">
        <ele>1406</ele>
        <time>2022-08-16T09:27:05Z</time>
      </trkpt>
      <trkpt lat="45.77723" lon="6.64116">
        <ele>1406</ele>
        <time>2022-08-16T09:27:06Z</time>
      </trkpt>
      <trkpt lat="45.77722" lon="6.64113">
        <ele>1406</ele>
        <time>2022-08-16T09:27:07Z</time>
      </trkpt>
      <trkpt lat="45.7772" lon="6.6411">
        <ele>1406</ele>
        <time>2022-08-16T09:27:08Z</time>
      </trkpt>
      <trkpt lat="45.77719" lon="6.64107">
        <ele>1406</ele>
        <time>2022-08-16T09:27:09Z</time>
      </trkpt>
      <trkpt lat="45.77718" lon="6.64105">
        <ele>1406</ele>
        <time>2022-08-16T09:27:10Z</time>
      </trkpt>
      <trkpt lat="45.77716" lon="6.64102">
        <ele>1406</ele>
        <time>2022-08-16T09:27:11Z</time>
      </trkpt>
      <trkpt lat="45.77715" lon="6.641">
        <ele>1406</ele>
        <time>2022-08-16T09:27:12Z</time>
      </trkpt>
      <trkpt lat="45.77714" lon="6.64097">
        <ele>1406</ele>
        <time>2022-08-16T09:27:13Z</time>
      </trkpt>
      <trkpt lat="45.77712" lon="6.64094">
        <ele>1406</ele>
        <time>2022-08-16T09:27:14Z</time>
      </trkpt>
      <trkpt lat="45.77711" lon="6.64092">
        <ele>1407</ele>
        <time>2022-08-16T09:27:15Z</time>
      </trkpt>
      <trkpt lat="45.77709" lon="6.6409">
        <ele>1407</ele>
        <time>2022-08-16T09:27:16Z</time>
      </trkpt>
      <trkpt lat="45.77708" lon="6.64088">
        <ele>1407</ele>
        <time>2022-08-16T09:27:17Z</time>
      </trkpt>
      <trkpt lat="45.77706" lon="6.64085">
        <ele>1408</ele>
        <time>2022-08-16T09:27:18Z</time>
      </trkpt>
      <trkpt lat="45.77705" lon="6.64082">
        <ele>1408</ele>
        <time>2022-08-16T09:27:19Z</time>
      </trkpt>
      <trkpt lat="45.77704" lon="6.64079">
        <ele>1408</ele>
        <time>2022-08-16T09:27:20Z</time>
      </trkpt>
      <trkpt lat="45.77703" lon="6.64076">
        <ele>1408</ele>
        <time>2022-08-16T09:27:21Z</time>
      </trkpt>
      <trkpt lat="45.77702" lon="6.64074">
        <ele>1408</ele>
        <time>2022-08-16T09:27:22Z</time>
      </trkpt>
      <trkpt lat="45.77702" lon="6.64071">
        <ele>1408</ele>
        <time>2022-08-16T09:27:23Z</time>
      </trkpt>
      <trkpt lat="45.77701" lon="6.64068">
        <ele>1408</ele>
        <time>2022-08-16T09:27:24Z</time>
      </trkpt>
      <trkpt lat="45.777" lon="6.64066">
        <ele>1408</ele>
        <time>2022-08-16T09:27:25Z</time>
      </trkpt>
      <trkpt lat="45.777" lon="6.64063">
        <ele>1408</ele>
        <time>2022-08-16T09:27:26Z</time>
      </trkpt>
      <trkpt lat="45.77699" lon="6.6406">
        <ele>1408</ele>
        <time>2022-08-16T09:27:27Z</time>
      </trkpt>
      <trkpt lat="45.77698" lon="6.64058">
        <ele>1409</ele>
        <time>2022-08-16T09:27:28Z</time>
      </trkpt>
      <trkpt lat="45.77697" lon="6.64055">
        <ele>1409</ele>
        <time>2022-08-16T09:27:29Z</time>
      </trkpt>
      <trkpt lat="45.77696" lon="6.64052">
        <ele>1409</ele>
        <time>2022-08-16T09:27:30Z</time>
      </trkpt>
      <trkpt lat="45.77695" lon="6.64049">
        <ele>1409</ele>
        <time>2022-08-16T09:27:31Z</time>
      </trkpt>
      <trkpt lat="45.77694" lon="6.64046">
        <ele>1409</ele>
        <time>2022-08-16T09:27:32Z</time>
      </trkpt>
      <trkpt lat="45.77693" lon="6.64043">
        <ele>1408</ele>
        <time>2022-08-16T09:27:33Z</time>
      </trkpt>
      <trkpt lat="45.77692" lon="6.6404">
        <ele>1408</ele>
        <time>2022-08-16T09:27:34Z</time>
      </trkpt>
      <trkpt lat="45.77692" lon="6.64037">
        <ele>1408</ele>
        <time>2022-08-16T09:27:35Z</time>
      </trkpt>
      <trkpt lat="45.77691" lon="6.64034">
        <ele>1408</ele>
        <time>2022-08-16T09:27:36Z</time>
      </trkpt>
      <trkpt lat="45.7769" lon="6.64032">
        <ele>1408</ele>
        <time>2022-08-16T09:27:37Z</time>
      </trkpt>
      <trkpt lat="45.77689" lon="6.64029">
        <ele>1408</ele>
        <time>2022-08-16T09:27:38Z</time>
      </trkpt>
      <trkpt lat="45.77688" lon="6.64027">
        <ele>1408</ele>
        <time>2022-08-16T09:27:39Z</time>
      </trkpt>
      <trkpt lat="45.77688" lon="6.64024">
        <ele>1408</ele>
        <time>2022-08-16T09:27:40Z</time>
      </trkpt>
      <trkpt lat="45.77687" lon="6.64021">
        <ele>1409</ele>
        <time>2022-08-16T09:27:41Z</time>
      </trkpt>
      <trkpt lat="45.77686" lon="6.64018">
        <ele>1409</ele>
        <time>2022-08-16T09:27:42Z</time>
      </trkpt>
      <trkpt lat="45.77685" lon="6.64016">
        <ele>1409</ele>
        <time>2022-08-16T09:27:43Z</time>
      </trkpt>
      <trkpt lat="45.77684" lon="6.64013">
        <ele>1409</ele>
        <time>2022-08-16T09:27:44Z</time>
      </trkpt>
      <trkpt lat="45.77684" lon="6.6401">
        <ele>1409</ele>
        <time>2022-08-16T09:27:45Z</time>
      </trkpt>
      <trkpt lat="45.77683" lon="6.64008">
        <ele>1409</ele>
        <time>2022-08-16T09:27:46Z</time>
      </trkpt>
      <trkpt lat="45.77683" lon="6.64006">
        <ele>1410</ele>
        <time>2022-08-16T09:27:47Z</time>
      </trkpt>
      <trkpt lat="45.77682" lon="6.64003">
        <ele>1411</ele>
        <time>2022-08-16T09:27:48Z</time>
      </trkpt>
      <trkpt lat="45.77682" lon="6.64">
        <ele>1411</ele>
        <time>2022-08-16T09:27:49Z</time>
      </trkpt>
      <trkpt lat="45.77681" lon="6.63998">
        <ele>1412</ele>
        <time>2022-08-16T09:27:50Z</time>
      </trkpt>
      <trkpt lat="45.77681" lon="6.63995">
        <ele>1412</ele>
        <time>2022-08-16T09:27:51Z</time>
      </trkpt>
      <trkpt lat="45.7768" lon="6.63993">
        <ele>1412</ele>
        <time>2022-08-16T09:27:52Z</time>
      </trkpt>
      <trkpt lat="45.7768" lon="6.6399">
        <ele>1412</ele>
        <time>2022-08-16T09:27:53Z</time>
      </trkpt>
      <trkpt lat="45.77679" lon="6.63988">
        <ele>1413</ele>
        <time>2022-08-16T09:27:54Z</time>
      </trkpt>
      <trkpt lat="45.77678" lon="6.63986">
        <ele>1414</ele>
        <time>2022-08-16T09:27:55Z</time>
      </trkpt>
      <trkpt lat="45.77677" lon="6.63983">
        <ele>1414</ele>
        <time>2022-08-16T09:27:56Z</time>
      </trkpt>
      <trkpt lat="45.77677" lon="6.6398">
        <ele>1414</ele>
        <time>2022-08-16T09:27:57Z</time>
      </trkpt>
      <trkpt lat="45.77676" lon="6.63977">
        <ele>1413</ele>
        <time>2022-08-16T09:27:58Z</time>
      </trkpt>
      <trkpt lat="45.77676" lon="6.63974">
        <ele>1414</ele>
        <time>2022-08-16T09:27:59Z</time>
      </trkpt>
      <trkpt lat="45.77675" lon="6.63972">
        <ele>1414</ele>
        <time>2022-08-16T09:28:00Z</time>
      </trkpt>
      <trkpt lat="45.77674" lon="6.6397">
        <ele>1415</ele>
        <time>2022-08-16T09:28:01Z</time>
      </trkpt>
      <trkpt lat="45.77674" lon="6.63967">
        <ele>1415</ele>
        <time>2022-08-16T09:28:02Z</time>
      </trkpt>
      <trkpt lat="45.77673" lon="6.63965">
        <ele>1415</ele>
        <time>2022-08-16T09:28:03Z</time>
      </trkpt>
      <trkpt lat="45.77672" lon="6.63962">
        <ele>1415</ele>
        <time>2022-08-16T09:28:04Z</time>
      </trkpt>
      <trkpt lat="45.77672" lon="6.63959">
        <ele>1415</ele>
        <time>2022-08-16T09:28:05Z</time>
      </trkpt>
      <trkpt lat="45.77671" lon="6.63956">
        <ele>1414</ele>
        <time>2022-08-16T09:28:06Z</time>
      </trkpt>
      <trkpt lat="45.7767" lon="6.63953">
        <ele>1415</ele>
        <time>2022-08-16T09:28:07Z</time>
      </trkpt>
      <trkpt lat="45.7767" lon="6.6395">
        <ele>1414</ele>
        <time>2022-08-16T09:28:08Z</time>
      </trkpt>
      <trkpt lat="45.7767" lon="6.63947">
        <ele>1414</ele>
        <time>2022-08-16T09:28:09Z</time>
      </trkpt>
      <trkpt lat="45.7767" lon="6.63943">
        <ele>1414</ele>
        <time>2022-08-16T09:28:10Z</time>
      </trkpt>
      <trkpt lat="45.77669" lon="6.6394">
        <ele>1414</ele>
        <time>2022-08-16T09:28:11Z</time>
      </trkpt>
      <trkpt lat="45.77669" lon="6.63937">
        <ele>1414</ele>
        <time>2022-08-16T09:28:12Z</time>
      </trkpt>
      <trkpt lat="45.77669" lon="6.63934">
        <ele>1415</ele>
        <time>2022-08-16T09:28:13Z</time>
      </trkpt>
      <trkpt lat="45.77669" lon="6.63931">
        <ele>1415</ele>
        <time>2022-08-16T09:28:14Z</time>
      </trkpt>
      <trkpt lat="45.77668" lon="6.63929">
        <ele>1416</ele>
        <time>2022-08-16T09:28:15Z</time>
      </trkpt>
      <trkpt lat="45.77668" lon="6.63927">
        <ele>1416</ele>
        <time>2022-08-16T09:28:16Z</time>
      </trkpt>
      <trkpt lat="45.77668" lon="6.63924">
        <ele>1415</ele>
        <time>2022-08-16T09:28:17Z</time>
      </trkpt>
      <trkpt lat="45.77667" lon="6.63921">
        <ele>1416</ele>
        <time>2022-08-16T09:28:18Z</time>
      </trkpt>
      <trkpt lat="45.77667" lon="6.63919">
        <ele>1416</ele>
        <time>2022-08-16T09:28:19Z</time>
      </trkpt>
      <trkpt lat="45.77667" lon="6.63916">
        <ele>1416</ele>
        <time>2022-08-16T09:28:20Z</time>
      </trkpt>
      <trkpt lat="45.77667" lon="6.63913">
        <ele>1417</ele>
        <time>2022-08-16T09:28:21Z</time>
      </trkpt>
      <trkpt lat="45.77667" lon="6.63911">
        <ele>1417</ele>
        <time>2022-08-16T09:28:22Z</time>
      </trkpt>
      <trkpt lat="45.77667" lon="6.63908">
        <ele>1417</ele>
        <time>2022-08-16T09:28:23Z</time>
      </trkpt>
      <trkpt lat="45.77667" lon="6.63905">
        <ele>1418</ele>
        <time>2022-08-16T09:28:24Z</time>
      </trkpt>
      <trkpt lat="45.77667" lon="6.63903">
        <ele>1418</ele>
        <time>2022-08-16T09:28:25Z</time>
      </trkpt>
      <trkpt lat="45.77667" lon="6.639">
        <ele>1418</ele>
        <time>2022-08-16T09:28:26Z</time>
      </trkpt>
      <trkpt lat="45.77668" lon="6.63897">
        <ele>1419</ele>
        <time>2022-08-16T09:28:27Z</time>
      </trkpt>
      <trkpt lat="45.77668" lon="6.63895">
        <ele>1419</ele>
        <time>2022-08-16T09:28:28Z</time>
      </trkpt>
      <trkpt lat="45.77668" lon="6.63891">
        <ele>1420</ele>
        <time>2022-08-16T09:28:29Z</time>
      </trkpt>
      <trkpt lat="45.77667" lon="6.63889">
        <ele>1420</ele>
        <time>2022-08-16T09:28:30Z</time>
      </trkpt>
      <trkpt lat="45.77667" lon="6.63886">
        <ele>1420</ele>
        <time>2022-08-16T09:28:31Z</time>
      </trkpt>
      <trkpt lat="45.77667" lon="6.63884">
        <ele>1421</ele>
        <time>2022-08-16T09:28:32Z</time>
      </trkpt>
      <trkpt lat="45.77667" lon="6.6388">
        <ele>1421</ele>
        <time>2022-08-16T09:28:33Z</time>
      </trkpt>
      <trkpt lat="45.77667" lon="6.63877">
        <ele>1422</ele>
        <time>2022-08-16T09:28:34Z</time>
      </trkpt>
      <trkpt lat="45.77667" lon="6.63875">
        <ele>1422</ele>
        <time>2022-08-16T09:28:35Z</time>
      </trkpt>
      <trkpt lat="45.77668" lon="6.63872">
        <ele>1422</ele>
        <time>2022-08-16T09:28:36Z</time>
      </trkpt>
      <trkpt lat="45.77668" lon="6.63869">
        <ele>1422</ele>
        <time>2022-08-16T09:28:37Z</time>
      </trkpt>
      <trkpt lat="45.77668" lon="6.63866">
        <ele>1422</ele>
        <time>2022-08-16T09:28:38Z</time>
      </trkpt>
      <trkpt lat="45.77668" lon="6.63864">
        <ele>1423</ele>
        <time>2022-08-16T09:28:39Z</time>
      </trkpt>
      <trkpt lat="45.77668" lon="6.63861">
        <ele>1423</ele>
        <time>2022-08-16T09:28:40Z</time>
      </trkpt>
      <trkpt lat="45.77668" lon="6.63859">
        <ele>1423</ele>
        <time>2022-08-16T09:28:41Z</time>
      </trkpt>
      <trkpt lat="45.77669" lon="6.63856">
        <ele>1424</ele>
        <time>2022-08-16T09:28:42Z</time>
      </trkpt>
      <trkpt lat="45.77669" lon="6.63854">
        <ele>1425</ele>
        <time>2022-08-16T09:28:43Z</time>
      </trkpt>
      <trkpt lat="45.77668" lon="6.63851">
        <ele>1425</ele>
        <time>2022-08-16T09:28:44Z</time>
      </trkpt>
      <trkpt lat="45.77668" lon="6.63848">
        <ele>1425</ele>
        <time>2022-08-16T09:28:45Z</time>
      </trkpt>
      <trkpt lat="45.77668" lon="6.63846">
        <ele>1425</ele>
        <time>2022-08-16T09:28:46Z</time>
      </trkpt>
      <trkpt lat="45.77669" lon="6.63843">
        <ele>1426</ele>
        <time>2022-08-16T09:28:47Z</time>
      </trkpt>
      <trkpt lat="45.77669" lon="6.6384">
        <ele>1426</ele>
        <time>2022-08-16T09:28:48Z</time>
      </trkpt>
      <trkpt lat="45.77669" lon="6.63837">
        <ele>1426</ele>
        <time>2022-08-16T09:28:49Z</time>
      </trkpt>
      <trkpt lat="45.7767" lon="6.63834">
        <ele>1426</ele>
        <time>2022-08-16T09:28:50Z</time>
      </trkpt>
      <trkpt lat="45.7767" lon="6.63831">
        <ele>1427</ele>
        <time>2022-08-16T09:28:51Z</time>
      </trkpt>
      <trkpt lat="45.7767" lon="6.63828">
        <ele>1427</ele>
        <time>2022-08-16T09:28:52Z</time>
      </trkpt>
      <trkpt lat="45.7767" lon="6.63826">
        <ele>1427</ele>
        <time>2022-08-16T09:28:53Z</time>
      </trkpt>
      <trkpt lat="45.7767" lon="6.63823">
        <ele>1428</ele>
        <time>2022-08-16T09:28:54Z</time>
      </trkpt>
      <trkpt lat="45.7767" lon="6.6382">
        <ele>1428</ele>
        <time>2022-08-16T09:28:55Z</time>
      </trkpt>
      <trkpt lat="45.7767" lon="6.63817">
        <ele>1428</ele>
        <time>2022-08-16T09:28:56Z</time>
      </trkpt>
      <trkpt lat="45.7767" lon="6.63814">
        <ele>1428</ele>
        <time>2022-08-16T09:28:57Z</time>
      </trkpt>
      <trkpt lat="45.7767" lon="6.63811">
        <ele>1429</ele>
        <time>2022-08-16T09:28:58Z</time>
      </trkpt>
      <trkpt lat="45.7767" lon="6.63808">
        <ele>1429</ele>
        <time>2022-08-16T09:28:59Z</time>
      </trkpt>
      <trkpt lat="45.7767" lon="6.63805">
        <ele>1429</ele>
        <time>2022-08-16T09:29:00Z</time>
      </trkpt>
      <trkpt lat="45.7767" lon="6.63801">
        <ele>1430</ele>
        <time>2022-08-16T09:29:01Z</time>
      </trkpt>
      <trkpt lat="45.7767" lon="6.63798">
        <ele>1430</ele>
        <time>2022-08-16T09:29:02Z</time>
      </trkpt>
      <trkpt lat="45.77671" lon="6.63796">
        <ele>1430</ele>
        <time>2022-08-16T09:29:03Z</time>
      </trkpt>
      <trkpt lat="45.77671" lon="6.63793">
        <ele>1430</ele>
        <time>2022-08-16T09:29:04Z</time>
      </trkpt>
      <trkpt lat="45.77671" lon="6.6379">
        <ele>1430</ele>
        <time>2022-08-16T09:29:05Z</time>
      </trkpt>
      <trkpt lat="45.77672" lon="6.63787">
        <ele>1430</ele>
        <time>2022-08-16T09:29:06Z</time>
      </trkpt>
      <trkpt lat="45.77672" lon="6.63784">
        <ele>1431</ele>
        <time>2022-08-16T09:29:07Z</time>
      </trkpt>
      <trkpt lat="45.77673" lon="6.63782">
        <ele>1431</ele>
        <time>2022-08-16T09:29:08Z</time>
      </trkpt>
      <trkpt lat="45.77673" lon="6.63779">
        <ele>1431</ele>
        <time>2022-08-16T09:29:09Z</time>
      </trkpt>
      <trkpt lat="45.77674" lon="6.63776">
        <ele>1432</ele>
        <time>2022-08-16T09:29:10Z</time>
      </trkpt>
      <trkpt lat="45.77675" lon="6.63773">
        <ele>1432</ele>
        <time>2022-08-16T09:29:11Z</time>
      </trkpt>
      <trkpt lat="45.77675" lon="6.63771">
        <ele>1433</ele>
        <time>2022-08-16T09:29:12Z</time>
      </trkpt>
      <trkpt lat="45.77676" lon="6.63768">
        <ele>1433</ele>
        <time>2022-08-16T09:29:13Z</time>
      </trkpt>
      <trkpt lat="45.77677" lon="6.63766">
        <ele>1433</ele>
        <time>2022-08-16T09:29:14Z</time>
      </trkpt>
      <trkpt lat="45.77678" lon="6.63763">
        <ele>1434</ele>
        <time>2022-08-16T09:29:15Z</time>
      </trkpt>
      <trkpt lat="45.77679" lon="6.63761">
        <ele>1434</ele>
        <time>2022-08-16T09:29:16Z</time>
      </trkpt>
      <trkpt lat="45.77679" lon="6.63758">
        <ele>1434</ele>
        <time>2022-08-16T09:29:17Z</time>
      </trkpt>
      <trkpt lat="45.77679" lon="6.63756">
        <ele>1434</ele>
        <time>2022-08-16T09:29:18Z</time>
      </trkpt>
      <trkpt lat="45.7768" lon="6.63753">
        <ele>1433</ele>
        <time>2022-08-16T09:29:19Z</time>
      </trkpt>
      <trkpt lat="45.7768" lon="6.6375">
        <ele>1434</ele>
        <time>2022-08-16T09:29:20Z</time>
      </trkpt>
      <trkpt lat="45.77681" lon="6.63747">
        <ele>1434</ele>
        <time>2022-08-16T09:29:21Z</time>
      </trkpt>
      <trkpt lat="45.77682" lon="6.63745">
        <ele>1433</ele>
        <time>2022-08-16T09:29:22Z</time>
      </trkpt>
      <trkpt lat="45.77682" lon="6.63742">
        <ele>1433</ele>
        <time>2022-08-16T09:29:23Z</time>
      </trkpt>
      <trkpt lat="45.77683" lon="6.63738">
        <ele>1433</ele>
        <time>2022-08-16T09:29:24Z</time>
      </trkpt>
      <trkpt lat="45.77684" lon="6.63736">
        <ele>1434</ele>
        <time>2022-08-16T09:29:25Z</time>
      </trkpt>
      <trkpt lat="45.77684" lon="6.63733">
        <ele>1434</ele>
        <time>2022-08-16T09:29:26Z</time>
      </trkpt>
      <trkpt lat="45.77685" lon="6.6373">
        <ele>1435</ele>
        <time>2022-08-16T09:29:27Z</time>
      </trkpt>
      <trkpt lat="45.77685" lon="6.63726">
        <ele>1435</ele>
        <time>2022-08-16T09:29:28Z</time>
      </trkpt>
      <trkpt lat="45.77686" lon="6.63723">
        <ele>1436</ele>
        <time>2022-08-16T09:29:29Z</time>
      </trkpt>
      <trkpt lat="45.77686" lon="6.63721">
        <ele>1436</ele>
        <time>2022-08-16T09:29:30Z</time>
      </trkpt>
      <trkpt lat="45.77687" lon="6.63718">
        <ele>1436</ele>
        <time>2022-08-16T09:29:31Z</time>
      </trkpt>
      <trkpt lat="45.77687" lon="6.63715">
        <ele>1437</ele>
        <time>2022-08-16T09:29:32Z</time>
      </trkpt>
      <trkpt lat="45.77688" lon="6.63712">
        <ele>1437</ele>
        <time>2022-08-16T09:29:33Z</time>
      </trkpt>
      <trkpt lat="45.77688" lon="6.6371">
        <ele>1437</ele>
        <time>2022-08-16T09:29:34Z</time>
      </trkpt>
      <trkpt lat="45.77689" lon="6.63707">
        <ele>1437</ele>
        <time>2022-08-16T09:29:35Z</time>
      </trkpt>
      <trkpt lat="45.7769" lon="6.63704">
        <ele>1437</ele>
        <time>2022-08-16T09:29:36Z</time>
      </trkpt>
      <trkpt lat="45.7769" lon="6.63702">
        <ele>1436</ele>
        <time>2022-08-16T09:29:37Z</time>
      </trkpt>
      <trkpt lat="45.77691" lon="6.63699">
        <ele>1436</ele>
        <time>2022-08-16T09:29:38Z</time>
      </trkpt>
      <trkpt lat="45.77691" lon="6.63696">
        <ele>1436</ele>
        <time>2022-08-16T09:29:39Z</time>
      </trkpt>
      <trkpt lat="45.77692" lon="6.63693">
        <ele>1436</ele>
        <time>2022-08-16T09:29:40Z</time>
      </trkpt>
      <trkpt lat="45.77693" lon="6.6369">
        <ele>1436</ele>
        <time>2022-08-16T09:29:41Z</time>
      </trkpt>
      <trkpt lat="45.77694" lon="6.63687">
        <ele>1436</ele>
        <time>2022-08-16T09:29:42Z</time>
      </trkpt>
      <trkpt lat="45.77695" lon="6.63684">
        <ele>1436</ele>
        <time>2022-08-16T09:29:43Z</time>
      </trkpt>
      <trkpt lat="45.77695" lon="6.63681">
        <ele>1436</ele>
        <time>2022-08-16T09:29:44Z</time>
      </trkpt>
      <trkpt lat="45.77696" lon="6.63677">
        <ele>1436</ele>
        <time>2022-08-16T09:29:45Z</time>
      </trkpt>
      <trkpt lat="45.77697" lon="6.63674">
        <ele>1437</ele>
        <time>2022-08-16T09:29:46Z</time>
      </trkpt>
      <trkpt lat="45.77698" lon="6.63671">
        <ele>1436</ele>
        <time>2022-08-16T09:29:47Z</time>
      </trkpt>
      <trkpt lat="45.77698" lon="6.63669">
        <ele>1436</ele>
        <time>2022-08-16T09:29:48Z</time>
      </trkpt>
      <trkpt lat="45.77699" lon="6.63666">
        <ele>1437</ele>
        <time>2022-08-16T09:29:49Z</time>
      </trkpt>
      <trkpt lat="45.77699" lon="6.63663">
        <ele>1437</ele>
        <time>2022-08-16T09:29:50Z</time>
      </trkpt>
      <trkpt lat="45.777" lon="6.6366">
        <ele>1438</ele>
        <time>2022-08-16T09:29:51Z</time>
      </trkpt>
      <trkpt lat="45.77701" lon="6.63657">
        <ele>1438</ele>
        <time>2022-08-16T09:29:52Z</time>
      </trkpt>
      <trkpt lat="45.77701" lon="6.63654">
        <ele>1438</ele>
        <time>2022-08-16T09:29:53Z</time>
      </trkpt>
      <trkpt lat="45.77701" lon="6.63651">
        <ele>1438</ele>
        <time>2022-08-16T09:29:54Z</time>
      </trkpt>
      <trkpt lat="45.77701" lon="6.63648">
        <ele>1438</ele>
        <time>2022-08-16T09:29:55Z</time>
      </trkpt>
      <trkpt lat="45.77701" lon="6.63644">
        <ele>1438</ele>
        <time>2022-08-16T09:29:56Z</time>
      </trkpt>
      <trkpt lat="45.777" lon="6.63642">
        <ele>1438</ele>
        <time>2022-08-16T09:29:57Z</time>
      </trkpt>
      <trkpt lat="45.777" lon="6.63638">
        <ele>1438</ele>
        <time>2022-08-16T09:29:58Z</time>
      </trkpt>
      <trkpt lat="45.777" lon="6.63635">
        <ele>1438</ele>
        <time>2022-08-16T09:29:59Z</time>
      </trkpt>
      <trkpt lat="45.77699" lon="6.63632">
        <ele>1438</ele>
        <time>2022-08-16T09:30:00Z</time>
      </trkpt>
      <trkpt lat="45.77699" lon="6.63629">
        <ele>1437</ele>
        <time>2022-08-16T09:30:01Z</time>
      </trkpt>
      <trkpt lat="45.77699" lon="6.63626">
        <ele>1438</ele>
        <time>2022-08-16T09:30:02Z</time>
      </trkpt>
      <trkpt lat="45.77698" lon="6.63623">
        <ele>1438</ele>
        <time>2022-08-16T09:30:03Z</time>
      </trkpt>
      <trkpt lat="45.77697" lon="6.6362">
        <ele>1437</ele>
        <time>2022-08-16T09:30:04Z</time>
      </trkpt>
      <trkpt lat="45.77697" lon="6.63617">
        <ele>1437</ele>
        <time>2022-08-16T09:30:05Z</time>
      </trkpt>
      <trkpt lat="45.77696" lon="6.63614">
        <ele>1437</ele>
        <time>2022-08-16T09:30:06Z</time>
      </trkpt>
      <trkpt lat="45.77695" lon="6.6361">
        <ele>1437</ele>
        <time>2022-08-16T09:30:07Z</time>
      </trkpt>
      <trkpt lat="45.77695" lon="6.63607">
        <ele>1437</ele>
        <time>2022-08-16T09:30:08Z</time>
      </trkpt>
      <trkpt lat="45.77694" lon="6.63604">
        <ele>1437</ele>
        <time>2022-08-16T09:30:09Z</time>
      </trkpt>
      <trkpt lat="45.77694" lon="6.636">
        <ele>1437</ele>
        <time>2022-08-16T09:30:10Z</time>
      </trkpt>
      <trkpt lat="45.77694" lon="6.63597">
        <ele>1437</ele>
        <time>2022-08-16T09:30:11Z</time>
      </trkpt>
      <trkpt lat="45.77694" lon="6.63594">
        <ele>1438</ele>
        <time>2022-08-16T09:30:12Z</time>
      </trkpt>
      <trkpt lat="45.77693" lon="6.63591">
        <ele>1438</ele>
        <time>2022-08-16T09:30:13Z</time>
      </trkpt>
      <trkpt lat="45.77693" lon="6.63588">
        <ele>1438</ele>
        <time>2022-08-16T09:30:14Z</time>
      </trkpt>
      <trkpt lat="45.77693" lon="6.63585">
        <ele>1438</ele>
        <time>2022-08-16T09:30:15Z</time>
      </trkpt>
      <trkpt lat="45.77693" lon="6.63581">
        <ele>1437</ele>
        <time>2022-08-16T09:30:16Z</time>
      </trkpt>
      <trkpt lat="45.77693" lon="6.63578">
        <ele>1437</ele>
        <time>2022-08-16T09:30:17Z</time>
      </trkpt>
      <trkpt lat="45.77693" lon="6.63574">
        <ele>1438</ele>
        <time>2022-08-16T09:30:18Z</time>
      </trkpt>
      <trkpt lat="45.77693" lon="6.63571">
        <ele>1438</ele>
        <time>2022-08-16T09:30:19Z</time>
      </trkpt>
      <trkpt lat="45.77693" lon="6.63568">
        <ele>1438</ele>
        <time>2022-08-16T09:30:20Z</time>
      </trkpt>
      <trkpt lat="45.77694" lon="6.63565">
        <ele>1439</ele>
        <time>2022-08-16T09:30:21Z</time>
      </trkpt>
      <trkpt lat="45.77695" lon="6.63562">
        <ele>1438</ele>
        <time>2022-08-16T09:30:22Z</time>
      </trkpt>
      <trkpt lat="45.77695" lon="6.63559">
        <ele>1438</ele>
        <time>2022-08-16T09:30:23Z</time>
      </trkpt>
      <trkpt lat="45.77696" lon="6.63556">
        <ele>1438</ele>
        <time>2022-08-16T09:30:24Z</time>
      </trkpt>
      <trkpt lat="45.77696" lon="6.63553">
        <ele>1438</ele>
        <time>2022-08-16T09:30:25Z</time>
      </trkpt>
      <trkpt lat="45.77697" lon="6.6355">
        <ele>1438</ele>
        <time>2022-08-16T09:30:26Z</time>
      </trkpt>
      <trkpt lat="45.77698" lon="6.63547">
        <ele>1439</ele>
        <time>2022-08-16T09:30:27Z</time>
      </trkpt>
      <trkpt lat="45.77698" lon="6.63544">
        <ele>1439</ele>
        <time>2022-08-16T09:30:28Z</time>
      </trkpt>
      <trkpt lat="45.77699" lon="6.63541">
        <ele>1439</ele>
        <time>2022-08-16T09:30:29Z</time>
      </trkpt>
      <trkpt lat="45.777" lon="6.63538">
        <ele>1439</ele>
        <time>2022-08-16T09:30:30Z</time>
      </trkpt>
      <trkpt lat="45.777" lon="6.63536">
        <ele>1439</ele>
        <time>2022-08-16T09:30:31Z</time>
      </trkpt>
      <trkpt lat="45.77701" lon="6.63533">
        <ele>1440</ele>
        <time>2022-08-16T09:30:32Z</time>
      </trkpt>
      <trkpt lat="45.77702" lon="6.6353">
        <ele>1440</ele>
        <time>2022-08-16T09:30:33Z</time>
      </trkpt>
      <trkpt lat="45.77703" lon="6.63527">
        <ele>1440</ele>
        <time>2022-08-16T09:30:34Z</time>
      </trkpt>
      <trkpt lat="45.77705" lon="6.63525">
        <ele>1441</ele>
        <time>2022-08-16T09:30:35Z</time>
      </trkpt>
      <trkpt lat="45.77707" lon="6.63523">
        <ele>1441</ele>
        <time>2022-08-16T09:30:36Z</time>
      </trkpt>
      <trkpt lat="45.77709" lon="6.63522">
        <ele>1442</ele>
        <time>2022-08-16T09:30:37Z</time>
      </trkpt>
      <trkpt lat="45.77711" lon="6.63522">
        <ele>1441</ele>
        <time>2022-08-16T09:30:38Z</time>
      </trkpt>
      <trkpt lat="45.77713" lon="6.63522">
        <ele>1441</ele>
        <time>2022-08-16T09:30:39Z</time>
      </trkpt>
      <trkpt lat="45.77714" lon="6.63523">
        <ele>1441</ele>
        <time>2022-08-16T09:30:40Z</time>
      </trkpt>
      <trkpt lat="45.77715" lon="6.63524">
        <ele>1441</ele>
        <time>2022-08-16T09:30:41Z</time>
      </trkpt>
      <trkpt lat="45.77716" lon="6.63527">
        <ele>1442</ele>
        <time>2022-08-16T09:30:42Z</time>
      </trkpt>
      <trkpt lat="45.77716" lon="6.63531">
        <ele>1442</ele>
        <time>2022-08-16T09:30:43Z</time>
      </trkpt>
      <trkpt lat="45.77716" lon="6.63534">
        <ele>1443</ele>
        <time>2022-08-16T09:30:44Z</time>
      </trkpt>
      <trkpt lat="45.77715" lon="6.63537">
        <ele>1444</ele>
        <time>2022-08-16T09:30:45Z</time>
      </trkpt>
      <trkpt lat="45.77715" lon="6.6354">
        <ele>1445</ele>
        <time>2022-08-16T09:30:46Z</time>
      </trkpt>
      <trkpt lat="45.77715" lon="6.63543">
        <ele>1446</ele>
        <time>2022-08-16T09:30:47Z</time>
      </trkpt>
      <trkpt lat="45.77714" lon="6.63546">
        <ele>1446</ele>
        <time>2022-08-16T09:30:48Z</time>
      </trkpt>
      <trkpt lat="45.77714" lon="6.63549">
        <ele>1446</ele>
        <time>2022-08-16T09:30:49Z</time>
      </trkpt>
      <trkpt lat="45.77713" lon="6.63552">
        <ele>1447</ele>
        <time>2022-08-16T09:30:50Z</time>
      </trkpt>
      <trkpt lat="45.77713" lon="6.63554">
        <ele>1447</ele>
        <time>2022-08-16T09:30:51Z</time>
      </trkpt>
      <trkpt lat="45.77713" lon="6.63557">
        <ele>1447</ele>
        <time>2022-08-16T09:30:52Z</time>
      </trkpt>
      <trkpt lat="45.77712" lon="6.6356">
        <ele>1447</ele>
        <time>2022-08-16T09:30:53Z</time>
      </trkpt>
      <trkpt lat="45.77712" lon="6.63563">
        <ele>1448</ele>
        <time>2022-08-16T09:30:54Z</time>
      </trkpt>
      <trkpt lat="45.77712" lon="6.63566">
        <ele>1448</ele>
        <time>2022-08-16T09:30:55Z</time>
      </trkpt>
      <trkpt lat="45.77712" lon="6.63569">
        <ele>1449</ele>
        <time>2022-08-16T09:30:56Z</time>
      </trkpt>
      <trkpt lat="45.77712" lon="6.63572">
        <ele>1449</ele>
        <time>2022-08-16T09:30:57Z</time>
      </trkpt>
      <trkpt lat="45.77712" lon="6.63574">
        <ele>1450</ele>
        <time>2022-08-16T09:30:58Z</time>
      </trkpt>
      <trkpt lat="45.77712" lon="6.63577">
        <ele>1450</ele>
        <time>2022-08-16T09:30:59Z</time>
      </trkpt>
      <trkpt lat="45.77712" lon="6.6358">
        <ele>1450</ele>
        <time>2022-08-16T09:31:00Z</time>
      </trkpt>
      <trkpt lat="45.77712" lon="6.63583">
        <ele>1450</ele>
        <time>2022-08-16T09:31:01Z</time>
      </trkpt>
      <trkpt lat="45.77713" lon="6.63586">
        <ele>1450</ele>
        <time>2022-08-16T09:31:02Z</time>
      </trkpt>
      <trkpt lat="45.77713" lon="6.63589">
        <ele>1450</ele>
        <time>2022-08-16T09:31:03Z</time>
      </trkpt>
      <trkpt lat="45.77713" lon="6.63592">
        <ele>1450</ele>
        <time>2022-08-16T09:31:04Z</time>
      </trkpt>
      <trkpt lat="45.77714" lon="6.63594">
        <ele>1450</ele>
        <time>2022-08-16T09:31:05Z</time>
      </trkpt>
      <trkpt lat="45.77714" lon="6.63597">
        <ele>1450</ele>
        <time>2022-08-16T09:31:06Z</time>
      </trkpt>
      <trkpt lat="45.77715" lon="6.636">
        <ele>1450</ele>
        <time>2022-08-16T09:31:07Z</time>
      </trkpt>
      <trkpt lat="45.77716" lon="6.63603">
        <ele>1450</ele>
        <time>2022-08-16T09:31:08Z</time>
      </trkpt>
      <trkpt lat="45.77717" lon="6.63606">
        <ele>1450</ele>
        <time>2022-08-16T09:31:09Z</time>
      </trkpt>
      <trkpt lat="45.77717" lon="6.63608">
        <ele>1449</ele>
        <time>2022-08-16T09:31:10Z</time>
      </trkpt>
      <trkpt lat="45.77718" lon="6.63611">
        <ele>1449</ele>
        <time>2022-08-16T09:31:11Z</time>
      </trkpt>
      <trkpt lat="45.77719" lon="6.63614">
        <ele>1449</ele>
        <time>2022-08-16T09:31:12Z</time>
      </trkpt>
      <trkpt lat="45.7772" lon="6.63617">
        <ele>1449</ele>
        <time>2022-08-16T09:31:13Z</time>
      </trkpt>
      <trkpt lat="45.77722" lon="6.63619">
        <ele>1450</ele>
        <time>2022-08-16T09:31:14Z</time>
      </trkpt>
      <trkpt lat="45.77723" lon="6.63621">
        <ele>1450</ele>
        <time>2022-08-16T09:31:15Z</time>
      </trkpt>
      <trkpt lat="45.77724" lon="6.63624">
        <ele>1450</ele>
        <time>2022-08-16T09:31:16Z</time>
      </trkpt>
      <trkpt lat="45.77725" lon="6.63627">
        <ele>1451</ele>
        <time>2022-08-16T09:31:17Z</time>
      </trkpt>
      <trkpt lat="45.77726" lon="6.63629">
        <ele>1452</ele>
        <time>2022-08-16T09:31:18Z</time>
      </trkpt>
      <trkpt lat="45.77728" lon="6.63632">
        <ele>1452</ele>
        <time>2022-08-16T09:31:19Z</time>
      </trkpt>
      <trkpt lat="45.77729" lon="6.63634">
        <ele>1453</ele>
        <time>2022-08-16T09:31:20Z</time>
      </trkpt>
      <trkpt lat="45.7773" lon="6.63637">
        <ele>1452</ele>
        <time>2022-08-16T09:31:21Z</time>
      </trkpt>
      <trkpt lat="45.77732" lon="6.6364">
        <ele>1453</ele>
        <time>2022-08-16T09:31:22Z</time>
      </trkpt>
      <trkpt lat="45.77733" lon="6.63642">
        <ele>1453</ele>
        <time>2022-08-16T09:31:23Z</time>
      </trkpt>
      <trkpt lat="45.77734" lon="6.63646">
        <ele>1453</ele>
        <time>2022-08-16T09:31:24Z</time>
      </trkpt>
      <trkpt lat="45.77734" lon="6.63648">
        <ele>1453</ele>
        <time>2022-08-16T09:31:25Z</time>
      </trkpt>
      <trkpt lat="45.77735" lon="6.63651">
        <ele>1454</ele>
        <time>2022-08-16T09:31:26Z</time>
      </trkpt>
      <trkpt lat="45.77735" lon="6.63654">
        <ele>1454</ele>
        <time>2022-08-16T09:31:27Z</time>
      </trkpt>
      <trkpt lat="45.77735" lon="6.63657">
        <ele>1454</ele>
        <time>2022-08-16T09:31:28Z</time>
      </trkpt>
      <trkpt lat="45.77734" lon="6.63661">
        <ele>1455</ele>
        <time>2022-08-16T09:31:29Z</time>
      </trkpt>
      <trkpt lat="45.77734" lon="6.63664">
        <ele>1455</ele>
        <time>2022-08-16T09:31:30Z</time>
      </trkpt>
      <trkpt lat="45.77733" lon="6.63667">
        <ele>1455</ele>
        <time>2022-08-16T09:31:31Z</time>
      </trkpt>
      <trkpt lat="45.77733" lon="6.6367">
        <ele>1455</ele>
        <time>2022-08-16T09:31:32Z</time>
      </trkpt>
      <trkpt lat="45.77733" lon="6.63672">
        <ele>1455</ele>
        <time>2022-08-16T09:31:33Z</time>
      </trkpt>
      <trkpt lat="45.77733" lon="6.63675">
        <ele>1456</ele>
        <time>2022-08-16T09:31:34Z</time>
      </trkpt>
      <trkpt lat="45.77733" lon="6.63677">
        <ele>1456</ele>
        <time>2022-08-16T09:31:35Z</time>
      </trkpt>
      <trkpt lat="45.77733" lon="6.6368">
        <ele>1456</ele>
        <time>2022-08-16T09:31:36Z</time>
      </trkpt>
      <trkpt lat="45.77732" lon="6.63683">
        <ele>1456</ele>
        <time>2022-08-16T09:31:37Z</time>
      </trkpt>
      <trkpt lat="45.77732" lon="6.63686">
        <ele>1456</ele>
        <time>2022-08-16T09:31:38Z</time>
      </trkpt>
      <trkpt lat="45.77732" lon="6.63689">
        <ele>1456</ele>
        <time>2022-08-16T09:31:39Z</time>
      </trkpt>
      <trkpt lat="45.77732" lon="6.63692">
        <ele>1456</ele>
        <time>2022-08-16T09:31:40Z</time>
      </trkpt>
      <trkpt lat="45.77733" lon="6.63695">
        <ele>1456</ele>
        <time>2022-08-16T09:31:41Z</time>
      </trkpt>
      <trkpt lat="45.77732" lon="6.63698">
        <ele>1456</ele>
        <time>2022-08-16T09:31:42Z</time>
      </trkpt>
      <trkpt lat="45.77733" lon="6.637">
        <ele>1456</ele>
        <time>2022-08-16T09:31:43Z</time>
      </trkpt>
      <trkpt lat="45.77733" lon="6.63703">
        <ele>1456</ele>
        <time>2022-08-16T09:31:44Z</time>
      </trkpt>
      <trkpt lat="45.77734" lon="6.63706">
        <ele>1456</ele>
        <time>2022-08-16T09:31:45Z</time>
      </trkpt>
      <trkpt lat="45.77734" lon="6.63708">
        <ele>1456</ele>
        <time>2022-08-16T09:31:46Z</time>
      </trkpt>
      <trkpt lat="45.77734" lon="6.63711">
        <ele>1456</ele>
        <time>2022-08-16T09:31:47Z</time>
      </trkpt>
      <trkpt lat="45.77734" lon="6.63713">
        <ele>1456</ele>
        <time>2022-08-16T09:31:48Z</time>
      </trkpt>
      <trkpt lat="45.77734" lon="6.63717">
        <ele>1457</ele>
        <time>2022-08-16T09:31:49Z</time>
      </trkpt>
      <trkpt lat="45.77734" lon="6.63719">
        <ele>1457</ele>
        <time>2022-08-16T09:31:50Z</time>
      </trkpt>
      <trkpt lat="45.77734" lon="6.63723">
        <ele>1457</ele>
        <time>2022-08-16T09:31:51Z</time>
      </trkpt>
      <trkpt lat="45.77735" lon="6.63725">
        <ele>1457</ele>
        <time>2022-08-16T09:31:52Z</time>
      </trkpt>
      <trkpt lat="45.77735" lon="6.63729">
        <ele>1457</ele>
        <time>2022-08-16T09:31:53Z</time>
      </trkpt>
      <trkpt lat="45.77735" lon="6.63731">
        <ele>1456</ele>
        <time>2022-08-16T09:31:54Z</time>
      </trkpt>
      <trkpt lat="45.77735" lon="6.63734">
        <ele>1457</ele>
        <time>2022-08-16T09:31:55Z</time>
      </trkpt>
      <trkpt lat="45.77735" lon="6.63736">
        <ele>1457</ele>
        <time>2022-08-16T09:31:56Z</time>
      </trkpt>
      <trkpt lat="45.77735" lon="6.63738">
        <ele>1457</ele>
        <time>2022-08-16T09:31:57Z</time>
      </trkpt>
      <trkpt lat="45.77735" lon="6.63741">
        <ele>1458</ele>
        <time>2022-08-16T09:31:58Z</time>
      </trkpt>
      <trkpt lat="45.77734" lon="6.63743">
        <ele>1458</ele>
        <time>2022-08-16T09:31:59Z</time>
      </trkpt>
      <trkpt lat="45.77734" lon="6.63746">
        <ele>1459</ele>
        <time>2022-08-16T09:32:00Z</time>
      </trkpt>
      <trkpt lat="45.77734" lon="6.63749">
        <ele>1459</ele>
        <time>2022-08-16T09:32:01Z</time>
      </trkpt>
      <trkpt lat="45.77734" lon="6.63752">
        <ele>1459</ele>
        <time>2022-08-16T09:32:02Z</time>
      </trkpt>
      <trkpt lat="45.77735" lon="6.63755">
        <ele>1459</ele>
        <time>2022-08-16T09:32:03Z</time>
      </trkpt>
      <trkpt lat="45.77735" lon="6.63757">
        <ele>1460</ele>
        <time>2022-08-16T09:32:04Z</time>
      </trkpt>
      <trkpt lat="45.77735" lon="6.6376">
        <ele>1460</ele>
        <time>2022-08-16T09:32:05Z</time>
      </trkpt>
      <trkpt lat="45.77736" lon="6.63763">
        <ele>1460</ele>
        <time>2022-08-16T09:32:06Z</time>
      </trkpt>
      <trkpt lat="45.77737" lon="6.63766">
        <ele>1460</ele>
        <time>2022-08-16T09:32:07Z</time>
      </trkpt>
      <trkpt lat="45.77738" lon="6.63768">
        <ele>1460</ele>
        <time>2022-08-16T09:32:08Z</time>
      </trkpt>
      <trkpt lat="45.77739" lon="6.63771">
        <ele>1460</ele>
        <time>2022-08-16T09:32:09Z</time>
      </trkpt>
      <trkpt lat="45.7774" lon="6.63774">
        <ele>1460</ele>
        <time>2022-08-16T09:32:10Z</time>
      </trkpt>
      <trkpt lat="45.77741" lon="6.63778">
        <ele>1460</ele>
        <time>2022-08-16T09:32:11Z</time>
      </trkpt>
      <trkpt lat="45.77742" lon="6.63781">
        <ele>1460</ele>
        <time>2022-08-16T09:32:12Z</time>
      </trkpt>
      <trkpt lat="45.77743" lon="6.63784">
        <ele>1461</ele>
        <time>2022-08-16T09:32:13Z</time>
      </trkpt>
      <trkpt lat="45.77744" lon="6.63786">
        <ele>1462</ele>
        <time>2022-08-16T09:32:14Z</time>
      </trkpt>
      <trkpt lat="45.77745" lon="6.63788">
        <ele>1462</ele>
        <time>2022-08-16T09:32:15Z</time>
      </trkpt>
      <trkpt lat="45.77746" lon="6.6379">
        <ele>1463</ele>
        <time>2022-08-16T09:32:16Z</time>
      </trkpt>
      <trkpt lat="45.77748" lon="6.63792">
        <ele>1463</ele>
        <time>2022-08-16T09:32:17Z</time>
      </trkpt>
      <trkpt lat="45.7775" lon="6.63793">
        <ele>1463</ele>
        <time>2022-08-16T09:32:18Z</time>
      </trkpt>
      <trkpt lat="45.77752" lon="6.63794">
        <ele>1464</ele>
        <time>2022-08-16T09:32:19Z</time>
      </trkpt>
      <trkpt lat="45.77755" lon="6.63795">
        <ele>1464</ele>
        <time>2022-08-16T09:32:20Z</time>
      </trkpt>
      <trkpt lat="45.77757" lon="6.63796">
        <ele>1464</ele>
        <time>2022-08-16T09:32:21Z</time>
      </trkpt>
      <trkpt lat="45.77759" lon="6.63796">
        <ele>1464</ele>
        <time>2022-08-16T09:32:22Z</time>
      </trkpt>
      <trkpt lat="45.77761" lon="6.63797">
        <ele>1464</ele>
        <time>2022-08-16T09:32:23Z</time>
      </trkpt>
      <trkpt lat="45.77764" lon="6.63797">
        <ele>1465</ele>
        <time>2022-08-16T09:32:24Z</time>
      </trkpt>
      <trkpt lat="45.77766" lon="6.63798">
        <ele>1465</ele>
        <time>2022-08-16T09:32:25Z</time>
      </trkpt>
      <trkpt lat="45.77768" lon="6.63799">
        <ele>1465</ele>
        <time>2022-08-16T09:32:26Z</time>
      </trkpt>
      <trkpt lat="45.7777" lon="6.63801">
        <ele>1465</ele>
        <time>2022-08-16T09:32:27Z</time>
      </trkpt>
      <trkpt lat="45.77773" lon="6.63802">
        <ele>1465</ele>
        <time>2022-08-16T09:32:28Z</time>
      </trkpt>
      <trkpt lat="45.77775" lon="6.63804">
        <ele>1465</ele>
        <time>2022-08-16T09:32:29Z</time>
      </trkpt>
      <trkpt lat="45.77777" lon="6.63807">
        <ele>1465</ele>
        <time>2022-08-16T09:32:30Z</time>
      </trkpt>
      <trkpt lat="45.7778" lon="6.63809">
        <ele>1465</ele>
        <time>2022-08-16T09:32:31Z</time>
      </trkpt>
      <trkpt lat="45.77782" lon="6.63811">
        <ele>1465</ele>
        <time>2022-08-16T09:32:32Z</time>
      </trkpt>
      <trkpt lat="45.77784" lon="6.63812">
        <ele>1465</ele>
        <time>2022-08-16T09:32:33Z</time>
      </trkpt>
      <trkpt lat="45.77785" lon="6.63814">
        <ele>1465</ele>
        <time>2022-08-16T09:32:34Z</time>
      </trkpt>
      <trkpt lat="45.77787" lon="6.63815">
        <ele>1465</ele>
        <time>2022-08-16T09:32:35Z</time>
      </trkpt>
      <trkpt lat="45.77789" lon="6.63817">
        <ele>1465</ele>
        <time>2022-08-16T09:32:36Z</time>
      </trkpt>
      <trkpt lat="45.77791" lon="6.63818">
        <ele>1466</ele>
        <time>2022-08-16T09:32:37Z</time>
      </trkpt>
      <trkpt lat="45.77793" lon="6.63821">
        <ele>1466</ele>
        <time>2022-08-16T09:32:38Z</time>
      </trkpt>
      <trkpt lat="45.77795" lon="6.63822">
        <ele>1466</ele>
        <time>2022-08-16T09:32:39Z</time>
      </trkpt>
      <trkpt lat="45.77797" lon="6.63824">
        <ele>1467</ele>
        <time>2022-08-16T09:32:40Z</time>
      </trkpt>
      <trkpt lat="45.77798" lon="6.63825">
        <ele>1467</ele>
        <time>2022-08-16T09:32:41Z</time>
      </trkpt>
      <trkpt lat="45.778" lon="6.63827">
        <ele>1467</ele>
        <time>2022-08-16T09:32:42Z</time>
      </trkpt>
      <trkpt lat="45.77802" lon="6.63828">
        <ele>1467</ele>
        <time>2022-08-16T09:32:43Z</time>
      </trkpt>
      <trkpt lat="45.77804" lon="6.6383">
        <ele>1467</ele>
        <time>2022-08-16T09:32:44Z</time>
      </trkpt>
      <trkpt lat="45.77805" lon="6.63832">
        <ele>1467</ele>
        <time>2022-08-16T09:32:45Z</time>
      </trkpt>
      <trkpt lat="45.77806" lon="6.63833">
        <ele>1468</ele>
        <time>2022-08-16T09:32:46Z</time>
      </trkpt>
      <trkpt lat="45.77808" lon="6.63835">
        <ele>1468</ele>
        <time>2022-08-16T09:32:47Z</time>
      </trkpt>
      <trkpt lat="45.77809" lon="6.63837">
        <ele>1469</ele>
        <time>2022-08-16T09:32:48Z</time>
      </trkpt>
      <trkpt lat="45.7781" lon="6.63839">
        <ele>1469</ele>
        <time>2022-08-16T09:32:49Z</time>
      </trkpt>
      <trkpt lat="45.77811" lon="6.6384">
        <ele>1470</ele>
        <time>2022-08-16T09:32:50Z</time>
      </trkpt>
      <trkpt lat="45.77812" lon="6.63842">
        <ele>1470</ele>
        <time>2022-08-16T09:32:51Z</time>
      </trkpt>
      <trkpt lat="45.77813" lon="6.63843">
        <ele>1471</ele>
        <time>2022-08-16T09:32:52Z</time>
      </trkpt>
      <trkpt lat="45.77815" lon="6.63845">
        <ele>1471</ele>
        <time>2022-08-16T09:32:53Z</time>
      </trkpt>
      <trkpt lat="45.77816" lon="6.63846">
        <ele>1471</ele>
        <time>2022-08-16T09:32:54Z</time>
      </trkpt>
      <trkpt lat="45.77817" lon="6.63847">
        <ele>1470</ele>
        <time>2022-08-16T09:32:55Z</time>
      </trkpt>
      <trkpt lat="45.77818" lon="6.63848">
        <ele>1470</ele>
        <time>2022-08-16T09:32:56Z</time>
      </trkpt>
      <trkpt lat="45.77819" lon="6.6385">
        <ele>1470</ele>
        <time>2022-08-16T09:32:57Z</time>
      </trkpt>
      <trkpt lat="45.7782" lon="6.63851">
        <ele>1471</ele>
        <time>2022-08-16T09:32:58Z</time>
      </trkpt>
      <trkpt lat="45.77821" lon="6.63852">
        <ele>1470</ele>
        <time>2022-08-16T09:32:59Z</time>
      </trkpt>
      <trkpt lat="45.77823" lon="6.63853">
        <ele>1471</ele>
        <time>2022-08-16T09:33:00Z</time>
      </trkpt>
      <trkpt lat="45.77824" lon="6.63854">
        <ele>1471</ele>
        <time>2022-08-16T09:33:01Z</time>
      </trkpt>
      <trkpt lat="45.77825" lon="6.63856">
        <ele>1472</ele>
        <time>2022-08-16T09:33:02Z</time>
      </trkpt>
      <trkpt lat="45.77826" lon="6.63858">
        <ele>1472</ele>
        <time>2022-08-16T09:33:03Z</time>
      </trkpt>
      <trkpt lat="45.77827" lon="6.6386">
        <ele>1472</ele>
        <time>2022-08-16T09:33:04Z</time>
      </trkpt>
      <trkpt lat="45.77829" lon="6.63863">
        <ele>1473</ele>
        <time>2022-08-16T09:33:05Z</time>
      </trkpt>
      <trkpt lat="45.7783" lon="6.63865">
        <ele>1473</ele>
        <time>2022-08-16T09:33:06Z</time>
      </trkpt>
      <trkpt lat="45.7783" lon="6.63868">
        <ele>1473</ele>
        <time>2022-08-16T09:33:07Z</time>
      </trkpt>
      <trkpt lat="45.77832" lon="6.63869">
        <ele>1473</ele>
        <time>2022-08-16T09:33:08Z</time>
      </trkpt>
      <trkpt lat="45.77834" lon="6.63871">
        <ele>1473</ele>
        <time>2022-08-16T09:33:09Z</time>
      </trkpt>
      <trkpt lat="45.77835" lon="6.63872">
        <ele>1473</ele>
        <time>2022-08-16T09:33:10Z</time>
      </trkpt>
      <trkpt lat="45.77835" lon="6.63875">
        <ele>1474</ele>
        <time>2022-08-16T09:33:11Z</time>
      </trkpt>
      <trkpt lat="45.77836" lon="6.63877">
        <ele>1474</ele>
        <time>2022-08-16T09:33:12Z</time>
      </trkpt>
      <trkpt lat="45.77837" lon="6.63879">
        <ele>1475</ele>
        <time>2022-08-16T09:33:13Z</time>
      </trkpt>
      <trkpt lat="45.77838" lon="6.63881">
        <ele>1475</ele>
        <time>2022-08-16T09:33:14Z</time>
      </trkpt>
      <trkpt lat="45.77839" lon="6.63883">
        <ele>1476</ele>
        <time>2022-08-16T09:33:15Z</time>
      </trkpt>
      <trkpt lat="45.77841" lon="6.63885">
        <ele>1476</ele>
        <time>2022-08-16T09:33:16Z</time>
      </trkpt>
      <trkpt lat="45.77842" lon="6.63886">
        <ele>1476</ele>
        <time>2022-08-16T09:33:17Z</time>
      </trkpt>
      <trkpt lat="45.77843" lon="6.63888">
        <ele>1476</ele>
        <time>2022-08-16T09:33:18Z</time>
      </trkpt>
      <trkpt lat="45.77844" lon="6.6389">
        <ele>1476</ele>
        <time>2022-08-16T09:33:19Z</time>
      </trkpt>
      <trkpt lat="45.77844" lon="6.63892">
        <ele>1477</ele>
        <time>2022-08-16T09:33:20Z</time>
      </trkpt>
      <trkpt lat="45.77845" lon="6.63895">
        <ele>1476</ele>
        <time>2022-08-16T09:33:21Z</time>
      </trkpt>
      <trkpt lat="45.77846" lon="6.63897">
        <ele>1476</ele>
        <time>2022-08-16T09:33:22Z</time>
      </trkpt>
      <trkpt lat="45.77846" lon="6.639">
        <ele>1476</ele>
        <time>2022-08-16T09:33:23Z</time>
      </trkpt>
      <trkpt lat="45.77847" lon="6.63902">
        <ele>1476</ele>
        <time>2022-08-16T09:33:24Z</time>
      </trkpt>
      <trkpt lat="45.77848" lon="6.63904">
        <ele>1477</ele>
        <time>2022-08-16T09:33:25Z</time>
      </trkpt>
      <trkpt lat="45.77848" lon="6.63907">
        <ele>1477</ele>
        <time>2022-08-16T09:33:26Z</time>
      </trkpt>
      <trkpt lat="45.77849" lon="6.63909">
        <ele>1478</ele>
        <time>2022-08-16T09:33:27Z</time>
      </trkpt>
      <trkpt lat="45.7785" lon="6.63912">
        <ele>1478</ele>
        <time>2022-08-16T09:33:28Z</time>
      </trkpt>
      <trkpt lat="45.77851" lon="6.63915">
        <ele>1477</ele>
        <time>2022-08-16T09:33:29Z</time>
      </trkpt>
      <trkpt lat="45.77851" lon="6.63917">
        <ele>1477</ele>
        <time>2022-08-16T09:33:30Z</time>
      </trkpt>
      <trkpt lat="45.77852" lon="6.63919">
        <ele>1476</ele>
        <time>2022-08-16T09:33:31Z</time>
      </trkpt>
      <trkpt lat="45.77852" lon="6.63921">
        <ele>1476</ele>
        <time>2022-08-16T09:33:32Z</time>
      </trkpt>
      <trkpt lat="45.77853" lon="6.63923">
        <ele>1476</ele>
        <time>2022-08-16T09:33:33Z</time>
      </trkpt>
      <trkpt lat="45.77854" lon="6.63925">
        <ele>1476</ele>
        <time>2022-08-16T09:33:34Z</time>
      </trkpt>
      <trkpt lat="45.77855" lon="6.63927">
        <ele>1476</ele>
        <time>2022-08-16T09:33:35Z</time>
      </trkpt>
      <trkpt lat="45.77856" lon="6.6393">
        <ele>1476</ele>
        <time>2022-08-16T09:33:36Z</time>
      </trkpt>
      <trkpt lat="45.77856" lon="6.63932">
        <ele>1476</ele>
        <time>2022-08-16T09:33:37Z</time>
      </trkpt>
      <trkpt lat="45.77857" lon="6.63934">
        <ele>1475</ele>
        <time>2022-08-16T09:33:38Z</time>
      </trkpt>
      <trkpt lat="45.77858" lon="6.63937">
        <ele>1475</ele>
        <time>2022-08-16T09:33:39Z</time>
      </trkpt>
      <trkpt lat="45.77859" lon="6.63939">
        <ele>1475</ele>
        <time>2022-08-16T09:33:40Z</time>
      </trkpt>
      <trkpt lat="45.77859" lon="6.63942">
        <ele>1476</ele>
        <time>2022-08-16T09:33:41Z</time>
      </trkpt>
      <trkpt lat="45.7786" lon="6.63944">
        <ele>1476</ele>
        <time>2022-08-16T09:33:42Z</time>
      </trkpt>
      <trkpt lat="45.7786" lon="6.63947">
        <ele>1477</ele>
        <time>2022-08-16T09:33:43Z</time>
      </trkpt>
      <trkpt lat="45.77861" lon="6.63949">
        <ele>1477</ele>
        <time>2022-08-16T09:33:44Z</time>
      </trkpt>
      <trkpt lat="45.77861" lon="6.63952">
        <ele>1477</ele>
        <time>2022-08-16T09:33:45Z</time>
      </trkpt>
      <trkpt lat="45.77862" lon="6.63955">
        <ele>1478</ele>
        <time>2022-08-16T09:33:46Z</time>
      </trkpt>
      <trkpt lat="45.77863" lon="6.63957">
        <ele>1478</ele>
        <time>2022-08-16T09:33:47Z</time>
      </trkpt>
      <trkpt lat="45.77864" lon="6.6396">
        <ele>1479</ele>
        <time>2022-08-16T09:33:48Z</time>
      </trkpt>
      <trkpt lat="45.77865" lon="6.63963">
        <ele>1479</ele>
        <time>2022-08-16T09:33:49Z</time>
      </trkpt>
      <trkpt lat="45.77866" lon="6.63965">
        <ele>1479</ele>
        <time>2022-08-16T09:33:50Z</time>
      </trkpt>
      <trkpt lat="45.77866" lon="6.63967">
        <ele>1480</ele>
        <time>2022-08-16T09:33:51Z</time>
      </trkpt>
      <trkpt lat="45.77867" lon="6.6397">
        <ele>1480</ele>
        <time>2022-08-16T09:33:52Z</time>
      </trkpt>
      <trkpt lat="45.77867" lon="6.63972">
        <ele>1480</ele>
        <time>2022-08-16T09:33:53Z</time>
      </trkpt>
      <trkpt lat="45.77868" lon="6.63975">
        <ele>1480</ele>
        <time>2022-08-16T09:33:54Z</time>
      </trkpt>
      <trkpt lat="45.77869" lon="6.63977">
        <ele>1480</ele>
        <time>2022-08-16T09:33:55Z</time>
      </trkpt>
      <trkpt lat="45.7787" lon="6.6398">
        <ele>1481</ele>
        <time>2022-08-16T09:33:56Z</time>
      </trkpt>
      <trkpt lat="45.7787" lon="6.63982">
        <ele>1481</ele>
        <time>2022-08-16T09:33:57Z</time>
      </trkpt>
      <trkpt lat="45.77871" lon="6.63985">
        <ele>1481</ele>
        <time>2022-08-16T09:33:58Z</time>
      </trkpt>
      <trkpt lat="45.77871" lon="6.63987">
        <ele>1481</ele>
        <time>2022-08-16T09:33:59Z</time>
      </trkpt>
      <trkpt lat="45.77872" lon="6.6399">
        <ele>1481</ele>
        <time>2022-08-16T09:34:00Z</time>
      </trkpt>
      <trkpt lat="45.77873" lon="6.63992">
        <ele>1481</ele>
        <time>2022-08-16T09:34:01Z</time>
      </trkpt>
      <trkpt lat="45.77873" lon="6.63994">
        <ele>1481</ele>
        <time>2022-08-16T09:34:02Z</time>
      </trkpt>
      <trkpt lat="45.77874" lon="6.63997">
        <ele>1481</ele>
        <time>2022-08-16T09:34:03Z</time>
      </trkpt>
      <trkpt lat="45.77874" lon="6.63999">
        <ele>1482</ele>
        <time>2022-08-16T09:34:04Z</time>
      </trkpt>
      <trkpt lat="45.77875" lon="6.64001">
        <ele>1482</ele>
        <time>2022-08-16T09:34:05Z</time>
      </trkpt>
      <trkpt lat="45.77875" lon="6.64004">
        <ele>1482</ele>
        <time>2022-08-16T09:34:06Z</time>
      </trkpt>
      <trkpt lat="45.77876" lon="6.64006">
        <ele>1482</ele>
        <time>2022-08-16T09:34:07Z</time>
      </trkpt>
      <trkpt lat="45.77876" lon="6.64008">
        <ele>1482</ele>
        <time>2022-08-16T09:34:08Z</time>
      </trkpt>
      <trkpt lat="45.77877" lon="6.64011">
        <ele>1482</ele>
        <time>2022-08-16T09:34:09Z</time>
      </trkpt>
      <trkpt lat="45.77878" lon="6.64014">
        <ele>1481</ele>
        <time>2022-08-16T09:34:10Z</time>
      </trkpt>
      <trkpt lat="45.77878" lon="6.64016">
        <ele>1481</ele>
        <time>2022-08-16T09:34:11Z</time>
      </trkpt>
      <trkpt lat="45.77878" lon="6.64019">
        <ele>1481</ele>
        <time>2022-08-16T09:34:12Z</time>
      </trkpt>
      <trkpt lat="45.77879" lon="6.64021">
        <ele>1481</ele>
        <time>2022-08-16T09:34:13Z</time>
      </trkpt>
      <trkpt lat="45.7788" lon="6.64023">
        <ele>1481</ele>
        <time>2022-08-16T09:34:14Z</time>
      </trkpt>
      <trkpt lat="45.7788" lon="6.64026">
        <ele>1481</ele>
        <time>2022-08-16T09:34:15Z</time>
      </trkpt>
      <trkpt lat="45.77881" lon="6.64028">
        <ele>1481</ele>
        <time>2022-08-16T09:34:16Z</time>
      </trkpt>
      <trkpt lat="45.77882" lon="6.64031">
        <ele>1481</ele>
        <time>2022-08-16T09:34:17Z</time>
      </trkpt>
      <trkpt lat="45.77883" lon="6.64033">
        <ele>1481</ele>
        <time>2022-08-16T09:34:18Z</time>
      </trkpt>
      <trkpt lat="45.77883" lon="6.64035">
        <ele>1481</ele>
        <time>2022-08-16T09:34:19Z</time>
      </trkpt>
      <trkpt lat="45.77884" lon="6.64038">
        <ele>1482</ele>
        <time>2022-08-16T09:34:20Z</time>
      </trkpt>
      <trkpt lat="45.77885" lon="6.6404">
        <ele>1482</ele>
        <time>2022-08-16T09:34:21Z</time>
      </trkpt>
      <trkpt lat="45.77886" lon="6.64043">
        <ele>1482</ele>
        <time>2022-08-16T09:34:22Z</time>
      </trkpt>
      <trkpt lat="45.77886" lon="6.64046">
        <ele>1482</ele>
        <time>2022-08-16T09:34:23Z</time>
      </trkpt>
      <trkpt lat="45.77887" lon="6.64049">
        <ele>1482</ele>
        <time>2022-08-16T09:34:24Z</time>
      </trkpt>
      <trkpt lat="45.77888" lon="6.64051">
        <ele>1482</ele>
        <time>2022-08-16T09:34:25Z</time>
      </trkpt>
      <trkpt lat="45.77889" lon="6.64054">
        <ele>1482</ele>
        <time>2022-08-16T09:34:26Z</time>
      </trkpt>
      <trkpt lat="45.7789" lon="6.64056">
        <ele>1482</ele>
        <time>2022-08-16T09:34:27Z</time>
      </trkpt>
      <trkpt lat="45.77892" lon="6.64058">
        <ele>1483</ele>
        <time>2022-08-16T09:34:28Z</time>
      </trkpt>
      <trkpt lat="45.77893" lon="6.6406">
        <ele>1483</ele>
        <time>2022-08-16T09:34:29Z</time>
      </trkpt>
      <trkpt lat="45.77895" lon="6.64061">
        <ele>1483</ele>
        <time>2022-08-16T09:34:30Z</time>
      </trkpt>
      <trkpt lat="45.77897" lon="6.64062">
        <ele>1483</ele>
        <time>2022-08-16T09:34:31Z</time>
      </trkpt>
      <trkpt lat="45.779" lon="6.64063">
        <ele>1483</ele>
        <time>2022-08-16T09:34:32Z</time>
      </trkpt>
      <trkpt lat="45.77901" lon="6.64062">
        <ele>1483</ele>
        <time>2022-08-16T09:34:33Z</time>
      </trkpt>
      <trkpt lat="45.77904" lon="6.64062">
        <ele>1484</ele>
        <time>2022-08-16T09:34:34Z</time>
      </trkpt>
      <trkpt lat="45.77905" lon="6.64061">
        <ele>1484</ele>
        <time>2022-08-16T09:34:35Z</time>
      </trkpt>
      <trkpt lat="45.77907" lon="6.6406">
        <ele>1484</ele>
        <time>2022-08-16T09:34:36Z</time>
      </trkpt>
      <trkpt lat="45.77908" lon="6.64058">
        <ele>1484</ele>
        <time>2022-08-16T09:34:37Z</time>
      </trkpt>
      <trkpt lat="45.77908" lon="6.64057">
        <ele>1484</ele>
        <time>2022-08-16T09:34:38Z</time>
      </trkpt>
      <trkpt lat="45.77908" lon="6.64056">
        <ele>1483</ele>
        <time>2022-08-16T09:34:39Z</time>
      </trkpt>
      <trkpt lat="45.77909" lon="6.64056">
        <ele>1483</ele>
        <time>2022-08-16T09:34:40Z</time>
      </trkpt>
      <trkpt lat="45.77908" lon="6.64056">
        <ele>1483</ele>
        <time>2022-08-16T09:34:41Z</time>
      </trkpt>
      <trkpt lat="45.77908" lon="6.64055">
        <ele>1483</ele>
        <time>2022-08-16T09:34:42Z</time>
      </trkpt>
      <trkpt lat="45.77908" lon="6.64055">
        <ele>1483</ele>
        <time>2022-08-16T09:34:43Z</time>
      </trkpt>
      <trkpt lat="45.77908" lon="6.64053">
        <ele>1482</ele>
        <time>2022-08-16T09:34:46Z</time>
      </trkpt>
      <trkpt lat="45.77909" lon="6.64053">
        <ele>1483</ele>
        <time>2022-08-16T09:34:47Z</time>
      </trkpt>
      <trkpt lat="45.77909" lon="6.64053">
        <ele>1483</ele>
        <time>2022-08-16T09:34:48Z</time>
      </trkpt>
      <trkpt lat="45.77909" lon="6.64053">
        <ele>1483</ele>
        <time>2022-08-16T09:34:49Z</time>
      </trkpt>
      <trkpt lat="45.77909" lon="6.64053">
        <ele>1483</ele>
        <time>2022-08-16T09:34:53Z</time>
      </trkpt>
      <trkpt lat="45.77909" lon="6.64053">
        <ele>1483</ele>
        <time>2022-08-16T09:34:57Z</time>
      </trkpt>
      <trkpt lat="45.77909" lon="6.64053">
        <ele>1483</ele>
        <time>2022-08-16T09:35:01Z</time>
      </trkpt>
      <trkpt lat="45.77909" lon="6.64053">
        <ele>1482</ele>
        <time>2022-08-16T09:35:04Z</time>
      </trkpt>
      <trkpt lat="45.77909" lon="6.64053">
        <ele>1482</ele>
        <time>2022-08-16T09:35:05Z</time>
      </trkpt>
      <trkpt lat="45.77909" lon="6.64052">
        <ele>1482</ele>
        <time>2022-08-16T09:35:06Z</time>
      </trkpt>
      <trkpt lat="45.77909" lon="6.64052">
        <ele>1482</ele>
        <time>2022-08-16T09:35:07Z</time>
      </trkpt>
      <trkpt lat="45.77909" lon="6.64052">
        <ele>1482</ele>
        <time>2022-08-16T09:35:11Z</time>
      </trkpt>
      <trkpt lat="45.77909" lon="6.64052">
        <ele>1483</ele>
        <time>2022-08-16T09:35:12Z</time>
      </trkpt>
      <trkpt lat="45.7791" lon="6.64051">
        <ele>1484</ele>
        <time>2022-08-16T09:35:13Z</time>
      </trkpt>
      <trkpt lat="45.7791" lon="6.64051">
        <ele>1484</ele>
        <time>2022-08-16T09:35:14Z</time>
      </trkpt>
      <trkpt lat="45.77909" lon="6.64051">
        <ele>1484</ele>
        <time>2022-08-16T09:35:15Z</time>
      </trkpt>
      <trkpt lat="45.77909" lon="6.64051">
        <ele>1484</ele>
        <time>2022-08-16T09:35:19Z</time>
      </trkpt>
      <trkpt lat="45.77909" lon="6.64052">
        <ele>1484</ele>
        <time>2022-08-16T09:35:20Z</time>
      </trkpt>
      <trkpt lat="45.77909" lon="6.64051">
        <ele>1484</ele>
        <time>2022-08-16T09:35:21Z</time>
      </trkpt>
      <trkpt lat="45.77909" lon="6.64051">
        <ele>1484</ele>
        <time>2022-08-16T09:35:22Z</time>
      </trkpt>
      <trkpt lat="45.77909" lon="6.64051">
        <ele>1484</ele>
        <time>2022-08-16T09:35:23Z</time>
      </trkpt>
      <trkpt lat="45.77908" lon="6.64051">
        <ele>1483</ele>
        <time>2022-08-16T09:35:27Z</time>
      </trkpt>
      <trkpt lat="45.77908" lon="6.64051">
        <ele>1483</ele>
        <time>2022-08-16T09:35:28Z</time>
      </trkpt>
      <trkpt lat="45.77908" lon="6.64051">
        <ele>1483</ele>
        <time>2022-08-16T09:35:29Z</time>
      </trkpt>
      <trkpt lat="45.77908" lon="6.64051">
        <ele>1483</ele>
        <time>2022-08-16T09:35:30Z</time>
      </trkpt>
      <trkpt lat="45.77908" lon="6.64051">
        <ele>1483</ele>
        <time>2022-08-16T09:35:34Z</time>
      </trkpt>
      <trkpt lat="45.77908" lon="6.64051">
        <ele>1483</ele>
        <time>2022-08-16T09:35:38Z</time>
      </trkpt>
      <trkpt lat="45.77908" lon="6.64051">
        <ele>1483</ele>
        <time>2022-08-16T09:35:42Z</time>
      </trkpt>
      <trkpt lat="45.77908" lon="6.64051">
        <ele>1483</ele>
        <time>2022-08-16T09:35:46Z</time>
      </trkpt>
      <trkpt lat="45.77908" lon="6.64051">
        <ele>1483</ele>
        <time>2022-08-16T09:35:50Z</time>
      </trkpt>
      <trkpt lat="45.77908" lon="6.64051">
        <ele>1483</ele>
        <time>2022-08-16T09:35:54Z</time>
      </trkpt>
      <trkpt lat="45.77908" lon="6.64051">
        <ele>1483</ele>
        <time>2022-08-16T09:35:58Z</time>
      </trkpt>
      <trkpt lat="45.77908" lon="6.64051">
        <ele>1483</ele>
        <time>2022-08-16T09:36:02Z</time>
      </trkpt>
      <trkpt lat="45.77908" lon="6.64051">
        <ele>1483</ele>
        <time>2022-08-16T09:36:06Z</time>
      </trkpt>
      <trkpt lat="45.77908" lon="6.64051">
        <ele>1483</ele>
        <time>2022-08-16T09:36:10Z</time>
      </trkpt>
      <trkpt lat="45.77908" lon="6.64051">
        <ele>1483</ele>
        <time>2022-08-16T09:36:14Z</time>
      </trkpt>
      <trkpt lat="45.77908" lon="6.64051">
        <ele>1483</ele>
        <time>2022-08-16T09:36:18Z</time>
      </trkpt>
      <trkpt lat="45.77908" lon="6.64051">
        <ele>1483</ele>
        <time>2022-08-16T09:36:22Z</time>
      </trkpt>
      <trkpt lat="45.77907" lon="6.64051">
        <ele>1484</ele>
        <time>2022-08-16T09:36:25Z</time>
      </trkpt>
      <trkpt lat="45.77907" lon="6.6405">
        <ele>1483</ele>
        <time>2022-08-16T09:36:26Z</time>
      </trkpt>
      <trkpt lat="45.77906" lon="6.64049">
        <ele>1484</ele>
        <time>2022-08-16T09:36:27Z</time>
      </trkpt>
      <trkpt lat="45.77905" lon="6.64047">
        <ele>1484</ele>
        <time>2022-08-16T09:36:28Z</time>
      </trkpt>
      <trkpt lat="45.77905" lon="6.64044">
        <ele>1484</ele>
        <time>2022-08-16T09:36:29Z</time>
      </trkpt>
      <trkpt lat="45.77904" lon="6.64042">
        <ele>1484</ele>
        <time>2022-08-16T09:36:30Z</time>
      </trkpt>
      <trkpt lat="45.77904" lon="6.6404">
        <ele>1485</ele>
        <time>2022-08-16T09:36:31Z</time>
      </trkpt>
      <trkpt lat="45.77903" lon="6.64038">
        <ele>1485</ele>
        <time>2022-08-16T09:36:32Z</time>
      </trkpt>
      <trkpt lat="45.77903" lon="6.64034">
        <ele>1485</ele>
        <time>2022-08-16T09:36:33Z</time>
      </trkpt>
      <trkpt lat="45.77902" lon="6.64032">
        <ele>1485</ele>
        <time>2022-08-16T09:36:34Z</time>
      </trkpt>
      <trkpt lat="45.77901" lon="6.64029">
        <ele>1485</ele>
        <time>2022-08-16T09:36:35Z</time>
      </trkpt>
      <trkpt lat="45.77901" lon="6.64026">
        <ele>1485</ele>
        <time>2022-08-16T09:36:36Z</time>
      </trkpt>
      <trkpt lat="45.779" lon="6.64024">
        <ele>1485</ele>
        <time>2022-08-16T09:36:37Z</time>
      </trkpt>
      <trkpt lat="45.77899" lon="6.64021">
        <ele>1486</ele>
        <time>2022-08-16T09:36:38Z</time>
      </trkpt>
      <trkpt lat="45.77898" lon="6.64019">
        <ele>1486</ele>
        <time>2022-08-16T09:36:39Z</time>
      </trkpt>
      <trkpt lat="45.77898" lon="6.64016">
        <ele>1486</ele>
        <time>2022-08-16T09:36:40Z</time>
      </trkpt>
      <trkpt lat="45.77897" lon="6.64013">
        <ele>1487</ele>
        <time>2022-08-16T09:36:41Z</time>
      </trkpt>
      <trkpt lat="45.77896" lon="6.64011">
        <ele>1487</ele>
        <time>2022-08-16T09:36:42Z</time>
      </trkpt>
      <trkpt lat="45.77896" lon="6.64009">
        <ele>1488</ele>
        <time>2022-08-16T09:36:43Z</time>
      </trkpt>
      <trkpt lat="45.77895" lon="6.64007">
        <ele>1488</ele>
        <time>2022-08-16T09:36:44Z</time>
      </trkpt>
      <trkpt lat="45.77894" lon="6.64005">
        <ele>1488</ele>
        <time>2022-08-16T09:36:45Z</time>
      </trkpt>
      <trkpt lat="45.77894" lon="6.64002">
        <ele>1489</ele>
        <time>2022-08-16T09:36:46Z</time>
      </trkpt>
      <trkpt lat="45.77893" lon="6.64">
        <ele>1490</ele>
        <time>2022-08-16T09:36:47Z</time>
      </trkpt>
      <trkpt lat="45.77893" lon="6.63997">
        <ele>1490</ele>
        <time>2022-08-16T09:36:48Z</time>
      </trkpt>
      <trkpt lat="45.77893" lon="6.63994">
        <ele>1490</ele>
        <time>2022-08-16T09:36:49Z</time>
      </trkpt>
      <trkpt lat="45.77892" lon="6.63991">
        <ele>1490</ele>
        <time>2022-08-16T09:36:50Z</time>
      </trkpt>
      <trkpt lat="45.77892" lon="6.63988">
        <ele>1491</ele>
        <time>2022-08-16T09:36:51Z</time>
      </trkpt>
      <trkpt lat="45.77892" lon="6.63985">
        <ele>1491</ele>
        <time>2022-08-16T09:36:52Z</time>
      </trkpt>
      <trkpt lat="45.77892" lon="6.63982">
        <ele>1491</ele>
        <time>2022-08-16T09:36:53Z</time>
      </trkpt>
      <trkpt lat="45.77891" lon="6.63978">
        <ele>1492</ele>
        <time>2022-08-16T09:36:54Z</time>
      </trkpt>
      <trkpt lat="45.77891" lon="6.63975">
        <ele>1492</ele>
        <time>2022-08-16T09:36:55Z</time>
      </trkpt>
      <trkpt lat="45.7789" lon="6.63972">
        <ele>1492</ele>
        <time>2022-08-16T09:36:56Z</time>
      </trkpt>
      <trkpt lat="45.7789" lon="6.63969">
        <ele>1493</ele>
        <time>2022-08-16T09:36:57Z</time>
      </trkpt>
      <trkpt lat="45.7789" lon="6.63966">
        <ele>1493</ele>
        <time>2022-08-16T09:36:58Z</time>
      </trkpt>
      <trkpt lat="45.77889" lon="6.63963">
        <ele>1493</ele>
        <time>2022-08-16T09:36:59Z</time>
      </trkpt>
      <trkpt lat="45.77888" lon="6.6396">
        <ele>1493</ele>
        <time>2022-08-16T09:37:00Z</time>
      </trkpt>
      <trkpt lat="45.77888" lon="6.63957">
        <ele>1493</ele>
        <time>2022-08-16T09:37:01Z</time>
      </trkpt>
      <trkpt lat="45.77888" lon="6.63954">
        <ele>1493</ele>
        <time>2022-08-16T09:37:02Z</time>
      </trkpt>
      <trkpt lat="45.77887" lon="6.63951">
        <ele>1493</ele>
        <time>2022-08-16T09:37:03Z</time>
      </trkpt>
      <trkpt lat="45.77887" lon="6.63948">
        <ele>1494</ele>
        <time>2022-08-16T09:37:04Z</time>
      </trkpt>
      <trkpt lat="45.77887" lon="6.63945">
        <ele>1494</ele>
        <time>2022-08-16T09:37:05Z</time>
      </trkpt>
      <trkpt lat="45.77887" lon="6.63942">
        <ele>1494</ele>
        <time>2022-08-16T09:37:06Z</time>
      </trkpt>
      <trkpt lat="45.77886" lon="6.63939">
        <ele>1494</ele>
        <time>2022-08-16T09:37:07Z</time>
      </trkpt>
      <trkpt lat="45.77886" lon="6.63937">
        <ele>1494</ele>
        <time>2022-08-16T09:37:08Z</time>
      </trkpt>
      <trkpt lat="45.77885" lon="6.63934">
        <ele>1494</ele>
        <time>2022-08-16T09:37:09Z</time>
      </trkpt>
      <trkpt lat="45.77885" lon="6.63932">
        <ele>1495</ele>
        <time>2022-08-16T09:37:10Z</time>
      </trkpt>
      <trkpt lat="45.77885" lon="6.6393">
        <ele>1494</ele>
        <time>2022-08-16T09:37:11Z</time>
      </trkpt>
      <trkpt lat="45.77884" lon="6.63927">
        <ele>1494</ele>
        <time>2022-08-16T09:37:12Z</time>
      </trkpt>
      <trkpt lat="45.77883" lon="6.63924">
        <ele>1494</ele>
        <time>2022-08-16T09:37:13Z</time>
      </trkpt>
      <trkpt lat="45.77883" lon="6.63922">
        <ele>1494</ele>
        <time>2022-08-16T09:37:14Z</time>
      </trkpt>
      <trkpt lat="45.77882" lon="6.6392">
        <ele>1494</ele>
        <time>2022-08-16T09:37:15Z</time>
      </trkpt>
      <trkpt lat="45.77882" lon="6.63918">
        <ele>1494</ele>
        <time>2022-08-16T09:37:16Z</time>
      </trkpt>
      <trkpt lat="45.77881" lon="6.63916">
        <ele>1495</ele>
        <time>2022-08-16T09:37:17Z</time>
      </trkpt>
      <trkpt lat="45.77881" lon="6.63913">
        <ele>1495</ele>
        <time>2022-08-16T09:37:18Z</time>
      </trkpt>
      <trkpt lat="45.7788" lon="6.63911">
        <ele>1494</ele>
        <time>2022-08-16T09:37:19Z</time>
      </trkpt>
      <trkpt lat="45.77879" lon="6.63909">
        <ele>1495</ele>
        <time>2022-08-16T09:37:20Z</time>
      </trkpt>
      <trkpt lat="45.77879" lon="6.63907">
        <ele>1494</ele>
        <time>2022-08-16T09:37:21Z</time>
      </trkpt>
      <trkpt lat="45.77878" lon="6.63905">
        <ele>1495</ele>
        <time>2022-08-16T09:37:22Z</time>
      </trkpt>
      <trkpt lat="45.77878" lon="6.63902">
        <ele>1495</ele>
        <time>2022-08-16T09:37:23Z</time>
      </trkpt>
      <trkpt lat="45.77877" lon="6.639">
        <ele>1495</ele>
        <time>2022-08-16T09:37:24Z</time>
      </trkpt>
      <trkpt lat="45.77876" lon="6.63898">
        <ele>1495</ele>
        <time>2022-08-16T09:37:25Z</time>
      </trkpt>
      <trkpt lat="45.77875" lon="6.63895">
        <ele>1494</ele>
        <time>2022-08-16T09:37:26Z</time>
      </trkpt>
      <trkpt lat="45.77874" lon="6.63893">
        <ele>1494</ele>
        <time>2022-08-16T09:37:27Z</time>
      </trkpt>
      <trkpt lat="45.77874" lon="6.6389">
        <ele>1495</ele>
        <time>2022-08-16T09:37:28Z</time>
      </trkpt>
      <trkpt lat="45.77873" lon="6.63888">
        <ele>1495</ele>
        <time>2022-08-16T09:37:29Z</time>
      </trkpt>
      <trkpt lat="45.77873" lon="6.63885">
        <ele>1495</ele>
        <time>2022-08-16T09:37:30Z</time>
      </trkpt>
      <trkpt lat="45.77873" lon="6.63882">
        <ele>1496</ele>
        <time>2022-08-16T09:37:31Z</time>
      </trkpt>
      <trkpt lat="45.77873" lon="6.63879">
        <ele>1496</ele>
        <time>2022-08-16T09:37:32Z</time>
      </trkpt>
      <trkpt lat="45.77873" lon="6.63876">
        <ele>1496</ele>
        <time>2022-08-16T09:37:33Z</time>
      </trkpt>
      <trkpt lat="45.77873" lon="6.63873">
        <ele>1496</ele>
        <time>2022-08-16T09:37:34Z</time>
      </trkpt>
      <trkpt lat="45.77873" lon="6.6387">
        <ele>1497</ele>
        <time>2022-08-16T09:37:35Z</time>
      </trkpt>
      <trkpt lat="45.77873" lon="6.63867">
        <ele>1497</ele>
        <time>2022-08-16T09:37:36Z</time>
      </trkpt>
      <trkpt lat="45.77873" lon="6.63864">
        <ele>1497</ele>
        <time>2022-08-16T09:37:37Z</time>
      </trkpt>
      <trkpt lat="45.77872" lon="6.63861">
        <ele>1498</ele>
        <time>2022-08-16T09:37:38Z</time>
      </trkpt>
      <trkpt lat="45.77871" lon="6.63859">
        <ele>1498</ele>
        <time>2022-08-16T09:37:39Z</time>
      </trkpt>
      <trkpt lat="45.77871" lon="6.63857">
        <ele>1498</ele>
        <time>2022-08-16T09:37:40Z</time>
      </trkpt>
      <trkpt lat="45.7787" lon="6.63855">
        <ele>1498</ele>
        <time>2022-08-16T09:37:41Z</time>
      </trkpt>
      <trkpt lat="45.7787" lon="6.63853">
        <ele>1498</ele>
        <time>2022-08-16T09:37:42Z</time>
      </trkpt>
      <trkpt lat="45.77869" lon="6.6385">
        <ele>1498</ele>
        <time>2022-08-16T09:37:43Z</time>
      </trkpt>
      <trkpt lat="45.77868" lon="6.63848">
        <ele>1498</ele>
        <time>2022-08-16T09:37:44Z</time>
      </trkpt>
      <trkpt lat="45.77868" lon="6.63846">
        <ele>1498</ele>
        <time>2022-08-16T09:37:45Z</time>
      </trkpt>
      <trkpt lat="45.77867" lon="6.63843">
        <ele>1498</ele>
        <time>2022-08-16T09:37:46Z</time>
      </trkpt>
      <trkpt lat="45.77867" lon="6.6384">
        <ele>1499</ele>
        <time>2022-08-16T09:37:47Z</time>
      </trkpt>
      <trkpt lat="45.77866" lon="6.63838">
        <ele>1499</ele>
        <time>2022-08-16T09:37:48Z</time>
      </trkpt>
      <trkpt lat="45.77865" lon="6.63836">
        <ele>1499</ele>
        <time>2022-08-16T09:37:49Z</time>
      </trkpt>
      <trkpt lat="45.77864" lon="6.63834">
        <ele>1499</ele>
        <time>2022-08-16T09:37:50Z</time>
      </trkpt>
      <trkpt lat="45.77864" lon="6.63832">
        <ele>1499</ele>
        <time>2022-08-16T09:37:51Z</time>
      </trkpt>
      <trkpt lat="45.77863" lon="6.63829">
        <ele>1499</ele>
        <time>2022-08-16T09:37:52Z</time>
      </trkpt>
      <trkpt lat="45.77862" lon="6.63827">
        <ele>1499</ele>
        <time>2022-08-16T09:37:53Z</time>
      </trkpt>
      <trkpt lat="45.77861" lon="6.63825">
        <ele>1500</ele>
        <time>2022-08-16T09:37:54Z</time>
      </trkpt>
      <trkpt lat="45.7786" lon="6.63823">
        <ele>1500</ele>
        <time>2022-08-16T09:37:55Z</time>
      </trkpt>
      <trkpt lat="45.77859" lon="6.63821">
        <ele>1500</ele>
        <time>2022-08-16T09:37:56Z</time>
      </trkpt>
      <trkpt lat="45.77858" lon="6.63819">
        <ele>1501</ele>
        <time>2022-08-16T09:37:57Z</time>
      </trkpt>
      <trkpt lat="45.77857" lon="6.63818">
        <ele>1501</ele>
        <time>2022-08-16T09:37:58Z</time>
      </trkpt>
      <trkpt lat="45.77857" lon="6.63815">
        <ele>1501</ele>
        <time>2022-08-16T09:37:59Z</time>
      </trkpt>
      <trkpt lat="45.77855" lon="6.63813">
        <ele>1501</ele>
        <time>2022-08-16T09:38:00Z</time>
      </trkpt>
      <trkpt lat="45.77854" lon="6.63811">
        <ele>1501</ele>
        <time>2022-08-16T09:38:01Z</time>
      </trkpt>
      <trkpt lat="45.77853" lon="6.63809">
        <ele>1501</ele>
        <time>2022-08-16T09:38:02Z</time>
      </trkpt>
      <trkpt lat="45.77852" lon="6.63807">
        <ele>1501</ele>
        <time>2022-08-16T09:38:03Z</time>
      </trkpt>
      <trkpt lat="45.77851" lon="6.63805">
        <ele>1502</ele>
        <time>2022-08-16T09:38:04Z</time>
      </trkpt>
      <trkpt lat="45.7785" lon="6.63803">
        <ele>1502</ele>
        <time>2022-08-16T09:38:05Z</time>
      </trkpt>
      <trkpt lat="45.77849" lon="6.63801">
        <ele>1502</ele>
        <time>2022-08-16T09:38:06Z</time>
      </trkpt>
      <trkpt lat="45.77848" lon="6.63799">
        <ele>1501</ele>
        <time>2022-08-16T09:38:07Z</time>
      </trkpt>
      <trkpt lat="45.77846" lon="6.63798">
        <ele>1501</ele>
        <time>2022-08-16T09:38:08Z</time>
      </trkpt>
      <trkpt lat="45.77845" lon="6.63796">
        <ele>1501</ele>
        <time>2022-08-16T09:38:09Z</time>
      </trkpt>
      <trkpt lat="45.77844" lon="6.63794">
        <ele>1500</ele>
        <time>2022-08-16T09:38:10Z</time>
      </trkpt>
      <trkpt lat="45.77842" lon="6.63793">
        <ele>1500</ele>
        <time>2022-08-16T09:38:11Z</time>
      </trkpt>
      <trkpt lat="45.77841" lon="6.63791">
        <ele>1500</ele>
        <time>2022-08-16T09:38:12Z</time>
      </trkpt>
      <trkpt lat="45.7784" lon="6.63789">
        <ele>1501</ele>
        <time>2022-08-16T09:38:13Z</time>
      </trkpt>
      <trkpt lat="45.77839" lon="6.63787">
        <ele>1501</ele>
        <time>2022-08-16T09:38:14Z</time>
      </trkpt>
      <trkpt lat="45.77838" lon="6.63785">
        <ele>1500</ele>
        <time>2022-08-16T09:38:15Z</time>
      </trkpt>
      <trkpt lat="45.77837" lon="6.63783">
        <ele>1501</ele>
        <time>2022-08-16T09:38:16Z</time>
      </trkpt>
      <trkpt lat="45.77836" lon="6.6378">
        <ele>1501</ele>
        <time>2022-08-16T09:38:17Z</time>
      </trkpt>
      <trkpt lat="45.77835" lon="6.63778">
        <ele>1501</ele>
        <time>2022-08-16T09:38:18Z</time>
      </trkpt>
      <trkpt lat="45.77835" lon="6.63775">
        <ele>1501</ele>
        <time>2022-08-16T09:38:19Z</time>
      </trkpt>
      <trkpt lat="45.77834" lon="6.63772">
        <ele>1501</ele>
        <time>2022-08-16T09:38:20Z</time>
      </trkpt>
      <trkpt lat="45.77832" lon="6.6377">
        <ele>1502</ele>
        <time>2022-08-16T09:38:21Z</time>
      </trkpt>
      <trkpt lat="45.77831" lon="6.63768">
        <ele>1502</ele>
        <time>2022-08-16T09:38:22Z</time>
      </trkpt>
      <trkpt lat="45.7783" lon="6.63766">
        <ele>1502</ele>
        <time>2022-08-16T09:38:23Z</time>
      </trkpt>
      <trkpt lat="45.77829" lon="6.63764">
        <ele>1502</ele>
        <time>2022-08-16T09:38:24Z</time>
      </trkpt>
      <trkpt lat="45.77828" lon="6.63762">
        <ele>1503</ele>
        <time>2022-08-16T09:38:25Z</time>
      </trkpt>
      <trkpt lat="45.77828" lon="6.6376">
        <ele>1503</ele>
        <time>2022-08-16T09:38:26Z</time>
      </trkpt>
      <trkpt lat="45.77827" lon="6.63758">
        <ele>1503</ele>
        <time>2022-08-16T09:38:27Z</time>
      </trkpt>
      <trkpt lat="45.77826" lon="6.63756">
        <ele>1503</ele>
        <time>2022-08-16T09:38:28Z</time>
      </trkpt>
      <trkpt lat="45.77825" lon="6.63754">
        <ele>1503</ele>
        <time>2022-08-16T09:38:29Z</time>
      </trkpt>
      <trkpt lat="45.77824" lon="6.63752">
        <ele>1503</ele>
        <time>2022-08-16T09:38:30Z</time>
      </trkpt>
      <trkpt lat="45.77824" lon="6.63749">
        <ele>1503</ele>
        <time>2022-08-16T09:38:31Z</time>
      </trkpt>
      <trkpt lat="45.77823" lon="6.63747">
        <ele>1504</ele>
        <time>2022-08-16T09:38:32Z</time>
      </trkpt>
      <trkpt lat="45.77822" lon="6.63745">
        <ele>1505</ele>
        <time>2022-08-16T09:38:33Z</time>
      </trkpt>
      <trkpt lat="45.77822" lon="6.63743">
        <ele>1505</ele>
        <time>2022-08-16T09:38:34Z</time>
      </trkpt>
      <trkpt lat="45.77821" lon="6.63741">
        <ele>1506</ele>
        <time>2022-08-16T09:38:35Z</time>
      </trkpt>
      <trkpt lat="45.77821" lon="6.63739">
        <ele>1506</ele>
        <time>2022-08-16T09:38:36Z</time>
      </trkpt>
      <trkpt lat="45.77821" lon="6.63737">
        <ele>1507</ele>
        <time>2022-08-16T09:38:37Z</time>
      </trkpt>
      <trkpt lat="45.77821" lon="6.63734">
        <ele>1507</ele>
        <time>2022-08-16T09:38:38Z</time>
      </trkpt>
      <trkpt lat="45.7782" lon="6.63732">
        <ele>1508</ele>
        <time>2022-08-16T09:38:39Z</time>
      </trkpt>
      <trkpt lat="45.77821" lon="6.63729">
        <ele>1509</ele>
        <time>2022-08-16T09:38:40Z</time>
      </trkpt>
      <trkpt lat="45.77821" lon="6.63727">
        <ele>1509</ele>
        <time>2022-08-16T09:38:41Z</time>
      </trkpt>
      <trkpt lat="45.77821" lon="6.63725">
        <ele>1510</ele>
        <time>2022-08-16T09:38:42Z</time>
      </trkpt>
      <trkpt lat="45.77821" lon="6.63722">
        <ele>1510</ele>
        <time>2022-08-16T09:38:43Z</time>
      </trkpt>
      <trkpt lat="45.77821" lon="6.6372">
        <ele>1511</ele>
        <time>2022-08-16T09:38:44Z</time>
      </trkpt>
      <trkpt lat="45.77821" lon="6.63718">
        <ele>1511</ele>
        <time>2022-08-16T09:38:45Z</time>
      </trkpt>
      <trkpt lat="45.77821" lon="6.63715">
        <ele>1511</ele>
        <time>2022-08-16T09:38:46Z</time>
      </trkpt>
      <trkpt lat="45.77822" lon="6.63712">
        <ele>1512</ele>
        <time>2022-08-16T09:38:47Z</time>
      </trkpt>
      <trkpt lat="45.77822" lon="6.6371">
        <ele>1512</ele>
        <time>2022-08-16T09:38:48Z</time>
      </trkpt>
      <trkpt lat="45.77822" lon="6.63708">
        <ele>1511</ele>
        <time>2022-08-16T09:38:49Z</time>
      </trkpt>
      <trkpt lat="45.77823" lon="6.63705">
        <ele>1511</ele>
        <time>2022-08-16T09:38:50Z</time>
      </trkpt>
      <trkpt lat="45.77823" lon="6.63703">
        <ele>1512</ele>
        <time>2022-08-16T09:38:51Z</time>
      </trkpt>
      <trkpt lat="45.77823" lon="6.63701">
        <ele>1512</ele>
        <time>2022-08-16T09:38:52Z</time>
      </trkpt>
      <trkpt lat="45.77823" lon="6.63698">
        <ele>1512</ele>
        <time>2022-08-16T09:38:53Z</time>
      </trkpt>
      <trkpt lat="45.77824" lon="6.63695">
        <ele>1513</ele>
        <time>2022-08-16T09:38:54Z</time>
      </trkpt>
      <trkpt lat="45.77824" lon="6.63693">
        <ele>1513</ele>
        <time>2022-08-16T09:38:55Z</time>
      </trkpt>
      <trkpt lat="45.77824" lon="6.63691">
        <ele>1513</ele>
        <time>2022-08-16T09:38:56Z</time>
      </trkpt>
      <trkpt lat="45.77824" lon="6.63689">
        <ele>1514</ele>
        <time>2022-08-16T09:38:57Z</time>
      </trkpt>
      <trkpt lat="45.77825" lon="6.63687">
        <ele>1513</ele>
        <time>2022-08-16T09:38:58Z</time>
      </trkpt>
      <trkpt lat="45.77825" lon="6.63684">
        <ele>1513</ele>
        <time>2022-08-16T09:38:59Z</time>
      </trkpt>
      <trkpt lat="45.77825" lon="6.63683">
        <ele>1513</ele>
        <time>2022-08-16T09:39:00Z</time>
      </trkpt>
      <trkpt lat="45.77826" lon="6.63681">
        <ele>1512</ele>
        <time>2022-08-16T09:39:01Z</time>
      </trkpt>
      <trkpt lat="45.77827" lon="6.63679">
        <ele>1512</ele>
        <time>2022-08-16T09:39:02Z</time>
      </trkpt>
      <trkpt lat="45.77828" lon="6.63677">
        <ele>1512</ele>
        <time>2022-08-16T09:39:03Z</time>
      </trkpt>
      <trkpt lat="45.77828" lon="6.63676">
        <ele>1513</ele>
        <time>2022-08-16T09:39:04Z</time>
      </trkpt>
      <trkpt lat="45.7783" lon="6.63673">
        <ele>1514</ele>
        <time>2022-08-16T09:39:05Z</time>
      </trkpt>
      <trkpt lat="45.77831" lon="6.63671">
        <ele>1514</ele>
        <time>2022-08-16T09:39:06Z</time>
      </trkpt>
      <trkpt lat="45.77832" lon="6.63669">
        <ele>1514</ele>
        <time>2022-08-16T09:39:07Z</time>
      </trkpt>
      <trkpt lat="45.77833" lon="6.63667">
        <ele>1514</ele>
        <time>2022-08-16T09:39:08Z</time>
      </trkpt>
      <trkpt lat="45.77834" lon="6.63666">
        <ele>1514</ele>
        <time>2022-08-16T09:39:09Z</time>
      </trkpt>
      <trkpt lat="45.77836" lon="6.63664">
        <ele>1514</ele>
        <time>2022-08-16T09:39:10Z</time>
      </trkpt>
      <trkpt lat="45.77837" lon="6.63662">
        <ele>1514</ele>
        <time>2022-08-16T09:39:11Z</time>
      </trkpt>
      <trkpt lat="45.77839" lon="6.63661">
        <ele>1514</ele>
        <time>2022-08-16T09:39:12Z</time>
      </trkpt>
      <trkpt lat="45.7784" lon="6.63659">
        <ele>1513</ele>
        <time>2022-08-16T09:39:13Z</time>
      </trkpt>
      <trkpt lat="45.77842" lon="6.63656">
        <ele>1513</ele>
        <time>2022-08-16T09:39:14Z</time>
      </trkpt>
      <trkpt lat="45.77843" lon="6.63654">
        <ele>1514</ele>
        <time>2022-08-16T09:39:15Z</time>
      </trkpt>
      <trkpt lat="45.77844" lon="6.63652">
        <ele>1513</ele>
        <time>2022-08-16T09:39:16Z</time>
      </trkpt>
      <trkpt lat="45.77845" lon="6.6365">
        <ele>1513</ele>
        <time>2022-08-16T09:39:17Z</time>
      </trkpt>
      <trkpt lat="45.77846" lon="6.63647">
        <ele>1514</ele>
        <time>2022-08-16T09:39:18Z</time>
      </trkpt>
      <trkpt lat="45.77846" lon="6.63645">
        <ele>1514</ele>
        <time>2022-08-16T09:39:19Z</time>
      </trkpt>
      <trkpt lat="45.77846" lon="6.63642">
        <ele>1514</ele>
        <time>2022-08-16T09:39:20Z</time>
      </trkpt>
      <trkpt lat="45.77846" lon="6.63639">
        <ele>1514</ele>
        <time>2022-08-16T09:39:21Z</time>
      </trkpt>
      <trkpt lat="45.77846" lon="6.63636">
        <ele>1515</ele>
        <time>2022-08-16T09:39:22Z</time>
      </trkpt>
      <trkpt lat="45.77845" lon="6.63634">
        <ele>1515</ele>
        <time>2022-08-16T09:39:23Z</time>
      </trkpt>
      <trkpt lat="45.77844" lon="6.63631">
        <ele>1515</ele>
        <time>2022-08-16T09:39:24Z</time>
      </trkpt>
      <trkpt lat="45.77843" lon="6.63629">
        <ele>1515</ele>
        <time>2022-08-16T09:39:25Z</time>
      </trkpt>
      <trkpt lat="45.77842" lon="6.63627">
        <ele>1515</ele>
        <time>2022-08-16T09:39:26Z</time>
      </trkpt>
      <trkpt lat="45.77841" lon="6.63625">
        <ele>1514</ele>
        <time>2022-08-16T09:39:27Z</time>
      </trkpt>
      <trkpt lat="45.77839" lon="6.63622">
        <ele>1514</ele>
        <time>2022-08-16T09:39:28Z</time>
      </trkpt>
      <trkpt lat="45.77838" lon="6.63619">
        <ele>1514</ele>
        <time>2022-08-16T09:39:29Z</time>
      </trkpt>
      <trkpt lat="45.77837" lon="6.63617">
        <ele>1514</ele>
        <time>2022-08-16T09:39:30Z</time>
      </trkpt>
      <trkpt lat="45.77836" lon="6.63614">
        <ele>1514</ele>
        <time>2022-08-16T09:39:31Z</time>
      </trkpt>
      <trkpt lat="45.77835" lon="6.63612">
        <ele>1514</ele>
        <time>2022-08-16T09:39:32Z</time>
      </trkpt>
      <trkpt lat="45.77834" lon="6.63608">
        <ele>1515</ele>
        <time>2022-08-16T09:39:33Z</time>
      </trkpt>
      <trkpt lat="45.77833" lon="6.63606">
        <ele>1515</ele>
        <time>2022-08-16T09:39:34Z</time>
      </trkpt>
      <trkpt lat="45.77833" lon="6.63603">
        <ele>1515</ele>
        <time>2022-08-16T09:39:35Z</time>
      </trkpt>
      <trkpt lat="45.77832" lon="6.63601">
        <ele>1515</ele>
        <time>2022-08-16T09:39:36Z</time>
      </trkpt>
      <trkpt lat="45.77831" lon="6.63598">
        <ele>1515</ele>
        <time>2022-08-16T09:39:37Z</time>
      </trkpt>
      <trkpt lat="45.77831" lon="6.63595">
        <ele>1515</ele>
        <time>2022-08-16T09:39:38Z</time>
      </trkpt>
      <trkpt lat="45.7783" lon="6.63593">
        <ele>1516</ele>
        <time>2022-08-16T09:39:39Z</time>
      </trkpt>
      <trkpt lat="45.7783" lon="6.6359">
        <ele>1517</ele>
        <time>2022-08-16T09:39:40Z</time>
      </trkpt>
      <trkpt lat="45.7783" lon="6.63588">
        <ele>1517</ele>
        <time>2022-08-16T09:39:41Z</time>
      </trkpt>
      <trkpt lat="45.7783" lon="6.63585">
        <ele>1518</ele>
        <time>2022-08-16T09:39:42Z</time>
      </trkpt>
      <trkpt lat="45.7783" lon="6.63583">
        <ele>1518</ele>
        <time>2022-08-16T09:39:43Z</time>
      </trkpt>
      <trkpt lat="45.7783" lon="6.6358">
        <ele>1519</ele>
        <time>2022-08-16T09:39:44Z</time>
      </trkpt>
      <trkpt lat="45.77829" lon="6.63578">
        <ele>1518</ele>
        <time>2022-08-16T09:39:45Z</time>
      </trkpt>
      <trkpt lat="45.77829" lon="6.63575">
        <ele>1518</ele>
        <time>2022-08-16T09:39:46Z</time>
      </trkpt>
      <trkpt lat="45.77829" lon="6.63573">
        <ele>1519</ele>
        <time>2022-08-16T09:39:47Z</time>
      </trkpt>
      <trkpt lat="45.77829" lon="6.6357">
        <ele>1519</ele>
        <time>2022-08-16T09:39:48Z</time>
      </trkpt>
      <trkpt lat="45.77829" lon="6.63567">
        <ele>1519</ele>
        <time>2022-08-16T09:39:49Z</time>
      </trkpt>
      <trkpt lat="45.7783" lon="6.63565">
        <ele>1520</ele>
        <time>2022-08-16T09:39:50Z</time>
      </trkpt>
      <trkpt lat="45.7783" lon="6.63562">
        <ele>1520</ele>
        <time>2022-08-16T09:39:51Z</time>
      </trkpt>
      <trkpt lat="45.7783" lon="6.63559">
        <ele>1520</ele>
        <time>2022-08-16T09:39:52Z</time>
      </trkpt>
      <trkpt lat="45.7783" lon="6.63556">
        <ele>1520</ele>
        <time>2022-08-16T09:39:53Z</time>
      </trkpt>
      <trkpt lat="45.7783" lon="6.63553">
        <ele>1520</ele>
        <time>2022-08-16T09:39:54Z</time>
      </trkpt>
      <trkpt lat="45.7783" lon="6.6355">
        <ele>1520</ele>
        <time>2022-08-16T09:39:55Z</time>
      </trkpt>
      <trkpt lat="45.77829" lon="6.63547">
        <ele>1520</ele>
        <time>2022-08-16T09:39:56Z</time>
      </trkpt>
      <trkpt lat="45.77829" lon="6.63544">
        <ele>1519</ele>
        <time>2022-08-16T09:39:57Z</time>
      </trkpt>
      <trkpt lat="45.77829" lon="6.63541">
        <ele>1520</ele>
        <time>2022-08-16T09:39:58Z</time>
      </trkpt>
      <trkpt lat="45.77829" lon="6.63538">
        <ele>1520</ele>
        <time>2022-08-16T09:39:59Z</time>
      </trkpt>
      <trkpt lat="45.77829" lon="6.63535">
        <ele>1519</ele>
        <time>2022-08-16T09:40:00Z</time>
      </trkpt>
      <trkpt lat="45.77829" lon="6.63532">
        <ele>1519</ele>
        <time>2022-08-16T09:40:01Z</time>
      </trkpt>
      <trkpt lat="45.77829" lon="6.63529">
        <ele>1519</ele>
        <time>2022-08-16T09:40:02Z</time>
      </trkpt>
      <trkpt lat="45.77829" lon="6.63527">
        <ele>1519</ele>
        <time>2022-08-16T09:40:03Z</time>
      </trkpt>
      <trkpt lat="45.77829" lon="6.63524">
        <ele>1519</ele>
        <time>2022-08-16T09:40:04Z</time>
      </trkpt>
      <trkpt lat="45.77829" lon="6.63522">
        <ele>1520</ele>
        <time>2022-08-16T09:40:05Z</time>
      </trkpt>
      <trkpt lat="45.7783" lon="6.63519">
        <ele>1520</ele>
        <time>2022-08-16T09:40:06Z</time>
      </trkpt>
      <trkpt lat="45.7783" lon="6.63516">
        <ele>1520</ele>
        <time>2022-08-16T09:40:07Z</time>
      </trkpt>
      <trkpt lat="45.7783" lon="6.63513">
        <ele>1521</ele>
        <time>2022-08-16T09:40:08Z</time>
      </trkpt>
      <trkpt lat="45.77831" lon="6.6351">
        <ele>1521</ele>
        <time>2022-08-16T09:40:09Z</time>
      </trkpt>
      <trkpt lat="45.77831" lon="6.63508">
        <ele>1520</ele>
        <time>2022-08-16T09:40:10Z</time>
      </trkpt>
      <trkpt lat="45.77831" lon="6.63505">
        <ele>1520</ele>
        <time>2022-08-16T09:40:11Z</time>
      </trkpt>
      <trkpt lat="45.7783" lon="6.63502">
        <ele>1520</ele>
        <time>2022-08-16T09:40:12Z</time>
      </trkpt>
      <trkpt lat="45.7783" lon="6.635">
        <ele>1520</ele>
        <time>2022-08-16T09:40:13Z</time>
      </trkpt>
      <trkpt lat="45.7783" lon="6.63497">
        <ele>1521</ele>
        <time>2022-08-16T09:40:14Z</time>
      </trkpt>
      <trkpt lat="45.77831" lon="6.63494">
        <ele>1520</ele>
        <time>2022-08-16T09:40:15Z</time>
      </trkpt>
      <trkpt lat="45.77831" lon="6.63492">
        <ele>1521</ele>
        <time>2022-08-16T09:40:16Z</time>
      </trkpt>
      <trkpt lat="45.77831" lon="6.63489">
        <ele>1521</ele>
        <time>2022-08-16T09:40:17Z</time>
      </trkpt>
      <trkpt lat="45.77832" lon="6.63487">
        <ele>1521</ele>
        <time>2022-08-16T09:40:18Z</time>
      </trkpt>
      <trkpt lat="45.77832" lon="6.63485">
        <ele>1522</ele>
        <time>2022-08-16T09:40:19Z</time>
      </trkpt>
      <trkpt lat="45.77832" lon="6.63482">
        <ele>1522</ele>
        <time>2022-08-16T09:40:20Z</time>
      </trkpt>
      <trkpt lat="45.77833" lon="6.6348">
        <ele>1522</ele>
        <time>2022-08-16T09:40:21Z</time>
      </trkpt>
      <trkpt lat="45.77833" lon="6.63477">
        <ele>1522</ele>
        <time>2022-08-16T09:40:22Z</time>
      </trkpt>
      <trkpt lat="45.77834" lon="6.63476">
        <ele>1522</ele>
        <time>2022-08-16T09:40:23Z</time>
      </trkpt>
      <trkpt lat="45.77834" lon="6.63473">
        <ele>1523</ele>
        <time>2022-08-16T09:40:24Z</time>
      </trkpt>
      <trkpt lat="45.77834" lon="6.63471">
        <ele>1523</ele>
        <time>2022-08-16T09:40:25Z</time>
      </trkpt>
      <trkpt lat="45.77834" lon="6.63469">
        <ele>1523</ele>
        <time>2022-08-16T09:40:26Z</time>
      </trkpt>
      <trkpt lat="45.77834" lon="6.63468">
        <ele>1523</ele>
        <time>2022-08-16T09:40:27Z</time>
      </trkpt>
      <trkpt lat="45.77834" lon="6.63465">
        <ele>1523</ele>
        <time>2022-08-16T09:40:28Z</time>
      </trkpt>
      <trkpt lat="45.77834" lon="6.63463">
        <ele>1524</ele>
        <time>2022-08-16T09:40:29Z</time>
      </trkpt>
      <trkpt lat="45.77834" lon="6.6346">
        <ele>1524</ele>
        <time>2022-08-16T09:40:30Z</time>
      </trkpt>
      <trkpt lat="45.77834" lon="6.63458">
        <ele>1524</ele>
        <time>2022-08-16T09:40:31Z</time>
      </trkpt>
      <trkpt lat="45.77833" lon="6.63455">
        <ele>1525</ele>
        <time>2022-08-16T09:40:32Z</time>
      </trkpt>
      <trkpt lat="45.77833" lon="6.63453">
        <ele>1525</ele>
        <time>2022-08-16T09:40:33Z</time>
      </trkpt>
      <trkpt lat="45.77834" lon="6.63451">
        <ele>1526</ele>
        <time>2022-08-16T09:40:34Z</time>
      </trkpt>
      <trkpt lat="45.77834" lon="6.63448">
        <ele>1526</ele>
        <time>2022-08-16T09:40:35Z</time>
      </trkpt>
      <trkpt lat="45.77834" lon="6.63446">
        <ele>1526</ele>
        <time>2022-08-16T09:40:36Z</time>
      </trkpt>
      <trkpt lat="45.77834" lon="6.63444">
        <ele>1527</ele>
        <time>2022-08-16T09:40:37Z</time>
      </trkpt>
      <trkpt lat="45.77834" lon="6.63442">
        <ele>1527</ele>
        <time>2022-08-16T09:40:38Z</time>
      </trkpt>
      <trkpt lat="45.77834" lon="6.63439">
        <ele>1527</ele>
        <time>2022-08-16T09:40:39Z</time>
      </trkpt>
      <trkpt lat="45.77834" lon="6.63436">
        <ele>1528</ele>
        <time>2022-08-16T09:40:40Z</time>
      </trkpt>
      <trkpt lat="45.77834" lon="6.63434">
        <ele>1528</ele>
        <time>2022-08-16T09:40:41Z</time>
      </trkpt>
      <trkpt lat="45.77834" lon="6.63431">
        <ele>1528</ele>
        <time>2022-08-16T09:40:42Z</time>
      </trkpt>
      <trkpt lat="45.77833" lon="6.63429">
        <ele>1529</ele>
        <time>2022-08-16T09:40:43Z</time>
      </trkpt>
      <trkpt lat="45.77833" lon="6.63426">
        <ele>1529</ele>
        <time>2022-08-16T09:40:44Z</time>
      </trkpt>
      <trkpt lat="45.77834" lon="6.63423">
        <ele>1529</ele>
        <time>2022-08-16T09:40:45Z</time>
      </trkpt>
      <trkpt lat="45.77834" lon="6.6342">
        <ele>1530</ele>
        <time>2022-08-16T09:40:46Z</time>
      </trkpt>
      <trkpt lat="45.77834" lon="6.63418">
        <ele>1530</ele>
        <time>2022-08-16T09:40:47Z</time>
      </trkpt>
      <trkpt lat="45.77834" lon="6.63415">
        <ele>1530</ele>
        <time>2022-08-16T09:40:48Z</time>
      </trkpt>
      <trkpt lat="45.77833" lon="6.63413">
        <ele>1530</ele>
        <time>2022-08-16T09:40:49Z</time>
      </trkpt>
      <trkpt lat="45.77834" lon="6.63411">
        <ele>1530</ele>
        <time>2022-08-16T09:40:50Z</time>
      </trkpt>
      <trkpt lat="45.77834" lon="6.63408">
        <ele>1530</ele>
        <time>2022-08-16T09:40:51Z</time>
      </trkpt>
      <trkpt lat="45.77834" lon="6.63406">
        <ele>1531</ele>
        <time>2022-08-16T09:40:52Z</time>
      </trkpt>
      <trkpt lat="45.77834" lon="6.63404">
        <ele>1531</ele>
        <time>2022-08-16T09:40:53Z</time>
      </trkpt>
      <trkpt lat="45.77834" lon="6.63402">
        <ele>1531</ele>
        <time>2022-08-16T09:40:54Z</time>
      </trkpt>
      <trkpt lat="45.77834" lon="6.63399">
        <ele>1532</ele>
        <time>2022-08-16T09:40:55Z</time>
      </trkpt>
      <trkpt lat="45.77835" lon="6.63397">
        <ele>1532</ele>
        <time>2022-08-16T09:40:56Z</time>
      </trkpt>
      <trkpt lat="45.77834" lon="6.63395">
        <ele>1532</ele>
        <time>2022-08-16T09:40:57Z</time>
      </trkpt>
      <trkpt lat="45.77834" lon="6.63393">
        <ele>1532</ele>
        <time>2022-08-16T09:40:58Z</time>
      </trkpt>
      <trkpt lat="45.77834" lon="6.63391">
        <ele>1533</ele>
        <time>2022-08-16T09:40:59Z</time>
      </trkpt>
      <trkpt lat="45.77835" lon="6.63389">
        <ele>1533</ele>
        <time>2022-08-16T09:41:00Z</time>
      </trkpt>
      <trkpt lat="45.77835" lon="6.63386">
        <ele>1533</ele>
        <time>2022-08-16T09:41:01Z</time>
      </trkpt>
      <trkpt lat="45.77835" lon="6.63384">
        <ele>1533</ele>
        <time>2022-08-16T09:41:02Z</time>
      </trkpt>
      <trkpt lat="45.77836" lon="6.63382">
        <ele>1533</ele>
        <time>2022-08-16T09:41:03Z</time>
      </trkpt>
      <trkpt lat="45.77836" lon="6.63379">
        <ele>1533</ele>
        <time>2022-08-16T09:41:04Z</time>
      </trkpt>
      <trkpt lat="45.77836" lon="6.63377">
        <ele>1532</ele>
        <time>2022-08-16T09:41:05Z</time>
      </trkpt>
      <trkpt lat="45.77836" lon="6.63375">
        <ele>1532</ele>
        <time>2022-08-16T09:41:06Z</time>
      </trkpt>
      <trkpt lat="45.77837" lon="6.63372">
        <ele>1532</ele>
        <time>2022-08-16T09:41:07Z</time>
      </trkpt>
      <trkpt lat="45.77837" lon="6.6337">
        <ele>1533</ele>
        <time>2022-08-16T09:41:08Z</time>
      </trkpt>
      <trkpt lat="45.77838" lon="6.63367">
        <ele>1532</ele>
        <time>2022-08-16T09:41:09Z</time>
      </trkpt>
      <trkpt lat="45.77839" lon="6.63365">
        <ele>1533</ele>
        <time>2022-08-16T09:41:10Z</time>
      </trkpt>
      <trkpt lat="45.7784" lon="6.63364">
        <ele>1533</ele>
        <time>2022-08-16T09:41:11Z</time>
      </trkpt>
      <trkpt lat="45.77841" lon="6.63363">
        <ele>1533</ele>
        <time>2022-08-16T09:41:12Z</time>
      </trkpt>
      <trkpt lat="45.77842" lon="6.63362">
        <ele>1533</ele>
        <time>2022-08-16T09:41:13Z</time>
      </trkpt>
      <trkpt lat="45.77844" lon="6.63361">
        <ele>1534</ele>
        <time>2022-08-16T09:41:14Z</time>
      </trkpt>
      <trkpt lat="45.77845" lon="6.63361">
        <ele>1534</ele>
        <time>2022-08-16T09:41:15Z</time>
      </trkpt>
      <trkpt lat="45.77847" lon="6.63361">
        <ele>1534</ele>
        <time>2022-08-16T09:41:16Z</time>
      </trkpt>
      <trkpt lat="45.77848" lon="6.63362">
        <ele>1534</ele>
        <time>2022-08-16T09:41:17Z</time>
      </trkpt>
      <trkpt lat="45.77849" lon="6.63363">
        <ele>1534</ele>
        <time>2022-08-16T09:41:18Z</time>
      </trkpt>
      <trkpt lat="45.7785" lon="6.63364">
        <ele>1535</ele>
        <time>2022-08-16T09:41:19Z</time>
      </trkpt>
      <trkpt lat="45.77851" lon="6.63365">
        <ele>1534</ele>
        <time>2022-08-16T09:41:20Z</time>
      </trkpt>
      <trkpt lat="45.77852" lon="6.63367">
        <ele>1534</ele>
        <time>2022-08-16T09:41:21Z</time>
      </trkpt>
      <trkpt lat="45.77853" lon="6.63369">
        <ele>1534</ele>
        <time>2022-08-16T09:41:22Z</time>
      </trkpt>
      <trkpt lat="45.77854" lon="6.63371">
        <ele>1534</ele>
        <time>2022-08-16T09:41:23Z</time>
      </trkpt>
      <trkpt lat="45.77855" lon="6.63373">
        <ele>1534</ele>
        <time>2022-08-16T09:41:24Z</time>
      </trkpt>
      <trkpt lat="45.77856" lon="6.63376">
        <ele>1535</ele>
        <time>2022-08-16T09:41:25Z</time>
      </trkpt>
      <trkpt lat="45.77856" lon="6.63379">
        <ele>1535</ele>
        <time>2022-08-16T09:41:26Z</time>
      </trkpt>
      <trkpt lat="45.77857" lon="6.63381">
        <ele>1535</ele>
        <time>2022-08-16T09:41:27Z</time>
      </trkpt>
      <trkpt lat="45.77857" lon="6.63384">
        <ele>1535</ele>
        <time>2022-08-16T09:41:28Z</time>
      </trkpt>
      <trkpt lat="45.77857" lon="6.63386">
        <ele>1535</ele>
        <time>2022-08-16T09:41:29Z</time>
      </trkpt>
      <trkpt lat="45.77857" lon="6.63388">
        <ele>1536</ele>
        <time>2022-08-16T09:41:30Z</time>
      </trkpt>
      <trkpt lat="45.77858" lon="6.63389">
        <ele>1536</ele>
        <time>2022-08-16T09:41:31Z</time>
      </trkpt>
      <trkpt lat="45.77858" lon="6.63391">
        <ele>1537</ele>
        <time>2022-08-16T09:41:32Z</time>
      </trkpt>
      <trkpt lat="45.77859" lon="6.63393">
        <ele>1537</ele>
        <time>2022-08-16T09:41:33Z</time>
      </trkpt>
      <trkpt lat="45.77859" lon="6.63396">
        <ele>1537</ele>
        <time>2022-08-16T09:41:34Z</time>
      </trkpt>
      <trkpt lat="45.7786" lon="6.63398">
        <ele>1537</ele>
        <time>2022-08-16T09:41:35Z</time>
      </trkpt>
      <trkpt lat="45.7786" lon="6.634">
        <ele>1537</ele>
        <time>2022-08-16T09:41:36Z</time>
      </trkpt>
      <trkpt lat="45.77861" lon="6.63401">
        <ele>1537</ele>
        <time>2022-08-16T09:41:37Z</time>
      </trkpt>
      <trkpt lat="45.77862" lon="6.63403">
        <ele>1536</ele>
        <time>2022-08-16T09:41:38Z</time>
      </trkpt>
      <trkpt lat="45.77862" lon="6.63406">
        <ele>1536</ele>
        <time>2022-08-16T09:41:39Z</time>
      </trkpt>
      <trkpt lat="45.77862" lon="6.63408">
        <ele>1537</ele>
        <time>2022-08-16T09:41:40Z</time>
      </trkpt>
      <trkpt lat="45.77863" lon="6.6341">
        <ele>1537</ele>
        <time>2022-08-16T09:41:41Z</time>
      </trkpt>
      <trkpt lat="45.77863" lon="6.63413">
        <ele>1538</ele>
        <time>2022-08-16T09:41:42Z</time>
      </trkpt>
      <trkpt lat="45.77864" lon="6.63415">
        <ele>1538</ele>
        <time>2022-08-16T09:41:43Z</time>
      </trkpt>
      <trkpt lat="45.77864" lon="6.63418">
        <ele>1538</ele>
        <time>2022-08-16T09:41:44Z</time>
      </trkpt>
      <trkpt lat="45.77865" lon="6.63421">
        <ele>1538</ele>
        <time>2022-08-16T09:41:45Z</time>
      </trkpt>
      <trkpt lat="45.77866" lon="6.63423">
        <ele>1538</ele>
        <time>2022-08-16T09:41:46Z</time>
      </trkpt>
      <trkpt lat="45.77867" lon="6.63426">
        <ele>1538</ele>
        <time>2022-08-16T09:41:47Z</time>
      </trkpt>
      <trkpt lat="45.77867" lon="6.63428">
        <ele>1538</ele>
        <time>2022-08-16T09:41:48Z</time>
      </trkpt>
      <trkpt lat="45.77867" lon="6.6343">
        <ele>1538</ele>
        <time>2022-08-16T09:41:49Z</time>
      </trkpt>
      <trkpt lat="45.77868" lon="6.63433">
        <ele>1538</ele>
        <time>2022-08-16T09:41:50Z</time>
      </trkpt>
      <trkpt lat="45.77869" lon="6.63436">
        <ele>1538</ele>
        <time>2022-08-16T09:41:51Z</time>
      </trkpt>
      <trkpt lat="45.77869" lon="6.63438">
        <ele>1538</ele>
        <time>2022-08-16T09:41:52Z</time>
      </trkpt>
      <trkpt lat="45.7787" lon="6.6344">
        <ele>1538</ele>
        <time>2022-08-16T09:41:53Z</time>
      </trkpt>
      <trkpt lat="45.7787" lon="6.63442">
        <ele>1539</ele>
        <time>2022-08-16T09:41:54Z</time>
      </trkpt>
      <trkpt lat="45.77871" lon="6.63445">
        <ele>1539</ele>
        <time>2022-08-16T09:41:55Z</time>
      </trkpt>
      <trkpt lat="45.77872" lon="6.63447">
        <ele>1539</ele>
        <time>2022-08-16T09:41:56Z</time>
      </trkpt>
      <trkpt lat="45.77873" lon="6.63449">
        <ele>1539</ele>
        <time>2022-08-16T09:41:57Z</time>
      </trkpt>
      <trkpt lat="45.77874" lon="6.63451">
        <ele>1538</ele>
        <time>2022-08-16T09:41:58Z</time>
      </trkpt>
      <trkpt lat="45.77875" lon="6.63453">
        <ele>1538</ele>
        <time>2022-08-16T09:41:59Z</time>
      </trkpt>
      <trkpt lat="45.77875" lon="6.63455">
        <ele>1538</ele>
        <time>2022-08-16T09:42:00Z</time>
      </trkpt>
      <trkpt lat="45.77876" lon="6.63457">
        <ele>1538</ele>
        <time>2022-08-16T09:42:01Z</time>
      </trkpt>
      <trkpt lat="45.77877" lon="6.63459">
        <ele>1538</ele>
        <time>2022-08-16T09:42:02Z</time>
      </trkpt>
      <trkpt lat="45.77877" lon="6.63462">
        <ele>1538</ele>
        <time>2022-08-16T09:42:03Z</time>
      </trkpt>
      <trkpt lat="45.77878" lon="6.63464">
        <ele>1538</ele>
        <time>2022-08-16T09:42:04Z</time>
      </trkpt>
      <trkpt lat="45.77879" lon="6.63466">
        <ele>1538</ele>
        <time>2022-08-16T09:42:05Z</time>
      </trkpt>
      <trkpt lat="45.7788" lon="6.63468">
        <ele>1539</ele>
        <time>2022-08-16T09:42:06Z</time>
      </trkpt>
      <trkpt lat="45.77881" lon="6.63471">
        <ele>1539</ele>
        <time>2022-08-16T09:42:07Z</time>
      </trkpt>
      <trkpt lat="45.77882" lon="6.63473">
        <ele>1540</ele>
        <time>2022-08-16T09:42:08Z</time>
      </trkpt>
      <trkpt lat="45.77882" lon="6.63475">
        <ele>1540</ele>
        <time>2022-08-16T09:42:09Z</time>
      </trkpt>
      <trkpt lat="45.77883" lon="6.63478">
        <ele>1540</ele>
        <time>2022-08-16T09:42:10Z</time>
      </trkpt>
      <trkpt lat="45.77884" lon="6.6348">
        <ele>1540</ele>
        <time>2022-08-16T09:42:11Z</time>
      </trkpt>
      <trkpt lat="45.77885" lon="6.63483">
        <ele>1540</ele>
        <time>2022-08-16T09:42:12Z</time>
      </trkpt>
      <trkpt lat="45.77885" lon="6.63486">
        <ele>1540</ele>
        <time>2022-08-16T09:42:13Z</time>
      </trkpt>
      <trkpt lat="45.77886" lon="6.63489">
        <ele>1540</ele>
        <time>2022-08-16T09:42:14Z</time>
      </trkpt>
      <trkpt lat="45.77887" lon="6.63491">
        <ele>1540</ele>
        <time>2022-08-16T09:42:15Z</time>
      </trkpt>
      <trkpt lat="45.77888" lon="6.63493">
        <ele>1540</ele>
        <time>2022-08-16T09:42:16Z</time>
      </trkpt>
      <trkpt lat="45.77889" lon="6.63496">
        <ele>1540</ele>
        <time>2022-08-16T09:42:17Z</time>
      </trkpt>
      <trkpt lat="45.77889" lon="6.63498">
        <ele>1541</ele>
        <time>2022-08-16T09:42:18Z</time>
      </trkpt>
      <trkpt lat="45.7789" lon="6.63501">
        <ele>1540</ele>
        <time>2022-08-16T09:42:19Z</time>
      </trkpt>
      <trkpt lat="45.7789" lon="6.63503">
        <ele>1541</ele>
        <time>2022-08-16T09:42:20Z</time>
      </trkpt>
      <trkpt lat="45.7789" lon="6.63505">
        <ele>1541</ele>
        <time>2022-08-16T09:42:21Z</time>
      </trkpt>
      <trkpt lat="45.77891" lon="6.63506">
        <ele>1541</ele>
        <time>2022-08-16T09:42:22Z</time>
      </trkpt>
      <trkpt lat="45.77891" lon="6.63508">
        <ele>1541</ele>
        <time>2022-08-16T09:42:23Z</time>
      </trkpt>
      <trkpt lat="45.77891" lon="6.6351">
        <ele>1541</ele>
        <time>2022-08-16T09:42:24Z</time>
      </trkpt>
      <trkpt lat="45.77891" lon="6.63512">
        <ele>1541</ele>
        <time>2022-08-16T09:42:25Z</time>
      </trkpt>
      <trkpt lat="45.7789" lon="6.63514">
        <ele>1541</ele>
        <time>2022-08-16T09:42:26Z</time>
      </trkpt>
      <trkpt lat="45.77891" lon="6.63516">
        <ele>1541</ele>
        <time>2022-08-16T09:42:27Z</time>
      </trkpt>
      <trkpt lat="45.77891" lon="6.63518">
        <ele>1542</ele>
        <time>2022-08-16T09:42:28Z</time>
      </trkpt>
      <trkpt lat="45.77891" lon="6.63521">
        <ele>1542</ele>
        <time>2022-08-16T09:42:29Z</time>
      </trkpt>
      <trkpt lat="45.7789" lon="6.63523">
        <ele>1543</ele>
        <time>2022-08-16T09:42:30Z</time>
      </trkpt>
      <trkpt lat="45.7789" lon="6.63525">
        <ele>1543</ele>
        <time>2022-08-16T09:42:31Z</time>
      </trkpt>
      <trkpt lat="45.7789" lon="6.63527">
        <ele>1543</ele>
        <time>2022-08-16T09:42:32Z</time>
      </trkpt>
      <trkpt lat="45.77891" lon="6.63529">
        <ele>1543</ele>
        <time>2022-08-16T09:42:33Z</time>
      </trkpt>
      <trkpt lat="45.77891" lon="6.6353">
        <ele>1544</ele>
        <time>2022-08-16T09:42:34Z</time>
      </trkpt>
      <trkpt lat="45.77891" lon="6.63532">
        <ele>1544</ele>
        <time>2022-08-16T09:42:35Z</time>
      </trkpt>
      <trkpt lat="45.77892" lon="6.63535">
        <ele>1544</ele>
        <time>2022-08-16T09:42:36Z</time>
      </trkpt>
      <trkpt lat="45.77892" lon="6.63537">
        <ele>1545</ele>
        <time>2022-08-16T09:42:37Z</time>
      </trkpt>
      <trkpt lat="45.77893" lon="6.6354">
        <ele>1545</ele>
        <time>2022-08-16T09:42:38Z</time>
      </trkpt>
      <trkpt lat="45.77893" lon="6.63542">
        <ele>1546</ele>
        <time>2022-08-16T09:42:39Z</time>
      </trkpt>
      <trkpt lat="45.77894" lon="6.63544">
        <ele>1546</ele>
        <time>2022-08-16T09:42:40Z</time>
      </trkpt>
      <trkpt lat="45.77894" lon="6.63546">
        <ele>1546</ele>
        <time>2022-08-16T09:42:41Z</time>
      </trkpt>
      <trkpt lat="45.77895" lon="6.63548">
        <ele>1547</ele>
        <time>2022-08-16T09:42:42Z</time>
      </trkpt>
      <trkpt lat="45.77895" lon="6.6355">
        <ele>1547</ele>
        <time>2022-08-16T09:42:43Z</time>
      </trkpt>
      <trkpt lat="45.77896" lon="6.63552">
        <ele>1547</ele>
        <time>2022-08-16T09:42:44Z</time>
      </trkpt>
      <trkpt lat="45.77897" lon="6.63555">
        <ele>1547</ele>
        <time>2022-08-16T09:42:45Z</time>
      </trkpt>
      <trkpt lat="45.77897" lon="6.63557">
        <ele>1547</ele>
        <time>2022-08-16T09:42:46Z</time>
      </trkpt>
      <trkpt lat="45.77898" lon="6.6356">
        <ele>1547</ele>
        <time>2022-08-16T09:42:47Z</time>
      </trkpt>
      <trkpt lat="45.77898" lon="6.63562">
        <ele>1548</ele>
        <time>2022-08-16T09:42:48Z</time>
      </trkpt>
      <trkpt lat="45.77899" lon="6.63565">
        <ele>1548</ele>
        <time>2022-08-16T09:42:49Z</time>
      </trkpt>
      <trkpt lat="45.77901" lon="6.63567">
        <ele>1548</ele>
        <time>2022-08-16T09:42:50Z</time>
      </trkpt>
      <trkpt lat="45.77902" lon="6.6357">
        <ele>1548</ele>
        <time>2022-08-16T09:42:51Z</time>
      </trkpt>
      <trkpt lat="45.77903" lon="6.63571">
        <ele>1549</ele>
        <time>2022-08-16T09:42:52Z</time>
      </trkpt>
      <trkpt lat="45.77904" lon="6.63573">
        <ele>1548</ele>
        <time>2022-08-16T09:42:53Z</time>
      </trkpt>
      <trkpt lat="45.77906" lon="6.63575">
        <ele>1549</ele>
        <time>2022-08-16T09:42:54Z</time>
      </trkpt>
      <trkpt lat="45.77906" lon="6.63577">
        <ele>1549</ele>
        <time>2022-08-16T09:42:55Z</time>
      </trkpt>
      <trkpt lat="45.77907" lon="6.63579">
        <ele>1550</ele>
        <time>2022-08-16T09:42:56Z</time>
      </trkpt>
      <trkpt lat="45.77908" lon="6.63581">
        <ele>1551</ele>
        <time>2022-08-16T09:42:57Z</time>
      </trkpt>
      <trkpt lat="45.77909" lon="6.63583">
        <ele>1551</ele>
        <time>2022-08-16T09:42:58Z</time>
      </trkpt>
      <trkpt lat="45.7791" lon="6.63585">
        <ele>1551</ele>
        <time>2022-08-16T09:42:59Z</time>
      </trkpt>
      <trkpt lat="45.77911" lon="6.63587">
        <ele>1552</ele>
        <time>2022-08-16T09:43:00Z</time>
      </trkpt>
      <trkpt lat="45.77911" lon="6.63589">
        <ele>1552</ele>
        <time>2022-08-16T09:43:01Z</time>
      </trkpt>
      <trkpt lat="45.77912" lon="6.63591">
        <ele>1552</ele>
        <time>2022-08-16T09:43:02Z</time>
      </trkpt>
      <trkpt lat="45.77913" lon="6.63593">
        <ele>1551</ele>
        <time>2022-08-16T09:43:03Z</time>
      </trkpt>
      <trkpt lat="45.77914" lon="6.63595">
        <ele>1551</ele>
        <time>2022-08-16T09:43:04Z</time>
      </trkpt>
      <trkpt lat="45.77914" lon="6.63596">
        <ele>1551</ele>
        <time>2022-08-16T09:43:05Z</time>
      </trkpt>
      <trkpt lat="45.77915" lon="6.63598">
        <ele>1551</ele>
        <time>2022-08-16T09:43:06Z</time>
      </trkpt>
      <trkpt lat="45.77916" lon="6.636">
        <ele>1552</ele>
        <time>2022-08-16T09:43:07Z</time>
      </trkpt>
      <trkpt lat="45.77917" lon="6.63602">
        <ele>1552</ele>
        <time>2022-08-16T09:43:08Z</time>
      </trkpt>
      <trkpt lat="45.77918" lon="6.63605">
        <ele>1552</ele>
        <time>2022-08-16T09:43:09Z</time>
      </trkpt>
      <trkpt lat="45.77919" lon="6.63607">
        <ele>1552</ele>
        <time>2022-08-16T09:43:10Z</time>
      </trkpt>
      <trkpt lat="45.7792" lon="6.63609">
        <ele>1552</ele>
        <time>2022-08-16T09:43:11Z</time>
      </trkpt>
      <trkpt lat="45.77921" lon="6.63611">
        <ele>1552</ele>
        <time>2022-08-16T09:43:12Z</time>
      </trkpt>
      <trkpt lat="45.77922" lon="6.63613">
        <ele>1552</ele>
        <time>2022-08-16T09:43:13Z</time>
      </trkpt>
      <trkpt lat="45.77923" lon="6.63614">
        <ele>1552</ele>
        <time>2022-08-16T09:43:14Z</time>
      </trkpt>
      <trkpt lat="45.77924" lon="6.63616">
        <ele>1552</ele>
        <time>2022-08-16T09:43:15Z</time>
      </trkpt>
      <trkpt lat="45.77925" lon="6.63619">
        <ele>1552</ele>
        <time>2022-08-16T09:43:16Z</time>
      </trkpt>
      <trkpt lat="45.77926" lon="6.63621">
        <ele>1553</ele>
        <time>2022-08-16T09:43:17Z</time>
      </trkpt>
      <trkpt lat="45.77927" lon="6.63623">
        <ele>1553</ele>
        <time>2022-08-16T09:43:18Z</time>
      </trkpt>
      <trkpt lat="45.77927" lon="6.63625">
        <ele>1553</ele>
        <time>2022-08-16T09:43:19Z</time>
      </trkpt>
      <trkpt lat="45.77928" lon="6.63628">
        <ele>1554</ele>
        <time>2022-08-16T09:43:20Z</time>
      </trkpt>
      <trkpt lat="45.77929" lon="6.63629">
        <ele>1554</ele>
        <time>2022-08-16T09:43:21Z</time>
      </trkpt>
      <trkpt lat="45.77929" lon="6.63632">
        <ele>1554</ele>
        <time>2022-08-16T09:43:22Z</time>
      </trkpt>
      <trkpt lat="45.7793" lon="6.63634">
        <ele>1554</ele>
        <time>2022-08-16T09:43:23Z</time>
      </trkpt>
      <trkpt lat="45.7793" lon="6.63637">
        <ele>1554</ele>
        <time>2022-08-16T09:43:24Z</time>
      </trkpt>
      <trkpt lat="45.77931" lon="6.63639">
        <ele>1554</ele>
        <time>2022-08-16T09:43:25Z</time>
      </trkpt>
      <trkpt lat="45.77932" lon="6.63641">
        <ele>1554</ele>
        <time>2022-08-16T09:43:26Z</time>
      </trkpt>
      <trkpt lat="45.77933" lon="6.63643">
        <ele>1555</ele>
        <time>2022-08-16T09:43:27Z</time>
      </trkpt>
      <trkpt lat="45.77934" lon="6.63646">
        <ele>1555</ele>
        <time>2022-08-16T09:43:28Z</time>
      </trkpt>
      <trkpt lat="45.77935" lon="6.63648">
        <ele>1555</ele>
        <time>2022-08-16T09:43:29Z</time>
      </trkpt>
      <trkpt lat="45.77936" lon="6.63651">
        <ele>1555</ele>
        <time>2022-08-16T09:43:30Z</time>
      </trkpt>
      <trkpt lat="45.77937" lon="6.63653">
        <ele>1556</ele>
        <time>2022-08-16T09:43:31Z</time>
      </trkpt>
      <trkpt lat="45.77938" lon="6.63656">
        <ele>1556</ele>
        <time>2022-08-16T09:43:32Z</time>
      </trkpt>
      <trkpt lat="45.77938" lon="6.63658">
        <ele>1556</ele>
        <time>2022-08-16T09:43:33Z</time>
      </trkpt>
      <trkpt lat="45.77939" lon="6.63661">
        <ele>1557</ele>
        <time>2022-08-16T09:43:34Z</time>
      </trkpt>
      <trkpt lat="45.77939" lon="6.63664">
        <ele>1557</ele>
        <time>2022-08-16T09:43:35Z</time>
      </trkpt>
      <trkpt lat="45.7794" lon="6.63665">
        <ele>1557</ele>
        <time>2022-08-16T09:43:36Z</time>
      </trkpt>
      <trkpt lat="45.7794" lon="6.63667">
        <ele>1557</ele>
        <time>2022-08-16T09:43:37Z</time>
      </trkpt>
      <trkpt lat="45.77941" lon="6.6367">
        <ele>1556</ele>
        <time>2022-08-16T09:43:38Z</time>
      </trkpt>
      <trkpt lat="45.77941" lon="6.63672">
        <ele>1556</ele>
        <time>2022-08-16T09:43:39Z</time>
      </trkpt>
      <trkpt lat="45.77941" lon="6.63675">
        <ele>1556</ele>
        <time>2022-08-16T09:43:40Z</time>
      </trkpt>
      <trkpt lat="45.77942" lon="6.63677">
        <ele>1557</ele>
        <time>2022-08-16T09:43:41Z</time>
      </trkpt>
      <trkpt lat="45.77942" lon="6.6368">
        <ele>1557</ele>
        <time>2022-08-16T09:43:42Z</time>
      </trkpt>
      <trkpt lat="45.77943" lon="6.63682">
        <ele>1558</ele>
        <time>2022-08-16T09:43:43Z</time>
      </trkpt>
      <trkpt lat="45.77943" lon="6.63684">
        <ele>1557</ele>
        <time>2022-08-16T09:43:44Z</time>
      </trkpt>
      <trkpt lat="45.77943" lon="6.63686">
        <ele>1557</ele>
        <time>2022-08-16T09:43:45Z</time>
      </trkpt>
      <trkpt lat="45.77944" lon="6.63689">
        <ele>1557</ele>
        <time>2022-08-16T09:43:46Z</time>
      </trkpt>
      <trkpt lat="45.77945" lon="6.63692">
        <ele>1557</ele>
        <time>2022-08-16T09:43:47Z</time>
      </trkpt>
      <trkpt lat="45.77946" lon="6.63694">
        <ele>1558</ele>
        <time>2022-08-16T09:43:48Z</time>
      </trkpt>
      <trkpt lat="45.77947" lon="6.63696">
        <ele>1558</ele>
        <time>2022-08-16T09:43:49Z</time>
      </trkpt>
      <trkpt lat="45.77947" lon="6.63698">
        <ele>1558</ele>
        <time>2022-08-16T09:43:50Z</time>
      </trkpt>
      <trkpt lat="45.77949" lon="6.637">
        <ele>1559</ele>
        <time>2022-08-16T09:43:51Z</time>
      </trkpt>
      <trkpt lat="45.77949" lon="6.63702">
        <ele>1559</ele>
        <time>2022-08-16T09:43:52Z</time>
      </trkpt>
      <trkpt lat="45.7795" lon="6.63704">
        <ele>1560</ele>
        <time>2022-08-16T09:43:53Z</time>
      </trkpt>
      <trkpt lat="45.77951" lon="6.63707">
        <ele>1559</ele>
        <time>2022-08-16T09:43:54Z</time>
      </trkpt>
      <trkpt lat="45.77951" lon="6.63709">
        <ele>1559</ele>
        <time>2022-08-16T09:43:55Z</time>
      </trkpt>
      <trkpt lat="45.77951" lon="6.63711">
        <ele>1559</ele>
        <time>2022-08-16T09:43:56Z</time>
      </trkpt>
      <trkpt lat="45.77952" lon="6.63712">
        <ele>1560</ele>
        <time>2022-08-16T09:43:57Z</time>
      </trkpt>
      <trkpt lat="45.77952" lon="6.63714">
        <ele>1560</ele>
        <time>2022-08-16T09:43:58Z</time>
      </trkpt>
      <trkpt lat="45.77953" lon="6.63716">
        <ele>1560</ele>
        <time>2022-08-16T09:43:59Z</time>
      </trkpt>
      <trkpt lat="45.77954" lon="6.63718">
        <ele>1561</ele>
        <time>2022-08-16T09:44:00Z</time>
      </trkpt>
      <trkpt lat="45.77955" lon="6.6372">
        <ele>1561</ele>
        <time>2022-08-16T09:44:01Z</time>
      </trkpt>
      <trkpt lat="45.77956" lon="6.63722">
        <ele>1561</ele>
        <time>2022-08-16T09:44:02Z</time>
      </trkpt>
      <trkpt lat="45.77957" lon="6.63724">
        <ele>1561</ele>
        <time>2022-08-16T09:44:03Z</time>
      </trkpt>
      <trkpt lat="45.77957" lon="6.63726">
        <ele>1561</ele>
        <time>2022-08-16T09:44:04Z</time>
      </trkpt>
      <trkpt lat="45.77958" lon="6.63728">
        <ele>1562</ele>
        <time>2022-08-16T09:44:05Z</time>
      </trkpt>
      <trkpt lat="45.77959" lon="6.6373">
        <ele>1562</ele>
        <time>2022-08-16T09:44:06Z</time>
      </trkpt>
      <trkpt lat="45.7796" lon="6.63732">
        <ele>1562</ele>
        <time>2022-08-16T09:44:07Z</time>
      </trkpt>
      <trkpt lat="45.7796" lon="6.63735">
        <ele>1562</ele>
        <time>2022-08-16T09:44:08Z</time>
      </trkpt>
      <trkpt lat="45.77961" lon="6.63737">
        <ele>1562</ele>
        <time>2022-08-16T09:44:09Z</time>
      </trkpt>
      <trkpt lat="45.77962" lon="6.6374">
        <ele>1562</ele>
        <time>2022-08-16T09:44:10Z</time>
      </trkpt>
      <trkpt lat="45.77962" lon="6.63742">
        <ele>1562</ele>
        <time>2022-08-16T09:44:11Z</time>
      </trkpt>
      <trkpt lat="45.77963" lon="6.63744">
        <ele>1562</ele>
        <time>2022-08-16T09:44:12Z</time>
      </trkpt>
      <trkpt lat="45.77964" lon="6.63747">
        <ele>1563</ele>
        <time>2022-08-16T09:44:13Z</time>
      </trkpt>
      <trkpt lat="45.77965" lon="6.63749">
        <ele>1564</ele>
        <time>2022-08-16T09:44:14Z</time>
      </trkpt>
      <trkpt lat="45.77965" lon="6.63751">
        <ele>1564</ele>
        <time>2022-08-16T09:44:15Z</time>
      </trkpt>
      <trkpt lat="45.77966" lon="6.63753">
        <ele>1564</ele>
        <time>2022-08-16T09:44:16Z</time>
      </trkpt>
      <trkpt lat="45.77966" lon="6.63756">
        <ele>1564</ele>
        <time>2022-08-16T09:44:17Z</time>
      </trkpt>
      <trkpt lat="45.77966" lon="6.63758">
        <ele>1564</ele>
        <time>2022-08-16T09:44:18Z</time>
      </trkpt>
      <trkpt lat="45.77967" lon="6.6376">
        <ele>1565</ele>
        <time>2022-08-16T09:44:19Z</time>
      </trkpt>
      <trkpt lat="45.77967" lon="6.63762">
        <ele>1565</ele>
        <time>2022-08-16T09:44:20Z</time>
      </trkpt>
      <trkpt lat="45.77967" lon="6.63764">
        <ele>1566</ele>
        <time>2022-08-16T09:44:21Z</time>
      </trkpt>
      <trkpt lat="45.77967" lon="6.63767">
        <ele>1566</ele>
        <time>2022-08-16T09:44:22Z</time>
      </trkpt>
      <trkpt lat="45.77967" lon="6.63769">
        <ele>1566</ele>
        <time>2022-08-16T09:44:23Z</time>
      </trkpt>
      <trkpt lat="45.77968" lon="6.63771">
        <ele>1566</ele>
        <time>2022-08-16T09:44:24Z</time>
      </trkpt>
      <trkpt lat="45.77967" lon="6.63772">
        <ele>1567</ele>
        <time>2022-08-16T09:44:25Z</time>
      </trkpt>
      <trkpt lat="45.77967" lon="6.63774">
        <ele>1567</ele>
        <time>2022-08-16T09:44:26Z</time>
      </trkpt>
      <trkpt lat="45.77968" lon="6.63777">
        <ele>1567</ele>
        <time>2022-08-16T09:44:27Z</time>
      </trkpt>
      <trkpt lat="45.77967" lon="6.63779">
        <ele>1566</ele>
        <time>2022-08-16T09:44:28Z</time>
      </trkpt>
      <trkpt lat="45.77968" lon="6.63781">
        <ele>1566</ele>
        <time>2022-08-16T09:44:29Z</time>
      </trkpt>
      <trkpt lat="45.77968" lon="6.63782">
        <ele>1566</ele>
        <time>2022-08-16T09:44:30Z</time>
      </trkpt>
      <trkpt lat="45.77968" lon="6.63785">
        <ele>1566</ele>
        <time>2022-08-16T09:44:31Z</time>
      </trkpt>
      <trkpt lat="45.77968" lon="6.63787">
        <ele>1566</ele>
        <time>2022-08-16T09:44:32Z</time>
      </trkpt>
      <trkpt lat="45.77968" lon="6.6379">
        <ele>1566</ele>
        <time>2022-08-16T09:44:33Z</time>
      </trkpt>
      <trkpt lat="45.77969" lon="6.63792">
        <ele>1566</ele>
        <time>2022-08-16T09:44:34Z</time>
      </trkpt>
      <trkpt lat="45.77969" lon="6.63794">
        <ele>1566</ele>
        <time>2022-08-16T09:44:35Z</time>
      </trkpt>
      <trkpt lat="45.77969" lon="6.63796">
        <ele>1566</ele>
        <time>2022-08-16T09:44:36Z</time>
      </trkpt>
      <trkpt lat="45.77969" lon="6.63799">
        <ele>1567</ele>
        <time>2022-08-16T09:44:37Z</time>
      </trkpt>
      <trkpt lat="45.77969" lon="6.63801">
        <ele>1567</ele>
        <time>2022-08-16T09:44:38Z</time>
      </trkpt>
      <trkpt lat="45.77969" lon="6.63804">
        <ele>1567</ele>
        <time>2022-08-16T09:44:39Z</time>
      </trkpt>
      <trkpt lat="45.77969" lon="6.63806">
        <ele>1566</ele>
        <time>2022-08-16T09:44:40Z</time>
      </trkpt>
      <trkpt lat="45.7797" lon="6.63809">
        <ele>1567</ele>
        <time>2022-08-16T09:44:41Z</time>
      </trkpt>
      <trkpt lat="45.7797" lon="6.63812">
        <ele>1567</ele>
        <time>2022-08-16T09:44:42Z</time>
      </trkpt>
      <trkpt lat="45.7797" lon="6.63814">
        <ele>1567</ele>
        <time>2022-08-16T09:44:43Z</time>
      </trkpt>
      <trkpt lat="45.77971" lon="6.63817">
        <ele>1567</ele>
        <time>2022-08-16T09:44:44Z</time>
      </trkpt>
      <trkpt lat="45.77971" lon="6.63819">
        <ele>1567</ele>
        <time>2022-08-16T09:44:45Z</time>
      </trkpt>
      <trkpt lat="45.77971" lon="6.63822">
        <ele>1568</ele>
        <time>2022-08-16T09:44:46Z</time>
      </trkpt>
      <trkpt lat="45.77971" lon="6.63824">
        <ele>1568</ele>
        <time>2022-08-16T09:44:47Z</time>
      </trkpt>
      <trkpt lat="45.77972" lon="6.63827">
        <ele>1568</ele>
        <time>2022-08-16T09:44:48Z</time>
      </trkpt>
      <trkpt lat="45.77972" lon="6.6383">
        <ele>1568</ele>
        <time>2022-08-16T09:44:49Z</time>
      </trkpt>
      <trkpt lat="45.77973" lon="6.63832">
        <ele>1568</ele>
        <time>2022-08-16T09:44:50Z</time>
      </trkpt>
      <trkpt lat="45.77974" lon="6.63834">
        <ele>1568</ele>
        <time>2022-08-16T09:44:51Z</time>
      </trkpt>
      <trkpt lat="45.77974" lon="6.63837">
        <ele>1569</ele>
        <time>2022-08-16T09:44:52Z</time>
      </trkpt>
      <trkpt lat="45.77975" lon="6.63839">
        <ele>1569</ele>
        <time>2022-08-16T09:44:53Z</time>
      </trkpt>
      <trkpt lat="45.77975" lon="6.63841">
        <ele>1569</ele>
        <time>2022-08-16T09:44:54Z</time>
      </trkpt>
      <trkpt lat="45.77976" lon="6.63843">
        <ele>1569</ele>
        <time>2022-08-16T09:44:55Z</time>
      </trkpt>
      <trkpt lat="45.77977" lon="6.63846">
        <ele>1570</ele>
        <time>2022-08-16T09:44:56Z</time>
      </trkpt>
      <trkpt lat="45.77977" lon="6.63849">
        <ele>1570</ele>
        <time>2022-08-16T09:44:57Z</time>
      </trkpt>
      <trkpt lat="45.77978" lon="6.63851">
        <ele>1571</ele>
        <time>2022-08-16T09:44:58Z</time>
      </trkpt>
      <trkpt lat="45.77978" lon="6.63853">
        <ele>1570</ele>
        <time>2022-08-16T09:44:59Z</time>
      </trkpt>
      <trkpt lat="45.77979" lon="6.63855">
        <ele>1570</ele>
        <time>2022-08-16T09:45:00Z</time>
      </trkpt>
      <trkpt lat="45.7798" lon="6.63857">
        <ele>1570</ele>
        <time>2022-08-16T09:45:01Z</time>
      </trkpt>
      <trkpt lat="45.77982" lon="6.63859">
        <ele>1569</ele>
        <time>2022-08-16T09:45:02Z</time>
      </trkpt>
      <trkpt lat="45.77983" lon="6.63861">
        <ele>1569</ele>
        <time>2022-08-16T09:45:03Z</time>
      </trkpt>
      <trkpt lat="45.77984" lon="6.63863">
        <ele>1569</ele>
        <time>2022-08-16T09:45:04Z</time>
      </trkpt>
      <trkpt lat="45.77985" lon="6.63866">
        <ele>1569</ele>
        <time>2022-08-16T09:45:05Z</time>
      </trkpt>
      <trkpt lat="45.77986" lon="6.63868">
        <ele>1570</ele>
        <time>2022-08-16T09:45:06Z</time>
      </trkpt>
      <trkpt lat="45.77988" lon="6.6387">
        <ele>1571</ele>
        <time>2022-08-16T09:45:07Z</time>
      </trkpt>
      <trkpt lat="45.7799" lon="6.63873">
        <ele>1571</ele>
        <time>2022-08-16T09:45:08Z</time>
      </trkpt>
      <trkpt lat="45.77991" lon="6.63875">
        <ele>1571</ele>
        <time>2022-08-16T09:45:09Z</time>
      </trkpt>
      <trkpt lat="45.77993" lon="6.63876">
        <ele>1571</ele>
        <time>2022-08-16T09:45:10Z</time>
      </trkpt>
      <trkpt lat="45.77995" lon="6.63877">
        <ele>1572</ele>
        <time>2022-08-16T09:45:11Z</time>
      </trkpt>
      <trkpt lat="45.77997" lon="6.63879">
        <ele>1572</ele>
        <time>2022-08-16T09:45:12Z</time>
      </trkpt>
      <trkpt lat="45.77999" lon="6.6388">
        <ele>1572</ele>
        <time>2022-08-16T09:45:13Z</time>
      </trkpt>
      <trkpt lat="45.78001" lon="6.63882">
        <ele>1572</ele>
        <time>2022-08-16T09:45:14Z</time>
      </trkpt>
      <trkpt lat="45.78002" lon="6.63883">
        <ele>1572</ele>
        <time>2022-08-16T09:45:15Z</time>
      </trkpt>
      <trkpt lat="45.78004" lon="6.63885">
        <ele>1573</ele>
        <time>2022-08-16T09:45:16Z</time>
      </trkpt>
      <trkpt lat="45.78006" lon="6.63885">
        <ele>1573</ele>
        <time>2022-08-16T09:45:17Z</time>
      </trkpt>
      <trkpt lat="45.78008" lon="6.63886">
        <ele>1573</ele>
        <time>2022-08-16T09:45:18Z</time>
      </trkpt>
      <trkpt lat="45.7801" lon="6.63887">
        <ele>1574</ele>
        <time>2022-08-16T09:45:19Z</time>
      </trkpt>
      <trkpt lat="45.78011" lon="6.63888">
        <ele>1573</ele>
        <time>2022-08-16T09:45:20Z</time>
      </trkpt>
      <trkpt lat="45.78013" lon="6.6389">
        <ele>1573</ele>
        <time>2022-08-16T09:45:21Z</time>
      </trkpt>
      <trkpt lat="45.78015" lon="6.6389">
        <ele>1573</ele>
        <time>2022-08-16T09:45:22Z</time>
      </trkpt>
      <trkpt lat="45.78017" lon="6.63891">
        <ele>1573</ele>
        <time>2022-08-16T09:45:23Z</time>
      </trkpt>
      <trkpt lat="45.78018" lon="6.63892">
        <ele>1573</ele>
        <time>2022-08-16T09:45:24Z</time>
      </trkpt>
      <trkpt lat="45.7802" lon="6.63893">
        <ele>1573</ele>
        <time>2022-08-16T09:45:25Z</time>
      </trkpt>
      <trkpt lat="45.78022" lon="6.63895">
        <ele>1573</ele>
        <time>2022-08-16T09:45:26Z</time>
      </trkpt>
      <trkpt lat="45.78024" lon="6.63895">
        <ele>1573</ele>
        <time>2022-08-16T09:45:27Z</time>
      </trkpt>
      <trkpt lat="45.78025" lon="6.63897">
        <ele>1573</ele>
        <time>2022-08-16T09:45:28Z</time>
      </trkpt>
      <trkpt lat="45.78027" lon="6.63897">
        <ele>1573</ele>
        <time>2022-08-16T09:45:29Z</time>
      </trkpt>
      <trkpt lat="45.78029" lon="6.63898">
        <ele>1573</ele>
        <time>2022-08-16T09:45:30Z</time>
      </trkpt>
      <trkpt lat="45.7803" lon="6.63899">
        <ele>1573</ele>
        <time>2022-08-16T09:45:31Z</time>
      </trkpt>
      <trkpt lat="45.78032" lon="6.639">
        <ele>1573</ele>
        <time>2022-08-16T09:45:32Z</time>
      </trkpt>
      <trkpt lat="45.78033" lon="6.63901">
        <ele>1573</ele>
        <time>2022-08-16T09:45:33Z</time>
      </trkpt>
      <trkpt lat="45.78035" lon="6.63903">
        <ele>1573</ele>
        <time>2022-08-16T09:45:34Z</time>
      </trkpt>
      <trkpt lat="45.78036" lon="6.63904">
        <ele>1573</ele>
        <time>2022-08-16T09:45:35Z</time>
      </trkpt>
      <trkpt lat="45.78038" lon="6.63905">
        <ele>1573</ele>
        <time>2022-08-16T09:45:36Z</time>
      </trkpt>
      <trkpt lat="45.78039" lon="6.63906">
        <ele>1573</ele>
        <time>2022-08-16T09:45:37Z</time>
      </trkpt>
      <trkpt lat="45.78041" lon="6.63907">
        <ele>1574</ele>
        <time>2022-08-16T09:45:38Z</time>
      </trkpt>
      <trkpt lat="45.78042" lon="6.63908">
        <ele>1574</ele>
        <time>2022-08-16T09:45:39Z</time>
      </trkpt>
      <trkpt lat="45.78044" lon="6.63909">
        <ele>1575</ele>
        <time>2022-08-16T09:45:40Z</time>
      </trkpt>
      <trkpt lat="45.78045" lon="6.6391">
        <ele>1575</ele>
        <time>2022-08-16T09:45:41Z</time>
      </trkpt>
      <trkpt lat="45.78047" lon="6.63911">
        <ele>1575</ele>
        <time>2022-08-16T09:45:42Z</time>
      </trkpt>
      <trkpt lat="45.78048" lon="6.63911">
        <ele>1576</ele>
        <time>2022-08-16T09:45:43Z</time>
      </trkpt>
      <trkpt lat="45.78049" lon="6.63913">
        <ele>1576</ele>
        <time>2022-08-16T09:45:44Z</time>
      </trkpt>
      <trkpt lat="45.7805" lon="6.63914">
        <ele>1576</ele>
        <time>2022-08-16T09:45:45Z</time>
      </trkpt>
      <trkpt lat="45.78052" lon="6.63915">
        <ele>1577</ele>
        <time>2022-08-16T09:45:46Z</time>
      </trkpt>
      <trkpt lat="45.78053" lon="6.63917">
        <ele>1577</ele>
        <time>2022-08-16T09:45:47Z</time>
      </trkpt>
      <trkpt lat="45.78054" lon="6.63918">
        <ele>1578</ele>
        <time>2022-08-16T09:45:48Z</time>
      </trkpt>
      <trkpt lat="45.78055" lon="6.63919">
        <ele>1578</ele>
        <time>2022-08-16T09:45:49Z</time>
      </trkpt>
      <trkpt lat="45.78057" lon="6.6392">
        <ele>1578</ele>
        <time>2022-08-16T09:45:50Z</time>
      </trkpt>
      <trkpt lat="45.78058" lon="6.63921">
        <ele>1579</ele>
        <time>2022-08-16T09:45:51Z</time>
      </trkpt>
      <trkpt lat="45.7806" lon="6.63922">
        <ele>1579</ele>
        <time>2022-08-16T09:45:52Z</time>
      </trkpt>
      <trkpt lat="45.78061" lon="6.63923">
        <ele>1579</ele>
        <time>2022-08-16T09:45:53Z</time>
      </trkpt>
      <trkpt lat="45.78063" lon="6.63925">
        <ele>1579</ele>
        <time>2022-08-16T09:45:54Z</time>
      </trkpt>
      <trkpt lat="45.78064" lon="6.63926">
        <ele>1579</ele>
        <time>2022-08-16T09:45:55Z</time>
      </trkpt>
      <trkpt lat="45.78066" lon="6.63928">
        <ele>1579</ele>
        <time>2022-08-16T09:45:56Z</time>
      </trkpt>
      <trkpt lat="45.78067" lon="6.63929">
        <ele>1580</ele>
        <time>2022-08-16T09:45:57Z</time>
      </trkpt>
      <trkpt lat="45.78069" lon="6.6393">
        <ele>1580</ele>
        <time>2022-08-16T09:45:58Z</time>
      </trkpt>
      <trkpt lat="45.78071" lon="6.63932">
        <ele>1580</ele>
        <time>2022-08-16T09:45:59Z</time>
      </trkpt>
      <trkpt lat="45.78072" lon="6.63934">
        <ele>1580</ele>
        <time>2022-08-16T09:46:00Z</time>
      </trkpt>
      <trkpt lat="45.78073" lon="6.63935">
        <ele>1580</ele>
        <time>2022-08-16T09:46:01Z</time>
      </trkpt>
      <trkpt lat="45.78075" lon="6.63936">
        <ele>1579</ele>
        <time>2022-08-16T09:46:02Z</time>
      </trkpt>
      <trkpt lat="45.78076" lon="6.63938">
        <ele>1579</ele>
        <time>2022-08-16T09:46:03Z</time>
      </trkpt>
      <trkpt lat="45.78077" lon="6.6394">
        <ele>1580</ele>
        <time>2022-08-16T09:46:04Z</time>
      </trkpt>
      <trkpt lat="45.78078" lon="6.63942">
        <ele>1580</ele>
        <time>2022-08-16T09:46:05Z</time>
      </trkpt>
      <trkpt lat="45.78079" lon="6.63943">
        <ele>1580</ele>
        <time>2022-08-16T09:46:06Z</time>
      </trkpt>
      <trkpt lat="45.7808" lon="6.63944">
        <ele>1579</ele>
        <time>2022-08-16T09:46:07Z</time>
      </trkpt>
      <trkpt lat="45.78081" lon="6.63946">
        <ele>1579</ele>
        <time>2022-08-16T09:46:08Z</time>
      </trkpt>
      <trkpt lat="45.78082" lon="6.63948">
        <ele>1579</ele>
        <time>2022-08-16T09:46:09Z</time>
      </trkpt>
      <trkpt lat="45.78083" lon="6.63949">
        <ele>1579</ele>
        <time>2022-08-16T09:46:10Z</time>
      </trkpt>
      <trkpt lat="45.78084" lon="6.6395">
        <ele>1580</ele>
        <time>2022-08-16T09:46:11Z</time>
      </trkpt>
      <trkpt lat="45.78085" lon="6.63952">
        <ele>1580</ele>
        <time>2022-08-16T09:46:12Z</time>
      </trkpt>
      <trkpt lat="45.78087" lon="6.63953">
        <ele>1581</ele>
        <time>2022-08-16T09:46:13Z</time>
      </trkpt>
      <trkpt lat="45.78088" lon="6.63954">
        <ele>1581</ele>
        <time>2022-08-16T09:46:14Z</time>
      </trkpt>
      <trkpt lat="45.78089" lon="6.63956">
        <ele>1581</ele>
        <time>2022-08-16T09:46:15Z</time>
      </trkpt>
      <trkpt lat="45.7809" lon="6.63959">
        <ele>1581</ele>
        <time>2022-08-16T09:46:16Z</time>
      </trkpt>
      <trkpt lat="45.78091" lon="6.6396">
        <ele>1581</ele>
        <time>2022-08-16T09:46:17Z</time>
      </trkpt>
      <trkpt lat="45.78092" lon="6.63962">
        <ele>1581</ele>
        <time>2022-08-16T09:46:18Z</time>
      </trkpt>
      <trkpt lat="45.78093" lon="6.63963">
        <ele>1581</ele>
        <time>2022-08-16T09:46:19Z</time>
      </trkpt>
      <trkpt lat="45.78094" lon="6.63965">
        <ele>1581</ele>
        <time>2022-08-16T09:46:20Z</time>
      </trkpt>
      <trkpt lat="45.78095" lon="6.63966">
        <ele>1582</ele>
        <time>2022-08-16T09:46:21Z</time>
      </trkpt>
      <trkpt lat="45.78096" lon="6.63968">
        <ele>1582</ele>
        <time>2022-08-16T09:46:22Z</time>
      </trkpt>
      <trkpt lat="45.78098" lon="6.6397">
        <ele>1581</ele>
        <time>2022-08-16T09:46:23Z</time>
      </trkpt>
      <trkpt lat="45.78099" lon="6.63972">
        <ele>1582</ele>
        <time>2022-08-16T09:46:24Z</time>
      </trkpt>
      <trkpt lat="45.781" lon="6.63974">
        <ele>1581</ele>
        <time>2022-08-16T09:46:25Z</time>
      </trkpt>
      <trkpt lat="45.78101" lon="6.63976">
        <ele>1581</ele>
        <time>2022-08-16T09:46:26Z</time>
      </trkpt>
      <trkpt lat="45.78102" lon="6.63977">
        <ele>1581</ele>
        <time>2022-08-16T09:46:27Z</time>
      </trkpt>
      <trkpt lat="45.78103" lon="6.63979">
        <ele>1581</ele>
        <time>2022-08-16T09:46:28Z</time>
      </trkpt>
      <trkpt lat="45.78104" lon="6.6398">
        <ele>1582</ele>
        <time>2022-08-16T09:46:29Z</time>
      </trkpt>
      <trkpt lat="45.78105" lon="6.63981">
        <ele>1582</ele>
        <time>2022-08-16T09:46:30Z</time>
      </trkpt>
      <trkpt lat="45.78106" lon="6.63982">
        <ele>1582</ele>
        <time>2022-08-16T09:46:31Z</time>
      </trkpt>
      <trkpt lat="45.78108" lon="6.63983">
        <ele>1583</ele>
        <time>2022-08-16T09:46:32Z</time>
      </trkpt>
      <trkpt lat="45.78109" lon="6.63985">
        <ele>1583</ele>
        <time>2022-08-16T09:46:33Z</time>
      </trkpt>
      <trkpt lat="45.7811" lon="6.63987">
        <ele>1584</ele>
        <time>2022-08-16T09:46:34Z</time>
      </trkpt>
      <trkpt lat="45.78112" lon="6.63989">
        <ele>1584</ele>
        <time>2022-08-16T09:46:35Z</time>
      </trkpt>
      <trkpt lat="45.78113" lon="6.6399">
        <ele>1584</ele>
        <time>2022-08-16T09:46:36Z</time>
      </trkpt>
      <trkpt lat="45.78115" lon="6.63992">
        <ele>1584</ele>
        <time>2022-08-16T09:46:37Z</time>
      </trkpt>
      <trkpt lat="45.78116" lon="6.63994">
        <ele>1584</ele>
        <time>2022-08-16T09:46:38Z</time>
      </trkpt>
      <trkpt lat="45.78118" lon="6.63996">
        <ele>1585</ele>
        <time>2022-08-16T09:46:39Z</time>
      </trkpt>
      <trkpt lat="45.7812" lon="6.63997">
        <ele>1585</ele>
        <time>2022-08-16T09:46:40Z</time>
      </trkpt>
      <trkpt lat="45.78121" lon="6.63999">
        <ele>1586</ele>
        <time>2022-08-16T09:46:41Z</time>
      </trkpt>
      <trkpt lat="45.78122" lon="6.64001">
        <ele>1586</ele>
        <time>2022-08-16T09:46:42Z</time>
      </trkpt>
      <trkpt lat="45.78123" lon="6.64002">
        <ele>1586</ele>
        <time>2022-08-16T09:46:43Z</time>
      </trkpt>
      <trkpt lat="45.78124" lon="6.64005">
        <ele>1587</ele>
        <time>2022-08-16T09:46:44Z</time>
      </trkpt>
      <trkpt lat="45.78125" lon="6.64007">
        <ele>1587</ele>
        <time>2022-08-16T09:46:45Z</time>
      </trkpt>
      <trkpt lat="45.78126" lon="6.6401">
        <ele>1586</ele>
        <time>2022-08-16T09:46:46Z</time>
      </trkpt>
      <trkpt lat="45.78126" lon="6.64013">
        <ele>1586</ele>
        <time>2022-08-16T09:46:47Z</time>
      </trkpt>
      <trkpt lat="45.78127" lon="6.64016">
        <ele>1586</ele>
        <time>2022-08-16T09:46:48Z</time>
      </trkpt>
      <trkpt lat="45.78127" lon="6.64018">
        <ele>1586</ele>
        <time>2022-08-16T09:46:49Z</time>
      </trkpt>
      <trkpt lat="45.78128" lon="6.64021">
        <ele>1587</ele>
        <time>2022-08-16T09:46:50Z</time>
      </trkpt>
      <trkpt lat="45.78128" lon="6.64024">
        <ele>1587</ele>
        <time>2022-08-16T09:46:51Z</time>
      </trkpt>
      <trkpt lat="45.78127" lon="6.64027">
        <ele>1587</ele>
        <time>2022-08-16T09:46:52Z</time>
      </trkpt>
      <trkpt lat="45.78127" lon="6.64029">
        <ele>1588</ele>
        <time>2022-08-16T09:46:53Z</time>
      </trkpt>
      <trkpt lat="45.78126" lon="6.64031">
        <ele>1588</ele>
        <time>2022-08-16T09:46:54Z</time>
      </trkpt>
      <trkpt lat="45.78125" lon="6.64033">
        <ele>1589</ele>
        <time>2022-08-16T09:46:55Z</time>
      </trkpt>
      <trkpt lat="45.78125" lon="6.64036">
        <ele>1589</ele>
        <time>2022-08-16T09:46:56Z</time>
      </trkpt>
      <trkpt lat="45.78124" lon="6.64037">
        <ele>1589</ele>
        <time>2022-08-16T09:46:57Z</time>
      </trkpt>
      <trkpt lat="45.78123" lon="6.64039">
        <ele>1590</ele>
        <time>2022-08-16T09:46:58Z</time>
      </trkpt>
      <trkpt lat="45.78123" lon="6.64041">
        <ele>1590</ele>
        <time>2022-08-16T09:46:59Z</time>
      </trkpt>
      <trkpt lat="45.78123" lon="6.64044">
        <ele>1590</ele>
        <time>2022-08-16T09:47:00Z</time>
      </trkpt>
      <trkpt lat="45.78123" lon="6.64046">
        <ele>1590</ele>
        <time>2022-08-16T09:47:01Z</time>
      </trkpt>
      <trkpt lat="45.78122" lon="6.64048">
        <ele>1591</ele>
        <time>2022-08-16T09:47:02Z</time>
      </trkpt>
      <trkpt lat="45.78122" lon="6.6405">
        <ele>1591</ele>
        <time>2022-08-16T09:47:03Z</time>
      </trkpt>
      <trkpt lat="45.78122" lon="6.64053">
        <ele>1591</ele>
        <time>2022-08-16T09:47:04Z</time>
      </trkpt>
      <trkpt lat="45.78122" lon="6.64055">
        <ele>1592</ele>
        <time>2022-08-16T09:47:05Z</time>
      </trkpt>
      <trkpt lat="45.78122" lon="6.64057">
        <ele>1592</ele>
        <time>2022-08-16T09:47:06Z</time>
      </trkpt>
      <trkpt lat="45.78121" lon="6.6406">
        <ele>1592</ele>
        <time>2022-08-16T09:47:07Z</time>
      </trkpt>
      <trkpt lat="45.78121" lon="6.64062">
        <ele>1593</ele>
        <time>2022-08-16T09:47:08Z</time>
      </trkpt>
      <trkpt lat="45.78121" lon="6.64065">
        <ele>1594</ele>
        <time>2022-08-16T09:47:09Z</time>
      </trkpt>
      <trkpt lat="45.78121" lon="6.64067">
        <ele>1595</ele>
        <time>2022-08-16T09:47:10Z</time>
      </trkpt>
      <trkpt lat="45.78121" lon="6.6407">
        <ele>1595</ele>
        <time>2022-08-16T09:47:11Z</time>
      </trkpt>
      <trkpt lat="45.78121" lon="6.64073">
        <ele>1595</ele>
        <time>2022-08-16T09:47:12Z</time>
      </trkpt>
      <trkpt lat="45.7812" lon="6.64075">
        <ele>1595</ele>
        <time>2022-08-16T09:47:13Z</time>
      </trkpt>
      <trkpt lat="45.7812" lon="6.64078">
        <ele>1596</ele>
        <time>2022-08-16T09:47:14Z</time>
      </trkpt>
      <trkpt lat="45.7812" lon="6.6408">
        <ele>1596</ele>
        <time>2022-08-16T09:47:15Z</time>
      </trkpt>
      <trkpt lat="45.7812" lon="6.64083">
        <ele>1597</ele>
        <time>2022-08-16T09:47:16Z</time>
      </trkpt>
      <trkpt lat="45.78121" lon="6.64086">
        <ele>1597</ele>
        <time>2022-08-16T09:47:17Z</time>
      </trkpt>
      <trkpt lat="45.78121" lon="6.64088">
        <ele>1597</ele>
        <time>2022-08-16T09:47:18Z</time>
      </trkpt>
      <trkpt lat="45.78121" lon="6.64091">
        <ele>1597</ele>
        <time>2022-08-16T09:47:19Z</time>
      </trkpt>
      <trkpt lat="45.78122" lon="6.64093">
        <ele>1597</ele>
        <time>2022-08-16T09:47:20Z</time>
      </trkpt>
      <trkpt lat="45.78122" lon="6.64096">
        <ele>1597</ele>
        <time>2022-08-16T09:47:21Z</time>
      </trkpt>
      <trkpt lat="45.78122" lon="6.641">
        <ele>1597</ele>
        <time>2022-08-16T09:47:22Z</time>
      </trkpt>
      <trkpt lat="45.78122" lon="6.64102">
        <ele>1597</ele>
        <time>2022-08-16T09:47:23Z</time>
      </trkpt>
      <trkpt lat="45.78122" lon="6.64105">
        <ele>1597</ele>
        <time>2022-08-16T09:47:24Z</time>
      </trkpt>
      <trkpt lat="45.78122" lon="6.64108">
        <ele>1597</ele>
        <time>2022-08-16T09:47:25Z</time>
      </trkpt>
      <trkpt lat="45.78122" lon="6.6411">
        <ele>1597</ele>
        <time>2022-08-16T09:47:26Z</time>
      </trkpt>
      <trkpt lat="45.78122" lon="6.64112">
        <ele>1598</ele>
        <time>2022-08-16T09:47:27Z</time>
      </trkpt>
      <trkpt lat="45.78122" lon="6.64115">
        <ele>1598</ele>
        <time>2022-08-16T09:47:28Z</time>
      </trkpt>
      <trkpt lat="45.78122" lon="6.64118">
        <ele>1598</ele>
        <time>2022-08-16T09:47:29Z</time>
      </trkpt>
      <trkpt lat="45.78123" lon="6.6412">
        <ele>1598</ele>
        <time>2022-08-16T09:47:30Z</time>
      </trkpt>
      <trkpt lat="45.78123" lon="6.64123">
        <ele>1598</ele>
        <time>2022-08-16T09:47:31Z</time>
      </trkpt>
      <trkpt lat="45.78123" lon="6.64126">
        <ele>1598</ele>
        <time>2022-08-16T09:47:32Z</time>
      </trkpt>
      <trkpt lat="45.78123" lon="6.64129">
        <ele>1599</ele>
        <time>2022-08-16T09:47:33Z</time>
      </trkpt>
      <trkpt lat="45.78123" lon="6.64131">
        <ele>1599</ele>
        <time>2022-08-16T09:47:34Z</time>
      </trkpt>
      <trkpt lat="45.78123" lon="6.64134">
        <ele>1599</ele>
        <time>2022-08-16T09:47:35Z</time>
      </trkpt>
      <trkpt lat="45.78123" lon="6.64136">
        <ele>1599</ele>
        <time>2022-08-16T09:47:36Z</time>
      </trkpt>
      <trkpt lat="45.78124" lon="6.64138">
        <ele>1599</ele>
        <time>2022-08-16T09:47:37Z</time>
      </trkpt>
      <trkpt lat="45.78124" lon="6.64141">
        <ele>1599</ele>
        <time>2022-08-16T09:47:38Z</time>
      </trkpt>
      <trkpt lat="45.78124" lon="6.64143">
        <ele>1600</ele>
        <time>2022-08-16T09:47:39Z</time>
      </trkpt>
      <trkpt lat="45.78124" lon="6.64145">
        <ele>1600</ele>
        <time>2022-08-16T09:47:40Z</time>
      </trkpt>
      <trkpt lat="45.78124" lon="6.64148">
        <ele>1600</ele>
        <time>2022-08-16T09:47:41Z</time>
      </trkpt>
      <trkpt lat="45.78125" lon="6.6415">
        <ele>1600</ele>
        <time>2022-08-16T09:47:42Z</time>
      </trkpt>
      <trkpt lat="45.78126" lon="6.64152">
        <ele>1600</ele>
        <time>2022-08-16T09:47:43Z</time>
      </trkpt>
      <trkpt lat="45.78126" lon="6.64154">
        <ele>1600</ele>
        <time>2022-08-16T09:47:44Z</time>
      </trkpt>
      <trkpt lat="45.78126" lon="6.64156">
        <ele>1600</ele>
        <time>2022-08-16T09:47:45Z</time>
      </trkpt>
      <trkpt lat="45.78127" lon="6.64158">
        <ele>1600</ele>
        <time>2022-08-16T09:47:46Z</time>
      </trkpt>
      <trkpt lat="45.78128" lon="6.6416">
        <ele>1600</ele>
        <time>2022-08-16T09:47:47Z</time>
      </trkpt>
      <trkpt lat="45.78129" lon="6.64162">
        <ele>1600</ele>
        <time>2022-08-16T09:47:48Z</time>
      </trkpt>
      <trkpt lat="45.7813" lon="6.64164">
        <ele>1600</ele>
        <time>2022-08-16T09:47:49Z</time>
      </trkpt>
      <trkpt lat="45.78131" lon="6.64166">
        <ele>1600</ele>
        <time>2022-08-16T09:47:50Z</time>
      </trkpt>
      <trkpt lat="45.78132" lon="6.64167">
        <ele>1600</ele>
        <time>2022-08-16T09:47:51Z</time>
      </trkpt>
      <trkpt lat="45.78133" lon="6.64169">
        <ele>1599</ele>
        <time>2022-08-16T09:47:52Z</time>
      </trkpt>
      <trkpt lat="45.78134" lon="6.64171">
        <ele>1599</ele>
        <time>2022-08-16T09:47:53Z</time>
      </trkpt>
      <trkpt lat="45.78134" lon="6.64173">
        <ele>1599</ele>
        <time>2022-08-16T09:47:54Z</time>
      </trkpt>
      <trkpt lat="45.78135" lon="6.64175">
        <ele>1598</ele>
        <time>2022-08-16T09:47:55Z</time>
      </trkpt>
      <trkpt lat="45.78136" lon="6.64177">
        <ele>1599</ele>
        <time>2022-08-16T09:47:56Z</time>
      </trkpt>
      <trkpt lat="45.78137" lon="6.64179">
        <ele>1599</ele>
        <time>2022-08-16T09:47:57Z</time>
      </trkpt>
      <trkpt lat="45.78137" lon="6.64181">
        <ele>1600</ele>
        <time>2022-08-16T09:47:58Z</time>
      </trkpt>
      <trkpt lat="45.78138" lon="6.64184">
        <ele>1599</ele>
        <time>2022-08-16T09:47:59Z</time>
      </trkpt>
      <trkpt lat="45.78139" lon="6.64186">
        <ele>1600</ele>
        <time>2022-08-16T09:48:00Z</time>
      </trkpt>
      <trkpt lat="45.7814" lon="6.64188">
        <ele>1600</ele>
        <time>2022-08-16T09:48:01Z</time>
      </trkpt>
      <trkpt lat="45.78141" lon="6.6419">
        <ele>1600</ele>
        <time>2022-08-16T09:48:02Z</time>
      </trkpt>
      <trkpt lat="45.78142" lon="6.64193">
        <ele>1600</ele>
        <time>2022-08-16T09:48:03Z</time>
      </trkpt>
      <trkpt lat="45.78143" lon="6.64195">
        <ele>1601</ele>
        <time>2022-08-16T09:48:04Z</time>
      </trkpt>
      <trkpt lat="45.78145" lon="6.64197">
        <ele>1601</ele>
        <time>2022-08-16T09:48:05Z</time>
      </trkpt>
      <trkpt lat="45.78146" lon="6.64199">
        <ele>1601</ele>
        <time>2022-08-16T09:48:06Z</time>
      </trkpt>
      <trkpt lat="45.78147" lon="6.642">
        <ele>1602</ele>
        <time>2022-08-16T09:48:07Z</time>
      </trkpt>
      <trkpt lat="45.78148" lon="6.64202">
        <ele>1601</ele>
        <time>2022-08-16T09:48:08Z</time>
      </trkpt>
      <trkpt lat="45.7815" lon="6.64204">
        <ele>1601</ele>
        <time>2022-08-16T09:48:09Z</time>
      </trkpt>
      <trkpt lat="45.78151" lon="6.64206">
        <ele>1601</ele>
        <time>2022-08-16T09:48:10Z</time>
      </trkpt>
      <trkpt lat="45.78152" lon="6.64208">
        <ele>1602</ele>
        <time>2022-08-16T09:48:11Z</time>
      </trkpt>
      <trkpt lat="45.78154" lon="6.6421">
        <ele>1602</ele>
        <time>2022-08-16T09:48:12Z</time>
      </trkpt>
      <trkpt lat="45.78156" lon="6.64211">
        <ele>1602</ele>
        <time>2022-08-16T09:48:13Z</time>
      </trkpt>
      <trkpt lat="45.78157" lon="6.64213">
        <ele>1602</ele>
        <time>2022-08-16T09:48:14Z</time>
      </trkpt>
      <trkpt lat="45.78159" lon="6.64214">
        <ele>1602</ele>
        <time>2022-08-16T09:48:15Z</time>
      </trkpt>
      <trkpt lat="45.7816" lon="6.64216">
        <ele>1602</ele>
        <time>2022-08-16T09:48:16Z</time>
      </trkpt>
      <trkpt lat="45.78161" lon="6.64217">
        <ele>1602</ele>
        <time>2022-08-16T09:48:17Z</time>
      </trkpt>
      <trkpt lat="45.78162" lon="6.64219">
        <ele>1602</ele>
        <time>2022-08-16T09:48:18Z</time>
      </trkpt>
      <trkpt lat="45.78164" lon="6.64221">
        <ele>1603</ele>
        <time>2022-08-16T09:48:19Z</time>
      </trkpt>
      <trkpt lat="45.78165" lon="6.64222">
        <ele>1603</ele>
        <time>2022-08-16T09:48:20Z</time>
      </trkpt>
      <trkpt lat="45.78166" lon="6.64224">
        <ele>1603</ele>
        <time>2022-08-16T09:48:21Z</time>
      </trkpt>
      <trkpt lat="45.78168" lon="6.64225">
        <ele>1603</ele>
        <time>2022-08-16T09:48:22Z</time>
      </trkpt>
      <trkpt lat="45.78169" lon="6.64227">
        <ele>1603</ele>
        <time>2022-08-16T09:48:23Z</time>
      </trkpt>
      <trkpt lat="45.78171" lon="6.64229">
        <ele>1604</ele>
        <time>2022-08-16T09:48:24Z</time>
      </trkpt>
      <trkpt lat="45.78172" lon="6.6423">
        <ele>1604</ele>
        <time>2022-08-16T09:48:25Z</time>
      </trkpt>
      <trkpt lat="45.78174" lon="6.64231">
        <ele>1603</ele>
        <time>2022-08-16T09:48:26Z</time>
      </trkpt>
      <trkpt lat="45.78175" lon="6.64233">
        <ele>1604</ele>
        <time>2022-08-16T09:48:27Z</time>
      </trkpt>
      <trkpt lat="45.78177" lon="6.64235">
        <ele>1604</ele>
        <time>2022-08-16T09:48:28Z</time>
      </trkpt>
      <trkpt lat="45.78179" lon="6.64236">
        <ele>1604</ele>
        <time>2022-08-16T09:48:29Z</time>
      </trkpt>
      <trkpt lat="45.78181" lon="6.64238">
        <ele>1604</ele>
        <time>2022-08-16T09:48:30Z</time>
      </trkpt>
      <trkpt lat="45.78182" lon="6.64239">
        <ele>1604</ele>
        <time>2022-08-16T09:48:31Z</time>
      </trkpt>
      <trkpt lat="45.78184" lon="6.64241">
        <ele>1604</ele>
        <time>2022-08-16T09:48:32Z</time>
      </trkpt>
      <trkpt lat="45.78185" lon="6.64243">
        <ele>1604</ele>
        <time>2022-08-16T09:48:33Z</time>
      </trkpt>
      <trkpt lat="45.78186" lon="6.64245">
        <ele>1604</ele>
        <time>2022-08-16T09:48:34Z</time>
      </trkpt>
      <trkpt lat="45.78188" lon="6.64247">
        <ele>1604</ele>
        <time>2022-08-16T09:48:35Z</time>
      </trkpt>
      <trkpt lat="45.78189" lon="6.64248">
        <ele>1605</ele>
        <time>2022-08-16T09:48:36Z</time>
      </trkpt>
      <trkpt lat="45.78191" lon="6.6425">
        <ele>1605</ele>
        <time>2022-08-16T09:48:37Z</time>
      </trkpt>
      <trkpt lat="45.78192" lon="6.64252">
        <ele>1605</ele>
        <time>2022-08-16T09:48:38Z</time>
      </trkpt>
      <trkpt lat="45.78194" lon="6.64255">
        <ele>1605</ele>
        <time>2022-08-16T09:48:39Z</time>
      </trkpt>
      <trkpt lat="45.78195" lon="6.64256">
        <ele>1606</ele>
        <time>2022-08-16T09:48:40Z</time>
      </trkpt>
      <trkpt lat="45.78197" lon="6.64257">
        <ele>1607</ele>
        <time>2022-08-16T09:48:41Z</time>
      </trkpt>
      <trkpt lat="45.78198" lon="6.64259">
        <ele>1608</ele>
        <time>2022-08-16T09:48:42Z</time>
      </trkpt>
      <trkpt lat="45.782" lon="6.6426">
        <ele>1608</ele>
        <time>2022-08-16T09:48:43Z</time>
      </trkpt>
      <trkpt lat="45.78201" lon="6.64262">
        <ele>1608</ele>
        <time>2022-08-16T09:48:44Z</time>
      </trkpt>
      <trkpt lat="45.78202" lon="6.64263">
        <ele>1609</ele>
        <time>2022-08-16T09:48:45Z</time>
      </trkpt>
      <trkpt lat="45.78204" lon="6.64264">
        <ele>1609</ele>
        <time>2022-08-16T09:48:46Z</time>
      </trkpt>
      <trkpt lat="45.78206" lon="6.64266">
        <ele>1609</ele>
        <time>2022-08-16T09:48:47Z</time>
      </trkpt>
      <trkpt lat="45.78207" lon="6.64268">
        <ele>1609</ele>
        <time>2022-08-16T09:48:48Z</time>
      </trkpt>
      <trkpt lat="45.78209" lon="6.6427">
        <ele>1610</ele>
        <time>2022-08-16T09:48:49Z</time>
      </trkpt>
      <trkpt lat="45.7821" lon="6.64272">
        <ele>1610</ele>
        <time>2022-08-16T09:48:50Z</time>
      </trkpt>
      <trkpt lat="45.78212" lon="6.64274">
        <ele>1610</ele>
        <time>2022-08-16T09:48:51Z</time>
      </trkpt>
      <trkpt lat="45.78213" lon="6.64275">
        <ele>1610</ele>
        <time>2022-08-16T09:48:52Z</time>
      </trkpt>
      <trkpt lat="45.78215" lon="6.64277">
        <ele>1610</ele>
        <time>2022-08-16T09:48:53Z</time>
      </trkpt>
      <trkpt lat="45.78216" lon="6.64278">
        <ele>1610</ele>
        <time>2022-08-16T09:48:54Z</time>
      </trkpt>
      <trkpt lat="45.78218" lon="6.6428">
        <ele>1610</ele>
        <time>2022-08-16T09:48:55Z</time>
      </trkpt>
      <trkpt lat="45.78219" lon="6.64282">
        <ele>1610</ele>
        <time>2022-08-16T09:48:56Z</time>
      </trkpt>
      <trkpt lat="45.78221" lon="6.64283">
        <ele>1610</ele>
        <time>2022-08-16T09:48:57Z</time>
      </trkpt>
      <trkpt lat="45.78222" lon="6.64285">
        <ele>1611</ele>
        <time>2022-08-16T09:48:58Z</time>
      </trkpt>
      <trkpt lat="45.78224" lon="6.64287">
        <ele>1611</ele>
        <time>2022-08-16T09:48:59Z</time>
      </trkpt>
      <trkpt lat="45.78225" lon="6.64288">
        <ele>1611</ele>
        <time>2022-08-16T09:49:00Z</time>
      </trkpt>
      <trkpt lat="45.78227" lon="6.6429">
        <ele>1611</ele>
        <time>2022-08-16T09:49:01Z</time>
      </trkpt>
      <trkpt lat="45.78228" lon="6.64292">
        <ele>1611</ele>
        <time>2022-08-16T09:49:02Z</time>
      </trkpt>
      <trkpt lat="45.7823" lon="6.64292">
        <ele>1612</ele>
        <time>2022-08-16T09:49:03Z</time>
      </trkpt>
      <trkpt lat="45.78231" lon="6.64293">
        <ele>1612</ele>
        <time>2022-08-16T09:49:04Z</time>
      </trkpt>
      <trkpt lat="45.78233" lon="6.64294">
        <ele>1613</ele>
        <time>2022-08-16T09:49:05Z</time>
      </trkpt>
      <trkpt lat="45.78234" lon="6.64295">
        <ele>1612</ele>
        <time>2022-08-16T09:49:06Z</time>
      </trkpt>
      <trkpt lat="45.78236" lon="6.64297">
        <ele>1613</ele>
        <time>2022-08-16T09:49:07Z</time>
      </trkpt>
      <trkpt lat="45.78238" lon="6.64299">
        <ele>1613</ele>
        <time>2022-08-16T09:49:08Z</time>
      </trkpt>
      <trkpt lat="45.78239" lon="6.64301">
        <ele>1614</ele>
        <time>2022-08-16T09:49:09Z</time>
      </trkpt>
      <trkpt lat="45.7824" lon="6.64302">
        <ele>1614</ele>
        <time>2022-08-16T09:49:10Z</time>
      </trkpt>
      <trkpt lat="45.78242" lon="6.64303">
        <ele>1614</ele>
        <time>2022-08-16T09:49:11Z</time>
      </trkpt>
      <trkpt lat="45.78243" lon="6.64305">
        <ele>1614</ele>
        <time>2022-08-16T09:49:12Z</time>
      </trkpt>
      <trkpt lat="45.78244" lon="6.64306">
        <ele>1615</ele>
        <time>2022-08-16T09:49:13Z</time>
      </trkpt>
      <trkpt lat="45.78246" lon="6.64308">
        <ele>1615</ele>
        <time>2022-08-16T09:49:14Z</time>
      </trkpt>
      <trkpt lat="45.78247" lon="6.64309">
        <ele>1614</ele>
        <time>2022-08-16T09:49:15Z</time>
      </trkpt>
      <trkpt lat="45.78249" lon="6.64311">
        <ele>1615</ele>
        <time>2022-08-16T09:49:16Z</time>
      </trkpt>
      <trkpt lat="45.7825" lon="6.64312">
        <ele>1615</ele>
        <time>2022-08-16T09:49:17Z</time>
      </trkpt>
      <trkpt lat="45.78252" lon="6.64313">
        <ele>1615</ele>
        <time>2022-08-16T09:49:18Z</time>
      </trkpt>
      <trkpt lat="45.78253" lon="6.64315">
        <ele>1615</ele>
        <time>2022-08-16T09:49:19Z</time>
      </trkpt>
      <trkpt lat="45.78255" lon="6.64316">
        <ele>1615</ele>
        <time>2022-08-16T09:49:20Z</time>
      </trkpt>
      <trkpt lat="45.78256" lon="6.64317">
        <ele>1615</ele>
        <time>2022-08-16T09:49:21Z</time>
      </trkpt>
      <trkpt lat="45.78257" lon="6.64318">
        <ele>1615</ele>
        <time>2022-08-16T09:49:22Z</time>
      </trkpt>
      <trkpt lat="45.78259" lon="6.6432">
        <ele>1616</ele>
        <time>2022-08-16T09:49:23Z</time>
      </trkpt>
      <trkpt lat="45.7826" lon="6.64322">
        <ele>1616</ele>
        <time>2022-08-16T09:49:24Z</time>
      </trkpt>
      <trkpt lat="45.78261" lon="6.64323">
        <ele>1616</ele>
        <time>2022-08-16T09:49:25Z</time>
      </trkpt>
      <trkpt lat="45.78263" lon="6.64325">
        <ele>1616</ele>
        <time>2022-08-16T09:49:26Z</time>
      </trkpt>
      <trkpt lat="45.78264" lon="6.64326">
        <ele>1616</ele>
        <time>2022-08-16T09:49:27Z</time>
      </trkpt>
      <trkpt lat="45.78266" lon="6.64327">
        <ele>1617</ele>
        <time>2022-08-16T09:49:28Z</time>
      </trkpt>
      <trkpt lat="45.78267" lon="6.64329">
        <ele>1617</ele>
        <time>2022-08-16T09:49:29Z</time>
      </trkpt>
      <trkpt lat="45.78268" lon="6.64331">
        <ele>1617</ele>
        <time>2022-08-16T09:49:30Z</time>
      </trkpt>
      <trkpt lat="45.78269" lon="6.64332">
        <ele>1617</ele>
        <time>2022-08-16T09:49:31Z</time>
      </trkpt>
      <trkpt lat="45.7827" lon="6.64334">
        <ele>1617</ele>
        <time>2022-08-16T09:49:32Z</time>
      </trkpt>
      <trkpt lat="45.78272" lon="6.64336">
        <ele>1617</ele>
        <time>2022-08-16T09:49:33Z</time>
      </trkpt>
      <trkpt lat="45.78273" lon="6.64337">
        <ele>1618</ele>
        <time>2022-08-16T09:49:34Z</time>
      </trkpt>
      <trkpt lat="45.78275" lon="6.64339">
        <ele>1618</ele>
        <time>2022-08-16T09:49:35Z</time>
      </trkpt>
      <trkpt lat="45.78277" lon="6.6434">
        <ele>1618</ele>
        <time>2022-08-16T09:49:36Z</time>
      </trkpt>
      <trkpt lat="45.78278" lon="6.64342">
        <ele>1617</ele>
        <time>2022-08-16T09:49:37Z</time>
      </trkpt>
      <trkpt lat="45.78279" lon="6.64344">
        <ele>1617</ele>
        <time>2022-08-16T09:49:38Z</time>
      </trkpt>
      <trkpt lat="45.78281" lon="6.64345">
        <ele>1617</ele>
        <time>2022-08-16T09:49:39Z</time>
      </trkpt>
      <trkpt lat="45.78282" lon="6.64347">
        <ele>1617</ele>
        <time>2022-08-16T09:49:40Z</time>
      </trkpt>
      <trkpt lat="45.78284" lon="6.64348">
        <ele>1617</ele>
        <time>2022-08-16T09:49:41Z</time>
      </trkpt>
      <trkpt lat="45.78285" lon="6.64349">
        <ele>1617</ele>
        <time>2022-08-16T09:49:42Z</time>
      </trkpt>
      <trkpt lat="45.78287" lon="6.64351">
        <ele>1617</ele>
        <time>2022-08-16T09:49:43Z</time>
      </trkpt>
      <trkpt lat="45.78288" lon="6.64352">
        <ele>1617</ele>
        <time>2022-08-16T09:49:44Z</time>
      </trkpt>
      <trkpt lat="45.7829" lon="6.64353">
        <ele>1617</ele>
        <time>2022-08-16T09:49:45Z</time>
      </trkpt>
      <trkpt lat="45.78291" lon="6.64355">
        <ele>1617</ele>
        <time>2022-08-16T09:49:46Z</time>
      </trkpt>
      <trkpt lat="45.78293" lon="6.64356">
        <ele>1618</ele>
        <time>2022-08-16T09:49:47Z</time>
      </trkpt>
      <trkpt lat="45.78295" lon="6.64358">
        <ele>1618</ele>
        <time>2022-08-16T09:49:48Z</time>
      </trkpt>
      <trkpt lat="45.78297" lon="6.64359">
        <ele>1618</ele>
        <time>2022-08-16T09:49:49Z</time>
      </trkpt>
      <trkpt lat="45.78299" lon="6.64361">
        <ele>1618</ele>
        <time>2022-08-16T09:49:50Z</time>
      </trkpt>
      <trkpt lat="45.783" lon="6.64362">
        <ele>1618</ele>
        <time>2022-08-16T09:49:51Z</time>
      </trkpt>
      <trkpt lat="45.78302" lon="6.64363">
        <ele>1618</ele>
        <time>2022-08-16T09:49:52Z</time>
      </trkpt>
      <trkpt lat="45.78304" lon="6.64363">
        <ele>1618</ele>
        <time>2022-08-16T09:49:53Z</time>
      </trkpt>
      <trkpt lat="45.78305" lon="6.64364">
        <ele>1619</ele>
        <time>2022-08-16T09:49:54Z</time>
      </trkpt>
      <trkpt lat="45.78307" lon="6.64366">
        <ele>1619</ele>
        <time>2022-08-16T09:49:55Z</time>
      </trkpt>
      <trkpt lat="45.78309" lon="6.64367">
        <ele>1619</ele>
        <time>2022-08-16T09:49:56Z</time>
      </trkpt>
      <trkpt lat="45.78311" lon="6.64368">
        <ele>1619</ele>
        <time>2022-08-16T09:49:57Z</time>
      </trkpt>
      <trkpt lat="45.78313" lon="6.64369">
        <ele>1619</ele>
        <time>2022-08-16T09:49:58Z</time>
      </trkpt>
      <trkpt lat="45.78315" lon="6.6437">
        <ele>1619</ele>
        <time>2022-08-16T09:49:59Z</time>
      </trkpt>
      <trkpt lat="45.78317" lon="6.6437">
        <ele>1619</ele>
        <time>2022-08-16T09:50:00Z</time>
      </trkpt>
      <trkpt lat="45.78319" lon="6.64372">
        <ele>1620</ele>
        <time>2022-08-16T09:50:01Z</time>
      </trkpt>
      <trkpt lat="45.78321" lon="6.64373">
        <ele>1619</ele>
        <time>2022-08-16T09:50:02Z</time>
      </trkpt>
      <trkpt lat="45.78323" lon="6.64375">
        <ele>1619</ele>
        <time>2022-08-16T09:50:03Z</time>
      </trkpt>
      <trkpt lat="45.78325" lon="6.64376">
        <ele>1619</ele>
        <time>2022-08-16T09:50:04Z</time>
      </trkpt>
      <trkpt lat="45.78327" lon="6.64377">
        <ele>1619</ele>
        <time>2022-08-16T09:50:05Z</time>
      </trkpt>
      <trkpt lat="45.78329" lon="6.64378">
        <ele>1620</ele>
        <time>2022-08-16T09:50:06Z</time>
      </trkpt>
      <trkpt lat="45.78332" lon="6.64379">
        <ele>1620</ele>
        <time>2022-08-16T09:50:07Z</time>
      </trkpt>
      <trkpt lat="45.78334" lon="6.6438">
        <ele>1621</ele>
        <time>2022-08-16T09:50:08Z</time>
      </trkpt>
      <trkpt lat="45.78336" lon="6.64381">
        <ele>1621</ele>
        <time>2022-08-16T09:50:09Z</time>
      </trkpt>
      <trkpt lat="45.78338" lon="6.64383">
        <ele>1621</ele>
        <time>2022-08-16T09:50:10Z</time>
      </trkpt>
      <trkpt lat="45.7834" lon="6.64384">
        <ele>1621</ele>
        <time>2022-08-16T09:50:11Z</time>
      </trkpt>
      <trkpt lat="45.78341" lon="6.64385">
        <ele>1621</ele>
        <time>2022-08-16T09:50:12Z</time>
      </trkpt>
      <trkpt lat="45.78343" lon="6.64386">
        <ele>1621</ele>
        <time>2022-08-16T09:50:13Z</time>
      </trkpt>
      <trkpt lat="45.78346" lon="6.64387">
        <ele>1621</ele>
        <time>2022-08-16T09:50:14Z</time>
      </trkpt>
      <trkpt lat="45.78348" lon="6.64388">
        <ele>1621</ele>
        <time>2022-08-16T09:50:15Z</time>
      </trkpt>
      <trkpt lat="45.7835" lon="6.6439">
        <ele>1621</ele>
        <time>2022-08-16T09:50:16Z</time>
      </trkpt>
      <trkpt lat="45.78351" lon="6.64391">
        <ele>1621</ele>
        <time>2022-08-16T09:50:17Z</time>
      </trkpt>
      <trkpt lat="45.78354" lon="6.64391">
        <ele>1621</ele>
        <time>2022-08-16T09:50:18Z</time>
      </trkpt>
      <trkpt lat="45.78355" lon="6.64392">
        <ele>1620</ele>
        <time>2022-08-16T09:50:19Z</time>
      </trkpt>
      <trkpt lat="45.78357" lon="6.64393">
        <ele>1620</ele>
        <time>2022-08-16T09:50:20Z</time>
      </trkpt>
      <trkpt lat="45.7836" lon="6.64395">
        <ele>1620</ele>
        <time>2022-08-16T09:50:21Z</time>
      </trkpt>
      <trkpt lat="45.78362" lon="6.64396">
        <ele>1620</ele>
        <time>2022-08-16T09:50:22Z</time>
      </trkpt>
      <trkpt lat="45.78364" lon="6.64397">
        <ele>1620</ele>
        <time>2022-08-16T09:50:23Z</time>
      </trkpt>
      <trkpt lat="45.78367" lon="6.64398">
        <ele>1620</ele>
        <time>2022-08-16T09:50:24Z</time>
      </trkpt>
      <trkpt lat="45.78368" lon="6.64399">
        <ele>1620</ele>
        <time>2022-08-16T09:50:25Z</time>
      </trkpt>
      <trkpt lat="45.7837" lon="6.64399">
        <ele>1620</ele>
        <time>2022-08-16T09:50:26Z</time>
      </trkpt>
      <trkpt lat="45.78372" lon="6.644">
        <ele>1620</ele>
        <time>2022-08-16T09:50:27Z</time>
      </trkpt>
      <trkpt lat="45.78374" lon="6.644">
        <ele>1620</ele>
        <time>2022-08-16T09:50:28Z</time>
      </trkpt>
      <trkpt lat="45.78376" lon="6.64401">
        <ele>1621</ele>
        <time>2022-08-16T09:50:29Z</time>
      </trkpt>
      <trkpt lat="45.78378" lon="6.64402">
        <ele>1620</ele>
        <time>2022-08-16T09:50:30Z</time>
      </trkpt>
      <trkpt lat="45.78381" lon="6.64403">
        <ele>1620</ele>
        <time>2022-08-16T09:50:31Z</time>
      </trkpt>
      <trkpt lat="45.78383" lon="6.64403">
        <ele>1621</ele>
        <time>2022-08-16T09:50:32Z</time>
      </trkpt>
      <trkpt lat="45.78386" lon="6.64404">
        <ele>1621</ele>
        <time>2022-08-16T09:50:33Z</time>
      </trkpt>
      <trkpt lat="45.78388" lon="6.64404">
        <ele>1621</ele>
        <time>2022-08-16T09:50:34Z</time>
      </trkpt>
      <trkpt lat="45.7839" lon="6.64406">
        <ele>1621</ele>
        <time>2022-08-16T09:50:35Z</time>
      </trkpt>
      <trkpt lat="45.78392" lon="6.64406">
        <ele>1621</ele>
        <time>2022-08-16T09:50:36Z</time>
      </trkpt>
      <trkpt lat="45.78394" lon="6.64406">
        <ele>1621</ele>
        <time>2022-08-16T09:50:37Z</time>
      </trkpt>
      <trkpt lat="45.78396" lon="6.64407">
        <ele>1621</ele>
        <time>2022-08-16T09:50:38Z</time>
      </trkpt>
      <trkpt lat="45.78398" lon="6.64408">
        <ele>1621</ele>
        <time>2022-08-16T09:50:39Z</time>
      </trkpt>
      <trkpt lat="45.78399" lon="6.64408">
        <ele>1621</ele>
        <time>2022-08-16T09:50:40Z</time>
      </trkpt>
      <trkpt lat="45.78399" lon="6.64408">
        <ele>1621</ele>
        <time>2022-08-16T09:50:41Z</time>
      </trkpt>
      <trkpt lat="45.78399" lon="6.64408">
        <ele>1622</ele>
        <time>2022-08-16T09:50:42Z</time>
      </trkpt>
      <trkpt lat="45.78399" lon="6.64408">
        <ele>1622</ele>
        <time>2022-08-16T09:50:43Z</time>
      </trkpt>
      <trkpt lat="45.78399" lon="6.64408">
        <ele>1622</ele>
        <time>2022-08-16T09:50:44Z</time>
      </trkpt>
      <trkpt lat="45.78399" lon="6.64408">
        <ele>1622</ele>
        <time>2022-08-16T09:50:48Z</time>
      </trkpt>
      <trkpt lat="45.78399" lon="6.64409">
        <ele>1623</ele>
        <time>2022-08-16T09:50:52Z</time>
      </trkpt>
      <trkpt lat="45.78399" lon="6.64409">
        <ele>1623</ele>
        <time>2022-08-16T09:50:53Z</time>
      </trkpt>
      <trkpt lat="45.78399" lon="6.64409">
        <ele>1623</ele>
        <time>2022-08-16T09:50:54Z</time>
      </trkpt>
      <trkpt lat="45.78399" lon="6.64409">
        <ele>1623</ele>
        <time>2022-08-16T09:50:55Z</time>
      </trkpt>
      <trkpt lat="45.78398" lon="6.6441">
        <ele>1623</ele>
        <time>2022-08-16T09:50:56Z</time>
      </trkpt>
      <trkpt lat="45.784" lon="6.64422">
        <ele>1613</ele>
        <time>2022-08-16T09:51:00.926Z</time>
      </trkpt>
      <trkpt lat="45.78392" lon="6.64414">
        <ele>1640</ele>
        <time>2022-08-16T09:51:02Z</time>
      </trkpt>
      <trkpt lat="45.78396" lon="6.64417">
        <ele>1621</ele>
        <time>2022-08-16T09:51:03Z</time>
      </trkpt>
      <trkpt lat="45.78402" lon="6.64416">
        <ele>1617</ele>
        <time>2022-08-16T09:51:04Z</time>
      </trkpt>
      <trkpt lat="45.78402" lon="6.64416">
        <ele>1617</ele>
        <time>2022-08-16T09:51:05Z</time>
      </trkpt>
      <trkpt lat="45.78402" lon="6.64415">
        <ele>1617</ele>
        <time>2022-08-16T09:51:06Z</time>
      </trkpt>
      <trkpt lat="45.78402" lon="6.64415">
        <ele>1617</ele>
        <time>2022-08-16T09:51:10Z</time>
      </trkpt>
      <trkpt lat="45.78402" lon="6.64415">
        <ele>1617</ele>
        <time>2022-08-16T09:51:14Z</time>
      </trkpt>
      <trkpt lat="45.78402" lon="6.64415">
        <ele>1617</ele>
        <time>2022-08-16T09:51:18Z</time>
      </trkpt>
      <trkpt lat="45.78402" lon="6.64415">
        <ele>1617</ele>
        <time>2022-08-16T09:51:22Z</time>
      </trkpt>
      <trkpt lat="45.78402" lon="6.64415">
        <ele>1617</ele>
        <time>2022-08-16T09:51:26Z</time>
      </trkpt>
      <trkpt lat="45.78402" lon="6.64415">
        <ele>1617</ele>
        <time>2022-08-16T09:51:30Z</time>
      </trkpt>
      <trkpt lat="45.78402" lon="6.64415">
        <ele>1617</ele>
        <time>2022-08-16T09:51:34Z</time>
      </trkpt>
      <trkpt lat="45.78402" lon="6.64415">
        <ele>1617</ele>
        <time>2022-08-16T09:51:38Z</time>
      </trkpt>
      <trkpt lat="45.78402" lon="6.64415">
        <ele>1617</ele>
        <time>2022-08-16T09:51:42Z</time>
      </trkpt>
      <trkpt lat="45.78402" lon="6.64415">
        <ele>1617</ele>
        <time>2022-08-16T09:51:46Z</time>
      </trkpt>
      <trkpt lat="45.78402" lon="6.64415">
        <ele>1617</ele>
        <time>2022-08-16T09:51:50Z</time>
      </trkpt>
      <trkpt lat="45.78402" lon="6.64415">
        <ele>1617</ele>
        <time>2022-08-16T09:51:54Z</time>
      </trkpt>
      <trkpt lat="45.78402" lon="6.64415">
        <ele>1617</ele>
        <time>2022-08-16T09:51:58Z</time>
      </trkpt>
      <trkpt lat="45.78402" lon="6.64415">
        <ele>1617</ele>
        <time>2022-08-16T09:52:02Z</time>
      </trkpt>
      <trkpt lat="45.78402" lon="6.64415">
        <ele>1617</ele>
        <time>2022-08-16T09:52:06Z</time>
      </trkpt>
      <trkpt lat="45.78402" lon="6.64415">
        <ele>1617</ele>
        <time>2022-08-16T09:52:10Z</time>
      </trkpt>
      <trkpt lat="45.78402" lon="6.64415">
        <ele>1617</ele>
        <time>2022-08-16T09:52:14Z</time>
      </trkpt>
      <trkpt lat="45.784" lon="6.64413">
        <ele>1620</ele>
        <time>2022-08-16T09:52:16Z</time>
      </trkpt>
      <trkpt lat="45.784" lon="6.64413">
        <ele>1621</ele>
        <time>2022-08-16T09:52:17Z</time>
      </trkpt>
      <trkpt lat="45.784" lon="6.64412">
        <ele>1621</ele>
        <time>2022-08-16T09:52:18Z</time>
      </trkpt>
      <trkpt lat="45.784" lon="6.64412">
        <ele>1621</ele>
        <time>2022-08-16T09:52:19Z</time>
      </trkpt>
      <trkpt lat="45.78399" lon="6.64411">
        <ele>1622</ele>
        <time>2022-08-16T09:52:21Z</time>
      </trkpt>
      <trkpt lat="45.78399" lon="6.64411">
        <ele>1622</ele>
        <time>2022-08-16T09:52:22Z</time>
      </trkpt>
      <trkpt lat="45.784" lon="6.64411">
        <ele>1622</ele>
        <time>2022-08-16T09:52:23Z</time>
      </trkpt>
      <trkpt lat="45.78402" lon="6.64411">
        <ele>1622</ele>
        <time>2022-08-16T09:52:24Z</time>
      </trkpt>
      <trkpt lat="45.78404" lon="6.64411">
        <ele>1623</ele>
        <time>2022-08-16T09:52:25Z</time>
      </trkpt>
      <trkpt lat="45.78407" lon="6.64411">
        <ele>1623</ele>
        <time>2022-08-16T09:52:26Z</time>
      </trkpt>
      <trkpt lat="45.78409" lon="6.64411">
        <ele>1623</ele>
        <time>2022-08-16T09:52:27Z</time>
      </trkpt>
      <trkpt lat="45.78412" lon="6.64411">
        <ele>1623</ele>
        <time>2022-08-16T09:52:28Z</time>
      </trkpt>
      <trkpt lat="45.78415" lon="6.64411">
        <ele>1622</ele>
        <time>2022-08-16T09:52:29Z</time>
      </trkpt>
      <trkpt lat="45.78417" lon="6.64411">
        <ele>1622</ele>
        <time>2022-08-16T09:52:30Z</time>
      </trkpt>
      <trkpt lat="45.7842" lon="6.6441">
        <ele>1622</ele>
        <time>2022-08-16T09:52:31Z</time>
      </trkpt>
      <trkpt lat="45.78423" lon="6.6441">
        <ele>1621</ele>
        <time>2022-08-16T09:52:32Z</time>
      </trkpt>
      <trkpt lat="45.78426" lon="6.64409">
        <ele>1621</ele>
        <time>2022-08-16T09:52:33Z</time>
      </trkpt>
      <trkpt lat="45.7843" lon="6.64408">
        <ele>1621</ele>
        <time>2022-08-16T09:52:34Z</time>
      </trkpt>
      <trkpt lat="45.78434" lon="6.64406">
        <ele>1621</ele>
        <time>2022-08-16T09:52:35Z</time>
      </trkpt>
      <trkpt lat="45.78438" lon="6.64405">
        <ele>1621</ele>
        <time>2022-08-16T09:52:36Z</time>
      </trkpt>
      <trkpt lat="45.78443" lon="6.64406">
        <ele>1621</ele>
        <time>2022-08-16T09:52:37Z</time>
      </trkpt>
      <trkpt lat="45.78447" lon="6.64408">
        <ele>1621</ele>
        <time>2022-08-16T09:52:38Z</time>
      </trkpt>
      <trkpt lat="45.78451" lon="6.6441">
        <ele>1621</ele>
        <time>2022-08-16T09:52:39Z</time>
      </trkpt>
      <trkpt lat="45.78454" lon="6.64413">
        <ele>1621</ele>
        <time>2022-08-16T09:52:40Z</time>
      </trkpt>
      <trkpt lat="45.78457" lon="6.64416">
        <ele>1621</ele>
        <time>2022-08-16T09:52:41Z</time>
      </trkpt>
      <trkpt lat="45.7846" lon="6.64419">
        <ele>1621</ele>
        <time>2022-08-16T09:52:42Z</time>
      </trkpt>
      <trkpt lat="45.78462" lon="6.64422">
        <ele>1621</ele>
        <time>2022-08-16T09:52:43Z</time>
      </trkpt>
      <trkpt lat="45.78464" lon="6.64425">
        <ele>1621</ele>
        <time>2022-08-16T09:52:44Z</time>
      </trkpt>
      <trkpt lat="45.78467" lon="6.64427">
        <ele>1621</ele>
        <time>2022-08-16T09:52:45Z</time>
      </trkpt>
      <trkpt lat="45.78469" lon="6.6443">
        <ele>1621</ele>
        <time>2022-08-16T09:52:46Z</time>
      </trkpt>
      <trkpt lat="45.78472" lon="6.64432">
        <ele>1621</ele>
        <time>2022-08-16T09:52:47Z</time>
      </trkpt>
      <trkpt lat="45.78474" lon="6.64434">
        <ele>1621</ele>
        <time>2022-08-16T09:52:48Z</time>
      </trkpt>
      <trkpt lat="45.78477" lon="6.64437">
        <ele>1620</ele>
        <time>2022-08-16T09:52:49Z</time>
      </trkpt>
      <trkpt lat="45.7848" lon="6.64439">
        <ele>1620</ele>
        <time>2022-08-16T09:52:50Z</time>
      </trkpt>
      <trkpt lat="45.78483" lon="6.64441">
        <ele>1620</ele>
        <time>2022-08-16T09:52:51Z</time>
      </trkpt>
      <trkpt lat="45.78486" lon="6.64443">
        <ele>1620</ele>
        <time>2022-08-16T09:52:52Z</time>
      </trkpt>
      <trkpt lat="45.78489" lon="6.64444">
        <ele>1620</ele>
        <time>2022-08-16T09:52:53Z</time>
      </trkpt>
      <trkpt lat="45.78492" lon="6.64447">
        <ele>1620</ele>
        <time>2022-08-16T09:52:54Z</time>
      </trkpt>
      <trkpt lat="45.78496" lon="6.64449">
        <ele>1620</ele>
        <time>2022-08-16T09:52:55Z</time>
      </trkpt>
      <trkpt lat="45.78499" lon="6.64451">
        <ele>1620</ele>
        <time>2022-08-16T09:52:56Z</time>
      </trkpt>
      <trkpt lat="45.78503" lon="6.64453">
        <ele>1619</ele>
        <time>2022-08-16T09:52:57Z</time>
      </trkpt>
      <trkpt lat="45.78506" lon="6.64454">
        <ele>1619</ele>
        <time>2022-08-16T09:52:58Z</time>
      </trkpt>
      <trkpt lat="45.7851" lon="6.64455">
        <ele>1618</ele>
        <time>2022-08-16T09:52:59Z</time>
      </trkpt>
      <trkpt lat="45.78514" lon="6.64457">
        <ele>1618</ele>
        <time>2022-08-16T09:53:00Z</time>
      </trkpt>
      <trkpt lat="45.78517" lon="6.64458">
        <ele>1618</ele>
        <time>2022-08-16T09:53:01Z</time>
      </trkpt>
      <trkpt lat="45.7852" lon="6.6446">
        <ele>1618</ele>
        <time>2022-08-16T09:53:02Z</time>
      </trkpt>
      <trkpt lat="45.78524" lon="6.64461">
        <ele>1618</ele>
        <time>2022-08-16T09:53:03Z</time>
      </trkpt>
      <trkpt lat="45.78528" lon="6.64461">
        <ele>1617</ele>
        <time>2022-08-16T09:53:04Z</time>
      </trkpt>
      <trkpt lat="45.78532" lon="6.64462">
        <ele>1617</ele>
        <time>2022-08-16T09:53:05Z</time>
      </trkpt>
      <trkpt lat="45.78536" lon="6.64462">
        <ele>1617</ele>
        <time>2022-08-16T09:53:06Z</time>
      </trkpt>
      <trkpt lat="45.78541" lon="6.64463">
        <ele>1617</ele>
        <time>2022-08-16T09:53:07Z</time>
      </trkpt>
      <trkpt lat="45.78545" lon="6.64463">
        <ele>1617</ele>
        <time>2022-08-16T09:53:08Z</time>
      </trkpt>
      <trkpt lat="45.7855" lon="6.64463">
        <ele>1617</ele>
        <time>2022-08-16T09:53:09Z</time>
      </trkpt>
      <trkpt lat="45.78554" lon="6.64463">
        <ele>1617</ele>
        <time>2022-08-16T09:53:10Z</time>
      </trkpt>
      <trkpt lat="45.78559" lon="6.64463">
        <ele>1617</ele>
        <time>2022-08-16T09:53:11Z</time>
      </trkpt>
      <trkpt lat="45.78563" lon="6.64463">
        <ele>1617</ele>
        <time>2022-08-16T09:53:12Z</time>
      </trkpt>
      <trkpt lat="45.78567" lon="6.64464">
        <ele>1617</ele>
        <time>2022-08-16T09:53:13Z</time>
      </trkpt>
      <trkpt lat="45.78571" lon="6.64469">
        <ele>1617</ele>
        <time>2022-08-16T09:53:14Z</time>
      </trkpt>
      <trkpt lat="45.78574" lon="6.64474">
        <ele>1618</ele>
        <time>2022-08-16T09:53:15Z</time>
      </trkpt>
      <trkpt lat="45.78575" lon="6.64481">
        <ele>1618</ele>
        <time>2022-08-16T09:53:16Z</time>
      </trkpt>
      <trkpt lat="45.78576" lon="6.64487">
        <ele>1618</ele>
        <time>2022-08-16T09:53:17Z</time>
      </trkpt>
      <trkpt lat="45.78575" lon="6.64493">
        <ele>1619</ele>
        <time>2022-08-16T09:53:18Z</time>
      </trkpt>
      <trkpt lat="45.78575" lon="6.64497">
        <ele>1619</ele>
        <time>2022-08-16T09:53:19Z</time>
      </trkpt>
      <trkpt lat="45.78574" lon="6.64501">
        <ele>1619</ele>
        <time>2022-08-16T09:53:20Z</time>
      </trkpt>
      <trkpt lat="45.78574" lon="6.64505">
        <ele>1619</ele>
        <time>2022-08-16T09:53:21Z</time>
      </trkpt>
      <trkpt lat="45.78574" lon="6.64508">
        <ele>1619</ele>
        <time>2022-08-16T09:53:22Z</time>
      </trkpt>
      <trkpt lat="45.78573" lon="6.6451">
        <ele>1619</ele>
        <time>2022-08-16T09:53:23Z</time>
      </trkpt>
      <trkpt lat="45.78572" lon="6.64513">
        <ele>1620</ele>
        <time>2022-08-16T09:53:24Z</time>
      </trkpt>
      <trkpt lat="45.78572" lon="6.64515">
        <ele>1620</ele>
        <time>2022-08-16T09:53:25Z</time>
      </trkpt>
      <trkpt lat="45.78571" lon="6.64518">
        <ele>1620</ele>
        <time>2022-08-16T09:53:26Z</time>
      </trkpt>
      <trkpt lat="45.78571" lon="6.6452">
        <ele>1620</ele>
        <time>2022-08-16T09:53:27Z</time>
      </trkpt>
      <trkpt lat="45.78571" lon="6.64523">
        <ele>1620</ele>
        <time>2022-08-16T09:53:28Z</time>
      </trkpt>
      <trkpt lat="45.7857" lon="6.64526">
        <ele>1621</ele>
        <time>2022-08-16T09:53:29Z</time>
      </trkpt>
      <trkpt lat="45.78569" lon="6.6453">
        <ele>1621</ele>
        <time>2022-08-16T09:53:30Z</time>
      </trkpt>
      <trkpt lat="45.78568" lon="6.64533">
        <ele>1621</ele>
        <time>2022-08-16T09:53:31Z</time>
      </trkpt>
      <trkpt lat="45.78568" lon="6.64536">
        <ele>1621</ele>
        <time>2022-08-16T09:53:32Z</time>
      </trkpt>
      <trkpt lat="45.78567" lon="6.64539">
        <ele>1622</ele>
        <time>2022-08-16T09:53:33Z</time>
      </trkpt>
      <trkpt lat="45.78567" lon="6.64542">
        <ele>1622</ele>
        <time>2022-08-16T09:53:34Z</time>
      </trkpt>
      <trkpt lat="45.78566" lon="6.64545">
        <ele>1622</ele>
        <time>2022-08-16T09:53:35Z</time>
      </trkpt>
      <trkpt lat="45.78565" lon="6.64548">
        <ele>1623</ele>
        <time>2022-08-16T09:53:36Z</time>
      </trkpt>
      <trkpt lat="45.78564" lon="6.64551">
        <ele>1623</ele>
        <time>2022-08-16T09:53:37Z</time>
      </trkpt>
      <trkpt lat="45.78564" lon="6.64555">
        <ele>1623</ele>
        <time>2022-08-16T09:53:38Z</time>
      </trkpt>
      <trkpt lat="45.78563" lon="6.64558">
        <ele>1623</ele>
        <time>2022-08-16T09:53:39Z</time>
      </trkpt>
      <trkpt lat="45.78563" lon="6.64561">
        <ele>1623</ele>
        <time>2022-08-16T09:53:40Z</time>
      </trkpt>
      <trkpt lat="45.78562" lon="6.64564">
        <ele>1623</ele>
        <time>2022-08-16T09:53:41Z</time>
      </trkpt>
      <trkpt lat="45.78562" lon="6.64568">
        <ele>1623</ele>
        <time>2022-08-16T09:53:42Z</time>
      </trkpt>
      <trkpt lat="45.78561" lon="6.64571">
        <ele>1624</ele>
        <time>2022-08-16T09:53:43Z</time>
      </trkpt>
      <trkpt lat="45.78561" lon="6.64574">
        <ele>1624</ele>
        <time>2022-08-16T09:53:44Z</time>
      </trkpt>
      <trkpt lat="45.78561" lon="6.64578">
        <ele>1624</ele>
        <time>2022-08-16T09:53:45Z</time>
      </trkpt>
      <trkpt lat="45.7856" lon="6.64582">
        <ele>1624</ele>
        <time>2022-08-16T09:53:46Z</time>
      </trkpt>
      <trkpt lat="45.7856" lon="6.64585">
        <ele>1625</ele>
        <time>2022-08-16T09:53:47Z</time>
      </trkpt>
      <trkpt lat="45.7856" lon="6.64589">
        <ele>1625</ele>
        <time>2022-08-16T09:53:48Z</time>
      </trkpt>
      <trkpt lat="45.78559" lon="6.64592">
        <ele>1625</ele>
        <time>2022-08-16T09:53:49Z</time>
      </trkpt>
      <trkpt lat="45.78559" lon="6.64596">
        <ele>1625</ele>
        <time>2022-08-16T09:53:50Z</time>
      </trkpt>
      <trkpt lat="45.78559" lon="6.646">
        <ele>1626</ele>
        <time>2022-08-16T09:53:51Z</time>
      </trkpt>
      <trkpt lat="45.7856" lon="6.64604">
        <ele>1626</ele>
        <time>2022-08-16T09:53:52Z</time>
      </trkpt>
      <trkpt lat="45.7856" lon="6.64608">
        <ele>1626</ele>
        <time>2022-08-16T09:53:53Z</time>
      </trkpt>
      <trkpt lat="45.7856" lon="6.64612">
        <ele>1626</ele>
        <time>2022-08-16T09:53:54Z</time>
      </trkpt>
      <trkpt lat="45.7856" lon="6.64615">
        <ele>1626</ele>
        <time>2022-08-16T09:53:55Z</time>
      </trkpt>
      <trkpt lat="45.7856" lon="6.64619">
        <ele>1626</ele>
        <time>2022-08-16T09:53:56Z</time>
      </trkpt>
      <trkpt lat="45.7856" lon="6.64622">
        <ele>1627</ele>
        <time>2022-08-16T09:53:57Z</time>
      </trkpt>
      <trkpt lat="45.7856" lon="6.64626">
        <ele>1627</ele>
        <time>2022-08-16T09:53:58Z</time>
      </trkpt>
      <trkpt lat="45.7856" lon="6.64629">
        <ele>1627</ele>
        <time>2022-08-16T09:53:59Z</time>
      </trkpt>
      <trkpt lat="45.7856" lon="6.64633">
        <ele>1628</ele>
        <time>2022-08-16T09:54:00Z</time>
      </trkpt>
      <trkpt lat="45.7856" lon="6.64635">
        <ele>1628</ele>
        <time>2022-08-16T09:54:01Z</time>
      </trkpt>
      <trkpt lat="45.7856" lon="6.64639">
        <ele>1628</ele>
        <time>2022-08-16T09:54:02Z</time>
      </trkpt>
      <trkpt lat="45.7856" lon="6.64642">
        <ele>1628</ele>
        <time>2022-08-16T09:54:03Z</time>
      </trkpt>
      <trkpt lat="45.7856" lon="6.64645">
        <ele>1628</ele>
        <time>2022-08-16T09:54:04Z</time>
      </trkpt>
      <trkpt lat="45.7856" lon="6.64648">
        <ele>1628</ele>
        <time>2022-08-16T09:54:05Z</time>
      </trkpt>
      <trkpt lat="45.7856" lon="6.64652">
        <ele>1629</ele>
        <time>2022-08-16T09:54:06Z</time>
      </trkpt>
      <trkpt lat="45.78559" lon="6.64655">
        <ele>1629</ele>
        <time>2022-08-16T09:54:07Z</time>
      </trkpt>
      <trkpt lat="45.78559" lon="6.64659">
        <ele>1629</ele>
        <time>2022-08-16T09:54:08Z</time>
      </trkpt>
      <trkpt lat="45.78559" lon="6.64662">
        <ele>1630</ele>
        <time>2022-08-16T09:54:09Z</time>
      </trkpt>
      <trkpt lat="45.78559" lon="6.64666">
        <ele>1630</ele>
        <time>2022-08-16T09:54:10Z</time>
      </trkpt>
      <trkpt lat="45.78559" lon="6.64669">
        <ele>1630</ele>
        <time>2022-08-16T09:54:11Z</time>
      </trkpt>
      <trkpt lat="45.78559" lon="6.64673">
        <ele>1630</ele>
        <time>2022-08-16T09:54:12Z</time>
      </trkpt>
      <trkpt lat="45.78559" lon="6.64676">
        <ele>1630</ele>
        <time>2022-08-16T09:54:13Z</time>
      </trkpt>
      <trkpt lat="45.78559" lon="6.6468">
        <ele>1630</ele>
        <time>2022-08-16T09:54:14Z</time>
      </trkpt>
      <trkpt lat="45.78559" lon="6.64683">
        <ele>1630</ele>
        <time>2022-08-16T09:54:15Z</time>
      </trkpt>
      <trkpt lat="45.78559" lon="6.64687">
        <ele>1630</ele>
        <time>2022-08-16T09:54:16Z</time>
      </trkpt>
      <trkpt lat="45.78559" lon="6.6469">
        <ele>1631</ele>
        <time>2022-08-16T09:54:17Z</time>
      </trkpt>
      <trkpt lat="45.78559" lon="6.64693">
        <ele>1631</ele>
        <time>2022-08-16T09:54:18Z</time>
      </trkpt>
      <trkpt lat="45.78559" lon="6.64696">
        <ele>1632</ele>
        <time>2022-08-16T09:54:19Z</time>
      </trkpt>
      <trkpt lat="45.78558" lon="6.647">
        <ele>1632</ele>
        <time>2022-08-16T09:54:20Z</time>
      </trkpt>
      <trkpt lat="45.78558" lon="6.64703">
        <ele>1632</ele>
        <time>2022-08-16T09:54:21Z</time>
      </trkpt>
      <trkpt lat="45.78558" lon="6.64707">
        <ele>1633</ele>
        <time>2022-08-16T09:54:22Z</time>
      </trkpt>
      <trkpt lat="45.78558" lon="6.6471">
        <ele>1633</ele>
        <time>2022-08-16T09:54:23Z</time>
      </trkpt>
      <trkpt lat="45.78558" lon="6.64713">
        <ele>1633</ele>
        <time>2022-08-16T09:54:24Z</time>
      </trkpt>
      <trkpt lat="45.78558" lon="6.64717">
        <ele>1633</ele>
        <time>2022-08-16T09:54:25Z</time>
      </trkpt>
      <trkpt lat="45.78557" lon="6.6472">
        <ele>1634</ele>
        <time>2022-08-16T09:54:26Z</time>
      </trkpt>
      <trkpt lat="45.78556" lon="6.64723">
        <ele>1633</ele>
        <time>2022-08-16T09:54:27Z</time>
      </trkpt>
      <trkpt lat="45.78556" lon="6.64726">
        <ele>1633</ele>
        <time>2022-08-16T09:54:28Z</time>
      </trkpt>
      <trkpt lat="45.78555" lon="6.64729">
        <ele>1634</ele>
        <time>2022-08-16T09:54:29Z</time>
      </trkpt>
      <trkpt lat="45.78553" lon="6.64732">
        <ele>1634</ele>
        <time>2022-08-16T09:54:30Z</time>
      </trkpt>
      <trkpt lat="45.78552" lon="6.64735">
        <ele>1634</ele>
        <time>2022-08-16T09:54:31Z</time>
      </trkpt>
      <trkpt lat="45.7855" lon="6.64736">
        <ele>1634</ele>
        <time>2022-08-16T09:54:32Z</time>
      </trkpt>
      <trkpt lat="45.78547" lon="6.64737">
        <ele>1634</ele>
        <time>2022-08-16T09:54:33Z</time>
      </trkpt>
      <trkpt lat="45.78546" lon="6.64739">
        <ele>1634</ele>
        <time>2022-08-16T09:54:34Z</time>
      </trkpt>
      <trkpt lat="45.78544" lon="6.6474">
        <ele>1634</ele>
        <time>2022-08-16T09:54:35Z</time>
      </trkpt>
      <trkpt lat="45.78542" lon="6.64741">
        <ele>1633</ele>
        <time>2022-08-16T09:54:36Z</time>
      </trkpt>
      <trkpt lat="45.7854" lon="6.64741">
        <ele>1634</ele>
        <time>2022-08-16T09:54:37Z</time>
      </trkpt>
      <trkpt lat="45.78537" lon="6.64742">
        <ele>1633</ele>
        <time>2022-08-16T09:54:38Z</time>
      </trkpt>
      <trkpt lat="45.78535" lon="6.64742">
        <ele>1633</ele>
        <time>2022-08-16T09:54:39Z</time>
      </trkpt>
      <trkpt lat="45.78533" lon="6.64741">
        <ele>1633</ele>
        <time>2022-08-16T09:54:40Z</time>
      </trkpt>
      <trkpt lat="45.7853" lon="6.6474">
        <ele>1632</ele>
        <time>2022-08-16T09:54:41Z</time>
      </trkpt>
      <trkpt lat="45.78528" lon="6.64739">
        <ele>1633</ele>
        <time>2022-08-16T09:54:42Z</time>
      </trkpt>
      <trkpt lat="45.78525" lon="6.64738">
        <ele>1633</ele>
        <time>2022-08-16T09:54:43Z</time>
      </trkpt>
      <trkpt lat="45.78523" lon="6.64738">
        <ele>1633</ele>
        <time>2022-08-16T09:54:44Z</time>
      </trkpt>
      <trkpt lat="45.7852" lon="6.64738">
        <ele>1633</ele>
        <time>2022-08-16T09:54:45Z</time>
      </trkpt>
      <trkpt lat="45.78518" lon="6.64737">
        <ele>1633</ele>
        <time>2022-08-16T09:54:46Z</time>
      </trkpt>
      <trkpt lat="45.78515" lon="6.64736">
        <ele>1634</ele>
        <time>2022-08-16T09:54:47Z</time>
      </trkpt>
      <trkpt lat="45.78513" lon="6.64736">
        <ele>1634</ele>
        <time>2022-08-16T09:54:48Z</time>
      </trkpt>
      <trkpt lat="45.7851" lon="6.64735">
        <ele>1634</ele>
        <time>2022-08-16T09:54:49Z</time>
      </trkpt>
      <trkpt lat="45.78508" lon="6.64735">
        <ele>1634</ele>
        <time>2022-08-16T09:54:50Z</time>
      </trkpt>
      <trkpt lat="45.78505" lon="6.64735">
        <ele>1634</ele>
        <time>2022-08-16T09:54:51Z</time>
      </trkpt>
      <trkpt lat="45.78502" lon="6.64735">
        <ele>1634</ele>
        <time>2022-08-16T09:54:52Z</time>
      </trkpt>
      <trkpt lat="45.785" lon="6.64735">
        <ele>1635</ele>
        <time>2022-08-16T09:54:53Z</time>
      </trkpt>
      <trkpt lat="45.78497" lon="6.64735">
        <ele>1634</ele>
        <time>2022-08-16T09:54:54Z</time>
      </trkpt>
      <trkpt lat="45.78495" lon="6.64735">
        <ele>1634</ele>
        <time>2022-08-16T09:54:55Z</time>
      </trkpt>
      <trkpt lat="45.78492" lon="6.64735">
        <ele>1635</ele>
        <time>2022-08-16T09:54:56Z</time>
      </trkpt>
      <trkpt lat="45.78489" lon="6.64736">
        <ele>1634</ele>
        <time>2022-08-16T09:54:57Z</time>
      </trkpt>
      <trkpt lat="45.78487" lon="6.64737">
        <ele>1634</ele>
        <time>2022-08-16T09:54:58Z</time>
      </trkpt>
      <trkpt lat="45.78483" lon="6.64739">
        <ele>1633</ele>
        <time>2022-08-16T09:54:59Z</time>
      </trkpt>
      <trkpt lat="45.78481" lon="6.64741">
        <ele>1633</ele>
        <time>2022-08-16T09:55:00Z</time>
      </trkpt>
      <trkpt lat="45.78478" lon="6.64743">
        <ele>1633</ele>
        <time>2022-08-16T09:55:01Z</time>
      </trkpt>
      <trkpt lat="45.78476" lon="6.64746">
        <ele>1634</ele>
        <time>2022-08-16T09:55:02Z</time>
      </trkpt>
      <trkpt lat="45.78473" lon="6.64749">
        <ele>1634</ele>
        <time>2022-08-16T09:55:03Z</time>
      </trkpt>
      <trkpt lat="45.7847" lon="6.64752">
        <ele>1635</ele>
        <time>2022-08-16T09:55:04Z</time>
      </trkpt>
      <trkpt lat="45.78468" lon="6.64755">
        <ele>1635</ele>
        <time>2022-08-16T09:55:05Z</time>
      </trkpt>
      <trkpt lat="45.78466" lon="6.64758">
        <ele>1635</ele>
        <time>2022-08-16T09:55:06Z</time>
      </trkpt>
      <trkpt lat="45.78463" lon="6.64762">
        <ele>1636</ele>
        <time>2022-08-16T09:55:07Z</time>
      </trkpt>
      <trkpt lat="45.78462" lon="6.64765">
        <ele>1636</ele>
        <time>2022-08-16T09:55:08Z</time>
      </trkpt>
      <trkpt lat="45.7846" lon="6.64768">
        <ele>1636</ele>
        <time>2022-08-16T09:55:09Z</time>
      </trkpt>
      <trkpt lat="45.78459" lon="6.64771">
        <ele>1636</ele>
        <time>2022-08-16T09:55:10Z</time>
      </trkpt>
      <trkpt lat="45.78457" lon="6.64774">
        <ele>1636</ele>
        <time>2022-08-16T09:55:11Z</time>
      </trkpt>
      <trkpt lat="45.78455" lon="6.64777">
        <ele>1636</ele>
        <time>2022-08-16T09:55:12Z</time>
      </trkpt>
      <trkpt lat="45.78454" lon="6.6478">
        <ele>1637</ele>
        <time>2022-08-16T09:55:13Z</time>
      </trkpt>
      <trkpt lat="45.78452" lon="6.64784">
        <ele>1637</ele>
        <time>2022-08-16T09:55:14Z</time>
      </trkpt>
      <trkpt lat="45.78451" lon="6.64787">
        <ele>1637</ele>
        <time>2022-08-16T09:55:15Z</time>
      </trkpt>
      <trkpt lat="45.78449" lon="6.6479">
        <ele>1637</ele>
        <time>2022-08-16T09:55:16Z</time>
      </trkpt>
      <trkpt lat="45.78448" lon="6.64793">
        <ele>1638</ele>
        <time>2022-08-16T09:55:17Z</time>
      </trkpt>
      <trkpt lat="45.78447" lon="6.64795">
        <ele>1638</ele>
        <time>2022-08-16T09:55:18Z</time>
      </trkpt>
      <trkpt lat="45.78447" lon="6.64798">
        <ele>1638</ele>
        <time>2022-08-16T09:55:19Z</time>
      </trkpt>
      <trkpt lat="45.78446" lon="6.64801">
        <ele>1638</ele>
        <time>2022-08-16T09:55:20Z</time>
      </trkpt>
      <trkpt lat="45.78444" lon="6.64804">
        <ele>1638</ele>
        <time>2022-08-16T09:55:21Z</time>
      </trkpt>
      <trkpt lat="45.78443" lon="6.64807">
        <ele>1638</ele>
        <time>2022-08-16T09:55:22Z</time>
      </trkpt>
      <trkpt lat="45.78442" lon="6.6481">
        <ele>1639</ele>
        <time>2022-08-16T09:55:23Z</time>
      </trkpt>
      <trkpt lat="45.78442" lon="6.64813">
        <ele>1639</ele>
        <time>2022-08-16T09:55:24Z</time>
      </trkpt>
      <trkpt lat="45.78441" lon="6.64815">
        <ele>1640</ele>
        <time>2022-08-16T09:55:25Z</time>
      </trkpt>
      <trkpt lat="45.78441" lon="6.64818">
        <ele>1640</ele>
        <time>2022-08-16T09:55:26Z</time>
      </trkpt>
      <trkpt lat="45.78441" lon="6.64821">
        <ele>1640</ele>
        <time>2022-08-16T09:55:27Z</time>
      </trkpt>
      <trkpt lat="45.7844" lon="6.64824">
        <ele>1640</ele>
        <time>2022-08-16T09:55:28Z</time>
      </trkpt>
      <trkpt lat="45.7844" lon="6.64827">
        <ele>1640</ele>
        <time>2022-08-16T09:55:29Z</time>
      </trkpt>
      <trkpt lat="45.7844" lon="6.64829">
        <ele>1641</ele>
        <time>2022-08-16T09:55:30Z</time>
      </trkpt>
      <trkpt lat="45.7844" lon="6.64833">
        <ele>1641</ele>
        <time>2022-08-16T09:55:31Z</time>
      </trkpt>
      <trkpt lat="45.7844" lon="6.64836">
        <ele>1641</ele>
        <time>2022-08-16T09:55:32Z</time>
      </trkpt>
      <trkpt lat="45.7844" lon="6.6484">
        <ele>1642</ele>
        <time>2022-08-16T09:55:33Z</time>
      </trkpt>
      <trkpt lat="45.7844" lon="6.64843">
        <ele>1642</ele>
        <time>2022-08-16T09:55:34Z</time>
      </trkpt>
      <trkpt lat="45.7844" lon="6.64846">
        <ele>1642</ele>
        <time>2022-08-16T09:55:35Z</time>
      </trkpt>
      <trkpt lat="45.7844" lon="6.64849">
        <ele>1642</ele>
        <time>2022-08-16T09:55:36Z</time>
      </trkpt>
      <trkpt lat="45.7844" lon="6.64851">
        <ele>1642</ele>
        <time>2022-08-16T09:55:37Z</time>
      </trkpt>
      <trkpt lat="45.7844" lon="6.64854">
        <ele>1642</ele>
        <time>2022-08-16T09:55:38Z</time>
      </trkpt>
      <trkpt lat="45.7844" lon="6.64856">
        <ele>1643</ele>
        <time>2022-08-16T09:55:39Z</time>
      </trkpt>
      <trkpt lat="45.7844" lon="6.64859">
        <ele>1642</ele>
        <time>2022-08-16T09:55:40Z</time>
      </trkpt>
      <trkpt lat="45.7844" lon="6.64861">
        <ele>1642</ele>
        <time>2022-08-16T09:55:41Z</time>
      </trkpt>
      <trkpt lat="45.78439" lon="6.64864">
        <ele>1643</ele>
        <time>2022-08-16T09:55:42Z</time>
      </trkpt>
      <trkpt lat="45.78439" lon="6.64867">
        <ele>1643</ele>
        <time>2022-08-16T09:55:43Z</time>
      </trkpt>
      <trkpt lat="45.78439" lon="6.6487">
        <ele>1643</ele>
        <time>2022-08-16T09:55:44Z</time>
      </trkpt>
      <trkpt lat="45.78439" lon="6.64872">
        <ele>1644</ele>
        <time>2022-08-16T09:55:45Z</time>
      </trkpt>
      <trkpt lat="45.78439" lon="6.64875">
        <ele>1644</ele>
        <time>2022-08-16T09:55:46Z</time>
      </trkpt>
      <trkpt lat="45.78439" lon="6.64877">
        <ele>1644</ele>
        <time>2022-08-16T09:55:47Z</time>
      </trkpt>
      <trkpt lat="45.7844" lon="6.6488">
        <ele>1645</ele>
        <time>2022-08-16T09:55:48Z</time>
      </trkpt>
      <trkpt lat="45.7844" lon="6.64883">
        <ele>1645</ele>
        <time>2022-08-16T09:55:49Z</time>
      </trkpt>
      <trkpt lat="45.7844" lon="6.64885">
        <ele>1646</ele>
        <time>2022-08-16T09:55:50Z</time>
      </trkpt>
      <trkpt lat="45.7844" lon="6.64888">
        <ele>1646</ele>
        <time>2022-08-16T09:55:51Z</time>
      </trkpt>
      <trkpt lat="45.7844" lon="6.64891">
        <ele>1646</ele>
        <time>2022-08-16T09:55:52Z</time>
      </trkpt>
      <trkpt lat="45.7844" lon="6.64894">
        <ele>1646</ele>
        <time>2022-08-16T09:55:53Z</time>
      </trkpt>
      <trkpt lat="45.78441" lon="6.64897">
        <ele>1647</ele>
        <time>2022-08-16T09:55:54Z</time>
      </trkpt>
      <trkpt lat="45.78441" lon="6.64901">
        <ele>1646</ele>
        <time>2022-08-16T09:55:55Z</time>
      </trkpt>
      <trkpt lat="45.78441" lon="6.64904">
        <ele>1646</ele>
        <time>2022-08-16T09:55:56Z</time>
      </trkpt>
      <trkpt lat="45.78441" lon="6.64907">
        <ele>1646</ele>
        <time>2022-08-16T09:55:57Z</time>
      </trkpt>
      <trkpt lat="45.78441" lon="6.6491">
        <ele>1646</ele>
        <time>2022-08-16T09:55:58Z</time>
      </trkpt>
      <trkpt lat="45.78441" lon="6.64913">
        <ele>1647</ele>
        <time>2022-08-16T09:55:59Z</time>
      </trkpt>
      <trkpt lat="45.78441" lon="6.64916">
        <ele>1647</ele>
        <time>2022-08-16T09:56:00Z</time>
      </trkpt>
      <trkpt lat="45.7844" lon="6.6492">
        <ele>1647</ele>
        <time>2022-08-16T09:56:01Z</time>
      </trkpt>
      <trkpt lat="45.7844" lon="6.64923">
        <ele>1647</ele>
        <time>2022-08-16T09:56:02Z</time>
      </trkpt>
      <trkpt lat="45.78439" lon="6.64926">
        <ele>1648</ele>
        <time>2022-08-16T09:56:03Z</time>
      </trkpt>
      <trkpt lat="45.78438" lon="6.64929">
        <ele>1648</ele>
        <time>2022-08-16T09:56:04Z</time>
      </trkpt>
      <trkpt lat="45.78438" lon="6.64932">
        <ele>1648</ele>
        <time>2022-08-16T09:56:05Z</time>
      </trkpt>
      <trkpt lat="45.78438" lon="6.64935">
        <ele>1648</ele>
        <time>2022-08-16T09:56:06Z</time>
      </trkpt>
      <trkpt lat="45.78437" lon="6.64938">
        <ele>1648</ele>
        <time>2022-08-16T09:56:07Z</time>
      </trkpt>
      <trkpt lat="45.78437" lon="6.64941">
        <ele>1648</ele>
        <time>2022-08-16T09:56:08Z</time>
      </trkpt>
      <trkpt lat="45.78437" lon="6.64945">
        <ele>1648</ele>
        <time>2022-08-16T09:56:09Z</time>
      </trkpt>
      <trkpt lat="45.78437" lon="6.64949">
        <ele>1648</ele>
        <time>2022-08-16T09:56:10Z</time>
      </trkpt>
      <trkpt lat="45.78437" lon="6.64952">
        <ele>1649</ele>
        <time>2022-08-16T09:56:11Z</time>
      </trkpt>
      <trkpt lat="45.78436" lon="6.64955">
        <ele>1649</ele>
        <time>2022-08-16T09:56:12Z</time>
      </trkpt>
      <trkpt lat="45.78437" lon="6.64958">
        <ele>1649</ele>
        <time>2022-08-16T09:56:13Z</time>
      </trkpt>
      <trkpt lat="45.78437" lon="6.64961">
        <ele>1649</ele>
        <time>2022-08-16T09:56:14Z</time>
      </trkpt>
      <trkpt lat="45.78438" lon="6.64963">
        <ele>1649</ele>
        <time>2022-08-16T09:56:15Z</time>
      </trkpt>
      <trkpt lat="45.78438" lon="6.64966">
        <ele>1650</ele>
        <time>2022-08-16T09:56:16Z</time>
      </trkpt>
      <trkpt lat="45.78438" lon="6.64969">
        <ele>1651</ele>
        <time>2022-08-16T09:56:17Z</time>
      </trkpt>
      <trkpt lat="45.78438" lon="6.64972">
        <ele>1651</ele>
        <time>2022-08-16T09:56:18Z</time>
      </trkpt>
      <trkpt lat="45.78438" lon="6.64975">
        <ele>1652</ele>
        <time>2022-08-16T09:56:19Z</time>
      </trkpt>
      <trkpt lat="45.78438" lon="6.64978">
        <ele>1652</ele>
        <time>2022-08-16T09:56:20Z</time>
      </trkpt>
      <trkpt lat="45.78438" lon="6.64981">
        <ele>1652</ele>
        <time>2022-08-16T09:56:21Z</time>
      </trkpt>
      <trkpt lat="45.78438" lon="6.64984">
        <ele>1653</ele>
        <time>2022-08-16T09:56:22Z</time>
      </trkpt>
      <trkpt lat="45.78438" lon="6.64986">
        <ele>1653</ele>
        <time>2022-08-16T09:56:23Z</time>
      </trkpt>
      <trkpt lat="45.78438" lon="6.64989">
        <ele>1654</ele>
        <time>2022-08-16T09:56:24Z</time>
      </trkpt>
      <trkpt lat="45.78437" lon="6.64992">
        <ele>1654</ele>
        <time>2022-08-16T09:56:25Z</time>
      </trkpt>
      <trkpt lat="45.78436" lon="6.64995">
        <ele>1654</ele>
        <time>2022-08-16T09:56:26Z</time>
      </trkpt>
      <trkpt lat="45.78436" lon="6.64997">
        <ele>1655</ele>
        <time>2022-08-16T09:56:27Z</time>
      </trkpt>
      <trkpt lat="45.78435" lon="6.65">
        <ele>1655</ele>
        <time>2022-08-16T09:56:28Z</time>
      </trkpt>
      <trkpt lat="45.78434" lon="6.65003">
        <ele>1655</ele>
        <time>2022-08-16T09:56:29Z</time>
      </trkpt>
      <trkpt lat="45.78434" lon="6.65005">
        <ele>1655</ele>
        <time>2022-08-16T09:56:30Z</time>
      </trkpt>
      <trkpt lat="45.78433" lon="6.65008">
        <ele>1655</ele>
        <time>2022-08-16T09:56:31Z</time>
      </trkpt>
      <trkpt lat="45.78433" lon="6.65011">
        <ele>1655</ele>
        <time>2022-08-16T09:56:32Z</time>
      </trkpt>
      <trkpt lat="45.78432" lon="6.65013">
        <ele>1655</ele>
        <time>2022-08-16T09:56:33Z</time>
      </trkpt>
      <trkpt lat="45.78432" lon="6.65016">
        <ele>1656</ele>
        <time>2022-08-16T09:56:34Z</time>
      </trkpt>
      <trkpt lat="45.78431" lon="6.65019">
        <ele>1656</ele>
        <time>2022-08-16T09:56:35Z</time>
      </trkpt>
      <trkpt lat="45.7843" lon="6.65023">
        <ele>1656</ele>
        <time>2022-08-16T09:56:36Z</time>
      </trkpt>
      <trkpt lat="45.78429" lon="6.65026">
        <ele>1656</ele>
        <time>2022-08-16T09:56:37Z</time>
      </trkpt>
      <trkpt lat="45.78429" lon="6.65029">
        <ele>1656</ele>
        <time>2022-08-16T09:56:38Z</time>
      </trkpt>
      <trkpt lat="45.78428" lon="6.65032">
        <ele>1656</ele>
        <time>2022-08-16T09:56:39Z</time>
      </trkpt>
      <trkpt lat="45.78427" lon="6.65035">
        <ele>1656</ele>
        <time>2022-08-16T09:56:40Z</time>
      </trkpt>
      <trkpt lat="45.78427" lon="6.65037">
        <ele>1657</ele>
        <time>2022-08-16T09:56:41Z</time>
      </trkpt>
      <trkpt lat="45.78425" lon="6.6504">
        <ele>1657</ele>
        <time>2022-08-16T09:56:42Z</time>
      </trkpt>
      <trkpt lat="45.78424" lon="6.65042">
        <ele>1658</ele>
        <time>2022-08-16T09:56:43Z</time>
      </trkpt>
      <trkpt lat="45.78423" lon="6.65045">
        <ele>1658</ele>
        <time>2022-08-16T09:56:44Z</time>
      </trkpt>
      <trkpt lat="45.78421" lon="6.65047">
        <ele>1658</ele>
        <time>2022-08-16T09:56:45Z</time>
      </trkpt>
      <trkpt lat="45.7842" lon="6.65049">
        <ele>1657</ele>
        <time>2022-08-16T09:56:46Z</time>
      </trkpt>
      <trkpt lat="45.78418" lon="6.65051">
        <ele>1657</ele>
        <time>2022-08-16T09:56:47Z</time>
      </trkpt>
      <trkpt lat="45.78416" lon="6.65053">
        <ele>1657</ele>
        <time>2022-08-16T09:56:48Z</time>
      </trkpt>
      <trkpt lat="45.78415" lon="6.65053">
        <ele>1656</ele>
        <time>2022-08-16T09:56:49Z</time>
      </trkpt>
      <trkpt lat="45.78413" lon="6.65054">
        <ele>1656</ele>
        <time>2022-08-16T09:56:50Z</time>
      </trkpt>
      <trkpt lat="45.7841" lon="6.65055">
        <ele>1657</ele>
        <time>2022-08-16T09:56:51Z</time>
      </trkpt>
      <trkpt lat="45.78409" lon="6.65055">
        <ele>1657</ele>
        <time>2022-08-16T09:56:52Z</time>
      </trkpt>
      <trkpt lat="45.78407" lon="6.65055">
        <ele>1658</ele>
        <time>2022-08-16T09:56:53Z</time>
      </trkpt>
      <trkpt lat="45.78405" lon="6.65055">
        <ele>1658</ele>
        <time>2022-08-16T09:56:54Z</time>
      </trkpt>
      <trkpt lat="45.78404" lon="6.65056">
        <ele>1658</ele>
        <time>2022-08-16T09:56:55Z</time>
      </trkpt>
      <trkpt lat="45.78402" lon="6.65055">
        <ele>1658</ele>
        <time>2022-08-16T09:56:56Z</time>
      </trkpt>
      <trkpt lat="45.784" lon="6.65055">
        <ele>1659</ele>
        <time>2022-08-16T09:56:57Z</time>
      </trkpt>
      <trkpt lat="45.78399" lon="6.65055">
        <ele>1659</ele>
        <time>2022-08-16T09:56:58Z</time>
      </trkpt>
      <trkpt lat="45.78397" lon="6.65055">
        <ele>1658</ele>
        <time>2022-08-16T09:56:59Z</time>
      </trkpt>
      <trkpt lat="45.78396" lon="6.65055">
        <ele>1658</ele>
        <time>2022-08-16T09:57:00Z</time>
      </trkpt>
      <trkpt lat="45.78395" lon="6.65054">
        <ele>1658</ele>
        <time>2022-08-16T09:57:01Z</time>
      </trkpt>
      <trkpt lat="45.78393" lon="6.65054">
        <ele>1658</ele>
        <time>2022-08-16T09:57:02Z</time>
      </trkpt>
      <trkpt lat="45.78392" lon="6.65054">
        <ele>1659</ele>
        <time>2022-08-16T09:57:03Z</time>
      </trkpt>
      <trkpt lat="45.7839" lon="6.65054">
        <ele>1659</ele>
        <time>2022-08-16T09:57:04Z</time>
      </trkpt>
      <trkpt lat="45.78388" lon="6.65054">
        <ele>1658</ele>
        <time>2022-08-16T09:57:05Z</time>
      </trkpt>
      <trkpt lat="45.78386" lon="6.65053">
        <ele>1658</ele>
        <time>2022-08-16T09:57:06Z</time>
      </trkpt>
      <trkpt lat="45.78385" lon="6.65054">
        <ele>1658</ele>
        <time>2022-08-16T09:57:07Z</time>
      </trkpt>
      <trkpt lat="45.78383" lon="6.65054">
        <ele>1658</ele>
        <time>2022-08-16T09:57:08Z</time>
      </trkpt>
      <trkpt lat="45.78381" lon="6.65055">
        <ele>1658</ele>
        <time>2022-08-16T09:57:09Z</time>
      </trkpt>
      <trkpt lat="45.78379" lon="6.65055">
        <ele>1658</ele>
        <time>2022-08-16T09:57:10Z</time>
      </trkpt>
      <trkpt lat="45.78377" lon="6.65056">
        <ele>1658</ele>
        <time>2022-08-16T09:57:11Z</time>
      </trkpt>
      <trkpt lat="45.78375" lon="6.65057">
        <ele>1658</ele>
        <time>2022-08-16T09:57:12Z</time>
      </trkpt>
      <trkpt lat="45.78372" lon="6.65057">
        <ele>1659</ele>
        <time>2022-08-16T09:57:13Z</time>
      </trkpt>
      <trkpt lat="45.7837" lon="6.65058">
        <ele>1659</ele>
        <time>2022-08-16T09:57:14Z</time>
      </trkpt>
      <trkpt lat="45.78368" lon="6.65058">
        <ele>1659</ele>
        <time>2022-08-16T09:57:15Z</time>
      </trkpt>
      <trkpt lat="45.78366" lon="6.65059">
        <ele>1659</ele>
        <time>2022-08-16T09:57:16Z</time>
      </trkpt>
      <trkpt lat="45.78364" lon="6.6506">
        <ele>1659</ele>
        <time>2022-08-16T09:57:17Z</time>
      </trkpt>
      <trkpt lat="45.78363" lon="6.65061">
        <ele>1659</ele>
        <time>2022-08-16T09:57:18Z</time>
      </trkpt>
      <trkpt lat="45.78361" lon="6.65061">
        <ele>1659</ele>
        <time>2022-08-16T09:57:19Z</time>
      </trkpt>
      <trkpt lat="45.78359" lon="6.65062">
        <ele>1659</ele>
        <time>2022-08-16T09:57:20Z</time>
      </trkpt>
      <trkpt lat="45.78357" lon="6.65063">
        <ele>1660</ele>
        <time>2022-08-16T09:57:21Z</time>
      </trkpt>
      <trkpt lat="45.78355" lon="6.65064">
        <ele>1660</ele>
        <time>2022-08-16T09:57:22Z</time>
      </trkpt>
      <trkpt lat="45.78354" lon="6.65064">
        <ele>1660</ele>
        <time>2022-08-16T09:57:23Z</time>
      </trkpt>
      <trkpt lat="45.78352" lon="6.65065">
        <ele>1661</ele>
        <time>2022-08-16T09:57:24Z</time>
      </trkpt>
      <trkpt lat="45.7835" lon="6.65066">
        <ele>1661</ele>
        <time>2022-08-16T09:57:25Z</time>
      </trkpt>
      <trkpt lat="45.78348" lon="6.65067">
        <ele>1661</ele>
        <time>2022-08-16T09:57:26Z</time>
      </trkpt>
      <trkpt lat="45.78347" lon="6.65068">
        <ele>1661</ele>
        <time>2022-08-16T09:57:27Z</time>
      </trkpt>
      <trkpt lat="45.78345" lon="6.6507">
        <ele>1661</ele>
        <time>2022-08-16T09:57:28Z</time>
      </trkpt>
      <trkpt lat="45.78344" lon="6.65071">
        <ele>1661</ele>
        <time>2022-08-16T09:57:29Z</time>
      </trkpt>
      <trkpt lat="45.78342" lon="6.65073">
        <ele>1661</ele>
        <time>2022-08-16T09:57:30Z</time>
      </trkpt>
      <trkpt lat="45.78341" lon="6.65074">
        <ele>1662</ele>
        <time>2022-08-16T09:57:31Z</time>
      </trkpt>
      <trkpt lat="45.7834" lon="6.65076">
        <ele>1662</ele>
        <time>2022-08-16T09:57:32Z</time>
      </trkpt>
      <trkpt lat="45.78338" lon="6.65078">
        <ele>1662</ele>
        <time>2022-08-16T09:57:33Z</time>
      </trkpt>
      <trkpt lat="45.78337" lon="6.6508">
        <ele>1663</ele>
        <time>2022-08-16T09:57:34Z</time>
      </trkpt>
      <trkpt lat="45.78335" lon="6.65082">
        <ele>1663</ele>
        <time>2022-08-16T09:57:35Z</time>
      </trkpt>
      <trkpt lat="45.78334" lon="6.65084">
        <ele>1664</ele>
        <time>2022-08-16T09:57:36Z</time>
      </trkpt>
      <trkpt lat="45.78332" lon="6.65087">
        <ele>1664</ele>
        <time>2022-08-16T09:57:37Z</time>
      </trkpt>
      <trkpt lat="45.78331" lon="6.65088">
        <ele>1664</ele>
        <time>2022-08-16T09:57:38Z</time>
      </trkpt>
      <trkpt lat="45.7833" lon="6.6509">
        <ele>1665</ele>
        <time>2022-08-16T09:57:39Z</time>
      </trkpt>
      <trkpt lat="45.78329" lon="6.65091">
        <ele>1665</ele>
        <time>2022-08-16T09:57:40Z</time>
      </trkpt>
      <trkpt lat="45.78327" lon="6.65093">
        <ele>1665</ele>
        <time>2022-08-16T09:57:41Z</time>
      </trkpt>
      <trkpt lat="45.78325" lon="6.65095">
        <ele>1665</ele>
        <time>2022-08-16T09:57:42Z</time>
      </trkpt>
      <trkpt lat="45.78324" lon="6.65097">
        <ele>1666</ele>
        <time>2022-08-16T09:57:43Z</time>
      </trkpt>
      <trkpt lat="45.78322" lon="6.65099">
        <ele>1666</ele>
        <time>2022-08-16T09:57:44Z</time>
      </trkpt>
      <trkpt lat="45.78321" lon="6.65101">
        <ele>1666</ele>
        <time>2022-08-16T09:57:45Z</time>
      </trkpt>
      <trkpt lat="45.7832" lon="6.65103">
        <ele>1667</ele>
        <time>2022-08-16T09:57:46Z</time>
      </trkpt>
      <trkpt lat="45.78318" lon="6.65105">
        <ele>1666</ele>
        <time>2022-08-16T09:57:47Z</time>
      </trkpt>
      <trkpt lat="45.78316" lon="6.65106">
        <ele>1667</ele>
        <time>2022-08-16T09:57:48Z</time>
      </trkpt>
      <trkpt lat="45.78315" lon="6.65108">
        <ele>1667</ele>
        <time>2022-08-16T09:57:49Z</time>
      </trkpt>
      <trkpt lat="45.78313" lon="6.65109">
        <ele>1667</ele>
        <time>2022-08-16T09:57:50Z</time>
      </trkpt>
      <trkpt lat="45.78311" lon="6.65109">
        <ele>1667</ele>
        <time>2022-08-16T09:57:51Z</time>
      </trkpt>
      <trkpt lat="45.7831" lon="6.65109">
        <ele>1667</ele>
        <time>2022-08-16T09:57:52Z</time>
      </trkpt>
      <trkpt lat="45.78308" lon="6.65109">
        <ele>1668</ele>
        <time>2022-08-16T09:57:53Z</time>
      </trkpt>
      <trkpt lat="45.78306" lon="6.6511">
        <ele>1668</ele>
        <time>2022-08-16T09:57:54Z</time>
      </trkpt>
      <trkpt lat="45.78304" lon="6.65111">
        <ele>1669</ele>
        <time>2022-08-16T09:57:55Z</time>
      </trkpt>
      <trkpt lat="45.78303" lon="6.65111">
        <ele>1669</ele>
        <time>2022-08-16T09:57:56Z</time>
      </trkpt>
      <trkpt lat="45.78302" lon="6.65111">
        <ele>1669</ele>
        <time>2022-08-16T09:57:57Z</time>
      </trkpt>
      <trkpt lat="45.78301" lon="6.65111">
        <ele>1668</ele>
        <time>2022-08-16T09:57:58Z</time>
      </trkpt>
      <trkpt lat="45.78299" lon="6.65111">
        <ele>1669</ele>
        <time>2022-08-16T09:57:59Z</time>
      </trkpt>
      <trkpt lat="45.78297" lon="6.65111">
        <ele>1669</ele>
        <time>2022-08-16T09:58:00Z</time>
      </trkpt>
      <trkpt lat="45.78295" lon="6.65111">
        <ele>1669</ele>
        <time>2022-08-16T09:58:01Z</time>
      </trkpt>
      <trkpt lat="45.78294" lon="6.65111">
        <ele>1670</ele>
        <time>2022-08-16T09:58:02Z</time>
      </trkpt>
      <trkpt lat="45.78292" lon="6.65111">
        <ele>1670</ele>
        <time>2022-08-16T09:58:03Z</time>
      </trkpt>
      <trkpt lat="45.78291" lon="6.65111">
        <ele>1669</ele>
        <time>2022-08-16T09:58:04Z</time>
      </trkpt>
      <trkpt lat="45.78289" lon="6.65111">
        <ele>1669</ele>
        <time>2022-08-16T09:58:05Z</time>
      </trkpt>
      <trkpt lat="45.78287" lon="6.65112">
        <ele>1670</ele>
        <time>2022-08-16T09:58:06Z</time>
      </trkpt>
      <trkpt lat="45.78285" lon="6.65113">
        <ele>1670</ele>
        <time>2022-08-16T09:58:07Z</time>
      </trkpt>
      <trkpt lat="45.78283" lon="6.65114">
        <ele>1670</ele>
        <time>2022-08-16T09:58:08Z</time>
      </trkpt>
      <trkpt lat="45.7828" lon="6.65114">
        <ele>1670</ele>
        <time>2022-08-16T09:58:09Z</time>
      </trkpt>
      <trkpt lat="45.78277" lon="6.65116">
        <ele>1670</ele>
        <time>2022-08-16T09:58:10Z</time>
      </trkpt>
      <trkpt lat="45.78276" lon="6.65117">
        <ele>1670</ele>
        <time>2022-08-16T09:58:11Z</time>
      </trkpt>
      <trkpt lat="45.78274" lon="6.65118">
        <ele>1670</ele>
        <time>2022-08-16T09:58:12Z</time>
      </trkpt>
      <trkpt lat="45.78272" lon="6.6512">
        <ele>1671</ele>
        <time>2022-08-16T09:58:13Z</time>
      </trkpt>
      <trkpt lat="45.7827" lon="6.65123">
        <ele>1671</ele>
        <time>2022-08-16T09:58:14Z</time>
      </trkpt>
      <trkpt lat="45.78268" lon="6.65125">
        <ele>1672</ele>
        <time>2022-08-16T09:58:15Z</time>
      </trkpt>
      <trkpt lat="45.78266" lon="6.65127">
        <ele>1673</ele>
        <time>2022-08-16T09:58:16Z</time>
      </trkpt>
      <trkpt lat="45.78265" lon="6.65128">
        <ele>1673</ele>
        <time>2022-08-16T09:58:17Z</time>
      </trkpt>
      <trkpt lat="45.78263" lon="6.65131">
        <ele>1673</ele>
        <time>2022-08-16T09:58:18Z</time>
      </trkpt>
      <trkpt lat="45.78262" lon="6.65133">
        <ele>1673</ele>
        <time>2022-08-16T09:58:19Z</time>
      </trkpt>
      <trkpt lat="45.7826" lon="6.65136">
        <ele>1673</ele>
        <time>2022-08-16T09:58:20Z</time>
      </trkpt>
      <trkpt lat="45.78258" lon="6.65138">
        <ele>1674</ele>
        <time>2022-08-16T09:58:21Z</time>
      </trkpt>
      <trkpt lat="45.78256" lon="6.65139">
        <ele>1674</ele>
        <time>2022-08-16T09:58:22Z</time>
      </trkpt>
      <trkpt lat="45.78254" lon="6.65141">
        <ele>1674</ele>
        <time>2022-08-16T09:58:23Z</time>
      </trkpt>
      <trkpt lat="45.78252" lon="6.65143">
        <ele>1675</ele>
        <time>2022-08-16T09:58:24Z</time>
      </trkpt>
      <trkpt lat="45.78251" lon="6.65145">
        <ele>1674</ele>
        <time>2022-08-16T09:58:25Z</time>
      </trkpt>
      <trkpt lat="45.7825" lon="6.65147">
        <ele>1675</ele>
        <time>2022-08-16T09:58:26Z</time>
      </trkpt>
      <trkpt lat="45.78248" lon="6.65148">
        <ele>1675</ele>
        <time>2022-08-16T09:58:27Z</time>
      </trkpt>
      <trkpt lat="45.78246" lon="6.65149">
        <ele>1674</ele>
        <time>2022-08-16T09:58:28Z</time>
      </trkpt>
      <trkpt lat="45.78244" lon="6.65151">
        <ele>1675</ele>
        <time>2022-08-16T09:58:29Z</time>
      </trkpt>
      <trkpt lat="45.78243" lon="6.65153">
        <ele>1675</ele>
        <time>2022-08-16T09:58:30Z</time>
      </trkpt>
      <trkpt lat="45.78241" lon="6.65155">
        <ele>1675</ele>
        <time>2022-08-16T09:58:31Z</time>
      </trkpt>
      <trkpt lat="45.78239" lon="6.65157">
        <ele>1675</ele>
        <time>2022-08-16T09:58:32Z</time>
      </trkpt>
      <trkpt lat="45.78238" lon="6.65159">
        <ele>1675</ele>
        <time>2022-08-16T09:58:33Z</time>
      </trkpt>
      <trkpt lat="45.78236" lon="6.65161">
        <ele>1675</ele>
        <time>2022-08-16T09:58:34Z</time>
      </trkpt>
      <trkpt lat="45.78235" lon="6.65163">
        <ele>1675</ele>
        <time>2022-08-16T09:58:35Z</time>
      </trkpt>
      <trkpt lat="45.78233" lon="6.65165">
        <ele>1675</ele>
        <time>2022-08-16T09:58:36Z</time>
      </trkpt>
      <trkpt lat="45.78232" lon="6.65167">
        <ele>1675</ele>
        <time>2022-08-16T09:58:37Z</time>
      </trkpt>
      <trkpt lat="45.7823" lon="6.65169">
        <ele>1675</ele>
        <time>2022-08-16T09:58:38Z</time>
      </trkpt>
      <trkpt lat="45.78228" lon="6.65171">
        <ele>1675</ele>
        <time>2022-08-16T09:58:39Z</time>
      </trkpt>
      <trkpt lat="45.78227" lon="6.65173">
        <ele>1675</ele>
        <time>2022-08-16T09:58:40Z</time>
      </trkpt>
      <trkpt lat="45.78225" lon="6.65175">
        <ele>1675</ele>
        <time>2022-08-16T09:58:41Z</time>
      </trkpt>
      <trkpt lat="45.78224" lon="6.65177">
        <ele>1675</ele>
        <time>2022-08-16T09:58:42Z</time>
      </trkpt>
      <trkpt lat="45.78222" lon="6.65179">
        <ele>1676</ele>
        <time>2022-08-16T09:58:43Z</time>
      </trkpt>
      <trkpt lat="45.78221" lon="6.6518">
        <ele>1676</ele>
        <time>2022-08-16T09:58:44Z</time>
      </trkpt>
      <trkpt lat="45.7822" lon="6.65182">
        <ele>1676</ele>
        <time>2022-08-16T09:58:45Z</time>
      </trkpt>
      <trkpt lat="45.78218" lon="6.65184">
        <ele>1676</ele>
        <time>2022-08-16T09:58:46Z</time>
      </trkpt>
      <trkpt lat="45.78217" lon="6.65185">
        <ele>1677</ele>
        <time>2022-08-16T09:58:47Z</time>
      </trkpt>
      <trkpt lat="45.78215" lon="6.65187">
        <ele>1677</ele>
        <time>2022-08-16T09:58:48Z</time>
      </trkpt>
      <trkpt lat="45.78214" lon="6.65189">
        <ele>1677</ele>
        <time>2022-08-16T09:58:49Z</time>
      </trkpt>
      <trkpt lat="45.78212" lon="6.65191">
        <ele>1677</ele>
        <time>2022-08-16T09:58:50Z</time>
      </trkpt>
      <trkpt lat="45.78211" lon="6.65193">
        <ele>1678</ele>
        <time>2022-08-16T09:58:51Z</time>
      </trkpt>
      <trkpt lat="45.7821" lon="6.65195">
        <ele>1678</ele>
        <time>2022-08-16T09:58:52Z</time>
      </trkpt>
      <trkpt lat="45.78209" lon="6.65198">
        <ele>1678</ele>
        <time>2022-08-16T09:58:53Z</time>
      </trkpt>
      <trkpt lat="45.78208" lon="6.652">
        <ele>1679</ele>
        <time>2022-08-16T09:58:54Z</time>
      </trkpt>
      <trkpt lat="45.78208" lon="6.65203">
        <ele>1679</ele>
        <time>2022-08-16T09:58:55Z</time>
      </trkpt>
      <trkpt lat="45.78207" lon="6.65206">
        <ele>1680</ele>
        <time>2022-08-16T09:58:56Z</time>
      </trkpt>
      <trkpt lat="45.78206" lon="6.65209">
        <ele>1680</ele>
        <time>2022-08-16T09:58:57Z</time>
      </trkpt>
      <trkpt lat="45.78205" lon="6.65212">
        <ele>1680</ele>
        <time>2022-08-16T09:58:58Z</time>
      </trkpt>
      <trkpt lat="45.78205" lon="6.65214">
        <ele>1681</ele>
        <time>2022-08-16T09:58:59Z</time>
      </trkpt>
      <trkpt lat="45.78204" lon="6.65217">
        <ele>1681</ele>
        <time>2022-08-16T09:59:00Z</time>
      </trkpt>
      <trkpt lat="45.78204" lon="6.65219">
        <ele>1682</ele>
        <time>2022-08-16T09:59:01Z</time>
      </trkpt>
      <trkpt lat="45.78203" lon="6.65221">
        <ele>1682</ele>
        <time>2022-08-16T09:59:02Z</time>
      </trkpt>
      <trkpt lat="45.78202" lon="6.65223">
        <ele>1682</ele>
        <time>2022-08-16T09:59:03Z</time>
      </trkpt>
      <trkpt lat="45.78202" lon="6.65226">
        <ele>1682</ele>
        <time>2022-08-16T09:59:04Z</time>
      </trkpt>
      <trkpt lat="45.78201" lon="6.65229">
        <ele>1682</ele>
        <time>2022-08-16T09:59:05Z</time>
      </trkpt>
      <trkpt lat="45.782" lon="6.65232">
        <ele>1682</ele>
        <time>2022-08-16T09:59:06Z</time>
      </trkpt>
      <trkpt lat="45.782" lon="6.65234">
        <ele>1682</ele>
        <time>2022-08-16T09:59:07Z</time>
      </trkpt>
      <trkpt lat="45.78199" lon="6.65236">
        <ele>1683</ele>
        <time>2022-08-16T09:59:08Z</time>
      </trkpt>
      <trkpt lat="45.78198" lon="6.65239">
        <ele>1682</ele>
        <time>2022-08-16T09:59:09Z</time>
      </trkpt>
      <trkpt lat="45.78198" lon="6.65242">
        <ele>1682</ele>
        <time>2022-08-16T09:59:10Z</time>
      </trkpt>
      <trkpt lat="45.78197" lon="6.65244">
        <ele>1683</ele>
        <time>2022-08-16T09:59:11Z</time>
      </trkpt>
      <trkpt lat="45.78197" lon="6.65248">
        <ele>1683</ele>
        <time>2022-08-16T09:59:12Z</time>
      </trkpt>
      <trkpt lat="45.78197" lon="6.65251">
        <ele>1684</ele>
        <time>2022-08-16T09:59:13Z</time>
      </trkpt>
      <trkpt lat="45.78196" lon="6.65253">
        <ele>1685</ele>
        <time>2022-08-16T09:59:14Z</time>
      </trkpt>
      <trkpt lat="45.78195" lon="6.65256">
        <ele>1685</ele>
        <time>2022-08-16T09:59:15Z</time>
      </trkpt>
      <trkpt lat="45.78194" lon="6.65258">
        <ele>1686</ele>
        <time>2022-08-16T09:59:16Z</time>
      </trkpt>
      <trkpt lat="45.78194" lon="6.65261">
        <ele>1687</ele>
        <time>2022-08-16T09:59:17Z</time>
      </trkpt>
      <trkpt lat="45.78193" lon="6.65263">
        <ele>1687</ele>
        <time>2022-08-16T09:59:18Z</time>
      </trkpt>
      <trkpt lat="45.78193" lon="6.65266">
        <ele>1687</ele>
        <time>2022-08-16T09:59:19Z</time>
      </trkpt>
      <trkpt lat="45.78193" lon="6.65269">
        <ele>1687</ele>
        <time>2022-08-16T09:59:20Z</time>
      </trkpt>
      <trkpt lat="45.78193" lon="6.65271">
        <ele>1687</ele>
        <time>2022-08-16T09:59:21Z</time>
      </trkpt>
      <trkpt lat="45.78193" lon="6.65274">
        <ele>1687</ele>
        <time>2022-08-16T09:59:22Z</time>
      </trkpt>
      <trkpt lat="45.78193" lon="6.65276">
        <ele>1688</ele>
        <time>2022-08-16T09:59:23Z</time>
      </trkpt>
      <trkpt lat="45.78193" lon="6.65278">
        <ele>1688</ele>
        <time>2022-08-16T09:59:24Z</time>
      </trkpt>
      <trkpt lat="45.78194" lon="6.65281">
        <ele>1688</ele>
        <time>2022-08-16T09:59:25Z</time>
      </trkpt>
      <trkpt lat="45.78194" lon="6.65284">
        <ele>1688</ele>
        <time>2022-08-16T09:59:26Z</time>
      </trkpt>
      <trkpt lat="45.78195" lon="6.65287">
        <ele>1687</ele>
        <time>2022-08-16T09:59:27Z</time>
      </trkpt>
      <trkpt lat="45.78196" lon="6.65289">
        <ele>1688</ele>
        <time>2022-08-16T09:59:28Z</time>
      </trkpt>
      <trkpt lat="45.78196" lon="6.65292">
        <ele>1688</ele>
        <time>2022-08-16T09:59:29Z</time>
      </trkpt>
      <trkpt lat="45.78196" lon="6.65295">
        <ele>1688</ele>
        <time>2022-08-16T09:59:30Z</time>
      </trkpt>
      <trkpt lat="45.78197" lon="6.65297">
        <ele>1688</ele>
        <time>2022-08-16T09:59:31Z</time>
      </trkpt>
      <trkpt lat="45.78198" lon="6.653">
        <ele>1688</ele>
        <time>2022-08-16T09:59:32Z</time>
      </trkpt>
      <trkpt lat="45.78199" lon="6.65303">
        <ele>1688</ele>
        <time>2022-08-16T09:59:33Z</time>
      </trkpt>
      <trkpt lat="45.78199" lon="6.65304">
        <ele>1688</ele>
        <time>2022-08-16T09:59:34Z</time>
      </trkpt>
      <trkpt lat="45.782" lon="6.65306">
        <ele>1688</ele>
        <time>2022-08-16T09:59:35Z</time>
      </trkpt>
      <trkpt lat="45.782" lon="6.65308">
        <ele>1688</ele>
        <time>2022-08-16T09:59:36Z</time>
      </trkpt>
      <trkpt lat="45.78202" lon="6.6531">
        <ele>1688</ele>
        <time>2022-08-16T09:59:37Z</time>
      </trkpt>
      <trkpt lat="45.78203" lon="6.65313">
        <ele>1688</ele>
        <time>2022-08-16T09:59:38Z</time>
      </trkpt>
      <trkpt lat="45.78204" lon="6.65315">
        <ele>1688</ele>
        <time>2022-08-16T09:59:39Z</time>
      </trkpt>
      <trkpt lat="45.78205" lon="6.65318">
        <ele>1689</ele>
        <time>2022-08-16T09:59:40Z</time>
      </trkpt>
      <trkpt lat="45.78207" lon="6.6532">
        <ele>1689</ele>
        <time>2022-08-16T09:59:41Z</time>
      </trkpt>
      <trkpt lat="45.78208" lon="6.65323">
        <ele>1689</ele>
        <time>2022-08-16T09:59:42Z</time>
      </trkpt>
      <trkpt lat="45.7821" lon="6.65326">
        <ele>1689</ele>
        <time>2022-08-16T09:59:43Z</time>
      </trkpt>
      <trkpt lat="45.78211" lon="6.65328">
        <ele>1690</ele>
        <time>2022-08-16T09:59:44Z</time>
      </trkpt>
      <trkpt lat="45.78212" lon="6.6533">
        <ele>1690</ele>
        <time>2022-08-16T09:59:45Z</time>
      </trkpt>
      <trkpt lat="45.78213" lon="6.65333">
        <ele>1690</ele>
        <time>2022-08-16T09:59:46Z</time>
      </trkpt>
      <trkpt lat="45.78214" lon="6.65335">
        <ele>1690</ele>
        <time>2022-08-16T09:59:47Z</time>
      </trkpt>
      <trkpt lat="45.78215" lon="6.65337">
        <ele>1691</ele>
        <time>2022-08-16T09:59:48Z</time>
      </trkpt>
      <trkpt lat="45.78216" lon="6.65339">
        <ele>1691</ele>
        <time>2022-08-16T09:59:49Z</time>
      </trkpt>
      <trkpt lat="45.78217" lon="6.65341">
        <ele>1691</ele>
        <time>2022-08-16T09:59:50Z</time>
      </trkpt>
      <trkpt lat="45.78218" lon="6.65343">
        <ele>1691</ele>
        <time>2022-08-16T09:59:51Z</time>
      </trkpt>
      <trkpt lat="45.78219" lon="6.65345">
        <ele>1690</ele>
        <time>2022-08-16T09:59:52Z</time>
      </trkpt>
      <trkpt lat="45.7822" lon="6.65347">
        <ele>1691</ele>
        <time>2022-08-16T09:59:53Z</time>
      </trkpt>
      <trkpt lat="45.78221" lon="6.6535">
        <ele>1691</ele>
        <time>2022-08-16T09:59:54Z</time>
      </trkpt>
      <trkpt lat="45.78222" lon="6.65353">
        <ele>1690</ele>
        <time>2022-08-16T09:59:55Z</time>
      </trkpt>
      <trkpt lat="45.78223" lon="6.65355">
        <ele>1690</ele>
        <time>2022-08-16T09:59:56Z</time>
      </trkpt>
      <trkpt lat="45.78223" lon="6.65357">
        <ele>1690</ele>
        <time>2022-08-16T09:59:57Z</time>
      </trkpt>
      <trkpt lat="45.78224" lon="6.6536">
        <ele>1690</ele>
        <time>2022-08-16T09:59:58Z</time>
      </trkpt>
      <trkpt lat="45.78225" lon="6.65363">
        <ele>1690</ele>
        <time>2022-08-16T09:59:59Z</time>
      </trkpt>
      <trkpt lat="45.78226" lon="6.65366">
        <ele>1690</ele>
        <time>2022-08-16T10:00:00Z</time>
      </trkpt>
      <trkpt lat="45.78227" lon="6.65369">
        <ele>1690</ele>
        <time>2022-08-16T10:00:01Z</time>
      </trkpt>
      <trkpt lat="45.78228" lon="6.65372">
        <ele>1690</ele>
        <time>2022-08-16T10:00:02Z</time>
      </trkpt>
      <trkpt lat="45.78229" lon="6.65375">
        <ele>1690</ele>
        <time>2022-08-16T10:00:03Z</time>
      </trkpt>
      <trkpt lat="45.7823" lon="6.65378">
        <ele>1690</ele>
        <time>2022-08-16T10:00:04Z</time>
      </trkpt>
      <trkpt lat="45.7823" lon="6.6538">
        <ele>1691</ele>
        <time>2022-08-16T10:00:05Z</time>
      </trkpt>
      <trkpt lat="45.78231" lon="6.65383">
        <ele>1692</ele>
        <time>2022-08-16T10:00:06Z</time>
      </trkpt>
      <trkpt lat="45.78231" lon="6.65386">
        <ele>1692</ele>
        <time>2022-08-16T10:00:07Z</time>
      </trkpt>
      <trkpt lat="45.78232" lon="6.65389">
        <ele>1692</ele>
        <time>2022-08-16T10:00:08Z</time>
      </trkpt>
      <trkpt lat="45.78232" lon="6.65392">
        <ele>1693</ele>
        <time>2022-08-16T10:00:09Z</time>
      </trkpt>
      <trkpt lat="45.78233" lon="6.65396">
        <ele>1693</ele>
        <time>2022-08-16T10:00:10Z</time>
      </trkpt>
      <trkpt lat="45.78233" lon="6.65399">
        <ele>1692</ele>
        <time>2022-08-16T10:00:11Z</time>
      </trkpt>
      <trkpt lat="45.78232" lon="6.65403">
        <ele>1693</ele>
        <time>2022-08-16T10:00:12Z</time>
      </trkpt>
      <trkpt lat="45.78232" lon="6.65406">
        <ele>1693</ele>
        <time>2022-08-16T10:00:13Z</time>
      </trkpt>
      <trkpt lat="45.78232" lon="6.65409">
        <ele>1693</ele>
        <time>2022-08-16T10:00:14Z</time>
      </trkpt>
      <trkpt lat="45.78231" lon="6.65412">
        <ele>1693</ele>
        <time>2022-08-16T10:00:15Z</time>
      </trkpt>
      <trkpt lat="45.78231" lon="6.65416">
        <ele>1693</ele>
        <time>2022-08-16T10:00:16Z</time>
      </trkpt>
      <trkpt lat="45.7823" lon="6.65419">
        <ele>1693</ele>
        <time>2022-08-16T10:00:17Z</time>
      </trkpt>
      <trkpt lat="45.7823" lon="6.65421">
        <ele>1693</ele>
        <time>2022-08-16T10:00:18Z</time>
      </trkpt>
      <trkpt lat="45.7823" lon="6.65424">
        <ele>1693</ele>
        <time>2022-08-16T10:00:19Z</time>
      </trkpt>
      <trkpt lat="45.78229" lon="6.65427">
        <ele>1693</ele>
        <time>2022-08-16T10:00:20Z</time>
      </trkpt>
      <trkpt lat="45.78229" lon="6.65429">
        <ele>1693</ele>
        <time>2022-08-16T10:00:21Z</time>
      </trkpt>
      <trkpt lat="45.78229" lon="6.65432">
        <ele>1694</ele>
        <time>2022-08-16T10:00:22Z</time>
      </trkpt>
      <trkpt lat="45.78229" lon="6.65435">
        <ele>1694</ele>
        <time>2022-08-16T10:00:23Z</time>
      </trkpt>
      <trkpt lat="45.78228" lon="6.65438">
        <ele>1695</ele>
        <time>2022-08-16T10:00:24Z</time>
      </trkpt>
      <trkpt lat="45.78228" lon="6.65441">
        <ele>1696</ele>
        <time>2022-08-16T10:00:25Z</time>
      </trkpt>
      <trkpt lat="45.78227" lon="6.65444">
        <ele>1696</ele>
        <time>2022-08-16T10:00:26Z</time>
      </trkpt>
      <trkpt lat="45.78227" lon="6.65447">
        <ele>1696</ele>
        <time>2022-08-16T10:00:27Z</time>
      </trkpt>
      <trkpt lat="45.78227" lon="6.65449">
        <ele>1697</ele>
        <time>2022-08-16T10:00:28Z</time>
      </trkpt>
      <trkpt lat="45.78226" lon="6.65452">
        <ele>1697</ele>
        <time>2022-08-16T10:00:29Z</time>
      </trkpt>
      <trkpt lat="45.78226" lon="6.65454">
        <ele>1697</ele>
        <time>2022-08-16T10:00:30Z</time>
      </trkpt>
      <trkpt lat="45.78225" lon="6.65458">
        <ele>1697</ele>
        <time>2022-08-16T10:00:31Z</time>
      </trkpt>
      <trkpt lat="45.78225" lon="6.65461">
        <ele>1697</ele>
        <time>2022-08-16T10:00:32Z</time>
      </trkpt>
      <trkpt lat="45.78225" lon="6.65464">
        <ele>1698</ele>
        <time>2022-08-16T10:00:33Z</time>
      </trkpt>
      <trkpt lat="45.78226" lon="6.65467">
        <ele>1699</ele>
        <time>2022-08-16T10:00:34Z</time>
      </trkpt>
      <trkpt lat="45.78226" lon="6.65471">
        <ele>1699</ele>
        <time>2022-08-16T10:00:35Z</time>
      </trkpt>
      <trkpt lat="45.78227" lon="6.65474">
        <ele>1700</ele>
        <time>2022-08-16T10:00:36Z</time>
      </trkpt>
      <trkpt lat="45.78228" lon="6.65477">
        <ele>1700</ele>
        <time>2022-08-16T10:00:37Z</time>
      </trkpt>
      <trkpt lat="45.78228" lon="6.6548">
        <ele>1701</ele>
        <time>2022-08-16T10:00:38Z</time>
      </trkpt>
      <trkpt lat="45.78229" lon="6.65482">
        <ele>1701</ele>
        <time>2022-08-16T10:00:39Z</time>
      </trkpt>
      <trkpt lat="45.7823" lon="6.65485">
        <ele>1701</ele>
        <time>2022-08-16T10:00:40Z</time>
      </trkpt>
      <trkpt lat="45.7823" lon="6.65488">
        <ele>1702</ele>
        <time>2022-08-16T10:00:41Z</time>
      </trkpt>
      <trkpt lat="45.78231" lon="6.65491">
        <ele>1702</ele>
        <time>2022-08-16T10:00:42Z</time>
      </trkpt>
      <trkpt lat="45.78231" lon="6.65494">
        <ele>1702</ele>
        <time>2022-08-16T10:00:43Z</time>
      </trkpt>
      <trkpt lat="45.78232" lon="6.65497">
        <ele>1702</ele>
        <time>2022-08-16T10:00:44Z</time>
      </trkpt>
      <trkpt lat="45.78232" lon="6.65499">
        <ele>1702</ele>
        <time>2022-08-16T10:00:45Z</time>
      </trkpt>
      <trkpt lat="45.78233" lon="6.65502">
        <ele>1702</ele>
        <time>2022-08-16T10:00:46Z</time>
      </trkpt>
      <trkpt lat="45.78234" lon="6.65506">
        <ele>1702</ele>
        <time>2022-08-16T10:00:47Z</time>
      </trkpt>
      <trkpt lat="45.78235" lon="6.65509">
        <ele>1703</ele>
        <time>2022-08-16T10:00:48Z</time>
      </trkpt>
      <trkpt lat="45.78235" lon="6.65512">
        <ele>1703</ele>
        <time>2022-08-16T10:00:49Z</time>
      </trkpt>
      <trkpt lat="45.78235" lon="6.65516">
        <ele>1703</ele>
        <time>2022-08-16T10:00:50Z</time>
      </trkpt>
      <trkpt lat="45.78235" lon="6.65519">
        <ele>1703</ele>
        <time>2022-08-16T10:00:51Z</time>
      </trkpt>
      <trkpt lat="45.78235" lon="6.65522">
        <ele>1703</ele>
        <time>2022-08-16T10:00:52Z</time>
      </trkpt>
      <trkpt lat="45.78234" lon="6.65525">
        <ele>1702</ele>
        <time>2022-08-16T10:00:53Z</time>
      </trkpt>
      <trkpt lat="45.78234" lon="6.65528">
        <ele>1702</ele>
        <time>2022-08-16T10:00:54Z</time>
      </trkpt>
      <trkpt lat="45.78233" lon="6.6553">
        <ele>1701</ele>
        <time>2022-08-16T10:00:55Z</time>
      </trkpt>
      <trkpt lat="45.78233" lon="6.65533">
        <ele>1701</ele>
        <time>2022-08-16T10:00:56Z</time>
      </trkpt>
      <trkpt lat="45.78232" lon="6.65535">
        <ele>1702</ele>
        <time>2022-08-16T10:00:57Z</time>
      </trkpt>
      <trkpt lat="45.78231" lon="6.65538">
        <ele>1702</ele>
        <time>2022-08-16T10:00:58Z</time>
      </trkpt>
      <trkpt lat="45.7823" lon="6.65541">
        <ele>1702</ele>
        <time>2022-08-16T10:00:59Z</time>
      </trkpt>
      <trkpt lat="45.78229" lon="6.65543">
        <ele>1702</ele>
        <time>2022-08-16T10:01:00Z</time>
      </trkpt>
      <trkpt lat="45.78228" lon="6.65545">
        <ele>1703</ele>
        <time>2022-08-16T10:01:01Z</time>
      </trkpt>
      <trkpt lat="45.78227" lon="6.65548">
        <ele>1702</ele>
        <time>2022-08-16T10:01:02Z</time>
      </trkpt>
      <trkpt lat="45.78226" lon="6.65551">
        <ele>1703</ele>
        <time>2022-08-16T10:01:03Z</time>
      </trkpt>
      <trkpt lat="45.78225" lon="6.65553">
        <ele>1703</ele>
        <time>2022-08-16T10:01:04Z</time>
      </trkpt>
      <trkpt lat="45.78224" lon="6.65555">
        <ele>1703</ele>
        <time>2022-08-16T10:01:05Z</time>
      </trkpt>
      <trkpt lat="45.78224" lon="6.65558">
        <ele>1704</ele>
        <time>2022-08-16T10:01:06Z</time>
      </trkpt>
      <trkpt lat="45.78224" lon="6.6556">
        <ele>1705</ele>
        <time>2022-08-16T10:01:07Z</time>
      </trkpt>
      <trkpt lat="45.78224" lon="6.65563">
        <ele>1706</ele>
        <time>2022-08-16T10:01:08Z</time>
      </trkpt>
      <trkpt lat="45.78223" lon="6.65565">
        <ele>1706</ele>
        <time>2022-08-16T10:01:09Z</time>
      </trkpt>
      <trkpt lat="45.78223" lon="6.65568">
        <ele>1706</ele>
        <time>2022-08-16T10:01:10Z</time>
      </trkpt>
      <trkpt lat="45.78223" lon="6.65571">
        <ele>1706</ele>
        <time>2022-08-16T10:01:11Z</time>
      </trkpt>
      <trkpt lat="45.78223" lon="6.65574">
        <ele>1707</ele>
        <time>2022-08-16T10:01:12Z</time>
      </trkpt>
      <trkpt lat="45.78223" lon="6.65576">
        <ele>1707</ele>
        <time>2022-08-16T10:01:13Z</time>
      </trkpt>
      <trkpt lat="45.78223" lon="6.65579">
        <ele>1708</ele>
        <time>2022-08-16T10:01:14Z</time>
      </trkpt>
      <trkpt lat="45.78223" lon="6.65582">
        <ele>1708</ele>
        <time>2022-08-16T10:01:15Z</time>
      </trkpt>
      <trkpt lat="45.78223" lon="6.65585">
        <ele>1708</ele>
        <time>2022-08-16T10:01:16Z</time>
      </trkpt>
      <trkpt lat="45.78224" lon="6.65587">
        <ele>1709</ele>
        <time>2022-08-16T10:01:17Z</time>
      </trkpt>
      <trkpt lat="45.78224" lon="6.6559">
        <ele>1709</ele>
        <time>2022-08-16T10:01:18Z</time>
      </trkpt>
      <trkpt lat="45.78224" lon="6.65592">
        <ele>1709</ele>
        <time>2022-08-16T10:01:19Z</time>
      </trkpt>
      <trkpt lat="45.78224" lon="6.65595">
        <ele>1709</ele>
        <time>2022-08-16T10:01:20Z</time>
      </trkpt>
      <trkpt lat="45.78225" lon="6.65597">
        <ele>1709</ele>
        <time>2022-08-16T10:01:21Z</time>
      </trkpt>
      <trkpt lat="45.78225" lon="6.656">
        <ele>1709</ele>
        <time>2022-08-16T10:01:22Z</time>
      </trkpt>
      <trkpt lat="45.78226" lon="6.65602">
        <ele>1709</ele>
        <time>2022-08-16T10:01:23Z</time>
      </trkpt>
      <trkpt lat="45.78227" lon="6.65605">
        <ele>1708</ele>
        <time>2022-08-16T10:01:24Z</time>
      </trkpt>
      <trkpt lat="45.78228" lon="6.65608">
        <ele>1708</ele>
        <time>2022-08-16T10:01:25Z</time>
      </trkpt>
      <trkpt lat="45.78229" lon="6.6561">
        <ele>1708</ele>
        <time>2022-08-16T10:01:26Z</time>
      </trkpt>
      <trkpt lat="45.7823" lon="6.65613">
        <ele>1708</ele>
        <time>2022-08-16T10:01:27Z</time>
      </trkpt>
      <trkpt lat="45.78231" lon="6.65616">
        <ele>1709</ele>
        <time>2022-08-16T10:01:28Z</time>
      </trkpt>
      <trkpt lat="45.78232" lon="6.65618">
        <ele>1709</ele>
        <time>2022-08-16T10:01:29Z</time>
      </trkpt>
      <trkpt lat="45.78233" lon="6.6562">
        <ele>1709</ele>
        <time>2022-08-16T10:01:30Z</time>
      </trkpt>
      <trkpt lat="45.78233" lon="6.65622">
        <ele>1710</ele>
        <time>2022-08-16T10:01:31Z</time>
      </trkpt>
      <trkpt lat="45.78235" lon="6.65625">
        <ele>1709</ele>
        <time>2022-08-16T10:01:32Z</time>
      </trkpt>
      <trkpt lat="45.78236" lon="6.65628">
        <ele>1709</ele>
        <time>2022-08-16T10:01:33Z</time>
      </trkpt>
      <trkpt lat="45.78237" lon="6.6563">
        <ele>1709</ele>
        <time>2022-08-16T10:01:34Z</time>
      </trkpt>
      <trkpt lat="45.78238" lon="6.65633">
        <ele>1709</ele>
        <time>2022-08-16T10:01:35Z</time>
      </trkpt>
      <trkpt lat="45.78239" lon="6.65636">
        <ele>1708</ele>
        <time>2022-08-16T10:01:36Z</time>
      </trkpt>
      <trkpt lat="45.78241" lon="6.65638">
        <ele>1709</ele>
        <time>2022-08-16T10:01:37Z</time>
      </trkpt>
      <trkpt lat="45.78242" lon="6.65641">
        <ele>1709</ele>
        <time>2022-08-16T10:01:38Z</time>
      </trkpt>
      <trkpt lat="45.78243" lon="6.65643">
        <ele>1710</ele>
        <time>2022-08-16T10:01:39Z</time>
      </trkpt>
      <trkpt lat="45.78244" lon="6.65646">
        <ele>1710</ele>
        <time>2022-08-16T10:01:40Z</time>
      </trkpt>
      <trkpt lat="45.78245" lon="6.65648">
        <ele>1710</ele>
        <time>2022-08-16T10:01:41Z</time>
      </trkpt>
      <trkpt lat="45.78245" lon="6.65651">
        <ele>1711</ele>
        <time>2022-08-16T10:01:42Z</time>
      </trkpt>
      <trkpt lat="45.78246" lon="6.65654">
        <ele>1711</ele>
        <time>2022-08-16T10:01:43Z</time>
      </trkpt>
      <trkpt lat="45.78247" lon="6.65657">
        <ele>1711</ele>
        <time>2022-08-16T10:01:44Z</time>
      </trkpt>
      <trkpt lat="45.78248" lon="6.6566">
        <ele>1711</ele>
        <time>2022-08-16T10:01:45Z</time>
      </trkpt>
      <trkpt lat="45.78249" lon="6.65663">
        <ele>1712</ele>
        <time>2022-08-16T10:01:46Z</time>
      </trkpt>
      <trkpt lat="45.78251" lon="6.65665">
        <ele>1712</ele>
        <time>2022-08-16T10:01:47Z</time>
      </trkpt>
      <trkpt lat="45.78251" lon="6.65668">
        <ele>1712</ele>
        <time>2022-08-16T10:01:48Z</time>
      </trkpt>
      <trkpt lat="45.78252" lon="6.65671">
        <ele>1712</ele>
        <time>2022-08-16T10:01:49Z</time>
      </trkpt>
      <trkpt lat="45.78253" lon="6.65674">
        <ele>1712</ele>
        <time>2022-08-16T10:01:50Z</time>
      </trkpt>
      <trkpt lat="45.78253" lon="6.65677">
        <ele>1712</ele>
        <time>2022-08-16T10:01:51Z</time>
      </trkpt>
      <trkpt lat="45.78254" lon="6.6568">
        <ele>1712</ele>
        <time>2022-08-16T10:01:52Z</time>
      </trkpt>
      <trkpt lat="45.78254" lon="6.65683">
        <ele>1712</ele>
        <time>2022-08-16T10:01:53Z</time>
      </trkpt>
      <trkpt lat="45.78256" lon="6.65686">
        <ele>1712</ele>
        <time>2022-08-16T10:01:54Z</time>
      </trkpt>
      <trkpt lat="45.78257" lon="6.65689">
        <ele>1712</ele>
        <time>2022-08-16T10:01:55Z</time>
      </trkpt>
      <trkpt lat="45.78258" lon="6.65691">
        <ele>1712</ele>
        <time>2022-08-16T10:01:56Z</time>
      </trkpt>
      <trkpt lat="45.78259" lon="6.65694">
        <ele>1712</ele>
        <time>2022-08-16T10:01:57Z</time>
      </trkpt>
      <trkpt lat="45.7826" lon="6.65697">
        <ele>1712</ele>
        <time>2022-08-16T10:01:58Z</time>
      </trkpt>
      <trkpt lat="45.78261" lon="6.65699">
        <ele>1712</ele>
        <time>2022-08-16T10:01:59Z</time>
      </trkpt>
      <trkpt lat="45.78263" lon="6.65702">
        <ele>1712</ele>
        <time>2022-08-16T10:02:00Z</time>
      </trkpt>
      <trkpt lat="45.78264" lon="6.65705">
        <ele>1712</ele>
        <time>2022-08-16T10:02:01Z</time>
      </trkpt>
      <trkpt lat="45.78265" lon="6.65708">
        <ele>1712</ele>
        <time>2022-08-16T10:02:02Z</time>
      </trkpt>
      <trkpt lat="45.78267" lon="6.65712">
        <ele>1711</ele>
        <time>2022-08-16T10:02:03Z</time>
      </trkpt>
      <trkpt lat="45.78268" lon="6.65716">
        <ele>1711</ele>
        <time>2022-08-16T10:02:04Z</time>
      </trkpt>
      <trkpt lat="45.78269" lon="6.65719">
        <ele>1711</ele>
        <time>2022-08-16T10:02:05Z</time>
      </trkpt>
      <trkpt lat="45.78271" lon="6.65723">
        <ele>1710</ele>
        <time>2022-08-16T10:02:06Z</time>
      </trkpt>
      <trkpt lat="45.78273" lon="6.65726">
        <ele>1710</ele>
        <time>2022-08-16T10:02:07Z</time>
      </trkpt>
      <trkpt lat="45.78275" lon="6.6573">
        <ele>1710</ele>
        <time>2022-08-16T10:02:08Z</time>
      </trkpt>
      <trkpt lat="45.78277" lon="6.65734">
        <ele>1709</ele>
        <time>2022-08-16T10:02:09Z</time>
      </trkpt>
      <trkpt lat="45.78279" lon="6.65737">
        <ele>1708</ele>
        <time>2022-08-16T10:02:10Z</time>
      </trkpt>
      <trkpt lat="45.78283" lon="6.6574">
        <ele>1707</ele>
        <time>2022-08-16T10:02:11Z</time>
      </trkpt>
      <trkpt lat="45.78286" lon="6.65743">
        <ele>1707</ele>
        <time>2022-08-16T10:02:12Z</time>
      </trkpt>
      <trkpt lat="45.78289" lon="6.65745">
        <ele>1707</ele>
        <time>2022-08-16T10:02:13Z</time>
      </trkpt>
      <trkpt lat="45.78293" lon="6.65749">
        <ele>1707</ele>
        <time>2022-08-16T10:02:14Z</time>
      </trkpt>
      <trkpt lat="45.78297" lon="6.65753">
        <ele>1708</ele>
        <time>2022-08-16T10:02:15Z</time>
      </trkpt>
      <trkpt lat="45.78301" lon="6.65755">
        <ele>1707</ele>
        <time>2022-08-16T10:02:16Z</time>
      </trkpt>
      <trkpt lat="45.78305" lon="6.65759">
        <ele>1708</ele>
        <time>2022-08-16T10:02:17Z</time>
      </trkpt>
      <trkpt lat="45.7831" lon="6.65762">
        <ele>1708</ele>
        <time>2022-08-16T10:02:18Z</time>
      </trkpt>
      <trkpt lat="45.78315" lon="6.65765">
        <ele>1708</ele>
        <time>2022-08-16T10:02:19Z</time>
      </trkpt>
      <trkpt lat="45.7832" lon="6.65768">
        <ele>1707</ele>
        <time>2022-08-16T10:02:20Z</time>
      </trkpt>
      <trkpt lat="45.78325" lon="6.65771">
        <ele>1707</ele>
        <time>2022-08-16T10:02:21Z</time>
      </trkpt>
      <trkpt lat="45.7833" lon="6.65775">
        <ele>1706</ele>
        <time>2022-08-16T10:02:22Z</time>
      </trkpt>
      <trkpt lat="45.78334" lon="6.65779">
        <ele>1705</ele>
        <time>2022-08-16T10:02:23Z</time>
      </trkpt>
      <trkpt lat="45.78338" lon="6.65784">
        <ele>1704</ele>
        <time>2022-08-16T10:02:24Z</time>
      </trkpt>
      <trkpt lat="45.78343" lon="6.65791">
        <ele>1704</ele>
        <time>2022-08-16T10:02:25Z</time>
      </trkpt>
      <trkpt lat="45.78347" lon="6.65799">
        <ele>1704</ele>
        <time>2022-08-16T10:02:26Z</time>
      </trkpt>
      <trkpt lat="45.78351" lon="6.65808">
        <ele>1704</ele>
        <time>2022-08-16T10:02:27Z</time>
      </trkpt>
      <trkpt lat="45.78355" lon="6.65817">
        <ele>1703</ele>
        <time>2022-08-16T10:02:28Z</time>
      </trkpt>
      <trkpt lat="45.7836" lon="6.65826">
        <ele>1703</ele>
        <time>2022-08-16T10:02:29Z</time>
      </trkpt>
      <trkpt lat="45.78365" lon="6.65835">
        <ele>1702</ele>
        <time>2022-08-16T10:02:30Z</time>
      </trkpt>
      <trkpt lat="45.78369" lon="6.65843">
        <ele>1701</ele>
        <time>2022-08-16T10:02:31Z</time>
      </trkpt>
      <trkpt lat="45.78373" lon="6.65852">
        <ele>1701</ele>
        <time>2022-08-16T10:02:32Z</time>
      </trkpt>
      <trkpt lat="45.78376" lon="6.6586">
        <ele>1701</ele>
        <time>2022-08-16T10:02:33Z</time>
      </trkpt>
      <trkpt lat="45.78376" lon="6.65871">
        <ele>1701</ele>
        <time>2022-08-16T10:02:34Z</time>
      </trkpt>
      <trkpt lat="45.78373" lon="6.6588">
        <ele>1701</ele>
        <time>2022-08-16T10:02:35Z</time>
      </trkpt>
      <trkpt lat="45.78367" lon="6.65887">
        <ele>1701</ele>
        <time>2022-08-16T10:02:36Z</time>
      </trkpt>
      <trkpt lat="45.7836" lon="6.6589">
        <ele>1701</ele>
        <time>2022-08-16T10:02:37Z</time>
      </trkpt>
      <trkpt lat="45.78354" lon="6.6589">
        <ele>1701</ele>
        <time>2022-08-16T10:02:38Z</time>
      </trkpt>
      <trkpt lat="45.78348" lon="6.65888">
        <ele>1701</ele>
        <time>2022-08-16T10:02:39Z</time>
      </trkpt>
      <trkpt lat="45.78342" lon="6.65887">
        <ele>1701</ele>
        <time>2022-08-16T10:02:40Z</time>
      </trkpt>
      <trkpt lat="45.78338" lon="6.65886">
        <ele>1701</ele>
        <time>2022-08-16T10:02:41Z</time>
      </trkpt>
      <trkpt lat="45.78333" lon="6.65886">
        <ele>1701</ele>
        <time>2022-08-16T10:02:42Z</time>
      </trkpt>
      <trkpt lat="45.78329" lon="6.65885">
        <ele>1702</ele>
        <time>2022-08-16T10:02:43Z</time>
      </trkpt>
      <trkpt lat="45.78327" lon="6.65885">
        <ele>1702</ele>
        <time>2022-08-16T10:02:44Z</time>
      </trkpt>
      <trkpt lat="45.78324" lon="6.65885">
        <ele>1702</ele>
        <time>2022-08-16T10:02:45Z</time>
      </trkpt>
      <trkpt lat="45.78322" lon="6.65885">
        <ele>1702</ele>
        <time>2022-08-16T10:02:46Z</time>
      </trkpt>
      <trkpt lat="45.7832" lon="6.65886">
        <ele>1702</ele>
        <time>2022-08-16T10:02:47Z</time>
      </trkpt>
      <trkpt lat="45.78317" lon="6.65887">
        <ele>1702</ele>
        <time>2022-08-16T10:02:48Z</time>
      </trkpt>
      <trkpt lat="45.78315" lon="6.65887">
        <ele>1702</ele>
        <time>2022-08-16T10:02:49Z</time>
      </trkpt>
      <trkpt lat="45.78313" lon="6.65888">
        <ele>1702</ele>
        <time>2022-08-16T10:02:50Z</time>
      </trkpt>
      <trkpt lat="45.78311" lon="6.65889">
        <ele>1702</ele>
        <time>2022-08-16T10:02:51Z</time>
      </trkpt>
      <trkpt lat="45.78308" lon="6.6589">
        <ele>1702</ele>
        <time>2022-08-16T10:02:52Z</time>
      </trkpt>
      <trkpt lat="45.78306" lon="6.65892">
        <ele>1702</ele>
        <time>2022-08-16T10:02:53Z</time>
      </trkpt>
      <trkpt lat="45.78303" lon="6.65893">
        <ele>1702</ele>
        <time>2022-08-16T10:02:54Z</time>
      </trkpt>
      <trkpt lat="45.78301" lon="6.65894">
        <ele>1702</ele>
        <time>2022-08-16T10:02:55Z</time>
      </trkpt>
      <trkpt lat="45.78299" lon="6.65896">
        <ele>1703</ele>
        <time>2022-08-16T10:02:56Z</time>
      </trkpt>
      <trkpt lat="45.78296" lon="6.65897">
        <ele>1703</ele>
        <time>2022-08-16T10:02:57Z</time>
      </trkpt>
      <trkpt lat="45.78294" lon="6.65898">
        <ele>1703</ele>
        <time>2022-08-16T10:02:58Z</time>
      </trkpt>
      <trkpt lat="45.78292" lon="6.65899">
        <ele>1703</ele>
        <time>2022-08-16T10:02:59Z</time>
      </trkpt>
      <trkpt lat="45.78289" lon="6.659">
        <ele>1703</ele>
        <time>2022-08-16T10:03:00Z</time>
      </trkpt>
      <trkpt lat="45.78287" lon="6.659">
        <ele>1703</ele>
        <time>2022-08-16T10:03:01Z</time>
      </trkpt>
      <trkpt lat="45.78285" lon="6.65901">
        <ele>1703</ele>
        <time>2022-08-16T10:03:02Z</time>
      </trkpt>
      <trkpt lat="45.78282" lon="6.65901">
        <ele>1703</ele>
        <time>2022-08-16T10:03:03Z</time>
      </trkpt>
      <trkpt lat="45.7828" lon="6.65901">
        <ele>1703</ele>
        <time>2022-08-16T10:03:04Z</time>
      </trkpt>
      <trkpt lat="45.78277" lon="6.65901">
        <ele>1703</ele>
        <time>2022-08-16T10:03:05Z</time>
      </trkpt>
      <trkpt lat="45.78275" lon="6.659">
        <ele>1703</ele>
        <time>2022-08-16T10:03:06Z</time>
      </trkpt>
      <trkpt lat="45.78273" lon="6.65899">
        <ele>1703</ele>
        <time>2022-08-16T10:03:07Z</time>
      </trkpt>
      <trkpt lat="45.78271" lon="6.65898">
        <ele>1704</ele>
        <time>2022-08-16T10:03:08Z</time>
      </trkpt>
      <trkpt lat="45.78268" lon="6.65897">
        <ele>1704</ele>
        <time>2022-08-16T10:03:09Z</time>
      </trkpt>
      <trkpt lat="45.78266" lon="6.65895">
        <ele>1704</ele>
        <time>2022-08-16T10:03:10Z</time>
      </trkpt>
      <trkpt lat="45.78264" lon="6.65894">
        <ele>1705</ele>
        <time>2022-08-16T10:03:11Z</time>
      </trkpt>
      <trkpt lat="45.78263" lon="6.65893">
        <ele>1705</ele>
        <time>2022-08-16T10:03:12Z</time>
      </trkpt>
      <trkpt lat="45.78261" lon="6.65892">
        <ele>1705</ele>
        <time>2022-08-16T10:03:13Z</time>
      </trkpt>
      <trkpt lat="45.78259" lon="6.65891">
        <ele>1705</ele>
        <time>2022-08-16T10:03:14Z</time>
      </trkpt>
      <trkpt lat="45.78258" lon="6.65889">
        <ele>1705</ele>
        <time>2022-08-16T10:03:15Z</time>
      </trkpt>
      <trkpt lat="45.78256" lon="6.65888">
        <ele>1705</ele>
        <time>2022-08-16T10:03:16Z</time>
      </trkpt>
      <trkpt lat="45.78254" lon="6.65886">
        <ele>1705</ele>
        <time>2022-08-16T10:03:17Z</time>
      </trkpt>
      <trkpt lat="45.78252" lon="6.65885">
        <ele>1705</ele>
        <time>2022-08-16T10:03:18Z</time>
      </trkpt>
      <trkpt lat="45.7825" lon="6.65883">
        <ele>1706</ele>
        <time>2022-08-16T10:03:19Z</time>
      </trkpt>
      <trkpt lat="45.78248" lon="6.65882">
        <ele>1706</ele>
        <time>2022-08-16T10:03:20Z</time>
      </trkpt>
      <trkpt lat="45.78245" lon="6.65881">
        <ele>1706</ele>
        <time>2022-08-16T10:03:21Z</time>
      </trkpt>
      <trkpt lat="45.78243" lon="6.65879">
        <ele>1706</ele>
        <time>2022-08-16T10:03:22Z</time>
      </trkpt>
      <trkpt lat="45.7824" lon="6.65878">
        <ele>1706</ele>
        <time>2022-08-16T10:03:23Z</time>
      </trkpt>
      <trkpt lat="45.78238" lon="6.65876">
        <ele>1707</ele>
        <time>2022-08-16T10:03:24Z</time>
      </trkpt>
      <trkpt lat="45.78235" lon="6.65874">
        <ele>1707</ele>
        <time>2022-08-16T10:03:25Z</time>
      </trkpt>
      <trkpt lat="45.78233" lon="6.65873">
        <ele>1708</ele>
        <time>2022-08-16T10:03:26Z</time>
      </trkpt>
      <trkpt lat="45.78231" lon="6.65871">
        <ele>1708</ele>
        <time>2022-08-16T10:03:27Z</time>
      </trkpt>
      <trkpt lat="45.78229" lon="6.6587">
        <ele>1708</ele>
        <time>2022-08-16T10:03:28Z</time>
      </trkpt>
      <trkpt lat="45.78227" lon="6.65869">
        <ele>1708</ele>
        <time>2022-08-16T10:03:29Z</time>
      </trkpt>
      <trkpt lat="45.78225" lon="6.65868">
        <ele>1709</ele>
        <time>2022-08-16T10:03:30Z</time>
      </trkpt>
      <trkpt lat="45.78222" lon="6.65868">
        <ele>1709</ele>
        <time>2022-08-16T10:03:31Z</time>
      </trkpt>
      <trkpt lat="45.7822" lon="6.65867">
        <ele>1710</ele>
        <time>2022-08-16T10:03:32Z</time>
      </trkpt>
      <trkpt lat="45.78218" lon="6.65867">
        <ele>1710</ele>
        <time>2022-08-16T10:03:33Z</time>
      </trkpt>
      <trkpt lat="45.78215" lon="6.65867">
        <ele>1710</ele>
        <time>2022-08-16T10:03:34Z</time>
      </trkpt>
      <trkpt lat="45.78214" lon="6.65868">
        <ele>1710</ele>
        <time>2022-08-16T10:03:35Z</time>
      </trkpt>
      <trkpt lat="45.78212" lon="6.65868">
        <ele>1710</ele>
        <time>2022-08-16T10:03:36Z</time>
      </trkpt>
      <trkpt lat="45.7821" lon="6.65868">
        <ele>1710</ele>
        <time>2022-08-16T10:03:37Z</time>
      </trkpt>
      <trkpt lat="45.78208" lon="6.65869">
        <ele>1710</ele>
        <time>2022-08-16T10:03:38Z</time>
      </trkpt>
      <trkpt lat="45.78207" lon="6.6587">
        <ele>1711</ele>
        <time>2022-08-16T10:03:39Z</time>
      </trkpt>
      <trkpt lat="45.78205" lon="6.65872">
        <ele>1711</ele>
        <time>2022-08-16T10:03:40Z</time>
      </trkpt>
      <trkpt lat="45.78203" lon="6.65875">
        <ele>1711</ele>
        <time>2022-08-16T10:03:41Z</time>
      </trkpt>
      <trkpt lat="45.78201" lon="6.65878">
        <ele>1711</ele>
        <time>2022-08-16T10:03:42Z</time>
      </trkpt>
      <trkpt lat="45.782" lon="6.65882">
        <ele>1711</ele>
        <time>2022-08-16T10:03:43Z</time>
      </trkpt>
      <trkpt lat="45.78198" lon="6.65886">
        <ele>1711</ele>
        <time>2022-08-16T10:03:44Z</time>
      </trkpt>
      <trkpt lat="45.78197" lon="6.6589">
        <ele>1711</ele>
        <time>2022-08-16T10:03:45Z</time>
      </trkpt>
      <trkpt lat="45.78195" lon="6.65894">
        <ele>1712</ele>
        <time>2022-08-16T10:03:46Z</time>
      </trkpt>
      <trkpt lat="45.78195" lon="6.65899">
        <ele>1712</ele>
        <time>2022-08-16T10:03:47Z</time>
      </trkpt>
      <trkpt lat="45.78194" lon="6.65904">
        <ele>1712</ele>
        <time>2022-08-16T10:03:48Z</time>
      </trkpt>
      <trkpt lat="45.78193" lon="6.65908">
        <ele>1712</ele>
        <time>2022-08-16T10:03:49Z</time>
      </trkpt>
      <trkpt lat="45.78192" lon="6.65912">
        <ele>1712</ele>
        <time>2022-08-16T10:03:50Z</time>
      </trkpt>
      <trkpt lat="45.78192" lon="6.65916">
        <ele>1712</ele>
        <time>2022-08-16T10:03:51Z</time>
      </trkpt>
      <trkpt lat="45.78191" lon="6.65921">
        <ele>1712</ele>
        <time>2022-08-16T10:03:52Z</time>
      </trkpt>
      <trkpt lat="45.78191" lon="6.65924">
        <ele>1712</ele>
        <time>2022-08-16T10:03:53Z</time>
      </trkpt>
      <trkpt lat="45.7819" lon="6.65928">
        <ele>1712</ele>
        <time>2022-08-16T10:03:54Z</time>
      </trkpt>
      <trkpt lat="45.7819" lon="6.65931">
        <ele>1712</ele>
        <time>2022-08-16T10:03:55Z</time>
      </trkpt>
      <trkpt lat="45.78189" lon="6.65935">
        <ele>1712</ele>
        <time>2022-08-16T10:03:56Z</time>
      </trkpt>
      <trkpt lat="45.78188" lon="6.65939">
        <ele>1713</ele>
        <time>2022-08-16T10:03:57Z</time>
      </trkpt>
      <trkpt lat="45.78188" lon="6.65942">
        <ele>1713</ele>
        <time>2022-08-16T10:03:58Z</time>
      </trkpt>
      <trkpt lat="45.78188" lon="6.65945">
        <ele>1713</ele>
        <time>2022-08-16T10:03:59Z</time>
      </trkpt>
      <trkpt lat="45.78189" lon="6.65948">
        <ele>1713</ele>
        <time>2022-08-16T10:04:00Z</time>
      </trkpt>
      <trkpt lat="45.78189" lon="6.65952">
        <ele>1713</ele>
        <time>2022-08-16T10:04:01Z</time>
      </trkpt>
      <trkpt lat="45.7819" lon="6.65955">
        <ele>1713</ele>
        <time>2022-08-16T10:04:02Z</time>
      </trkpt>
      <trkpt lat="45.7819" lon="6.65958">
        <ele>1713</ele>
        <time>2022-08-16T10:04:03Z</time>
      </trkpt>
      <trkpt lat="45.7819" lon="6.65962">
        <ele>1712</ele>
        <time>2022-08-16T10:04:04Z</time>
      </trkpt>
      <trkpt lat="45.78191" lon="6.65964">
        <ele>1712</ele>
        <time>2022-08-16T10:04:05Z</time>
      </trkpt>
      <trkpt lat="45.78191" lon="6.65968">
        <ele>1712</ele>
        <time>2022-08-16T10:04:06Z</time>
      </trkpt>
      <trkpt lat="45.78192" lon="6.65971">
        <ele>1713</ele>
        <time>2022-08-16T10:04:07Z</time>
      </trkpt>
      <trkpt lat="45.78193" lon="6.65974">
        <ele>1713</ele>
        <time>2022-08-16T10:04:08Z</time>
      </trkpt>
      <trkpt lat="45.78194" lon="6.65978">
        <ele>1714</ele>
        <time>2022-08-16T10:04:09Z</time>
      </trkpt>
      <trkpt lat="45.78194" lon="6.65981">
        <ele>1714</ele>
        <time>2022-08-16T10:04:10Z</time>
      </trkpt>
      <trkpt lat="45.78195" lon="6.65984">
        <ele>1714</ele>
        <time>2022-08-16T10:04:11Z</time>
      </trkpt>
      <trkpt lat="45.78195" lon="6.65987">
        <ele>1715</ele>
        <time>2022-08-16T10:04:12Z</time>
      </trkpt>
      <trkpt lat="45.78196" lon="6.65991">
        <ele>1715</ele>
        <time>2022-08-16T10:04:13Z</time>
      </trkpt>
      <trkpt lat="45.78196" lon="6.65994">
        <ele>1715</ele>
        <time>2022-08-16T10:04:14Z</time>
      </trkpt>
      <trkpt lat="45.78196" lon="6.65998">
        <ele>1716</ele>
        <time>2022-08-16T10:04:15Z</time>
      </trkpt>
      <trkpt lat="45.78195" lon="6.66001">
        <ele>1716</ele>
        <time>2022-08-16T10:04:16Z</time>
      </trkpt>
      <trkpt lat="45.78195" lon="6.66004">
        <ele>1717</ele>
        <time>2022-08-16T10:04:17Z</time>
      </trkpt>
      <trkpt lat="45.78195" lon="6.66007">
        <ele>1716</ele>
        <time>2022-08-16T10:04:18Z</time>
      </trkpt>
      <trkpt lat="45.78195" lon="6.66011">
        <ele>1717</ele>
        <time>2022-08-16T10:04:19Z</time>
      </trkpt>
      <trkpt lat="45.78195" lon="6.66014">
        <ele>1717</ele>
        <time>2022-08-16T10:04:20Z</time>
      </trkpt>
      <trkpt lat="45.78194" lon="6.66018">
        <ele>1717</ele>
        <time>2022-08-16T10:04:21Z</time>
      </trkpt>
      <trkpt lat="45.78194" lon="6.66021">
        <ele>1718</ele>
        <time>2022-08-16T10:04:22Z</time>
      </trkpt>
      <trkpt lat="45.78193" lon="6.66025">
        <ele>1718</ele>
        <time>2022-08-16T10:04:23Z</time>
      </trkpt>
      <trkpt lat="45.78192" lon="6.66028">
        <ele>1718</ele>
        <time>2022-08-16T10:04:24Z</time>
      </trkpt>
      <trkpt lat="45.78192" lon="6.66031">
        <ele>1718</ele>
        <time>2022-08-16T10:04:25Z</time>
      </trkpt>
      <trkpt lat="45.78191" lon="6.66033">
        <ele>1718</ele>
        <time>2022-08-16T10:04:26Z</time>
      </trkpt>
      <trkpt lat="45.7819" lon="6.66036">
        <ele>1718</ele>
        <time>2022-08-16T10:04:27Z</time>
      </trkpt>
      <trkpt lat="45.78189" lon="6.66038">
        <ele>1718</ele>
        <time>2022-08-16T10:04:28Z</time>
      </trkpt>
      <trkpt lat="45.78188" lon="6.66041">
        <ele>1719</ele>
        <time>2022-08-16T10:04:29Z</time>
      </trkpt>
      <trkpt lat="45.78187" lon="6.66044">
        <ele>1719</ele>
        <time>2022-08-16T10:04:30Z</time>
      </trkpt>
      <trkpt lat="45.78186" lon="6.66046">
        <ele>1719</ele>
        <time>2022-08-16T10:04:31Z</time>
      </trkpt>
      <trkpt lat="45.78185" lon="6.66048">
        <ele>1719</ele>
        <time>2022-08-16T10:04:32Z</time>
      </trkpt>
      <trkpt lat="45.78185" lon="6.6605">
        <ele>1719</ele>
        <time>2022-08-16T10:04:33Z</time>
      </trkpt>
      <trkpt lat="45.78184" lon="6.66052">
        <ele>1719</ele>
        <time>2022-08-16T10:04:34Z</time>
      </trkpt>
      <trkpt lat="45.78184" lon="6.66054">
        <ele>1719</ele>
        <time>2022-08-16T10:04:35Z</time>
      </trkpt>
      <trkpt lat="45.78183" lon="6.66056">
        <ele>1720</ele>
        <time>2022-08-16T10:04:36Z</time>
      </trkpt>
      <trkpt lat="45.78182" lon="6.66057">
        <ele>1720</ele>
        <time>2022-08-16T10:04:37Z</time>
      </trkpt>
      <trkpt lat="45.78181" lon="6.66059">
        <ele>1720</ele>
        <time>2022-08-16T10:04:38Z</time>
      </trkpt>
      <trkpt lat="45.7818" lon="6.66062">
        <ele>1721</ele>
        <time>2022-08-16T10:04:39Z</time>
      </trkpt>
      <trkpt lat="45.78179" lon="6.66064">
        <ele>1721</ele>
        <time>2022-08-16T10:04:40Z</time>
      </trkpt>
      <trkpt lat="45.78179" lon="6.66066">
        <ele>1721</ele>
        <time>2022-08-16T10:04:41Z</time>
      </trkpt>
      <trkpt lat="45.78178" lon="6.66069">
        <ele>1722</ele>
        <time>2022-08-16T10:04:42Z</time>
      </trkpt>
      <trkpt lat="45.78177" lon="6.66071">
        <ele>1722</ele>
        <time>2022-08-16T10:04:43Z</time>
      </trkpt>
      <trkpt lat="45.78176" lon="6.66074">
        <ele>1722</ele>
        <time>2022-08-16T10:04:44Z</time>
      </trkpt>
      <trkpt lat="45.78175" lon="6.66076">
        <ele>1723</ele>
        <time>2022-08-16T10:04:45Z</time>
      </trkpt>
      <trkpt lat="45.78175" lon="6.66078">
        <ele>1723</ele>
        <time>2022-08-16T10:04:46Z</time>
      </trkpt>
      <trkpt lat="45.78175" lon="6.66081">
        <ele>1723</ele>
        <time>2022-08-16T10:04:47Z</time>
      </trkpt>
      <trkpt lat="45.78174" lon="6.66083">
        <ele>1723</ele>
        <time>2022-08-16T10:04:48Z</time>
      </trkpt>
      <trkpt lat="45.78174" lon="6.66085">
        <ele>1723</ele>
        <time>2022-08-16T10:04:49Z</time>
      </trkpt>
      <trkpt lat="45.78174" lon="6.66088">
        <ele>1723</ele>
        <time>2022-08-16T10:04:50Z</time>
      </trkpt>
      <trkpt lat="45.78173" lon="6.66091">
        <ele>1723</ele>
        <time>2022-08-16T10:04:51Z</time>
      </trkpt>
      <trkpt lat="45.78172" lon="6.66094">
        <ele>1723</ele>
        <time>2022-08-16T10:04:52Z</time>
      </trkpt>
      <trkpt lat="45.78171" lon="6.66097">
        <ele>1723</ele>
        <time>2022-08-16T10:04:53Z</time>
      </trkpt>
      <trkpt lat="45.78171" lon="6.661">
        <ele>1724</ele>
        <time>2022-08-16T10:04:54Z</time>
      </trkpt>
      <trkpt lat="45.7817" lon="6.66102">
        <ele>1724</ele>
        <time>2022-08-16T10:04:55Z</time>
      </trkpt>
      <trkpt lat="45.7817" lon="6.66105">
        <ele>1724</ele>
        <time>2022-08-16T10:04:56Z</time>
      </trkpt>
      <trkpt lat="45.78169" lon="6.66108">
        <ele>1724</ele>
        <time>2022-08-16T10:04:57Z</time>
      </trkpt>
      <trkpt lat="45.78169" lon="6.6611">
        <ele>1724</ele>
        <time>2022-08-16T10:04:58Z</time>
      </trkpt>
      <trkpt lat="45.78169" lon="6.66112">
        <ele>1723</ele>
        <time>2022-08-16T10:04:59Z</time>
      </trkpt>
      <trkpt lat="45.78168" lon="6.66115">
        <ele>1723</ele>
        <time>2022-08-16T10:05:00Z</time>
      </trkpt>
      <trkpt lat="45.78168" lon="6.66118">
        <ele>1723</ele>
        <time>2022-08-16T10:05:01Z</time>
      </trkpt>
      <trkpt lat="45.78167" lon="6.6612">
        <ele>1723</ele>
        <time>2022-08-16T10:05:02Z</time>
      </trkpt>
      <trkpt lat="45.78165" lon="6.66123">
        <ele>1723</ele>
        <time>2022-08-16T10:05:03Z</time>
      </trkpt>
      <trkpt lat="45.78164" lon="6.66125">
        <ele>1723</ele>
        <time>2022-08-16T10:05:04Z</time>
      </trkpt>
      <trkpt lat="45.78163" lon="6.66128">
        <ele>1723</ele>
        <time>2022-08-16T10:05:05Z</time>
      </trkpt>
      <trkpt lat="45.78161" lon="6.6613">
        <ele>1724</ele>
        <time>2022-08-16T10:05:06Z</time>
      </trkpt>
      <trkpt lat="45.78159" lon="6.66132">
        <ele>1724</ele>
        <time>2022-08-16T10:05:07Z</time>
      </trkpt>
      <trkpt lat="45.78156" lon="6.66134">
        <ele>1724</ele>
        <time>2022-08-16T10:05:08Z</time>
      </trkpt>
      <trkpt lat="45.78154" lon="6.66134">
        <ele>1724</ele>
        <time>2022-08-16T10:05:09Z</time>
      </trkpt>
      <trkpt lat="45.78151" lon="6.66134">
        <ele>1724</ele>
        <time>2022-08-16T10:05:10Z</time>
      </trkpt>
      <trkpt lat="45.78148" lon="6.66134">
        <ele>1724</ele>
        <time>2022-08-16T10:05:11Z</time>
      </trkpt>
      <trkpt lat="45.78146" lon="6.66133">
        <ele>1724</ele>
        <time>2022-08-16T10:05:12Z</time>
      </trkpt>
      <trkpt lat="45.78144" lon="6.66132">
        <ele>1724</ele>
        <time>2022-08-16T10:05:13Z</time>
      </trkpt>
      <trkpt lat="45.78141" lon="6.6613">
        <ele>1724</ele>
        <time>2022-08-16T10:05:14Z</time>
      </trkpt>
      <trkpt lat="45.78139" lon="6.66128">
        <ele>1724</ele>
        <time>2022-08-16T10:05:15Z</time>
      </trkpt>
      <trkpt lat="45.78137" lon="6.66126">
        <ele>1725</ele>
        <time>2022-08-16T10:05:16Z</time>
      </trkpt>
      <trkpt lat="45.78136" lon="6.66125">
        <ele>1725</ele>
        <time>2022-08-16T10:05:17Z</time>
      </trkpt>
      <trkpt lat="45.78134" lon="6.66123">
        <ele>1725</ele>
        <time>2022-08-16T10:05:18Z</time>
      </trkpt>
      <trkpt lat="45.78132" lon="6.66122">
        <ele>1725</ele>
        <time>2022-08-16T10:05:19Z</time>
      </trkpt>
      <trkpt lat="45.7813" lon="6.6612">
        <ele>1725</ele>
        <time>2022-08-16T10:05:20Z</time>
      </trkpt>
      <trkpt lat="45.78129" lon="6.66118">
        <ele>1725</ele>
        <time>2022-08-16T10:05:21Z</time>
      </trkpt>
      <trkpt lat="45.78127" lon="6.66117">
        <ele>1725</ele>
        <time>2022-08-16T10:05:22Z</time>
      </trkpt>
      <trkpt lat="45.78126" lon="6.66115">
        <ele>1725</ele>
        <time>2022-08-16T10:05:23Z</time>
      </trkpt>
      <trkpt lat="45.78124" lon="6.66113">
        <ele>1725</ele>
        <time>2022-08-16T10:05:24Z</time>
      </trkpt>
      <trkpt lat="45.78122" lon="6.66111">
        <ele>1725</ele>
        <time>2022-08-16T10:05:25Z</time>
      </trkpt>
      <trkpt lat="45.78121" lon="6.66109">
        <ele>1726</ele>
        <time>2022-08-16T10:05:26Z</time>
      </trkpt>
      <trkpt lat="45.78119" lon="6.66108">
        <ele>1726</ele>
        <time>2022-08-16T10:05:27Z</time>
      </trkpt>
      <trkpt lat="45.78117" lon="6.66107">
        <ele>1727</ele>
        <time>2022-08-16T10:05:28Z</time>
      </trkpt>
      <trkpt lat="45.78115" lon="6.66106">
        <ele>1727</ele>
        <time>2022-08-16T10:05:29Z</time>
      </trkpt>
      <trkpt lat="45.78113" lon="6.66105">
        <ele>1727</ele>
        <time>2022-08-16T10:05:30Z</time>
      </trkpt>
      <trkpt lat="45.78112" lon="6.66104">
        <ele>1727</ele>
        <time>2022-08-16T10:05:31Z</time>
      </trkpt>
      <trkpt lat="45.7811" lon="6.66104">
        <ele>1727</ele>
        <time>2022-08-16T10:05:32Z</time>
      </trkpt>
      <trkpt lat="45.78108" lon="6.66105">
        <ele>1728</ele>
        <time>2022-08-16T10:05:33Z</time>
      </trkpt>
      <trkpt lat="45.78105" lon="6.66106">
        <ele>1728</ele>
        <time>2022-08-16T10:05:34Z</time>
      </trkpt>
      <trkpt lat="45.78103" lon="6.66107">
        <ele>1729</ele>
        <time>2022-08-16T10:05:35Z</time>
      </trkpt>
      <trkpt lat="45.78101" lon="6.66108">
        <ele>1729</ele>
        <time>2022-08-16T10:05:36Z</time>
      </trkpt>
      <trkpt lat="45.78099" lon="6.66109">
        <ele>1729</ele>
        <time>2022-08-16T10:05:37Z</time>
      </trkpt>
      <trkpt lat="45.78097" lon="6.6611">
        <ele>1729</ele>
        <time>2022-08-16T10:05:38Z</time>
      </trkpt>
      <trkpt lat="45.78095" lon="6.66111">
        <ele>1729</ele>
        <time>2022-08-16T10:05:39Z</time>
      </trkpt>
      <trkpt lat="45.78094" lon="6.66112">
        <ele>1729</ele>
        <time>2022-08-16T10:05:40Z</time>
      </trkpt>
      <trkpt lat="45.78091" lon="6.66114">
        <ele>1729</ele>
        <time>2022-08-16T10:05:41Z</time>
      </trkpt>
      <trkpt lat="45.78089" lon="6.66115">
        <ele>1730</ele>
        <time>2022-08-16T10:05:42Z</time>
      </trkpt>
      <trkpt lat="45.78088" lon="6.66117">
        <ele>1730</ele>
        <time>2022-08-16T10:05:43Z</time>
      </trkpt>
      <trkpt lat="45.78086" lon="6.66118">
        <ele>1730</ele>
        <time>2022-08-16T10:05:44Z</time>
      </trkpt>
      <trkpt lat="45.78084" lon="6.66119">
        <ele>1730</ele>
        <time>2022-08-16T10:05:45Z</time>
      </trkpt>
      <trkpt lat="45.78082" lon="6.6612">
        <ele>1730</ele>
        <time>2022-08-16T10:05:46Z</time>
      </trkpt>
      <trkpt lat="45.78081" lon="6.66122">
        <ele>1730</ele>
        <time>2022-08-16T10:05:47Z</time>
      </trkpt>
      <trkpt lat="45.78079" lon="6.66124">
        <ele>1730</ele>
        <time>2022-08-16T10:05:48Z</time>
      </trkpt>
      <trkpt lat="45.78077" lon="6.66125">
        <ele>1730</ele>
        <time>2022-08-16T10:05:49Z</time>
      </trkpt>
      <trkpt lat="45.78075" lon="6.66126">
        <ele>1730</ele>
        <time>2022-08-16T10:05:50Z</time>
      </trkpt>
      <trkpt lat="45.78074" lon="6.66127">
        <ele>1730</ele>
        <time>2022-08-16T10:05:51Z</time>
      </trkpt>
      <trkpt lat="45.78072" lon="6.66129">
        <ele>1730</ele>
        <time>2022-08-16T10:05:52Z</time>
      </trkpt>
      <trkpt lat="45.7807" lon="6.66131">
        <ele>1730</ele>
        <time>2022-08-16T10:05:53Z</time>
      </trkpt>
      <trkpt lat="45.78068" lon="6.66133">
        <ele>1730</ele>
        <time>2022-08-16T10:05:54Z</time>
      </trkpt>
      <trkpt lat="45.78067" lon="6.66134">
        <ele>1730</ele>
        <time>2022-08-16T10:05:55Z</time>
      </trkpt>
      <trkpt lat="45.78066" lon="6.66136">
        <ele>1730</ele>
        <time>2022-08-16T10:05:56Z</time>
      </trkpt>
      <trkpt lat="45.78064" lon="6.66137">
        <ele>1730</ele>
        <time>2022-08-16T10:05:57Z</time>
      </trkpt>
      <trkpt lat="45.78063" lon="6.66138">
        <ele>1730</ele>
        <time>2022-08-16T10:05:58Z</time>
      </trkpt>
      <trkpt lat="45.78061" lon="6.66138">
        <ele>1730</ele>
        <time>2022-08-16T10:05:59Z</time>
      </trkpt>
      <trkpt lat="45.78059" lon="6.6614">
        <ele>1730</ele>
        <time>2022-08-16T10:06:00Z</time>
      </trkpt>
      <trkpt lat="45.78057" lon="6.66141">
        <ele>1730</ele>
        <time>2022-08-16T10:06:01Z</time>
      </trkpt>
      <trkpt lat="45.78056" lon="6.66142">
        <ele>1730</ele>
        <time>2022-08-16T10:06:02Z</time>
      </trkpt>
      <trkpt lat="45.78054" lon="6.66144">
        <ele>1730</ele>
        <time>2022-08-16T10:06:03Z</time>
      </trkpt>
      <trkpt lat="45.78052" lon="6.66145">
        <ele>1730</ele>
        <time>2022-08-16T10:06:04Z</time>
      </trkpt>
      <trkpt lat="45.7805" lon="6.66147">
        <ele>1730</ele>
        <time>2022-08-16T10:06:05Z</time>
      </trkpt>
      <trkpt lat="45.78048" lon="6.66148">
        <ele>1730</ele>
        <time>2022-08-16T10:06:06Z</time>
      </trkpt>
      <trkpt lat="45.78046" lon="6.66149">
        <ele>1731</ele>
        <time>2022-08-16T10:06:07Z</time>
      </trkpt>
      <trkpt lat="45.78044" lon="6.66149">
        <ele>1731</ele>
        <time>2022-08-16T10:06:08Z</time>
      </trkpt>
      <trkpt lat="45.78042" lon="6.66149">
        <ele>1732</ele>
        <time>2022-08-16T10:06:09Z</time>
      </trkpt>
      <trkpt lat="45.7804" lon="6.66151">
        <ele>1732</ele>
        <time>2022-08-16T10:06:10Z</time>
      </trkpt>
      <trkpt lat="45.78038" lon="6.66152">
        <ele>1731</ele>
        <time>2022-08-16T10:06:11Z</time>
      </trkpt>
      <trkpt lat="45.78036" lon="6.66153">
        <ele>1732</ele>
        <time>2022-08-16T10:06:12Z</time>
      </trkpt>
      <trkpt lat="45.78034" lon="6.66154">
        <ele>1732</ele>
        <time>2022-08-16T10:06:13Z</time>
      </trkpt>
      <trkpt lat="45.78032" lon="6.66154">
        <ele>1732</ele>
        <time>2022-08-16T10:06:14Z</time>
      </trkpt>
      <trkpt lat="45.7803" lon="6.66155">
        <ele>1732</ele>
        <time>2022-08-16T10:06:15Z</time>
      </trkpt>
      <trkpt lat="45.78028" lon="6.66155">
        <ele>1732</ele>
        <time>2022-08-16T10:06:16Z</time>
      </trkpt>
      <trkpt lat="45.78026" lon="6.66154">
        <ele>1732</ele>
        <time>2022-08-16T10:06:17Z</time>
      </trkpt>
      <trkpt lat="45.78026" lon="6.66154">
        <ele>1732</ele>
        <time>2022-08-16T10:06:18Z</time>
      </trkpt>
      <trkpt lat="45.78026" lon="6.66154">
        <ele>1733</ele>
        <time>2022-08-16T10:06:19Z</time>
      </trkpt>
      <trkpt lat="45.78026" lon="6.66154">
        <ele>1733</ele>
        <time>2022-08-16T10:06:20Z</time>
      </trkpt>
      <trkpt lat="45.78026" lon="6.66152">
        <ele>1734</ele>
        <time>2022-08-16T10:06:21Z</time>
      </trkpt>
      <trkpt lat="45.78027" lon="6.66151">
        <ele>1734</ele>
        <time>2022-08-16T10:06:22Z</time>
      </trkpt>
      <trkpt lat="45.78029" lon="6.66155">
        <ele>1738</ele>
        <time>2022-08-16T10:06:25.583Z</time>
      </trkpt>
      <trkpt lat="45.78025" lon="6.66149">
        <ele>1743</ele>
        <time>2022-08-16T10:06:27Z</time>
      </trkpt>
      <trkpt lat="45.78025" lon="6.66149">
        <ele>1735</ele>
        <time>2022-08-16T10:06:28Z</time>
      </trkpt>
      <trkpt lat="45.78024" lon="6.6615">
        <ele>1735</ele>
        <time>2022-08-16T10:06:29Z</time>
      </trkpt>
      <trkpt lat="45.78024" lon="6.6615">
        <ele>1734</ele>
        <time>2022-08-16T10:06:30Z</time>
      </trkpt>
      <trkpt lat="45.78024" lon="6.6615">
        <ele>1734</ele>
        <time>2022-08-16T10:06:34Z</time>
      </trkpt>
      <trkpt lat="45.78024" lon="6.6615">
        <ele>1734</ele>
        <time>2022-08-16T10:06:38Z</time>
      </trkpt>
      <trkpt lat="45.78024" lon="6.6615">
        <ele>1734</ele>
        <time>2022-08-16T10:06:42Z</time>
      </trkpt>
      <trkpt lat="45.78024" lon="6.6615">
        <ele>1734</ele>
        <time>2022-08-16T10:06:46Z</time>
      </trkpt>
      <trkpt lat="45.78024" lon="6.6615">
        <ele>1734</ele>
        <time>2022-08-16T10:06:50Z</time>
      </trkpt>
      <trkpt lat="45.78024" lon="6.6615">
        <ele>1734</ele>
        <time>2022-08-16T10:06:54Z</time>
      </trkpt>
      <trkpt lat="45.78024" lon="6.6615">
        <ele>1734</ele>
        <time>2022-08-16T10:06:58Z</time>
      </trkpt>
      <trkpt lat="45.78024" lon="6.6615">
        <ele>1734</ele>
        <time>2022-08-16T10:07:02Z</time>
      </trkpt>
      <trkpt lat="45.78024" lon="6.66149">
        <ele>1735</ele>
        <time>2022-08-16T10:07:04Z</time>
      </trkpt>
      <trkpt lat="45.78025" lon="6.6615">
        <ele>1735</ele>
        <time>2022-08-16T10:07:05Z</time>
      </trkpt>
      <trkpt lat="45.78025" lon="6.6615">
        <ele>1734</ele>
        <time>2022-08-16T10:07:06Z</time>
      </trkpt>
      <trkpt lat="45.78025" lon="6.66149">
        <ele>1735</ele>
        <time>2022-08-16T10:07:07Z</time>
      </trkpt>
      <trkpt lat="45.78025" lon="6.6615">
        <ele>1735</ele>
        <time>2022-08-16T10:07:08Z</time>
      </trkpt>
      <trkpt lat="45.78025" lon="6.6615">
        <ele>1735</ele>
        <time>2022-08-16T10:07:09Z</time>
      </trkpt>
      <trkpt lat="45.78025" lon="6.6615">
        <ele>1735</ele>
        <time>2022-08-16T10:07:10Z</time>
      </trkpt>
      <trkpt lat="45.78025" lon="6.6615">
        <ele>1735</ele>
        <time>2022-08-16T10:07:11Z</time>
      </trkpt>
      <trkpt lat="45.78025" lon="6.6615">
        <ele>1735</ele>
        <time>2022-08-16T10:07:15Z</time>
      </trkpt>
      <trkpt lat="45.78025" lon="6.6615">
        <ele>1735</ele>
        <time>2022-08-16T10:07:19Z</time>
      </trkpt>
      <trkpt lat="45.78025" lon="6.6615">
        <ele>1735</ele>
        <time>2022-08-16T10:07:23Z</time>
      </trkpt>
      <trkpt lat="45.78025" lon="6.6615">
        <ele>1735</ele>
        <time>2022-08-16T10:07:27Z</time>
      </trkpt>
      <trkpt lat="45.78025" lon="6.6615">
        <ele>1735</ele>
        <time>2022-08-16T10:07:31Z</time>
      </trkpt>
      <trkpt lat="45.78025" lon="6.6615">
        <ele>1735</ele>
        <time>2022-08-16T10:07:35Z</time>
      </trkpt>
      <trkpt lat="45.78025" lon="6.66148">
        <ele>1735</ele>
        <time>2022-08-16T10:07:38Z</time>
      </trkpt>
      <trkpt lat="45.78024" lon="6.66148">
        <ele>1735</ele>
        <time>2022-08-16T10:07:39Z</time>
      </trkpt>
      <trkpt lat="45.78023" lon="6.66147">
        <ele>1735</ele>
        <time>2022-08-16T10:07:40Z</time>
      </trkpt>
      <trkpt lat="45.78022" lon="6.66147">
        <ele>1735</ele>
        <time>2022-08-16T10:07:41Z</time>
      </trkpt>
      <trkpt lat="45.78021" lon="6.66145">
        <ele>1736</ele>
        <time>2022-08-16T10:07:42Z</time>
      </trkpt>
      <trkpt lat="45.7802" lon="6.66143">
        <ele>1736</ele>
        <time>2022-08-16T10:07:43Z</time>
      </trkpt>
      <trkpt lat="45.78018" lon="6.66142">
        <ele>1736</ele>
        <time>2022-08-16T10:07:44Z</time>
      </trkpt>
      <trkpt lat="45.78016" lon="6.66141">
        <ele>1736</ele>
        <time>2022-08-16T10:07:45Z</time>
      </trkpt>
      <trkpt lat="45.78014" lon="6.66141">
        <ele>1736</ele>
        <time>2022-08-16T10:07:46Z</time>
      </trkpt>
      <trkpt lat="45.78012" lon="6.6614">
        <ele>1737</ele>
        <time>2022-08-16T10:07:47Z</time>
      </trkpt>
      <trkpt lat="45.7801" lon="6.66139">
        <ele>1737</ele>
        <time>2022-08-16T10:07:48Z</time>
      </trkpt>
      <trkpt lat="45.78008" lon="6.66138">
        <ele>1737</ele>
        <time>2022-08-16T10:07:49Z</time>
      </trkpt>
      <trkpt lat="45.78006" lon="6.66137">
        <ele>1737</ele>
        <time>2022-08-16T10:07:50Z</time>
      </trkpt>
      <trkpt lat="45.78003" lon="6.66136">
        <ele>1737</ele>
        <time>2022-08-16T10:07:51Z</time>
      </trkpt>
      <trkpt lat="45.78001" lon="6.66135">
        <ele>1737</ele>
        <time>2022-08-16T10:07:52Z</time>
      </trkpt>
      <trkpt lat="45.77999" lon="6.66134">
        <ele>1737</ele>
        <time>2022-08-16T10:07:53Z</time>
      </trkpt>
      <trkpt lat="45.77997" lon="6.66133">
        <ele>1737</ele>
        <time>2022-08-16T10:07:54Z</time>
      </trkpt>
      <trkpt lat="45.77995" lon="6.66132">
        <ele>1737</ele>
        <time>2022-08-16T10:07:55Z</time>
      </trkpt>
      <trkpt lat="45.77993" lon="6.6613">
        <ele>1737</ele>
        <time>2022-08-16T10:07:56Z</time>
      </trkpt>
      <trkpt lat="45.77991" lon="6.6613">
        <ele>1737</ele>
        <time>2022-08-16T10:07:57Z</time>
      </trkpt>
      <trkpt lat="45.77989" lon="6.66128">
        <ele>1737</ele>
        <time>2022-08-16T10:07:58Z</time>
      </trkpt>
      <trkpt lat="45.77986" lon="6.66127">
        <ele>1737</ele>
        <time>2022-08-16T10:07:59Z</time>
      </trkpt>
      <trkpt lat="45.77984" lon="6.66125">
        <ele>1737</ele>
        <time>2022-08-16T10:08:00Z</time>
      </trkpt>
      <trkpt lat="45.77982" lon="6.66124">
        <ele>1737</ele>
        <time>2022-08-16T10:08:01Z</time>
      </trkpt>
      <trkpt lat="45.77979" lon="6.66123">
        <ele>1737</ele>
        <time>2022-08-16T10:08:02Z</time>
      </trkpt>
      <trkpt lat="45.77977" lon="6.66121">
        <ele>1737</ele>
        <time>2022-08-16T10:08:03Z</time>
      </trkpt>
      <trkpt lat="45.77974" lon="6.66119">
        <ele>1737</ele>
        <time>2022-08-16T10:08:04Z</time>
      </trkpt>
      <trkpt lat="45.77972" lon="6.66117">
        <ele>1737</ele>
        <time>2022-08-16T10:08:05Z</time>
      </trkpt>
      <trkpt lat="45.77969" lon="6.66116">
        <ele>1737</ele>
        <time>2022-08-16T10:08:06Z</time>
      </trkpt>
      <trkpt lat="45.77966" lon="6.66114">
        <ele>1737</ele>
        <time>2022-08-16T10:08:07Z</time>
      </trkpt>
      <trkpt lat="45.77964" lon="6.66113">
        <ele>1737</ele>
        <time>2022-08-16T10:08:08Z</time>
      </trkpt>
      <trkpt lat="45.77962" lon="6.66112">
        <ele>1737</ele>
        <time>2022-08-16T10:08:09Z</time>
      </trkpt>
      <trkpt lat="45.7796" lon="6.66111">
        <ele>1737</ele>
        <time>2022-08-16T10:08:10Z</time>
      </trkpt>
      <trkpt lat="45.77958" lon="6.6611">
        <ele>1738</ele>
        <time>2022-08-16T10:08:11Z</time>
      </trkpt>
      <trkpt lat="45.77956" lon="6.66109">
        <ele>1738</ele>
        <time>2022-08-16T10:08:12Z</time>
      </trkpt>
      <trkpt lat="45.77954" lon="6.66108">
        <ele>1738</ele>
        <time>2022-08-16T10:08:13Z</time>
      </trkpt>
      <trkpt lat="45.77952" lon="6.66106">
        <ele>1738</ele>
        <time>2022-08-16T10:08:14Z</time>
      </trkpt>
      <trkpt lat="45.7795" lon="6.66105">
        <ele>1739</ele>
        <time>2022-08-16T10:08:15Z</time>
      </trkpt>
      <trkpt lat="45.77948" lon="6.66103">
        <ele>1739</ele>
        <time>2022-08-16T10:08:16Z</time>
      </trkpt>
      <trkpt lat="45.77946" lon="6.66102">
        <ele>1740</ele>
        <time>2022-08-16T10:08:17Z</time>
      </trkpt>
      <trkpt lat="45.77944" lon="6.661">
        <ele>1740</ele>
        <time>2022-08-16T10:08:18Z</time>
      </trkpt>
      <trkpt lat="45.77942" lon="6.66099">
        <ele>1740</ele>
        <time>2022-08-16T10:08:19Z</time>
      </trkpt>
      <trkpt lat="45.7794" lon="6.66098">
        <ele>1741</ele>
        <time>2022-08-16T10:08:20Z</time>
      </trkpt>
      <trkpt lat="45.77938" lon="6.66097">
        <ele>1741</ele>
        <time>2022-08-16T10:08:21Z</time>
      </trkpt>
      <trkpt lat="45.77936" lon="6.66096">
        <ele>1742</ele>
        <time>2022-08-16T10:08:22Z</time>
      </trkpt>
      <trkpt lat="45.77935" lon="6.66095">
        <ele>1742</ele>
        <time>2022-08-16T10:08:23Z</time>
      </trkpt>
      <trkpt lat="45.77933" lon="6.66094">
        <ele>1742</ele>
        <time>2022-08-16T10:08:24Z</time>
      </trkpt>
      <trkpt lat="45.77931" lon="6.66093">
        <ele>1742</ele>
        <time>2022-08-16T10:08:25Z</time>
      </trkpt>
      <trkpt lat="45.77929" lon="6.66092">
        <ele>1742</ele>
        <time>2022-08-16T10:08:26Z</time>
      </trkpt>
      <trkpt lat="45.77928" lon="6.6609">
        <ele>1742</ele>
        <time>2022-08-16T10:08:27Z</time>
      </trkpt>
      <trkpt lat="45.77926" lon="6.66089">
        <ele>1743</ele>
        <time>2022-08-16T10:08:28Z</time>
      </trkpt>
      <trkpt lat="45.77924" lon="6.66087">
        <ele>1743</ele>
        <time>2022-08-16T10:08:29Z</time>
      </trkpt>
      <trkpt lat="45.77922" lon="6.66086">
        <ele>1743</ele>
        <time>2022-08-16T10:08:30Z</time>
      </trkpt>
      <trkpt lat="45.77919" lon="6.66084">
        <ele>1743</ele>
        <time>2022-08-16T10:08:31Z</time>
      </trkpt>
      <trkpt lat="45.77917" lon="6.66083">
        <ele>1743</ele>
        <time>2022-08-16T10:08:32Z</time>
      </trkpt>
      <trkpt lat="45.77915" lon="6.66082">
        <ele>1744</ele>
        <time>2022-08-16T10:08:33Z</time>
      </trkpt>
      <trkpt lat="45.77913" lon="6.66081">
        <ele>1744</ele>
        <time>2022-08-16T10:08:34Z</time>
      </trkpt>
      <trkpt lat="45.77912" lon="6.66079">
        <ele>1745</ele>
        <time>2022-08-16T10:08:35Z</time>
      </trkpt>
      <trkpt lat="45.7791" lon="6.66077">
        <ele>1745</ele>
        <time>2022-08-16T10:08:36Z</time>
      </trkpt>
      <trkpt lat="45.77908" lon="6.66076">
        <ele>1745</ele>
        <time>2022-08-16T10:08:37Z</time>
      </trkpt>
      <trkpt lat="45.77906" lon="6.66075">
        <ele>1745</ele>
        <time>2022-08-16T10:08:38Z</time>
      </trkpt>
      <trkpt lat="45.77904" lon="6.66074">
        <ele>1745</ele>
        <time>2022-08-16T10:08:39Z</time>
      </trkpt>
      <trkpt lat="45.77903" lon="6.66072">
        <ele>1746</ele>
        <time>2022-08-16T10:08:40Z</time>
      </trkpt>
      <trkpt lat="45.77901" lon="6.66071">
        <ele>1746</ele>
        <time>2022-08-16T10:08:41Z</time>
      </trkpt>
      <trkpt lat="45.77899" lon="6.66069">
        <ele>1746</ele>
        <time>2022-08-16T10:08:42Z</time>
      </trkpt>
      <trkpt lat="45.77897" lon="6.66067">
        <ele>1747</ele>
        <time>2022-08-16T10:08:43Z</time>
      </trkpt>
      <trkpt lat="45.77895" lon="6.66066">
        <ele>1747</ele>
        <time>2022-08-16T10:08:44Z</time>
      </trkpt>
      <trkpt lat="45.77894" lon="6.66064">
        <ele>1747</ele>
        <time>2022-08-16T10:08:45Z</time>
      </trkpt>
      <trkpt lat="45.77892" lon="6.66063">
        <ele>1748</ele>
        <time>2022-08-16T10:08:46Z</time>
      </trkpt>
      <trkpt lat="45.7789" lon="6.66062">
        <ele>1748</ele>
        <time>2022-08-16T10:08:47Z</time>
      </trkpt>
      <trkpt lat="45.77888" lon="6.66061">
        <ele>1748</ele>
        <time>2022-08-16T10:08:48Z</time>
      </trkpt>
      <trkpt lat="45.77886" lon="6.6606">
        <ele>1748</ele>
        <time>2022-08-16T10:08:49Z</time>
      </trkpt>
      <trkpt lat="45.77884" lon="6.66058">
        <ele>1749</ele>
        <time>2022-08-16T10:08:50Z</time>
      </trkpt>
      <trkpt lat="45.77882" lon="6.66057">
        <ele>1749</ele>
        <time>2022-08-16T10:08:51Z</time>
      </trkpt>
      <trkpt lat="45.7788" lon="6.66055">
        <ele>1748</ele>
        <time>2022-08-16T10:08:52Z</time>
      </trkpt>
      <trkpt lat="45.77878" lon="6.66054">
        <ele>1748</ele>
        <time>2022-08-16T10:08:53Z</time>
      </trkpt>
      <trkpt lat="45.77875" lon="6.66053">
        <ele>1748</ele>
        <time>2022-08-16T10:08:54Z</time>
      </trkpt>
      <trkpt lat="45.77874" lon="6.66052">
        <ele>1748</ele>
        <time>2022-08-16T10:08:55Z</time>
      </trkpt>
      <trkpt lat="45.77872" lon="6.66051">
        <ele>1748</ele>
        <time>2022-08-16T10:08:56Z</time>
      </trkpt>
      <trkpt lat="45.7787" lon="6.6605">
        <ele>1749</ele>
        <time>2022-08-16T10:08:57Z</time>
      </trkpt>
      <trkpt lat="45.77868" lon="6.66049">
        <ele>1749</ele>
        <time>2022-08-16T10:08:58Z</time>
      </trkpt>
      <trkpt lat="45.77865" lon="6.66048">
        <ele>1749</ele>
        <time>2022-08-16T10:08:59Z</time>
      </trkpt>
      <trkpt lat="45.77864" lon="6.66047">
        <ele>1749</ele>
        <time>2022-08-16T10:09:00Z</time>
      </trkpt>
      <trkpt lat="45.77862" lon="6.66047">
        <ele>1749</ele>
        <time>2022-08-16T10:09:01Z</time>
      </trkpt>
      <trkpt lat="45.7786" lon="6.66046">
        <ele>1749</ele>
        <time>2022-08-16T10:09:02Z</time>
      </trkpt>
      <trkpt lat="45.77857" lon="6.66045">
        <ele>1749</ele>
        <time>2022-08-16T10:09:03Z</time>
      </trkpt>
      <trkpt lat="45.77855" lon="6.66045">
        <ele>1749</ele>
        <time>2022-08-16T10:09:04Z</time>
      </trkpt>
      <trkpt lat="45.77853" lon="6.66045">
        <ele>1749</ele>
        <time>2022-08-16T10:09:05Z</time>
      </trkpt>
      <trkpt lat="45.77851" lon="6.66044">
        <ele>1750</ele>
        <time>2022-08-16T10:09:06Z</time>
      </trkpt>
      <trkpt lat="45.77849" lon="6.66044">
        <ele>1750</ele>
        <time>2022-08-16T10:09:07Z</time>
      </trkpt>
      <trkpt lat="45.77847" lon="6.66042">
        <ele>1750</ele>
        <time>2022-08-16T10:09:08Z</time>
      </trkpt>
      <trkpt lat="45.77845" lon="6.66041">
        <ele>1749</ele>
        <time>2022-08-16T10:09:09Z</time>
      </trkpt>
      <trkpt lat="45.77842" lon="6.6604">
        <ele>1750</ele>
        <time>2022-08-16T10:09:10Z</time>
      </trkpt>
      <trkpt lat="45.7784" lon="6.66039">
        <ele>1750</ele>
        <time>2022-08-16T10:09:11Z</time>
      </trkpt>
      <trkpt lat="45.77838" lon="6.66039">
        <ele>1750</ele>
        <time>2022-08-16T10:09:12Z</time>
      </trkpt>
      <trkpt lat="45.77837" lon="6.66038">
        <ele>1751</ele>
        <time>2022-08-16T10:09:13Z</time>
      </trkpt>
      <trkpt lat="45.77834" lon="6.66038">
        <ele>1751</ele>
        <time>2022-08-16T10:09:14Z</time>
      </trkpt>
      <trkpt lat="45.77832" lon="6.66037">
        <ele>1751</ele>
        <time>2022-08-16T10:09:15Z</time>
      </trkpt>
      <trkpt lat="45.7783" lon="6.66036">
        <ele>1751</ele>
        <time>2022-08-16T10:09:16Z</time>
      </trkpt>
      <trkpt lat="45.77828" lon="6.66036">
        <ele>1752</ele>
        <time>2022-08-16T10:09:17Z</time>
      </trkpt>
      <trkpt lat="45.77826" lon="6.66035">
        <ele>1752</ele>
        <time>2022-08-16T10:09:18Z</time>
      </trkpt>
      <trkpt lat="45.77824" lon="6.66035">
        <ele>1752</ele>
        <time>2022-08-16T10:09:19Z</time>
      </trkpt>
      <trkpt lat="45.77822" lon="6.66034">
        <ele>1752</ele>
        <time>2022-08-16T10:09:20Z</time>
      </trkpt>
      <trkpt lat="45.77819" lon="6.66034">
        <ele>1752</ele>
        <time>2022-08-16T10:09:21Z</time>
      </trkpt>
      <trkpt lat="45.77817" lon="6.66033">
        <ele>1753</ele>
        <time>2022-08-16T10:09:22Z</time>
      </trkpt>
      <trkpt lat="45.77815" lon="6.66033">
        <ele>1753</ele>
        <time>2022-08-16T10:09:23Z</time>
      </trkpt>
      <trkpt lat="45.77813" lon="6.66033">
        <ele>1753</ele>
        <time>2022-08-16T10:09:24Z</time>
      </trkpt>
      <trkpt lat="45.77811" lon="6.66033">
        <ele>1753</ele>
        <time>2022-08-16T10:09:25Z</time>
      </trkpt>
      <trkpt lat="45.77808" lon="6.66033">
        <ele>1753</ele>
        <time>2022-08-16T10:09:26Z</time>
      </trkpt>
      <trkpt lat="45.77806" lon="6.66034">
        <ele>1754</ele>
        <time>2022-08-16T10:09:27Z</time>
      </trkpt>
      <trkpt lat="45.77804" lon="6.66034">
        <ele>1754</ele>
        <time>2022-08-16T10:09:28Z</time>
      </trkpt>
      <trkpt lat="45.77801" lon="6.66034">
        <ele>1754</ele>
        <time>2022-08-16T10:09:29Z</time>
      </trkpt>
      <trkpt lat="45.77799" lon="6.66034">
        <ele>1754</ele>
        <time>2022-08-16T10:09:30Z</time>
      </trkpt>
      <trkpt lat="45.77797" lon="6.66035">
        <ele>1755</ele>
        <time>2022-08-16T10:09:31Z</time>
      </trkpt>
      <trkpt lat="45.77795" lon="6.66036">
        <ele>1755</ele>
        <time>2022-08-16T10:09:32Z</time>
      </trkpt>
      <trkpt lat="45.77793" lon="6.66037">
        <ele>1755</ele>
        <time>2022-08-16T10:09:33Z</time>
      </trkpt>
      <trkpt lat="45.77791" lon="6.66038">
        <ele>1755</ele>
        <time>2022-08-16T10:09:34Z</time>
      </trkpt>
      <trkpt lat="45.77789" lon="6.66039">
        <ele>1756</ele>
        <time>2022-08-16T10:09:35Z</time>
      </trkpt>
      <trkpt lat="45.77787" lon="6.66039">
        <ele>1756</ele>
        <time>2022-08-16T10:09:36Z</time>
      </trkpt>
      <trkpt lat="45.77785" lon="6.6604">
        <ele>1756</ele>
        <time>2022-08-16T10:09:37Z</time>
      </trkpt>
      <trkpt lat="45.77783" lon="6.6604">
        <ele>1756</ele>
        <time>2022-08-16T10:09:38Z</time>
      </trkpt>
      <trkpt lat="45.7778" lon="6.6604">
        <ele>1756</ele>
        <time>2022-08-16T10:09:39Z</time>
      </trkpt>
      <trkpt lat="45.77778" lon="6.66041">
        <ele>1756</ele>
        <time>2022-08-16T10:09:40Z</time>
      </trkpt>
      <trkpt lat="45.77776" lon="6.66041">
        <ele>1756</ele>
        <time>2022-08-16T10:09:41Z</time>
      </trkpt>
      <trkpt lat="45.77774" lon="6.66042">
        <ele>1756</ele>
        <time>2022-08-16T10:09:42Z</time>
      </trkpt>
      <trkpt lat="45.77772" lon="6.66043">
        <ele>1756</ele>
        <time>2022-08-16T10:09:43Z</time>
      </trkpt>
      <trkpt lat="45.7777" lon="6.66044">
        <ele>1757</ele>
        <time>2022-08-16T10:09:44Z</time>
      </trkpt>
      <trkpt lat="45.77768" lon="6.66044">
        <ele>1757</ele>
        <time>2022-08-16T10:09:45Z</time>
      </trkpt>
      <trkpt lat="45.77766" lon="6.66045">
        <ele>1757</ele>
        <time>2022-08-16T10:09:46Z</time>
      </trkpt>
      <trkpt lat="45.77765" lon="6.66045">
        <ele>1757</ele>
        <time>2022-08-16T10:09:47Z</time>
      </trkpt>
      <trkpt lat="45.77762" lon="6.66045">
        <ele>1757</ele>
        <time>2022-08-16T10:09:48Z</time>
      </trkpt>
      <trkpt lat="45.7776" lon="6.66045">
        <ele>1757</ele>
        <time>2022-08-16T10:09:49Z</time>
      </trkpt>
      <trkpt lat="45.77757" lon="6.66045">
        <ele>1757</ele>
        <time>2022-08-16T10:09:50Z</time>
      </trkpt>
      <trkpt lat="45.77755" lon="6.66046">
        <ele>1757</ele>
        <time>2022-08-16T10:09:51Z</time>
      </trkpt>
      <trkpt lat="45.77753" lon="6.66046">
        <ele>1757</ele>
        <time>2022-08-16T10:09:52Z</time>
      </trkpt>
      <trkpt lat="45.77751" lon="6.66047">
        <ele>1757</ele>
        <time>2022-08-16T10:09:53Z</time>
      </trkpt>
      <trkpt lat="45.77749" lon="6.66047">
        <ele>1758</ele>
        <time>2022-08-16T10:09:54Z</time>
      </trkpt>
      <trkpt lat="45.77747" lon="6.66048">
        <ele>1758</ele>
        <time>2022-08-16T10:09:55Z</time>
      </trkpt>
      <trkpt lat="45.77745" lon="6.66048">
        <ele>1759</ele>
        <time>2022-08-16T10:09:56Z</time>
      </trkpt>
      <trkpt lat="45.77743" lon="6.66049">
        <ele>1759</ele>
        <time>2022-08-16T10:09:57Z</time>
      </trkpt>
      <trkpt lat="45.77741" lon="6.6605">
        <ele>1759</ele>
        <time>2022-08-16T10:09:58Z</time>
      </trkpt>
      <trkpt lat="45.77739" lon="6.66051">
        <ele>1760</ele>
        <time>2022-08-16T10:09:59Z</time>
      </trkpt>
      <trkpt lat="45.77737" lon="6.66051">
        <ele>1760</ele>
        <time>2022-08-16T10:10:00Z</time>
      </trkpt>
      <trkpt lat="45.77735" lon="6.66052">
        <ele>1761</ele>
        <time>2022-08-16T10:10:01Z</time>
      </trkpt>
      <trkpt lat="45.77733" lon="6.66053">
        <ele>1761</ele>
        <time>2022-08-16T10:10:02Z</time>
      </trkpt>
      <trkpt lat="45.77731" lon="6.66054">
        <ele>1761</ele>
        <time>2022-08-16T10:10:03Z</time>
      </trkpt>
      <trkpt lat="45.77729" lon="6.66055">
        <ele>1761</ele>
        <time>2022-08-16T10:10:04Z</time>
      </trkpt>
      <trkpt lat="45.77727" lon="6.66056">
        <ele>1761</ele>
        <time>2022-08-16T10:10:05Z</time>
      </trkpt>
      <trkpt lat="45.77725" lon="6.66056">
        <ele>1761</ele>
        <time>2022-08-16T10:10:06Z</time>
      </trkpt>
      <trkpt lat="45.77723" lon="6.66056">
        <ele>1760</ele>
        <time>2022-08-16T10:10:07Z</time>
      </trkpt>
      <trkpt lat="45.77721" lon="6.66057">
        <ele>1760</ele>
        <time>2022-08-16T10:10:08Z</time>
      </trkpt>
      <trkpt lat="45.77718" lon="6.66058">
        <ele>1760</ele>
        <time>2022-08-16T10:10:09Z</time>
      </trkpt>
      <trkpt lat="45.77716" lon="6.66058">
        <ele>1760</ele>
        <time>2022-08-16T10:10:10Z</time>
      </trkpt>
      <trkpt lat="45.77715" lon="6.66059">
        <ele>1760</ele>
        <time>2022-08-16T10:10:11Z</time>
      </trkpt>
      <trkpt lat="45.77713" lon="6.66059">
        <ele>1761</ele>
        <time>2022-08-16T10:10:12Z</time>
      </trkpt>
      <trkpt lat="45.77711" lon="6.6606">
        <ele>1761</ele>
        <time>2022-08-16T10:10:13Z</time>
      </trkpt>
      <trkpt lat="45.77709" lon="6.6606">
        <ele>1761</ele>
        <time>2022-08-16T10:10:14Z</time>
      </trkpt>
      <trkpt lat="45.77707" lon="6.66061">
        <ele>1762</ele>
        <time>2022-08-16T10:10:15Z</time>
      </trkpt>
      <trkpt lat="45.77705" lon="6.66061">
        <ele>1762</ele>
        <time>2022-08-16T10:10:16Z</time>
      </trkpt>
      <trkpt lat="45.77702" lon="6.6606">
        <ele>1762</ele>
        <time>2022-08-16T10:10:17Z</time>
      </trkpt>
      <trkpt lat="45.777" lon="6.66061">
        <ele>1762</ele>
        <time>2022-08-16T10:10:18Z</time>
      </trkpt>
      <trkpt lat="45.77698" lon="6.66061">
        <ele>1762</ele>
        <time>2022-08-16T10:10:19Z</time>
      </trkpt>
      <trkpt lat="45.77695" lon="6.66061">
        <ele>1762</ele>
        <time>2022-08-16T10:10:20Z</time>
      </trkpt>
      <trkpt lat="45.77693" lon="6.66061">
        <ele>1763</ele>
        <time>2022-08-16T10:10:21Z</time>
      </trkpt>
      <trkpt lat="45.77691" lon="6.66061">
        <ele>1763</ele>
        <time>2022-08-16T10:10:22Z</time>
      </trkpt>
      <trkpt lat="45.7769" lon="6.66062">
        <ele>1764</ele>
        <time>2022-08-16T10:10:23Z</time>
      </trkpt>
      <trkpt lat="45.77688" lon="6.66062">
        <ele>1764</ele>
        <time>2022-08-16T10:10:24Z</time>
      </trkpt>
      <trkpt lat="45.77686" lon="6.66063">
        <ele>1764</ele>
        <time>2022-08-16T10:10:25Z</time>
      </trkpt>
      <trkpt lat="45.77684" lon="6.66064">
        <ele>1764</ele>
        <time>2022-08-16T10:10:26Z</time>
      </trkpt>
      <trkpt lat="45.77683" lon="6.66065">
        <ele>1765</ele>
        <time>2022-08-16T10:10:27Z</time>
      </trkpt>
      <trkpt lat="45.77681" lon="6.66066">
        <ele>1765</ele>
        <time>2022-08-16T10:10:28Z</time>
      </trkpt>
      <trkpt lat="45.77678" lon="6.66067">
        <ele>1765</ele>
        <time>2022-08-16T10:10:29Z</time>
      </trkpt>
      <trkpt lat="45.77676" lon="6.66068">
        <ele>1766</ele>
        <time>2022-08-16T10:10:30Z</time>
      </trkpt>
      <trkpt lat="45.77674" lon="6.66069">
        <ele>1766</ele>
        <time>2022-08-16T10:10:31Z</time>
      </trkpt>
      <trkpt lat="45.77673" lon="6.6607">
        <ele>1766</ele>
        <time>2022-08-16T10:10:32Z</time>
      </trkpt>
      <trkpt lat="45.7767" lon="6.6607">
        <ele>1766</ele>
        <time>2022-08-16T10:10:33Z</time>
      </trkpt>
      <trkpt lat="45.77668" lon="6.66071">
        <ele>1766</ele>
        <time>2022-08-16T10:10:34Z</time>
      </trkpt>
      <trkpt lat="45.77666" lon="6.66072">
        <ele>1766</ele>
        <time>2022-08-16T10:10:35Z</time>
      </trkpt>
      <trkpt lat="45.77663" lon="6.66073">
        <ele>1766</ele>
        <time>2022-08-16T10:10:36Z</time>
      </trkpt>
      <trkpt lat="45.77661" lon="6.66073">
        <ele>1767</ele>
        <time>2022-08-16T10:10:37Z</time>
      </trkpt>
      <trkpt lat="45.77659" lon="6.66073">
        <ele>1767</ele>
        <time>2022-08-16T10:10:38Z</time>
      </trkpt>
      <trkpt lat="45.77656" lon="6.66073">
        <ele>1767</ele>
        <time>2022-08-16T10:10:39Z</time>
      </trkpt>
      <trkpt lat="45.77654" lon="6.66072">
        <ele>1767</ele>
        <time>2022-08-16T10:10:40Z</time>
      </trkpt>
      <trkpt lat="45.77652" lon="6.66071">
        <ele>1768</ele>
        <time>2022-08-16T10:10:41Z</time>
      </trkpt>
      <trkpt lat="45.7765" lon="6.66071">
        <ele>1768</ele>
        <time>2022-08-16T10:10:42Z</time>
      </trkpt>
      <trkpt lat="45.77649" lon="6.6607">
        <ele>1768</ele>
        <time>2022-08-16T10:10:43Z</time>
      </trkpt>
      <trkpt lat="45.77647" lon="6.66068">
        <ele>1769</ele>
        <time>2022-08-16T10:10:44Z</time>
      </trkpt>
      <trkpt lat="45.77644" lon="6.66067">
        <ele>1768</ele>
        <time>2022-08-16T10:10:45Z</time>
      </trkpt>
      <trkpt lat="45.77643" lon="6.66066">
        <ele>1769</ele>
        <time>2022-08-16T10:10:46Z</time>
      </trkpt>
      <trkpt lat="45.7764" lon="6.66064">
        <ele>1769</ele>
        <time>2022-08-16T10:10:47Z</time>
      </trkpt>
      <trkpt lat="45.77639" lon="6.66063">
        <ele>1769</ele>
        <time>2022-08-16T10:10:48Z</time>
      </trkpt>
      <trkpt lat="45.77637" lon="6.66061">
        <ele>1769</ele>
        <time>2022-08-16T10:10:49Z</time>
      </trkpt>
      <trkpt lat="45.77635" lon="6.6606">
        <ele>1769</ele>
        <time>2022-08-16T10:10:50Z</time>
      </trkpt>
      <trkpt lat="45.77633" lon="6.6606">
        <ele>1770</ele>
        <time>2022-08-16T10:10:51Z</time>
      </trkpt>
      <trkpt lat="45.77631" lon="6.66059">
        <ele>1770</ele>
        <time>2022-08-16T10:10:52Z</time>
      </trkpt>
      <trkpt lat="45.7763" lon="6.66059">
        <ele>1770</ele>
        <time>2022-08-16T10:10:53Z</time>
      </trkpt>
      <trkpt lat="45.77628" lon="6.66058">
        <ele>1770</ele>
        <time>2022-08-16T10:10:54Z</time>
      </trkpt>
      <trkpt lat="45.77626" lon="6.66057">
        <ele>1770</ele>
        <time>2022-08-16T10:10:55Z</time>
      </trkpt>
      <trkpt lat="45.77624" lon="6.66056">
        <ele>1770</ele>
        <time>2022-08-16T10:10:56Z</time>
      </trkpt>
      <trkpt lat="45.77622" lon="6.66055">
        <ele>1770</ele>
        <time>2022-08-16T10:10:57Z</time>
      </trkpt>
      <trkpt lat="45.7762" lon="6.66054">
        <ele>1770</ele>
        <time>2022-08-16T10:10:58Z</time>
      </trkpt>
      <trkpt lat="45.77619" lon="6.66054">
        <ele>1770</ele>
        <time>2022-08-16T10:10:59Z</time>
      </trkpt>
      <trkpt lat="45.77617" lon="6.66053">
        <ele>1770</ele>
        <time>2022-08-16T10:11:00Z</time>
      </trkpt>
      <trkpt lat="45.77615" lon="6.66053">
        <ele>1770</ele>
        <time>2022-08-16T10:11:01Z</time>
      </trkpt>
      <trkpt lat="45.77613" lon="6.66053">
        <ele>1770</ele>
        <time>2022-08-16T10:11:02Z</time>
      </trkpt>
      <trkpt lat="45.7761" lon="6.66053">
        <ele>1771</ele>
        <time>2022-08-16T10:11:03Z</time>
      </trkpt>
      <trkpt lat="45.77609" lon="6.66053">
        <ele>1771</ele>
        <time>2022-08-16T10:11:04Z</time>
      </trkpt>
      <trkpt lat="45.77607" lon="6.66053">
        <ele>1771</ele>
        <time>2022-08-16T10:11:05Z</time>
      </trkpt>
      <trkpt lat="45.77605" lon="6.66053">
        <ele>1772</ele>
        <time>2022-08-16T10:11:06Z</time>
      </trkpt>
      <trkpt lat="45.77603" lon="6.66053">
        <ele>1772</ele>
        <time>2022-08-16T10:11:07Z</time>
      </trkpt>
      <trkpt lat="45.77601" lon="6.66053">
        <ele>1772</ele>
        <time>2022-08-16T10:11:08Z</time>
      </trkpt>
      <trkpt lat="45.77599" lon="6.66054">
        <ele>1772</ele>
        <time>2022-08-16T10:11:09Z</time>
      </trkpt>
      <trkpt lat="45.77597" lon="6.66054">
        <ele>1773</ele>
        <time>2022-08-16T10:11:10Z</time>
      </trkpt>
      <trkpt lat="45.77594" lon="6.66054">
        <ele>1773</ele>
        <time>2022-08-16T10:11:11Z</time>
      </trkpt>
      <trkpt lat="45.77592" lon="6.66055">
        <ele>1773</ele>
        <time>2022-08-16T10:11:12Z</time>
      </trkpt>
      <trkpt lat="45.77589" lon="6.66055">
        <ele>1773</ele>
        <time>2022-08-16T10:11:13Z</time>
      </trkpt>
      <trkpt lat="45.77587" lon="6.66055">
        <ele>1773</ele>
        <time>2022-08-16T10:11:14Z</time>
      </trkpt>
      <trkpt lat="45.77584" lon="6.66055">
        <ele>1773</ele>
        <time>2022-08-16T10:11:15Z</time>
      </trkpt>
      <trkpt lat="45.77582" lon="6.66056">
        <ele>1773</ele>
        <time>2022-08-16T10:11:16Z</time>
      </trkpt>
      <trkpt lat="45.7758" lon="6.66057">
        <ele>1774</ele>
        <time>2022-08-16T10:11:17Z</time>
      </trkpt>
      <trkpt lat="45.77578" lon="6.66058">
        <ele>1774</ele>
        <time>2022-08-16T10:11:18Z</time>
      </trkpt>
      <trkpt lat="45.77576" lon="6.66059">
        <ele>1775</ele>
        <time>2022-08-16T10:11:19Z</time>
      </trkpt>
      <trkpt lat="45.77574" lon="6.6606">
        <ele>1776</ele>
        <time>2022-08-16T10:11:20Z</time>
      </trkpt>
      <trkpt lat="45.77571" lon="6.6606">
        <ele>1776</ele>
        <time>2022-08-16T10:11:21Z</time>
      </trkpt>
      <trkpt lat="45.77569" lon="6.66061">
        <ele>1776</ele>
        <time>2022-08-16T10:11:22Z</time>
      </trkpt>
      <trkpt lat="45.77567" lon="6.66062">
        <ele>1776</ele>
        <time>2022-08-16T10:11:23Z</time>
      </trkpt>
      <trkpt lat="45.77565" lon="6.66062">
        <ele>1776</ele>
        <time>2022-08-16T10:11:24Z</time>
      </trkpt>
      <trkpt lat="45.77563" lon="6.66062">
        <ele>1776</ele>
        <time>2022-08-16T10:11:25Z</time>
      </trkpt>
      <trkpt lat="45.77561" lon="6.66063">
        <ele>1777</ele>
        <time>2022-08-16T10:11:26Z</time>
      </trkpt>
      <trkpt lat="45.77559" lon="6.66063">
        <ele>1776</ele>
        <time>2022-08-16T10:11:27Z</time>
      </trkpt>
      <trkpt lat="45.77557" lon="6.66064">
        <ele>1777</ele>
        <time>2022-08-16T10:11:28Z</time>
      </trkpt>
      <trkpt lat="45.77555" lon="6.66066">
        <ele>1777</ele>
        <time>2022-08-16T10:11:29Z</time>
      </trkpt>
      <trkpt lat="45.77553" lon="6.66066">
        <ele>1777</ele>
        <time>2022-08-16T10:11:30Z</time>
      </trkpt>
      <trkpt lat="45.77551" lon="6.66067">
        <ele>1777</ele>
        <time>2022-08-16T10:11:31Z</time>
      </trkpt>
      <trkpt lat="45.7755" lon="6.66068">
        <ele>1777</ele>
        <time>2022-08-16T10:11:32Z</time>
      </trkpt>
      <trkpt lat="45.77548" lon="6.66069">
        <ele>1777</ele>
        <time>2022-08-16T10:11:33Z</time>
      </trkpt>
      <trkpt lat="45.77546" lon="6.6607">
        <ele>1777</ele>
        <time>2022-08-16T10:11:34Z</time>
      </trkpt>
      <trkpt lat="45.77545" lon="6.66072">
        <ele>1778</ele>
        <time>2022-08-16T10:11:35Z</time>
      </trkpt>
      <trkpt lat="45.77543" lon="6.66074">
        <ele>1778</ele>
        <time>2022-08-16T10:11:36Z</time>
      </trkpt>
      <trkpt lat="45.77542" lon="6.66077">
        <ele>1778</ele>
        <time>2022-08-16T10:11:37Z</time>
      </trkpt>
      <trkpt lat="45.77541" lon="6.66079">
        <ele>1778</ele>
        <time>2022-08-16T10:11:38Z</time>
      </trkpt>
      <trkpt lat="45.7754" lon="6.66081">
        <ele>1778</ele>
        <time>2022-08-16T10:11:39Z</time>
      </trkpt>
      <trkpt lat="45.77539" lon="6.66084">
        <ele>1778</ele>
        <time>2022-08-16T10:11:40Z</time>
      </trkpt>
      <trkpt lat="45.77538" lon="6.66086">
        <ele>1779</ele>
        <time>2022-08-16T10:11:41Z</time>
      </trkpt>
      <trkpt lat="45.77539" lon="6.66088">
        <ele>1780</ele>
        <time>2022-08-16T10:11:42Z</time>
      </trkpt>
      <trkpt lat="45.77539" lon="6.6609">
        <ele>1780</ele>
        <time>2022-08-16T10:11:43Z</time>
      </trkpt>
      <trkpt lat="45.7754" lon="6.66091">
        <ele>1780</ele>
        <time>2022-08-16T10:11:44Z</time>
      </trkpt>
      <trkpt lat="45.77541" lon="6.66092">
        <ele>1781</ele>
        <time>2022-08-16T10:11:45Z</time>
      </trkpt>
      <trkpt lat="45.77541" lon="6.66091">
        <ele>1781</ele>
        <time>2022-08-16T10:11:46Z</time>
      </trkpt>
      <trkpt lat="45.77542" lon="6.66091">
        <ele>1781</ele>
        <time>2022-08-16T10:11:47Z</time>
      </trkpt>
      <trkpt lat="45.77542" lon="6.66091">
        <ele>1782</ele>
        <time>2022-08-16T10:11:48Z</time>
      </trkpt>
      <trkpt lat="45.77542" lon="6.6609">
        <ele>1781</ele>
        <time>2022-08-16T10:11:49Z</time>
      </trkpt>
      <trkpt lat="45.77542" lon="6.6609">
        <ele>1781</ele>
        <time>2022-08-16T10:11:50Z</time>
      </trkpt>
      <trkpt lat="45.77542" lon="6.6609">
        <ele>1781</ele>
        <time>2022-08-16T10:11:51Z</time>
      </trkpt>
      <trkpt lat="45.77542" lon="6.6609">
        <ele>1781</ele>
        <time>2022-08-16T10:11:55Z</time>
      </trkpt>
      <trkpt lat="45.77542" lon="6.6609">
        <ele>1781</ele>
        <time>2022-08-16T10:11:59Z</time>
      </trkpt>
      <trkpt lat="45.77542" lon="6.6609">
        <ele>1781</ele>
        <time>2022-08-16T10:12:03Z</time>
      </trkpt>
      <trkpt lat="45.77542" lon="6.6609">
        <ele>1781</ele>
        <time>2022-08-16T10:12:07Z</time>
      </trkpt>
      <trkpt lat="45.77542" lon="6.6609">
        <ele>1781</ele>
        <time>2022-08-16T10:12:11Z</time>
      </trkpt>
      <trkpt lat="45.77542" lon="6.6609">
        <ele>1781</ele>
        <time>2022-08-16T10:12:15Z</time>
      </trkpt>
      <trkpt lat="45.77542" lon="6.6609">
        <ele>1781</ele>
        <time>2022-08-16T10:12:19Z</time>
      </trkpt>
      <trkpt lat="45.77542" lon="6.6609">
        <ele>1781</ele>
        <time>2022-08-16T10:12:23Z</time>
      </trkpt>
      <trkpt lat="45.77542" lon="6.6609">
        <ele>1781</ele>
        <time>2022-08-16T10:12:27Z</time>
      </trkpt>
      <trkpt lat="45.77542" lon="6.6609">
        <ele>1781</ele>
        <time>2022-08-16T10:12:31Z</time>
      </trkpt>
      <trkpt lat="45.77542" lon="6.6609">
        <ele>1781</ele>
        <time>2022-08-16T10:12:35Z</time>
      </trkpt>
      <trkpt lat="45.77542" lon="6.6609">
        <ele>1781</ele>
        <time>2022-08-16T10:12:39Z</time>
      </trkpt>
      <trkpt lat="45.77542" lon="6.6609">
        <ele>1781</ele>
        <time>2022-08-16T10:12:43Z</time>
      </trkpt>
      <trkpt lat="45.77542" lon="6.6609">
        <ele>1781</ele>
        <time>2022-08-16T10:12:47Z</time>
      </trkpt>
      <trkpt lat="45.77542" lon="6.6609">
        <ele>1781</ele>
        <time>2022-08-16T10:12:51Z</time>
      </trkpt>
      <trkpt lat="45.77542" lon="6.6609">
        <ele>1781</ele>
        <time>2022-08-16T10:12:55Z</time>
      </trkpt>
      <trkpt lat="45.77542" lon="6.6609">
        <ele>1781</ele>
        <time>2022-08-16T10:12:59Z</time>
      </trkpt>
      <trkpt lat="45.77542" lon="6.6609">
        <ele>1781</ele>
        <time>2022-08-16T10:13:03Z</time>
      </trkpt>
      <trkpt lat="45.77542" lon="6.6609">
        <ele>1781</ele>
        <time>2022-08-16T10:13:07Z</time>
      </trkpt>
      <trkpt lat="45.77542" lon="6.6609">
        <ele>1781</ele>
        <time>2022-08-16T10:13:11Z</time>
      </trkpt>
      <trkpt lat="45.77543" lon="6.6609">
        <ele>1781</ele>
        <time>2022-08-16T10:13:15Z</time>
      </trkpt>
      <trkpt lat="45.77544" lon="6.66091">
        <ele>1781</ele>
        <time>2022-08-16T10:13:16Z</time>
      </trkpt>
      <trkpt lat="45.77545" lon="6.66091">
        <ele>1780</ele>
        <time>2022-08-16T10:13:17Z</time>
      </trkpt>
      <trkpt lat="45.77546" lon="6.66092">
        <ele>1781</ele>
        <time>2022-08-16T10:13:18Z</time>
      </trkpt>
      <trkpt lat="45.77548" lon="6.66093">
        <ele>1781</ele>
        <time>2022-08-16T10:13:19Z</time>
      </trkpt>
      <trkpt lat="45.7755" lon="6.66094">
        <ele>1781</ele>
        <time>2022-08-16T10:13:20Z</time>
      </trkpt>
      <trkpt lat="45.77552" lon="6.66094">
        <ele>1781</ele>
        <time>2022-08-16T10:13:21Z</time>
      </trkpt>
      <trkpt lat="45.77554" lon="6.66093">
        <ele>1781</ele>
        <time>2022-08-16T10:13:22Z</time>
      </trkpt>
      <trkpt lat="45.77555" lon="6.66092">
        <ele>1780</ele>
        <time>2022-08-16T10:13:23Z</time>
      </trkpt>
      <trkpt lat="45.77558" lon="6.66092">
        <ele>1780</ele>
        <time>2022-08-16T10:13:24Z</time>
      </trkpt>
      <trkpt lat="45.7756" lon="6.66092">
        <ele>1780</ele>
        <time>2022-08-16T10:13:25Z</time>
      </trkpt>
      <trkpt lat="45.77561" lon="6.66091">
        <ele>1781</ele>
        <time>2022-08-16T10:13:26Z</time>
      </trkpt>
      <trkpt lat="45.77563" lon="6.66091">
        <ele>1781</ele>
        <time>2022-08-16T10:13:27Z</time>
      </trkpt>
      <trkpt lat="45.77565" lon="6.6609">
        <ele>1781</ele>
        <time>2022-08-16T10:13:28Z</time>
      </trkpt>
      <trkpt lat="45.77567" lon="6.6609">
        <ele>1781</ele>
        <time>2022-08-16T10:13:29Z</time>
      </trkpt>
      <trkpt lat="45.77569" lon="6.6609">
        <ele>1781</ele>
        <time>2022-08-16T10:13:30Z</time>
      </trkpt>
      <trkpt lat="45.77571" lon="6.6609">
        <ele>1781</ele>
        <time>2022-08-16T10:13:31Z</time>
      </trkpt>
      <trkpt lat="45.77573" lon="6.6609">
        <ele>1781</ele>
        <time>2022-08-16T10:13:32Z</time>
      </trkpt>
      <trkpt lat="45.77575" lon="6.6609">
        <ele>1781</ele>
        <time>2022-08-16T10:13:33Z</time>
      </trkpt>
      <trkpt lat="45.77577" lon="6.6609">
        <ele>1781</ele>
        <time>2022-08-16T10:13:34Z</time>
      </trkpt>
      <trkpt lat="45.77579" lon="6.6609">
        <ele>1782</ele>
        <time>2022-08-16T10:13:35Z</time>
      </trkpt>
      <trkpt lat="45.77581" lon="6.66089">
        <ele>1782</ele>
        <time>2022-08-16T10:13:36Z</time>
      </trkpt>
      <trkpt lat="45.77582" lon="6.6609">
        <ele>1782</ele>
        <time>2022-08-16T10:13:37Z</time>
      </trkpt>
      <trkpt lat="45.77584" lon="6.66091">
        <ele>1782</ele>
        <time>2022-08-16T10:13:38Z</time>
      </trkpt>
      <trkpt lat="45.77586" lon="6.66092">
        <ele>1782</ele>
        <time>2022-08-16T10:13:39Z</time>
      </trkpt>
      <trkpt lat="45.77588" lon="6.66092">
        <ele>1782</ele>
        <time>2022-08-16T10:13:40Z</time>
      </trkpt>
      <trkpt lat="45.77589" lon="6.66093">
        <ele>1782</ele>
        <time>2022-08-16T10:13:41Z</time>
      </trkpt>
      <trkpt lat="45.77591" lon="6.66094">
        <ele>1782</ele>
        <time>2022-08-16T10:13:42Z</time>
      </trkpt>
      <trkpt lat="45.77593" lon="6.66096">
        <ele>1782</ele>
        <time>2022-08-16T10:13:43Z</time>
      </trkpt>
      <trkpt lat="45.77595" lon="6.66097">
        <ele>1782</ele>
        <time>2022-08-16T10:13:44Z</time>
      </trkpt>
      <trkpt lat="45.77597" lon="6.66098">
        <ele>1783</ele>
        <time>2022-08-16T10:13:45Z</time>
      </trkpt>
      <trkpt lat="45.77599" lon="6.661">
        <ele>1783</ele>
        <time>2022-08-16T10:13:46Z</time>
      </trkpt>
      <trkpt lat="45.776" lon="6.66101">
        <ele>1784</ele>
        <time>2022-08-16T10:13:47Z</time>
      </trkpt>
      <trkpt lat="45.77602" lon="6.66103">
        <ele>1784</ele>
        <time>2022-08-16T10:13:48Z</time>
      </trkpt>
      <trkpt lat="45.77604" lon="6.66105">
        <ele>1785</ele>
        <time>2022-08-16T10:13:49Z</time>
      </trkpt>
      <trkpt lat="45.77605" lon="6.66106">
        <ele>1784</ele>
        <time>2022-08-16T10:13:50Z</time>
      </trkpt>
      <trkpt lat="45.77607" lon="6.66107">
        <ele>1784</ele>
        <time>2022-08-16T10:13:51Z</time>
      </trkpt>
      <trkpt lat="45.77608" lon="6.66109">
        <ele>1785</ele>
        <time>2022-08-16T10:13:52Z</time>
      </trkpt>
      <trkpt lat="45.7761" lon="6.66111">
        <ele>1785</ele>
        <time>2022-08-16T10:13:53Z</time>
      </trkpt>
      <trkpt lat="45.77612" lon="6.66113">
        <ele>1785</ele>
        <time>2022-08-16T10:13:54Z</time>
      </trkpt>
      <trkpt lat="45.77614" lon="6.66115">
        <ele>1785</ele>
        <time>2022-08-16T10:13:55Z</time>
      </trkpt>
      <trkpt lat="45.77616" lon="6.66117">
        <ele>1785</ele>
        <time>2022-08-16T10:13:56Z</time>
      </trkpt>
      <trkpt lat="45.77617" lon="6.66119">
        <ele>1785</ele>
        <time>2022-08-16T10:13:57Z</time>
      </trkpt>
      <trkpt lat="45.77619" lon="6.6612">
        <ele>1785</ele>
        <time>2022-08-16T10:13:58Z</time>
      </trkpt>
      <trkpt lat="45.7762" lon="6.66122">
        <ele>1786</ele>
        <time>2022-08-16T10:13:59Z</time>
      </trkpt>
      <trkpt lat="45.77622" lon="6.66124">
        <ele>1786</ele>
        <time>2022-08-16T10:14:00Z</time>
      </trkpt>
      <trkpt lat="45.77623" lon="6.66126">
        <ele>1786</ele>
        <time>2022-08-16T10:14:01Z</time>
      </trkpt>
      <trkpt lat="45.77625" lon="6.66128">
        <ele>1786</ele>
        <time>2022-08-16T10:14:02Z</time>
      </trkpt>
      <trkpt lat="45.77626" lon="6.66129">
        <ele>1786</ele>
        <time>2022-08-16T10:14:03Z</time>
      </trkpt>
      <trkpt lat="45.77628" lon="6.66131">
        <ele>1786</ele>
        <time>2022-08-16T10:14:04Z</time>
      </trkpt>
      <trkpt lat="45.7763" lon="6.66133">
        <ele>1787</ele>
        <time>2022-08-16T10:14:05Z</time>
      </trkpt>
      <trkpt lat="45.77631" lon="6.66134">
        <ele>1787</ele>
        <time>2022-08-16T10:14:06Z</time>
      </trkpt>
      <trkpt lat="45.77633" lon="6.66137">
        <ele>1787</ele>
        <time>2022-08-16T10:14:07Z</time>
      </trkpt>
      <trkpt lat="45.77634" lon="6.66139">
        <ele>1787</ele>
        <time>2022-08-16T10:14:08Z</time>
      </trkpt>
      <trkpt lat="45.77636" lon="6.66141">
        <ele>1787</ele>
        <time>2022-08-16T10:14:09Z</time>
      </trkpt>
      <trkpt lat="45.77638" lon="6.66144">
        <ele>1787</ele>
        <time>2022-08-16T10:14:10Z</time>
      </trkpt>
      <trkpt lat="45.7764" lon="6.66146">
        <ele>1787</ele>
        <time>2022-08-16T10:14:11Z</time>
      </trkpt>
      <trkpt lat="45.77642" lon="6.66148">
        <ele>1787</ele>
        <time>2022-08-16T10:14:12Z</time>
      </trkpt>
      <trkpt lat="45.77644" lon="6.6615">
        <ele>1787</ele>
        <time>2022-08-16T10:14:13Z</time>
      </trkpt>
      <trkpt lat="45.77645" lon="6.66151">
        <ele>1788</ele>
        <time>2022-08-16T10:14:14Z</time>
      </trkpt>
      <trkpt lat="45.77647" lon="6.66153">
        <ele>1788</ele>
        <time>2022-08-16T10:14:15Z</time>
      </trkpt>
      <trkpt lat="45.77649" lon="6.66154">
        <ele>1788</ele>
        <time>2022-08-16T10:14:16Z</time>
      </trkpt>
      <trkpt lat="45.77651" lon="6.66155">
        <ele>1788</ele>
        <time>2022-08-16T10:14:17Z</time>
      </trkpt>
      <trkpt lat="45.77653" lon="6.66156">
        <ele>1788</ele>
        <time>2022-08-16T10:14:18Z</time>
      </trkpt>
      <trkpt lat="45.77655" lon="6.66157">
        <ele>1788</ele>
        <time>2022-08-16T10:14:19Z</time>
      </trkpt>
      <trkpt lat="45.77657" lon="6.66158">
        <ele>1789</ele>
        <time>2022-08-16T10:14:20Z</time>
      </trkpt>
      <trkpt lat="45.77659" lon="6.66159">
        <ele>1789</ele>
        <time>2022-08-16T10:14:21Z</time>
      </trkpt>
      <trkpt lat="45.77661" lon="6.6616">
        <ele>1789</ele>
        <time>2022-08-16T10:14:22Z</time>
      </trkpt>
      <trkpt lat="45.77663" lon="6.6616">
        <ele>1789</ele>
        <time>2022-08-16T10:14:23Z</time>
      </trkpt>
      <trkpt lat="45.77665" lon="6.66161">
        <ele>1789</ele>
        <time>2022-08-16T10:14:24Z</time>
      </trkpt>
      <trkpt lat="45.77668" lon="6.66162">
        <ele>1789</ele>
        <time>2022-08-16T10:14:25Z</time>
      </trkpt>
      <trkpt lat="45.7767" lon="6.66163">
        <ele>1789</ele>
        <time>2022-08-16T10:14:26Z</time>
      </trkpt>
      <trkpt lat="45.77673" lon="6.66165">
        <ele>1788</ele>
        <time>2022-08-16T10:14:27Z</time>
      </trkpt>
      <trkpt lat="45.77675" lon="6.66166">
        <ele>1789</ele>
        <time>2022-08-16T10:14:28Z</time>
      </trkpt>
      <trkpt lat="45.77678" lon="6.66167">
        <ele>1788</ele>
        <time>2022-08-16T10:14:29Z</time>
      </trkpt>
      <trkpt lat="45.7768" lon="6.66168">
        <ele>1789</ele>
        <time>2022-08-16T10:14:30Z</time>
      </trkpt>
      <trkpt lat="45.77683" lon="6.66169">
        <ele>1789</ele>
        <time>2022-08-16T10:14:31Z</time>
      </trkpt>
      <trkpt lat="45.77685" lon="6.66169">
        <ele>1790</ele>
        <time>2022-08-16T10:14:32Z</time>
      </trkpt>
      <trkpt lat="45.77687" lon="6.6617">
        <ele>1790</ele>
        <time>2022-08-16T10:14:33Z</time>
      </trkpt>
      <trkpt lat="45.77689" lon="6.66171">
        <ele>1790</ele>
        <time>2022-08-16T10:14:34Z</time>
      </trkpt>
      <trkpt lat="45.77691" lon="6.66171">
        <ele>1790</ele>
        <time>2022-08-16T10:14:35Z</time>
      </trkpt>
      <trkpt lat="45.77693" lon="6.66172">
        <ele>1790</ele>
        <time>2022-08-16T10:14:36Z</time>
      </trkpt>
      <trkpt lat="45.77695" lon="6.66173">
        <ele>1790</ele>
        <time>2022-08-16T10:14:37Z</time>
      </trkpt>
      <trkpt lat="45.77697" lon="6.66174">
        <ele>1790</ele>
        <time>2022-08-16T10:14:38Z</time>
      </trkpt>
      <trkpt lat="45.777" lon="6.66175">
        <ele>1790</ele>
        <time>2022-08-16T10:14:39Z</time>
      </trkpt>
      <trkpt lat="45.77702" lon="6.66176">
        <ele>1790</ele>
        <time>2022-08-16T10:14:40Z</time>
      </trkpt>
      <trkpt lat="45.77704" lon="6.66177">
        <ele>1791</ele>
        <time>2022-08-16T10:14:41Z</time>
      </trkpt>
      <trkpt lat="45.77706" lon="6.66177">
        <ele>1791</ele>
        <time>2022-08-16T10:14:42Z</time>
      </trkpt>
      <trkpt lat="45.77708" lon="6.66178">
        <ele>1791</ele>
        <time>2022-08-16T10:14:43Z</time>
      </trkpt>
      <trkpt lat="45.7771" lon="6.66179">
        <ele>1791</ele>
        <time>2022-08-16T10:14:44Z</time>
      </trkpt>
      <trkpt lat="45.77712" lon="6.6618">
        <ele>1791</ele>
        <time>2022-08-16T10:14:45Z</time>
      </trkpt>
      <trkpt lat="45.77714" lon="6.6618">
        <ele>1791</ele>
        <time>2022-08-16T10:14:46Z</time>
      </trkpt>
      <trkpt lat="45.77715" lon="6.66181">
        <ele>1791</ele>
        <time>2022-08-16T10:14:47Z</time>
      </trkpt>
      <trkpt lat="45.77717" lon="6.66182">
        <ele>1791</ele>
        <time>2022-08-16T10:14:48Z</time>
      </trkpt>
      <trkpt lat="45.77718" lon="6.66183">
        <ele>1791</ele>
        <time>2022-08-16T10:14:49Z</time>
      </trkpt>
      <trkpt lat="45.7772" lon="6.66183">
        <ele>1791</ele>
        <time>2022-08-16T10:14:50Z</time>
      </trkpt>
      <trkpt lat="45.77722" lon="6.66183">
        <ele>1791</ele>
        <time>2022-08-16T10:14:51Z</time>
      </trkpt>
      <trkpt lat="45.77723" lon="6.66183">
        <ele>1791</ele>
        <time>2022-08-16T10:14:52Z</time>
      </trkpt>
      <trkpt lat="45.77725" lon="6.66184">
        <ele>1791</ele>
        <time>2022-08-16T10:14:53Z</time>
      </trkpt>
      <trkpt lat="45.77726" lon="6.66185">
        <ele>1792</ele>
        <time>2022-08-16T10:14:54Z</time>
      </trkpt>
      <trkpt lat="45.77728" lon="6.66187">
        <ele>1792</ele>
        <time>2022-08-16T10:14:55Z</time>
      </trkpt>
      <trkpt lat="45.77728" lon="6.66189">
        <ele>1792</ele>
        <time>2022-08-16T10:14:56Z</time>
      </trkpt>
      <trkpt lat="45.77728" lon="6.66192">
        <ele>1792</ele>
        <time>2022-08-16T10:14:57Z</time>
      </trkpt>
      <trkpt lat="45.77728" lon="6.66194">
        <ele>1793</ele>
        <time>2022-08-16T10:14:58Z</time>
      </trkpt>
      <trkpt lat="45.77726" lon="6.66196">
        <ele>1794</ele>
        <time>2022-08-16T10:14:59Z</time>
      </trkpt>
      <trkpt lat="45.77725" lon="6.66198">
        <ele>1794</ele>
        <time>2022-08-16T10:15:00Z</time>
      </trkpt>
      <trkpt lat="45.77723" lon="6.662">
        <ele>1795</ele>
        <time>2022-08-16T10:15:01Z</time>
      </trkpt>
      <trkpt lat="45.77722" lon="6.662">
        <ele>1795</ele>
        <time>2022-08-16T10:15:02Z</time>
      </trkpt>
      <trkpt lat="45.7772" lon="6.66201">
        <ele>1795</ele>
        <time>2022-08-16T10:15:03Z</time>
      </trkpt>
      <trkpt lat="45.77718" lon="6.66201">
        <ele>1796</ele>
        <time>2022-08-16T10:15:04Z</time>
      </trkpt>
      <trkpt lat="45.77717" lon="6.66201">
        <ele>1796</ele>
        <time>2022-08-16T10:15:05Z</time>
      </trkpt>
      <trkpt lat="45.77715" lon="6.662">
        <ele>1796</ele>
        <time>2022-08-16T10:15:06Z</time>
      </trkpt>
      <trkpt lat="45.77713" lon="6.662">
        <ele>1796</ele>
        <time>2022-08-16T10:15:07Z</time>
      </trkpt>
      <trkpt lat="45.77711" lon="6.662">
        <ele>1797</ele>
        <time>2022-08-16T10:15:08Z</time>
      </trkpt>
      <trkpt lat="45.7771" lon="6.662">
        <ele>1797</ele>
        <time>2022-08-16T10:15:09Z</time>
      </trkpt>
      <trkpt lat="45.77708" lon="6.662">
        <ele>1798</ele>
        <time>2022-08-16T10:15:10Z</time>
      </trkpt>
      <trkpt lat="45.77706" lon="6.662">
        <ele>1798</ele>
        <time>2022-08-16T10:15:11Z</time>
      </trkpt>
      <trkpt lat="45.77704" lon="6.66199">
        <ele>1798</ele>
        <time>2022-08-16T10:15:12Z</time>
      </trkpt>
      <trkpt lat="45.77702" lon="6.66199">
        <ele>1799</ele>
        <time>2022-08-16T10:15:13Z</time>
      </trkpt>
      <trkpt lat="45.777" lon="6.66199">
        <ele>1799</ele>
        <time>2022-08-16T10:15:14Z</time>
      </trkpt>
      <trkpt lat="45.77698" lon="6.66199">
        <ele>1799</ele>
        <time>2022-08-16T10:15:15Z</time>
      </trkpt>
      <trkpt lat="45.77696" lon="6.66198">
        <ele>1799</ele>
        <time>2022-08-16T10:15:16Z</time>
      </trkpt>
      <trkpt lat="45.77694" lon="6.66197">
        <ele>1799</ele>
        <time>2022-08-16T10:15:17Z</time>
      </trkpt>
      <trkpt lat="45.77692" lon="6.66197">
        <ele>1799</ele>
        <time>2022-08-16T10:15:18Z</time>
      </trkpt>
      <trkpt lat="45.7769" lon="6.66196">
        <ele>1800</ele>
        <time>2022-08-16T10:15:19Z</time>
      </trkpt>
      <trkpt lat="45.77688" lon="6.66196">
        <ele>1800</ele>
        <time>2022-08-16T10:15:20Z</time>
      </trkpt>
      <trkpt lat="45.77686" lon="6.66195">
        <ele>1800</ele>
        <time>2022-08-16T10:15:21Z</time>
      </trkpt>
      <trkpt lat="45.77685" lon="6.66196">
        <ele>1800</ele>
        <time>2022-08-16T10:15:22Z</time>
      </trkpt>
      <trkpt lat="45.77683" lon="6.66196">
        <ele>1800</ele>
        <time>2022-08-16T10:15:23Z</time>
      </trkpt>
      <trkpt lat="45.77681" lon="6.66196">
        <ele>1800</ele>
        <time>2022-08-16T10:15:24Z</time>
      </trkpt>
      <trkpt lat="45.77679" lon="6.66196">
        <ele>1800</ele>
        <time>2022-08-16T10:15:25Z</time>
      </trkpt>
      <trkpt lat="45.77678" lon="6.66196">
        <ele>1800</ele>
        <time>2022-08-16T10:15:26Z</time>
      </trkpt>
      <trkpt lat="45.77676" lon="6.66196">
        <ele>1801</ele>
        <time>2022-08-16T10:15:27Z</time>
      </trkpt>
      <trkpt lat="45.77675" lon="6.66196">
        <ele>1801</ele>
        <time>2022-08-16T10:15:28Z</time>
      </trkpt>
      <trkpt lat="45.77673" lon="6.66196">
        <ele>1801</ele>
        <time>2022-08-16T10:15:29Z</time>
      </trkpt>
      <trkpt lat="45.77671" lon="6.66195">
        <ele>1801</ele>
        <time>2022-08-16T10:15:30Z</time>
      </trkpt>
      <trkpt lat="45.77669" lon="6.66195">
        <ele>1801</ele>
        <time>2022-08-16T10:15:31Z</time>
      </trkpt>
      <trkpt lat="45.77667" lon="6.66195">
        <ele>1801</ele>
        <time>2022-08-16T10:15:32Z</time>
      </trkpt>
      <trkpt lat="45.77664" lon="6.66194">
        <ele>1801</ele>
        <time>2022-08-16T10:15:33Z</time>
      </trkpt>
      <trkpt lat="45.77663" lon="6.66194">
        <ele>1801</ele>
        <time>2022-08-16T10:15:34Z</time>
      </trkpt>
      <trkpt lat="45.77661" lon="6.66194">
        <ele>1801</ele>
        <time>2022-08-16T10:15:35Z</time>
      </trkpt>
      <trkpt lat="45.77659" lon="6.66194">
        <ele>1802</ele>
        <time>2022-08-16T10:15:36Z</time>
      </trkpt>
      <trkpt lat="45.77657" lon="6.66194">
        <ele>1802</ele>
        <time>2022-08-16T10:15:37Z</time>
      </trkpt>
      <trkpt lat="45.77655" lon="6.66194">
        <ele>1802</ele>
        <time>2022-08-16T10:15:38Z</time>
      </trkpt>
      <trkpt lat="45.77653" lon="6.66193">
        <ele>1802</ele>
        <time>2022-08-16T10:15:39Z</time>
      </trkpt>
      <trkpt lat="45.77651" lon="6.66192">
        <ele>1802</ele>
        <time>2022-08-16T10:15:40Z</time>
      </trkpt>
      <trkpt lat="45.77649" lon="6.66192">
        <ele>1802</ele>
        <time>2022-08-16T10:15:41Z</time>
      </trkpt>
      <trkpt lat="45.77647" lon="6.66191">
        <ele>1803</ele>
        <time>2022-08-16T10:15:42Z</time>
      </trkpt>
      <trkpt lat="45.77645" lon="6.66191">
        <ele>1802</ele>
        <time>2022-08-16T10:15:43Z</time>
      </trkpt>
      <trkpt lat="45.77643" lon="6.6619">
        <ele>1802</ele>
        <time>2022-08-16T10:15:44Z</time>
      </trkpt>
      <trkpt lat="45.77642" lon="6.66189">
        <ele>1803</ele>
        <time>2022-08-16T10:15:45Z</time>
      </trkpt>
      <trkpt lat="45.7764" lon="6.66189">
        <ele>1803</ele>
        <time>2022-08-16T10:15:46Z</time>
      </trkpt>
      <trkpt lat="45.77638" lon="6.66189">
        <ele>1803</ele>
        <time>2022-08-16T10:15:47Z</time>
      </trkpt>
      <trkpt lat="45.77637" lon="6.66188">
        <ele>1804</ele>
        <time>2022-08-16T10:15:48Z</time>
      </trkpt>
      <trkpt lat="45.77635" lon="6.66188">
        <ele>1804</ele>
        <time>2022-08-16T10:15:49Z</time>
      </trkpt>
      <trkpt lat="45.77633" lon="6.66188">
        <ele>1804</ele>
        <time>2022-08-16T10:15:50Z</time>
      </trkpt>
      <trkpt lat="45.77631" lon="6.66188">
        <ele>1804</ele>
        <time>2022-08-16T10:15:51Z</time>
      </trkpt>
      <trkpt lat="45.7763" lon="6.66187">
        <ele>1804</ele>
        <time>2022-08-16T10:15:52Z</time>
      </trkpt>
      <trkpt lat="45.77628" lon="6.66187">
        <ele>1804</ele>
        <time>2022-08-16T10:15:53Z</time>
      </trkpt>
      <trkpt lat="45.77626" lon="6.66186">
        <ele>1805</ele>
        <time>2022-08-16T10:15:54Z</time>
      </trkpt>
      <trkpt lat="45.77624" lon="6.66186">
        <ele>1804</ele>
        <time>2022-08-16T10:15:55Z</time>
      </trkpt>
      <trkpt lat="45.77622" lon="6.66185">
        <ele>1804</ele>
        <time>2022-08-16T10:15:56Z</time>
      </trkpt>
      <trkpt lat="45.77621" lon="6.66185">
        <ele>1804</ele>
        <time>2022-08-16T10:15:57Z</time>
      </trkpt>
      <trkpt lat="45.77619" lon="6.66184">
        <ele>1804</ele>
        <time>2022-08-16T10:15:58Z</time>
      </trkpt>
      <trkpt lat="45.77617" lon="6.66184">
        <ele>1805</ele>
        <time>2022-08-16T10:15:59Z</time>
      </trkpt>
      <trkpt lat="45.77616" lon="6.66184">
        <ele>1805</ele>
        <time>2022-08-16T10:16:00Z</time>
      </trkpt>
      <trkpt lat="45.77613" lon="6.66184">
        <ele>1805</ele>
        <time>2022-08-16T10:16:01Z</time>
      </trkpt>
      <trkpt lat="45.77611" lon="6.66185">
        <ele>1805</ele>
        <time>2022-08-16T10:16:02Z</time>
      </trkpt>
      <trkpt lat="45.7761" lon="6.66184">
        <ele>1806</ele>
        <time>2022-08-16T10:16:03Z</time>
      </trkpt>
      <trkpt lat="45.77608" lon="6.66184">
        <ele>1806</ele>
        <time>2022-08-16T10:16:04Z</time>
      </trkpt>
      <trkpt lat="45.77606" lon="6.66185">
        <ele>1806</ele>
        <time>2022-08-16T10:16:05Z</time>
      </trkpt>
      <trkpt lat="45.77605" lon="6.66185">
        <ele>1806</ele>
        <time>2022-08-16T10:16:06Z</time>
      </trkpt>
      <trkpt lat="45.77603" lon="6.66185">
        <ele>1806</ele>
        <time>2022-08-16T10:16:07Z</time>
      </trkpt>
      <trkpt lat="45.77601" lon="6.66185">
        <ele>1806</ele>
        <time>2022-08-16T10:16:08Z</time>
      </trkpt>
      <trkpt lat="45.77599" lon="6.66185">
        <ele>1807</ele>
        <time>2022-08-16T10:16:09Z</time>
      </trkpt>
      <trkpt lat="45.77596" lon="6.66185">
        <ele>1807</ele>
        <time>2022-08-16T10:16:10Z</time>
      </trkpt>
      <trkpt lat="45.77595" lon="6.66185">
        <ele>1807</ele>
        <time>2022-08-16T10:16:11Z</time>
      </trkpt>
      <trkpt lat="45.77592" lon="6.66185">
        <ele>1807</ele>
        <time>2022-08-16T10:16:12Z</time>
      </trkpt>
      <trkpt lat="45.77591" lon="6.66186">
        <ele>1808</ele>
        <time>2022-08-16T10:16:13Z</time>
      </trkpt>
      <trkpt lat="45.77589" lon="6.66187">
        <ele>1808</ele>
        <time>2022-08-16T10:16:14Z</time>
      </trkpt>
      <trkpt lat="45.77587" lon="6.66187">
        <ele>1808</ele>
        <time>2022-08-16T10:16:15Z</time>
      </trkpt>
      <trkpt lat="45.77585" lon="6.66187">
        <ele>1808</ele>
        <time>2022-08-16T10:16:16Z</time>
      </trkpt>
      <trkpt lat="45.77583" lon="6.66188">
        <ele>1808</ele>
        <time>2022-08-16T10:16:17Z</time>
      </trkpt>
      <trkpt lat="45.77581" lon="6.66188">
        <ele>1809</ele>
        <time>2022-08-16T10:16:18Z</time>
      </trkpt>
      <trkpt lat="45.7758" lon="6.66189">
        <ele>1808</ele>
        <time>2022-08-16T10:16:19Z</time>
      </trkpt>
      <trkpt lat="45.77578" lon="6.66189">
        <ele>1808</ele>
        <time>2022-08-16T10:16:20Z</time>
      </trkpt>
      <trkpt lat="45.77576" lon="6.6619">
        <ele>1808</ele>
        <time>2022-08-16T10:16:21Z</time>
      </trkpt>
      <trkpt lat="45.77574" lon="6.66191">
        <ele>1808</ele>
        <time>2022-08-16T10:16:22Z</time>
      </trkpt>
      <trkpt lat="45.77572" lon="6.66192">
        <ele>1808</ele>
        <time>2022-08-16T10:16:23Z</time>
      </trkpt>
      <trkpt lat="45.77571" lon="6.66193">
        <ele>1808</ele>
        <time>2022-08-16T10:16:24Z</time>
      </trkpt>
      <trkpt lat="45.7757" lon="6.66194">
        <ele>1808</ele>
        <time>2022-08-16T10:16:25Z</time>
      </trkpt>
      <trkpt lat="45.77568" lon="6.66194">
        <ele>1808</ele>
        <time>2022-08-16T10:16:26Z</time>
      </trkpt>
      <trkpt lat="45.77567" lon="6.66195">
        <ele>1808</ele>
        <time>2022-08-16T10:16:27Z</time>
      </trkpt>
      <trkpt lat="45.77565" lon="6.66196">
        <ele>1808</ele>
        <time>2022-08-16T10:16:28Z</time>
      </trkpt>
      <trkpt lat="45.77563" lon="6.66197">
        <ele>1808</ele>
        <time>2022-08-16T10:16:29Z</time>
      </trkpt>
      <trkpt lat="45.77562" lon="6.66198">
        <ele>1808</ele>
        <time>2022-08-16T10:16:30Z</time>
      </trkpt>
      <trkpt lat="45.7756" lon="6.66199">
        <ele>1808</ele>
        <time>2022-08-16T10:16:31Z</time>
      </trkpt>
      <trkpt lat="45.77558" lon="6.66199">
        <ele>1808</ele>
        <time>2022-08-16T10:16:32Z</time>
      </trkpt>
      <trkpt lat="45.77556" lon="6.662">
        <ele>1808</ele>
        <time>2022-08-16T10:16:33Z</time>
      </trkpt>
      <trkpt lat="45.77554" lon="6.66201">
        <ele>1808</ele>
        <time>2022-08-16T10:16:34Z</time>
      </trkpt>
      <trkpt lat="45.77552" lon="6.66202">
        <ele>1808</ele>
        <time>2022-08-16T10:16:35Z</time>
      </trkpt>
      <trkpt lat="45.7755" lon="6.66203">
        <ele>1808</ele>
        <time>2022-08-16T10:16:36Z</time>
      </trkpt>
      <trkpt lat="45.77548" lon="6.66204">
        <ele>1808</ele>
        <time>2022-08-16T10:16:37Z</time>
      </trkpt>
      <trkpt lat="45.77546" lon="6.66204">
        <ele>1809</ele>
        <time>2022-08-16T10:16:38Z</time>
      </trkpt>
      <trkpt lat="45.77545" lon="6.66205">
        <ele>1809</ele>
        <time>2022-08-16T10:16:39Z</time>
      </trkpt>
      <trkpt lat="45.77543" lon="6.66205">
        <ele>1809</ele>
        <time>2022-08-16T10:16:40Z</time>
      </trkpt>
      <trkpt lat="45.77541" lon="6.66206">
        <ele>1810</ele>
        <time>2022-08-16T10:16:41Z</time>
      </trkpt>
      <trkpt lat="45.7754" lon="6.66207">
        <ele>1810</ele>
        <time>2022-08-16T10:16:42Z</time>
      </trkpt>
      <trkpt lat="45.77538" lon="6.66207">
        <ele>1810</ele>
        <time>2022-08-16T10:16:43Z</time>
      </trkpt>
      <trkpt lat="45.77536" lon="6.66208">
        <ele>1810</ele>
        <time>2022-08-16T10:16:44Z</time>
      </trkpt>
      <trkpt lat="45.77535" lon="6.66209">
        <ele>1811</ele>
        <time>2022-08-16T10:16:45Z</time>
      </trkpt>
      <trkpt lat="45.77533" lon="6.6621">
        <ele>1811</ele>
        <time>2022-08-16T10:16:46Z</time>
      </trkpt>
      <trkpt lat="45.77531" lon="6.66212">
        <ele>1812</ele>
        <time>2022-08-16T10:16:47Z</time>
      </trkpt>
      <trkpt lat="45.7753" lon="6.66214">
        <ele>1812</ele>
        <time>2022-08-16T10:16:48Z</time>
      </trkpt>
      <trkpt lat="45.77529" lon="6.66215">
        <ele>1812</ele>
        <time>2022-08-16T10:16:49Z</time>
      </trkpt>
      <trkpt lat="45.77528" lon="6.66216">
        <ele>1813</ele>
        <time>2022-08-16T10:16:50Z</time>
      </trkpt>
      <trkpt lat="45.77527" lon="6.66218">
        <ele>1813</ele>
        <time>2022-08-16T10:16:51Z</time>
      </trkpt>
      <trkpt lat="45.77525" lon="6.66219">
        <ele>1813</ele>
        <time>2022-08-16T10:16:52Z</time>
      </trkpt>
      <trkpt lat="45.77524" lon="6.66221">
        <ele>1814</ele>
        <time>2022-08-16T10:16:53Z</time>
      </trkpt>
      <trkpt lat="45.77523" lon="6.66223">
        <ele>1814</ele>
        <time>2022-08-16T10:16:54Z</time>
      </trkpt>
      <trkpt lat="45.77522" lon="6.66225">
        <ele>1815</ele>
        <time>2022-08-16T10:16:55Z</time>
      </trkpt>
      <trkpt lat="45.7752" lon="6.66227">
        <ele>1816</ele>
        <time>2022-08-16T10:16:56Z</time>
      </trkpt>
      <trkpt lat="45.77519" lon="6.66229">
        <ele>1816</ele>
        <time>2022-08-16T10:16:57Z</time>
      </trkpt>
      <trkpt lat="45.77518" lon="6.66231">
        <ele>1816</ele>
        <time>2022-08-16T10:16:58Z</time>
      </trkpt>
      <trkpt lat="45.77516" lon="6.66234">
        <ele>1817</ele>
        <time>2022-08-16T10:16:59Z</time>
      </trkpt>
      <trkpt lat="45.77515" lon="6.66236">
        <ele>1817</ele>
        <time>2022-08-16T10:17:00Z</time>
      </trkpt>
      <trkpt lat="45.77514" lon="6.66238">
        <ele>1817</ele>
        <time>2022-08-16T10:17:01Z</time>
      </trkpt>
      <trkpt lat="45.77513" lon="6.66239">
        <ele>1817</ele>
        <time>2022-08-16T10:17:02Z</time>
      </trkpt>
      <trkpt lat="45.77513" lon="6.66241">
        <ele>1818</ele>
        <time>2022-08-16T10:17:03Z</time>
      </trkpt>
      <trkpt lat="45.77511" lon="6.66242">
        <ele>1818</ele>
        <time>2022-08-16T10:17:04Z</time>
      </trkpt>
      <trkpt lat="45.77511" lon="6.66244">
        <ele>1818</ele>
        <time>2022-08-16T10:17:05Z</time>
      </trkpt>
      <trkpt lat="45.7751" lon="6.66246">
        <ele>1819</ele>
        <time>2022-08-16T10:17:06Z</time>
      </trkpt>
      <trkpt lat="45.77509" lon="6.66248">
        <ele>1819</ele>
        <time>2022-08-16T10:17:07Z</time>
      </trkpt>
      <trkpt lat="45.77508" lon="6.6625">
        <ele>1820</ele>
        <time>2022-08-16T10:17:08Z</time>
      </trkpt>
      <trkpt lat="45.77508" lon="6.66251">
        <ele>1821</ele>
        <time>2022-08-16T10:17:09Z</time>
      </trkpt>
      <trkpt lat="45.77507" lon="6.66254">
        <ele>1821</ele>
        <time>2022-08-16T10:17:10Z</time>
      </trkpt>
      <trkpt lat="45.77506" lon="6.66255">
        <ele>1821</ele>
        <time>2022-08-16T10:17:11Z</time>
      </trkpt>
      <trkpt lat="45.77505" lon="6.66258">
        <ele>1822</ele>
        <time>2022-08-16T10:17:12Z</time>
      </trkpt>
      <trkpt lat="45.77504" lon="6.6626">
        <ele>1822</ele>
        <time>2022-08-16T10:17:13Z</time>
      </trkpt>
      <trkpt lat="45.77503" lon="6.66262">
        <ele>1822</ele>
        <time>2022-08-16T10:17:14Z</time>
      </trkpt>
      <trkpt lat="45.77502" lon="6.66264">
        <ele>1822</ele>
        <time>2022-08-16T10:17:15Z</time>
      </trkpt>
      <trkpt lat="45.77501" lon="6.66267">
        <ele>1823</ele>
        <time>2022-08-16T10:17:16Z</time>
      </trkpt>
      <trkpt lat="45.775" lon="6.66269">
        <ele>1823</ele>
        <time>2022-08-16T10:17:17Z</time>
      </trkpt>
      <trkpt lat="45.775" lon="6.66272">
        <ele>1823</ele>
        <time>2022-08-16T10:17:18Z</time>
      </trkpt>
      <trkpt lat="45.77499" lon="6.66274">
        <ele>1824</ele>
        <time>2022-08-16T10:17:19Z</time>
      </trkpt>
      <trkpt lat="45.77498" lon="6.66276">
        <ele>1824</ele>
        <time>2022-08-16T10:17:20Z</time>
      </trkpt>
      <trkpt lat="45.77497" lon="6.66278">
        <ele>1824</ele>
        <time>2022-08-16T10:17:21Z</time>
      </trkpt>
      <trkpt lat="45.77497" lon="6.6628">
        <ele>1824</ele>
        <time>2022-08-16T10:17:22Z</time>
      </trkpt>
      <trkpt lat="45.77496" lon="6.66283">
        <ele>1824</ele>
        <time>2022-08-16T10:17:23Z</time>
      </trkpt>
      <trkpt lat="45.77496" lon="6.66286">
        <ele>1825</ele>
        <time>2022-08-16T10:17:24Z</time>
      </trkpt>
      <trkpt lat="45.77495" lon="6.66288">
        <ele>1825</ele>
        <time>2022-08-16T10:17:25Z</time>
      </trkpt>
      <trkpt lat="45.77495" lon="6.66291">
        <ele>1824</ele>
        <time>2022-08-16T10:17:26Z</time>
      </trkpt>
      <trkpt lat="45.77494" lon="6.66293">
        <ele>1825</ele>
        <time>2022-08-16T10:17:27Z</time>
      </trkpt>
      <trkpt lat="45.77493" lon="6.66296">
        <ele>1825</ele>
        <time>2022-08-16T10:17:28Z</time>
      </trkpt>
      <trkpt lat="45.77493" lon="6.66299">
        <ele>1825</ele>
        <time>2022-08-16T10:17:29Z</time>
      </trkpt>
      <trkpt lat="45.77492" lon="6.66301">
        <ele>1826</ele>
        <time>2022-08-16T10:17:30Z</time>
      </trkpt>
      <trkpt lat="45.77492" lon="6.66304">
        <ele>1825</ele>
        <time>2022-08-16T10:17:31Z</time>
      </trkpt>
      <trkpt lat="45.77491" lon="6.66306">
        <ele>1825</ele>
        <time>2022-08-16T10:17:32Z</time>
      </trkpt>
      <trkpt lat="45.7749" lon="6.66309">
        <ele>1825</ele>
        <time>2022-08-16T10:17:33Z</time>
      </trkpt>
      <trkpt lat="45.7749" lon="6.66312">
        <ele>1825</ele>
        <time>2022-08-16T10:17:34Z</time>
      </trkpt>
      <trkpt lat="45.77489" lon="6.66315">
        <ele>1825</ele>
        <time>2022-08-16T10:17:35Z</time>
      </trkpt>
      <trkpt lat="45.77488" lon="6.66318">
        <ele>1826</ele>
        <time>2022-08-16T10:17:36Z</time>
      </trkpt>
      <trkpt lat="45.77488" lon="6.66321">
        <ele>1826</ele>
        <time>2022-08-16T10:17:37Z</time>
      </trkpt>
      <trkpt lat="45.77488" lon="6.66324">
        <ele>1826</ele>
        <time>2022-08-16T10:17:38Z</time>
      </trkpt>
      <trkpt lat="45.77487" lon="6.66327">
        <ele>1827</ele>
        <time>2022-08-16T10:17:39Z</time>
      </trkpt>
      <trkpt lat="45.77487" lon="6.6633">
        <ele>1827</ele>
        <time>2022-08-16T10:17:40Z</time>
      </trkpt>
      <trkpt lat="45.77486" lon="6.66333">
        <ele>1828</ele>
        <time>2022-08-16T10:17:41Z</time>
      </trkpt>
      <trkpt lat="45.77485" lon="6.66336">
        <ele>1828</ele>
        <time>2022-08-16T10:17:42Z</time>
      </trkpt>
      <trkpt lat="45.77485" lon="6.66338">
        <ele>1828</ele>
        <time>2022-08-16T10:17:43Z</time>
      </trkpt>
      <trkpt lat="45.77484" lon="6.66341">
        <ele>1828</ele>
        <time>2022-08-16T10:17:44Z</time>
      </trkpt>
      <trkpt lat="45.77484" lon="6.66343">
        <ele>1828</ele>
        <time>2022-08-16T10:17:45Z</time>
      </trkpt>
      <trkpt lat="45.77483" lon="6.66346">
        <ele>1829</ele>
        <time>2022-08-16T10:17:46Z</time>
      </trkpt>
      <trkpt lat="45.77483" lon="6.66348">
        <ele>1829</ele>
        <time>2022-08-16T10:17:47Z</time>
      </trkpt>
      <trkpt lat="45.77482" lon="6.66351">
        <ele>1829</ele>
        <time>2022-08-16T10:17:48Z</time>
      </trkpt>
      <trkpt lat="45.77482" lon="6.66354">
        <ele>1829</ele>
        <time>2022-08-16T10:17:49Z</time>
      </trkpt>
      <trkpt lat="45.77482" lon="6.66356">
        <ele>1829</ele>
        <time>2022-08-16T10:17:50Z</time>
      </trkpt>
      <trkpt lat="45.77481" lon="6.6636">
        <ele>1829</ele>
        <time>2022-08-16T10:17:51Z</time>
      </trkpt>
      <trkpt lat="45.77481" lon="6.66363">
        <ele>1828</ele>
        <time>2022-08-16T10:17:52Z</time>
      </trkpt>
      <trkpt lat="45.77481" lon="6.66366">
        <ele>1828</ele>
        <time>2022-08-16T10:17:53Z</time>
      </trkpt>
      <trkpt lat="45.77481" lon="6.66369">
        <ele>1828</ele>
        <time>2022-08-16T10:17:54Z</time>
      </trkpt>
      <trkpt lat="45.7748" lon="6.66371">
        <ele>1829</ele>
        <time>2022-08-16T10:17:55Z</time>
      </trkpt>
      <trkpt lat="45.77479" lon="6.66374">
        <ele>1829</ele>
        <time>2022-08-16T10:17:56Z</time>
      </trkpt>
      <trkpt lat="45.77478" lon="6.66377">
        <ele>1830</ele>
        <time>2022-08-16T10:17:57Z</time>
      </trkpt>
      <trkpt lat="45.77478" lon="6.6638">
        <ele>1830</ele>
        <time>2022-08-16T10:17:58Z</time>
      </trkpt>
      <trkpt lat="45.77477" lon="6.66383">
        <ele>1830</ele>
        <time>2022-08-16T10:17:59Z</time>
      </trkpt>
      <trkpt lat="45.77476" lon="6.66385">
        <ele>1830</ele>
        <time>2022-08-16T10:18:00Z</time>
      </trkpt>
      <trkpt lat="45.77475" lon="6.66388">
        <ele>1830</ele>
        <time>2022-08-16T10:18:01Z</time>
      </trkpt>
      <trkpt lat="45.77474" lon="6.6639">
        <ele>1830</ele>
        <time>2022-08-16T10:18:02Z</time>
      </trkpt>
      <trkpt lat="45.77472" lon="6.66392">
        <ele>1830</ele>
        <time>2022-08-16T10:18:03Z</time>
      </trkpt>
      <trkpt lat="45.77471" lon="6.66394">
        <ele>1831</ele>
        <time>2022-08-16T10:18:04Z</time>
      </trkpt>
      <trkpt lat="45.77469" lon="6.66396">
        <ele>1831</ele>
        <time>2022-08-16T10:18:05Z</time>
      </trkpt>
      <trkpt lat="45.77467" lon="6.66398">
        <ele>1831</ele>
        <time>2022-08-16T10:18:06Z</time>
      </trkpt>
      <trkpt lat="45.77466" lon="6.66399">
        <ele>1831</ele>
        <time>2022-08-16T10:18:07Z</time>
      </trkpt>
      <trkpt lat="45.77464" lon="6.664">
        <ele>1831</ele>
        <time>2022-08-16T10:18:08Z</time>
      </trkpt>
      <trkpt lat="45.77462" lon="6.66402">
        <ele>1831</ele>
        <time>2022-08-16T10:18:09Z</time>
      </trkpt>
      <trkpt lat="45.7746" lon="6.66403">
        <ele>1832</ele>
        <time>2022-08-16T10:18:10Z</time>
      </trkpt>
      <trkpt lat="45.77456" lon="6.66406">
        <ele>1832</ele>
        <time>2022-08-16T10:18:12Z</time>
      </trkpt>
      <trkpt lat="45.77454" lon="6.66407">
        <ele>1832</ele>
        <time>2022-08-16T10:18:13Z</time>
      </trkpt>
      <trkpt lat="45.77453" lon="6.6641">
        <ele>1832</ele>
        <time>2022-08-16T10:18:14Z</time>
      </trkpt>
      <trkpt lat="45.77452" lon="6.66412">
        <ele>1833</ele>
        <time>2022-08-16T10:18:15Z</time>
      </trkpt>
      <trkpt lat="45.7745" lon="6.66413">
        <ele>1833</ele>
        <time>2022-08-16T10:18:16Z</time>
      </trkpt>
      <trkpt lat="45.77449" lon="6.66415">
        <ele>1834</ele>
        <time>2022-08-16T10:18:17Z</time>
      </trkpt>
      <trkpt lat="45.77447" lon="6.66417">
        <ele>1834</ele>
        <time>2022-08-16T10:18:18Z</time>
      </trkpt>
      <trkpt lat="45.77446" lon="6.66419">
        <ele>1834</ele>
        <time>2022-08-16T10:18:19Z</time>
      </trkpt>
      <trkpt lat="45.77444" lon="6.66421">
        <ele>1834</ele>
        <time>2022-08-16T10:18:20Z</time>
      </trkpt>
      <trkpt lat="45.77443" lon="6.66423">
        <ele>1834</ele>
        <time>2022-08-16T10:18:21Z</time>
      </trkpt>
      <trkpt lat="45.77442" lon="6.66426">
        <ele>1834</ele>
        <time>2022-08-16T10:18:22Z</time>
      </trkpt>
      <trkpt lat="45.7744" lon="6.66427">
        <ele>1834</ele>
        <time>2022-08-16T10:18:23Z</time>
      </trkpt>
      <trkpt lat="45.77439" lon="6.66429">
        <ele>1834</ele>
        <time>2022-08-16T10:18:24Z</time>
      </trkpt>
      <trkpt lat="45.77437" lon="6.66431">
        <ele>1834</ele>
        <time>2022-08-16T10:18:25Z</time>
      </trkpt>
      <trkpt lat="45.77436" lon="6.66433">
        <ele>1834</ele>
        <time>2022-08-16T10:18:26Z</time>
      </trkpt>
      <trkpt lat="45.77434" lon="6.66435">
        <ele>1834</ele>
        <time>2022-08-16T10:18:27Z</time>
      </trkpt>
      <trkpt lat="45.77433" lon="6.66438">
        <ele>1835</ele>
        <time>2022-08-16T10:18:28Z</time>
      </trkpt>
      <trkpt lat="45.77431" lon="6.6644">
        <ele>1835</ele>
        <time>2022-08-16T10:18:29Z</time>
      </trkpt>
      <trkpt lat="45.77429" lon="6.66442">
        <ele>1834</ele>
        <time>2022-08-16T10:18:30Z</time>
      </trkpt>
      <trkpt lat="45.77428" lon="6.66444">
        <ele>1835</ele>
        <time>2022-08-16T10:18:31Z</time>
      </trkpt>
      <trkpt lat="45.77426" lon="6.66446">
        <ele>1834</ele>
        <time>2022-08-16T10:18:32Z</time>
      </trkpt>
      <trkpt lat="45.77424" lon="6.66449">
        <ele>1834</ele>
        <time>2022-08-16T10:18:33Z</time>
      </trkpt>
      <trkpt lat="45.77423" lon="6.66451">
        <ele>1835</ele>
        <time>2022-08-16T10:18:34Z</time>
      </trkpt>
      <trkpt lat="45.77421" lon="6.66453">
        <ele>1835</ele>
        <time>2022-08-16T10:18:35Z</time>
      </trkpt>
      <trkpt lat="45.7742" lon="6.66456">
        <ele>1835</ele>
        <time>2022-08-16T10:18:36Z</time>
      </trkpt>
      <trkpt lat="45.77418" lon="6.66458">
        <ele>1835</ele>
        <time>2022-08-16T10:18:37Z</time>
      </trkpt>
      <trkpt lat="45.77417" lon="6.6646">
        <ele>1836</ele>
        <time>2022-08-16T10:18:38Z</time>
      </trkpt>
      <trkpt lat="45.77416" lon="6.66462">
        <ele>1836</ele>
        <time>2022-08-16T10:18:39Z</time>
      </trkpt>
      <trkpt lat="45.77414" lon="6.66464">
        <ele>1835</ele>
        <time>2022-08-16T10:18:40Z</time>
      </trkpt>
      <trkpt lat="45.77413" lon="6.66467">
        <ele>1835</ele>
        <time>2022-08-16T10:18:41Z</time>
      </trkpt>
      <trkpt lat="45.77411" lon="6.66469">
        <ele>1836</ele>
        <time>2022-08-16T10:18:42Z</time>
      </trkpt>
      <trkpt lat="45.7741" lon="6.66471">
        <ele>1836</ele>
        <time>2022-08-16T10:18:43Z</time>
      </trkpt>
      <trkpt lat="45.77409" lon="6.66473">
        <ele>1836</ele>
        <time>2022-08-16T10:18:44Z</time>
      </trkpt>
      <trkpt lat="45.77407" lon="6.66476">
        <ele>1836</ele>
        <time>2022-08-16T10:18:45Z</time>
      </trkpt>
      <trkpt lat="45.77406" lon="6.66478">
        <ele>1837</ele>
        <time>2022-08-16T10:18:46Z</time>
      </trkpt>
      <trkpt lat="45.77404" lon="6.6648">
        <ele>1837</ele>
        <time>2022-08-16T10:18:47Z</time>
      </trkpt>
      <trkpt lat="45.77403" lon="6.66482">
        <ele>1836</ele>
        <time>2022-08-16T10:18:48Z</time>
      </trkpt>
      <trkpt lat="45.77401" lon="6.66484">
        <ele>1837</ele>
        <time>2022-08-16T10:18:49Z</time>
      </trkpt>
      <trkpt lat="45.774" lon="6.66486">
        <ele>1836</ele>
        <time>2022-08-16T10:18:50Z</time>
      </trkpt>
      <trkpt lat="45.77399" lon="6.66487">
        <ele>1836</ele>
        <time>2022-08-16T10:18:51Z</time>
      </trkpt>
      <trkpt lat="45.77398" lon="6.66489">
        <ele>1836</ele>
        <time>2022-08-16T10:18:52Z</time>
      </trkpt>
      <trkpt lat="45.77397" lon="6.66492">
        <ele>1837</ele>
        <time>2022-08-16T10:18:53Z</time>
      </trkpt>
      <trkpt lat="45.77396" lon="6.66494">
        <ele>1837</ele>
        <time>2022-08-16T10:18:54Z</time>
      </trkpt>
      <trkpt lat="45.77395" lon="6.66496">
        <ele>1838</ele>
        <time>2022-08-16T10:18:55Z</time>
      </trkpt>
      <trkpt lat="45.77394" lon="6.66498">
        <ele>1838</ele>
        <time>2022-08-16T10:18:56Z</time>
      </trkpt>
      <trkpt lat="45.77394" lon="6.66501">
        <ele>1838</ele>
        <time>2022-08-16T10:18:57Z</time>
      </trkpt>
      <trkpt lat="45.77393" lon="6.66503">
        <ele>1838</ele>
        <time>2022-08-16T10:18:58Z</time>
      </trkpt>
      <trkpt lat="45.77392" lon="6.66506">
        <ele>1838</ele>
        <time>2022-08-16T10:18:59Z</time>
      </trkpt>
      <trkpt lat="45.77391" lon="6.66509">
        <ele>1838</ele>
        <time>2022-08-16T10:19:00Z</time>
      </trkpt>
      <trkpt lat="45.7739" lon="6.66511">
        <ele>1838</ele>
        <time>2022-08-16T10:19:01Z</time>
      </trkpt>
      <trkpt lat="45.77389" lon="6.66514">
        <ele>1839</ele>
        <time>2022-08-16T10:19:02Z</time>
      </trkpt>
      <trkpt lat="45.77389" lon="6.66517">
        <ele>1839</ele>
        <time>2022-08-16T10:19:03Z</time>
      </trkpt>
      <trkpt lat="45.77388" lon="6.66519">
        <ele>1839</ele>
        <time>2022-08-16T10:19:04Z</time>
      </trkpt>
      <trkpt lat="45.77388" lon="6.66521">
        <ele>1839</ele>
        <time>2022-08-16T10:19:05Z</time>
      </trkpt>
      <trkpt lat="45.77387" lon="6.66524">
        <ele>1839</ele>
        <time>2022-08-16T10:19:06Z</time>
      </trkpt>
      <trkpt lat="45.77387" lon="6.66526">
        <ele>1839</ele>
        <time>2022-08-16T10:19:07Z</time>
      </trkpt>
      <trkpt lat="45.77386" lon="6.66529">
        <ele>1840</ele>
        <time>2022-08-16T10:19:08Z</time>
      </trkpt>
      <trkpt lat="45.77386" lon="6.66532">
        <ele>1840</ele>
        <time>2022-08-16T10:19:09Z</time>
      </trkpt>
      <trkpt lat="45.77385" lon="6.66535">
        <ele>1840</ele>
        <time>2022-08-16T10:19:10Z</time>
      </trkpt>
      <trkpt lat="45.77384" lon="6.66537">
        <ele>1840</ele>
        <time>2022-08-16T10:19:11Z</time>
      </trkpt>
      <trkpt lat="45.77383" lon="6.6654">
        <ele>1841</ele>
        <time>2022-08-16T10:19:12Z</time>
      </trkpt>
      <trkpt lat="45.77383" lon="6.66542">
        <ele>1841</ele>
        <time>2022-08-16T10:19:13Z</time>
      </trkpt>
      <trkpt lat="45.77382" lon="6.66545">
        <ele>1841</ele>
        <time>2022-08-16T10:19:14Z</time>
      </trkpt>
      <trkpt lat="45.77381" lon="6.66547">
        <ele>1841</ele>
        <time>2022-08-16T10:19:15Z</time>
      </trkpt>
      <trkpt lat="45.77381" lon="6.66551">
        <ele>1841</ele>
        <time>2022-08-16T10:19:16Z</time>
      </trkpt>
      <trkpt lat="45.7738" lon="6.66553">
        <ele>1841</ele>
        <time>2022-08-16T10:19:17Z</time>
      </trkpt>
      <trkpt lat="45.77379" lon="6.66555">
        <ele>1842</ele>
        <time>2022-08-16T10:19:18Z</time>
      </trkpt>
      <trkpt lat="45.77378" lon="6.66558">
        <ele>1842</ele>
        <time>2022-08-16T10:19:19Z</time>
      </trkpt>
      <trkpt lat="45.77377" lon="6.6656">
        <ele>1842</ele>
        <time>2022-08-16T10:19:20Z</time>
      </trkpt>
      <trkpt lat="45.77377" lon="6.66562">
        <ele>1842</ele>
        <time>2022-08-16T10:19:21Z</time>
      </trkpt>
      <trkpt lat="45.77376" lon="6.66565">
        <ele>1842</ele>
        <time>2022-08-16T10:19:22Z</time>
      </trkpt>
      <trkpt lat="45.77376" lon="6.66567">
        <ele>1843</ele>
        <time>2022-08-16T10:19:23Z</time>
      </trkpt>
      <trkpt lat="45.77375" lon="6.6657">
        <ele>1843</ele>
        <time>2022-08-16T10:19:24Z</time>
      </trkpt>
      <trkpt lat="45.77374" lon="6.66572">
        <ele>1843</ele>
        <time>2022-08-16T10:19:25Z</time>
      </trkpt>
      <trkpt lat="45.77373" lon="6.66575">
        <ele>1843</ele>
        <time>2022-08-16T10:19:26Z</time>
      </trkpt>
      <trkpt lat="45.77371" lon="6.66576">
        <ele>1843</ele>
        <time>2022-08-16T10:19:27Z</time>
      </trkpt>
      <trkpt lat="45.7737" lon="6.66579">
        <ele>1843</ele>
        <time>2022-08-16T10:19:28Z</time>
      </trkpt>
      <trkpt lat="45.77369" lon="6.66581">
        <ele>1843</ele>
        <time>2022-08-16T10:19:29Z</time>
      </trkpt>
      <trkpt lat="45.77367" lon="6.66583">
        <ele>1844</ele>
        <time>2022-08-16T10:19:30Z</time>
      </trkpt>
      <trkpt lat="45.77366" lon="6.66585">
        <ele>1844</ele>
        <time>2022-08-16T10:19:31Z</time>
      </trkpt>
      <trkpt lat="45.77364" lon="6.66587">
        <ele>1844</ele>
        <time>2022-08-16T10:19:32Z</time>
      </trkpt>
      <trkpt lat="45.77363" lon="6.66588">
        <ele>1844</ele>
        <time>2022-08-16T10:19:33Z</time>
      </trkpt>
      <trkpt lat="45.77361" lon="6.66591">
        <ele>1845</ele>
        <time>2022-08-16T10:19:34Z</time>
      </trkpt>
      <trkpt lat="45.7736" lon="6.66592">
        <ele>1845</ele>
        <time>2022-08-16T10:19:35Z</time>
      </trkpt>
      <trkpt lat="45.77358" lon="6.66594">
        <ele>1845</ele>
        <time>2022-08-16T10:19:36Z</time>
      </trkpt>
      <trkpt lat="45.77357" lon="6.66596">
        <ele>1846</ele>
        <time>2022-08-16T10:19:37Z</time>
      </trkpt>
      <trkpt lat="45.77355" lon="6.66598">
        <ele>1846</ele>
        <time>2022-08-16T10:19:38Z</time>
      </trkpt>
      <trkpt lat="45.77354" lon="6.666">
        <ele>1847</ele>
        <time>2022-08-16T10:19:39Z</time>
      </trkpt>
      <trkpt lat="45.77353" lon="6.66601">
        <ele>1847</ele>
        <time>2022-08-16T10:19:40Z</time>
      </trkpt>
      <trkpt lat="45.77352" lon="6.66603">
        <ele>1847</ele>
        <time>2022-08-16T10:19:41Z</time>
      </trkpt>
      <trkpt lat="45.77351" lon="6.66605">
        <ele>1847</ele>
        <time>2022-08-16T10:19:42Z</time>
      </trkpt>
      <trkpt lat="45.77349" lon="6.66607">
        <ele>1847</ele>
        <time>2022-08-16T10:19:43Z</time>
      </trkpt>
      <trkpt lat="45.77348" lon="6.66608">
        <ele>1847</ele>
        <time>2022-08-16T10:19:44Z</time>
      </trkpt>
      <trkpt lat="45.77347" lon="6.6661">
        <ele>1847</ele>
        <time>2022-08-16T10:19:45Z</time>
      </trkpt>
      <trkpt lat="45.77346" lon="6.66613">
        <ele>1847</ele>
        <time>2022-08-16T10:19:46Z</time>
      </trkpt>
      <trkpt lat="45.77345" lon="6.66615">
        <ele>1848</ele>
        <time>2022-08-16T10:19:47Z</time>
      </trkpt>
      <trkpt lat="45.77344" lon="6.66617">
        <ele>1848</ele>
        <time>2022-08-16T10:19:48Z</time>
      </trkpt>
      <trkpt lat="45.77343" lon="6.6662">
        <ele>1848</ele>
        <time>2022-08-16T10:19:49Z</time>
      </trkpt>
      <trkpt lat="45.77342" lon="6.66622">
        <ele>1848</ele>
        <time>2022-08-16T10:19:50Z</time>
      </trkpt>
      <trkpt lat="45.77342" lon="6.66625">
        <ele>1848</ele>
        <time>2022-08-16T10:19:51Z</time>
      </trkpt>
      <trkpt lat="45.77341" lon="6.66628">
        <ele>1849</ele>
        <time>2022-08-16T10:19:52Z</time>
      </trkpt>
      <trkpt lat="45.7734" lon="6.66631">
        <ele>1849</ele>
        <time>2022-08-16T10:19:53Z</time>
      </trkpt>
      <trkpt lat="45.7734" lon="6.66634">
        <ele>1850</ele>
        <time>2022-08-16T10:19:54Z</time>
      </trkpt>
      <trkpt lat="45.77341" lon="6.66636">
        <ele>1850</ele>
        <time>2022-08-16T10:19:55Z</time>
      </trkpt>
      <trkpt lat="45.77341" lon="6.66639">
        <ele>1851</ele>
        <time>2022-08-16T10:19:56Z</time>
      </trkpt>
      <trkpt lat="45.77342" lon="6.66642">
        <ele>1851</ele>
        <time>2022-08-16T10:19:57Z</time>
      </trkpt>
      <trkpt lat="45.77342" lon="6.66644">
        <ele>1851</ele>
        <time>2022-08-16T10:19:58Z</time>
      </trkpt>
      <trkpt lat="45.77342" lon="6.66647">
        <ele>1851</ele>
        <time>2022-08-16T10:19:59Z</time>
      </trkpt>
      <trkpt lat="45.77343" lon="6.66649">
        <ele>1852</ele>
        <time>2022-08-16T10:20:00Z</time>
      </trkpt>
      <trkpt lat="45.77343" lon="6.66652">
        <ele>1852</ele>
        <time>2022-08-16T10:20:01Z</time>
      </trkpt>
      <trkpt lat="45.77344" lon="6.66655">
        <ele>1852</ele>
        <time>2022-08-16T10:20:02Z</time>
      </trkpt>
      <trkpt lat="45.77345" lon="6.66658">
        <ele>1852</ele>
        <time>2022-08-16T10:20:03Z</time>
      </trkpt>
      <trkpt lat="45.77346" lon="6.66661">
        <ele>1852</ele>
        <time>2022-08-16T10:20:04Z</time>
      </trkpt>
      <trkpt lat="45.77347" lon="6.66663">
        <ele>1852</ele>
        <time>2022-08-16T10:20:05Z</time>
      </trkpt>
      <trkpt lat="45.77347" lon="6.66666">
        <ele>1851</ele>
        <time>2022-08-16T10:20:06Z</time>
      </trkpt>
      <trkpt lat="45.77347" lon="6.66669">
        <ele>1852</ele>
        <time>2022-08-16T10:20:07Z</time>
      </trkpt>
      <trkpt lat="45.77348" lon="6.66672">
        <ele>1852</ele>
        <time>2022-08-16T10:20:08Z</time>
      </trkpt>
      <trkpt lat="45.77348" lon="6.66674">
        <ele>1852</ele>
        <time>2022-08-16T10:20:09Z</time>
      </trkpt>
      <trkpt lat="45.77348" lon="6.66677">
        <ele>1852</ele>
        <time>2022-08-16T10:20:10Z</time>
      </trkpt>
      <trkpt lat="45.77348" lon="6.66679">
        <ele>1852</ele>
        <time>2022-08-16T10:20:11Z</time>
      </trkpt>
      <trkpt lat="45.77349" lon="6.66682">
        <ele>1852</ele>
        <time>2022-08-16T10:20:12Z</time>
      </trkpt>
      <trkpt lat="45.77349" lon="6.66685">
        <ele>1852</ele>
        <time>2022-08-16T10:20:13Z</time>
      </trkpt>
      <trkpt lat="45.77349" lon="6.66688">
        <ele>1852</ele>
        <time>2022-08-16T10:20:14Z</time>
      </trkpt>
      <trkpt lat="45.77349" lon="6.6669">
        <ele>1853</ele>
        <time>2022-08-16T10:20:15Z</time>
      </trkpt>
      <trkpt lat="45.77349" lon="6.66693">
        <ele>1853</ele>
        <time>2022-08-16T10:20:16Z</time>
      </trkpt>
      <trkpt lat="45.77348" lon="6.66697">
        <ele>1853</ele>
        <time>2022-08-16T10:20:17Z</time>
      </trkpt>
      <trkpt lat="45.77348" lon="6.667">
        <ele>1853</ele>
        <time>2022-08-16T10:20:18Z</time>
      </trkpt>
      <trkpt lat="45.77348" lon="6.66704">
        <ele>1854</ele>
        <time>2022-08-16T10:20:19Z</time>
      </trkpt>
      <trkpt lat="45.77348" lon="6.66707">
        <ele>1854</ele>
        <time>2022-08-16T10:20:20Z</time>
      </trkpt>
      <trkpt lat="45.77348" lon="6.6671">
        <ele>1854</ele>
        <time>2022-08-16T10:20:21Z</time>
      </trkpt>
      <trkpt lat="45.77348" lon="6.66714">
        <ele>1854</ele>
        <time>2022-08-16T10:20:22Z</time>
      </trkpt>
      <trkpt lat="45.77348" lon="6.66717">
        <ele>1855</ele>
        <time>2022-08-16T10:20:23Z</time>
      </trkpt>
      <trkpt lat="45.77348" lon="6.6672">
        <ele>1855</ele>
        <time>2022-08-16T10:20:24Z</time>
      </trkpt>
      <trkpt lat="45.77348" lon="6.66724">
        <ele>1855</ele>
        <time>2022-08-16T10:20:25Z</time>
      </trkpt>
      <trkpt lat="45.77347" lon="6.66727">
        <ele>1855</ele>
        <time>2022-08-16T10:20:26Z</time>
      </trkpt>
      <trkpt lat="45.77347" lon="6.6673">
        <ele>1856</ele>
        <time>2022-08-16T10:20:27Z</time>
      </trkpt>
      <trkpt lat="45.77346" lon="6.66733">
        <ele>1856</ele>
        <time>2022-08-16T10:20:28Z</time>
      </trkpt>
      <trkpt lat="45.77345" lon="6.66736">
        <ele>1856</ele>
        <time>2022-08-16T10:20:29Z</time>
      </trkpt>
      <trkpt lat="45.77345" lon="6.66739">
        <ele>1856</ele>
        <time>2022-08-16T10:20:30Z</time>
      </trkpt>
      <trkpt lat="45.77344" lon="6.66742">
        <ele>1856</ele>
        <time>2022-08-16T10:20:31Z</time>
      </trkpt>
      <trkpt lat="45.77343" lon="6.66745">
        <ele>1857</ele>
        <time>2022-08-16T10:20:32Z</time>
      </trkpt>
      <trkpt lat="45.77343" lon="6.66748">
        <ele>1856</ele>
        <time>2022-08-16T10:20:33Z</time>
      </trkpt>
      <trkpt lat="45.77342" lon="6.66751">
        <ele>1857</ele>
        <time>2022-08-16T10:20:34Z</time>
      </trkpt>
      <trkpt lat="45.77341" lon="6.66755">
        <ele>1857</ele>
        <time>2022-08-16T10:20:35Z</time>
      </trkpt>
      <trkpt lat="45.7734" lon="6.66758">
        <ele>1857</ele>
        <time>2022-08-16T10:20:36Z</time>
      </trkpt>
      <trkpt lat="45.7734" lon="6.66761">
        <ele>1857</ele>
        <time>2022-08-16T10:20:37Z</time>
      </trkpt>
      <trkpt lat="45.77339" lon="6.66764">
        <ele>1857</ele>
        <time>2022-08-16T10:20:38Z</time>
      </trkpt>
      <trkpt lat="45.77339" lon="6.66767">
        <ele>1857</ele>
        <time>2022-08-16T10:20:39Z</time>
      </trkpt>
      <trkpt lat="45.77338" lon="6.6677">
        <ele>1857</ele>
        <time>2022-08-16T10:20:40Z</time>
      </trkpt>
      <trkpt lat="45.77337" lon="6.66773">
        <ele>1857</ele>
        <time>2022-08-16T10:20:41Z</time>
      </trkpt>
      <trkpt lat="45.77336" lon="6.66776">
        <ele>1858</ele>
        <time>2022-08-16T10:20:42Z</time>
      </trkpt>
      <trkpt lat="45.77335" lon="6.66778">
        <ele>1858</ele>
        <time>2022-08-16T10:20:43Z</time>
      </trkpt>
      <trkpt lat="45.77334" lon="6.66782">
        <ele>1858</ele>
        <time>2022-08-16T10:20:44Z</time>
      </trkpt>
      <trkpt lat="45.77333" lon="6.66785">
        <ele>1858</ele>
        <time>2022-08-16T10:20:45Z</time>
      </trkpt>
      <trkpt lat="45.77333" lon="6.66788">
        <ele>1858</ele>
        <time>2022-08-16T10:20:46Z</time>
      </trkpt>
      <trkpt lat="45.77333" lon="6.66791">
        <ele>1859</ele>
        <time>2022-08-16T10:20:47Z</time>
      </trkpt>
      <trkpt lat="45.77332" lon="6.66794">
        <ele>1858</ele>
        <time>2022-08-16T10:20:48Z</time>
      </trkpt>
      <trkpt lat="45.77333" lon="6.66797">
        <ele>1859</ele>
        <time>2022-08-16T10:20:49Z</time>
      </trkpt>
      <trkpt lat="45.77333" lon="6.66799">
        <ele>1859</ele>
        <time>2022-08-16T10:20:50Z</time>
      </trkpt>
      <trkpt lat="45.77334" lon="6.66802">
        <ele>1858</ele>
        <time>2022-08-16T10:20:51Z</time>
      </trkpt>
      <trkpt lat="45.77335" lon="6.66805">
        <ele>1859</ele>
        <time>2022-08-16T10:20:52Z</time>
      </trkpt>
      <trkpt lat="45.77335" lon="6.66807">
        <ele>1858</ele>
        <time>2022-08-16T10:20:53Z</time>
      </trkpt>
      <trkpt lat="45.77335" lon="6.6681">
        <ele>1858</ele>
        <time>2022-08-16T10:20:54Z</time>
      </trkpt>
      <trkpt lat="45.77336" lon="6.66812">
        <ele>1859</ele>
        <time>2022-08-16T10:20:55Z</time>
      </trkpt>
      <trkpt lat="45.77336" lon="6.66814">
        <ele>1858</ele>
        <time>2022-08-16T10:20:56Z</time>
      </trkpt>
      <trkpt lat="45.77337" lon="6.66814">
        <ele>1858</ele>
        <time>2022-08-16T10:20:57Z</time>
      </trkpt>
      <trkpt lat="45.77337" lon="6.66814">
        <ele>1858</ele>
        <time>2022-08-16T10:20:58Z</time>
      </trkpt>
      <trkpt lat="45.77337" lon="6.66814">
        <ele>1858</ele>
        <time>2022-08-16T10:20:59Z</time>
      </trkpt>
      <trkpt lat="45.77337" lon="6.66814">
        <ele>1859</ele>
        <time>2022-08-16T10:21:00Z</time>
      </trkpt>
      <trkpt lat="45.77337" lon="6.66814">
        <ele>1859</ele>
        <time>2022-08-16T10:21:01Z</time>
      </trkpt>
      <trkpt lat="45.77337" lon="6.66814">
        <ele>1859</ele>
        <time>2022-08-16T10:21:05Z</time>
      </trkpt>
      <trkpt lat="45.77337" lon="6.66813">
        <ele>1859</ele>
        <time>2022-08-16T10:21:09Z</time>
      </trkpt>
      <trkpt lat="45.77337" lon="6.66813">
        <ele>1860</ele>
        <time>2022-08-16T10:21:10Z</time>
      </trkpt>
      <trkpt lat="45.77337" lon="6.66813">
        <ele>1860</ele>
        <time>2022-08-16T10:21:11Z</time>
      </trkpt>
      <trkpt lat="45.77337" lon="6.66813">
        <ele>1860</ele>
        <time>2022-08-16T10:21:12Z</time>
      </trkpt>
      <trkpt lat="45.77337" lon="6.66813">
        <ele>1860</ele>
        <time>2022-08-16T10:21:16Z</time>
      </trkpt>
      <trkpt lat="45.77337" lon="6.66813">
        <ele>1860</ele>
        <time>2022-08-16T10:21:20Z</time>
      </trkpt>
      <trkpt lat="45.77337" lon="6.66813">
        <ele>1860</ele>
        <time>2022-08-16T10:21:24Z</time>
      </trkpt>
      <trkpt lat="45.77337" lon="6.66813">
        <ele>1860</ele>
        <time>2022-08-16T10:21:28Z</time>
      </trkpt>
      <trkpt lat="45.77337" lon="6.66813">
        <ele>1860</ele>
        <time>2022-08-16T10:21:32Z</time>
      </trkpt>
      <trkpt lat="45.77337" lon="6.66813">
        <ele>1860</ele>
        <time>2022-08-16T10:21:36Z</time>
      </trkpt>
      <trkpt lat="45.77337" lon="6.66813">
        <ele>1860</ele>
        <time>2022-08-16T10:21:40Z</time>
      </trkpt>
      <trkpt lat="45.77336" lon="6.66813">
        <ele>1860</ele>
        <time>2022-08-16T10:21:42Z</time>
      </trkpt>
      <trkpt lat="45.77336" lon="6.66813">
        <ele>1860</ele>
        <time>2022-08-16T10:21:43Z</time>
      </trkpt>
      <trkpt lat="45.77336" lon="6.66813">
        <ele>1861</ele>
        <time>2022-08-16T10:21:44Z</time>
      </trkpt>
      <trkpt lat="45.77336" lon="6.66813">
        <ele>1861</ele>
        <time>2022-08-16T10:21:45Z</time>
      </trkpt>
      <trkpt lat="45.77336" lon="6.66813">
        <ele>1861</ele>
        <time>2022-08-16T10:21:46Z</time>
      </trkpt>
      <trkpt lat="45.77337" lon="6.66813">
        <ele>1860</ele>
        <time>2022-08-16T10:21:49Z</time>
      </trkpt>
      <trkpt lat="45.77338" lon="6.66815">
        <ele>1860</ele>
        <time>2022-08-16T10:21:50Z</time>
      </trkpt>
      <trkpt lat="45.77339" lon="6.66815">
        <ele>1860</ele>
        <time>2022-08-16T10:21:51Z</time>
      </trkpt>
      <trkpt lat="45.7734" lon="6.66815">
        <ele>1860</ele>
        <time>2022-08-16T10:21:52Z</time>
      </trkpt>
      <trkpt lat="45.7734" lon="6.66814">
        <ele>1860</ele>
        <time>2022-08-16T10:21:53Z</time>
      </trkpt>
      <trkpt lat="45.77341" lon="6.66814">
        <ele>1859</ele>
        <time>2022-08-16T10:21:54Z</time>
      </trkpt>
      <trkpt lat="45.77343" lon="6.66814">
        <ele>1859</ele>
        <time>2022-08-16T10:21:55Z</time>
      </trkpt>
      <trkpt lat="45.77345" lon="6.66814">
        <ele>1859</ele>
        <time>2022-08-16T10:21:56Z</time>
      </trkpt>
      <trkpt lat="45.77346" lon="6.66815">
        <ele>1859</ele>
        <time>2022-08-16T10:21:57Z</time>
      </trkpt>
      <trkpt lat="45.77347" lon="6.66815">
        <ele>1858</ele>
        <time>2022-08-16T10:21:58Z</time>
      </trkpt>
      <trkpt lat="45.77349" lon="6.66814">
        <ele>1858</ele>
        <time>2022-08-16T10:21:59Z</time>
      </trkpt>
      <trkpt lat="45.77351" lon="6.66813">
        <ele>1858</ele>
        <time>2022-08-16T10:22:00Z</time>
      </trkpt>
      <trkpt lat="45.77352" lon="6.6681">
        <ele>1858</ele>
        <time>2022-08-16T10:22:01Z</time>
      </trkpt>
      <trkpt lat="45.77354" lon="6.66807">
        <ele>1858</ele>
        <time>2022-08-16T10:22:02Z</time>
      </trkpt>
      <trkpt lat="45.77355" lon="6.66805">
        <ele>1858</ele>
        <time>2022-08-16T10:22:03Z</time>
      </trkpt>
      <trkpt lat="45.77356" lon="6.66802">
        <ele>1858</ele>
        <time>2022-08-16T10:22:04Z</time>
      </trkpt>
      <trkpt lat="45.77357" lon="6.66799">
        <ele>1858</ele>
        <time>2022-08-16T10:22:05Z</time>
      </trkpt>
      <trkpt lat="45.77359" lon="6.66796">
        <ele>1858</ele>
        <time>2022-08-16T10:22:06Z</time>
      </trkpt>
      <trkpt lat="45.7736" lon="6.66792">
        <ele>1858</ele>
        <time>2022-08-16T10:22:07Z</time>
      </trkpt>
      <trkpt lat="45.77361" lon="6.66789">
        <ele>1858</ele>
        <time>2022-08-16T10:22:08Z</time>
      </trkpt>
      <trkpt lat="45.77362" lon="6.66786">
        <ele>1857</ele>
        <time>2022-08-16T10:22:09Z</time>
      </trkpt>
      <trkpt lat="45.77362" lon="6.66783">
        <ele>1857</ele>
        <time>2022-08-16T10:22:10Z</time>
      </trkpt>
      <trkpt lat="45.77363" lon="6.6678">
        <ele>1858</ele>
        <time>2022-08-16T10:22:11Z</time>
      </trkpt>
      <trkpt lat="45.77364" lon="6.66777">
        <ele>1858</ele>
        <time>2022-08-16T10:22:12Z</time>
      </trkpt>
      <trkpt lat="45.77365" lon="6.66774">
        <ele>1858</ele>
        <time>2022-08-16T10:22:13Z</time>
      </trkpt>
      <trkpt lat="45.77366" lon="6.66772">
        <ele>1858</ele>
        <time>2022-08-16T10:22:14Z</time>
      </trkpt>
      <trkpt lat="45.77366" lon="6.66769">
        <ele>1858</ele>
        <time>2022-08-16T10:22:15Z</time>
      </trkpt>
      <trkpt lat="45.77367" lon="6.66767">
        <ele>1858</ele>
        <time>2022-08-16T10:22:16Z</time>
      </trkpt>
      <trkpt lat="45.77368" lon="6.66765">
        <ele>1858</ele>
        <time>2022-08-16T10:22:17Z</time>
      </trkpt>
      <trkpt lat="45.77369" lon="6.66763">
        <ele>1858</ele>
        <time>2022-08-16T10:22:18Z</time>
      </trkpt>
      <trkpt lat="45.7737" lon="6.6676">
        <ele>1858</ele>
        <time>2022-08-16T10:22:19Z</time>
      </trkpt>
      <trkpt lat="45.7737" lon="6.66757">
        <ele>1858</ele>
        <time>2022-08-16T10:22:20Z</time>
      </trkpt>
      <trkpt lat="45.77371" lon="6.66755">
        <ele>1859</ele>
        <time>2022-08-16T10:22:21Z</time>
      </trkpt>
      <trkpt lat="45.77371" lon="6.66752">
        <ele>1859</ele>
        <time>2022-08-16T10:22:22Z</time>
      </trkpt>
      <trkpt lat="45.77372" lon="6.66749">
        <ele>1860</ele>
        <time>2022-08-16T10:22:23Z</time>
      </trkpt>
      <trkpt lat="45.77373" lon="6.66746">
        <ele>1860</ele>
        <time>2022-08-16T10:22:24Z</time>
      </trkpt>
      <trkpt lat="45.77374" lon="6.66744">
        <ele>1861</ele>
        <time>2022-08-16T10:22:25Z</time>
      </trkpt>
      <trkpt lat="45.77375" lon="6.66742">
        <ele>1861</ele>
        <time>2022-08-16T10:22:26Z</time>
      </trkpt>
      <trkpt lat="45.77377" lon="6.66739">
        <ele>1861</ele>
        <time>2022-08-16T10:22:27Z</time>
      </trkpt>
      <trkpt lat="45.77378" lon="6.66736">
        <ele>1861</ele>
        <time>2022-08-16T10:22:28Z</time>
      </trkpt>
      <trkpt lat="45.77379" lon="6.66733">
        <ele>1861</ele>
        <time>2022-08-16T10:22:29Z</time>
      </trkpt>
      <trkpt lat="45.77381" lon="6.6673">
        <ele>1861</ele>
        <time>2022-08-16T10:22:30Z</time>
      </trkpt>
      <trkpt lat="45.77382" lon="6.66728">
        <ele>1861</ele>
        <time>2022-08-16T10:22:31Z</time>
      </trkpt>
      <trkpt lat="45.77383" lon="6.66725">
        <ele>1862</ele>
        <time>2022-08-16T10:22:32Z</time>
      </trkpt>
      <trkpt lat="45.77384" lon="6.66723">
        <ele>1862</ele>
        <time>2022-08-16T10:22:33Z</time>
      </trkpt>
      <trkpt lat="45.77385" lon="6.66721">
        <ele>1862</ele>
        <time>2022-08-16T10:22:34Z</time>
      </trkpt>
      <trkpt lat="45.77386" lon="6.66719">
        <ele>1862</ele>
        <time>2022-08-16T10:22:35Z</time>
      </trkpt>
      <trkpt lat="45.77388" lon="6.66717">
        <ele>1863</ele>
        <time>2022-08-16T10:22:36Z</time>
      </trkpt>
      <trkpt lat="45.77389" lon="6.66715">
        <ele>1863</ele>
        <time>2022-08-16T10:22:37Z</time>
      </trkpt>
      <trkpt lat="45.77391" lon="6.66712">
        <ele>1862</ele>
        <time>2022-08-16T10:22:38Z</time>
      </trkpt>
      <trkpt lat="45.77393" lon="6.6671">
        <ele>1862</ele>
        <time>2022-08-16T10:22:39Z</time>
      </trkpt>
      <trkpt lat="45.77394" lon="6.66707">
        <ele>1862</ele>
        <time>2022-08-16T10:22:40Z</time>
      </trkpt>
      <trkpt lat="45.77396" lon="6.66705">
        <ele>1862</ele>
        <time>2022-08-16T10:22:41Z</time>
      </trkpt>
      <trkpt lat="45.77397" lon="6.66703">
        <ele>1862</ele>
        <time>2022-08-16T10:22:42Z</time>
      </trkpt>
      <trkpt lat="45.77398" lon="6.667">
        <ele>1862</ele>
        <time>2022-08-16T10:22:43Z</time>
      </trkpt>
      <trkpt lat="45.77399" lon="6.66698">
        <ele>1862</ele>
        <time>2022-08-16T10:22:44Z</time>
      </trkpt>
      <trkpt lat="45.774" lon="6.66696">
        <ele>1863</ele>
        <time>2022-08-16T10:22:45Z</time>
      </trkpt>
      <trkpt lat="45.77401" lon="6.66693">
        <ele>1863</ele>
        <time>2022-08-16T10:22:46Z</time>
      </trkpt>
      <trkpt lat="45.77402" lon="6.66692">
        <ele>1863</ele>
        <time>2022-08-16T10:22:47Z</time>
      </trkpt>
      <trkpt lat="45.77404" lon="6.6669">
        <ele>1864</ele>
        <time>2022-08-16T10:22:48Z</time>
      </trkpt>
      <trkpt lat="45.77405" lon="6.66687">
        <ele>1864</ele>
        <time>2022-08-16T10:22:49Z</time>
      </trkpt>
      <trkpt lat="45.77406" lon="6.66684">
        <ele>1864</ele>
        <time>2022-08-16T10:22:50Z</time>
      </trkpt>
      <trkpt lat="45.77407" lon="6.66682">
        <ele>1864</ele>
        <time>2022-08-16T10:22:51Z</time>
      </trkpt>
      <trkpt lat="45.77408" lon="6.6668">
        <ele>1863</ele>
        <time>2022-08-16T10:22:52Z</time>
      </trkpt>
      <trkpt lat="45.7741" lon="6.66678">
        <ele>1864</ele>
        <time>2022-08-16T10:22:53Z</time>
      </trkpt>
      <trkpt lat="45.77411" lon="6.66677">
        <ele>1863</ele>
        <time>2022-08-16T10:22:54Z</time>
      </trkpt>
      <trkpt lat="45.77413" lon="6.66676">
        <ele>1863</ele>
        <time>2022-08-16T10:22:55Z</time>
      </trkpt>
      <trkpt lat="45.77414" lon="6.66674">
        <ele>1864</ele>
        <time>2022-08-16T10:22:56Z</time>
      </trkpt>
      <trkpt lat="45.77415" lon="6.66672">
        <ele>1864</ele>
        <time>2022-08-16T10:22:57Z</time>
      </trkpt>
      <trkpt lat="45.77417" lon="6.66671">
        <ele>1864</ele>
        <time>2022-08-16T10:22:58Z</time>
      </trkpt>
      <trkpt lat="45.77418" lon="6.66669">
        <ele>1864</ele>
        <time>2022-08-16T10:22:59Z</time>
      </trkpt>
      <trkpt lat="45.7742" lon="6.66669">
        <ele>1864</ele>
        <time>2022-08-16T10:23:00Z</time>
      </trkpt>
      <trkpt lat="45.77422" lon="6.6667">
        <ele>1865</ele>
        <time>2022-08-16T10:23:01Z</time>
      </trkpt>
      <trkpt lat="45.77424" lon="6.66673">
        <ele>1865</ele>
        <time>2022-08-16T10:23:02Z</time>
      </trkpt>
      <trkpt lat="45.77424" lon="6.66676">
        <ele>1865</ele>
        <time>2022-08-16T10:23:03Z</time>
      </trkpt>
      <trkpt lat="45.77425" lon="6.66679">
        <ele>1865</ele>
        <time>2022-08-16T10:23:04Z</time>
      </trkpt>
      <trkpt lat="45.77425" lon="6.66681">
        <ele>1866</ele>
        <time>2022-08-16T10:23:05Z</time>
      </trkpt>
      <trkpt lat="45.77424" lon="6.66683">
        <ele>1867</ele>
        <time>2022-08-16T10:23:06Z</time>
      </trkpt>
      <trkpt lat="45.77424" lon="6.66685">
        <ele>1867</ele>
        <time>2022-08-16T10:23:07Z</time>
      </trkpt>
      <trkpt lat="45.77424" lon="6.66686">
        <ele>1867</ele>
        <time>2022-08-16T10:23:08Z</time>
      </trkpt>
      <trkpt lat="45.77424" lon="6.66687">
        <ele>1868</ele>
        <time>2022-08-16T10:23:09Z</time>
      </trkpt>
      <trkpt lat="45.77424" lon="6.66687">
        <ele>1868</ele>
        <time>2022-08-16T10:23:10Z</time>
      </trkpt>
      <trkpt lat="45.77424" lon="6.66687">
        <ele>1868</ele>
        <time>2022-08-16T10:23:11Z</time>
      </trkpt>
      <trkpt lat="45.77424" lon="6.66687">
        <ele>1868</ele>
        <time>2022-08-16T10:23:15Z</time>
      </trkpt>
      <trkpt lat="45.77425" lon="6.66687">
        <ele>1869</ele>
        <time>2022-08-16T10:23:17Z</time>
      </trkpt>
      <trkpt lat="45.77425" lon="6.66687">
        <ele>1869</ele>
        <time>2022-08-16T10:23:18Z</time>
      </trkpt>
      <trkpt lat="45.77425" lon="6.66687">
        <ele>1868</ele>
        <time>2022-08-16T10:23:19Z</time>
      </trkpt>
      <trkpt lat="45.77425" lon="6.66687">
        <ele>1868</ele>
        <time>2022-08-16T10:23:20Z</time>
      </trkpt>
      <trkpt lat="45.77425" lon="6.66688">
        <ele>1868</ele>
        <time>2022-08-16T10:23:21Z</time>
      </trkpt>
      <trkpt lat="45.77425" lon="6.66688">
        <ele>1868</ele>
        <time>2022-08-16T10:23:25Z</time>
      </trkpt>
      <trkpt lat="45.77424" lon="6.66687">
        <ele>1868</ele>
        <time>2022-08-16T10:23:27Z</time>
      </trkpt>
      <trkpt lat="45.77424" lon="6.66686">
        <ele>1868</ele>
        <time>2022-08-16T10:23:28Z</time>
      </trkpt>
      <trkpt lat="45.77424" lon="6.66686">
        <ele>1868</ele>
        <time>2022-08-16T10:23:29Z</time>
      </trkpt>
      <trkpt lat="45.77424" lon="6.66686">
        <ele>1867</ele>
        <time>2022-08-16T10:23:30Z</time>
      </trkpt>
      <trkpt lat="45.77423" lon="6.66688">
        <ele>1868</ele>
        <time>2022-08-16T10:23:31Z</time>
      </trkpt>
      <trkpt lat="45.77423" lon="6.66689">
        <ele>1868</ele>
        <time>2022-08-16T10:23:32Z</time>
      </trkpt>
      <trkpt lat="45.77422" lon="6.66692">
        <ele>1868</ele>
        <time>2022-08-16T10:23:33Z</time>
      </trkpt>
      <trkpt lat="45.77421" lon="6.66695">
        <ele>1868</ele>
        <time>2022-08-16T10:23:34Z</time>
      </trkpt>
      <trkpt lat="45.7742" lon="6.66697">
        <ele>1868</ele>
        <time>2022-08-16T10:23:35Z</time>
      </trkpt>
      <trkpt lat="45.77419" lon="6.667">
        <ele>1869</ele>
        <time>2022-08-16T10:23:36Z</time>
      </trkpt>
      <trkpt lat="45.77419" lon="6.66702">
        <ele>1869</ele>
        <time>2022-08-16T10:23:37Z</time>
      </trkpt>
      <trkpt lat="45.77418" lon="6.66705">
        <ele>1869</ele>
        <time>2022-08-16T10:23:38Z</time>
      </trkpt>
      <trkpt lat="45.77417" lon="6.66708">
        <ele>1870</ele>
        <time>2022-08-16T10:23:39Z</time>
      </trkpt>
      <trkpt lat="45.77417" lon="6.66711">
        <ele>1870</ele>
        <time>2022-08-16T10:23:40Z</time>
      </trkpt>
      <trkpt lat="45.77416" lon="6.66713">
        <ele>1871</ele>
        <time>2022-08-16T10:23:41Z</time>
      </trkpt>
      <trkpt lat="45.77416" lon="6.66716">
        <ele>1871</ele>
        <time>2022-08-16T10:23:42Z</time>
      </trkpt>
      <trkpt lat="45.77415" lon="6.66719">
        <ele>1872</ele>
        <time>2022-08-16T10:23:43Z</time>
      </trkpt>
      <trkpt lat="45.77415" lon="6.66722">
        <ele>1872</ele>
        <time>2022-08-16T10:23:44Z</time>
      </trkpt>
      <trkpt lat="45.77414" lon="6.66724">
        <ele>1873</ele>
        <time>2022-08-16T10:23:45Z</time>
      </trkpt>
      <trkpt lat="45.77413" lon="6.66727">
        <ele>1873</ele>
        <time>2022-08-16T10:23:46Z</time>
      </trkpt>
      <trkpt lat="45.77413" lon="6.66729">
        <ele>1873</ele>
        <time>2022-08-16T10:23:47Z</time>
      </trkpt>
      <trkpt lat="45.77412" lon="6.66732">
        <ele>1873</ele>
        <time>2022-08-16T10:23:48Z</time>
      </trkpt>
      <trkpt lat="45.77412" lon="6.66735">
        <ele>1873</ele>
        <time>2022-08-16T10:23:49Z</time>
      </trkpt>
      <trkpt lat="45.77411" lon="6.66738">
        <ele>1873</ele>
        <time>2022-08-16T10:23:50Z</time>
      </trkpt>
      <trkpt lat="45.77411" lon="6.66741">
        <ele>1874</ele>
        <time>2022-08-16T10:23:51Z</time>
      </trkpt>
      <trkpt lat="45.77411" lon="6.66744">
        <ele>1874</ele>
        <time>2022-08-16T10:23:52Z</time>
      </trkpt>
      <trkpt lat="45.77411" lon="6.66747">
        <ele>1874</ele>
        <time>2022-08-16T10:23:53Z</time>
      </trkpt>
      <trkpt lat="45.77411" lon="6.6675">
        <ele>1874</ele>
        <time>2022-08-16T10:23:54Z</time>
      </trkpt>
      <trkpt lat="45.7741" lon="6.66753">
        <ele>1874</ele>
        <time>2022-08-16T10:23:55Z</time>
      </trkpt>
      <trkpt lat="45.7741" lon="6.66756">
        <ele>1875</ele>
        <time>2022-08-16T10:23:56Z</time>
      </trkpt>
      <trkpt lat="45.7741" lon="6.66759">
        <ele>1875</ele>
        <time>2022-08-16T10:23:57Z</time>
      </trkpt>
      <trkpt lat="45.77409" lon="6.66762">
        <ele>1875</ele>
        <time>2022-08-16T10:23:58Z</time>
      </trkpt>
      <trkpt lat="45.77409" lon="6.66766">
        <ele>1876</ele>
        <time>2022-08-16T10:23:59Z</time>
      </trkpt>
      <trkpt lat="45.77408" lon="6.66769">
        <ele>1877</ele>
        <time>2022-08-16T10:24:00Z</time>
      </trkpt>
      <trkpt lat="45.77408" lon="6.66772">
        <ele>1877</ele>
        <time>2022-08-16T10:24:01Z</time>
      </trkpt>
      <trkpt lat="45.77407" lon="6.66776">
        <ele>1877</ele>
        <time>2022-08-16T10:24:02Z</time>
      </trkpt>
      <trkpt lat="45.77407" lon="6.66779">
        <ele>1877</ele>
        <time>2022-08-16T10:24:03Z</time>
      </trkpt>
      <trkpt lat="45.77407" lon="6.66783">
        <ele>1878</ele>
        <time>2022-08-16T10:24:04Z</time>
      </trkpt>
      <trkpt lat="45.77406" lon="6.66786">
        <ele>1878</ele>
        <time>2022-08-16T10:24:05Z</time>
      </trkpt>
      <trkpt lat="45.77406" lon="6.6679">
        <ele>1879</ele>
        <time>2022-08-16T10:24:06Z</time>
      </trkpt>
      <trkpt lat="45.77406" lon="6.66793">
        <ele>1879</ele>
        <time>2022-08-16T10:24:07Z</time>
      </trkpt>
      <trkpt lat="45.77405" lon="6.66797">
        <ele>1879</ele>
        <time>2022-08-16T10:24:08Z</time>
      </trkpt>
      <trkpt lat="45.77405" lon="6.668">
        <ele>1879</ele>
        <time>2022-08-16T10:24:09Z</time>
      </trkpt>
      <trkpt lat="45.77405" lon="6.66803">
        <ele>1880</ele>
        <time>2022-08-16T10:24:10Z</time>
      </trkpt>
      <trkpt lat="45.77405" lon="6.66806">
        <ele>1879</ele>
        <time>2022-08-16T10:24:11Z</time>
      </trkpt>
      <trkpt lat="45.77404" lon="6.66809">
        <ele>1880</ele>
        <time>2022-08-16T10:24:12Z</time>
      </trkpt>
      <trkpt lat="45.77403" lon="6.66812">
        <ele>1880</ele>
        <time>2022-08-16T10:24:13Z</time>
      </trkpt>
      <trkpt lat="45.77403" lon="6.66815">
        <ele>1881</ele>
        <time>2022-08-16T10:24:14Z</time>
      </trkpt>
      <trkpt lat="45.77403" lon="6.66818">
        <ele>1881</ele>
        <time>2022-08-16T10:24:15Z</time>
      </trkpt>
      <trkpt lat="45.77402" lon="6.66822">
        <ele>1881</ele>
        <time>2022-08-16T10:24:16Z</time>
      </trkpt>
      <trkpt lat="45.77402" lon="6.66825">
        <ele>1881</ele>
        <time>2022-08-16T10:24:17Z</time>
      </trkpt>
      <trkpt lat="45.77401" lon="6.66828">
        <ele>1881</ele>
        <time>2022-08-16T10:24:18Z</time>
      </trkpt>
      <trkpt lat="45.774" lon="6.66832">
        <ele>1881</ele>
        <time>2022-08-16T10:24:19Z</time>
      </trkpt>
      <trkpt lat="45.774" lon="6.66836">
        <ele>1881</ele>
        <time>2022-08-16T10:24:20Z</time>
      </trkpt>
      <trkpt lat="45.774" lon="6.66839">
        <ele>1881</ele>
        <time>2022-08-16T10:24:21Z</time>
      </trkpt>
      <trkpt lat="45.774" lon="6.66842">
        <ele>1882</ele>
        <time>2022-08-16T10:24:22Z</time>
      </trkpt>
      <trkpt lat="45.774" lon="6.66845">
        <ele>1882</ele>
        <time>2022-08-16T10:24:23Z</time>
      </trkpt>
      <trkpt lat="45.774" lon="6.66848">
        <ele>1882</ele>
        <time>2022-08-16T10:24:24Z</time>
      </trkpt>
      <trkpt lat="45.77399" lon="6.66852">
        <ele>1883</ele>
        <time>2022-08-16T10:24:25Z</time>
      </trkpt>
      <trkpt lat="45.77399" lon="6.66855">
        <ele>1883</ele>
        <time>2022-08-16T10:24:26Z</time>
      </trkpt>
      <trkpt lat="45.77399" lon="6.66858">
        <ele>1883</ele>
        <time>2022-08-16T10:24:27Z</time>
      </trkpt>
      <trkpt lat="45.77398" lon="6.66861">
        <ele>1884</ele>
        <time>2022-08-16T10:24:28Z</time>
      </trkpt>
      <trkpt lat="45.77398" lon="6.66864">
        <ele>1884</ele>
        <time>2022-08-16T10:24:29Z</time>
      </trkpt>
      <trkpt lat="45.77397" lon="6.66868">
        <ele>1884</ele>
        <time>2022-08-16T10:24:30Z</time>
      </trkpt>
      <trkpt lat="45.77397" lon="6.66871">
        <ele>1884</ele>
        <time>2022-08-16T10:24:31Z</time>
      </trkpt>
      <trkpt lat="45.77397" lon="6.66874">
        <ele>1885</ele>
        <time>2022-08-16T10:24:32Z</time>
      </trkpt>
      <trkpt lat="45.77398" lon="6.66877">
        <ele>1885</ele>
        <time>2022-08-16T10:24:33Z</time>
      </trkpt>
      <trkpt lat="45.77398" lon="6.66879">
        <ele>1885</ele>
        <time>2022-08-16T10:24:34Z</time>
      </trkpt>
      <trkpt lat="45.77398" lon="6.66882">
        <ele>1885</ele>
        <time>2022-08-16T10:24:35Z</time>
      </trkpt>
      <trkpt lat="45.77399" lon="6.66885">
        <ele>1885</ele>
        <time>2022-08-16T10:24:36Z</time>
      </trkpt>
      <trkpt lat="45.774" lon="6.66888">
        <ele>1886</ele>
        <time>2022-08-16T10:24:37Z</time>
      </trkpt>
      <trkpt lat="45.774" lon="6.66891">
        <ele>1886</ele>
        <time>2022-08-16T10:24:38Z</time>
      </trkpt>
      <trkpt lat="45.77401" lon="6.66894">
        <ele>1887</ele>
        <time>2022-08-16T10:24:39Z</time>
      </trkpt>
      <trkpt lat="45.77402" lon="6.66897">
        <ele>1887</ele>
        <time>2022-08-16T10:24:40Z</time>
      </trkpt>
      <trkpt lat="45.77403" lon="6.669">
        <ele>1888</ele>
        <time>2022-08-16T10:24:41Z</time>
      </trkpt>
      <trkpt lat="45.77404" lon="6.66903">
        <ele>1888</ele>
        <time>2022-08-16T10:24:42Z</time>
      </trkpt>
      <trkpt lat="45.77404" lon="6.66906">
        <ele>1888</ele>
        <time>2022-08-16T10:24:43Z</time>
      </trkpt>
      <trkpt lat="45.77405" lon="6.66909">
        <ele>1889</ele>
        <time>2022-08-16T10:24:44Z</time>
      </trkpt>
      <trkpt lat="45.77405" lon="6.66912">
        <ele>1889</ele>
        <time>2022-08-16T10:24:45Z</time>
      </trkpt>
      <trkpt lat="45.77406" lon="6.66915">
        <ele>1889</ele>
        <time>2022-08-16T10:24:46Z</time>
      </trkpt>
      <trkpt lat="45.77407" lon="6.66918">
        <ele>1889</ele>
        <time>2022-08-16T10:24:47Z</time>
      </trkpt>
      <trkpt lat="45.77407" lon="6.6692">
        <ele>1889</ele>
        <time>2022-08-16T10:24:48Z</time>
      </trkpt>
      <trkpt lat="45.77408" lon="6.66922">
        <ele>1889</ele>
        <time>2022-08-16T10:24:49Z</time>
      </trkpt>
      <trkpt lat="45.77408" lon="6.66925">
        <ele>1889</ele>
        <time>2022-08-16T10:24:50Z</time>
      </trkpt>
      <trkpt lat="45.77408" lon="6.66928">
        <ele>1889</ele>
        <time>2022-08-16T10:24:51Z</time>
      </trkpt>
      <trkpt lat="45.77409" lon="6.6693">
        <ele>1889</ele>
        <time>2022-08-16T10:24:52Z</time>
      </trkpt>
      <trkpt lat="45.7741" lon="6.66933">
        <ele>1889</ele>
        <time>2022-08-16T10:24:53Z</time>
      </trkpt>
      <trkpt lat="45.77411" lon="6.66936">
        <ele>1889</ele>
        <time>2022-08-16T10:24:54Z</time>
      </trkpt>
      <trkpt lat="45.77411" lon="6.66939">
        <ele>1889</ele>
        <time>2022-08-16T10:24:55Z</time>
      </trkpt>
      <trkpt lat="45.77411" lon="6.66942">
        <ele>1889</ele>
        <time>2022-08-16T10:24:56Z</time>
      </trkpt>
      <trkpt lat="45.77411" lon="6.66945">
        <ele>1889</ele>
        <time>2022-08-16T10:24:57Z</time>
      </trkpt>
      <trkpt lat="45.77412" lon="6.66948">
        <ele>1889</ele>
        <time>2022-08-16T10:24:58Z</time>
      </trkpt>
      <trkpt lat="45.77412" lon="6.66951">
        <ele>1890</ele>
        <time>2022-08-16T10:24:59Z</time>
      </trkpt>
      <trkpt lat="45.77413" lon="6.66953">
        <ele>1890</ele>
        <time>2022-08-16T10:25:00Z</time>
      </trkpt>
      <trkpt lat="45.77413" lon="6.66956">
        <ele>1890</ele>
        <time>2022-08-16T10:25:01Z</time>
      </trkpt>
      <trkpt lat="45.77413" lon="6.66958">
        <ele>1890</ele>
        <time>2022-08-16T10:25:02Z</time>
      </trkpt>
      <trkpt lat="45.77414" lon="6.66961">
        <ele>1890</ele>
        <time>2022-08-16T10:25:03Z</time>
      </trkpt>
      <trkpt lat="45.77414" lon="6.66964">
        <ele>1890</ele>
        <time>2022-08-16T10:25:04Z</time>
      </trkpt>
      <trkpt lat="45.77415" lon="6.66966">
        <ele>1890</ele>
        <time>2022-08-16T10:25:05Z</time>
      </trkpt>
      <trkpt lat="45.77416" lon="6.66968">
        <ele>1890</ele>
        <time>2022-08-16T10:25:06Z</time>
      </trkpt>
      <trkpt lat="45.77416" lon="6.66971">
        <ele>1890</ele>
        <time>2022-08-16T10:25:07Z</time>
      </trkpt>
      <trkpt lat="45.77417" lon="6.66974">
        <ele>1889</ele>
        <time>2022-08-16T10:25:08Z</time>
      </trkpt>
      <trkpt lat="45.77417" lon="6.66977">
        <ele>1889</ele>
        <time>2022-08-16T10:25:09Z</time>
      </trkpt>
      <trkpt lat="45.77418" lon="6.66979">
        <ele>1889</ele>
        <time>2022-08-16T10:25:10Z</time>
      </trkpt>
      <trkpt lat="45.77418" lon="6.66983">
        <ele>1889</ele>
        <time>2022-08-16T10:25:11Z</time>
      </trkpt>
      <trkpt lat="45.77419" lon="6.66985">
        <ele>1890</ele>
        <time>2022-08-16T10:25:12Z</time>
      </trkpt>
      <trkpt lat="45.77419" lon="6.66989">
        <ele>1890</ele>
        <time>2022-08-16T10:25:13Z</time>
      </trkpt>
      <trkpt lat="45.7742" lon="6.66991">
        <ele>1890</ele>
        <time>2022-08-16T10:25:14Z</time>
      </trkpt>
      <trkpt lat="45.77421" lon="6.66993">
        <ele>1890</ele>
        <time>2022-08-16T10:25:15Z</time>
      </trkpt>
      <trkpt lat="45.77422" lon="6.66996">
        <ele>1891</ele>
        <time>2022-08-16T10:25:16Z</time>
      </trkpt>
      <trkpt lat="45.77423" lon="6.66999">
        <ele>1891</ele>
        <time>2022-08-16T10:25:17Z</time>
      </trkpt>
      <trkpt lat="45.77424" lon="6.67001">
        <ele>1890</ele>
        <time>2022-08-16T10:25:18Z</time>
      </trkpt>
      <trkpt lat="45.77425" lon="6.67004">
        <ele>1891</ele>
        <time>2022-08-16T10:25:19Z</time>
      </trkpt>
      <trkpt lat="45.77426" lon="6.67006">
        <ele>1890</ele>
        <time>2022-08-16T10:25:20Z</time>
      </trkpt>
      <trkpt lat="45.77427" lon="6.67009">
        <ele>1891</ele>
        <time>2022-08-16T10:25:21Z</time>
      </trkpt>
      <trkpt lat="45.77428" lon="6.67011">
        <ele>1891</ele>
        <time>2022-08-16T10:25:22Z</time>
      </trkpt>
      <trkpt lat="45.77429" lon="6.67014">
        <ele>1891</ele>
        <time>2022-08-16T10:25:23Z</time>
      </trkpt>
      <trkpt lat="45.7743" lon="6.67016">
        <ele>1891</ele>
        <time>2022-08-16T10:25:24Z</time>
      </trkpt>
      <trkpt lat="45.77431" lon="6.67018">
        <ele>1891</ele>
        <time>2022-08-16T10:25:25Z</time>
      </trkpt>
      <trkpt lat="45.77431" lon="6.6702">
        <ele>1891</ele>
        <time>2022-08-16T10:25:26Z</time>
      </trkpt>
      <trkpt lat="45.77433" lon="6.67023">
        <ele>1891</ele>
        <time>2022-08-16T10:25:27Z</time>
      </trkpt>
      <trkpt lat="45.77434" lon="6.67025">
        <ele>1891</ele>
        <time>2022-08-16T10:25:28Z</time>
      </trkpt>
      <trkpt lat="45.77435" lon="6.67027">
        <ele>1892</ele>
        <time>2022-08-16T10:25:29Z</time>
      </trkpt>
      <trkpt lat="45.77436" lon="6.6703">
        <ele>1892</ele>
        <time>2022-08-16T10:25:30Z</time>
      </trkpt>
      <trkpt lat="45.77437" lon="6.67032">
        <ele>1893</ele>
        <time>2022-08-16T10:25:31Z</time>
      </trkpt>
      <trkpt lat="45.77437" lon="6.67035">
        <ele>1893</ele>
        <time>2022-08-16T10:25:32Z</time>
      </trkpt>
      <trkpt lat="45.77438" lon="6.67037">
        <ele>1894</ele>
        <time>2022-08-16T10:25:33Z</time>
      </trkpt>
      <trkpt lat="45.77439" lon="6.6704">
        <ele>1894</ele>
        <time>2022-08-16T10:25:34Z</time>
      </trkpt>
      <trkpt lat="45.7744" lon="6.67042">
        <ele>1894</ele>
        <time>2022-08-16T10:25:35Z</time>
      </trkpt>
      <trkpt lat="45.77441" lon="6.67045">
        <ele>1895</ele>
        <time>2022-08-16T10:25:36Z</time>
      </trkpt>
      <trkpt lat="45.77442" lon="6.67048">
        <ele>1895</ele>
        <time>2022-08-16T10:25:37Z</time>
      </trkpt>
      <trkpt lat="45.77443" lon="6.6705">
        <ele>1895</ele>
        <time>2022-08-16T10:25:38Z</time>
      </trkpt>
      <trkpt lat="45.77443" lon="6.67052">
        <ele>1895</ele>
        <time>2022-08-16T10:25:39Z</time>
      </trkpt>
      <trkpt lat="45.77445" lon="6.67055">
        <ele>1896</ele>
        <time>2022-08-16T10:25:40Z</time>
      </trkpt>
      <trkpt lat="45.77445" lon="6.67057">
        <ele>1896</ele>
        <time>2022-08-16T10:25:41Z</time>
      </trkpt>
      <trkpt lat="45.77446" lon="6.6706">
        <ele>1896</ele>
        <time>2022-08-16T10:25:42Z</time>
      </trkpt>
      <trkpt lat="45.77446" lon="6.67063">
        <ele>1896</ele>
        <time>2022-08-16T10:25:43Z</time>
      </trkpt>
      <trkpt lat="45.77447" lon="6.67066">
        <ele>1896</ele>
        <time>2022-08-16T10:25:44Z</time>
      </trkpt>
      <trkpt lat="45.77448" lon="6.67069">
        <ele>1896</ele>
        <time>2022-08-16T10:25:45Z</time>
      </trkpt>
      <trkpt lat="45.77449" lon="6.67072">
        <ele>1897</ele>
        <time>2022-08-16T10:25:46Z</time>
      </trkpt>
      <trkpt lat="45.7745" lon="6.67075">
        <ele>1897</ele>
        <time>2022-08-16T10:25:47Z</time>
      </trkpt>
      <trkpt lat="45.77451" lon="6.67078">
        <ele>1897</ele>
        <time>2022-08-16T10:25:48Z</time>
      </trkpt>
      <trkpt lat="45.77451" lon="6.6708">
        <ele>1897</ele>
        <time>2022-08-16T10:25:49Z</time>
      </trkpt>
      <trkpt lat="45.77452" lon="6.67083">
        <ele>1897</ele>
        <time>2022-08-16T10:25:50Z</time>
      </trkpt>
      <trkpt lat="45.77453" lon="6.67086">
        <ele>1898</ele>
        <time>2022-08-16T10:25:51Z</time>
      </trkpt>
      <trkpt lat="45.77454" lon="6.67089">
        <ele>1898</ele>
        <time>2022-08-16T10:25:52Z</time>
      </trkpt>
      <trkpt lat="45.77454" lon="6.67092">
        <ele>1898</ele>
        <time>2022-08-16T10:25:53Z</time>
      </trkpt>
      <trkpt lat="45.77455" lon="6.67095">
        <ele>1898</ele>
        <time>2022-08-16T10:25:54Z</time>
      </trkpt>
      <trkpt lat="45.77455" lon="6.67098">
        <ele>1898</ele>
        <time>2022-08-16T10:25:55Z</time>
      </trkpt>
      <trkpt lat="45.77455" lon="6.67101">
        <ele>1898</ele>
        <time>2022-08-16T10:25:56Z</time>
      </trkpt>
      <trkpt lat="45.77455" lon="6.67104">
        <ele>1898</ele>
        <time>2022-08-16T10:25:57Z</time>
      </trkpt>
      <trkpt lat="45.77455" lon="6.67107">
        <ele>1898</ele>
        <time>2022-08-16T10:25:58Z</time>
      </trkpt>
      <trkpt lat="45.77456" lon="6.6711">
        <ele>1899</ele>
        <time>2022-08-16T10:25:59Z</time>
      </trkpt>
      <trkpt lat="45.77456" lon="6.67113">
        <ele>1899</ele>
        <time>2022-08-16T10:26:00Z</time>
      </trkpt>
      <trkpt lat="45.77456" lon="6.67115">
        <ele>1899</ele>
        <time>2022-08-16T10:26:01Z</time>
      </trkpt>
      <trkpt lat="45.77456" lon="6.67117">
        <ele>1900</ele>
        <time>2022-08-16T10:26:02Z</time>
      </trkpt>
      <trkpt lat="45.77456" lon="6.6712">
        <ele>1900</ele>
        <time>2022-08-16T10:26:03Z</time>
      </trkpt>
      <trkpt lat="45.77456" lon="6.67123">
        <ele>1900</ele>
        <time>2022-08-16T10:26:04Z</time>
      </trkpt>
      <trkpt lat="45.77456" lon="6.67125">
        <ele>1901</ele>
        <time>2022-08-16T10:26:05Z</time>
      </trkpt>
      <trkpt lat="45.77456" lon="6.67127">
        <ele>1901</ele>
        <time>2022-08-16T10:26:06Z</time>
      </trkpt>
      <trkpt lat="45.77456" lon="6.67129">
        <ele>1901</ele>
        <time>2022-08-16T10:26:07Z</time>
      </trkpt>
      <trkpt lat="45.77456" lon="6.67132">
        <ele>1902</ele>
        <time>2022-08-16T10:26:08Z</time>
      </trkpt>
      <trkpt lat="45.77455" lon="6.67134">
        <ele>1902</ele>
        <time>2022-08-16T10:26:09Z</time>
      </trkpt>
      <trkpt lat="45.77456" lon="6.67137">
        <ele>1903</ele>
        <time>2022-08-16T10:26:10Z</time>
      </trkpt>
      <trkpt lat="45.77456" lon="6.67139">
        <ele>1903</ele>
        <time>2022-08-16T10:26:11Z</time>
      </trkpt>
      <trkpt lat="45.77456" lon="6.67141">
        <ele>1903</ele>
        <time>2022-08-16T10:26:12Z</time>
      </trkpt>
      <trkpt lat="45.77456" lon="6.67144">
        <ele>1903</ele>
        <time>2022-08-16T10:26:13Z</time>
      </trkpt>
      <trkpt lat="45.77457" lon="6.67147">
        <ele>1904</ele>
        <time>2022-08-16T10:26:14Z</time>
      </trkpt>
      <trkpt lat="45.77458" lon="6.67149">
        <ele>1904</ele>
        <time>2022-08-16T10:26:15Z</time>
      </trkpt>
      <trkpt lat="45.77458" lon="6.6715">
        <ele>1904</ele>
        <time>2022-08-16T10:26:16Z</time>
      </trkpt>
      <trkpt lat="45.7746" lon="6.67152">
        <ele>1905</ele>
        <time>2022-08-16T10:26:17Z</time>
      </trkpt>
      <trkpt lat="45.77461" lon="6.67153">
        <ele>1905</ele>
        <time>2022-08-16T10:26:18Z</time>
      </trkpt>
      <trkpt lat="45.77462" lon="6.67154">
        <ele>1904</ele>
        <time>2022-08-16T10:26:19Z</time>
      </trkpt>
      <trkpt lat="45.77464" lon="6.67154">
        <ele>1904</ele>
        <time>2022-08-16T10:26:20Z</time>
      </trkpt>
      <trkpt lat="45.77465" lon="6.67154">
        <ele>1904</ele>
        <time>2022-08-16T10:26:21Z</time>
      </trkpt>
      <trkpt lat="45.77466" lon="6.67153">
        <ele>1904</ele>
        <time>2022-08-16T10:26:22Z</time>
      </trkpt>
      <trkpt lat="45.77468" lon="6.67153">
        <ele>1904</ele>
        <time>2022-08-16T10:26:23Z</time>
      </trkpt>
      <trkpt lat="45.77469" lon="6.67152">
        <ele>1904</ele>
        <time>2022-08-16T10:26:24Z</time>
      </trkpt>
      <trkpt lat="45.77471" lon="6.67151">
        <ele>1903</ele>
        <time>2022-08-16T10:26:25Z</time>
      </trkpt>
      <trkpt lat="45.77472" lon="6.67149">
        <ele>1903</ele>
        <time>2022-08-16T10:26:26Z</time>
      </trkpt>
      <trkpt lat="45.77472" lon="6.67147">
        <ele>1903</ele>
        <time>2022-08-16T10:26:27Z</time>
      </trkpt>
      <trkpt lat="45.77473" lon="6.67144">
        <ele>1903</ele>
        <time>2022-08-16T10:26:28Z</time>
      </trkpt>
      <trkpt lat="45.77473" lon="6.67142">
        <ele>1903</ele>
        <time>2022-08-16T10:26:29Z</time>
      </trkpt>
      <trkpt lat="45.77474" lon="6.6714">
        <ele>1903</ele>
        <time>2022-08-16T10:26:30Z</time>
      </trkpt>
      <trkpt lat="45.77474" lon="6.67138">
        <ele>1903</ele>
        <time>2022-08-16T10:26:31Z</time>
      </trkpt>
      <trkpt lat="45.77475" lon="6.67136">
        <ele>1903</ele>
        <time>2022-08-16T10:26:32Z</time>
      </trkpt>
      <trkpt lat="45.77476" lon="6.67132">
        <ele>1903</ele>
        <time>2022-08-16T10:26:33Z</time>
      </trkpt>
      <trkpt lat="45.77477" lon="6.6713">
        <ele>1903</ele>
        <time>2022-08-16T10:26:34Z</time>
      </trkpt>
      <trkpt lat="45.77478" lon="6.67126">
        <ele>1903</ele>
        <time>2022-08-16T10:26:35Z</time>
      </trkpt>
      <trkpt lat="45.77478" lon="6.67123">
        <ele>1903</ele>
        <time>2022-08-16T10:26:36Z</time>
      </trkpt>
      <trkpt lat="45.77479" lon="6.6712">
        <ele>1903</ele>
        <time>2022-08-16T10:26:37Z</time>
      </trkpt>
      <trkpt lat="45.77479" lon="6.67117">
        <ele>1903</ele>
        <time>2022-08-16T10:26:38Z</time>
      </trkpt>
      <trkpt lat="45.77479" lon="6.67115">
        <ele>1903</ele>
        <time>2022-08-16T10:26:39Z</time>
      </trkpt>
      <trkpt lat="45.77479" lon="6.67112">
        <ele>1903</ele>
        <time>2022-08-16T10:26:40Z</time>
      </trkpt>
      <trkpt lat="45.77479" lon="6.67109">
        <ele>1904</ele>
        <time>2022-08-16T10:26:41Z</time>
      </trkpt>
      <trkpt lat="45.77479" lon="6.67106">
        <ele>1904</ele>
        <time>2022-08-16T10:26:42Z</time>
      </trkpt>
      <trkpt lat="45.77479" lon="6.67103">
        <ele>1904</ele>
        <time>2022-08-16T10:26:43Z</time>
      </trkpt>
      <trkpt lat="45.77479" lon="6.671">
        <ele>1904</ele>
        <time>2022-08-16T10:26:44Z</time>
      </trkpt>
      <trkpt lat="45.77479" lon="6.67098">
        <ele>1904</ele>
        <time>2022-08-16T10:26:45Z</time>
      </trkpt>
      <trkpt lat="45.77479" lon="6.67095">
        <ele>1904</ele>
        <time>2022-08-16T10:26:46Z</time>
      </trkpt>
      <trkpt lat="45.77479" lon="6.67092">
        <ele>1903</ele>
        <time>2022-08-16T10:26:47Z</time>
      </trkpt>
      <trkpt lat="45.77479" lon="6.67089">
        <ele>1904</ele>
        <time>2022-08-16T10:26:48Z</time>
      </trkpt>
      <trkpt lat="45.77479" lon="6.67086">
        <ele>1904</ele>
        <time>2022-08-16T10:26:49Z</time>
      </trkpt>
      <trkpt lat="45.77479" lon="6.67083">
        <ele>1904</ele>
        <time>2022-08-16T10:26:50Z</time>
      </trkpt>
      <trkpt lat="45.77479" lon="6.6708">
        <ele>1904</ele>
        <time>2022-08-16T10:26:51Z</time>
      </trkpt>
      <trkpt lat="45.77479" lon="6.67077">
        <ele>1904</ele>
        <time>2022-08-16T10:26:52Z</time>
      </trkpt>
      <trkpt lat="45.77479" lon="6.67074">
        <ele>1904</ele>
        <time>2022-08-16T10:26:53Z</time>
      </trkpt>
      <trkpt lat="45.77479" lon="6.6707">
        <ele>1904</ele>
        <time>2022-08-16T10:26:54Z</time>
      </trkpt>
      <trkpt lat="45.7748" lon="6.67068">
        <ele>1904</ele>
        <time>2022-08-16T10:26:55Z</time>
      </trkpt>
      <trkpt lat="45.7748" lon="6.67066">
        <ele>1904</ele>
        <time>2022-08-16T10:26:56Z</time>
      </trkpt>
      <trkpt lat="45.7748" lon="6.67064">
        <ele>1904</ele>
        <time>2022-08-16T10:26:57Z</time>
      </trkpt>
      <trkpt lat="45.7748" lon="6.67061">
        <ele>1904</ele>
        <time>2022-08-16T10:26:58Z</time>
      </trkpt>
      <trkpt lat="45.7748" lon="6.67059">
        <ele>1904</ele>
        <time>2022-08-16T10:26:59Z</time>
      </trkpt>
      <trkpt lat="45.77481" lon="6.67057">
        <ele>1904</ele>
        <time>2022-08-16T10:27:00Z</time>
      </trkpt>
      <trkpt lat="45.77481" lon="6.67055">
        <ele>1904</ele>
        <time>2022-08-16T10:27:01Z</time>
      </trkpt>
      <trkpt lat="45.77481" lon="6.67053">
        <ele>1905</ele>
        <time>2022-08-16T10:27:02Z</time>
      </trkpt>
      <trkpt lat="45.77481" lon="6.6705">
        <ele>1905</ele>
        <time>2022-08-16T10:27:03Z</time>
      </trkpt>
      <trkpt lat="45.77482" lon="6.67047">
        <ele>1905</ele>
        <time>2022-08-16T10:27:04Z</time>
      </trkpt>
      <trkpt lat="45.77482" lon="6.67044">
        <ele>1906</ele>
        <time>2022-08-16T10:27:05Z</time>
      </trkpt>
      <trkpt lat="45.77483" lon="6.67041">
        <ele>1906</ele>
        <time>2022-08-16T10:27:06Z</time>
      </trkpt>
      <trkpt lat="45.77483" lon="6.67039">
        <ele>1906</ele>
        <time>2022-08-16T10:27:07Z</time>
      </trkpt>
      <trkpt lat="45.77483" lon="6.67037">
        <ele>1906</ele>
        <time>2022-08-16T10:27:08Z</time>
      </trkpt>
      <trkpt lat="45.77484" lon="6.67034">
        <ele>1907</ele>
        <time>2022-08-16T10:27:09Z</time>
      </trkpt>
      <trkpt lat="45.77484" lon="6.67032">
        <ele>1907</ele>
        <time>2022-08-16T10:27:10Z</time>
      </trkpt>
      <trkpt lat="45.77485" lon="6.67028">
        <ele>1907</ele>
        <time>2022-08-16T10:27:11Z</time>
      </trkpt>
      <trkpt lat="45.77486" lon="6.67025">
        <ele>1907</ele>
        <time>2022-08-16T10:27:12Z</time>
      </trkpt>
      <trkpt lat="45.77487" lon="6.67023">
        <ele>1908</ele>
        <time>2022-08-16T10:27:13Z</time>
      </trkpt>
      <trkpt lat="45.77488" lon="6.6702">
        <ele>1908</ele>
        <time>2022-08-16T10:27:14Z</time>
      </trkpt>
      <trkpt lat="45.77488" lon="6.67017">
        <ele>1908</ele>
        <time>2022-08-16T10:27:15Z</time>
      </trkpt>
      <trkpt lat="45.77489" lon="6.67014">
        <ele>1909</ele>
        <time>2022-08-16T10:27:16Z</time>
      </trkpt>
      <trkpt lat="45.77489" lon="6.67012">
        <ele>1909</ele>
        <time>2022-08-16T10:27:17Z</time>
      </trkpt>
      <trkpt lat="45.7749" lon="6.67009">
        <ele>1908</ele>
        <time>2022-08-16T10:27:18Z</time>
      </trkpt>
      <trkpt lat="45.77491" lon="6.67005">
        <ele>1908</ele>
        <time>2022-08-16T10:27:19Z</time>
      </trkpt>
      <trkpt lat="45.77492" lon="6.67002">
        <ele>1908</ele>
        <time>2022-08-16T10:27:20Z</time>
      </trkpt>
      <trkpt lat="45.77493" lon="6.67">
        <ele>1909</ele>
        <time>2022-08-16T10:27:21Z</time>
      </trkpt>
      <trkpt lat="45.77495" lon="6.66997">
        <ele>1908</ele>
        <time>2022-08-16T10:27:22Z</time>
      </trkpt>
      <trkpt lat="45.77496" lon="6.66995">
        <ele>1909</ele>
        <time>2022-08-16T10:27:23Z</time>
      </trkpt>
      <trkpt lat="45.77497" lon="6.66992">
        <ele>1908</ele>
        <time>2022-08-16T10:27:24Z</time>
      </trkpt>
      <trkpt lat="45.77498" lon="6.6699">
        <ele>1909</ele>
        <time>2022-08-16T10:27:25Z</time>
      </trkpt>
      <trkpt lat="45.77499" lon="6.66988">
        <ele>1909</ele>
        <time>2022-08-16T10:27:26Z</time>
      </trkpt>
      <trkpt lat="45.775" lon="6.66985">
        <ele>1909</ele>
        <time>2022-08-16T10:27:27Z</time>
      </trkpt>
      <trkpt lat="45.77501" lon="6.66983">
        <ele>1909</ele>
        <time>2022-08-16T10:27:28Z</time>
      </trkpt>
      <trkpt lat="45.77503" lon="6.6698">
        <ele>1909</ele>
        <time>2022-08-16T10:27:29Z</time>
      </trkpt>
      <trkpt lat="45.77504" lon="6.66978">
        <ele>1910</ele>
        <time>2022-08-16T10:27:30Z</time>
      </trkpt>
      <trkpt lat="45.77506" lon="6.66977">
        <ele>1910</ele>
        <time>2022-08-16T10:27:31Z</time>
      </trkpt>
      <trkpt lat="45.77507" lon="6.66974">
        <ele>1910</ele>
        <time>2022-08-16T10:27:32Z</time>
      </trkpt>
      <trkpt lat="45.77509" lon="6.66972">
        <ele>1910</ele>
        <time>2022-08-16T10:27:33Z</time>
      </trkpt>
      <trkpt lat="45.77511" lon="6.66971">
        <ele>1910</ele>
        <time>2022-08-16T10:27:34Z</time>
      </trkpt>
      <trkpt lat="45.77512" lon="6.66968">
        <ele>1911</ele>
        <time>2022-08-16T10:27:35Z</time>
      </trkpt>
      <trkpt lat="45.77514" lon="6.66966">
        <ele>1911</ele>
        <time>2022-08-16T10:27:36Z</time>
      </trkpt>
      <trkpt lat="45.77516" lon="6.66965">
        <ele>1911</ele>
        <time>2022-08-16T10:27:37Z</time>
      </trkpt>
      <trkpt lat="45.77518" lon="6.66963">
        <ele>1911</ele>
        <time>2022-08-16T10:27:38Z</time>
      </trkpt>
      <trkpt lat="45.77519" lon="6.66962">
        <ele>1911</ele>
        <time>2022-08-16T10:27:39Z</time>
      </trkpt>
      <trkpt lat="45.77521" lon="6.66961">
        <ele>1911</ele>
        <time>2022-08-16T10:27:40Z</time>
      </trkpt>
      <trkpt lat="45.77523" lon="6.6696">
        <ele>1911</ele>
        <time>2022-08-16T10:27:41Z</time>
      </trkpt>
      <trkpt lat="45.77525" lon="6.66959">
        <ele>1911</ele>
        <time>2022-08-16T10:27:42Z</time>
      </trkpt>
      <trkpt lat="45.77528" lon="6.66958">
        <ele>1911</ele>
        <time>2022-08-16T10:27:43Z</time>
      </trkpt>
      <trkpt lat="45.7753" lon="6.66958">
        <ele>1912</ele>
        <time>2022-08-16T10:27:44Z</time>
      </trkpt>
      <trkpt lat="45.77533" lon="6.66957">
        <ele>1912</ele>
        <time>2022-08-16T10:27:45Z</time>
      </trkpt>
      <trkpt lat="45.77535" lon="6.66956">
        <ele>1912</ele>
        <time>2022-08-16T10:27:46Z</time>
      </trkpt>
      <trkpt lat="45.77537" lon="6.66955">
        <ele>1912</ele>
        <time>2022-08-16T10:27:47Z</time>
      </trkpt>
      <trkpt lat="45.77539" lon="6.66954">
        <ele>1912</ele>
        <time>2022-08-16T10:27:48Z</time>
      </trkpt>
      <trkpt lat="45.77542" lon="6.66953">
        <ele>1912</ele>
        <time>2022-08-16T10:27:49Z</time>
      </trkpt>
      <trkpt lat="45.77544" lon="6.66952">
        <ele>1912</ele>
        <time>2022-08-16T10:27:50Z</time>
      </trkpt>
      <trkpt lat="45.77546" lon="6.66951">
        <ele>1913</ele>
        <time>2022-08-16T10:27:51Z</time>
      </trkpt>
      <trkpt lat="45.77548" lon="6.6695">
        <ele>1913</ele>
        <time>2022-08-16T10:27:52Z</time>
      </trkpt>
      <trkpt lat="45.7755" lon="6.66949">
        <ele>1913</ele>
        <time>2022-08-16T10:27:53Z</time>
      </trkpt>
      <trkpt lat="45.77552" lon="6.66947">
        <ele>1913</ele>
        <time>2022-08-16T10:27:54Z</time>
      </trkpt>
      <trkpt lat="45.77554" lon="6.66946">
        <ele>1913</ele>
        <time>2022-08-16T10:27:55Z</time>
      </trkpt>
      <trkpt lat="45.77555" lon="6.66945">
        <ele>1913</ele>
        <time>2022-08-16T10:27:56Z</time>
      </trkpt>
      <trkpt lat="45.77557" lon="6.66944">
        <ele>1913</ele>
        <time>2022-08-16T10:27:57Z</time>
      </trkpt>
      <trkpt lat="45.77559" lon="6.66942">
        <ele>1913</ele>
        <time>2022-08-16T10:27:58Z</time>
      </trkpt>
      <trkpt lat="45.7756" lon="6.6694">
        <ele>1913</ele>
        <time>2022-08-16T10:27:59Z</time>
      </trkpt>
      <trkpt lat="45.77562" lon="6.66938">
        <ele>1913</ele>
        <time>2022-08-16T10:28:00Z</time>
      </trkpt>
      <trkpt lat="45.77563" lon="6.66936">
        <ele>1913</ele>
        <time>2022-08-16T10:28:01Z</time>
      </trkpt>
      <trkpt lat="45.77565" lon="6.66934">
        <ele>1913</ele>
        <time>2022-08-16T10:28:02Z</time>
      </trkpt>
      <trkpt lat="45.77566" lon="6.66932">
        <ele>1914</ele>
        <time>2022-08-16T10:28:03Z</time>
      </trkpt>
      <trkpt lat="45.77568" lon="6.66929">
        <ele>1914</ele>
        <time>2022-08-16T10:28:04Z</time>
      </trkpt>
      <trkpt lat="45.77569" lon="6.66927">
        <ele>1913</ele>
        <time>2022-08-16T10:28:05Z</time>
      </trkpt>
      <trkpt lat="45.7757" lon="6.66925">
        <ele>1913</ele>
        <time>2022-08-16T10:28:06Z</time>
      </trkpt>
      <trkpt lat="45.77572" lon="6.66923">
        <ele>1913</ele>
        <time>2022-08-16T10:28:07Z</time>
      </trkpt>
      <trkpt lat="45.77573" lon="6.66921">
        <ele>1914</ele>
        <time>2022-08-16T10:28:08Z</time>
      </trkpt>
      <trkpt lat="45.77574" lon="6.66919">
        <ele>1914</ele>
        <time>2022-08-16T10:28:09Z</time>
      </trkpt>
      <trkpt lat="45.77576" lon="6.66917">
        <ele>1914</ele>
        <time>2022-08-16T10:28:10Z</time>
      </trkpt>
      <trkpt lat="45.77577" lon="6.66915">
        <ele>1915</ele>
        <time>2022-08-16T10:28:11Z</time>
      </trkpt>
      <trkpt lat="45.77578" lon="6.66913">
        <ele>1915</ele>
        <time>2022-08-16T10:28:12Z</time>
      </trkpt>
      <trkpt lat="45.77579" lon="6.6691">
        <ele>1915</ele>
        <time>2022-08-16T10:28:13Z</time>
      </trkpt>
      <trkpt lat="45.77581" lon="6.66907">
        <ele>1916</ele>
        <time>2022-08-16T10:28:14Z</time>
      </trkpt>
      <trkpt lat="45.77582" lon="6.66905">
        <ele>1916</ele>
        <time>2022-08-16T10:28:15Z</time>
      </trkpt>
      <trkpt lat="45.77583" lon="6.66902">
        <ele>1916</ele>
        <time>2022-08-16T10:28:16Z</time>
      </trkpt>
      <trkpt lat="45.77585" lon="6.669">
        <ele>1916</ele>
        <time>2022-08-16T10:28:17Z</time>
      </trkpt>
      <trkpt lat="45.77586" lon="6.66898">
        <ele>1917</ele>
        <time>2022-08-16T10:28:18Z</time>
      </trkpt>
      <trkpt lat="45.77587" lon="6.66896">
        <ele>1917</ele>
        <time>2022-08-16T10:28:19Z</time>
      </trkpt>
      <trkpt lat="45.77588" lon="6.66893">
        <ele>1917</ele>
        <time>2022-08-16T10:28:20Z</time>
      </trkpt>
      <trkpt lat="45.7759" lon="6.66891">
        <ele>1917</ele>
        <time>2022-08-16T10:28:21Z</time>
      </trkpt>
      <trkpt lat="45.77591" lon="6.66889">
        <ele>1917</ele>
        <time>2022-08-16T10:28:22Z</time>
      </trkpt>
      <trkpt lat="45.77593" lon="6.66887">
        <ele>1918</ele>
        <time>2022-08-16T10:28:23Z</time>
      </trkpt>
      <trkpt lat="45.77594" lon="6.66885">
        <ele>1918</ele>
        <time>2022-08-16T10:28:24Z</time>
      </trkpt>
      <trkpt lat="45.77596" lon="6.66882">
        <ele>1918</ele>
        <time>2022-08-16T10:28:25Z</time>
      </trkpt>
      <trkpt lat="45.77597" lon="6.66879">
        <ele>1918</ele>
        <time>2022-08-16T10:28:26Z</time>
      </trkpt>
      <trkpt lat="45.77599" lon="6.66877">
        <ele>1919</ele>
        <time>2022-08-16T10:28:27Z</time>
      </trkpt>
      <trkpt lat="45.776" lon="6.66875">
        <ele>1919</ele>
        <time>2022-08-16T10:28:28Z</time>
      </trkpt>
      <trkpt lat="45.77601" lon="6.66872">
        <ele>1919</ele>
        <time>2022-08-16T10:28:29Z</time>
      </trkpt>
      <trkpt lat="45.77603" lon="6.6687">
        <ele>1919</ele>
        <time>2022-08-16T10:28:30Z</time>
      </trkpt>
      <trkpt lat="45.77604" lon="6.66868">
        <ele>1919</ele>
        <time>2022-08-16T10:28:31Z</time>
      </trkpt>
      <trkpt lat="45.77605" lon="6.66866">
        <ele>1919</ele>
        <time>2022-08-16T10:28:32Z</time>
      </trkpt>
      <trkpt lat="45.77606" lon="6.66863">
        <ele>1919</ele>
        <time>2022-08-16T10:28:33Z</time>
      </trkpt>
      <trkpt lat="45.77607" lon="6.66861">
        <ele>1920</ele>
        <time>2022-08-16T10:28:34Z</time>
      </trkpt>
      <trkpt lat="45.77608" lon="6.66859">
        <ele>1920</ele>
        <time>2022-08-16T10:28:35Z</time>
      </trkpt>
      <trkpt lat="45.77609" lon="6.66856">
        <ele>1920</ele>
        <time>2022-08-16T10:28:36Z</time>
      </trkpt>
      <trkpt lat="45.77609" lon="6.66853">
        <ele>1920</ele>
        <time>2022-08-16T10:28:37Z</time>
      </trkpt>
      <trkpt lat="45.7761" lon="6.6685">
        <ele>1920</ele>
        <time>2022-08-16T10:28:38Z</time>
      </trkpt>
      <trkpt lat="45.77611" lon="6.66847">
        <ele>1920</ele>
        <time>2022-08-16T10:28:39Z</time>
      </trkpt>
      <trkpt lat="45.77613" lon="6.66844">
        <ele>1920</ele>
        <time>2022-08-16T10:28:40Z</time>
      </trkpt>
      <trkpt lat="45.77613" lon="6.66842">
        <ele>1920</ele>
        <time>2022-08-16T10:28:41Z</time>
      </trkpt>
      <trkpt lat="45.77615" lon="6.66839">
        <ele>1920</ele>
        <time>2022-08-16T10:28:42Z</time>
      </trkpt>
      <trkpt lat="45.77616" lon="6.66836">
        <ele>1920</ele>
        <time>2022-08-16T10:28:43Z</time>
      </trkpt>
      <trkpt lat="45.77617" lon="6.66833">
        <ele>1920</ele>
        <time>2022-08-16T10:28:44Z</time>
      </trkpt>
      <trkpt lat="45.77618" lon="6.6683">
        <ele>1919</ele>
        <time>2022-08-16T10:28:45Z</time>
      </trkpt>
      <trkpt lat="45.77619" lon="6.66827">
        <ele>1919</ele>
        <time>2022-08-16T10:28:46Z</time>
      </trkpt>
      <trkpt lat="45.7762" lon="6.66824">
        <ele>1919</ele>
        <time>2022-08-16T10:28:47Z</time>
      </trkpt>
      <trkpt lat="45.77621" lon="6.66821">
        <ele>1920</ele>
        <time>2022-08-16T10:28:48Z</time>
      </trkpt>
      <trkpt lat="45.77622" lon="6.66818">
        <ele>1920</ele>
        <time>2022-08-16T10:28:49Z</time>
      </trkpt>
      <trkpt lat="45.77623" lon="6.66815">
        <ele>1920</ele>
        <time>2022-08-16T10:28:50Z</time>
      </trkpt>
      <trkpt lat="45.77624" lon="6.66813">
        <ele>1919</ele>
        <time>2022-08-16T10:28:51Z</time>
      </trkpt>
      <trkpt lat="45.77625" lon="6.6681">
        <ele>1919</ele>
        <time>2022-08-16T10:28:52Z</time>
      </trkpt>
      <trkpt lat="45.77626" lon="6.66808">
        <ele>1919</ele>
        <time>2022-08-16T10:28:53Z</time>
      </trkpt>
      <trkpt lat="45.77628" lon="6.66806">
        <ele>1919</ele>
        <time>2022-08-16T10:28:54Z</time>
      </trkpt>
      <trkpt lat="45.77629" lon="6.66803">
        <ele>1919</ele>
        <time>2022-08-16T10:28:55Z</time>
      </trkpt>
      <trkpt lat="45.77631" lon="6.66801">
        <ele>1919</ele>
        <time>2022-08-16T10:28:56Z</time>
      </trkpt>
      <trkpt lat="45.77632" lon="6.66799">
        <ele>1919</ele>
        <time>2022-08-16T10:28:57Z</time>
      </trkpt>
      <trkpt lat="45.77633" lon="6.66796">
        <ele>1919</ele>
        <time>2022-08-16T10:28:58Z</time>
      </trkpt>
      <trkpt lat="45.77634" lon="6.66794">
        <ele>1920</ele>
        <time>2022-08-16T10:28:59Z</time>
      </trkpt>
      <trkpt lat="45.77635" lon="6.66792">
        <ele>1920</ele>
        <time>2022-08-16T10:29:00Z</time>
      </trkpt>
      <trkpt lat="45.77637" lon="6.6679">
        <ele>1921</ele>
        <time>2022-08-16T10:29:01Z</time>
      </trkpt>
      <trkpt lat="45.77638" lon="6.66788">
        <ele>1921</ele>
        <time>2022-08-16T10:29:02Z</time>
      </trkpt>
      <trkpt lat="45.77639" lon="6.66785">
        <ele>1922</ele>
        <time>2022-08-16T10:29:03Z</time>
      </trkpt>
      <trkpt lat="45.7764" lon="6.66783">
        <ele>1922</ele>
        <time>2022-08-16T10:29:04Z</time>
      </trkpt>
      <trkpt lat="45.77641" lon="6.66781">
        <ele>1922</ele>
        <time>2022-08-16T10:29:05Z</time>
      </trkpt>
      <trkpt lat="45.77642" lon="6.66778">
        <ele>1922</ele>
        <time>2022-08-16T10:29:06Z</time>
      </trkpt>
      <trkpt lat="45.77644" lon="6.66776">
        <ele>1923</ele>
        <time>2022-08-16T10:29:07Z</time>
      </trkpt>
      <trkpt lat="45.77645" lon="6.66774">
        <ele>1923</ele>
        <time>2022-08-16T10:29:08Z</time>
      </trkpt>
      <trkpt lat="45.77647" lon="6.66772">
        <ele>1923</ele>
        <time>2022-08-16T10:29:09Z</time>
      </trkpt>
      <trkpt lat="45.77648" lon="6.6677">
        <ele>1924</ele>
        <time>2022-08-16T10:29:10Z</time>
      </trkpt>
      <trkpt lat="45.77649" lon="6.66768">
        <ele>1924</ele>
        <time>2022-08-16T10:29:11Z</time>
      </trkpt>
      <trkpt lat="45.77651" lon="6.66767">
        <ele>1924</ele>
        <time>2022-08-16T10:29:12Z</time>
      </trkpt>
      <trkpt lat="45.77652" lon="6.66764">
        <ele>1924</ele>
        <time>2022-08-16T10:29:13Z</time>
      </trkpt>
      <trkpt lat="45.77654" lon="6.66762">
        <ele>1925</ele>
        <time>2022-08-16T10:29:14Z</time>
      </trkpt>
      <trkpt lat="45.77655" lon="6.6676">
        <ele>1925</ele>
        <time>2022-08-16T10:29:15Z</time>
      </trkpt>
      <trkpt lat="45.77656" lon="6.66757">
        <ele>1925</ele>
        <time>2022-08-16T10:29:16Z</time>
      </trkpt>
      <trkpt lat="45.77658" lon="6.66755">
        <ele>1926</ele>
        <time>2022-08-16T10:29:17Z</time>
      </trkpt>
      <trkpt lat="45.77659" lon="6.66753">
        <ele>1926</ele>
        <time>2022-08-16T10:29:18Z</time>
      </trkpt>
      <trkpt lat="45.77661" lon="6.66751">
        <ele>1926</ele>
        <time>2022-08-16T10:29:19Z</time>
      </trkpt>
      <trkpt lat="45.77663" lon="6.66749">
        <ele>1927</ele>
        <time>2022-08-16T10:29:20Z</time>
      </trkpt>
      <trkpt lat="45.77665" lon="6.66747">
        <ele>1927</ele>
        <time>2022-08-16T10:29:21Z</time>
      </trkpt>
      <trkpt lat="45.77666" lon="6.66746">
        <ele>1927</ele>
        <time>2022-08-16T10:29:22Z</time>
      </trkpt>
      <trkpt lat="45.77668" lon="6.66744">
        <ele>1927</ele>
        <time>2022-08-16T10:29:23Z</time>
      </trkpt>
      <trkpt lat="45.77669" lon="6.66742">
        <ele>1928</ele>
        <time>2022-08-16T10:29:24Z</time>
      </trkpt>
      <trkpt lat="45.77671" lon="6.66741">
        <ele>1928</ele>
        <time>2022-08-16T10:29:25Z</time>
      </trkpt>
      <trkpt lat="45.77672" lon="6.66739">
        <ele>1928</ele>
        <time>2022-08-16T10:29:26Z</time>
      </trkpt>
      <trkpt lat="45.77674" lon="6.66738">
        <ele>1928</ele>
        <time>2022-08-16T10:29:27Z</time>
      </trkpt>
      <trkpt lat="45.77676" lon="6.66736">
        <ele>1928</ele>
        <time>2022-08-16T10:29:28Z</time>
      </trkpt>
      <trkpt lat="45.77678" lon="6.66734">
        <ele>1928</ele>
        <time>2022-08-16T10:29:29Z</time>
      </trkpt>
      <trkpt lat="45.7768" lon="6.66733">
        <ele>1929</ele>
        <time>2022-08-16T10:29:30Z</time>
      </trkpt>
      <trkpt lat="45.77682" lon="6.66732">
        <ele>1929</ele>
        <time>2022-08-16T10:29:31Z</time>
      </trkpt>
      <trkpt lat="45.77684" lon="6.66731">
        <ele>1929</ele>
        <time>2022-08-16T10:29:32Z</time>
      </trkpt>
      <trkpt lat="45.77685" lon="6.6673">
        <ele>1930</ele>
        <time>2022-08-16T10:29:33Z</time>
      </trkpt>
      <trkpt lat="45.77687" lon="6.66729">
        <ele>1930</ele>
        <time>2022-08-16T10:29:34Z</time>
      </trkpt>
      <trkpt lat="45.77689" lon="6.66729">
        <ele>1930</ele>
        <time>2022-08-16T10:29:35Z</time>
      </trkpt>
      <trkpt lat="45.7769" lon="6.66729">
        <ele>1931</ele>
        <time>2022-08-16T10:29:36Z</time>
      </trkpt>
      <trkpt lat="45.77692" lon="6.66729">
        <ele>1931</ele>
        <time>2022-08-16T10:29:37Z</time>
      </trkpt>
      <trkpt lat="45.77693" lon="6.66729">
        <ele>1931</ele>
        <time>2022-08-16T10:29:38Z</time>
      </trkpt>
      <trkpt lat="45.77695" lon="6.6673">
        <ele>1931</ele>
        <time>2022-08-16T10:29:39Z</time>
      </trkpt>
      <trkpt lat="45.77696" lon="6.66731">
        <ele>1931</ele>
        <time>2022-08-16T10:29:40Z</time>
      </trkpt>
      <trkpt lat="45.77698" lon="6.66732">
        <ele>1931</ele>
        <time>2022-08-16T10:29:41Z</time>
      </trkpt>
      <trkpt lat="45.77699" lon="6.66732">
        <ele>1931</ele>
        <time>2022-08-16T10:29:42Z</time>
      </trkpt>
      <trkpt lat="45.77701" lon="6.66732">
        <ele>1932</ele>
        <time>2022-08-16T10:29:43Z</time>
      </trkpt>
      <trkpt lat="45.77702" lon="6.66732">
        <ele>1932</ele>
        <time>2022-08-16T10:29:44Z</time>
      </trkpt>
      <trkpt lat="45.77704" lon="6.66731">
        <ele>1932</ele>
        <time>2022-08-16T10:29:45Z</time>
      </trkpt>
      <trkpt lat="45.77705" lon="6.66731">
        <ele>1932</ele>
        <time>2022-08-16T10:29:46Z</time>
      </trkpt>
      <trkpt lat="45.77704" lon="6.6673">
        <ele>1933</ele>
        <time>2022-08-16T10:29:47Z</time>
      </trkpt>
      <trkpt lat="45.77704" lon="6.6673">
        <ele>1933</ele>
        <time>2022-08-16T10:29:48Z</time>
      </trkpt>
      <trkpt lat="45.77704" lon="6.66729">
        <ele>1933</ele>
        <time>2022-08-16T10:29:49Z</time>
      </trkpt>
      <trkpt lat="45.77704" lon="6.66729">
        <ele>1934</ele>
        <time>2022-08-16T10:29:50Z</time>
      </trkpt>
      <trkpt lat="45.77704" lon="6.66729">
        <ele>1934</ele>
        <time>2022-08-16T10:29:51Z</time>
      </trkpt>
      <trkpt lat="45.77704" lon="6.6673">
        <ele>1934</ele>
        <time>2022-08-16T10:29:52Z</time>
      </trkpt>
      <trkpt lat="45.77704" lon="6.66731">
        <ele>1934</ele>
        <time>2022-08-16T10:29:53Z</time>
      </trkpt>
      <trkpt lat="45.77704" lon="6.66731">
        <ele>1934</ele>
        <time>2022-08-16T10:29:54Z</time>
      </trkpt>
      <trkpt lat="45.77704" lon="6.66731">
        <ele>1934</ele>
        <time>2022-08-16T10:29:55Z</time>
      </trkpt>
      <trkpt lat="45.77704" lon="6.66731">
        <ele>1934</ele>
        <time>2022-08-16T10:29:56Z</time>
      </trkpt>
      <trkpt lat="45.77704" lon="6.66731">
        <ele>1934</ele>
        <time>2022-08-16T10:29:57Z</time>
      </trkpt>
      <trkpt lat="45.77704" lon="6.66731">
        <ele>1934</ele>
        <time>2022-08-16T10:30:01Z</time>
      </trkpt>
      <trkpt lat="45.77704" lon="6.66731">
        <ele>1934</ele>
        <time>2022-08-16T10:30:05Z</time>
      </trkpt>
      <trkpt lat="45.77704" lon="6.66731">
        <ele>1934</ele>
        <time>2022-08-16T10:30:09Z</time>
      </trkpt>
      <trkpt lat="45.77704" lon="6.66731">
        <ele>1934</ele>
        <time>2022-08-16T10:30:13Z</time>
      </trkpt>
      <trkpt lat="45.77704" lon="6.66731">
        <ele>1934</ele>
        <time>2022-08-16T10:30:17Z</time>
      </trkpt>
      <trkpt lat="45.77704" lon="6.66731">
        <ele>1934</ele>
        <time>2022-08-16T10:30:21Z</time>
      </trkpt>
      <trkpt lat="45.77704" lon="6.66731">
        <ele>1934</ele>
        <time>2022-08-16T10:30:25Z</time>
      </trkpt>
      <trkpt lat="45.77704" lon="6.66731">
        <ele>1934</ele>
        <time>2022-08-16T10:30:29Z</time>
      </trkpt>
      <trkpt lat="45.77704" lon="6.66731">
        <ele>1934</ele>
        <time>2022-08-16T10:30:33Z</time>
      </trkpt>
      <trkpt lat="45.77704" lon="6.66731">
        <ele>1934</ele>
        <time>2022-08-16T10:30:37Z</time>
      </trkpt>
      <trkpt lat="45.77704" lon="6.66731">
        <ele>1936</ele>
        <time>2022-08-16T10:30:38Z</time>
      </trkpt>
      <trkpt lat="45.77705" lon="6.66731">
        <ele>1936</ele>
        <time>2022-08-16T10:30:39Z</time>
      </trkpt>
      <trkpt lat="45.77705" lon="6.66731">
        <ele>1936</ele>
        <time>2022-08-16T10:30:40Z</time>
      </trkpt>
      <trkpt lat="45.77704" lon="6.66731">
        <ele>1936</ele>
        <time>2022-08-16T10:30:41Z</time>
      </trkpt>
      <trkpt lat="45.77705" lon="6.66732">
        <ele>1936</ele>
        <time>2022-08-16T10:30:42Z</time>
      </trkpt>
      <trkpt lat="45.77705" lon="6.66733">
        <ele>1937</ele>
        <time>2022-08-16T10:30:43Z</time>
      </trkpt>
      <trkpt lat="45.77705" lon="6.66733">
        <ele>1937</ele>
        <time>2022-08-16T10:30:44Z</time>
      </trkpt>
      <trkpt lat="45.77705" lon="6.66734">
        <ele>1936</ele>
        <time>2022-08-16T10:30:45Z</time>
      </trkpt>
      <trkpt lat="45.77706" lon="6.66735">
        <ele>1936</ele>
        <time>2022-08-16T10:30:46Z</time>
      </trkpt>
      <trkpt lat="45.77707" lon="6.66737">
        <ele>1936</ele>
        <time>2022-08-16T10:30:47Z</time>
      </trkpt>
      <trkpt lat="45.77707" lon="6.66739">
        <ele>1936</ele>
        <time>2022-08-16T10:30:48Z</time>
      </trkpt>
      <trkpt lat="45.77709" lon="6.6674">
        <ele>1936</ele>
        <time>2022-08-16T10:30:49Z</time>
      </trkpt>
      <trkpt lat="45.77711" lon="6.66741">
        <ele>1937</ele>
        <time>2022-08-16T10:30:50Z</time>
      </trkpt>
      <trkpt lat="45.77713" lon="6.66742">
        <ele>1937</ele>
        <time>2022-08-16T10:30:51Z</time>
      </trkpt>
      <trkpt lat="45.77714" lon="6.66742">
        <ele>1938</ele>
        <time>2022-08-16T10:30:52Z</time>
      </trkpt>
      <trkpt lat="45.77716" lon="6.66742">
        <ele>1938</ele>
        <time>2022-08-16T10:30:53Z</time>
      </trkpt>
      <trkpt lat="45.77718" lon="6.66743">
        <ele>1938</ele>
        <time>2022-08-16T10:30:54Z</time>
      </trkpt>
      <trkpt lat="45.77719" lon="6.66744">
        <ele>1938</ele>
        <time>2022-08-16T10:30:55Z</time>
      </trkpt>
      <trkpt lat="45.77721" lon="6.66745">
        <ele>1938</ele>
        <time>2022-08-16T10:30:56Z</time>
      </trkpt>
      <trkpt lat="45.77723" lon="6.66747">
        <ele>1938</ele>
        <time>2022-08-16T10:30:57Z</time>
      </trkpt>
      <trkpt lat="45.77725" lon="6.66748">
        <ele>1938</ele>
        <time>2022-08-16T10:30:58Z</time>
      </trkpt>
      <trkpt lat="45.77727" lon="6.66749">
        <ele>1939</ele>
        <time>2022-08-16T10:30:59Z</time>
      </trkpt>
      <trkpt lat="45.77728" lon="6.66751">
        <ele>1939</ele>
        <time>2022-08-16T10:31:00Z</time>
      </trkpt>
      <trkpt lat="45.7773" lon="6.66752">
        <ele>1939</ele>
        <time>2022-08-16T10:31:01Z</time>
      </trkpt>
      <trkpt lat="45.77732" lon="6.66752">
        <ele>1939</ele>
        <time>2022-08-16T10:31:02Z</time>
      </trkpt>
      <trkpt lat="45.77733" lon="6.66754">
        <ele>1939</ele>
        <time>2022-08-16T10:31:03Z</time>
      </trkpt>
      <trkpt lat="45.77735" lon="6.66755">
        <ele>1939</ele>
        <time>2022-08-16T10:31:04Z</time>
      </trkpt>
      <trkpt lat="45.77737" lon="6.66757">
        <ele>1939</ele>
        <time>2022-08-16T10:31:05Z</time>
      </trkpt>
      <trkpt lat="45.77739" lon="6.66759">
        <ele>1939</ele>
        <time>2022-08-16T10:31:06Z</time>
      </trkpt>
      <trkpt lat="45.77741" lon="6.66761">
        <ele>1939</ele>
        <time>2022-08-16T10:31:07Z</time>
      </trkpt>
      <trkpt lat="45.77742" lon="6.66763">
        <ele>1940</ele>
        <time>2022-08-16T10:31:08Z</time>
      </trkpt>
      <trkpt lat="45.77743" lon="6.66765">
        <ele>1940</ele>
        <time>2022-08-16T10:31:09Z</time>
      </trkpt>
      <trkpt lat="45.77744" lon="6.66768">
        <ele>1940</ele>
        <time>2022-08-16T10:31:10Z</time>
      </trkpt>
      <trkpt lat="45.77746" lon="6.6677">
        <ele>1940</ele>
        <time>2022-08-16T10:31:11Z</time>
      </trkpt>
      <trkpt lat="45.77748" lon="6.66773">
        <ele>1940</ele>
        <time>2022-08-16T10:31:12Z</time>
      </trkpt>
      <trkpt lat="45.77749" lon="6.66775">
        <ele>1941</ele>
        <time>2022-08-16T10:31:13Z</time>
      </trkpt>
      <trkpt lat="45.77751" lon="6.66777">
        <ele>1941</ele>
        <time>2022-08-16T10:31:14Z</time>
      </trkpt>
      <trkpt lat="45.77752" lon="6.6678">
        <ele>1942</ele>
        <time>2022-08-16T10:31:15Z</time>
      </trkpt>
      <trkpt lat="45.77754" lon="6.66782">
        <ele>1942</ele>
        <time>2022-08-16T10:31:16Z</time>
      </trkpt>
      <trkpt lat="45.77756" lon="6.66785">
        <ele>1942</ele>
        <time>2022-08-16T10:31:17Z</time>
      </trkpt>
      <trkpt lat="45.77757" lon="6.66787">
        <ele>1943</ele>
        <time>2022-08-16T10:31:18Z</time>
      </trkpt>
      <trkpt lat="45.77759" lon="6.6679">
        <ele>1943</ele>
        <time>2022-08-16T10:31:19Z</time>
      </trkpt>
      <trkpt lat="45.7776" lon="6.66792">
        <ele>1943</ele>
        <time>2022-08-16T10:31:20Z</time>
      </trkpt>
      <trkpt lat="45.77762" lon="6.66794">
        <ele>1944</ele>
        <time>2022-08-16T10:31:21Z</time>
      </trkpt>
      <trkpt lat="45.77763" lon="6.66796">
        <ele>1944</ele>
        <time>2022-08-16T10:31:22Z</time>
      </trkpt>
      <trkpt lat="45.77765" lon="6.66798">
        <ele>1944</ele>
        <time>2022-08-16T10:31:23Z</time>
      </trkpt>
      <trkpt lat="45.77766" lon="6.66801">
        <ele>1945</ele>
        <time>2022-08-16T10:31:24Z</time>
      </trkpt>
      <trkpt lat="45.77768" lon="6.66803">
        <ele>1945</ele>
        <time>2022-08-16T10:31:25Z</time>
      </trkpt>
      <trkpt lat="45.77769" lon="6.66805">
        <ele>1945</ele>
        <time>2022-08-16T10:31:26Z</time>
      </trkpt>
      <trkpt lat="45.7777" lon="6.66807">
        <ele>1946</ele>
        <time>2022-08-16T10:31:27Z</time>
      </trkpt>
      <trkpt lat="45.77771" lon="6.6681">
        <ele>1946</ele>
        <time>2022-08-16T10:31:28Z</time>
      </trkpt>
      <trkpt lat="45.77772" lon="6.66812">
        <ele>1947</ele>
        <time>2022-08-16T10:31:29Z</time>
      </trkpt>
      <trkpt lat="45.77773" lon="6.66815">
        <ele>1947</ele>
        <time>2022-08-16T10:31:30Z</time>
      </trkpt>
      <trkpt lat="45.77774" lon="6.66817">
        <ele>1947</ele>
        <time>2022-08-16T10:31:31Z</time>
      </trkpt>
      <trkpt lat="45.77775" lon="6.66819">
        <ele>1947</ele>
        <time>2022-08-16T10:31:32Z</time>
      </trkpt>
      <trkpt lat="45.77775" lon="6.66822">
        <ele>1947</ele>
        <time>2022-08-16T10:31:33Z</time>
      </trkpt>
      <trkpt lat="45.77776" lon="6.66824">
        <ele>1947</ele>
        <time>2022-08-16T10:31:34Z</time>
      </trkpt>
      <trkpt lat="45.77777" lon="6.66826">
        <ele>1946</ele>
        <time>2022-08-16T10:31:35Z</time>
      </trkpt>
      <trkpt lat="45.77778" lon="6.66829">
        <ele>1946</ele>
        <time>2022-08-16T10:31:36Z</time>
      </trkpt>
      <trkpt lat="45.77778" lon="6.66831">
        <ele>1946</ele>
        <time>2022-08-16T10:31:37Z</time>
      </trkpt>
      <trkpt lat="45.77779" lon="6.66833">
        <ele>1947</ele>
        <time>2022-08-16T10:31:38Z</time>
      </trkpt>
      <trkpt lat="45.7778" lon="6.66835">
        <ele>1947</ele>
        <time>2022-08-16T10:31:39Z</time>
      </trkpt>
      <trkpt lat="45.77781" lon="6.66837">
        <ele>1947</ele>
        <time>2022-08-16T10:31:40Z</time>
      </trkpt>
      <trkpt lat="45.77782" lon="6.66838">
        <ele>1947</ele>
        <time>2022-08-16T10:31:41Z</time>
      </trkpt>
      <trkpt lat="45.77783" lon="6.6684">
        <ele>1947</ele>
        <time>2022-08-16T10:31:42Z</time>
      </trkpt>
      <trkpt lat="45.77785" lon="6.66842">
        <ele>1947</ele>
        <time>2022-08-16T10:31:43Z</time>
      </trkpt>
      <trkpt lat="45.77785" lon="6.66843">
        <ele>1947</ele>
        <time>2022-08-16T10:31:44Z</time>
      </trkpt>
      <trkpt lat="45.77787" lon="6.66846">
        <ele>1947</ele>
        <time>2022-08-16T10:31:45Z</time>
      </trkpt>
      <trkpt lat="45.77788" lon="6.66848">
        <ele>1947</ele>
        <time>2022-08-16T10:31:46Z</time>
      </trkpt>
      <trkpt lat="45.77789" lon="6.66849">
        <ele>1948</ele>
        <time>2022-08-16T10:31:47Z</time>
      </trkpt>
      <trkpt lat="45.7779" lon="6.66851">
        <ele>1948</ele>
        <time>2022-08-16T10:31:48Z</time>
      </trkpt>
      <trkpt lat="45.77791" lon="6.66853">
        <ele>1949</ele>
        <time>2022-08-16T10:31:49Z</time>
      </trkpt>
      <trkpt lat="45.77792" lon="6.66855">
        <ele>1949</ele>
        <time>2022-08-16T10:31:50Z</time>
      </trkpt>
      <trkpt lat="45.77793" lon="6.66858">
        <ele>1949</ele>
        <time>2022-08-16T10:31:51Z</time>
      </trkpt>
      <trkpt lat="45.77794" lon="6.6686">
        <ele>1949</ele>
        <time>2022-08-16T10:31:52Z</time>
      </trkpt>
      <trkpt lat="45.77795" lon="6.66863">
        <ele>1949</ele>
        <time>2022-08-16T10:31:53Z</time>
      </trkpt>
      <trkpt lat="45.77796" lon="6.66865">
        <ele>1949</ele>
        <time>2022-08-16T10:31:54Z</time>
      </trkpt>
      <trkpt lat="45.77797" lon="6.66867">
        <ele>1949</ele>
        <time>2022-08-16T10:31:55Z</time>
      </trkpt>
      <trkpt lat="45.77799" lon="6.66869">
        <ele>1950</ele>
        <time>2022-08-16T10:31:56Z</time>
      </trkpt>
      <trkpt lat="45.778" lon="6.66871">
        <ele>1950</ele>
        <time>2022-08-16T10:31:57Z</time>
      </trkpt>
      <trkpt lat="45.77801" lon="6.66873">
        <ele>1950</ele>
        <time>2022-08-16T10:31:58Z</time>
      </trkpt>
      <trkpt lat="45.77801" lon="6.66876">
        <ele>1951</ele>
        <time>2022-08-16T10:31:59Z</time>
      </trkpt>
      <trkpt lat="45.77802" lon="6.66878">
        <ele>1950</ele>
        <time>2022-08-16T10:32:00Z</time>
      </trkpt>
      <trkpt lat="45.77802" lon="6.66881">
        <ele>1951</ele>
        <time>2022-08-16T10:32:01Z</time>
      </trkpt>
      <trkpt lat="45.77803" lon="6.66883">
        <ele>1951</ele>
        <time>2022-08-16T10:32:02Z</time>
      </trkpt>
      <trkpt lat="45.77804" lon="6.66885">
        <ele>1951</ele>
        <time>2022-08-16T10:32:03Z</time>
      </trkpt>
      <trkpt lat="45.77805" lon="6.66887">
        <ele>1951</ele>
        <time>2022-08-16T10:32:04Z</time>
      </trkpt>
      <trkpt lat="45.77805" lon="6.6689">
        <ele>1951</ele>
        <time>2022-08-16T10:32:05Z</time>
      </trkpt>
      <trkpt lat="45.77805" lon="6.66893">
        <ele>1950</ele>
        <time>2022-08-16T10:32:06Z</time>
      </trkpt>
      <trkpt lat="45.77806" lon="6.66895">
        <ele>1950</ele>
        <time>2022-08-16T10:32:07Z</time>
      </trkpt>
      <trkpt lat="45.77806" lon="6.66898">
        <ele>1950</ele>
        <time>2022-08-16T10:32:08Z</time>
      </trkpt>
      <trkpt lat="45.77807" lon="6.669">
        <ele>1950</ele>
        <time>2022-08-16T10:32:09Z</time>
      </trkpt>
      <trkpt lat="45.77807" lon="6.66903">
        <ele>1950</ele>
        <time>2022-08-16T10:32:10Z</time>
      </trkpt>
      <trkpt lat="45.77808" lon="6.66905">
        <ele>1950</ele>
        <time>2022-08-16T10:32:11Z</time>
      </trkpt>
      <trkpt lat="45.77809" lon="6.66907">
        <ele>1950</ele>
        <time>2022-08-16T10:32:12Z</time>
      </trkpt>
      <trkpt lat="45.7781" lon="6.66909">
        <ele>1950</ele>
        <time>2022-08-16T10:32:13Z</time>
      </trkpt>
      <trkpt lat="45.77811" lon="6.66912">
        <ele>1951</ele>
        <time>2022-08-16T10:32:14Z</time>
      </trkpt>
      <trkpt lat="45.77811" lon="6.66914">
        <ele>1951</ele>
        <time>2022-08-16T10:32:15Z</time>
      </trkpt>
      <trkpt lat="45.77812" lon="6.66916">
        <ele>1951</ele>
        <time>2022-08-16T10:32:16Z</time>
      </trkpt>
      <trkpt lat="45.77813" lon="6.66919">
        <ele>1952</ele>
        <time>2022-08-16T10:32:17Z</time>
      </trkpt>
      <trkpt lat="45.77813" lon="6.6692">
        <ele>1952</ele>
        <time>2022-08-16T10:32:18Z</time>
      </trkpt>
      <trkpt lat="45.77814" lon="6.66922">
        <ele>1953</ele>
        <time>2022-08-16T10:32:19Z</time>
      </trkpt>
      <trkpt lat="45.77815" lon="6.66925">
        <ele>1953</ele>
        <time>2022-08-16T10:32:20Z</time>
      </trkpt>
      <trkpt lat="45.77815" lon="6.66927">
        <ele>1953</ele>
        <time>2022-08-16T10:32:21Z</time>
      </trkpt>
      <trkpt lat="45.77816" lon="6.66929">
        <ele>1953</ele>
        <time>2022-08-16T10:32:22Z</time>
      </trkpt>
      <trkpt lat="45.77817" lon="6.66932">
        <ele>1952</ele>
        <time>2022-08-16T10:32:23Z</time>
      </trkpt>
      <trkpt lat="45.77818" lon="6.66934">
        <ele>1952</ele>
        <time>2022-08-16T10:32:24Z</time>
      </trkpt>
      <trkpt lat="45.77819" lon="6.66937">
        <ele>1953</ele>
        <time>2022-08-16T10:32:25Z</time>
      </trkpt>
      <trkpt lat="45.77819" lon="6.66939">
        <ele>1953</ele>
        <time>2022-08-16T10:32:26Z</time>
      </trkpt>
      <trkpt lat="45.7782" lon="6.66942">
        <ele>1953</ele>
        <time>2022-08-16T10:32:27Z</time>
      </trkpt>
      <trkpt lat="45.77821" lon="6.66944">
        <ele>1953</ele>
        <time>2022-08-16T10:32:28Z</time>
      </trkpt>
      <trkpt lat="45.77821" lon="6.66946">
        <ele>1954</ele>
        <time>2022-08-16T10:32:29Z</time>
      </trkpt>
      <trkpt lat="45.77822" lon="6.66949">
        <ele>1954</ele>
        <time>2022-08-16T10:32:30Z</time>
      </trkpt>
      <trkpt lat="45.77822" lon="6.66951">
        <ele>1954</ele>
        <time>2022-08-16T10:32:31Z</time>
      </trkpt>
      <trkpt lat="45.77823" lon="6.66954">
        <ele>1954</ele>
        <time>2022-08-16T10:32:32Z</time>
      </trkpt>
      <trkpt lat="45.77824" lon="6.66956">
        <ele>1955</ele>
        <time>2022-08-16T10:32:33Z</time>
      </trkpt>
      <trkpt lat="45.77825" lon="6.66959">
        <ele>1955</ele>
        <time>2022-08-16T10:32:34Z</time>
      </trkpt>
      <trkpt lat="45.77826" lon="6.66962">
        <ele>1955</ele>
        <time>2022-08-16T10:32:35Z</time>
      </trkpt>
      <trkpt lat="45.77826" lon="6.66965">
        <ele>1955</ele>
        <time>2022-08-16T10:32:36Z</time>
      </trkpt>
      <trkpt lat="45.77827" lon="6.66967">
        <ele>1956</ele>
        <time>2022-08-16T10:32:37Z</time>
      </trkpt>
      <trkpt lat="45.77828" lon="6.6697">
        <ele>1956</ele>
        <time>2022-08-16T10:32:38Z</time>
      </trkpt>
      <trkpt lat="45.77828" lon="6.66973">
        <ele>1957</ele>
        <time>2022-08-16T10:32:39Z</time>
      </trkpt>
      <trkpt lat="45.77829" lon="6.66975">
        <ele>1957</ele>
        <time>2022-08-16T10:32:40Z</time>
      </trkpt>
      <trkpt lat="45.77829" lon="6.66978">
        <ele>1957</ele>
        <time>2022-08-16T10:32:41Z</time>
      </trkpt>
      <trkpt lat="45.7783" lon="6.6698">
        <ele>1958</ele>
        <time>2022-08-16T10:32:42Z</time>
      </trkpt>
      <trkpt lat="45.77831" lon="6.66982">
        <ele>1958</ele>
        <time>2022-08-16T10:32:43Z</time>
      </trkpt>
      <trkpt lat="45.77831" lon="6.66985">
        <ele>1958</ele>
        <time>2022-08-16T10:32:44Z</time>
      </trkpt>
      <trkpt lat="45.77832" lon="6.66987">
        <ele>1958</ele>
        <time>2022-08-16T10:32:45Z</time>
      </trkpt>
      <trkpt lat="45.77832" lon="6.6699">
        <ele>1958</ele>
        <time>2022-08-16T10:32:46Z</time>
      </trkpt>
      <trkpt lat="45.77833" lon="6.66992">
        <ele>1958</ele>
        <time>2022-08-16T10:32:47Z</time>
      </trkpt>
      <trkpt lat="45.77833" lon="6.66995">
        <ele>1957</ele>
        <time>2022-08-16T10:32:48Z</time>
      </trkpt>
      <trkpt lat="45.77834" lon="6.66997">
        <ele>1958</ele>
        <time>2022-08-16T10:32:49Z</time>
      </trkpt>
      <trkpt lat="45.77835" lon="6.66999">
        <ele>1958</ele>
        <time>2022-08-16T10:32:50Z</time>
      </trkpt>
      <trkpt lat="45.77836" lon="6.67001">
        <ele>1958</ele>
        <time>2022-08-16T10:32:51Z</time>
      </trkpt>
      <trkpt lat="45.77837" lon="6.67004">
        <ele>1959</ele>
        <time>2022-08-16T10:32:52Z</time>
      </trkpt>
      <trkpt lat="45.77838" lon="6.67005">
        <ele>1959</ele>
        <time>2022-08-16T10:32:53Z</time>
      </trkpt>
      <trkpt lat="45.77839" lon="6.67007">
        <ele>1959</ele>
        <time>2022-08-16T10:32:54Z</time>
      </trkpt>
      <trkpt lat="45.77841" lon="6.6701">
        <ele>1959</ele>
        <time>2022-08-16T10:32:55Z</time>
      </trkpt>
      <trkpt lat="45.77842" lon="6.67011">
        <ele>1960</ele>
        <time>2022-08-16T10:32:56Z</time>
      </trkpt>
      <trkpt lat="45.77843" lon="6.67012">
        <ele>1960</ele>
        <time>2022-08-16T10:32:57Z</time>
      </trkpt>
      <trkpt lat="45.77845" lon="6.67014">
        <ele>1960</ele>
        <time>2022-08-16T10:32:58Z</time>
      </trkpt>
      <trkpt lat="45.77846" lon="6.67015">
        <ele>1960</ele>
        <time>2022-08-16T10:32:59Z</time>
      </trkpt>
      <trkpt lat="45.77847" lon="6.67017">
        <ele>1961</ele>
        <time>2022-08-16T10:33:00Z</time>
      </trkpt>
      <trkpt lat="45.77848" lon="6.67019">
        <ele>1961</ele>
        <time>2022-08-16T10:33:01Z</time>
      </trkpt>
      <trkpt lat="45.77849" lon="6.67021">
        <ele>1962</ele>
        <time>2022-08-16T10:33:02Z</time>
      </trkpt>
      <trkpt lat="45.77851" lon="6.67022">
        <ele>1962</ele>
        <time>2022-08-16T10:33:03Z</time>
      </trkpt>
      <trkpt lat="45.77852" lon="6.67024">
        <ele>1962</ele>
        <time>2022-08-16T10:33:04Z</time>
      </trkpt>
      <trkpt lat="45.77853" lon="6.67026">
        <ele>1962</ele>
        <time>2022-08-16T10:33:05Z</time>
      </trkpt>
      <trkpt lat="45.77854" lon="6.67027">
        <ele>1962</ele>
        <time>2022-08-16T10:33:06Z</time>
      </trkpt>
      <trkpt lat="45.77855" lon="6.67029">
        <ele>1962</ele>
        <time>2022-08-16T10:33:07Z</time>
      </trkpt>
      <trkpt lat="45.77856" lon="6.67031">
        <ele>1962</ele>
        <time>2022-08-16T10:33:08Z</time>
      </trkpt>
      <trkpt lat="45.77857" lon="6.67033">
        <ele>1962</ele>
        <time>2022-08-16T10:33:09Z</time>
      </trkpt>
      <trkpt lat="45.77859" lon="6.67036">
        <ele>1962</ele>
        <time>2022-08-16T10:33:10Z</time>
      </trkpt>
      <trkpt lat="45.7786" lon="6.67038">
        <ele>1962</ele>
        <time>2022-08-16T10:33:11Z</time>
      </trkpt>
      <trkpt lat="45.77861" lon="6.67041">
        <ele>1962</ele>
        <time>2022-08-16T10:33:12Z</time>
      </trkpt>
      <trkpt lat="45.77862" lon="6.67043">
        <ele>1963</ele>
        <time>2022-08-16T10:33:13Z</time>
      </trkpt>
      <trkpt lat="45.77864" lon="6.67045">
        <ele>1963</ele>
        <time>2022-08-16T10:33:14Z</time>
      </trkpt>
      <trkpt lat="45.77865" lon="6.67047">
        <ele>1963</ele>
        <time>2022-08-16T10:33:15Z</time>
      </trkpt>
      <trkpt lat="45.77866" lon="6.6705">
        <ele>1963</ele>
        <time>2022-08-16T10:33:16Z</time>
      </trkpt>
      <trkpt lat="45.77867" lon="6.67052">
        <ele>1963</ele>
        <time>2022-08-16T10:33:17Z</time>
      </trkpt>
      <trkpt lat="45.77868" lon="6.67055">
        <ele>1963</ele>
        <time>2022-08-16T10:33:18Z</time>
      </trkpt>
      <trkpt lat="45.77869" lon="6.67057">
        <ele>1964</ele>
        <time>2022-08-16T10:33:19Z</time>
      </trkpt>
      <trkpt lat="45.7787" lon="6.6706">
        <ele>1964</ele>
        <time>2022-08-16T10:33:20Z</time>
      </trkpt>
      <trkpt lat="45.77871" lon="6.67062">
        <ele>1964</ele>
        <time>2022-08-16T10:33:21Z</time>
      </trkpt>
      <trkpt lat="45.77872" lon="6.67065">
        <ele>1964</ele>
        <time>2022-08-16T10:33:22Z</time>
      </trkpt>
      <trkpt lat="45.77873" lon="6.67067">
        <ele>1964</ele>
        <time>2022-08-16T10:33:23Z</time>
      </trkpt>
      <trkpt lat="45.77874" lon="6.6707">
        <ele>1964</ele>
        <time>2022-08-16T10:33:24Z</time>
      </trkpt>
      <trkpt lat="45.77875" lon="6.67072">
        <ele>1965</ele>
        <time>2022-08-16T10:33:25Z</time>
      </trkpt>
      <trkpt lat="45.77876" lon="6.67075">
        <ele>1965</ele>
        <time>2022-08-16T10:33:26Z</time>
      </trkpt>
      <trkpt lat="45.77877" lon="6.67077">
        <ele>1965</ele>
        <time>2022-08-16T10:33:27Z</time>
      </trkpt>
      <trkpt lat="45.77878" lon="6.6708">
        <ele>1965</ele>
        <time>2022-08-16T10:33:28Z</time>
      </trkpt>
      <trkpt lat="45.77879" lon="6.67082">
        <ele>1965</ele>
        <time>2022-08-16T10:33:29Z</time>
      </trkpt>
      <trkpt lat="45.7788" lon="6.67084">
        <ele>1965</ele>
        <time>2022-08-16T10:33:30Z</time>
      </trkpt>
      <trkpt lat="45.77881" lon="6.67087">
        <ele>1965</ele>
        <time>2022-08-16T10:33:31Z</time>
      </trkpt>
      <trkpt lat="45.77882" lon="6.67089">
        <ele>1965</ele>
        <time>2022-08-16T10:33:32Z</time>
      </trkpt>
      <trkpt lat="45.77884" lon="6.67091">
        <ele>1965</ele>
        <time>2022-08-16T10:33:33Z</time>
      </trkpt>
      <trkpt lat="45.77885" lon="6.67093">
        <ele>1966</ele>
        <time>2022-08-16T10:33:34Z</time>
      </trkpt>
      <trkpt lat="45.77886" lon="6.67096">
        <ele>1965</ele>
        <time>2022-08-16T10:33:35Z</time>
      </trkpt>
      <trkpt lat="45.77887" lon="6.67098">
        <ele>1965</ele>
        <time>2022-08-16T10:33:36Z</time>
      </trkpt>
      <trkpt lat="45.77888" lon="6.671">
        <ele>1966</ele>
        <time>2022-08-16T10:33:37Z</time>
      </trkpt>
      <trkpt lat="45.77889" lon="6.67102">
        <ele>1966</ele>
        <time>2022-08-16T10:33:38Z</time>
      </trkpt>
      <trkpt lat="45.77891" lon="6.67104">
        <ele>1966</ele>
        <time>2022-08-16T10:33:39Z</time>
      </trkpt>
      <trkpt lat="45.77892" lon="6.67106">
        <ele>1967</ele>
        <time>2022-08-16T10:33:40Z</time>
      </trkpt>
      <trkpt lat="45.77894" lon="6.67107">
        <ele>1967</ele>
        <time>2022-08-16T10:33:41Z</time>
      </trkpt>
      <trkpt lat="45.77895" lon="6.67109">
        <ele>1967</ele>
        <time>2022-08-16T10:33:42Z</time>
      </trkpt>
      <trkpt lat="45.77896" lon="6.67111">
        <ele>1967</ele>
        <time>2022-08-16T10:33:43Z</time>
      </trkpt>
      <trkpt lat="45.77897" lon="6.67112">
        <ele>1967</ele>
        <time>2022-08-16T10:33:44Z</time>
      </trkpt>
      <trkpt lat="45.77898" lon="6.67114">
        <ele>1967</ele>
        <time>2022-08-16T10:33:45Z</time>
      </trkpt>
      <trkpt lat="45.77898" lon="6.67115">
        <ele>1967</ele>
        <time>2022-08-16T10:33:46Z</time>
      </trkpt>
      <trkpt lat="45.77899" lon="6.67117">
        <ele>1968</ele>
        <time>2022-08-16T10:33:47Z</time>
      </trkpt>
      <trkpt lat="45.779" lon="6.67118">
        <ele>1968</ele>
        <time>2022-08-16T10:33:48Z</time>
      </trkpt>
      <trkpt lat="45.77901" lon="6.67119">
        <ele>1969</ele>
        <time>2022-08-16T10:33:49Z</time>
      </trkpt>
      <trkpt lat="45.77902" lon="6.67121">
        <ele>1969</ele>
        <time>2022-08-16T10:33:50Z</time>
      </trkpt>
      <trkpt lat="45.77903" lon="6.67122">
        <ele>1969</ele>
        <time>2022-08-16T10:33:51Z</time>
      </trkpt>
      <trkpt lat="45.77904" lon="6.67124">
        <ele>1969</ele>
        <time>2022-08-16T10:33:52Z</time>
      </trkpt>
      <trkpt lat="45.77905" lon="6.67126">
        <ele>1970</ele>
        <time>2022-08-16T10:33:53Z</time>
      </trkpt>
      <trkpt lat="45.77906" lon="6.67128">
        <ele>1970</ele>
        <time>2022-08-16T10:33:54Z</time>
      </trkpt>
      <trkpt lat="45.77907" lon="6.6713">
        <ele>1970</ele>
        <time>2022-08-16T10:33:55Z</time>
      </trkpt>
      <trkpt lat="45.77908" lon="6.67132">
        <ele>1970</ele>
        <time>2022-08-16T10:33:56Z</time>
      </trkpt>
      <trkpt lat="45.77908" lon="6.67135">
        <ele>1970</ele>
        <time>2022-08-16T10:33:57Z</time>
      </trkpt>
      <trkpt lat="45.77909" lon="6.67137">
        <ele>1971</ele>
        <time>2022-08-16T10:33:58Z</time>
      </trkpt>
      <trkpt lat="45.77909" lon="6.67139">
        <ele>1971</ele>
        <time>2022-08-16T10:33:59Z</time>
      </trkpt>
      <trkpt lat="45.77909" lon="6.67142">
        <ele>1972</ele>
        <time>2022-08-16T10:34:00Z</time>
      </trkpt>
      <trkpt lat="45.77909" lon="6.67145">
        <ele>1972</ele>
        <time>2022-08-16T10:34:01Z</time>
      </trkpt>
      <trkpt lat="45.77908" lon="6.67147">
        <ele>1973</ele>
        <time>2022-08-16T10:34:02Z</time>
      </trkpt>
      <trkpt lat="45.77908" lon="6.6715">
        <ele>1973</ele>
        <time>2022-08-16T10:34:03Z</time>
      </trkpt>
      <trkpt lat="45.77907" lon="6.67153">
        <ele>1974</ele>
        <time>2022-08-16T10:34:04Z</time>
      </trkpt>
      <trkpt lat="45.77907" lon="6.67157">
        <ele>1974</ele>
        <time>2022-08-16T10:34:05Z</time>
      </trkpt>
      <trkpt lat="45.77906" lon="6.6716">
        <ele>1974</ele>
        <time>2022-08-16T10:34:06Z</time>
      </trkpt>
      <trkpt lat="45.77905" lon="6.67162">
        <ele>1975</ele>
        <time>2022-08-16T10:34:07Z</time>
      </trkpt>
      <trkpt lat="45.77905" lon="6.67166">
        <ele>1975</ele>
        <time>2022-08-16T10:34:08Z</time>
      </trkpt>
      <trkpt lat="45.77904" lon="6.67168">
        <ele>1975</ele>
        <time>2022-08-16T10:34:09Z</time>
      </trkpt>
      <trkpt lat="45.77904" lon="6.67171">
        <ele>1976</ele>
        <time>2022-08-16T10:34:10Z</time>
      </trkpt>
      <trkpt lat="45.77904" lon="6.67174">
        <ele>1976</ele>
        <time>2022-08-16T10:34:11Z</time>
      </trkpt>
      <trkpt lat="45.77903" lon="6.67176">
        <ele>1976</ele>
        <time>2022-08-16T10:34:12Z</time>
      </trkpt>
      <trkpt lat="45.77904" lon="6.67179">
        <ele>1977</ele>
        <time>2022-08-16T10:34:13Z</time>
      </trkpt>
      <trkpt lat="45.77905" lon="6.67181">
        <ele>1977</ele>
        <time>2022-08-16T10:34:14Z</time>
      </trkpt>
      <trkpt lat="45.77906" lon="6.67183">
        <ele>1977</ele>
        <time>2022-08-16T10:34:15Z</time>
      </trkpt>
      <trkpt lat="45.77907" lon="6.67185">
        <ele>1977</ele>
        <time>2022-08-16T10:34:16Z</time>
      </trkpt>
      <trkpt lat="45.77908" lon="6.67186">
        <ele>1978</ele>
        <time>2022-08-16T10:34:17Z</time>
      </trkpt>
      <trkpt lat="45.77909" lon="6.67188">
        <ele>1977</ele>
        <time>2022-08-16T10:34:18Z</time>
      </trkpt>
      <trkpt lat="45.77911" lon="6.6719">
        <ele>1977</ele>
        <time>2022-08-16T10:34:19Z</time>
      </trkpt>
      <trkpt lat="45.77912" lon="6.67191">
        <ele>1977</ele>
        <time>2022-08-16T10:34:20Z</time>
      </trkpt>
      <trkpt lat="45.77914" lon="6.67191">
        <ele>1977</ele>
        <time>2022-08-16T10:34:21Z</time>
      </trkpt>
      <trkpt lat="45.77915" lon="6.67192">
        <ele>1977</ele>
        <time>2022-08-16T10:34:22Z</time>
      </trkpt>
      <trkpt lat="45.77916" lon="6.67193">
        <ele>1977</ele>
        <time>2022-08-16T10:34:23Z</time>
      </trkpt>
      <trkpt lat="45.77917" lon="6.67193">
        <ele>1977</ele>
        <time>2022-08-16T10:34:24Z</time>
      </trkpt>
      <trkpt lat="45.77918" lon="6.67194">
        <ele>1977</ele>
        <time>2022-08-16T10:34:25Z</time>
      </trkpt>
      <trkpt lat="45.7792" lon="6.67194">
        <ele>1977</ele>
        <time>2022-08-16T10:34:26Z</time>
      </trkpt>
      <trkpt lat="45.77922" lon="6.67195">
        <ele>1977</ele>
        <time>2022-08-16T10:34:27Z</time>
      </trkpt>
      <trkpt lat="45.77924" lon="6.67195">
        <ele>1977</ele>
        <time>2022-08-16T10:34:28Z</time>
      </trkpt>
      <trkpt lat="45.77925" lon="6.67195">
        <ele>1977</ele>
        <time>2022-08-16T10:34:29Z</time>
      </trkpt>
      <trkpt lat="45.77927" lon="6.67195">
        <ele>1977</ele>
        <time>2022-08-16T10:34:30Z</time>
      </trkpt>
      <trkpt lat="45.77929" lon="6.67195">
        <ele>1977</ele>
        <time>2022-08-16T10:34:31Z</time>
      </trkpt>
      <trkpt lat="45.77931" lon="6.67196">
        <ele>1977</ele>
        <time>2022-08-16T10:34:32Z</time>
      </trkpt>
      <trkpt lat="45.77932" lon="6.67196">
        <ele>1977</ele>
        <time>2022-08-16T10:34:33Z</time>
      </trkpt>
      <trkpt lat="45.77934" lon="6.67197">
        <ele>1977</ele>
        <time>2022-08-16T10:34:34Z</time>
      </trkpt>
      <trkpt lat="45.77936" lon="6.67197">
        <ele>1977</ele>
        <time>2022-08-16T10:34:35Z</time>
      </trkpt>
      <trkpt lat="45.77938" lon="6.67197">
        <ele>1977</ele>
        <time>2022-08-16T10:34:36Z</time>
      </trkpt>
      <trkpt lat="45.7794" lon="6.67197">
        <ele>1976</ele>
        <time>2022-08-16T10:34:37Z</time>
      </trkpt>
      <trkpt lat="45.77942" lon="6.67197">
        <ele>1977</ele>
        <time>2022-08-16T10:34:38Z</time>
      </trkpt>
      <trkpt lat="45.77944" lon="6.67196">
        <ele>1977</ele>
        <time>2022-08-16T10:34:39Z</time>
      </trkpt>
      <trkpt lat="45.77946" lon="6.67196">
        <ele>1977</ele>
        <time>2022-08-16T10:34:40Z</time>
      </trkpt>
      <trkpt lat="45.77948" lon="6.67195">
        <ele>1977</ele>
        <time>2022-08-16T10:34:41Z</time>
      </trkpt>
      <trkpt lat="45.7795" lon="6.67195">
        <ele>1977</ele>
        <time>2022-08-16T10:34:42Z</time>
      </trkpt>
      <trkpt lat="45.77952" lon="6.67194">
        <ele>1976</ele>
        <time>2022-08-16T10:34:43Z</time>
      </trkpt>
      <trkpt lat="45.77954" lon="6.67193">
        <ele>1976</ele>
        <time>2022-08-16T10:34:44Z</time>
      </trkpt>
      <trkpt lat="45.77956" lon="6.67192">
        <ele>1977</ele>
        <time>2022-08-16T10:34:45Z</time>
      </trkpt>
      <trkpt lat="45.77957" lon="6.67191">
        <ele>1977</ele>
        <time>2022-08-16T10:34:46Z</time>
      </trkpt>
      <trkpt lat="45.77959" lon="6.6719">
        <ele>1977</ele>
        <time>2022-08-16T10:34:47Z</time>
      </trkpt>
      <trkpt lat="45.7796" lon="6.67189">
        <ele>1977</ele>
        <time>2022-08-16T10:34:48Z</time>
      </trkpt>
      <trkpt lat="45.77962" lon="6.67188">
        <ele>1977</ele>
        <time>2022-08-16T10:34:49Z</time>
      </trkpt>
      <trkpt lat="45.77963" lon="6.67188">
        <ele>1977</ele>
        <time>2022-08-16T10:34:50Z</time>
      </trkpt>
      <trkpt lat="45.77964" lon="6.67187">
        <ele>1977</ele>
        <time>2022-08-16T10:34:51Z</time>
      </trkpt>
      <trkpt lat="45.77965" lon="6.67186">
        <ele>1977</ele>
        <time>2022-08-16T10:34:52Z</time>
      </trkpt>
      <trkpt lat="45.77967" lon="6.67186">
        <ele>1977</ele>
        <time>2022-08-16T10:34:53Z</time>
      </trkpt>
      <trkpt lat="45.77968" lon="6.67185">
        <ele>1977</ele>
        <time>2022-08-16T10:34:54Z</time>
      </trkpt>
      <trkpt lat="45.77969" lon="6.67183">
        <ele>1978</ele>
        <time>2022-08-16T10:34:55Z</time>
      </trkpt>
      <trkpt lat="45.77971" lon="6.67182">
        <ele>1978</ele>
        <time>2022-08-16T10:34:56Z</time>
      </trkpt>
      <trkpt lat="45.77973" lon="6.67181">
        <ele>1978</ele>
        <time>2022-08-16T10:34:57Z</time>
      </trkpt>
      <trkpt lat="45.77974" lon="6.6718">
        <ele>1979</ele>
        <time>2022-08-16T10:34:58Z</time>
      </trkpt>
      <trkpt lat="45.77976" lon="6.67179">
        <ele>1979</ele>
        <time>2022-08-16T10:34:59Z</time>
      </trkpt>
      <trkpt lat="45.77978" lon="6.67178">
        <ele>1980</ele>
        <time>2022-08-16T10:35:00Z</time>
      </trkpt>
      <trkpt lat="45.77979" lon="6.67177">
        <ele>1980</ele>
        <time>2022-08-16T10:35:01Z</time>
      </trkpt>
      <trkpt lat="45.77981" lon="6.67177">
        <ele>1980</ele>
        <time>2022-08-16T10:35:02Z</time>
      </trkpt>
      <trkpt lat="45.77983" lon="6.67177">
        <ele>1980</ele>
        <time>2022-08-16T10:35:03Z</time>
      </trkpt>
      <trkpt lat="45.77985" lon="6.67176">
        <ele>1981</ele>
        <time>2022-08-16T10:35:04Z</time>
      </trkpt>
      <trkpt lat="45.77987" lon="6.67175">
        <ele>1981</ele>
        <time>2022-08-16T10:35:05Z</time>
      </trkpt>
      <trkpt lat="45.77989" lon="6.67175">
        <ele>1982</ele>
        <time>2022-08-16T10:35:06Z</time>
      </trkpt>
      <trkpt lat="45.7799" lon="6.67175">
        <ele>1982</ele>
        <time>2022-08-16T10:35:07Z</time>
      </trkpt>
      <trkpt lat="45.77992" lon="6.67175">
        <ele>1983</ele>
        <time>2022-08-16T10:35:08Z</time>
      </trkpt>
      <trkpt lat="45.77994" lon="6.67176">
        <ele>1983</ele>
        <time>2022-08-16T10:35:09Z</time>
      </trkpt>
      <trkpt lat="45.77996" lon="6.67177">
        <ele>1983</ele>
        <time>2022-08-16T10:35:10Z</time>
      </trkpt>
      <trkpt lat="45.77998" lon="6.67178">
        <ele>1983</ele>
        <time>2022-08-16T10:35:11Z</time>
      </trkpt>
      <trkpt lat="45.77999" lon="6.67179">
        <ele>1983</ele>
        <time>2022-08-16T10:35:12Z</time>
      </trkpt>
      <trkpt lat="45.78001" lon="6.6718">
        <ele>1983</ele>
        <time>2022-08-16T10:35:13Z</time>
      </trkpt>
      <trkpt lat="45.78003" lon="6.67181">
        <ele>1984</ele>
        <time>2022-08-16T10:35:14Z</time>
      </trkpt>
      <trkpt lat="45.78004" lon="6.67182">
        <ele>1983</ele>
        <time>2022-08-16T10:35:15Z</time>
      </trkpt>
      <trkpt lat="45.78006" lon="6.67184">
        <ele>1983</ele>
        <time>2022-08-16T10:35:16Z</time>
      </trkpt>
      <trkpt lat="45.78008" lon="6.67185">
        <ele>1984</ele>
        <time>2022-08-16T10:35:17Z</time>
      </trkpt>
      <trkpt lat="45.7801" lon="6.67187">
        <ele>1984</ele>
        <time>2022-08-16T10:35:18Z</time>
      </trkpt>
      <trkpt lat="45.78011" lon="6.67189">
        <ele>1984</ele>
        <time>2022-08-16T10:35:19Z</time>
      </trkpt>
      <trkpt lat="45.78013" lon="6.67191">
        <ele>1985</ele>
        <time>2022-08-16T10:35:20Z</time>
      </trkpt>
      <trkpt lat="45.78015" lon="6.67193">
        <ele>1985</ele>
        <time>2022-08-16T10:35:21Z</time>
      </trkpt>
      <trkpt lat="45.78016" lon="6.67195">
        <ele>1986</ele>
        <time>2022-08-16T10:35:22Z</time>
      </trkpt>
      <trkpt lat="45.78018" lon="6.67197">
        <ele>1986</ele>
        <time>2022-08-16T10:35:23Z</time>
      </trkpt>
      <trkpt lat="45.78019" lon="6.672">
        <ele>1986</ele>
        <time>2022-08-16T10:35:24Z</time>
      </trkpt>
      <trkpt lat="45.78021" lon="6.67201">
        <ele>1986</ele>
        <time>2022-08-16T10:35:25Z</time>
      </trkpt>
      <trkpt lat="45.78023" lon="6.67204">
        <ele>1986</ele>
        <time>2022-08-16T10:35:26Z</time>
      </trkpt>
      <trkpt lat="45.78025" lon="6.67205">
        <ele>1987</ele>
        <time>2022-08-16T10:35:27Z</time>
      </trkpt>
      <trkpt lat="45.78027" lon="6.67206">
        <ele>1987</ele>
        <time>2022-08-16T10:35:28Z</time>
      </trkpt>
      <trkpt lat="45.78029" lon="6.67207">
        <ele>1988</ele>
        <time>2022-08-16T10:35:29Z</time>
      </trkpt>
      <trkpt lat="45.78032" lon="6.67207">
        <ele>1988</ele>
        <time>2022-08-16T10:35:30Z</time>
      </trkpt>
      <trkpt lat="45.78034" lon="6.67207">
        <ele>1988</ele>
        <time>2022-08-16T10:35:31Z</time>
      </trkpt>
      <trkpt lat="45.78036" lon="6.67208">
        <ele>1988</ele>
        <time>2022-08-16T10:35:32Z</time>
      </trkpt>
      <trkpt lat="45.78038" lon="6.67208">
        <ele>1988</ele>
        <time>2022-08-16T10:35:33Z</time>
      </trkpt>
      <trkpt lat="45.7804" lon="6.67209">
        <ele>1988</ele>
        <time>2022-08-16T10:35:34Z</time>
      </trkpt>
      <trkpt lat="45.78042" lon="6.67209">
        <ele>1988</ele>
        <time>2022-08-16T10:35:35Z</time>
      </trkpt>
      <trkpt lat="45.78044" lon="6.67208">
        <ele>1988</ele>
        <time>2022-08-16T10:35:36Z</time>
      </trkpt>
      <trkpt lat="45.78046" lon="6.67208">
        <ele>1988</ele>
        <time>2022-08-16T10:35:37Z</time>
      </trkpt>
      <trkpt lat="45.78048" lon="6.67207">
        <ele>1989</ele>
        <time>2022-08-16T10:35:38Z</time>
      </trkpt>
      <trkpt lat="45.7805" lon="6.67207">
        <ele>1989</ele>
        <time>2022-08-16T10:35:39Z</time>
      </trkpt>
      <trkpt lat="45.78052" lon="6.67207">
        <ele>1989</ele>
        <time>2022-08-16T10:35:40Z</time>
      </trkpt>
      <trkpt lat="45.78054" lon="6.67206">
        <ele>1989</ele>
        <time>2022-08-16T10:35:41Z</time>
      </trkpt>
      <trkpt lat="45.78056" lon="6.67206">
        <ele>1989</ele>
        <time>2022-08-16T10:35:42Z</time>
      </trkpt>
      <trkpt lat="45.78058" lon="6.67206">
        <ele>1989</ele>
        <time>2022-08-16T10:35:43Z</time>
      </trkpt>
      <trkpt lat="45.7806" lon="6.67206">
        <ele>1989</ele>
        <time>2022-08-16T10:35:44Z</time>
      </trkpt>
      <trkpt lat="45.78062" lon="6.67206">
        <ele>1989</ele>
        <time>2022-08-16T10:35:45Z</time>
      </trkpt>
      <trkpt lat="45.78064" lon="6.67206">
        <ele>1989</ele>
        <time>2022-08-16T10:35:46Z</time>
      </trkpt>
      <trkpt lat="45.78066" lon="6.67206">
        <ele>1989</ele>
        <time>2022-08-16T10:35:47Z</time>
      </trkpt>
      <trkpt lat="45.78068" lon="6.67206">
        <ele>1990</ele>
        <time>2022-08-16T10:35:48Z</time>
      </trkpt>
      <trkpt lat="45.7807" lon="6.67205">
        <ele>1990</ele>
        <time>2022-08-16T10:35:49Z</time>
      </trkpt>
      <trkpt lat="45.78072" lon="6.67205">
        <ele>1990</ele>
        <time>2022-08-16T10:35:50Z</time>
      </trkpt>
      <trkpt lat="45.78073" lon="6.67205">
        <ele>1991</ele>
        <time>2022-08-16T10:35:51Z</time>
      </trkpt>
      <trkpt lat="45.78075" lon="6.67205">
        <ele>1991</ele>
        <time>2022-08-16T10:35:52Z</time>
      </trkpt>
      <trkpt lat="45.78077" lon="6.67205">
        <ele>1991</ele>
        <time>2022-08-16T10:35:53Z</time>
      </trkpt>
      <trkpt lat="45.78079" lon="6.67205">
        <ele>1991</ele>
        <time>2022-08-16T10:35:54Z</time>
      </trkpt>
      <trkpt lat="45.78081" lon="6.67205">
        <ele>1991</ele>
        <time>2022-08-16T10:35:55Z</time>
      </trkpt>
      <trkpt lat="45.78083" lon="6.67205">
        <ele>1992</ele>
        <time>2022-08-16T10:35:56Z</time>
      </trkpt>
      <trkpt lat="45.78085" lon="6.67205">
        <ele>1992</ele>
        <time>2022-08-16T10:35:57Z</time>
      </trkpt>
      <trkpt lat="45.78086" lon="6.67205">
        <ele>1992</ele>
        <time>2022-08-16T10:35:58Z</time>
      </trkpt>
      <trkpt lat="45.78088" lon="6.67206">
        <ele>1992</ele>
        <time>2022-08-16T10:35:59Z</time>
      </trkpt>
      <trkpt lat="45.7809" lon="6.67206">
        <ele>1993</ele>
        <time>2022-08-16T10:36:00Z</time>
      </trkpt>
      <trkpt lat="45.78092" lon="6.67207">
        <ele>1993</ele>
        <time>2022-08-16T10:36:01Z</time>
      </trkpt>
      <trkpt lat="45.78094" lon="6.67208">
        <ele>1994</ele>
        <time>2022-08-16T10:36:02Z</time>
      </trkpt>
      <trkpt lat="45.78095" lon="6.67209">
        <ele>1994</ele>
        <time>2022-08-16T10:36:03Z</time>
      </trkpt>
      <trkpt lat="45.78097" lon="6.6721">
        <ele>1994</ele>
        <time>2022-08-16T10:36:04Z</time>
      </trkpt>
      <trkpt lat="45.78099" lon="6.6721">
        <ele>1994</ele>
        <time>2022-08-16T10:36:05Z</time>
      </trkpt>
      <trkpt lat="45.78101" lon="6.67212">
        <ele>1994</ele>
        <time>2022-08-16T10:36:06Z</time>
      </trkpt>
      <trkpt lat="45.78103" lon="6.67213">
        <ele>1994</ele>
        <time>2022-08-16T10:36:07Z</time>
      </trkpt>
      <trkpt lat="45.78105" lon="6.67215">
        <ele>1994</ele>
        <time>2022-08-16T10:36:08Z</time>
      </trkpt>
      <trkpt lat="45.78106" lon="6.67217">
        <ele>1994</ele>
        <time>2022-08-16T10:36:09Z</time>
      </trkpt>
      <trkpt lat="45.78108" lon="6.67218">
        <ele>1994</ele>
        <time>2022-08-16T10:36:10Z</time>
      </trkpt>
      <trkpt lat="45.7811" lon="6.6722">
        <ele>1995</ele>
        <time>2022-08-16T10:36:11Z</time>
      </trkpt>
      <trkpt lat="45.78111" lon="6.67222">
        <ele>1995</ele>
        <time>2022-08-16T10:36:12Z</time>
      </trkpt>
      <trkpt lat="45.78113" lon="6.67225">
        <ele>1995</ele>
        <time>2022-08-16T10:36:13Z</time>
      </trkpt>
      <trkpt lat="45.78114" lon="6.67227">
        <ele>1995</ele>
        <time>2022-08-16T10:36:14Z</time>
      </trkpt>
      <trkpt lat="45.78116" lon="6.6723">
        <ele>1995</ele>
        <time>2022-08-16T10:36:15Z</time>
      </trkpt>
      <trkpt lat="45.78117" lon="6.67232">
        <ele>1995</ele>
        <time>2022-08-16T10:36:16Z</time>
      </trkpt>
      <trkpt lat="45.78118" lon="6.67234">
        <ele>1996</ele>
        <time>2022-08-16T10:36:17Z</time>
      </trkpt>
      <trkpt lat="45.7812" lon="6.67236">
        <ele>1996</ele>
        <time>2022-08-16T10:36:18Z</time>
      </trkpt>
      <trkpt lat="45.78121" lon="6.67239">
        <ele>1997</ele>
        <time>2022-08-16T10:36:19Z</time>
      </trkpt>
      <trkpt lat="45.78122" lon="6.67241">
        <ele>1997</ele>
        <time>2022-08-16T10:36:20Z</time>
      </trkpt>
      <trkpt lat="45.78124" lon="6.67244">
        <ele>1997</ele>
        <time>2022-08-16T10:36:21Z</time>
      </trkpt>
      <trkpt lat="45.78126" lon="6.67246">
        <ele>1997</ele>
        <time>2022-08-16T10:36:22Z</time>
      </trkpt>
      <trkpt lat="45.78127" lon="6.67248">
        <ele>1997</ele>
        <time>2022-08-16T10:36:23Z</time>
      </trkpt>
      <trkpt lat="45.78128" lon="6.67251">
        <ele>1997</ele>
        <time>2022-08-16T10:36:24Z</time>
      </trkpt>
      <trkpt lat="45.78129" lon="6.67254">
        <ele>1997</ele>
        <time>2022-08-16T10:36:25Z</time>
      </trkpt>
      <trkpt lat="45.78131" lon="6.67256">
        <ele>1997</ele>
        <time>2022-08-16T10:36:26Z</time>
      </trkpt>
      <trkpt lat="45.78132" lon="6.67259">
        <ele>1997</ele>
        <time>2022-08-16T10:36:27Z</time>
      </trkpt>
      <trkpt lat="45.78133" lon="6.67262">
        <ele>1997</ele>
        <time>2022-08-16T10:36:28Z</time>
      </trkpt>
      <trkpt lat="45.78133" lon="6.67265">
        <ele>1997</ele>
        <time>2022-08-16T10:36:29Z</time>
      </trkpt>
      <trkpt lat="45.78134" lon="6.67268">
        <ele>1997</ele>
        <time>2022-08-16T10:36:30Z</time>
      </trkpt>
      <trkpt lat="45.78136" lon="6.67272">
        <ele>1998</ele>
        <time>2022-08-16T10:36:31Z</time>
      </trkpt>
      <trkpt lat="45.78137" lon="6.67274">
        <ele>1998</ele>
        <time>2022-08-16T10:36:32Z</time>
      </trkpt>
      <trkpt lat="45.78138" lon="6.67276">
        <ele>1998</ele>
        <time>2022-08-16T10:36:33Z</time>
      </trkpt>
      <trkpt lat="45.78139" lon="6.67279">
        <ele>1998</ele>
        <time>2022-08-16T10:36:34Z</time>
      </trkpt>
      <trkpt lat="45.7814" lon="6.67282">
        <ele>1998</ele>
        <time>2022-08-16T10:36:35Z</time>
      </trkpt>
      <trkpt lat="45.78141" lon="6.67284">
        <ele>1998</ele>
        <time>2022-08-16T10:36:36Z</time>
      </trkpt>
      <trkpt lat="45.78142" lon="6.67287">
        <ele>1998</ele>
        <time>2022-08-16T10:36:37Z</time>
      </trkpt>
      <trkpt lat="45.78143" lon="6.6729">
        <ele>1998</ele>
        <time>2022-08-16T10:36:38Z</time>
      </trkpt>
      <trkpt lat="45.78145" lon="6.67292">
        <ele>1998</ele>
        <time>2022-08-16T10:36:39Z</time>
      </trkpt>
      <trkpt lat="45.78146" lon="6.67295">
        <ele>1998</ele>
        <time>2022-08-16T10:36:40Z</time>
      </trkpt>
      <trkpt lat="45.78147" lon="6.67298">
        <ele>1998</ele>
        <time>2022-08-16T10:36:41Z</time>
      </trkpt>
      <trkpt lat="45.78149" lon="6.673">
        <ele>1998</ele>
        <time>2022-08-16T10:36:42Z</time>
      </trkpt>
      <trkpt lat="45.7815" lon="6.67302">
        <ele>1998</ele>
        <time>2022-08-16T10:36:43Z</time>
      </trkpt>
      <trkpt lat="45.78152" lon="6.67303">
        <ele>1998</ele>
        <time>2022-08-16T10:36:44Z</time>
      </trkpt>
      <trkpt lat="45.78153" lon="6.67304">
        <ele>1998</ele>
        <time>2022-08-16T10:36:45Z</time>
      </trkpt>
      <trkpt lat="45.78153" lon="6.67304">
        <ele>1998</ele>
        <time>2022-08-16T10:36:46Z</time>
      </trkpt>
      <trkpt lat="45.78153" lon="6.67304">
        <ele>1998</ele>
        <time>2022-08-16T10:36:47Z</time>
      </trkpt>
      <trkpt lat="45.78153" lon="6.67304">
        <ele>1998</ele>
        <time>2022-08-16T10:36:48Z</time>
      </trkpt>
      <trkpt lat="45.78153" lon="6.67304">
        <ele>1998</ele>
        <time>2022-08-16T10:36:49Z</time>
      </trkpt>
      <trkpt lat="45.78153" lon="6.67304">
        <ele>1998</ele>
        <time>2022-08-16T10:36:50Z</time>
      </trkpt>
      <trkpt lat="45.78153" lon="6.67305">
        <ele>1998</ele>
        <time>2022-08-16T10:36:51Z</time>
      </trkpt>
      <trkpt lat="45.78153" lon="6.67305">
        <ele>1999</ele>
        <time>2022-08-16T10:36:52Z</time>
      </trkpt>
      <trkpt lat="45.78153" lon="6.67305">
        <ele>1999</ele>
        <time>2022-08-16T10:36:53Z</time>
      </trkpt>
      <trkpt lat="45.78152" lon="6.67306">
        <ele>2000</ele>
        <time>2022-08-16T10:36:55Z</time>
      </trkpt>
      <trkpt lat="45.78152" lon="6.67306">
        <ele>2001</ele>
        <time>2022-08-16T10:36:56Z</time>
      </trkpt>
      <trkpt lat="45.78151" lon="6.67306">
        <ele>2001</ele>
        <time>2022-08-16T10:36:57Z</time>
      </trkpt>
      <trkpt lat="45.78151" lon="6.67306">
        <ele>2001</ele>
        <time>2022-08-16T10:36:58Z</time>
      </trkpt>
      <trkpt lat="45.78151" lon="6.67306">
        <ele>2001</ele>
        <time>2022-08-16T10:36:59Z</time>
      </trkpt>
      <trkpt lat="45.78151" lon="6.67306">
        <ele>2001</ele>
        <time>2022-08-16T10:37:03Z</time>
      </trkpt>
      <trkpt lat="45.78151" lon="6.67306">
        <ele>2001</ele>
        <time>2022-08-16T10:37:07Z</time>
      </trkpt>
      <trkpt lat="45.78151" lon="6.67306">
        <ele>2001</ele>
        <time>2022-08-16T10:37:11Z</time>
      </trkpt>
      <trkpt lat="45.78151" lon="6.67306">
        <ele>2001</ele>
        <time>2022-08-16T10:37:15Z</time>
      </trkpt>
      <trkpt lat="45.7815" lon="6.67306">
        <ele>2003</ele>
        <time>2022-08-16T10:37:16Z</time>
      </trkpt>
      <trkpt lat="45.7815" lon="6.67306">
        <ele>2003</ele>
        <time>2022-08-16T10:37:17Z</time>
      </trkpt>
      <trkpt lat="45.7815" lon="6.67306">
        <ele>2003</ele>
        <time>2022-08-16T10:37:18Z</time>
      </trkpt>
      <trkpt lat="45.7815" lon="6.67306">
        <ele>2004</ele>
        <time>2022-08-16T10:37:19Z</time>
      </trkpt>
      <trkpt lat="45.7815" lon="6.67306">
        <ele>2006</ele>
        <time>2022-08-16T10:37:21Z</time>
      </trkpt>
      <trkpt lat="45.7815" lon="6.67306">
        <ele>2006</ele>
        <time>2022-08-16T10:37:22Z</time>
      </trkpt>
      <trkpt lat="45.7815" lon="6.67305">
        <ele>2007</ele>
        <time>2022-08-16T10:37:23Z</time>
      </trkpt>
      <trkpt lat="45.7815" lon="6.67305">
        <ele>2007</ele>
        <time>2022-08-16T10:37:24Z</time>
      </trkpt>
      <trkpt lat="45.7815" lon="6.67305">
        <ele>2007</ele>
        <time>2022-08-16T10:37:25Z</time>
      </trkpt>
      <trkpt lat="45.7815" lon="6.67305">
        <ele>2007</ele>
        <time>2022-08-16T10:37:26Z</time>
      </trkpt>
      <trkpt lat="45.7815" lon="6.67305">
        <ele>2007</ele>
        <time>2022-08-16T10:37:30Z</time>
      </trkpt>
      <trkpt lat="45.7815" lon="6.67305">
        <ele>2007</ele>
        <time>2022-08-16T10:37:34Z</time>
      </trkpt>
      <trkpt lat="45.7815" lon="6.67305">
        <ele>2007</ele>
        <time>2022-08-16T10:37:38Z</time>
      </trkpt>
      <trkpt lat="45.78567" lon="6.67423">
        <ele>2047</ele>
        <time>2022-08-16T10:45:52.998Z</time>
      </trkpt>
      <trkpt lat="45.78558" lon="6.67434">
        <ele>2046</ele>
        <time>2022-08-16T10:45:53.995Z</time>
      </trkpt>
      <trkpt lat="45.78553" lon="6.67431">
        <ele>2035</ele>
        <time>2022-08-16T10:45:55.001Z</time>
      </trkpt>
      <trkpt lat="45.78555" lon="6.67433">
        <ele>2046</ele>
        <time>2022-08-16T10:45:57Z</time>
      </trkpt>
      <trkpt lat="45.78555" lon="6.67433">
        <ele>2046</ele>
        <time>2022-08-16T10:45:58Z</time>
      </trkpt>
      <trkpt lat="45.78555" lon="6.67433">
        <ele>2046</ele>
        <time>2022-08-16T10:46:02Z</time>
      </trkpt>
      <trkpt lat="45.78555" lon="6.67433">
        <ele>2046</ele>
        <time>2022-08-16T10:46:06Z</time>
      </trkpt>
      <trkpt lat="45.78555" lon="6.67433">
        <ele>2046</ele>
        <time>2022-08-16T10:46:10Z</time>
      </trkpt>
      <trkpt lat="45.78555" lon="6.67433">
        <ele>2046</ele>
        <time>2022-08-16T10:46:14Z</time>
      </trkpt>
      <trkpt lat="45.78555" lon="6.67433">
        <ele>2046</ele>
        <time>2022-08-16T10:46:18Z</time>
      </trkpt>
      <trkpt lat="45.78555" lon="6.67433">
        <ele>2046</ele>
        <time>2022-08-16T10:46:22Z</time>
      </trkpt>
      <trkpt lat="45.78555" lon="6.67433">
        <ele>2046</ele>
        <time>2022-08-16T10:46:26Z</time>
      </trkpt>
      <trkpt lat="45.78555" lon="6.67433">
        <ele>2046</ele>
        <time>2022-08-16T10:46:30Z</time>
      </trkpt>
      <trkpt lat="45.78555" lon="6.67433">
        <ele>2046</ele>
        <time>2022-08-16T10:46:34Z</time>
      </trkpt>
      <trkpt lat="45.78555" lon="6.67433">
        <ele>2046</ele>
        <time>2022-08-16T10:46:38Z</time>
      </trkpt>
      <trkpt lat="45.78555" lon="6.67433">
        <ele>2046</ele>
        <time>2022-08-16T10:46:42Z</time>
      </trkpt>
      <trkpt lat="45.78555" lon="6.67435">
        <ele>2046</ele>
        <time>2022-08-16T10:46:43Z</time>
      </trkpt>
      <trkpt lat="45.78556" lon="6.67436">
        <ele>2045</ele>
        <time>2022-08-16T10:46:44Z</time>
      </trkpt>
      <trkpt lat="45.78557" lon="6.67436">
        <ele>2045</ele>
        <time>2022-08-16T10:46:45Z</time>
      </trkpt>
      <trkpt lat="45.78558" lon="6.67437">
        <ele>2044</ele>
        <time>2022-08-16T10:46:46Z</time>
      </trkpt>
      <trkpt lat="45.78558" lon="6.67437">
        <ele>2044</ele>
        <time>2022-08-16T10:46:50Z</time>
      </trkpt>
      <trkpt lat="45.78558" lon="6.67437">
        <ele>2044</ele>
        <time>2022-08-16T10:46:54Z</time>
      </trkpt>
      <trkpt lat="45.7856" lon="6.67439">
        <ele>2043</ele>
        <time>2022-08-16T10:46:57Z</time>
      </trkpt>
      <trkpt lat="45.78561" lon="6.67439">
        <ele>2042</ele>
        <time>2022-08-16T10:46:58Z</time>
      </trkpt>
      <trkpt lat="45.78561" lon="6.67439">
        <ele>2042</ele>
        <time>2022-08-16T10:46:59Z</time>
      </trkpt>
      <trkpt lat="45.78561" lon="6.6744">
        <ele>2042</ele>
        <time>2022-08-16T10:47:00Z</time>
      </trkpt>
      <trkpt lat="45.78561" lon="6.6744">
        <ele>2042</ele>
        <time>2022-08-16T10:47:01Z</time>
      </trkpt>
      <trkpt lat="45.78561" lon="6.67439">
        <ele>2042</ele>
        <time>2022-08-16T10:47:02Z</time>
      </trkpt>
      <trkpt lat="45.78561" lon="6.67439">
        <ele>2043</ele>
        <time>2022-08-16T10:47:03Z</time>
      </trkpt>
      <trkpt lat="45.78561" lon="6.67439">
        <ele>2043</ele>
        <time>2022-08-16T10:47:04Z</time>
      </trkpt>
      <trkpt lat="45.78561" lon="6.67437">
        <ele>2042</ele>
        <time>2022-08-16T10:47:07Z</time>
      </trkpt>
      <trkpt lat="45.78561" lon="6.67438">
        <ele>2042</ele>
        <time>2022-08-16T10:47:08Z</time>
      </trkpt>
      <trkpt lat="45.7856" lon="6.67438">
        <ele>2042</ele>
        <time>2022-08-16T10:47:09Z</time>
      </trkpt>
      <trkpt lat="45.7856" lon="6.67437">
        <ele>2043</ele>
        <time>2022-08-16T10:47:10Z</time>
      </trkpt>
      <trkpt lat="45.7856" lon="6.67437">
        <ele>2043</ele>
        <time>2022-08-16T10:47:14Z</time>
      </trkpt>
      <trkpt lat="45.7856" lon="6.67437">
        <ele>2043</ele>
        <time>2022-08-16T10:47:18Z</time>
      </trkpt>
      <trkpt lat="45.7856" lon="6.67437">
        <ele>2043</ele>
        <time>2022-08-16T10:47:22Z</time>
      </trkpt>
      <trkpt lat="45.7856" lon="6.67437">
        <ele>2043</ele>
        <time>2022-08-16T10:47:26Z</time>
      </trkpt>
      <trkpt lat="45.7856" lon="6.67437">
        <ele>2043</ele>
        <time>2022-08-16T10:47:30Z</time>
      </trkpt>
      <trkpt lat="45.7856" lon="6.67437">
        <ele>2043</ele>
        <time>2022-08-16T10:47:34Z</time>
      </trkpt>
      <trkpt lat="45.7856" lon="6.67437">
        <ele>2043</ele>
        <time>2022-08-16T10:47:38Z</time>
      </trkpt>
      <trkpt lat="45.7856" lon="6.67437">
        <ele>2043</ele>
        <time>2022-08-16T10:47:42Z</time>
      </trkpt>
      <trkpt lat="45.7856" lon="6.67437">
        <ele>2043</ele>
        <time>2022-08-16T10:47:46Z</time>
      </trkpt>
      <trkpt lat="45.7856" lon="6.67437">
        <ele>2043</ele>
        <time>2022-08-16T10:47:50Z</time>
      </trkpt>
      <trkpt lat="45.7856" lon="6.67437">
        <ele>2043</ele>
        <time>2022-08-16T10:47:54Z</time>
      </trkpt>
      <trkpt lat="45.7856" lon="6.67437">
        <ele>2043</ele>
        <time>2022-08-16T10:47:58Z</time>
      </trkpt>
      <trkpt lat="45.7856" lon="6.67437">
        <ele>2043</ele>
        <time>2022-08-16T10:48:02Z</time>
      </trkpt>
      <trkpt lat="45.7856" lon="6.67436">
        <ele>2044</ele>
        <time>2022-08-16T10:48:05Z</time>
      </trkpt>
      <trkpt lat="45.7856" lon="6.67436">
        <ele>2044</ele>
        <time>2022-08-16T10:48:06Z</time>
      </trkpt>
      <trkpt lat="45.7856" lon="6.67437">
        <ele>2044</ele>
        <time>2022-08-16T10:48:07Z</time>
      </trkpt>
      <trkpt lat="45.7856" lon="6.67437">
        <ele>2044</ele>
        <time>2022-08-16T10:48:08Z</time>
      </trkpt>
      <trkpt lat="45.78559" lon="6.67437">
        <ele>2043</ele>
        <time>2022-08-16T10:48:09Z</time>
      </trkpt>
      <trkpt lat="45.78559" lon="6.67438">
        <ele>2043</ele>
        <time>2022-08-16T10:48:10Z</time>
      </trkpt>
      <trkpt lat="45.78559" lon="6.67439">
        <ele>2042</ele>
        <time>2022-08-16T10:48:11Z</time>
      </trkpt>
      <trkpt lat="45.78559" lon="6.6744">
        <ele>2042</ele>
        <time>2022-08-16T10:48:12Z</time>
      </trkpt>
      <trkpt lat="45.78559" lon="6.6744">
        <ele>2043</ele>
        <time>2022-08-16T10:48:13Z</time>
      </trkpt>
      <trkpt lat="45.7856" lon="6.6744">
        <ele>2044</ele>
        <time>2022-08-16T10:48:14Z</time>
      </trkpt>
      <trkpt lat="45.7856" lon="6.67441">
        <ele>2043</ele>
        <time>2022-08-16T10:48:17Z</time>
      </trkpt>
      <trkpt lat="45.7856" lon="6.67441">
        <ele>2043</ele>
        <time>2022-08-16T10:48:18Z</time>
      </trkpt>
      <trkpt lat="45.7856" lon="6.67441">
        <ele>2042</ele>
        <time>2022-08-16T10:48:19Z</time>
      </trkpt>
      <trkpt lat="45.78561" lon="6.67441">
        <ele>2043</ele>
        <time>2022-08-16T10:48:20Z</time>
      </trkpt>
      <trkpt lat="45.78561" lon="6.67441">
        <ele>2043</ele>
        <time>2022-08-16T10:48:24Z</time>
      </trkpt>
      <trkpt lat="45.78561" lon="6.67441">
        <ele>2043</ele>
        <time>2022-08-16T10:48:28Z</time>
      </trkpt>
      <trkpt lat="45.78561" lon="6.67441">
        <ele>2043</ele>
        <time>2022-08-16T10:48:32Z</time>
      </trkpt>
      <trkpt lat="45.78561" lon="6.67441">
        <ele>2043</ele>
        <time>2022-08-16T10:48:36Z</time>
      </trkpt>
      <trkpt lat="45.78561" lon="6.67441">
        <ele>2043</ele>
        <time>2022-08-16T10:48:40Z</time>
      </trkpt>
      <trkpt lat="45.78561" lon="6.67441">
        <ele>2043</ele>
        <time>2022-08-16T10:48:44Z</time>
      </trkpt>
      <trkpt lat="45.78561" lon="6.67441">
        <ele>2043</ele>
        <time>2022-08-16T10:48:48Z</time>
      </trkpt>
      <trkpt lat="45.78561" lon="6.67441">
        <ele>2043</ele>
        <time>2022-08-16T10:48:52Z</time>
      </trkpt>
      <trkpt lat="45.78561" lon="6.67441">
        <ele>2043</ele>
        <time>2022-08-16T10:48:56Z</time>
      </trkpt>
      <trkpt lat="45.78561" lon="6.67441">
        <ele>2043</ele>
        <time>2022-08-16T10:49:00Z</time>
      </trkpt>
      <trkpt lat="45.78561" lon="6.67441">
        <ele>2043</ele>
        <time>2022-08-16T10:49:04Z</time>
      </trkpt>
      <trkpt lat="45.78561" lon="6.67441">
        <ele>2043</ele>
        <time>2022-08-16T10:49:08Z</time>
      </trkpt>
      <trkpt lat="45.78561" lon="6.67441">
        <ele>2043</ele>
        <time>2022-08-16T10:49:12Z</time>
      </trkpt>
      <trkpt lat="45.78561" lon="6.67441">
        <ele>2043</ele>
        <time>2022-08-16T10:49:16Z</time>
      </trkpt>
      <trkpt lat="45.78561" lon="6.67441">
        <ele>2043</ele>
        <time>2022-08-16T10:49:20Z</time>
      </trkpt>
      <trkpt lat="45.78561" lon="6.67441">
        <ele>2043</ele>
        <time>2022-08-16T10:49:24Z</time>
      </trkpt>
      <trkpt lat="45.78561" lon="6.67441">
        <ele>2043</ele>
        <time>2022-08-16T10:49:28Z</time>
      </trkpt>
      <trkpt lat="45.78561" lon="6.67441">
        <ele>2043</ele>
        <time>2022-08-16T10:49:32Z</time>
      </trkpt>
      <trkpt lat="45.78561" lon="6.67441">
        <ele>2043</ele>
        <time>2022-08-16T10:49:36Z</time>
      </trkpt>
      <trkpt lat="45.78561" lon="6.67441">
        <ele>2043</ele>
        <time>2022-08-16T10:49:40Z</time>
      </trkpt>
      <trkpt lat="45.78561" lon="6.67441">
        <ele>2043</ele>
        <time>2022-08-16T10:49:44Z</time>
      </trkpt>
      <trkpt lat="45.78561" lon="6.67441">
        <ele>2043</ele>
        <time>2022-08-16T10:49:48Z</time>
      </trkpt>
      <trkpt lat="45.78561" lon="6.67441">
        <ele>2043</ele>
        <time>2022-08-16T10:49:52Z</time>
      </trkpt>
      <trkpt lat="45.78561" lon="6.67441">
        <ele>2043</ele>
        <time>2022-08-16T10:49:56Z</time>
      </trkpt>
      <trkpt lat="45.78561" lon="6.67441">
        <ele>2043</ele>
        <time>2022-08-16T10:50:00Z</time>
      </trkpt>
      <trkpt lat="45.78561" lon="6.67441">
        <ele>2043</ele>
        <time>2022-08-16T10:50:04Z</time>
      </trkpt>
      <trkpt lat="45.78561" lon="6.67441">
        <ele>2043</ele>
        <time>2022-08-16T10:50:08Z</time>
      </trkpt>
      <trkpt lat="45.78561" lon="6.67441">
        <ele>2043</ele>
        <time>2022-08-16T10:50:12Z</time>
      </trkpt>
      <trkpt lat="45.78561" lon="6.67441">
        <ele>2043</ele>
        <time>2022-08-16T10:50:16Z</time>
      </trkpt>
      <trkpt lat="45.78561" lon="6.67441">
        <ele>2043</ele>
        <time>2022-08-16T10:50:20Z</time>
      </trkpt>
      <trkpt lat="45.78561" lon="6.67441">
        <ele>2043</ele>
        <time>2022-08-16T10:50:24Z</time>
      </trkpt>
      <trkpt lat="45.78561" lon="6.67441">
        <ele>2043</ele>
        <time>2022-08-16T10:50:28Z</time>
      </trkpt>
      <trkpt lat="45.78561" lon="6.67441">
        <ele>2043</ele>
        <time>2022-08-16T10:50:32Z</time>
      </trkpt>
      <trkpt lat="45.78561" lon="6.67441">
        <ele>2043</ele>
        <time>2022-08-16T10:50:36Z</time>
      </trkpt>
      <trkpt lat="45.78561" lon="6.67441">
        <ele>2043</ele>
        <time>2022-08-16T10:50:40Z</time>
      </trkpt>
      <trkpt lat="45.78561" lon="6.67441">
        <ele>2043</ele>
        <time>2022-08-16T10:50:44Z</time>
      </trkpt>
      <trkpt lat="45.78561" lon="6.67441">
        <ele>2043</ele>
        <time>2022-08-16T10:50:48Z</time>
      </trkpt>
      <trkpt lat="45.78561" lon="6.67441">
        <ele>2043</ele>
        <time>2022-08-16T10:50:52Z</time>
      </trkpt>
      <trkpt lat="45.78561" lon="6.67441">
        <ele>2043</ele>
        <time>2022-08-16T10:50:56Z</time>
      </trkpt>
      <trkpt lat="45.78561" lon="6.67441">
        <ele>2043</ele>
        <time>2022-08-16T10:51:00Z</time>
      </trkpt>
      <trkpt lat="45.78561" lon="6.67441">
        <ele>2043</ele>
        <time>2022-08-16T10:51:04Z</time>
      </trkpt>
      <trkpt lat="45.78561" lon="6.67441">
        <ele>2043</ele>
        <time>2022-08-16T10:51:08Z</time>
      </trkpt>
      <trkpt lat="45.78561" lon="6.67441">
        <ele>2043</ele>
        <time>2022-08-16T10:51:12Z</time>
      </trkpt>
      <trkpt lat="45.78561" lon="6.67441">
        <ele>2043</ele>
        <time>2022-08-16T10:51:16Z</time>
      </trkpt>
      <trkpt lat="45.78561" lon="6.67441">
        <ele>2043</ele>
        <time>2022-08-16T10:51:20Z</time>
      </trkpt>
      <trkpt lat="45.78561" lon="6.67441">
        <ele>2043</ele>
        <time>2022-08-16T10:51:24.100Z</time>
      </trkpt>
      <trkpt lat="45.78561" lon="6.67441">
        <ele>2043</ele>
        <time>2022-08-16T10:51:28.175Z</time>
      </trkpt>
      <trkpt lat="45.78561" lon="6.67441">
        <ele>2043</ele>
        <time>2022-08-16T10:51:32.278Z</time>
      </trkpt>
      <trkpt lat="45.78561" lon="6.67441">
        <ele>2043</ele>
        <time>2022-08-16T10:51:36.367Z</time>
      </trkpt>
      <trkpt lat="45.78561" lon="6.67441">
        <ele>2043</ele>
        <time>2022-08-16T10:51:40.450Z</time>
      </trkpt>
      <trkpt lat="45.78561" lon="6.67441">
        <ele>2043</ele>
        <time>2022-08-16T10:51:44.527Z</time>
      </trkpt>
      <trkpt lat="45.78561" lon="6.67441">
        <ele>2043</ele>
        <time>2022-08-16T10:51:48.612Z</time>
      </trkpt>
      <trkpt lat="45.78561" lon="6.67441">
        <ele>2043</ele>
        <time>2022-08-16T10:51:52.695Z</time>
      </trkpt>
      <trkpt lat="45.78565" lon="6.67438">
        <ele>2051</ele>
        <time>2022-08-16T10:51:55Z</time>
      </trkpt>
      <trkpt lat="45.78558" lon="6.67441">
        <ele>2049</ele>
        <time>2022-08-16T10:51:56Z</time>
      </trkpt>
      <trkpt lat="45.78558" lon="6.67441">
        <ele>2049</ele>
        <time>2022-08-16T10:51:57Z</time>
      </trkpt>
      <trkpt lat="45.78559" lon="6.67438">
        <ele>2042</ele>
        <time>2022-08-16T10:51:58Z</time>
      </trkpt>
      <trkpt lat="45.78559" lon="6.67438">
        <ele>2042</ele>
        <time>2022-08-16T10:51:59Z</time>
      </trkpt>
      <trkpt lat="45.78559" lon="6.67438">
        <ele>2042</ele>
        <time>2022-08-16T10:52:03Z</time>
      </trkpt>
      <trkpt lat="45.78559" lon="6.67438">
        <ele>2042</ele>
        <time>2022-08-16T10:52:07Z</time>
      </trkpt>
      <trkpt lat="45.78559" lon="6.67438">
        <ele>2042</ele>
        <time>2022-08-16T10:52:11Z</time>
      </trkpt>
      <trkpt lat="45.78559" lon="6.67438">
        <ele>2042</ele>
        <time>2022-08-16T10:52:15Z</time>
      </trkpt>
      <trkpt lat="45.78559" lon="6.67438">
        <ele>2042</ele>
        <time>2022-08-16T10:52:19Z</time>
      </trkpt>
      <trkpt lat="45.78559" lon="6.67438">
        <ele>2042</ele>
        <time>2022-08-16T10:52:23Z</time>
      </trkpt>
      <trkpt lat="45.78559" lon="6.67438">
        <ele>2042</ele>
        <time>2022-08-16T10:52:27Z</time>
      </trkpt>
      <trkpt lat="45.78559" lon="6.67438">
        <ele>2042</ele>
        <time>2022-08-16T10:52:31Z</time>
      </trkpt>
      <trkpt lat="45.78559" lon="6.67438">
        <ele>2042</ele>
        <time>2022-08-16T10:52:35Z</time>
      </trkpt>
      <trkpt lat="45.78559" lon="6.67438">
        <ele>2042</ele>
        <time>2022-08-16T10:52:39Z</time>
      </trkpt>
      <trkpt lat="45.78559" lon="6.67438">
        <ele>2042</ele>
        <time>2022-08-16T10:52:43Z</time>
      </trkpt>
      <trkpt lat="45.78559" lon="6.67438">
        <ele>2042</ele>
        <time>2022-08-16T10:52:47Z</time>
      </trkpt>
      <trkpt lat="45.78559" lon="6.67438">
        <ele>2042</ele>
        <time>2022-08-16T10:52:51Z</time>
      </trkpt>
      <trkpt lat="45.78559" lon="6.67438">
        <ele>2042</ele>
        <time>2022-08-16T10:52:55Z</time>
      </trkpt>
      <trkpt lat="45.78559" lon="6.67438">
        <ele>2042</ele>
        <time>2022-08-16T10:52:59Z</time>
      </trkpt>
      <trkpt lat="45.78559" lon="6.67438">
        <ele>2042</ele>
        <time>2022-08-16T10:53:03Z</time>
      </trkpt>
      <trkpt lat="45.78559" lon="6.67438">
        <ele>2042</ele>
        <time>2022-08-16T10:53:07Z</time>
      </trkpt>
      <trkpt lat="45.78559" lon="6.67438">
        <ele>2042</ele>
        <time>2022-08-16T10:53:11Z</time>
      </trkpt>
      <trkpt lat="45.78559" lon="6.67438">
        <ele>2042</ele>
        <time>2022-08-16T10:53:15Z</time>
      </trkpt>
      <trkpt lat="45.78559" lon="6.67438">
        <ele>2042</ele>
        <time>2022-08-16T10:53:19Z</time>
      </trkpt>
      <trkpt lat="45.78559" lon="6.67438">
        <ele>2042</ele>
        <time>2022-08-16T10:53:23Z</time>
      </trkpt>
      <trkpt lat="45.78559" lon="6.67438">
        <ele>2042</ele>
        <time>2022-08-16T10:53:33Z</time>
      </trkpt>
      <trkpt lat="45.78567" lon="6.67445">
        <ele>2056</ele>
        <time>2022-08-16T11:16:27Z</time>
      </trkpt>
      <trkpt lat="45.78567" lon="6.67436">
        <ele>2051</ele>
        <time>2022-08-16T11:16:28Z</time>
      </trkpt>
      <trkpt lat="45.78567" lon="6.67436">
        <ele>2051</ele>
        <time>2022-08-16T11:16:29Z</time>
      </trkpt>
      <trkpt lat="45.78567" lon="6.67436">
        <ele>2051</ele>
        <time>2022-08-16T11:16:33Z</time>
      </trkpt>
      <trkpt lat="45.78567" lon="6.67436">
        <ele>2051</ele>
        <time>2022-08-16T11:16:37Z</time>
      </trkpt>
      <trkpt lat="45.78567" lon="6.67436">
        <ele>2051</ele>
        <time>2022-08-16T11:16:41Z</time>
      </trkpt>
      <trkpt lat="45.78567" lon="6.67436">
        <ele>2051</ele>
        <time>2022-08-16T11:16:45Z</time>
      </trkpt>
      <trkpt lat="45.78567" lon="6.67436">
        <ele>2051</ele>
        <time>2022-08-16T11:16:49Z</time>
      </trkpt>
      <trkpt lat="45.78568" lon="6.67436">
        <ele>2050</ele>
        <time>2022-08-16T11:16:50Z</time>
      </trkpt>
      <trkpt lat="45.78567" lon="6.67437">
        <ele>2049</ele>
        <time>2022-08-16T11:16:51Z</time>
      </trkpt>
      <trkpt lat="45.78566" lon="6.67435">
        <ele>2047</ele>
        <time>2022-08-16T11:16:52Z</time>
      </trkpt>
      <trkpt lat="45.78565" lon="6.67435">
        <ele>2045</ele>
        <time>2022-08-16T11:16:53Z</time>
      </trkpt>
      <trkpt lat="45.78565" lon="6.67435">
        <ele>2045</ele>
        <time>2022-08-16T11:16:54Z</time>
      </trkpt>
      <trkpt lat="45.78565" lon="6.67435">
        <ele>2045</ele>
        <time>2022-08-16T11:16:58Z</time>
      </trkpt>
      <trkpt lat="45.78565" lon="6.67435">
        <ele>2045</ele>
        <time>2022-08-16T11:17:02Z</time>
      </trkpt>
      <trkpt lat="45.78565" lon="6.67435">
        <ele>2045</ele>
        <time>2022-08-16T11:17:06Z</time>
      </trkpt>
      <trkpt lat="45.78565" lon="6.67436">
        <ele>2045</ele>
        <time>2022-08-16T11:17:07Z</time>
      </trkpt>
      <trkpt lat="45.78564" lon="6.67436">
        <ele>2046</ele>
        <time>2022-08-16T11:17:08Z</time>
      </trkpt>
      <trkpt lat="45.78564" lon="6.67437">
        <ele>2046</ele>
        <time>2022-08-16T11:17:09Z</time>
      </trkpt>
      <trkpt lat="45.78564" lon="6.67436">
        <ele>2046</ele>
        <time>2022-08-16T11:17:10Z</time>
      </trkpt>
      <trkpt lat="45.78564" lon="6.67436">
        <ele>2046</ele>
        <time>2022-08-16T11:17:14Z</time>
      </trkpt>
      <trkpt lat="45.78564" lon="6.67436">
        <ele>2046</ele>
        <time>2022-08-16T11:17:18Z</time>
      </trkpt>
      <trkpt lat="45.78564" lon="6.67436">
        <ele>2046</ele>
        <time>2022-08-16T11:17:22Z</time>
      </trkpt>
      <trkpt lat="45.78564" lon="6.67437">
        <ele>2047</ele>
        <time>2022-08-16T11:17:26Z</time>
      </trkpt>
      <trkpt lat="45.78563" lon="6.67436">
        <ele>2048</ele>
        <time>2022-08-16T11:17:27Z</time>
      </trkpt>
      <trkpt lat="45.78563" lon="6.67435">
        <ele>2048</ele>
        <time>2022-08-16T11:17:28Z</time>
      </trkpt>
      <trkpt lat="45.78563" lon="6.67435">
        <ele>2048</ele>
        <time>2022-08-16T11:17:29Z</time>
      </trkpt>
      <trkpt lat="45.78562" lon="6.67434">
        <ele>2048</ele>
        <time>2022-08-16T11:17:30Z</time>
      </trkpt>
      <trkpt lat="45.78562" lon="6.67434">
        <ele>2047</ele>
        <time>2022-08-16T11:17:31Z</time>
      </trkpt>
      <trkpt lat="45.78562" lon="6.67433">
        <ele>2047</ele>
        <time>2022-08-16T11:17:32Z</time>
      </trkpt>
      <trkpt lat="45.78561" lon="6.67432">
        <ele>2047</ele>
        <time>2022-08-16T11:17:33Z</time>
      </trkpt>
      <trkpt lat="45.7856" lon="6.6743">
        <ele>2047</ele>
        <time>2022-08-16T11:17:34Z</time>
      </trkpt>
      <trkpt lat="45.7856" lon="6.67429">
        <ele>2048</ele>
        <time>2022-08-16T11:17:35Z</time>
      </trkpt>
      <trkpt lat="45.78559" lon="6.67429">
        <ele>2048</ele>
        <time>2022-08-16T11:17:36Z</time>
      </trkpt>
      <trkpt lat="45.78558" lon="6.67428">
        <ele>2047</ele>
        <time>2022-08-16T11:17:37Z</time>
      </trkpt>
      <trkpt lat="45.78557" lon="6.67428">
        <ele>2048</ele>
        <time>2022-08-16T11:17:38Z</time>
      </trkpt>
      <trkpt lat="45.78557" lon="6.67427">
        <ele>2048</ele>
        <time>2022-08-16T11:17:39Z</time>
      </trkpt>
      <trkpt lat="45.78556" lon="6.67427">
        <ele>2048</ele>
        <time>2022-08-16T11:17:40Z</time>
      </trkpt>
      <trkpt lat="45.78555" lon="6.67427">
        <ele>2047</ele>
        <time>2022-08-16T11:17:41Z</time>
      </trkpt>
      <trkpt lat="45.78554" lon="6.67427">
        <ele>2047</ele>
        <time>2022-08-16T11:17:42Z</time>
      </trkpt>
      <trkpt lat="45.78553" lon="6.67427">
        <ele>2047</ele>
        <time>2022-08-16T11:17:43Z</time>
      </trkpt>
      <trkpt lat="45.78553" lon="6.67427">
        <ele>2047</ele>
        <time>2022-08-16T11:17:44Z</time>
      </trkpt>
      <trkpt lat="45.78551" lon="6.67428">
        <ele>2047</ele>
        <time>2022-08-16T11:17:45Z</time>
      </trkpt>
      <trkpt lat="45.78551" lon="6.67428">
        <ele>2048</ele>
        <time>2022-08-16T11:17:46Z</time>
      </trkpt>
      <trkpt lat="45.7855" lon="6.67428">
        <ele>2048</ele>
        <time>2022-08-16T11:17:47Z</time>
      </trkpt>
      <trkpt lat="45.78549" lon="6.67427">
        <ele>2048</ele>
        <time>2022-08-16T11:17:48Z</time>
      </trkpt>
      <trkpt lat="45.78548" lon="6.67427">
        <ele>2048</ele>
        <time>2022-08-16T11:17:49Z</time>
      </trkpt>
      <trkpt lat="45.78548" lon="6.67427">
        <ele>2048</ele>
        <time>2022-08-16T11:17:50Z</time>
      </trkpt>
      <trkpt lat="45.78547" lon="6.67428">
        <ele>2048</ele>
        <time>2022-08-16T11:17:51Z</time>
      </trkpt>
      <trkpt lat="45.78546" lon="6.67428">
        <ele>2048</ele>
        <time>2022-08-16T11:17:52Z</time>
      </trkpt>
      <trkpt lat="45.78545" lon="6.67429">
        <ele>2049</ele>
        <time>2022-08-16T11:17:53Z</time>
      </trkpt>
      <trkpt lat="45.78545" lon="6.67429">
        <ele>2049</ele>
        <time>2022-08-16T11:17:54Z</time>
      </trkpt>
      <trkpt lat="45.78545" lon="6.67429">
        <ele>2049</ele>
        <time>2022-08-16T11:17:55Z</time>
      </trkpt>
      <trkpt lat="45.78545" lon="6.67429">
        <ele>2049</ele>
        <time>2022-08-16T11:17:56Z</time>
      </trkpt>
      <trkpt lat="45.78544" lon="6.6743">
        <ele>2050</ele>
        <time>2022-08-16T11:17:57Z</time>
      </trkpt>
      <trkpt lat="45.78543" lon="6.67431">
        <ele>2050</ele>
        <time>2022-08-16T11:17:58Z</time>
      </trkpt>
      <trkpt lat="45.78543" lon="6.67432">
        <ele>2050</ele>
        <time>2022-08-16T11:17:59Z</time>
      </trkpt>
      <trkpt lat="45.78542" lon="6.67432">
        <ele>2050</ele>
        <time>2022-08-16T11:18:00Z</time>
      </trkpt>
      <trkpt lat="45.78541" lon="6.67433">
        <ele>2049</ele>
        <time>2022-08-16T11:18:01Z</time>
      </trkpt>
      <trkpt lat="45.7854" lon="6.67434">
        <ele>2049</ele>
        <time>2022-08-16T11:18:02Z</time>
      </trkpt>
      <trkpt lat="45.78539" lon="6.67435">
        <ele>2050</ele>
        <time>2022-08-16T11:18:03Z</time>
      </trkpt>
      <trkpt lat="45.78538" lon="6.67435">
        <ele>2049</ele>
        <time>2022-08-16T11:18:04Z</time>
      </trkpt>
      <trkpt lat="45.78538" lon="6.67437">
        <ele>2048</ele>
        <time>2022-08-16T11:18:05Z</time>
      </trkpt>
      <trkpt lat="45.78537" lon="6.67437">
        <ele>2049</ele>
        <time>2022-08-16T11:18:06Z</time>
      </trkpt>
      <trkpt lat="45.78536" lon="6.67438">
        <ele>2049</ele>
        <time>2022-08-16T11:18:07Z</time>
      </trkpt>
      <trkpt lat="45.78535" lon="6.67438">
        <ele>2049</ele>
        <time>2022-08-16T11:18:08Z</time>
      </trkpt>
      <trkpt lat="45.78534" lon="6.67439">
        <ele>2049</ele>
        <time>2022-08-16T11:18:09Z</time>
      </trkpt>
      <trkpt lat="45.78533" lon="6.67439">
        <ele>2049</ele>
        <time>2022-08-16T11:18:10Z</time>
      </trkpt>
      <trkpt lat="45.78533" lon="6.67439">
        <ele>2049</ele>
        <time>2022-08-16T11:18:11Z</time>
      </trkpt>
      <trkpt lat="45.78531" lon="6.67439">
        <ele>2049</ele>
        <time>2022-08-16T11:18:12Z</time>
      </trkpt>
      <trkpt lat="45.7853" lon="6.6744">
        <ele>2049</ele>
        <time>2022-08-16T11:18:13Z</time>
      </trkpt>
      <trkpt lat="45.78529" lon="6.6744">
        <ele>2049</ele>
        <time>2022-08-16T11:18:14Z</time>
      </trkpt>
      <trkpt lat="45.78529" lon="6.6744">
        <ele>2049</ele>
        <time>2022-08-16T11:18:15Z</time>
      </trkpt>
      <trkpt lat="45.78528" lon="6.6744">
        <ele>2049</ele>
        <time>2022-08-16T11:18:16Z</time>
      </trkpt>
      <trkpt lat="45.78527" lon="6.67441">
        <ele>2050</ele>
        <time>2022-08-16T11:18:17Z</time>
      </trkpt>
      <trkpt lat="45.78527" lon="6.67441">
        <ele>2050</ele>
        <time>2022-08-16T11:18:18Z</time>
      </trkpt>
      <trkpt lat="45.78526" lon="6.67441">
        <ele>2051</ele>
        <time>2022-08-16T11:18:19Z</time>
      </trkpt>
      <trkpt lat="45.78525" lon="6.67442">
        <ele>2050</ele>
        <time>2022-08-16T11:18:20Z</time>
      </trkpt>
      <trkpt lat="45.78524" lon="6.67442">
        <ele>2051</ele>
        <time>2022-08-16T11:18:21Z</time>
      </trkpt>
      <trkpt lat="45.78523" lon="6.67443">
        <ele>2051</ele>
        <time>2022-08-16T11:18:22Z</time>
      </trkpt>
      <trkpt lat="45.78523" lon="6.67443">
        <ele>2051</ele>
        <time>2022-08-16T11:18:23Z</time>
      </trkpt>
      <trkpt lat="45.78522" lon="6.67444">
        <ele>2051</ele>
        <time>2022-08-16T11:18:24Z</time>
      </trkpt>
      <trkpt lat="45.78521" lon="6.67445">
        <ele>2051</ele>
        <time>2022-08-16T11:18:25Z</time>
      </trkpt>
      <trkpt lat="45.7852" lon="6.67446">
        <ele>2051</ele>
        <time>2022-08-16T11:18:26Z</time>
      </trkpt>
      <trkpt lat="45.78519" lon="6.67446">
        <ele>2052</ele>
        <time>2022-08-16T11:18:27Z</time>
      </trkpt>
      <trkpt lat="45.78519" lon="6.67446">
        <ele>2051</ele>
        <time>2022-08-16T11:18:28Z</time>
      </trkpt>
      <trkpt lat="45.78518" lon="6.67446">
        <ele>2051</ele>
        <time>2022-08-16T11:18:29Z</time>
      </trkpt>
      <trkpt lat="45.78517" lon="6.67447">
        <ele>2051</ele>
        <time>2022-08-16T11:18:30Z</time>
      </trkpt>
      <trkpt lat="45.78516" lon="6.67447">
        <ele>2051</ele>
        <time>2022-08-16T11:18:31Z</time>
      </trkpt>
      <trkpt lat="45.78515" lon="6.67447">
        <ele>2052</ele>
        <time>2022-08-16T11:18:32Z</time>
      </trkpt>
      <trkpt lat="45.78514" lon="6.67448">
        <ele>2052</ele>
        <time>2022-08-16T11:18:33Z</time>
      </trkpt>
      <trkpt lat="45.78513" lon="6.67448">
        <ele>2052</ele>
        <time>2022-08-16T11:18:34Z</time>
      </trkpt>
      <trkpt lat="45.78512" lon="6.67448">
        <ele>2052</ele>
        <time>2022-08-16T11:18:35Z</time>
      </trkpt>
      <trkpt lat="45.78512" lon="6.67448">
        <ele>2051</ele>
        <time>2022-08-16T11:18:36Z</time>
      </trkpt>
      <trkpt lat="45.78511" lon="6.67448">
        <ele>2051</ele>
        <time>2022-08-16T11:18:37Z</time>
      </trkpt>
      <trkpt lat="45.7851" lon="6.67448">
        <ele>2051</ele>
        <time>2022-08-16T11:18:38Z</time>
      </trkpt>
      <trkpt lat="45.78509" lon="6.67448">
        <ele>2051</ele>
        <time>2022-08-16T11:18:39Z</time>
      </trkpt>
      <trkpt lat="45.78508" lon="6.67449">
        <ele>2051</ele>
        <time>2022-08-16T11:18:40Z</time>
      </trkpt>
      <trkpt lat="45.78507" lon="6.67449">
        <ele>2051</ele>
        <time>2022-08-16T11:18:41Z</time>
      </trkpt>
      <trkpt lat="45.78506" lon="6.6745">
        <ele>2051</ele>
        <time>2022-08-16T11:18:42Z</time>
      </trkpt>
      <trkpt lat="45.78506" lon="6.6745">
        <ele>2051</ele>
        <time>2022-08-16T11:18:43Z</time>
      </trkpt>
      <trkpt lat="45.78505" lon="6.67451">
        <ele>2051</ele>
        <time>2022-08-16T11:18:44Z</time>
      </trkpt>
      <trkpt lat="45.78504" lon="6.67451">
        <ele>2051</ele>
        <time>2022-08-16T11:18:45Z</time>
      </trkpt>
      <trkpt lat="45.78503" lon="6.67451">
        <ele>2050</ele>
        <time>2022-08-16T11:18:46Z</time>
      </trkpt>
      <trkpt lat="45.78502" lon="6.67452">
        <ele>2050</ele>
        <time>2022-08-16T11:18:47Z</time>
      </trkpt>
      <trkpt lat="45.78501" lon="6.67452">
        <ele>2050</ele>
        <time>2022-08-16T11:18:48Z</time>
      </trkpt>
      <trkpt lat="45.785" lon="6.67452">
        <ele>2050</ele>
        <time>2022-08-16T11:18:49Z</time>
      </trkpt>
      <trkpt lat="45.785" lon="6.67452">
        <ele>2051</ele>
        <time>2022-08-16T11:18:50Z</time>
      </trkpt>
      <trkpt lat="45.78499" lon="6.67453">
        <ele>2051</ele>
        <time>2022-08-16T11:18:51Z</time>
      </trkpt>
      <trkpt lat="45.78498" lon="6.67453">
        <ele>2051</ele>
        <time>2022-08-16T11:18:52Z</time>
      </trkpt>
      <trkpt lat="45.78497" lon="6.67453">
        <ele>2051</ele>
        <time>2022-08-16T11:18:53Z</time>
      </trkpt>
      <trkpt lat="45.78496" lon="6.67453">
        <ele>2051</ele>
        <time>2022-08-16T11:18:54Z</time>
      </trkpt>
      <trkpt lat="45.78495" lon="6.67452">
        <ele>2050</ele>
        <time>2022-08-16T11:18:55Z</time>
      </trkpt>
      <trkpt lat="45.78494" lon="6.67453">
        <ele>2049</ele>
        <time>2022-08-16T11:18:56Z</time>
      </trkpt>
      <trkpt lat="45.78493" lon="6.67453">
        <ele>2049</ele>
        <time>2022-08-16T11:18:57Z</time>
      </trkpt>
      <trkpt lat="45.78492" lon="6.67453">
        <ele>2049</ele>
        <time>2022-08-16T11:18:58Z</time>
      </trkpt>
      <trkpt lat="45.78491" lon="6.67454">
        <ele>2048</ele>
        <time>2022-08-16T11:18:59Z</time>
      </trkpt>
      <trkpt lat="45.7849" lon="6.67454">
        <ele>2048</ele>
        <time>2022-08-16T11:19:00Z</time>
      </trkpt>
      <trkpt lat="45.78489" lon="6.67454">
        <ele>2048</ele>
        <time>2022-08-16T11:19:01Z</time>
      </trkpt>
      <trkpt lat="45.78487" lon="6.67455">
        <ele>2047</ele>
        <time>2022-08-16T11:19:02Z</time>
      </trkpt>
      <trkpt lat="45.78487" lon="6.67455">
        <ele>2047</ele>
        <time>2022-08-16T11:19:03Z</time>
      </trkpt>
      <trkpt lat="45.78486" lon="6.67455">
        <ele>2048</ele>
        <time>2022-08-16T11:19:04Z</time>
      </trkpt>
      <trkpt lat="45.78485" lon="6.67455">
        <ele>2047</ele>
        <time>2022-08-16T11:19:05Z</time>
      </trkpt>
      <trkpt lat="45.78484" lon="6.67455">
        <ele>2048</ele>
        <time>2022-08-16T11:19:06Z</time>
      </trkpt>
      <trkpt lat="45.78483" lon="6.67455">
        <ele>2047</ele>
        <time>2022-08-16T11:19:07Z</time>
      </trkpt>
      <trkpt lat="45.78482" lon="6.67455">
        <ele>2047</ele>
        <time>2022-08-16T11:19:08Z</time>
      </trkpt>
      <trkpt lat="45.78481" lon="6.67454">
        <ele>2047</ele>
        <time>2022-08-16T11:19:09Z</time>
      </trkpt>
      <trkpt lat="45.7848" lon="6.67454">
        <ele>2047</ele>
        <time>2022-08-16T11:19:10Z</time>
      </trkpt>
      <trkpt lat="45.78479" lon="6.67454">
        <ele>2047</ele>
        <time>2022-08-16T11:19:11Z</time>
      </trkpt>
      <trkpt lat="45.78478" lon="6.67453">
        <ele>2047</ele>
        <time>2022-08-16T11:19:12Z</time>
      </trkpt>
      <trkpt lat="45.78477" lon="6.67453">
        <ele>2047</ele>
        <time>2022-08-16T11:19:13Z</time>
      </trkpt>
      <trkpt lat="45.78476" lon="6.67453">
        <ele>2047</ele>
        <time>2022-08-16T11:19:14Z</time>
      </trkpt>
      <trkpt lat="45.78475" lon="6.67453">
        <ele>2047</ele>
        <time>2022-08-16T11:19:15Z</time>
      </trkpt>
      <trkpt lat="45.78474" lon="6.67452">
        <ele>2046</ele>
        <time>2022-08-16T11:19:16Z</time>
      </trkpt>
      <trkpt lat="45.78473" lon="6.67452">
        <ele>2046</ele>
        <time>2022-08-16T11:19:17Z</time>
      </trkpt>
      <trkpt lat="45.78472" lon="6.67452">
        <ele>2047</ele>
        <time>2022-08-16T11:19:18Z</time>
      </trkpt>
      <trkpt lat="45.78471" lon="6.67452">
        <ele>2046</ele>
        <time>2022-08-16T11:19:19Z</time>
      </trkpt>
      <trkpt lat="45.7847" lon="6.67452">
        <ele>2045</ele>
        <time>2022-08-16T11:19:20Z</time>
      </trkpt>
      <trkpt lat="45.78469" lon="6.67451">
        <ele>2045</ele>
        <time>2022-08-16T11:19:21Z</time>
      </trkpt>
      <trkpt lat="45.78468" lon="6.67451">
        <ele>2045</ele>
        <time>2022-08-16T11:19:22Z</time>
      </trkpt>
      <trkpt lat="45.78467" lon="6.6745">
        <ele>2045</ele>
        <time>2022-08-16T11:19:23Z</time>
      </trkpt>
      <trkpt lat="45.78466" lon="6.6745">
        <ele>2045</ele>
        <time>2022-08-16T11:19:24Z</time>
      </trkpt>
      <trkpt lat="45.78465" lon="6.67449">
        <ele>2044</ele>
        <time>2022-08-16T11:19:25Z</time>
      </trkpt>
      <trkpt lat="45.78463" lon="6.67449">
        <ele>2044</ele>
        <time>2022-08-16T11:19:26Z</time>
      </trkpt>
      <trkpt lat="45.78462" lon="6.67449">
        <ele>2044</ele>
        <time>2022-08-16T11:19:27Z</time>
      </trkpt>
      <trkpt lat="45.78462" lon="6.67449">
        <ele>2043</ele>
        <time>2022-08-16T11:19:28Z</time>
      </trkpt>
      <trkpt lat="45.7846" lon="6.67448">
        <ele>2043</ele>
        <time>2022-08-16T11:19:29Z</time>
      </trkpt>
      <trkpt lat="45.78459" lon="6.67447">
        <ele>2044</ele>
        <time>2022-08-16T11:19:30Z</time>
      </trkpt>
      <trkpt lat="45.78458" lon="6.67447">
        <ele>2044</ele>
        <time>2022-08-16T11:19:31Z</time>
      </trkpt>
      <trkpt lat="45.78457" lon="6.67447">
        <ele>2043</ele>
        <time>2022-08-16T11:19:32Z</time>
      </trkpt>
      <trkpt lat="45.78456" lon="6.67447">
        <ele>2043</ele>
        <time>2022-08-16T11:19:33Z</time>
      </trkpt>
      <trkpt lat="45.78455" lon="6.67447">
        <ele>2043</ele>
        <time>2022-08-16T11:19:34Z</time>
      </trkpt>
      <trkpt lat="45.78454" lon="6.67447">
        <ele>2042</ele>
        <time>2022-08-16T11:19:35Z</time>
      </trkpt>
      <trkpt lat="45.78453" lon="6.67447">
        <ele>2042</ele>
        <time>2022-08-16T11:19:36Z</time>
      </trkpt>
      <trkpt lat="45.78452" lon="6.67447">
        <ele>2041</ele>
        <time>2022-08-16T11:19:37Z</time>
      </trkpt>
      <trkpt lat="45.78451" lon="6.67447">
        <ele>2041</ele>
        <time>2022-08-16T11:19:38Z</time>
      </trkpt>
      <trkpt lat="45.7845" lon="6.67446">
        <ele>2040</ele>
        <time>2022-08-16T11:19:39Z</time>
      </trkpt>
      <trkpt lat="45.78449" lon="6.67445">
        <ele>2040</ele>
        <time>2022-08-16T11:19:40Z</time>
      </trkpt>
      <trkpt lat="45.78448" lon="6.67445">
        <ele>2040</ele>
        <time>2022-08-16T11:19:41Z</time>
      </trkpt>
      <trkpt lat="45.78447" lon="6.67444">
        <ele>2040</ele>
        <time>2022-08-16T11:19:42Z</time>
      </trkpt>
      <trkpt lat="45.78445" lon="6.67443">
        <ele>2040</ele>
        <time>2022-08-16T11:19:43Z</time>
      </trkpt>
      <trkpt lat="45.78444" lon="6.67443">
        <ele>2040</ele>
        <time>2022-08-16T11:19:44Z</time>
      </trkpt>
      <trkpt lat="45.78442" lon="6.67443">
        <ele>2039</ele>
        <time>2022-08-16T11:19:45Z</time>
      </trkpt>
      <trkpt lat="45.78441" lon="6.67442">
        <ele>2039</ele>
        <time>2022-08-16T11:19:46Z</time>
      </trkpt>
      <trkpt lat="45.7844" lon="6.67442">
        <ele>2038</ele>
        <time>2022-08-16T11:19:47Z</time>
      </trkpt>
      <trkpt lat="45.78439" lon="6.67441">
        <ele>2039</ele>
        <time>2022-08-16T11:19:48Z</time>
      </trkpt>
      <trkpt lat="45.78439" lon="6.67441">
        <ele>2039</ele>
        <time>2022-08-16T11:19:49Z</time>
      </trkpt>
      <trkpt lat="45.78438" lon="6.67441">
        <ele>2038</ele>
        <time>2022-08-16T11:19:50Z</time>
      </trkpt>
      <trkpt lat="45.78437" lon="6.6744">
        <ele>2038</ele>
        <time>2022-08-16T11:19:51Z</time>
      </trkpt>
      <trkpt lat="45.78436" lon="6.6744">
        <ele>2038</ele>
        <time>2022-08-16T11:19:52Z</time>
      </trkpt>
      <trkpt lat="45.78435" lon="6.6744">
        <ele>2037</ele>
        <time>2022-08-16T11:19:53Z</time>
      </trkpt>
      <trkpt lat="45.78434" lon="6.6744">
        <ele>2037</ele>
        <time>2022-08-16T11:19:54Z</time>
      </trkpt>
      <trkpt lat="45.78434" lon="6.67439">
        <ele>2037</ele>
        <time>2022-08-16T11:19:55Z</time>
      </trkpt>
      <trkpt lat="45.78433" lon="6.67439">
        <ele>2037</ele>
        <time>2022-08-16T11:19:56Z</time>
      </trkpt>
      <trkpt lat="45.78433" lon="6.67439">
        <ele>2036</ele>
        <time>2022-08-16T11:19:57Z</time>
      </trkpt>
      <trkpt lat="45.78432" lon="6.67439">
        <ele>2037</ele>
        <time>2022-08-16T11:19:58Z</time>
      </trkpt>
      <trkpt lat="45.78432" lon="6.67438">
        <ele>2036</ele>
        <time>2022-08-16T11:19:59Z</time>
      </trkpt>
      <trkpt lat="45.78431" lon="6.67437">
        <ele>2036</ele>
        <time>2022-08-16T11:20:00Z</time>
      </trkpt>
      <trkpt lat="45.7843" lon="6.67437">
        <ele>2036</ele>
        <time>2022-08-16T11:20:01Z</time>
      </trkpt>
      <trkpt lat="45.78429" lon="6.67436">
        <ele>2037</ele>
        <time>2022-08-16T11:20:02Z</time>
      </trkpt>
      <trkpt lat="45.78428" lon="6.67435">
        <ele>2037</ele>
        <time>2022-08-16T11:20:03Z</time>
      </trkpt>
      <trkpt lat="45.78428" lon="6.67434">
        <ele>2036</ele>
        <time>2022-08-16T11:20:04Z</time>
      </trkpt>
      <trkpt lat="45.78427" lon="6.67433">
        <ele>2036</ele>
        <time>2022-08-16T11:20:05Z</time>
      </trkpt>
      <trkpt lat="45.78426" lon="6.67433">
        <ele>2036</ele>
        <time>2022-08-16T11:20:06Z</time>
      </trkpt>
      <trkpt lat="45.78426" lon="6.67432">
        <ele>2035</ele>
        <time>2022-08-16T11:20:07Z</time>
      </trkpt>
      <trkpt lat="45.78425" lon="6.67432">
        <ele>2035</ele>
        <time>2022-08-16T11:20:08Z</time>
      </trkpt>
      <trkpt lat="45.78424" lon="6.67432">
        <ele>2035</ele>
        <time>2022-08-16T11:20:09Z</time>
      </trkpt>
      <trkpt lat="45.78424" lon="6.67431">
        <ele>2035</ele>
        <time>2022-08-16T11:20:10Z</time>
      </trkpt>
      <trkpt lat="45.78423" lon="6.67431">
        <ele>2036</ele>
        <time>2022-08-16T11:20:11Z</time>
      </trkpt>
      <trkpt lat="45.78422" lon="6.67431">
        <ele>2036</ele>
        <time>2022-08-16T11:20:12Z</time>
      </trkpt>
      <trkpt lat="45.78421" lon="6.6743">
        <ele>2036</ele>
        <time>2022-08-16T11:20:13Z</time>
      </trkpt>
      <trkpt lat="45.7842" lon="6.6743">
        <ele>2035</ele>
        <time>2022-08-16T11:20:14Z</time>
      </trkpt>
      <trkpt lat="45.78419" lon="6.67428">
        <ele>2035</ele>
        <time>2022-08-16T11:20:15Z</time>
      </trkpt>
      <trkpt lat="45.78418" lon="6.67427">
        <ele>2034</ele>
        <time>2022-08-16T11:20:16Z</time>
      </trkpt>
      <trkpt lat="45.78418" lon="6.67426">
        <ele>2034</ele>
        <time>2022-08-16T11:20:17Z</time>
      </trkpt>
      <trkpt lat="45.78417" lon="6.67425">
        <ele>2034</ele>
        <time>2022-08-16T11:20:18Z</time>
      </trkpt>
      <trkpt lat="45.78416" lon="6.67424">
        <ele>2035</ele>
        <time>2022-08-16T11:20:19Z</time>
      </trkpt>
      <trkpt lat="45.78415" lon="6.67423">
        <ele>2035</ele>
        <time>2022-08-16T11:20:20Z</time>
      </trkpt>
      <trkpt lat="45.78415" lon="6.67422">
        <ele>2035</ele>
        <time>2022-08-16T11:20:21Z</time>
      </trkpt>
      <trkpt lat="45.78414" lon="6.67422">
        <ele>2035</ele>
        <time>2022-08-16T11:20:22Z</time>
      </trkpt>
      <trkpt lat="45.78414" lon="6.67421">
        <ele>2035</ele>
        <time>2022-08-16T11:20:23Z</time>
      </trkpt>
      <trkpt lat="45.78413" lon="6.67421">
        <ele>2035</ele>
        <time>2022-08-16T11:20:24Z</time>
      </trkpt>
      <trkpt lat="45.78412" lon="6.6742">
        <ele>2035</ele>
        <time>2022-08-16T11:20:25Z</time>
      </trkpt>
      <trkpt lat="45.78411" lon="6.67419">
        <ele>2035</ele>
        <time>2022-08-16T11:20:26Z</time>
      </trkpt>
      <trkpt lat="45.78411" lon="6.67418">
        <ele>2035</ele>
        <time>2022-08-16T11:20:27Z</time>
      </trkpt>
      <trkpt lat="45.7841" lon="6.67416">
        <ele>2035</ele>
        <time>2022-08-16T11:20:28Z</time>
      </trkpt>
      <trkpt lat="45.78409" lon="6.67415">
        <ele>2035</ele>
        <time>2022-08-16T11:20:29Z</time>
      </trkpt>
      <trkpt lat="45.78408" lon="6.67414">
        <ele>2035</ele>
        <time>2022-08-16T11:20:30Z</time>
      </trkpt>
      <trkpt lat="45.78408" lon="6.67413">
        <ele>2035</ele>
        <time>2022-08-16T11:20:31Z</time>
      </trkpt>
      <trkpt lat="45.78407" lon="6.67413">
        <ele>2035</ele>
        <time>2022-08-16T11:20:32Z</time>
      </trkpt>
      <trkpt lat="45.78407" lon="6.67412">
        <ele>2035</ele>
        <time>2022-08-16T11:20:33Z</time>
      </trkpt>
      <trkpt lat="45.78407" lon="6.6741">
        <ele>2035</ele>
        <time>2022-08-16T11:20:34Z</time>
      </trkpt>
      <trkpt lat="45.78407" lon="6.67409">
        <ele>2035</ele>
        <time>2022-08-16T11:20:35Z</time>
      </trkpt>
      <trkpt lat="45.78406" lon="6.67408">
        <ele>2035</ele>
        <time>2022-08-16T11:20:36Z</time>
      </trkpt>
      <trkpt lat="45.78406" lon="6.67406">
        <ele>2035</ele>
        <time>2022-08-16T11:20:37Z</time>
      </trkpt>
      <trkpt lat="45.78406" lon="6.67405">
        <ele>2036</ele>
        <time>2022-08-16T11:20:38Z</time>
      </trkpt>
      <trkpt lat="45.78407" lon="6.67404">
        <ele>2036</ele>
        <time>2022-08-16T11:20:39Z</time>
      </trkpt>
      <trkpt lat="45.78407" lon="6.67403">
        <ele>2036</ele>
        <time>2022-08-16T11:20:40Z</time>
      </trkpt>
      <trkpt lat="45.78407" lon="6.67401">
        <ele>2037</ele>
        <time>2022-08-16T11:20:41Z</time>
      </trkpt>
      <trkpt lat="45.78407" lon="6.674">
        <ele>2038</ele>
        <time>2022-08-16T11:20:42Z</time>
      </trkpt>
      <trkpt lat="45.78407" lon="6.67398">
        <ele>2038</ele>
        <time>2022-08-16T11:20:43Z</time>
      </trkpt>
      <trkpt lat="45.78406" lon="6.67397">
        <ele>2038</ele>
        <time>2022-08-16T11:20:44Z</time>
      </trkpt>
      <trkpt lat="45.78406" lon="6.67395">
        <ele>2039</ele>
        <time>2022-08-16T11:20:45Z</time>
      </trkpt>
      <trkpt lat="45.78406" lon="6.67394">
        <ele>2039</ele>
        <time>2022-08-16T11:20:46Z</time>
      </trkpt>
      <trkpt lat="45.78406" lon="6.67393">
        <ele>2039</ele>
        <time>2022-08-16T11:20:47Z</time>
      </trkpt>
      <trkpt lat="45.78405" lon="6.67392">
        <ele>2039</ele>
        <time>2022-08-16T11:20:48Z</time>
      </trkpt>
      <trkpt lat="45.78405" lon="6.6739">
        <ele>2040</ele>
        <time>2022-08-16T11:20:49Z</time>
      </trkpt>
      <trkpt lat="45.78405" lon="6.67389">
        <ele>2040</ele>
        <time>2022-08-16T11:20:50Z</time>
      </trkpt>
      <trkpt lat="45.78404" lon="6.67388">
        <ele>2040</ele>
        <time>2022-08-16T11:20:51Z</time>
      </trkpt>
      <trkpt lat="45.78404" lon="6.67387">
        <ele>2041</ele>
        <time>2022-08-16T11:20:52Z</time>
      </trkpt>
      <trkpt lat="45.78403" lon="6.67386">
        <ele>2041</ele>
        <time>2022-08-16T11:20:53Z</time>
      </trkpt>
      <trkpt lat="45.78403" lon="6.67385">
        <ele>2041</ele>
        <time>2022-08-16T11:20:54Z</time>
      </trkpt>
      <trkpt lat="45.78403" lon="6.67383">
        <ele>2041</ele>
        <time>2022-08-16T11:20:55Z</time>
      </trkpt>
      <trkpt lat="45.78402" lon="6.67381">
        <ele>2041</ele>
        <time>2022-08-16T11:20:56Z</time>
      </trkpt>
      <trkpt lat="45.78402" lon="6.6738">
        <ele>2041</ele>
        <time>2022-08-16T11:20:57Z</time>
      </trkpt>
      <trkpt lat="45.78401" lon="6.67379">
        <ele>2041</ele>
        <time>2022-08-16T11:20:58Z</time>
      </trkpt>
      <trkpt lat="45.78401" lon="6.67378">
        <ele>2041</ele>
        <time>2022-08-16T11:20:59Z</time>
      </trkpt>
      <trkpt lat="45.78401" lon="6.67377">
        <ele>2041</ele>
        <time>2022-08-16T11:21:00Z</time>
      </trkpt>
      <trkpt lat="45.78401" lon="6.67375">
        <ele>2042</ele>
        <time>2022-08-16T11:21:01Z</time>
      </trkpt>
      <trkpt lat="45.78401" lon="6.67374">
        <ele>2042</ele>
        <time>2022-08-16T11:21:02Z</time>
      </trkpt>
      <trkpt lat="45.784" lon="6.67373">
        <ele>2043</ele>
        <time>2022-08-16T11:21:03Z</time>
      </trkpt>
      <trkpt lat="45.784" lon="6.67372">
        <ele>2043</ele>
        <time>2022-08-16T11:21:04Z</time>
      </trkpt>
      <trkpt lat="45.78399" lon="6.67371">
        <ele>2043</ele>
        <time>2022-08-16T11:21:05Z</time>
      </trkpt>
      <trkpt lat="45.78399" lon="6.6737">
        <ele>2042</ele>
        <time>2022-08-16T11:21:06Z</time>
      </trkpt>
      <trkpt lat="45.78399" lon="6.67369">
        <ele>2042</ele>
        <time>2022-08-16T11:21:07Z</time>
      </trkpt>
      <trkpt lat="45.78399" lon="6.67368">
        <ele>2041</ele>
        <time>2022-08-16T11:21:08Z</time>
      </trkpt>
      <trkpt lat="45.78399" lon="6.67366">
        <ele>2042</ele>
        <time>2022-08-16T11:21:09Z</time>
      </trkpt>
      <trkpt lat="45.78399" lon="6.67365">
        <ele>2042</ele>
        <time>2022-08-16T11:21:10Z</time>
      </trkpt>
      <trkpt lat="45.78398" lon="6.67363">
        <ele>2041</ele>
        <time>2022-08-16T11:21:11Z</time>
      </trkpt>
      <trkpt lat="45.78398" lon="6.67362">
        <ele>2041</ele>
        <time>2022-08-16T11:21:12Z</time>
      </trkpt>
      <trkpt lat="45.78397" lon="6.6736">
        <ele>2040</ele>
        <time>2022-08-16T11:21:13Z</time>
      </trkpt>
      <trkpt lat="45.78397" lon="6.67359">
        <ele>2040</ele>
        <time>2022-08-16T11:21:14Z</time>
      </trkpt>
      <trkpt lat="45.78395" lon="6.67359">
        <ele>2041</ele>
        <time>2022-08-16T11:21:15Z</time>
      </trkpt>
      <trkpt lat="45.78395" lon="6.67359">
        <ele>2041</ele>
        <time>2022-08-16T11:21:16Z</time>
      </trkpt>
      <trkpt lat="45.78395" lon="6.67359">
        <ele>2041</ele>
        <time>2022-08-16T11:21:17Z</time>
      </trkpt>
      <trkpt lat="45.78394" lon="6.67359">
        <ele>2042</ele>
        <time>2022-08-16T11:21:18Z</time>
      </trkpt>
      <trkpt lat="45.78394" lon="6.67359">
        <ele>2042</ele>
        <time>2022-08-16T11:21:19Z</time>
      </trkpt>
      <trkpt lat="45.78394" lon="6.67359">
        <ele>2042</ele>
        <time>2022-08-16T11:21:23Z</time>
      </trkpt>
      <trkpt lat="45.78394" lon="6.67359">
        <ele>2042</ele>
        <time>2022-08-16T11:21:27Z</time>
      </trkpt>
      <trkpt lat="45.78394" lon="6.67359">
        <ele>2042</ele>
        <time>2022-08-16T11:21:31Z</time>
      </trkpt>
      <trkpt lat="45.78394" lon="6.67359">
        <ele>2042</ele>
        <time>2022-08-16T11:21:35Z</time>
      </trkpt>
      <trkpt lat="45.78394" lon="6.67359">
        <ele>2042</ele>
        <time>2022-08-16T11:21:39Z</time>
      </trkpt>
      <trkpt lat="45.78394" lon="6.67359">
        <ele>2042</ele>
        <time>2022-08-16T11:21:43Z</time>
      </trkpt>
      <trkpt lat="45.78394" lon="6.67359">
        <ele>2042</ele>
        <time>2022-08-16T11:21:47Z</time>
      </trkpt>
      <trkpt lat="45.78394" lon="6.67359">
        <ele>2042</ele>
        <time>2022-08-16T11:21:51Z</time>
      </trkpt>
      <trkpt lat="45.78394" lon="6.67359">
        <ele>2042</ele>
        <time>2022-08-16T11:21:52Z</time>
      </trkpt>
      <trkpt lat="45.78394" lon="6.67359">
        <ele>2043</ele>
        <time>2022-08-16T11:21:53Z</time>
      </trkpt>
      <trkpt lat="45.78394" lon="6.67359">
        <ele>2043</ele>
        <time>2022-08-16T11:21:54Z</time>
      </trkpt>
      <trkpt lat="45.78394" lon="6.67359">
        <ele>2043</ele>
        <time>2022-08-16T11:21:55Z</time>
      </trkpt>
      <trkpt lat="45.78394" lon="6.67359">
        <ele>2043</ele>
        <time>2022-08-16T11:21:56Z</time>
      </trkpt>
      <trkpt lat="45.78394" lon="6.67359">
        <ele>2043</ele>
        <time>2022-08-16T11:22:00Z</time>
      </trkpt>
      <trkpt lat="45.78394" lon="6.67359">
        <ele>2043</ele>
        <time>2022-08-16T11:22:04Z</time>
      </trkpt>
      <trkpt lat="45.78394" lon="6.67359">
        <ele>2043</ele>
        <time>2022-08-16T11:22:08Z</time>
      </trkpt>
      <trkpt lat="45.78394" lon="6.67359">
        <ele>2043</ele>
        <time>2022-08-16T11:22:12Z</time>
      </trkpt>
      <trkpt lat="45.78394" lon="6.67359">
        <ele>2043</ele>
        <time>2022-08-16T11:22:16Z</time>
      </trkpt>
      <trkpt lat="45.78394" lon="6.67359">
        <ele>2043</ele>
        <time>2022-08-16T11:22:20Z</time>
      </trkpt>
      <trkpt lat="45.78394" lon="6.67359">
        <ele>2043</ele>
        <time>2022-08-16T11:22:24Z</time>
      </trkpt>
      <trkpt lat="45.78394" lon="6.67359">
        <ele>2043</ele>
        <time>2022-08-16T11:22:28Z</time>
      </trkpt>
      <trkpt lat="45.78394" lon="6.67359">
        <ele>2043</ele>
        <time>2022-08-16T11:22:32Z</time>
      </trkpt>
      <trkpt lat="45.78394" lon="6.67359">
        <ele>2043</ele>
        <time>2022-08-16T11:22:36Z</time>
      </trkpt>
      <trkpt lat="45.78394" lon="6.67359">
        <ele>2043</ele>
        <time>2022-08-16T11:22:40Z</time>
      </trkpt>
      <trkpt lat="45.78394" lon="6.67359">
        <ele>2043</ele>
        <time>2022-08-16T11:22:44Z</time>
      </trkpt>
      <trkpt lat="45.78394" lon="6.67359">
        <ele>2043</ele>
        <time>2022-08-16T11:22:48Z</time>
      </trkpt>
      <trkpt lat="45.78395" lon="6.67359">
        <ele>2041</ele>
        <time>2022-08-16T11:22:49Z</time>
      </trkpt>
      <trkpt lat="45.78395" lon="6.67359">
        <ele>2041</ele>
        <time>2022-08-16T11:22:50Z</time>
      </trkpt>
      <trkpt lat="45.78395" lon="6.6736">
        <ele>2040</ele>
        <time>2022-08-16T11:22:51Z</time>
      </trkpt>
      <trkpt lat="45.78395" lon="6.6736">
        <ele>2040</ele>
        <time>2022-08-16T11:22:52Z</time>
      </trkpt>
      <trkpt lat="45.78394" lon="6.67358">
        <ele>2040</ele>
        <time>2022-08-16T11:22:55Z</time>
      </trkpt>
      <trkpt lat="45.78393" lon="6.67357">
        <ele>2040</ele>
        <time>2022-08-16T11:22:56Z</time>
      </trkpt>
      <trkpt lat="45.78392" lon="6.67355">
        <ele>2040</ele>
        <time>2022-08-16T11:22:57Z</time>
      </trkpt>
      <trkpt lat="45.78392" lon="6.67352">
        <ele>2040</ele>
        <time>2022-08-16T11:22:58Z</time>
      </trkpt>
      <trkpt lat="45.7839" lon="6.67349">
        <ele>2040</ele>
        <time>2022-08-16T11:22:59Z</time>
      </trkpt>
      <trkpt lat="45.78389" lon="6.67346">
        <ele>2039</ele>
        <time>2022-08-16T11:23:00Z</time>
      </trkpt>
      <trkpt lat="45.78388" lon="6.67343">
        <ele>2039</ele>
        <time>2022-08-16T11:23:01Z</time>
      </trkpt>
      <trkpt lat="45.78387" lon="6.67341">
        <ele>2039</ele>
        <time>2022-08-16T11:23:02Z</time>
      </trkpt>
      <trkpt lat="45.78385" lon="6.67339">
        <ele>2039</ele>
        <time>2022-08-16T11:23:03Z</time>
      </trkpt>
      <trkpt lat="45.78383" lon="6.67336">
        <ele>2039</ele>
        <time>2022-08-16T11:23:04Z</time>
      </trkpt>
      <trkpt lat="45.78381" lon="6.67335">
        <ele>2039</ele>
        <time>2022-08-16T11:23:05Z</time>
      </trkpt>
      <trkpt lat="45.78378" lon="6.67334">
        <ele>2038</ele>
        <time>2022-08-16T11:23:06Z</time>
      </trkpt>
      <trkpt lat="45.78375" lon="6.67333">
        <ele>2039</ele>
        <time>2022-08-16T11:23:07Z</time>
      </trkpt>
      <trkpt lat="45.78373" lon="6.67332">
        <ele>2038</ele>
        <time>2022-08-16T11:23:08Z</time>
      </trkpt>
      <trkpt lat="45.78369" lon="6.67332">
        <ele>2038</ele>
        <time>2022-08-16T11:23:09Z</time>
      </trkpt>
      <trkpt lat="45.78366" lon="6.67331">
        <ele>2037</ele>
        <time>2022-08-16T11:23:10Z</time>
      </trkpt>
      <trkpt lat="45.78361" lon="6.67332">
        <ele>2038</ele>
        <time>2022-08-16T11:23:11Z</time>
      </trkpt>
      <trkpt lat="45.78357" lon="6.67332">
        <ele>2038</ele>
        <time>2022-08-16T11:23:12Z</time>
      </trkpt>
      <trkpt lat="45.78352" lon="6.67331">
        <ele>2038</ele>
        <time>2022-08-16T11:23:13Z</time>
      </trkpt>
      <trkpt lat="45.78347" lon="6.6733">
        <ele>2038</ele>
        <time>2022-08-16T11:23:14Z</time>
      </trkpt>
      <trkpt lat="45.78341" lon="6.6733">
        <ele>2038</ele>
        <time>2022-08-16T11:23:15Z</time>
      </trkpt>
      <trkpt lat="45.78336" lon="6.67329">
        <ele>2037</ele>
        <time>2022-08-16T11:23:16Z</time>
      </trkpt>
      <trkpt lat="45.78331" lon="6.67329">
        <ele>2036</ele>
        <time>2022-08-16T11:23:17Z</time>
      </trkpt>
      <trkpt lat="45.78325" lon="6.67329">
        <ele>2036</ele>
        <time>2022-08-16T11:23:18Z</time>
      </trkpt>
      <trkpt lat="45.7832" lon="6.67329">
        <ele>2035</ele>
        <time>2022-08-16T11:23:19Z</time>
      </trkpt>
      <trkpt lat="45.78315" lon="6.6733">
        <ele>2035</ele>
        <time>2022-08-16T11:23:20Z</time>
      </trkpt>
      <trkpt lat="45.7831" lon="6.67331">
        <ele>2035</ele>
        <time>2022-08-16T11:23:21Z</time>
      </trkpt>
      <trkpt lat="45.78304" lon="6.67332">
        <ele>2035</ele>
        <time>2022-08-16T11:23:22Z</time>
      </trkpt>
      <trkpt lat="45.78299" lon="6.67333">
        <ele>2035</ele>
        <time>2022-08-16T11:23:23Z</time>
      </trkpt>
      <trkpt lat="45.78294" lon="6.67335">
        <ele>2034</ele>
        <time>2022-08-16T11:23:24Z</time>
      </trkpt>
      <trkpt lat="45.7829" lon="6.67336">
        <ele>2033</ele>
        <time>2022-08-16T11:23:25Z</time>
      </trkpt>
      <trkpt lat="45.78284" lon="6.67338">
        <ele>2033</ele>
        <time>2022-08-16T11:23:26Z</time>
      </trkpt>
      <trkpt lat="45.78279" lon="6.67338">
        <ele>2032</ele>
        <time>2022-08-16T11:23:27Z</time>
      </trkpt>
      <trkpt lat="45.78273" lon="6.67338">
        <ele>2032</ele>
        <time>2022-08-16T11:23:28Z</time>
      </trkpt>
      <trkpt lat="45.78266" lon="6.67336">
        <ele>2031</ele>
        <time>2022-08-16T11:23:29Z</time>
      </trkpt>
      <trkpt lat="45.78259" lon="6.67332">
        <ele>2030</ele>
        <time>2022-08-16T11:23:30Z</time>
      </trkpt>
      <trkpt lat="45.78252" lon="6.67328">
        <ele>2030</ele>
        <time>2022-08-16T11:23:31Z</time>
      </trkpt>
      <trkpt lat="45.78245" lon="6.67322">
        <ele>2029</ele>
        <time>2022-08-16T11:23:32Z</time>
      </trkpt>
      <trkpt lat="45.78239" lon="6.67317">
        <ele>2028</ele>
        <time>2022-08-16T11:23:33Z</time>
      </trkpt>
      <trkpt lat="45.78233" lon="6.67312">
        <ele>2028</ele>
        <time>2022-08-16T11:23:34Z</time>
      </trkpt>
      <trkpt lat="45.78227" lon="6.67307">
        <ele>2027</ele>
        <time>2022-08-16T11:23:35Z</time>
      </trkpt>
      <trkpt lat="45.7822" lon="6.67304">
        <ele>2026</ele>
        <time>2022-08-16T11:23:36Z</time>
      </trkpt>
      <trkpt lat="45.78213" lon="6.67302">
        <ele>2026</ele>
        <time>2022-08-16T11:23:37Z</time>
      </trkpt>
      <trkpt lat="45.78206" lon="6.673">
        <ele>2026</ele>
        <time>2022-08-16T11:23:38Z</time>
      </trkpt>
      <trkpt lat="45.78199" lon="6.67298">
        <ele>2025</ele>
        <time>2022-08-16T11:23:39Z</time>
      </trkpt>
      <trkpt lat="45.78192" lon="6.67295">
        <ele>2025</ele>
        <time>2022-08-16T11:23:40Z</time>
      </trkpt>
      <trkpt lat="45.78185" lon="6.67294">
        <ele>2024</ele>
        <time>2022-08-16T11:23:41Z</time>
      </trkpt>
      <trkpt lat="45.78178" lon="6.67295">
        <ele>2023</ele>
        <time>2022-08-16T11:23:42Z</time>
      </trkpt>
      <trkpt lat="45.78172" lon="6.67298">
        <ele>2022</ele>
        <time>2022-08-16T11:23:43Z</time>
      </trkpt>
      <trkpt lat="45.78166" lon="6.67303">
        <ele>2021</ele>
        <time>2022-08-16T11:23:44Z</time>
      </trkpt>
      <trkpt lat="45.7816" lon="6.67305">
        <ele>2020</ele>
        <time>2022-08-16T11:23:45Z</time>
      </trkpt>
      <trkpt lat="45.78153" lon="6.67305">
        <ele>2018</ele>
        <time>2022-08-16T11:23:46Z</time>
      </trkpt>
      <trkpt lat="45.78147" lon="6.673">
        <ele>2018</ele>
        <time>2022-08-16T11:23:47Z</time>
      </trkpt>
      <trkpt lat="45.78143" lon="6.6729">
        <ele>2017</ele>
        <time>2022-08-16T11:23:48Z</time>
      </trkpt>
      <trkpt lat="45.78139" lon="6.6728">
        <ele>2016</ele>
        <time>2022-08-16T11:23:49Z</time>
      </trkpt>
      <trkpt lat="45.78136" lon="6.67269">
        <ele>2016</ele>
        <time>2022-08-16T11:23:50Z</time>
      </trkpt>
      <trkpt lat="45.78133" lon="6.6726">
        <ele>2015</ele>
        <time>2022-08-16T11:23:51Z</time>
      </trkpt>
      <trkpt lat="45.78129" lon="6.67252">
        <ele>2015</ele>
        <time>2022-08-16T11:23:52Z</time>
      </trkpt>
      <trkpt lat="45.78124" lon="6.67245">
        <ele>2014</ele>
        <time>2022-08-16T11:23:53Z</time>
      </trkpt>
      <trkpt lat="45.78119" lon="6.67237">
        <ele>2014</ele>
        <time>2022-08-16T11:23:54Z</time>
      </trkpt>
      <trkpt lat="45.78114" lon="6.6723">
        <ele>2013</ele>
        <time>2022-08-16T11:23:55Z</time>
      </trkpt>
      <trkpt lat="45.7811" lon="6.67223">
        <ele>2013</ele>
        <time>2022-08-16T11:23:56Z</time>
      </trkpt>
      <trkpt lat="45.78105" lon="6.67217">
        <ele>2013</ele>
        <time>2022-08-16T11:23:57Z</time>
      </trkpt>
      <trkpt lat="45.78101" lon="6.67212">
        <ele>2013</ele>
        <time>2022-08-16T11:23:58Z</time>
      </trkpt>
      <trkpt lat="45.78096" lon="6.67208">
        <ele>2013</ele>
        <time>2022-08-16T11:23:59Z</time>
      </trkpt>
      <trkpt lat="45.7809" lon="6.67206">
        <ele>2012</ele>
        <time>2022-08-16T11:24:00Z</time>
      </trkpt>
      <trkpt lat="45.78083" lon="6.67205">
        <ele>2012</ele>
        <time>2022-08-16T11:24:01Z</time>
      </trkpt>
      <trkpt lat="45.78076" lon="6.67205">
        <ele>2011</ele>
        <time>2022-08-16T11:24:02Z</time>
      </trkpt>
      <trkpt lat="45.78068" lon="6.67206">
        <ele>2009</ele>
        <time>2022-08-16T11:24:03Z</time>
      </trkpt>
      <trkpt lat="45.7806" lon="6.67207">
        <ele>2008</ele>
        <time>2022-08-16T11:24:04Z</time>
      </trkpt>
      <trkpt lat="45.78053" lon="6.67208">
        <ele>2007</ele>
        <time>2022-08-16T11:24:05Z</time>
      </trkpt>
      <trkpt lat="45.78045" lon="6.67208">
        <ele>2006</ele>
        <time>2022-08-16T11:24:06Z</time>
      </trkpt>
      <trkpt lat="45.78037" lon="6.67208">
        <ele>2006</ele>
        <time>2022-08-16T11:24:07Z</time>
      </trkpt>
      <trkpt lat="45.7803" lon="6.67204">
        <ele>2005</ele>
        <time>2022-08-16T11:24:08Z</time>
      </trkpt>
      <trkpt lat="45.78023" lon="6.67199">
        <ele>2004</ele>
        <time>2022-08-16T11:24:09Z</time>
      </trkpt>
      <trkpt lat="45.78016" lon="6.67192">
        <ele>2004</ele>
        <time>2022-08-16T11:24:10Z</time>
      </trkpt>
      <trkpt lat="45.78009" lon="6.67186">
        <ele>2004</ele>
        <time>2022-08-16T11:24:11Z</time>
      </trkpt>
      <trkpt lat="45.78003" lon="6.67181">
        <ele>2003</ele>
        <time>2022-08-16T11:24:12Z</time>
      </trkpt>
      <trkpt lat="45.77997" lon="6.67178">
        <ele>2002</ele>
        <time>2022-08-16T11:24:13Z</time>
      </trkpt>
      <trkpt lat="45.77991" lon="6.67176">
        <ele>2002</ele>
        <time>2022-08-16T11:24:14Z</time>
      </trkpt>
      <trkpt lat="45.77984" lon="6.67178">
        <ele>2001</ele>
        <time>2022-08-16T11:24:15Z</time>
      </trkpt>
      <trkpt lat="45.77976" lon="6.67181">
        <ele>2000</ele>
        <time>2022-08-16T11:24:16Z</time>
      </trkpt>
      <trkpt lat="45.77968" lon="6.67185">
        <ele>1999</ele>
        <time>2022-08-16T11:24:17Z</time>
      </trkpt>
      <trkpt lat="45.7796" lon="6.6719">
        <ele>1998</ele>
        <time>2022-08-16T11:24:18Z</time>
      </trkpt>
      <trkpt lat="45.77952" lon="6.67194">
        <ele>1997</ele>
        <time>2022-08-16T11:24:19Z</time>
      </trkpt>
      <trkpt lat="45.77944" lon="6.67197">
        <ele>1996</ele>
        <time>2022-08-16T11:24:20Z</time>
      </trkpt>
      <trkpt lat="45.77937" lon="6.67198">
        <ele>1994</ele>
        <time>2022-08-16T11:24:21Z</time>
      </trkpt>
      <trkpt lat="45.77929" lon="6.67196">
        <ele>1994</ele>
        <time>2022-08-16T11:24:22Z</time>
      </trkpt>
      <trkpt lat="45.77922" lon="6.67193">
        <ele>1993</ele>
        <time>2022-08-16T11:24:23Z</time>
      </trkpt>
      <trkpt lat="45.77916" lon="6.67189">
        <ele>1992</ele>
        <time>2022-08-16T11:24:24Z</time>
      </trkpt>
      <trkpt lat="45.77911" lon="6.67183">
        <ele>1991</ele>
        <time>2022-08-16T11:24:25Z</time>
      </trkpt>
      <trkpt lat="45.77907" lon="6.67175">
        <ele>1990</ele>
        <time>2022-08-16T11:24:26Z</time>
      </trkpt>
      <trkpt lat="45.77907" lon="6.67166">
        <ele>1989</ele>
        <time>2022-08-16T11:24:27Z</time>
      </trkpt>
      <trkpt lat="45.77909" lon="6.67157">
        <ele>1988</ele>
        <time>2022-08-16T11:24:28Z</time>
      </trkpt>
      <trkpt lat="45.77911" lon="6.67149">
        <ele>1987</ele>
        <time>2022-08-16T11:24:29Z</time>
      </trkpt>
      <trkpt lat="45.7791" lon="6.6714">
        <ele>1986</ele>
        <time>2022-08-16T11:24:30Z</time>
      </trkpt>
      <trkpt lat="45.77908" lon="6.67132">
        <ele>1986</ele>
        <time>2022-08-16T11:24:31Z</time>
      </trkpt>
      <trkpt lat="45.77903" lon="6.67125">
        <ele>1985</ele>
        <time>2022-08-16T11:24:32Z</time>
      </trkpt>
      <trkpt lat="45.77898" lon="6.67117">
        <ele>1984</ele>
        <time>2022-08-16T11:24:33Z</time>
      </trkpt>
      <trkpt lat="45.77892" lon="6.67109">
        <ele>1984</ele>
        <time>2022-08-16T11:24:34Z</time>
      </trkpt>
      <trkpt lat="45.77886" lon="6.67098">
        <ele>1982</ele>
        <time>2022-08-16T11:24:35Z</time>
      </trkpt>
      <trkpt lat="45.77881" lon="6.67086">
        <ele>1981</ele>
        <time>2022-08-16T11:24:36Z</time>
      </trkpt>
      <trkpt lat="45.77877" lon="6.67073">
        <ele>1981</ele>
        <time>2022-08-16T11:24:37Z</time>
      </trkpt>
      <trkpt lat="45.77872" lon="6.67062">
        <ele>1979</ele>
        <time>2022-08-16T11:24:38Z</time>
      </trkpt>
      <trkpt lat="45.77867" lon="6.67051">
        <ele>1978</ele>
        <time>2022-08-16T11:24:39Z</time>
      </trkpt>
      <trkpt lat="45.77863" lon="6.6704">
        <ele>1978</ele>
        <time>2022-08-16T11:24:40Z</time>
      </trkpt>
      <trkpt lat="45.77859" lon="6.6703">
        <ele>1977</ele>
        <time>2022-08-16T11:24:41Z</time>
      </trkpt>
      <trkpt lat="45.77854" lon="6.67022">
        <ele>1976</ele>
        <time>2022-08-16T11:24:42Z</time>
      </trkpt>
      <trkpt lat="45.77848" lon="6.67014">
        <ele>1975</ele>
        <time>2022-08-16T11:24:43Z</time>
      </trkpt>
      <trkpt lat="45.77843" lon="6.67006">
        <ele>1974</ele>
        <time>2022-08-16T11:24:44Z</time>
      </trkpt>
      <trkpt lat="45.77837" lon="6.66996">
        <ele>1973</ele>
        <time>2022-08-16T11:24:45Z</time>
      </trkpt>
      <trkpt lat="45.77833" lon="6.66985">
        <ele>1972</ele>
        <time>2022-08-16T11:24:46Z</time>
      </trkpt>
      <trkpt lat="45.7783" lon="6.66973">
        <ele>1971</ele>
        <time>2022-08-16T11:24:47Z</time>
      </trkpt>
      <trkpt lat="45.77827" lon="6.66962">
        <ele>1970</ele>
        <time>2022-08-16T11:24:48Z</time>
      </trkpt>
      <trkpt lat="45.77824" lon="6.66949">
        <ele>1969</ele>
        <time>2022-08-16T11:24:49Z</time>
      </trkpt>
      <trkpt lat="45.7782" lon="6.66935">
        <ele>1969</ele>
        <time>2022-08-16T11:24:50Z</time>
      </trkpt>
      <trkpt lat="45.77816" lon="6.66923">
        <ele>1968</ele>
        <time>2022-08-16T11:24:51Z</time>
      </trkpt>
      <trkpt lat="45.77812" lon="6.66912">
        <ele>1968</ele>
        <time>2022-08-16T11:24:52Z</time>
      </trkpt>
      <trkpt lat="45.77809" lon="6.66901">
        <ele>1967</ele>
        <time>2022-08-16T11:24:53Z</time>
      </trkpt>
      <trkpt lat="45.77806" lon="6.6689">
        <ele>1967</ele>
        <time>2022-08-16T11:24:54Z</time>
      </trkpt>
      <trkpt lat="45.77803" lon="6.66879">
        <ele>1966</ele>
        <time>2022-08-16T11:24:55Z</time>
      </trkpt>
      <trkpt lat="45.778" lon="6.66869">
        <ele>1965</ele>
        <time>2022-08-16T11:24:56Z</time>
      </trkpt>
      <trkpt lat="45.77797" lon="6.66859">
        <ele>1964</ele>
        <time>2022-08-16T11:24:57Z</time>
      </trkpt>
      <trkpt lat="45.77793" lon="6.66851">
        <ele>1964</ele>
        <time>2022-08-16T11:24:58Z</time>
      </trkpt>
      <trkpt lat="45.77789" lon="6.66842">
        <ele>1963</ele>
        <time>2022-08-16T11:24:59Z</time>
      </trkpt>
      <trkpt lat="45.77785" lon="6.66834">
        <ele>1963</ele>
        <time>2022-08-16T11:25:00Z</time>
      </trkpt>
      <trkpt lat="45.77781" lon="6.66825">
        <ele>1962</ele>
        <time>2022-08-16T11:25:01Z</time>
      </trkpt>
      <trkpt lat="45.77778" lon="6.66817">
        <ele>1962</ele>
        <time>2022-08-16T11:25:02Z</time>
      </trkpt>
      <trkpt lat="45.77774" lon="6.66808">
        <ele>1961</ele>
        <time>2022-08-16T11:25:03Z</time>
      </trkpt>
      <trkpt lat="45.77769" lon="6.668">
        <ele>1960</ele>
        <time>2022-08-16T11:25:04Z</time>
      </trkpt>
      <trkpt lat="45.77764" lon="6.66791">
        <ele>1959</ele>
        <time>2022-08-16T11:25:05Z</time>
      </trkpt>
      <trkpt lat="45.77758" lon="6.66782">
        <ele>1959</ele>
        <time>2022-08-16T11:25:06Z</time>
      </trkpt>
      <trkpt lat="45.77753" lon="6.66774">
        <ele>1958</ele>
        <time>2022-08-16T11:25:07Z</time>
      </trkpt>
      <trkpt lat="45.77747" lon="6.66766">
        <ele>1958</ele>
        <time>2022-08-16T11:25:08Z</time>
      </trkpt>
      <trkpt lat="45.77742" lon="6.66759">
        <ele>1957</ele>
        <time>2022-08-16T11:25:09Z</time>
      </trkpt>
      <trkpt lat="45.77736" lon="6.66752">
        <ele>1956</ele>
        <time>2022-08-16T11:25:10Z</time>
      </trkpt>
      <trkpt lat="45.7773" lon="6.66748">
        <ele>1955</ele>
        <time>2022-08-16T11:25:11Z</time>
      </trkpt>
      <trkpt lat="45.77724" lon="6.66743">
        <ele>1954</ele>
        <time>2022-08-16T11:25:12Z</time>
      </trkpt>
      <trkpt lat="45.77717" lon="6.66739">
        <ele>1954</ele>
        <time>2022-08-16T11:25:13Z</time>
      </trkpt>
      <trkpt lat="45.7771" lon="6.66736">
        <ele>1954</ele>
        <time>2022-08-16T11:25:14Z</time>
      </trkpt>
      <trkpt lat="45.77704" lon="6.66733">
        <ele>1953</ele>
        <time>2022-08-16T11:25:15Z</time>
      </trkpt>
      <trkpt lat="45.77698" lon="6.66731">
        <ele>1953</ele>
        <time>2022-08-16T11:25:16Z</time>
      </trkpt>
      <trkpt lat="45.77692" lon="6.66731">
        <ele>1951</ele>
        <time>2022-08-16T11:25:17Z</time>
      </trkpt>
      <trkpt lat="45.77685" lon="6.66732">
        <ele>1950</ele>
        <time>2022-08-16T11:25:18Z</time>
      </trkpt>
      <trkpt lat="45.77679" lon="6.66736">
        <ele>1950</ele>
        <time>2022-08-16T11:25:19Z</time>
      </trkpt>
      <trkpt lat="45.77673" lon="6.66742">
        <ele>1949</ele>
        <time>2022-08-16T11:25:20Z</time>
      </trkpt>
      <trkpt lat="45.77665" lon="6.6675">
        <ele>1948</ele>
        <time>2022-08-16T11:25:21Z</time>
      </trkpt>
      <trkpt lat="45.77658" lon="6.66758">
        <ele>1946</ele>
        <time>2022-08-16T11:25:22Z</time>
      </trkpt>
      <trkpt lat="45.77651" lon="6.66767">
        <ele>1945</ele>
        <time>2022-08-16T11:25:23Z</time>
      </trkpt>
      <trkpt lat="45.77645" lon="6.66777">
        <ele>1944</ele>
        <time>2022-08-16T11:25:24Z</time>
      </trkpt>
      <trkpt lat="45.77639" lon="6.66787">
        <ele>1943</ele>
        <time>2022-08-16T11:25:25Z</time>
      </trkpt>
      <trkpt lat="45.77633" lon="6.66799">
        <ele>1942</ele>
        <time>2022-08-16T11:25:26Z</time>
      </trkpt>
      <trkpt lat="45.77627" lon="6.66811">
        <ele>1941</ele>
        <time>2022-08-16T11:25:27Z</time>
      </trkpt>
      <trkpt lat="45.77622" lon="6.66823">
        <ele>1940</ele>
        <time>2022-08-16T11:25:28Z</time>
      </trkpt>
      <trkpt lat="45.77617" lon="6.66835">
        <ele>1938</ele>
        <time>2022-08-16T11:25:29Z</time>
      </trkpt>
      <trkpt lat="45.77613" lon="6.66846">
        <ele>1937</ele>
        <time>2022-08-16T11:25:30Z</time>
      </trkpt>
      <trkpt lat="45.77608" lon="6.66858">
        <ele>1936</ele>
        <time>2022-08-16T11:25:31Z</time>
      </trkpt>
      <trkpt lat="45.77604" lon="6.66868">
        <ele>1935</ele>
        <time>2022-08-16T11:25:32Z</time>
      </trkpt>
      <trkpt lat="45.77598" lon="6.66878">
        <ele>1934</ele>
        <time>2022-08-16T11:25:33Z</time>
      </trkpt>
      <trkpt lat="45.77592" lon="6.66887">
        <ele>1933</ele>
        <time>2022-08-16T11:25:34Z</time>
      </trkpt>
      <trkpt lat="45.77586" lon="6.66896">
        <ele>1932</ele>
        <time>2022-08-16T11:25:35Z</time>
      </trkpt>
      <trkpt lat="45.77581" lon="6.66907">
        <ele>1931</ele>
        <time>2022-08-16T11:25:36Z</time>
      </trkpt>
      <trkpt lat="45.77575" lon="6.66918">
        <ele>1930</ele>
        <time>2022-08-16T11:25:37Z</time>
      </trkpt>
      <trkpt lat="45.77569" lon="6.66929">
        <ele>1929</ele>
        <time>2022-08-16T11:25:38Z</time>
      </trkpt>
      <trkpt lat="45.77563" lon="6.6694">
        <ele>1927</ele>
        <time>2022-08-16T11:25:39Z</time>
      </trkpt>
      <trkpt lat="45.77555" lon="6.66948">
        <ele>1926</ele>
        <time>2022-08-16T11:25:40Z</time>
      </trkpt>
      <trkpt lat="45.77546" lon="6.66954">
        <ele>1926</ele>
        <time>2022-08-16T11:25:41Z</time>
      </trkpt>
      <trkpt lat="45.77537" lon="6.66958">
        <ele>1925</ele>
        <time>2022-08-16T11:25:42Z</time>
      </trkpt>
      <trkpt lat="45.77529" lon="6.66961">
        <ele>1925</ele>
        <time>2022-08-16T11:25:43Z</time>
      </trkpt>
      <trkpt lat="45.77522" lon="6.66965">
        <ele>1925</ele>
        <time>2022-08-16T11:25:44Z</time>
      </trkpt>
      <trkpt lat="45.77515" lon="6.66969">
        <ele>1925</ele>
        <time>2022-08-16T11:25:45Z</time>
      </trkpt>
      <trkpt lat="45.7751" lon="6.66975">
        <ele>1924</ele>
        <time>2022-08-16T11:25:46Z</time>
      </trkpt>
      <trkpt lat="45.77505" lon="6.66982">
        <ele>1923</ele>
        <time>2022-08-16T11:25:47Z</time>
      </trkpt>
      <trkpt lat="45.775" lon="6.6699">
        <ele>1923</ele>
        <time>2022-08-16T11:25:48Z</time>
      </trkpt>
      <trkpt lat="45.77496" lon="6.66998">
        <ele>1922</ele>
        <time>2022-08-16T11:25:49Z</time>
      </trkpt>
      <trkpt lat="45.77493" lon="6.67008">
        <ele>1921</ele>
        <time>2022-08-16T11:25:50Z</time>
      </trkpt>
      <trkpt lat="45.77489" lon="6.67018">
        <ele>1920</ele>
        <time>2022-08-16T11:25:51Z</time>
      </trkpt>
      <trkpt lat="45.77486" lon="6.67029">
        <ele>1920</ele>
        <time>2022-08-16T11:25:52Z</time>
      </trkpt>
      <trkpt lat="45.77484" lon="6.6704">
        <ele>1919</ele>
        <time>2022-08-16T11:25:53Z</time>
      </trkpt>
      <trkpt lat="45.77483" lon="6.67052">
        <ele>1918</ele>
        <time>2022-08-16T11:25:54Z</time>
      </trkpt>
      <trkpt lat="45.77482" lon="6.67065">
        <ele>1917</ele>
        <time>2022-08-16T11:25:55Z</time>
      </trkpt>
      <trkpt lat="45.77481" lon="6.67077">
        <ele>1916</ele>
        <time>2022-08-16T11:25:56Z</time>
      </trkpt>
      <trkpt lat="45.77479" lon="6.6709">
        <ele>1915</ele>
        <time>2022-08-16T11:25:57Z</time>
      </trkpt>
      <trkpt lat="45.77479" lon="6.67103">
        <ele>1915</ele>
        <time>2022-08-16T11:25:58Z</time>
      </trkpt>
      <trkpt lat="45.77478" lon="6.67114">
        <ele>1914</ele>
        <time>2022-08-16T11:25:59Z</time>
      </trkpt>
      <trkpt lat="45.77477" lon="6.67125">
        <ele>1913</ele>
        <time>2022-08-16T11:26:00Z</time>
      </trkpt>
      <trkpt lat="45.77475" lon="6.67133">
        <ele>1912</ele>
        <time>2022-08-16T11:26:01Z</time>
      </trkpt>
      <trkpt lat="45.77473" lon="6.6714">
        <ele>1912</ele>
        <time>2022-08-16T11:26:02Z</time>
      </trkpt>
      <trkpt lat="45.7747" lon="6.67146">
        <ele>1912</ele>
        <time>2022-08-16T11:26:03Z</time>
      </trkpt>
      <trkpt lat="45.77467" lon="6.67147">
        <ele>1912</ele>
        <time>2022-08-16T11:26:04Z</time>
      </trkpt>
      <trkpt lat="45.77462" lon="6.67145">
        <ele>1912</ele>
        <time>2022-08-16T11:26:05Z</time>
      </trkpt>
      <trkpt lat="45.7746" lon="6.6714">
        <ele>1912</ele>
        <time>2022-08-16T11:26:06Z</time>
      </trkpt>
      <trkpt lat="45.77458" lon="6.67132">
        <ele>1911</ele>
        <time>2022-08-16T11:26:07Z</time>
      </trkpt>
      <trkpt lat="45.77458" lon="6.67124">
        <ele>1911</ele>
        <time>2022-08-16T11:26:08Z</time>
      </trkpt>
      <trkpt lat="45.7746" lon="6.67114">
        <ele>1910</ele>
        <time>2022-08-16T11:26:09Z</time>
      </trkpt>
      <trkpt lat="45.7746" lon="6.67102">
        <ele>1909</ele>
        <time>2022-08-16T11:26:10Z</time>
      </trkpt>
      <trkpt lat="45.77459" lon="6.6709">
        <ele>1909</ele>
        <time>2022-08-16T11:26:11Z</time>
      </trkpt>
      <trkpt lat="45.77456" lon="6.67079">
        <ele>1908</ele>
        <time>2022-08-16T11:26:12Z</time>
      </trkpt>
      <trkpt lat="45.77453" lon="6.67067">
        <ele>1907</ele>
        <time>2022-08-16T11:26:13Z</time>
      </trkpt>
      <trkpt lat="45.77451" lon="6.67056">
        <ele>1905</ele>
        <time>2022-08-16T11:26:14Z</time>
      </trkpt>
      <trkpt lat="45.77448" lon="6.67046">
        <ele>1904</ele>
        <time>2022-08-16T11:26:15Z</time>
      </trkpt>
      <trkpt lat="45.77445" lon="6.67036">
        <ele>1904</ele>
        <time>2022-08-16T11:26:16Z</time>
      </trkpt>
      <trkpt lat="45.77442" lon="6.67027">
        <ele>1903</ele>
        <time>2022-08-16T11:26:17Z</time>
      </trkpt>
      <trkpt lat="45.77438" lon="6.67017">
        <ele>1902</ele>
        <time>2022-08-16T11:26:18Z</time>
      </trkpt>
      <trkpt lat="45.77434" lon="6.67007">
        <ele>1901</ele>
        <time>2022-08-16T11:26:19Z</time>
      </trkpt>
      <trkpt lat="45.77431" lon="6.66996">
        <ele>1900</ele>
        <time>2022-08-16T11:26:20Z</time>
      </trkpt>
      <trkpt lat="45.77428" lon="6.66986">
        <ele>1899</ele>
        <time>2022-08-16T11:26:21Z</time>
      </trkpt>
      <trkpt lat="45.77426" lon="6.66975">
        <ele>1897</ele>
        <time>2022-08-16T11:26:22Z</time>
      </trkpt>
      <trkpt lat="45.77423" lon="6.66963">
        <ele>1897</ele>
        <time>2022-08-16T11:26:23Z</time>
      </trkpt>
      <trkpt lat="45.77421" lon="6.66951">
        <ele>1896</ele>
        <time>2022-08-16T11:26:24Z</time>
      </trkpt>
      <trkpt lat="45.77419" lon="6.66938">
        <ele>1896</ele>
        <time>2022-08-16T11:26:25Z</time>
      </trkpt>
      <trkpt lat="45.77415" lon="6.66924">
        <ele>1895</ele>
        <time>2022-08-16T11:26:26Z</time>
      </trkpt>
      <trkpt lat="45.77411" lon="6.6691">
        <ele>1894</ele>
        <time>2022-08-16T11:26:27Z</time>
      </trkpt>
      <trkpt lat="45.77408" lon="6.66898">
        <ele>1893</ele>
        <time>2022-08-16T11:26:28Z</time>
      </trkpt>
      <trkpt lat="45.77406" lon="6.66886">
        <ele>1892</ele>
        <time>2022-08-16T11:26:29Z</time>
      </trkpt>
      <trkpt lat="45.77405" lon="6.66874">
        <ele>1891</ele>
        <time>2022-08-16T11:26:30Z</time>
      </trkpt>
      <trkpt lat="45.77404" lon="6.66862">
        <ele>1890</ele>
        <time>2022-08-16T11:26:31Z</time>
      </trkpt>
      <trkpt lat="45.77405" lon="6.6685">
        <ele>1890</ele>
        <time>2022-08-16T11:26:32Z</time>
      </trkpt>
      <trkpt lat="45.77406" lon="6.66838">
        <ele>1889</ele>
        <time>2022-08-16T11:26:33Z</time>
      </trkpt>
      <trkpt lat="45.77408" lon="6.66825">
        <ele>1888</ele>
        <time>2022-08-16T11:26:34Z</time>
      </trkpt>
      <trkpt lat="45.77409" lon="6.66812">
        <ele>1888</ele>
        <time>2022-08-16T11:26:35Z</time>
      </trkpt>
      <trkpt lat="45.7741" lon="6.66798">
        <ele>1887</ele>
        <time>2022-08-16T11:26:36Z</time>
      </trkpt>
      <trkpt lat="45.77412" lon="6.66783">
        <ele>1887</ele>
        <time>2022-08-16T11:26:37Z</time>
      </trkpt>
      <trkpt lat="45.77413" lon="6.66769">
        <ele>1886</ele>
        <time>2022-08-16T11:26:38Z</time>
      </trkpt>
      <trkpt lat="45.77414" lon="6.66756">
        <ele>1886</ele>
        <time>2022-08-16T11:26:39Z</time>
      </trkpt>
      <trkpt lat="45.77416" lon="6.66743">
        <ele>1885</ele>
        <time>2022-08-16T11:26:40Z</time>
      </trkpt>
      <trkpt lat="45.77417" lon="6.6673">
        <ele>1884</ele>
        <time>2022-08-16T11:26:41Z</time>
      </trkpt>
      <trkpt lat="45.7742" lon="6.66718">
        <ele>1883</ele>
        <time>2022-08-16T11:26:42Z</time>
      </trkpt>
      <trkpt lat="45.77423" lon="6.66706">
        <ele>1882</ele>
        <time>2022-08-16T11:26:43Z</time>
      </trkpt>
      <trkpt lat="45.77426" lon="6.66696">
        <ele>1881</ele>
        <time>2022-08-16T11:26:44Z</time>
      </trkpt>
      <trkpt lat="45.77429" lon="6.66687">
        <ele>1880</ele>
        <time>2022-08-16T11:26:45Z</time>
      </trkpt>
      <trkpt lat="45.77429" lon="6.66678">
        <ele>1880</ele>
        <time>2022-08-16T11:26:46Z</time>
      </trkpt>
      <trkpt lat="45.77426" lon="6.66671">
        <ele>1879</ele>
        <time>2022-08-16T11:26:47Z</time>
      </trkpt>
      <trkpt lat="45.7742" lon="6.66669">
        <ele>1879</ele>
        <time>2022-08-16T11:26:48Z</time>
      </trkpt>
      <trkpt lat="45.77414" lon="6.66672">
        <ele>1878</ele>
        <time>2022-08-16T11:26:49Z</time>
      </trkpt>
      <trkpt lat="45.77409" lon="6.66678">
        <ele>1878</ele>
        <time>2022-08-16T11:26:50Z</time>
      </trkpt>
      <trkpt lat="45.77406" lon="6.66685">
        <ele>1877</ele>
        <time>2022-08-16T11:26:51Z</time>
      </trkpt>
      <trkpt lat="45.77403" lon="6.66694">
        <ele>1877</ele>
        <time>2022-08-16T11:26:52Z</time>
      </trkpt>
      <trkpt lat="45.77399" lon="6.66702">
        <ele>1876</ele>
        <time>2022-08-16T11:26:53Z</time>
      </trkpt>
      <trkpt lat="45.77394" lon="6.66711">
        <ele>1875</ele>
        <time>2022-08-16T11:26:54Z</time>
      </trkpt>
      <trkpt lat="45.77388" lon="6.6672">
        <ele>1874</ele>
        <time>2022-08-16T11:26:55Z</time>
      </trkpt>
      <trkpt lat="45.77382" lon="6.6673">
        <ele>1874</ele>
        <time>2022-08-16T11:26:56Z</time>
      </trkpt>
      <trkpt lat="45.77377" lon="6.66741">
        <ele>1873</ele>
        <time>2022-08-16T11:26:57Z</time>
      </trkpt>
      <trkpt lat="45.77373" lon="6.66752">
        <ele>1873</ele>
        <time>2022-08-16T11:26:58Z</time>
      </trkpt>
      <trkpt lat="45.77369" lon="6.66763">
        <ele>1872</ele>
        <time>2022-08-16T11:26:59Z</time>
      </trkpt>
      <trkpt lat="45.77366" lon="6.66773">
        <ele>1871</ele>
        <time>2022-08-16T11:27:00Z</time>
      </trkpt>
      <trkpt lat="45.77363" lon="6.66782">
        <ele>1870</ele>
        <time>2022-08-16T11:27:01Z</time>
      </trkpt>
      <trkpt lat="45.77361" lon="6.66789">
        <ele>1869</ele>
        <time>2022-08-16T11:27:02Z</time>
      </trkpt>
      <trkpt lat="45.77359" lon="6.66796">
        <ele>1869</ele>
        <time>2022-08-16T11:27:03Z</time>
      </trkpt>
      <trkpt lat="45.77357" lon="6.66802">
        <ele>1868</ele>
        <time>2022-08-16T11:27:04Z</time>
      </trkpt>
      <trkpt lat="45.77354" lon="6.66808">
        <ele>1868</ele>
        <time>2022-08-16T11:27:05Z</time>
      </trkpt>
      <trkpt lat="45.7735" lon="6.66811">
        <ele>1867</ele>
        <time>2022-08-16T11:27:06Z</time>
      </trkpt>
      <trkpt lat="45.77345" lon="6.6681">
        <ele>1867</ele>
        <time>2022-08-16T11:27:07Z</time>
      </trkpt>
      <trkpt lat="45.77341" lon="6.66805">
        <ele>1866</ele>
        <time>2022-08-16T11:27:08Z</time>
      </trkpt>
      <trkpt lat="45.77339" lon="6.66797">
        <ele>1866</ele>
        <time>2022-08-16T11:27:09Z</time>
      </trkpt>
      <trkpt lat="45.7734" lon="6.66789">
        <ele>1866</ele>
        <time>2022-08-16T11:27:10Z</time>
      </trkpt>
      <trkpt lat="45.77341" lon="6.66781">
        <ele>1865</ele>
        <time>2022-08-16T11:27:11Z</time>
      </trkpt>
      <trkpt lat="45.77343" lon="6.66773">
        <ele>1864</ele>
        <time>2022-08-16T11:27:12Z</time>
      </trkpt>
      <trkpt lat="45.77346" lon="6.66765">
        <ele>1864</ele>
        <time>2022-08-16T11:27:13Z</time>
      </trkpt>
      <trkpt lat="45.77347" lon="6.66756">
        <ele>1863</ele>
        <time>2022-08-16T11:27:14Z</time>
      </trkpt>
      <trkpt lat="45.77349" lon="6.66747">
        <ele>1863</ele>
        <time>2022-08-16T11:27:15Z</time>
      </trkpt>
      <trkpt lat="45.7735" lon="6.66738">
        <ele>1862</ele>
        <time>2022-08-16T11:27:16Z</time>
      </trkpt>
      <trkpt lat="45.77352" lon="6.66728">
        <ele>1862</ele>
        <time>2022-08-16T11:27:17Z</time>
      </trkpt>
      <trkpt lat="45.77353" lon="6.66718">
        <ele>1861</ele>
        <time>2022-08-16T11:27:18Z</time>
      </trkpt>
      <trkpt lat="45.77354" lon="6.66707">
        <ele>1861</ele>
        <time>2022-08-16T11:27:19Z</time>
      </trkpt>
      <trkpt lat="45.77354" lon="6.66696">
        <ele>1860</ele>
        <time>2022-08-16T11:27:20Z</time>
      </trkpt>
      <trkpt lat="45.77354" lon="6.66686">
        <ele>1860</ele>
        <time>2022-08-16T11:27:21Z</time>
      </trkpt>
      <trkpt lat="45.77353" lon="6.66675">
        <ele>1859</ele>
        <time>2022-08-16T11:27:22Z</time>
      </trkpt>
      <trkpt lat="45.77352" lon="6.66663">
        <ele>1858</ele>
        <time>2022-08-16T11:27:23Z</time>
      </trkpt>
      <trkpt lat="45.77351" lon="6.66652">
        <ele>1858</ele>
        <time>2022-08-16T11:27:24Z</time>
      </trkpt>
      <trkpt lat="45.77349" lon="6.66641">
        <ele>1857</ele>
        <time>2022-08-16T11:27:25Z</time>
      </trkpt>
      <trkpt lat="45.77348" lon="6.66631">
        <ele>1856</ele>
        <time>2022-08-16T11:27:26Z</time>
      </trkpt>
      <trkpt lat="45.77349" lon="6.6662">
        <ele>1855</ele>
        <time>2022-08-16T11:27:27Z</time>
      </trkpt>
      <trkpt lat="45.77353" lon="6.6661">
        <ele>1854</ele>
        <time>2022-08-16T11:27:28Z</time>
      </trkpt>
      <trkpt lat="45.77359" lon="6.66601">
        <ele>1853</ele>
        <time>2022-08-16T11:27:29Z</time>
      </trkpt>
      <trkpt lat="45.77365" lon="6.66594">
        <ele>1851</ele>
        <time>2022-08-16T11:27:30Z</time>
      </trkpt>
      <trkpt lat="45.77372" lon="6.66585">
        <ele>1850</ele>
        <time>2022-08-16T11:27:31Z</time>
      </trkpt>
      <trkpt lat="45.77378" lon="6.66575">
        <ele>1849</ele>
        <time>2022-08-16T11:27:32Z</time>
      </trkpt>
      <trkpt lat="45.77384" lon="6.66563">
        <ele>1848</ele>
        <time>2022-08-16T11:27:33Z</time>
      </trkpt>
      <trkpt lat="45.77388" lon="6.66551">
        <ele>1847</ele>
        <time>2022-08-16T11:27:34Z</time>
      </trkpt>
      <trkpt lat="45.77391" lon="6.66537">
        <ele>1846</ele>
        <time>2022-08-16T11:27:35Z</time>
      </trkpt>
      <trkpt lat="45.77394" lon="6.66523">
        <ele>1846</ele>
        <time>2022-08-16T11:27:36Z</time>
      </trkpt>
      <trkpt lat="45.77398" lon="6.66511">
        <ele>1846</ele>
        <time>2022-08-16T11:27:37Z</time>
      </trkpt>
      <trkpt lat="45.77403" lon="6.66497">
        <ele>1845</ele>
        <time>2022-08-16T11:27:38Z</time>
      </trkpt>
      <trkpt lat="45.77408" lon="6.66484">
        <ele>1844</ele>
        <time>2022-08-16T11:27:39Z</time>
      </trkpt>
      <trkpt lat="45.77415" lon="6.66472">
        <ele>1843</ele>
        <time>2022-08-16T11:27:40Z</time>
      </trkpt>
      <trkpt lat="45.77422" lon="6.66461">
        <ele>1842</ele>
        <time>2022-08-16T11:27:41Z</time>
      </trkpt>
      <trkpt lat="45.7743" lon="6.6645">
        <ele>1841</ele>
        <time>2022-08-16T11:27:42Z</time>
      </trkpt>
      <trkpt lat="45.77436" lon="6.66438">
        <ele>1840</ele>
        <time>2022-08-16T11:27:43Z</time>
      </trkpt>
      <trkpt lat="45.77444" lon="6.66427">
        <ele>1839</ele>
        <time>2022-08-16T11:27:44Z</time>
      </trkpt>
      <trkpt lat="45.77453" lon="6.66416">
        <ele>1838</ele>
        <time>2022-08-16T11:27:45Z</time>
      </trkpt>
      <trkpt lat="45.7746" lon="6.66406">
        <ele>1838</ele>
        <time>2022-08-16T11:27:46Z</time>
      </trkpt>
      <trkpt lat="45.77468" lon="6.66399">
        <ele>1837</ele>
        <time>2022-08-16T11:27:47Z</time>
      </trkpt>
      <trkpt lat="45.77475" lon="6.66393">
        <ele>1836</ele>
        <time>2022-08-16T11:27:48Z</time>
      </trkpt>
      <trkpt lat="45.7748" lon="6.66385">
        <ele>1835</ele>
        <time>2022-08-16T11:27:49Z</time>
      </trkpt>
      <trkpt lat="45.77484" lon="6.66376">
        <ele>1834</ele>
        <time>2022-08-16T11:27:50Z</time>
      </trkpt>
      <trkpt lat="45.77487" lon="6.66365">
        <ele>1833</ele>
        <time>2022-08-16T11:27:51Z</time>
      </trkpt>
      <trkpt lat="45.77488" lon="6.66354">
        <ele>1832</ele>
        <time>2022-08-16T11:27:52Z</time>
      </trkpt>
      <trkpt lat="45.7749" lon="6.66343">
        <ele>1831</ele>
        <time>2022-08-16T11:27:53Z</time>
      </trkpt>
      <trkpt lat="45.77492" lon="6.6633">
        <ele>1830</ele>
        <time>2022-08-16T11:27:54Z</time>
      </trkpt>
      <trkpt lat="45.77494" lon="6.66319">
        <ele>1829</ele>
        <time>2022-08-16T11:27:55Z</time>
      </trkpt>
      <trkpt lat="45.77495" lon="6.66308">
        <ele>1829</ele>
        <time>2022-08-16T11:27:56Z</time>
      </trkpt>
      <trkpt lat="45.77497" lon="6.66297">
        <ele>1828</ele>
        <time>2022-08-16T11:27:57Z</time>
      </trkpt>
      <trkpt lat="45.77499" lon="6.66287">
        <ele>1828</ele>
        <time>2022-08-16T11:27:58Z</time>
      </trkpt>
      <trkpt lat="45.77502" lon="6.66276">
        <ele>1828</ele>
        <time>2022-08-16T11:27:59Z</time>
      </trkpt>
      <trkpt lat="45.77506" lon="6.66265">
        <ele>1827</ele>
        <time>2022-08-16T11:28:00Z</time>
      </trkpt>
      <trkpt lat="45.7751" lon="6.66255">
        <ele>1826</ele>
        <time>2022-08-16T11:28:01Z</time>
      </trkpt>
      <trkpt lat="45.77515" lon="6.66243">
        <ele>1825</ele>
        <time>2022-08-16T11:28:02Z</time>
      </trkpt>
      <trkpt lat="45.77521" lon="6.66232">
        <ele>1824</ele>
        <time>2022-08-16T11:28:03Z</time>
      </trkpt>
      <trkpt lat="45.77526" lon="6.66222">
        <ele>1823</ele>
        <time>2022-08-16T11:28:04Z</time>
      </trkpt>
      <trkpt lat="45.77531" lon="6.66214">
        <ele>1822</ele>
        <time>2022-08-16T11:28:05Z</time>
      </trkpt>
      <trkpt lat="45.77536" lon="6.66207">
        <ele>1821</ele>
        <time>2022-08-16T11:28:06Z</time>
      </trkpt>
      <trkpt lat="45.77544" lon="6.66202">
        <ele>1820</ele>
        <time>2022-08-16T11:28:07Z</time>
      </trkpt>
      <trkpt lat="45.77552" lon="6.66199">
        <ele>1819</ele>
        <time>2022-08-16T11:28:08Z</time>
      </trkpt>
      <trkpt lat="45.7756" lon="6.66196">
        <ele>1818</ele>
        <time>2022-08-16T11:28:09Z</time>
      </trkpt>
      <trkpt lat="45.77568" lon="6.66192">
        <ele>1817</ele>
        <time>2022-08-16T11:28:10Z</time>
      </trkpt>
      <trkpt lat="45.77578" lon="6.66188">
        <ele>1816</ele>
        <time>2022-08-16T11:28:11Z</time>
      </trkpt>
      <trkpt lat="45.77587" lon="6.66185">
        <ele>1815</ele>
        <time>2022-08-16T11:28:12Z</time>
      </trkpt>
      <trkpt lat="45.77597" lon="6.66182">
        <ele>1814</ele>
        <time>2022-08-16T11:28:13Z</time>
      </trkpt>
      <trkpt lat="45.77607" lon="6.6618">
        <ele>1813</ele>
        <time>2022-08-16T11:28:14Z</time>
      </trkpt>
      <trkpt lat="45.77616" lon="6.6618">
        <ele>1812</ele>
        <time>2022-08-16T11:28:15Z</time>
      </trkpt>
      <trkpt lat="45.77626" lon="6.66181">
        <ele>1811</ele>
        <time>2022-08-16T11:28:16Z</time>
      </trkpt>
      <trkpt lat="45.77636" lon="6.66184">
        <ele>1810</ele>
        <time>2022-08-16T11:28:17Z</time>
      </trkpt>
      <trkpt lat="45.77645" lon="6.66187">
        <ele>1809</ele>
        <time>2022-08-16T11:28:18Z</time>
      </trkpt>
      <trkpt lat="45.77655" lon="6.66189">
        <ele>1807</ele>
        <time>2022-08-16T11:28:19Z</time>
      </trkpt>
      <trkpt lat="45.77664" lon="6.66191">
        <ele>1807</ele>
        <time>2022-08-16T11:28:20Z</time>
      </trkpt>
      <trkpt lat="45.77674" lon="6.66192">
        <ele>1806</ele>
        <time>2022-08-16T11:28:21Z</time>
      </trkpt>
      <trkpt lat="45.77684" lon="6.66193">
        <ele>1805</ele>
        <time>2022-08-16T11:28:22Z</time>
      </trkpt>
      <trkpt lat="45.77692" lon="6.66195">
        <ele>1804</ele>
        <time>2022-08-16T11:28:23Z</time>
      </trkpt>
      <trkpt lat="45.777" lon="6.66197">
        <ele>1803</ele>
        <time>2022-08-16T11:28:24Z</time>
      </trkpt>
      <trkpt lat="45.77708" lon="6.66199">
        <ele>1802</ele>
        <time>2022-08-16T11:28:25Z</time>
      </trkpt>
      <trkpt lat="45.77715" lon="6.66202">
        <ele>1802</ele>
        <time>2022-08-16T11:28:26Z</time>
      </trkpt>
      <trkpt lat="45.77721" lon="6.66205">
        <ele>1801</ele>
        <time>2022-08-16T11:28:27Z</time>
      </trkpt>
      <trkpt lat="45.77727" lon="6.66205">
        <ele>1801</ele>
        <time>2022-08-16T11:28:28Z</time>
      </trkpt>
      <trkpt lat="45.77732" lon="6.66203">
        <ele>1801</ele>
        <time>2022-08-16T11:28:29Z</time>
      </trkpt>
      <trkpt lat="45.77736" lon="6.66198">
        <ele>1801</ele>
        <time>2022-08-16T11:28:30Z</time>
      </trkpt>
      <trkpt lat="45.77736" lon="6.6619">
        <ele>1801</ele>
        <time>2022-08-16T11:28:31Z</time>
      </trkpt>
      <trkpt lat="45.77733" lon="6.66182">
        <ele>1801</ele>
        <time>2022-08-16T11:28:32Z</time>
      </trkpt>
      <trkpt lat="45.77727" lon="6.66179">
        <ele>1801</ele>
        <time>2022-08-16T11:28:33Z</time>
      </trkpt>
      <trkpt lat="45.7772" lon="6.66178">
        <ele>1802</ele>
        <time>2022-08-16T11:28:34Z</time>
      </trkpt>
      <trkpt lat="45.77713" lon="6.66176">
        <ele>1801</ele>
        <time>2022-08-16T11:28:35Z</time>
      </trkpt>
      <trkpt lat="45.77706" lon="6.66174">
        <ele>1801</ele>
        <time>2022-08-16T11:28:36Z</time>
      </trkpt>
      <trkpt lat="45.77698" lon="6.66171">
        <ele>1801</ele>
        <time>2022-08-16T11:28:37Z</time>
      </trkpt>
      <trkpt lat="45.7769" lon="6.66169">
        <ele>1800</ele>
        <time>2022-08-16T11:28:38Z</time>
      </trkpt>
      <trkpt lat="45.77682" lon="6.66166">
        <ele>1800</ele>
        <time>2022-08-16T11:28:39Z</time>
      </trkpt>
      <trkpt lat="45.77673" lon="6.66163">
        <ele>1799</ele>
        <time>2022-08-16T11:28:40Z</time>
      </trkpt>
      <trkpt lat="45.77664" lon="6.6616">
        <ele>1799</ele>
        <time>2022-08-16T11:28:41Z</time>
      </trkpt>
      <trkpt lat="45.77656" lon="6.66156">
        <ele>1798</ele>
        <time>2022-08-16T11:28:42Z</time>
      </trkpt>
      <trkpt lat="45.77647" lon="6.6615">
        <ele>1797</ele>
        <time>2022-08-16T11:28:43Z</time>
      </trkpt>
      <trkpt lat="45.77638" lon="6.66142">
        <ele>1797</ele>
        <time>2022-08-16T11:28:44Z</time>
      </trkpt>
      <trkpt lat="45.7763" lon="6.66133">
        <ele>1796</ele>
        <time>2022-08-16T11:28:45Z</time>
      </trkpt>
      <trkpt lat="45.77623" lon="6.66123">
        <ele>1795</ele>
        <time>2022-08-16T11:28:46Z</time>
      </trkpt>
      <trkpt lat="45.77616" lon="6.66114">
        <ele>1795</ele>
        <time>2022-08-16T11:28:47Z</time>
      </trkpt>
      <trkpt lat="45.7761" lon="6.66106">
        <ele>1794</ele>
        <time>2022-08-16T11:28:48Z</time>
      </trkpt>
      <trkpt lat="45.77603" lon="6.66099">
        <ele>1794</ele>
        <time>2022-08-16T11:28:49Z</time>
      </trkpt>
      <trkpt lat="45.77596" lon="6.66094">
        <ele>1793</ele>
        <time>2022-08-16T11:28:50Z</time>
      </trkpt>
      <trkpt lat="45.77588" lon="6.6609">
        <ele>1793</ele>
        <time>2022-08-16T11:28:51Z</time>
      </trkpt>
      <trkpt lat="45.77579" lon="6.66088">
        <ele>1791</ele>
        <time>2022-08-16T11:28:52Z</time>
      </trkpt>
      <trkpt lat="45.77571" lon="6.66087">
        <ele>1790</ele>
        <time>2022-08-16T11:28:53Z</time>
      </trkpt>
      <trkpt lat="45.77564" lon="6.66088">
        <ele>1790</ele>
        <time>2022-08-16T11:28:54Z</time>
      </trkpt>
      <trkpt lat="45.77558" lon="6.66089">
        <ele>1789</ele>
        <time>2022-08-16T11:28:55Z</time>
      </trkpt>
      <trkpt lat="45.77552" lon="6.66088">
        <ele>1789</ele>
        <time>2022-08-16T11:28:56Z</time>
      </trkpt>
      <trkpt lat="45.77548" lon="6.66083">
        <ele>1788</ele>
        <time>2022-08-16T11:28:57Z</time>
      </trkpt>
      <trkpt lat="45.77547" lon="6.66076">
        <ele>1787</ele>
        <time>2022-08-16T11:28:58Z</time>
      </trkpt>
      <trkpt lat="45.77551" lon="6.66068">
        <ele>1787</ele>
        <time>2022-08-16T11:28:59Z</time>
      </trkpt>
      <trkpt lat="45.77558" lon="6.66063">
        <ele>1786</ele>
        <time>2022-08-16T11:29:00Z</time>
      </trkpt>
      <trkpt lat="45.77565" lon="6.66059">
        <ele>1785</ele>
        <time>2022-08-16T11:29:01Z</time>
      </trkpt>
      <trkpt lat="45.77573" lon="6.66057">
        <ele>1784</ele>
        <time>2022-08-16T11:29:02Z</time>
      </trkpt>
      <trkpt lat="45.77581" lon="6.66054">
        <ele>1783</ele>
        <time>2022-08-16T11:29:03Z</time>
      </trkpt>
      <trkpt lat="45.7759" lon="6.66052">
        <ele>1782</ele>
        <time>2022-08-16T11:29:04Z</time>
      </trkpt>
      <trkpt lat="45.77597" lon="6.66051">
        <ele>1781</ele>
        <time>2022-08-16T11:29:05Z</time>
      </trkpt>
      <trkpt lat="45.77606" lon="6.66051">
        <ele>1780</ele>
        <time>2022-08-16T11:29:06Z</time>
      </trkpt>
      <trkpt lat="45.77615" lon="6.66051">
        <ele>1778</ele>
        <time>2022-08-16T11:29:07Z</time>
      </trkpt>
      <trkpt lat="45.77623" lon="6.66052">
        <ele>1777</ele>
        <time>2022-08-16T11:29:08Z</time>
      </trkpt>
      <trkpt lat="45.77631" lon="6.66054">
        <ele>1776</ele>
        <time>2022-08-16T11:29:09Z</time>
      </trkpt>
      <trkpt lat="45.77639" lon="6.66057">
        <ele>1775</ele>
        <time>2022-08-16T11:29:10Z</time>
      </trkpt>
      <trkpt lat="45.77647" lon="6.66063">
        <ele>1774</ele>
        <time>2022-08-16T11:29:11Z</time>
      </trkpt>
      <trkpt lat="45.77655" lon="6.66068">
        <ele>1773</ele>
        <time>2022-08-16T11:29:12Z</time>
      </trkpt>
      <trkpt lat="45.77663" lon="6.6607">
        <ele>1772</ele>
        <time>2022-08-16T11:29:13Z</time>
      </trkpt>
      <trkpt lat="45.77672" lon="6.66068">
        <ele>1771</ele>
        <time>2022-08-16T11:29:14Z</time>
      </trkpt>
      <trkpt lat="45.77681" lon="6.66063">
        <ele>1770</ele>
        <time>2022-08-16T11:29:15Z</time>
      </trkpt>
      <trkpt lat="45.77688" lon="6.6606">
        <ele>1769</ele>
        <time>2022-08-16T11:29:16Z</time>
      </trkpt>
      <trkpt lat="45.77696" lon="6.66057">
        <ele>1768</ele>
        <time>2022-08-16T11:29:17Z</time>
      </trkpt>
      <trkpt lat="45.77703" lon="6.66054">
        <ele>1766</ele>
        <time>2022-08-16T11:29:18Z</time>
      </trkpt>
      <trkpt lat="45.77712" lon="6.66053">
        <ele>1766</ele>
        <time>2022-08-16T11:29:19Z</time>
      </trkpt>
      <trkpt lat="45.77721" lon="6.66051">
        <ele>1765</ele>
        <time>2022-08-16T11:29:20Z</time>
      </trkpt>
      <trkpt lat="45.77731" lon="6.66049">
        <ele>1764</ele>
        <time>2022-08-16T11:29:21Z</time>
      </trkpt>
      <trkpt lat="45.7774" lon="6.66047">
        <ele>1763</ele>
        <time>2022-08-16T11:29:22Z</time>
      </trkpt>
      <trkpt lat="45.77749" lon="6.66045">
        <ele>1762</ele>
        <time>2022-08-16T11:29:23Z</time>
      </trkpt>
      <trkpt lat="45.77758" lon="6.66043">
        <ele>1761</ele>
        <time>2022-08-16T11:29:24Z</time>
      </trkpt>
      <trkpt lat="45.77768" lon="6.66041">
        <ele>1760</ele>
        <time>2022-08-16T11:29:25Z</time>
      </trkpt>
      <trkpt lat="45.77778" lon="6.66039">
        <ele>1759</ele>
        <time>2022-08-16T11:29:26Z</time>
      </trkpt>
      <trkpt lat="45.77789" lon="6.66036">
        <ele>1758</ele>
        <time>2022-08-16T11:29:27Z</time>
      </trkpt>
      <trkpt lat="45.77799" lon="6.66032">
        <ele>1757</ele>
        <time>2022-08-16T11:29:28Z</time>
      </trkpt>
      <trkpt lat="45.77808" lon="6.66029">
        <ele>1756</ele>
        <time>2022-08-16T11:29:29Z</time>
      </trkpt>
      <trkpt lat="45.77817" lon="6.66028">
        <ele>1754</ele>
        <time>2022-08-16T11:29:30Z</time>
      </trkpt>
      <trkpt lat="45.77826" lon="6.66029">
        <ele>1753</ele>
        <time>2022-08-16T11:29:31Z</time>
      </trkpt>
      <trkpt lat="45.77835" lon="6.66032">
        <ele>1753</ele>
        <time>2022-08-16T11:29:32Z</time>
      </trkpt>
      <trkpt lat="45.77845" lon="6.66035">
        <ele>1752</ele>
        <time>2022-08-16T11:29:33Z</time>
      </trkpt>
      <trkpt lat="45.77854" lon="6.66039">
        <ele>1752</ele>
        <time>2022-08-16T11:29:34Z</time>
      </trkpt>
      <trkpt lat="45.77864" lon="6.66043">
        <ele>1751</ele>
        <time>2022-08-16T11:29:35Z</time>
      </trkpt>
      <trkpt lat="45.77874" lon="6.66048">
        <ele>1750</ele>
        <time>2022-08-16T11:29:36Z</time>
      </trkpt>
      <trkpt lat="45.77883" lon="6.66053">
        <ele>1749</ele>
        <time>2022-08-16T11:29:37Z</time>
      </trkpt>
      <trkpt lat="45.77891" lon="6.66059">
        <ele>1748</ele>
        <time>2022-08-16T11:29:38Z</time>
      </trkpt>
      <trkpt lat="45.77899" lon="6.66064">
        <ele>1747</ele>
        <time>2022-08-16T11:29:39Z</time>
      </trkpt>
      <trkpt lat="45.77907" lon="6.6607">
        <ele>1747</ele>
        <time>2022-08-16T11:29:40Z</time>
      </trkpt>
      <trkpt lat="45.77915" lon="6.66076">
        <ele>1746</ele>
        <time>2022-08-16T11:29:41Z</time>
      </trkpt>
      <trkpt lat="45.77924" lon="6.66082">
        <ele>1746</ele>
        <time>2022-08-16T11:29:42Z</time>
      </trkpt>
      <trkpt lat="45.77932" lon="6.66088">
        <ele>1745</ele>
        <time>2022-08-16T11:29:43Z</time>
      </trkpt>
      <trkpt lat="45.77941" lon="6.66094">
        <ele>1744</ele>
        <time>2022-08-16T11:29:44Z</time>
      </trkpt>
      <trkpt lat="45.77951" lon="6.66101">
        <ele>1743</ele>
        <time>2022-08-16T11:29:45Z</time>
      </trkpt>
      <trkpt lat="45.7796" lon="6.66108">
        <ele>1743</ele>
        <time>2022-08-16T11:29:46Z</time>
      </trkpt>
      <trkpt lat="45.77968" lon="6.66113">
        <ele>1742</ele>
        <time>2022-08-16T11:29:47Z</time>
      </trkpt>
      <trkpt lat="45.77976" lon="6.66118">
        <ele>1741</ele>
        <time>2022-08-16T11:29:48Z</time>
      </trkpt>
      <trkpt lat="45.77983" lon="6.66122">
        <ele>1740</ele>
        <time>2022-08-16T11:29:49Z</time>
      </trkpt>
      <trkpt lat="45.7799" lon="6.66126">
        <ele>1739</ele>
        <time>2022-08-16T11:29:50Z</time>
      </trkpt>
      <trkpt lat="45.77997" lon="6.6613">
        <ele>1739</ele>
        <time>2022-08-16T11:29:51Z</time>
      </trkpt>
      <trkpt lat="45.78004" lon="6.66133">
        <ele>1738</ele>
        <time>2022-08-16T11:29:52Z</time>
      </trkpt>
      <trkpt lat="45.78011" lon="6.66137">
        <ele>1738</ele>
        <time>2022-08-16T11:29:53Z</time>
      </trkpt>
      <trkpt lat="45.78019" lon="6.66141">
        <ele>1737</ele>
        <time>2022-08-16T11:29:54Z</time>
      </trkpt>
      <trkpt lat="45.78028" lon="6.66145">
        <ele>1737</ele>
        <time>2022-08-16T11:29:55Z</time>
      </trkpt>
      <trkpt lat="45.78036" lon="6.66147">
        <ele>1736</ele>
        <time>2022-08-16T11:29:56Z</time>
      </trkpt>
      <trkpt lat="45.78045" lon="6.66147">
        <ele>1736</ele>
        <time>2022-08-16T11:29:57Z</time>
      </trkpt>
      <trkpt lat="45.78052" lon="6.66145">
        <ele>1735</ele>
        <time>2022-08-16T11:29:58Z</time>
      </trkpt>
      <trkpt lat="45.78059" lon="6.6614">
        <ele>1734</ele>
        <time>2022-08-16T11:29:59Z</time>
      </trkpt>
      <trkpt lat="45.78065" lon="6.66135">
        <ele>1733</ele>
        <time>2022-08-16T11:30:00Z</time>
      </trkpt>
      <trkpt lat="45.78072" lon="6.6613">
        <ele>1733</ele>
        <time>2022-08-16T11:30:01Z</time>
      </trkpt>
      <trkpt lat="45.78079" lon="6.66125">
        <ele>1732</ele>
        <time>2022-08-16T11:30:02Z</time>
      </trkpt>
      <trkpt lat="45.78085" lon="6.6612">
        <ele>1731</ele>
        <time>2022-08-16T11:30:03Z</time>
      </trkpt>
      <trkpt lat="45.78093" lon="6.66115">
        <ele>1731</ele>
        <time>2022-08-16T11:30:04Z</time>
      </trkpt>
      <trkpt lat="45.78101" lon="6.66111">
        <ele>1730</ele>
        <time>2022-08-16T11:30:05Z</time>
      </trkpt>
      <trkpt lat="45.78108" lon="6.66108">
        <ele>1730</ele>
        <time>2022-08-16T11:30:06Z</time>
      </trkpt>
      <trkpt lat="45.78116" lon="6.66106">
        <ele>1729</ele>
        <time>2022-08-16T11:30:07Z</time>
      </trkpt>
      <trkpt lat="45.78123" lon="6.66106">
        <ele>1728</ele>
        <time>2022-08-16T11:30:08Z</time>
      </trkpt>
      <trkpt lat="45.7813" lon="6.6611">
        <ele>1727</ele>
        <time>2022-08-16T11:30:09Z</time>
      </trkpt>
      <trkpt lat="45.78136" lon="6.66117">
        <ele>1727</ele>
        <time>2022-08-16T11:30:10Z</time>
      </trkpt>
      <trkpt lat="45.78143" lon="6.66125">
        <ele>1726</ele>
        <time>2022-08-16T11:30:11Z</time>
      </trkpt>
      <trkpt lat="45.7815" lon="6.66132">
        <ele>1726</ele>
        <time>2022-08-16T11:30:12Z</time>
      </trkpt>
      <trkpt lat="45.78157" lon="6.66136">
        <ele>1726</ele>
        <time>2022-08-16T11:30:13Z</time>
      </trkpt>
      <trkpt lat="45.78164" lon="6.66134">
        <ele>1725</ele>
        <time>2022-08-16T11:30:14Z</time>
      </trkpt>
      <trkpt lat="45.7817" lon="6.66128">
        <ele>1726</ele>
        <time>2022-08-16T11:30:15Z</time>
      </trkpt>
      <trkpt lat="45.78174" lon="6.6612">
        <ele>1725</ele>
        <time>2022-08-16T11:30:16Z</time>
      </trkpt>
      <trkpt lat="45.78177" lon="6.6611">
        <ele>1725</ele>
        <time>2022-08-16T11:30:17Z</time>
      </trkpt>
      <trkpt lat="45.78178" lon="6.661">
        <ele>1724</ele>
        <time>2022-08-16T11:30:18Z</time>
      </trkpt>
      <trkpt lat="45.78179" lon="6.6609">
        <ele>1724</ele>
        <time>2022-08-16T11:30:19Z</time>
      </trkpt>
      <trkpt lat="45.7818" lon="6.6608">
        <ele>1724</ele>
        <time>2022-08-16T11:30:20Z</time>
      </trkpt>
      <trkpt lat="45.78182" lon="6.66069">
        <ele>1723</ele>
        <time>2022-08-16T11:30:21Z</time>
      </trkpt>
      <trkpt lat="45.78186" lon="6.66059">
        <ele>1723</ele>
        <time>2022-08-16T11:30:22Z</time>
      </trkpt>
      <trkpt lat="45.7819" lon="6.66049">
        <ele>1722</ele>
        <time>2022-08-16T11:30:23Z</time>
      </trkpt>
      <trkpt lat="45.78194" lon="6.66039">
        <ele>1722</ele>
        <time>2022-08-16T11:30:24Z</time>
      </trkpt>
      <trkpt lat="45.78198" lon="6.66028">
        <ele>1721</ele>
        <time>2022-08-16T11:30:25Z</time>
      </trkpt>
      <trkpt lat="45.78201" lon="6.66017">
        <ele>1721</ele>
        <time>2022-08-16T11:30:26Z</time>
      </trkpt>
      <trkpt lat="45.78203" lon="6.66006">
        <ele>1720</ele>
        <time>2022-08-16T11:30:27Z</time>
      </trkpt>
      <trkpt lat="45.78204" lon="6.65994">
        <ele>1720</ele>
        <time>2022-08-16T11:30:28Z</time>
      </trkpt>
      <trkpt lat="45.78203" lon="6.65982">
        <ele>1719</ele>
        <time>2022-08-16T11:30:29Z</time>
      </trkpt>
      <trkpt lat="45.78201" lon="6.65971">
        <ele>1719</ele>
        <time>2022-08-16T11:30:30Z</time>
      </trkpt>
      <trkpt lat="45.78198" lon="6.6596">
        <ele>1719</ele>
        <time>2022-08-16T11:30:31Z</time>
      </trkpt>
      <trkpt lat="45.78196" lon="6.6595">
        <ele>1718</ele>
        <time>2022-08-16T11:30:32Z</time>
      </trkpt>
      <trkpt lat="45.78195" lon="6.65939">
        <ele>1717</ele>
        <time>2022-08-16T11:30:33Z</time>
      </trkpt>
      <trkpt lat="45.78195" lon="6.65926">
        <ele>1716</ele>
        <time>2022-08-16T11:30:34Z</time>
      </trkpt>
      <trkpt lat="45.78197" lon="6.65914">
        <ele>1716</ele>
        <time>2022-08-16T11:30:35Z</time>
      </trkpt>
      <trkpt lat="45.782" lon="6.65901">
        <ele>1715</ele>
        <time>2022-08-16T11:30:36Z</time>
      </trkpt>
      <trkpt lat="45.78203" lon="6.6589">
        <ele>1715</ele>
        <time>2022-08-16T11:30:37Z</time>
      </trkpt>
      <trkpt lat="45.78207" lon="6.6588">
        <ele>1714</ele>
        <time>2022-08-16T11:30:38Z</time>
      </trkpt>
      <trkpt lat="45.78212" lon="6.65872">
        <ele>1714</ele>
        <time>2022-08-16T11:30:39Z</time>
      </trkpt>
      <trkpt lat="45.78218" lon="6.65868">
        <ele>1714</ele>
        <time>2022-08-16T11:30:40Z</time>
      </trkpt>
      <trkpt lat="45.78224" lon="6.65867">
        <ele>1713</ele>
        <time>2022-08-16T11:30:41Z</time>
      </trkpt>
      <trkpt lat="45.7823" lon="6.65868">
        <ele>1713</ele>
        <time>2022-08-16T11:30:42Z</time>
      </trkpt>
      <trkpt lat="45.78238" lon="6.6587">
        <ele>1713</ele>
        <time>2022-08-16T11:30:43Z</time>
      </trkpt>
      <trkpt lat="45.78245" lon="6.65874">
        <ele>1713</ele>
        <time>2022-08-16T11:30:44Z</time>
      </trkpt>
      <trkpt lat="45.78252" lon="6.65879">
        <ele>1713</ele>
        <time>2022-08-16T11:30:45Z</time>
      </trkpt>
      <trkpt lat="45.78259" lon="6.65885">
        <ele>1713</ele>
        <time>2022-08-16T11:30:46Z</time>
      </trkpt>
      <trkpt lat="45.78266" lon="6.6589">
        <ele>1712</ele>
        <time>2022-08-16T11:30:47Z</time>
      </trkpt>
      <trkpt lat="45.78273" lon="6.65894">
        <ele>1711</ele>
        <time>2022-08-16T11:30:48Z</time>
      </trkpt>
      <trkpt lat="45.78282" lon="6.65897">
        <ele>1710</ele>
        <time>2022-08-16T11:30:49Z</time>
      </trkpt>
      <trkpt lat="45.78291" lon="6.65898">
        <ele>1709</ele>
        <time>2022-08-16T11:30:50Z</time>
      </trkpt>
      <trkpt lat="45.783" lon="6.65895">
        <ele>1709</ele>
        <time>2022-08-16T11:30:51Z</time>
      </trkpt>
      <trkpt lat="45.78307" lon="6.65891">
        <ele>1708</ele>
        <time>2022-08-16T11:30:52Z</time>
      </trkpt>
      <trkpt lat="45.78315" lon="6.65887">
        <ele>1707</ele>
        <time>2022-08-16T11:30:53Z</time>
      </trkpt>
      <trkpt lat="45.78323" lon="6.65884">
        <ele>1706</ele>
        <time>2022-08-16T11:30:54Z</time>
      </trkpt>
      <trkpt lat="45.7833" lon="6.65882">
        <ele>1705</ele>
        <time>2022-08-16T11:30:55Z</time>
      </trkpt>
      <trkpt lat="45.78337" lon="6.65883">
        <ele>1704</ele>
        <time>2022-08-16T11:30:56Z</time>
      </trkpt>
      <trkpt lat="45.78344" lon="6.65885">
        <ele>1703</ele>
        <time>2022-08-16T11:30:57Z</time>
      </trkpt>
      <trkpt lat="45.78351" lon="6.65886">
        <ele>1702</ele>
        <time>2022-08-16T11:30:58Z</time>
      </trkpt>
      <trkpt lat="45.78357" lon="6.65888">
        <ele>1701</ele>
        <time>2022-08-16T11:30:59Z</time>
      </trkpt>
      <trkpt lat="45.78362" lon="6.65889">
        <ele>1701</ele>
        <time>2022-08-16T11:31:00Z</time>
      </trkpt>
      <trkpt lat="45.78368" lon="6.65889">
        <ele>1701</ele>
        <time>2022-08-16T11:31:01Z</time>
      </trkpt>
      <trkpt lat="45.78373" lon="6.65884">
        <ele>1701</ele>
        <time>2022-08-16T11:31:02Z</time>
      </trkpt>
      <trkpt lat="45.78377" lon="6.65878">
        <ele>1700</ele>
        <time>2022-08-16T11:31:03Z</time>
      </trkpt>
      <trkpt lat="45.7838" lon="6.65869">
        <ele>1701</ele>
        <time>2022-08-16T11:31:04Z</time>
      </trkpt>
      <trkpt lat="45.78381" lon="6.65861">
        <ele>1701</ele>
        <time>2022-08-16T11:31:05Z</time>
      </trkpt>
      <trkpt lat="45.7838" lon="6.65854">
        <ele>1701</ele>
        <time>2022-08-16T11:31:06Z</time>
      </trkpt>
      <trkpt lat="45.78378" lon="6.65849">
        <ele>1701</ele>
        <time>2022-08-16T11:31:07Z</time>
      </trkpt>
      <trkpt lat="45.78377" lon="6.65844">
        <ele>1701</ele>
        <time>2022-08-16T11:31:08Z</time>
      </trkpt>
      <trkpt lat="45.78375" lon="6.65841">
        <ele>1701</ele>
        <time>2022-08-16T11:31:09Z</time>
      </trkpt>
      <trkpt lat="45.78374" lon="6.65838">
        <ele>1701</ele>
        <time>2022-08-16T11:31:10Z</time>
      </trkpt>
      <trkpt lat="45.78372" lon="6.65835">
        <ele>1701</ele>
        <time>2022-08-16T11:31:11Z</time>
      </trkpt>
      <trkpt lat="45.78371" lon="6.65832">
        <ele>1701</ele>
        <time>2022-08-16T11:31:12Z</time>
      </trkpt>
      <trkpt lat="45.7837" lon="6.6583">
        <ele>1701</ele>
        <time>2022-08-16T11:31:13Z</time>
      </trkpt>
      <trkpt lat="45.78368" lon="6.65828">
        <ele>1701</ele>
        <time>2022-08-16T11:31:14Z</time>
      </trkpt>
      <trkpt lat="45.78367" lon="6.65827">
        <ele>1701</ele>
        <time>2022-08-16T11:31:15Z</time>
      </trkpt>
      <trkpt lat="45.78365" lon="6.65824">
        <ele>1701</ele>
        <time>2022-08-16T11:31:16Z</time>
      </trkpt>
      <trkpt lat="45.78364" lon="6.65822">
        <ele>1702</ele>
        <time>2022-08-16T11:31:17Z</time>
      </trkpt>
      <trkpt lat="45.78363" lon="6.65819">
        <ele>1702</ele>
        <time>2022-08-16T11:31:18Z</time>
      </trkpt>
      <trkpt lat="45.78361" lon="6.65816">
        <ele>1702</ele>
        <time>2022-08-16T11:31:19Z</time>
      </trkpt>
      <trkpt lat="45.7836" lon="6.65813">
        <ele>1702</ele>
        <time>2022-08-16T11:31:20Z</time>
      </trkpt>
      <trkpt lat="45.78359" lon="6.6581">
        <ele>1702</ele>
        <time>2022-08-16T11:31:21Z</time>
      </trkpt>
      <trkpt lat="45.78357" lon="6.65807">
        <ele>1702</ele>
        <time>2022-08-16T11:31:22Z</time>
      </trkpt>
      <trkpt lat="45.78356" lon="6.65805">
        <ele>1703</ele>
        <time>2022-08-16T11:31:23Z</time>
      </trkpt>
      <trkpt lat="45.78354" lon="6.65802">
        <ele>1703</ele>
        <time>2022-08-16T11:31:24Z</time>
      </trkpt>
      <trkpt lat="45.78353" lon="6.658">
        <ele>1703</ele>
        <time>2022-08-16T11:31:25Z</time>
      </trkpt>
      <trkpt lat="45.78352" lon="6.65797">
        <ele>1703</ele>
        <time>2022-08-16T11:31:26Z</time>
      </trkpt>
      <trkpt lat="45.78351" lon="6.65795">
        <ele>1703</ele>
        <time>2022-08-16T11:31:27Z</time>
      </trkpt>
      <trkpt lat="45.7835" lon="6.65793">
        <ele>1703</ele>
        <time>2022-08-16T11:31:28Z</time>
      </trkpt>
      <trkpt lat="45.78348" lon="6.65791">
        <ele>1703</ele>
        <time>2022-08-16T11:31:29Z</time>
      </trkpt>
      <trkpt lat="45.78347" lon="6.65789">
        <ele>1703</ele>
        <time>2022-08-16T11:31:30Z</time>
      </trkpt>
      <trkpt lat="45.78346" lon="6.65787">
        <ele>1703</ele>
        <time>2022-08-16T11:31:31Z</time>
      </trkpt>
      <trkpt lat="45.78345" lon="6.65784">
        <ele>1703</ele>
        <time>2022-08-16T11:31:32Z</time>
      </trkpt>
      <trkpt lat="45.78343" lon="6.65782">
        <ele>1703</ele>
        <time>2022-08-16T11:31:33Z</time>
      </trkpt>
      <trkpt lat="45.78341" lon="6.6578">
        <ele>1704</ele>
        <time>2022-08-16T11:31:34Z</time>
      </trkpt>
      <trkpt lat="45.78339" lon="6.65778">
        <ele>1704</ele>
        <time>2022-08-16T11:31:35Z</time>
      </trkpt>
      <trkpt lat="45.78338" lon="6.65776">
        <ele>1704</ele>
        <time>2022-08-16T11:31:36Z</time>
      </trkpt>
      <trkpt lat="45.78336" lon="6.65774">
        <ele>1704</ele>
        <time>2022-08-16T11:31:37Z</time>
      </trkpt>
      <trkpt lat="45.78334" lon="6.65772">
        <ele>1704</ele>
        <time>2022-08-16T11:31:38Z</time>
      </trkpt>
      <trkpt lat="45.78332" lon="6.6577">
        <ele>1705</ele>
        <time>2022-08-16T11:31:39Z</time>
      </trkpt>
      <trkpt lat="45.7833" lon="6.65768">
        <ele>1705</ele>
        <time>2022-08-16T11:31:40Z</time>
      </trkpt>
      <trkpt lat="45.78328" lon="6.65767">
        <ele>1705</ele>
        <time>2022-08-16T11:31:41Z</time>
      </trkpt>
      <trkpt lat="45.78327" lon="6.65766">
        <ele>1705</ele>
        <time>2022-08-16T11:31:42Z</time>
      </trkpt>
      <trkpt lat="45.78325" lon="6.65765">
        <ele>1705</ele>
        <time>2022-08-16T11:31:43Z</time>
      </trkpt>
      <trkpt lat="45.78324" lon="6.65764">
        <ele>1705</ele>
        <time>2022-08-16T11:31:44Z</time>
      </trkpt>
      <trkpt lat="45.78322" lon="6.65763">
        <ele>1705</ele>
        <time>2022-08-16T11:31:45Z</time>
      </trkpt>
      <trkpt lat="45.7832" lon="6.65762">
        <ele>1706</ele>
        <time>2022-08-16T11:31:46Z</time>
      </trkpt>
      <trkpt lat="45.78318" lon="6.65762">
        <ele>1706</ele>
        <time>2022-08-16T11:31:47Z</time>
      </trkpt>
      <trkpt lat="45.78317" lon="6.65761">
        <ele>1706</ele>
        <time>2022-08-16T11:31:48Z</time>
      </trkpt>
      <trkpt lat="45.78315" lon="6.6576">
        <ele>1707</ele>
        <time>2022-08-16T11:31:49Z</time>
      </trkpt>
      <trkpt lat="45.78314" lon="6.6576">
        <ele>1707</ele>
        <time>2022-08-16T11:31:50Z</time>
      </trkpt>
      <trkpt lat="45.78313" lon="6.65759">
        <ele>1707</ele>
        <time>2022-08-16T11:31:51Z</time>
      </trkpt>
      <trkpt lat="45.78312" lon="6.65758">
        <ele>1707</ele>
        <time>2022-08-16T11:31:52Z</time>
      </trkpt>
      <trkpt lat="45.7831" lon="6.65758">
        <ele>1708</ele>
        <time>2022-08-16T11:31:53Z</time>
      </trkpt>
      <trkpt lat="45.78309" lon="6.65758">
        <ele>1708</ele>
        <time>2022-08-16T11:31:54Z</time>
      </trkpt>
      <trkpt lat="45.78308" lon="6.65757">
        <ele>1708</ele>
        <time>2022-08-16T11:31:55Z</time>
      </trkpt>
      <trkpt lat="45.78307" lon="6.65756">
        <ele>1709</ele>
        <time>2022-08-16T11:31:56Z</time>
      </trkpt>
      <trkpt lat="45.78305" lon="6.65755">
        <ele>1709</ele>
        <time>2022-08-16T11:31:57Z</time>
      </trkpt>
      <trkpt lat="45.78304" lon="6.65753">
        <ele>1709</ele>
        <time>2022-08-16T11:31:58Z</time>
      </trkpt>
      <trkpt lat="45.78302" lon="6.65752">
        <ele>1710</ele>
        <time>2022-08-16T11:31:59Z</time>
      </trkpt>
      <trkpt lat="45.78301" lon="6.6575">
        <ele>1710</ele>
        <time>2022-08-16T11:32:00Z</time>
      </trkpt>
      <trkpt lat="45.78299" lon="6.65748">
        <ele>1710</ele>
        <time>2022-08-16T11:32:01Z</time>
      </trkpt>
      <trkpt lat="45.78297" lon="6.65747">
        <ele>1710</ele>
        <time>2022-08-16T11:32:02Z</time>
      </trkpt>
      <trkpt lat="45.78295" lon="6.65745">
        <ele>1710</ele>
        <time>2022-08-16T11:32:03Z</time>
      </trkpt>
      <trkpt lat="45.78293" lon="6.65744">
        <ele>1710</ele>
        <time>2022-08-16T11:32:04Z</time>
      </trkpt>
      <trkpt lat="45.78291" lon="6.65742">
        <ele>1710</ele>
        <time>2022-08-16T11:32:05Z</time>
      </trkpt>
      <trkpt lat="45.7829" lon="6.6574">
        <ele>1711</ele>
        <time>2022-08-16T11:32:06Z</time>
      </trkpt>
      <trkpt lat="45.78288" lon="6.65739">
        <ele>1711</ele>
        <time>2022-08-16T11:32:07Z</time>
      </trkpt>
      <trkpt lat="45.78287" lon="6.65737">
        <ele>1711</ele>
        <time>2022-08-16T11:32:08Z</time>
      </trkpt>
      <trkpt lat="45.78285" lon="6.65735">
        <ele>1711</ele>
        <time>2022-08-16T11:32:09Z</time>
      </trkpt>
      <trkpt lat="45.78284" lon="6.65733">
        <ele>1711</ele>
        <time>2022-08-16T11:32:10Z</time>
      </trkpt>
      <trkpt lat="45.78282" lon="6.6573">
        <ele>1711</ele>
        <time>2022-08-16T11:32:11Z</time>
      </trkpt>
      <trkpt lat="45.7828" lon="6.65728">
        <ele>1712</ele>
        <time>2022-08-16T11:32:12Z</time>
      </trkpt>
      <trkpt lat="45.78279" lon="6.65726">
        <ele>1712</ele>
        <time>2022-08-16T11:32:13Z</time>
      </trkpt>
      <trkpt lat="45.78277" lon="6.65723">
        <ele>1712</ele>
        <time>2022-08-16T11:32:14Z</time>
      </trkpt>
      <trkpt lat="45.78275" lon="6.6572">
        <ele>1712</ele>
        <time>2022-08-16T11:32:15Z</time>
      </trkpt>
      <trkpt lat="45.78274" lon="6.65717">
        <ele>1712</ele>
        <time>2022-08-16T11:32:16Z</time>
      </trkpt>
      <trkpt lat="45.78273" lon="6.65714">
        <ele>1713</ele>
        <time>2022-08-16T11:32:17Z</time>
      </trkpt>
      <trkpt lat="45.78271" lon="6.65711">
        <ele>1713</ele>
        <time>2022-08-16T11:32:18Z</time>
      </trkpt>
      <trkpt lat="45.78269" lon="6.65708">
        <ele>1713</ele>
        <time>2022-08-16T11:32:19Z</time>
      </trkpt>
      <trkpt lat="45.78267" lon="6.65705">
        <ele>1713</ele>
        <time>2022-08-16T11:32:20Z</time>
      </trkpt>
      <trkpt lat="45.78265" lon="6.65703">
        <ele>1713</ele>
        <time>2022-08-16T11:32:21Z</time>
      </trkpt>
      <trkpt lat="45.78264" lon="6.657">
        <ele>1713</ele>
        <time>2022-08-16T11:32:22Z</time>
      </trkpt>
      <trkpt lat="45.78262" lon="6.65696">
        <ele>1713</ele>
        <time>2022-08-16T11:32:23Z</time>
      </trkpt>
      <trkpt lat="45.7826" lon="6.65693">
        <ele>1713</ele>
        <time>2022-08-16T11:32:24Z</time>
      </trkpt>
      <trkpt lat="45.78259" lon="6.6569">
        <ele>1713</ele>
        <time>2022-08-16T11:32:25Z</time>
      </trkpt>
      <trkpt lat="45.78258" lon="6.65688">
        <ele>1713</ele>
        <time>2022-08-16T11:32:26Z</time>
      </trkpt>
      <trkpt lat="45.78257" lon="6.65685">
        <ele>1713</ele>
        <time>2022-08-16T11:32:27Z</time>
      </trkpt>
      <trkpt lat="45.78256" lon="6.65683">
        <ele>1714</ele>
        <time>2022-08-16T11:32:28Z</time>
      </trkpt>
      <trkpt lat="45.78256" lon="6.6568">
        <ele>1714</ele>
        <time>2022-08-16T11:32:29Z</time>
      </trkpt>
      <trkpt lat="45.78255" lon="6.65677">
        <ele>1714</ele>
        <time>2022-08-16T11:32:30Z</time>
      </trkpt>
      <trkpt lat="45.78255" lon="6.65675">
        <ele>1714</ele>
        <time>2022-08-16T11:32:31Z</time>
      </trkpt>
      <trkpt lat="45.78254" lon="6.65672">
        <ele>1714</ele>
        <time>2022-08-16T11:32:32Z</time>
      </trkpt>
      <trkpt lat="45.78254" lon="6.65669">
        <ele>1714</ele>
        <time>2022-08-16T11:32:33Z</time>
      </trkpt>
      <trkpt lat="45.78253" lon="6.65666">
        <ele>1714</ele>
        <time>2022-08-16T11:32:34Z</time>
      </trkpt>
      <trkpt lat="45.78252" lon="6.65662">
        <ele>1715</ele>
        <time>2022-08-16T11:32:35Z</time>
      </trkpt>
      <trkpt lat="45.78251" lon="6.65657">
        <ele>1715</ele>
        <time>2022-08-16T11:32:36Z</time>
      </trkpt>
      <trkpt lat="45.7825" lon="6.65652">
        <ele>1715</ele>
        <time>2022-08-16T11:32:37Z</time>
      </trkpt>
      <trkpt lat="45.78247" lon="6.65647">
        <ele>1715</ele>
        <time>2022-08-16T11:32:38Z</time>
      </trkpt>
      <trkpt lat="45.78245" lon="6.6564">
        <ele>1715</ele>
        <time>2022-08-16T11:32:39Z</time>
      </trkpt>
      <trkpt lat="45.78242" lon="6.65633">
        <ele>1715</ele>
        <time>2022-08-16T11:32:40Z</time>
      </trkpt>
      <trkpt lat="45.78238" lon="6.65625">
        <ele>1714</ele>
        <time>2022-08-16T11:32:41Z</time>
      </trkpt>
      <trkpt lat="45.78235" lon="6.65618">
        <ele>1714</ele>
        <time>2022-08-16T11:32:42Z</time>
      </trkpt>
      <trkpt lat="45.78232" lon="6.65609">
        <ele>1713</ele>
        <time>2022-08-16T11:32:43Z</time>
      </trkpt>
      <trkpt lat="45.7823" lon="6.65601">
        <ele>1712</ele>
        <time>2022-08-16T11:32:44Z</time>
      </trkpt>
      <trkpt lat="45.78229" lon="6.65593">
        <ele>1712</ele>
        <time>2022-08-16T11:32:45Z</time>
      </trkpt>
      <trkpt lat="45.78228" lon="6.65586">
        <ele>1711</ele>
        <time>2022-08-16T11:32:46Z</time>
      </trkpt>
      <trkpt lat="45.78227" lon="6.65578">
        <ele>1710</ele>
        <time>2022-08-16T11:32:47Z</time>
      </trkpt>
      <trkpt lat="45.78227" lon="6.65571">
        <ele>1709</ele>
        <time>2022-08-16T11:32:48Z</time>
      </trkpt>
      <trkpt lat="45.78228" lon="6.65564">
        <ele>1709</ele>
        <time>2022-08-16T11:32:49Z</time>
      </trkpt>
      <trkpt lat="45.7823" lon="6.65557">
        <ele>1708</ele>
        <time>2022-08-16T11:32:50Z</time>
      </trkpt>
      <trkpt lat="45.78232" lon="6.6555">
        <ele>1708</ele>
        <time>2022-08-16T11:32:51Z</time>
      </trkpt>
      <trkpt lat="45.78234" lon="6.65541">
        <ele>1707</ele>
        <time>2022-08-16T11:32:52Z</time>
      </trkpt>
      <trkpt lat="45.78236" lon="6.65531">
        <ele>1706</ele>
        <time>2022-08-16T11:32:53Z</time>
      </trkpt>
      <trkpt lat="45.78237" lon="6.65521">
        <ele>1705</ele>
        <time>2022-08-16T11:32:54Z</time>
      </trkpt>
      <trkpt lat="45.78238" lon="6.65511">
        <ele>1705</ele>
        <time>2022-08-16T11:32:55Z</time>
      </trkpt>
      <trkpt lat="45.78237" lon="6.65502">
        <ele>1705</ele>
        <time>2022-08-16T11:32:56Z</time>
      </trkpt>
      <trkpt lat="45.78234" lon="6.65492">
        <ele>1704</ele>
        <time>2022-08-16T11:32:57Z</time>
      </trkpt>
      <trkpt lat="45.78232" lon="6.65482">
        <ele>1703</ele>
        <time>2022-08-16T11:32:58Z</time>
      </trkpt>
      <trkpt lat="45.7823" lon="6.65471">
        <ele>1702</ele>
        <time>2022-08-16T11:32:59Z</time>
      </trkpt>
      <trkpt lat="45.7823" lon="6.65459">
        <ele>1701</ele>
        <time>2022-08-16T11:33:00Z</time>
      </trkpt>
      <trkpt lat="45.78231" lon="6.65447">
        <ele>1701</ele>
        <time>2022-08-16T11:33:01Z</time>
      </trkpt>
      <trkpt lat="45.78232" lon="6.65435">
        <ele>1700</ele>
        <time>2022-08-16T11:33:02Z</time>
      </trkpt>
      <trkpt lat="45.78234" lon="6.65422">
        <ele>1699</ele>
        <time>2022-08-16T11:33:03Z</time>
      </trkpt>
      <trkpt lat="45.78235" lon="6.65409">
        <ele>1699</ele>
        <time>2022-08-16T11:33:04Z</time>
      </trkpt>
      <trkpt lat="45.78236" lon="6.65396">
        <ele>1698</ele>
        <time>2022-08-16T11:33:05Z</time>
      </trkpt>
      <trkpt lat="45.78236" lon="6.65383">
        <ele>1697</ele>
        <time>2022-08-16T11:33:06Z</time>
      </trkpt>
      <trkpt lat="45.78233" lon="6.6537">
        <ele>1697</ele>
        <time>2022-08-16T11:33:07Z</time>
      </trkpt>
      <trkpt lat="45.7823" lon="6.65358">
        <ele>1696</ele>
        <time>2022-08-16T11:33:08Z</time>
      </trkpt>
      <trkpt lat="45.78225" lon="6.65348">
        <ele>1695</ele>
        <time>2022-08-16T11:33:09Z</time>
      </trkpt>
      <trkpt lat="45.78219" lon="6.65337">
        <ele>1694</ele>
        <time>2022-08-16T11:33:10Z</time>
      </trkpt>
      <trkpt lat="45.78214" lon="6.65326">
        <ele>1692</ele>
        <time>2022-08-16T11:33:11Z</time>
      </trkpt>
      <trkpt lat="45.78209" lon="6.65315">
        <ele>1691</ele>
        <time>2022-08-16T11:33:12Z</time>
      </trkpt>
      <trkpt lat="45.78205" lon="6.65303">
        <ele>1690</ele>
        <time>2022-08-16T11:33:13Z</time>
      </trkpt>
      <trkpt lat="45.78202" lon="6.65291">
        <ele>1689</ele>
        <time>2022-08-16T11:33:14Z</time>
      </trkpt>
      <trkpt lat="45.782" lon="6.65278">
        <ele>1688</ele>
        <time>2022-08-16T11:33:15Z</time>
      </trkpt>
      <trkpt lat="45.782" lon="6.65266">
        <ele>1687</ele>
        <time>2022-08-16T11:33:16Z</time>
      </trkpt>
      <trkpt lat="45.78202" lon="6.65254">
        <ele>1686</ele>
        <time>2022-08-16T11:33:17Z</time>
      </trkpt>
      <trkpt lat="45.78204" lon="6.65243">
        <ele>1686</ele>
        <time>2022-08-16T11:33:18Z</time>
      </trkpt>
      <trkpt lat="45.78207" lon="6.65231">
        <ele>1685</ele>
        <time>2022-08-16T11:33:19Z</time>
      </trkpt>
      <trkpt lat="45.7821" lon="6.6522">
        <ele>1685</ele>
        <time>2022-08-16T11:33:20Z</time>
      </trkpt>
      <trkpt lat="45.78213" lon="6.6521">
        <ele>1684</ele>
        <time>2022-08-16T11:33:21Z</time>
      </trkpt>
      <trkpt lat="45.78217" lon="6.65199">
        <ele>1684</ele>
        <time>2022-08-16T11:33:22Z</time>
      </trkpt>
      <trkpt lat="45.78222" lon="6.65189">
        <ele>1683</ele>
        <time>2022-08-16T11:33:23Z</time>
      </trkpt>
      <trkpt lat="45.78228" lon="6.6518">
        <ele>1682</ele>
        <time>2022-08-16T11:33:24Z</time>
      </trkpt>
      <trkpt lat="45.78235" lon="6.65171">
        <ele>1682</ele>
        <time>2022-08-16T11:33:25Z</time>
      </trkpt>
      <trkpt lat="45.78242" lon="6.65163">
        <ele>1681</ele>
        <time>2022-08-16T11:33:26Z</time>
      </trkpt>
      <trkpt lat="45.78249" lon="6.65154">
        <ele>1680</ele>
        <time>2022-08-16T11:33:27Z</time>
      </trkpt>
      <trkpt lat="45.78256" lon="6.65145">
        <ele>1680</ele>
        <time>2022-08-16T11:33:28Z</time>
      </trkpt>
      <trkpt lat="45.78263" lon="6.65137">
        <ele>1679</ele>
        <time>2022-08-16T11:33:29Z</time>
      </trkpt>
      <trkpt lat="45.7827" lon="6.65129">
        <ele>1678</ele>
        <time>2022-08-16T11:33:30Z</time>
      </trkpt>
      <trkpt lat="45.78277" lon="6.65123">
        <ele>1678</ele>
        <time>2022-08-16T11:33:31Z</time>
      </trkpt>
      <trkpt lat="45.78284" lon="6.65118">
        <ele>1678</ele>
        <time>2022-08-16T11:33:32Z</time>
      </trkpt>
      <trkpt lat="45.7829" lon="6.65114">
        <ele>1677</ele>
        <time>2022-08-16T11:33:33Z</time>
      </trkpt>
      <trkpt lat="45.78296" lon="6.65111">
        <ele>1677</ele>
        <time>2022-08-16T11:33:34Z</time>
      </trkpt>
      <trkpt lat="45.78302" lon="6.6511">
        <ele>1677</ele>
        <time>2022-08-16T11:33:35Z</time>
      </trkpt>
      <trkpt lat="45.78309" lon="6.65109">
        <ele>1677</ele>
        <time>2022-08-16T11:33:36Z</time>
      </trkpt>
      <trkpt lat="45.78315" lon="6.65107">
        <ele>1677</ele>
        <time>2022-08-16T11:33:37Z</time>
      </trkpt>
      <trkpt lat="45.78322" lon="6.65105">
        <ele>1677</ele>
        <time>2022-08-16T11:33:38Z</time>
      </trkpt>
      <trkpt lat="45.78327" lon="6.651">
        <ele>1676</ele>
        <time>2022-08-16T11:33:39Z</time>
      </trkpt>
      <trkpt lat="45.78333" lon="6.65091">
        <ele>1676</ele>
        <time>2022-08-16T11:33:40Z</time>
      </trkpt>
      <trkpt lat="45.78338" lon="6.65082">
        <ele>1675</ele>
        <time>2022-08-16T11:33:41Z</time>
      </trkpt>
      <trkpt lat="45.78344" lon="6.65074">
        <ele>1674</ele>
        <time>2022-08-16T11:33:42Z</time>
      </trkpt>
      <trkpt lat="45.78349" lon="6.65067">
        <ele>1673</ele>
        <time>2022-08-16T11:33:43Z</time>
      </trkpt>
      <trkpt lat="45.78357" lon="6.65061">
        <ele>1672</ele>
        <time>2022-08-16T11:33:44Z</time>
      </trkpt>
      <trkpt lat="45.78365" lon="6.65057">
        <ele>1671</ele>
        <time>2022-08-16T11:33:45Z</time>
      </trkpt>
      <trkpt lat="45.78372" lon="6.65054">
        <ele>1670</ele>
        <time>2022-08-16T11:33:46Z</time>
      </trkpt>
      <trkpt lat="45.7838" lon="6.65051">
        <ele>1669</ele>
        <time>2022-08-16T11:33:47Z</time>
      </trkpt>
      <trkpt lat="45.78388" lon="6.6505">
        <ele>1669</ele>
        <time>2022-08-16T11:33:48Z</time>
      </trkpt>
      <trkpt lat="45.78395" lon="6.6505">
        <ele>1668</ele>
        <time>2022-08-16T11:33:49Z</time>
      </trkpt>
      <trkpt lat="45.78402" lon="6.65051">
        <ele>1667</ele>
        <time>2022-08-16T11:33:50Z</time>
      </trkpt>
      <trkpt lat="45.78409" lon="6.65052">
        <ele>1666</ele>
        <time>2022-08-16T11:33:51Z</time>
      </trkpt>
      <trkpt lat="45.78414" lon="6.65051">
        <ele>1666</ele>
        <time>2022-08-16T11:33:52Z</time>
      </trkpt>
      <trkpt lat="45.7842" lon="6.65048">
        <ele>1665</ele>
        <time>2022-08-16T11:33:53Z</time>
      </trkpt>
      <trkpt lat="45.78425" lon="6.65043">
        <ele>1664</ele>
        <time>2022-08-16T11:33:54Z</time>
      </trkpt>
      <trkpt lat="45.78429" lon="6.65036">
        <ele>1663</ele>
        <time>2022-08-16T11:33:55Z</time>
      </trkpt>
      <trkpt lat="45.78432" lon="6.65029">
        <ele>1662</ele>
        <time>2022-08-16T11:33:56Z</time>
      </trkpt>
      <trkpt lat="45.78435" lon="6.65021">
        <ele>1661</ele>
        <time>2022-08-16T11:33:57Z</time>
      </trkpt>
      <trkpt lat="45.78437" lon="6.65012">
        <ele>1661</ele>
        <time>2022-08-16T11:33:58Z</time>
      </trkpt>
      <trkpt lat="45.7844" lon="6.65002">
        <ele>1660</ele>
        <time>2022-08-16T11:33:59Z</time>
      </trkpt>
      <trkpt lat="45.78442" lon="6.64991">
        <ele>1659</ele>
        <time>2022-08-16T11:34:00Z</time>
      </trkpt>
      <trkpt lat="45.78444" lon="6.64981">
        <ele>1659</ele>
        <time>2022-08-16T11:34:01Z</time>
      </trkpt>
      <trkpt lat="45.78444" lon="6.6497">
        <ele>1658</ele>
        <time>2022-08-16T11:34:02Z</time>
      </trkpt>
      <trkpt lat="45.78443" lon="6.64959">
        <ele>1658</ele>
        <time>2022-08-16T11:34:03Z</time>
      </trkpt>
      <trkpt lat="45.78442" lon="6.64948">
        <ele>1657</ele>
        <time>2022-08-16T11:34:04Z</time>
      </trkpt>
      <trkpt lat="45.78442" lon="6.64937">
        <ele>1656</ele>
        <time>2022-08-16T11:34:05Z</time>
      </trkpt>
      <trkpt lat="45.78443" lon="6.64927">
        <ele>1655</ele>
        <time>2022-08-16T11:34:06Z</time>
      </trkpt>
      <trkpt lat="45.78444" lon="6.64917">
        <ele>1655</ele>
        <time>2022-08-16T11:34:07Z</time>
      </trkpt>
      <trkpt lat="45.78445" lon="6.64906">
        <ele>1654</ele>
        <time>2022-08-16T11:34:08Z</time>
      </trkpt>
      <trkpt lat="45.78445" lon="6.64895">
        <ele>1654</ele>
        <time>2022-08-16T11:34:09Z</time>
      </trkpt>
      <trkpt lat="45.78445" lon="6.64885">
        <ele>1653</ele>
        <time>2022-08-16T11:34:10Z</time>
      </trkpt>
      <trkpt lat="45.78444" lon="6.64875">
        <ele>1652</ele>
        <time>2022-08-16T11:34:11Z</time>
      </trkpt>
      <trkpt lat="45.78443" lon="6.64864">
        <ele>1651</ele>
        <time>2022-08-16T11:34:12Z</time>
      </trkpt>
      <trkpt lat="45.78444" lon="6.64854">
        <ele>1651</ele>
        <time>2022-08-16T11:34:13Z</time>
      </trkpt>
      <trkpt lat="45.78444" lon="6.64842">
        <ele>1650</ele>
        <time>2022-08-16T11:34:14Z</time>
      </trkpt>
      <trkpt lat="45.78445" lon="6.64831">
        <ele>1649</ele>
        <time>2022-08-16T11:34:15Z</time>
      </trkpt>
      <trkpt lat="45.78446" lon="6.64819">
        <ele>1649</ele>
        <time>2022-08-16T11:34:16Z</time>
      </trkpt>
      <trkpt lat="45.78449" lon="6.64807">
        <ele>1648</ele>
        <time>2022-08-16T11:34:17Z</time>
      </trkpt>
      <trkpt lat="45.78452" lon="6.64796">
        <ele>1647</ele>
        <time>2022-08-16T11:34:18Z</time>
      </trkpt>
      <trkpt lat="45.78457" lon="6.64785">
        <ele>1647</ele>
        <time>2022-08-16T11:34:19Z</time>
      </trkpt>
      <trkpt lat="45.78462" lon="6.64772">
        <ele>1646</ele>
        <time>2022-08-16T11:34:20Z</time>
      </trkpt>
      <trkpt lat="45.78468" lon="6.64761">
        <ele>1645</ele>
        <time>2022-08-16T11:34:21Z</time>
      </trkpt>
      <trkpt lat="45.78475" lon="6.64751">
        <ele>1645</ele>
        <time>2022-08-16T11:34:22Z</time>
      </trkpt>
      <trkpt lat="45.78483" lon="6.64743">
        <ele>1645</ele>
        <time>2022-08-16T11:34:23Z</time>
      </trkpt>
      <trkpt lat="45.78491" lon="6.64737">
        <ele>1644</ele>
        <time>2022-08-16T11:34:24Z</time>
      </trkpt>
      <trkpt lat="45.78499" lon="6.64734">
        <ele>1644</ele>
        <time>2022-08-16T11:34:25Z</time>
      </trkpt>
      <trkpt lat="45.78506" lon="6.64732">
        <ele>1643</ele>
        <time>2022-08-16T11:34:26Z</time>
      </trkpt>
      <trkpt lat="45.78513" lon="6.64733">
        <ele>1641</ele>
        <time>2022-08-16T11:34:27Z</time>
      </trkpt>
      <trkpt lat="45.78521" lon="6.64736">
        <ele>1641</ele>
        <time>2022-08-16T11:34:28Z</time>
      </trkpt>
      <trkpt lat="45.78528" lon="6.64738">
        <ele>1640</ele>
        <time>2022-08-16T11:34:29Z</time>
      </trkpt>
      <trkpt lat="45.78536" lon="6.6474">
        <ele>1639</ele>
        <time>2022-08-16T11:34:30Z</time>
      </trkpt>
      <trkpt lat="45.78544" lon="6.64741">
        <ele>1638</ele>
        <time>2022-08-16T11:34:31Z</time>
      </trkpt>
      <trkpt lat="45.7855" lon="6.64739">
        <ele>1638</ele>
        <time>2022-08-16T11:34:32Z</time>
      </trkpt>
      <trkpt lat="45.78556" lon="6.64735">
        <ele>1638</ele>
        <time>2022-08-16T11:34:33Z</time>
      </trkpt>
      <trkpt lat="45.78561" lon="6.64727">
        <ele>1637</ele>
        <time>2022-08-16T11:34:34Z</time>
      </trkpt>
      <trkpt lat="45.78564" lon="6.64717">
        <ele>1637</ele>
        <time>2022-08-16T11:34:35Z</time>
      </trkpt>
      <trkpt lat="45.78564" lon="6.64707">
        <ele>1636</ele>
        <time>2022-08-16T11:34:36Z</time>
      </trkpt>
      <trkpt lat="45.78564" lon="6.64697">
        <ele>1636</ele>
        <time>2022-08-16T11:34:37Z</time>
      </trkpt>
      <trkpt lat="45.78564" lon="6.64687">
        <ele>1636</ele>
        <time>2022-08-16T11:34:38Z</time>
      </trkpt>
      <trkpt lat="45.78564" lon="6.64674">
        <ele>1635</ele>
        <time>2022-08-16T11:34:39Z</time>
      </trkpt>
      <trkpt lat="45.78565" lon="6.64662">
        <ele>1635</ele>
        <time>2022-08-16T11:34:40Z</time>
      </trkpt>
      <trkpt lat="45.78565" lon="6.64649">
        <ele>1634</ele>
        <time>2022-08-16T11:34:41Z</time>
      </trkpt>
      <trkpt lat="45.78566" lon="6.64635">
        <ele>1633</ele>
        <time>2022-08-16T11:34:42Z</time>
      </trkpt>
      <trkpt lat="45.78566" lon="6.64622">
        <ele>1633</ele>
        <time>2022-08-16T11:34:43Z</time>
      </trkpt>
      <trkpt lat="45.78566" lon="6.64608">
        <ele>1633</ele>
        <time>2022-08-16T11:34:44Z</time>
      </trkpt>
      <trkpt lat="45.78566" lon="6.64593">
        <ele>1632</ele>
        <time>2022-08-16T11:34:45Z</time>
      </trkpt>
      <trkpt lat="45.78567" lon="6.64578">
        <ele>1632</ele>
        <time>2022-08-16T11:34:46Z</time>
      </trkpt>
      <trkpt lat="45.78569" lon="6.64565">
        <ele>1632</ele>
        <time>2022-08-16T11:34:47Z</time>
      </trkpt>
      <trkpt lat="45.78572" lon="6.64553">
        <ele>1631</ele>
        <time>2022-08-16T11:34:48Z</time>
      </trkpt>
      <trkpt lat="45.78574" lon="6.6454">
        <ele>1630</ele>
        <time>2022-08-16T11:34:49Z</time>
      </trkpt>
      <trkpt lat="45.78577" lon="6.64526">
        <ele>1630</ele>
        <time>2022-08-16T11:34:50Z</time>
      </trkpt>
      <trkpt lat="45.78579" lon="6.64513">
        <ele>1629</ele>
        <time>2022-08-16T11:34:51Z</time>
      </trkpt>
      <trkpt lat="45.7858" lon="6.64501">
        <ele>1628</ele>
        <time>2022-08-16T11:34:52Z</time>
      </trkpt>
      <trkpt lat="45.78581" lon="6.64489">
        <ele>1628</ele>
        <time>2022-08-16T11:34:53Z</time>
      </trkpt>
      <trkpt lat="45.7858" lon="6.64478">
        <ele>1627</ele>
        <time>2022-08-16T11:34:54Z</time>
      </trkpt>
      <trkpt lat="45.78576" lon="6.64469">
        <ele>1628</ele>
        <time>2022-08-16T11:34:55Z</time>
      </trkpt>
      <trkpt lat="45.78571" lon="6.64463">
        <ele>1628</ele>
        <time>2022-08-16T11:34:56Z</time>
      </trkpt>
      <trkpt lat="45.78565" lon="6.6446">
        <ele>1628</ele>
        <time>2022-08-16T11:34:57Z</time>
      </trkpt>
      <trkpt lat="45.7856" lon="6.64459">
        <ele>1628</ele>
        <time>2022-08-16T11:34:58Z</time>
      </trkpt>
      <trkpt lat="45.78555" lon="6.6446">
        <ele>1628</ele>
        <time>2022-08-16T11:34:59Z</time>
      </trkpt>
      <trkpt lat="45.7855" lon="6.64459">
        <ele>1628</ele>
        <time>2022-08-16T11:35:00Z</time>
      </trkpt>
      <trkpt lat="45.78545" lon="6.64458">
        <ele>1628</ele>
        <time>2022-08-16T11:35:01Z</time>
      </trkpt>
      <trkpt lat="45.7854" lon="6.64458">
        <ele>1628</ele>
        <time>2022-08-16T11:35:02Z</time>
      </trkpt>
      <trkpt lat="45.78535" lon="6.64458">
        <ele>1628</ele>
        <time>2022-08-16T11:35:03Z</time>
      </trkpt>
      <trkpt lat="45.7853" lon="6.64457">
        <ele>1627</ele>
        <time>2022-08-16T11:35:04Z</time>
      </trkpt>
      <trkpt lat="45.78526" lon="6.64457">
        <ele>1627</ele>
        <time>2022-08-16T11:35:05Z</time>
      </trkpt>
      <trkpt lat="45.78521" lon="6.64455">
        <ele>1627</ele>
        <time>2022-08-16T11:35:06Z</time>
      </trkpt>
      <trkpt lat="45.78515" lon="6.64454">
        <ele>1627</ele>
        <time>2022-08-16T11:35:07Z</time>
      </trkpt>
      <trkpt lat="45.7851" lon="6.64451">
        <ele>1628</ele>
        <time>2022-08-16T11:35:08Z</time>
      </trkpt>
      <trkpt lat="45.78505" lon="6.64448">
        <ele>1628</ele>
        <time>2022-08-16T11:35:09Z</time>
      </trkpt>
      <trkpt lat="45.785" lon="6.64445">
        <ele>1628</ele>
        <time>2022-08-16T11:35:10Z</time>
      </trkpt>
      <trkpt lat="45.78495" lon="6.64441">
        <ele>1627</ele>
        <time>2022-08-16T11:35:11Z</time>
      </trkpt>
      <trkpt lat="45.7849" lon="6.64437">
        <ele>1627</ele>
        <time>2022-08-16T11:35:12Z</time>
      </trkpt>
      <trkpt lat="45.78485" lon="6.64434">
        <ele>1627</ele>
        <time>2022-08-16T11:35:13Z</time>
      </trkpt>
      <trkpt lat="45.7848" lon="6.6443">
        <ele>1627</ele>
        <time>2022-08-16T11:35:14Z</time>
      </trkpt>
      <trkpt lat="45.78475" lon="6.64426">
        <ele>1627</ele>
        <time>2022-08-16T11:35:15Z</time>
      </trkpt>
      <trkpt lat="45.78471" lon="6.64422">
        <ele>1627</ele>
        <time>2022-08-16T11:35:16Z</time>
      </trkpt>
      <trkpt lat="45.78466" lon="6.64417">
        <ele>1627</ele>
        <time>2022-08-16T11:35:17Z</time>
      </trkpt>
      <trkpt lat="45.78462" lon="6.64412">
        <ele>1627</ele>
        <time>2022-08-16T11:35:18Z</time>
      </trkpt>
      <trkpt lat="45.78459" lon="6.64407">
        <ele>1626</ele>
        <time>2022-08-16T11:35:19Z</time>
      </trkpt>
      <trkpt lat="45.78454" lon="6.64403">
        <ele>1627</ele>
        <time>2022-08-16T11:35:20Z</time>
      </trkpt>
      <trkpt lat="45.7845" lon="6.644">
        <ele>1626</ele>
        <time>2022-08-16T11:35:21Z</time>
      </trkpt>
      <trkpt lat="45.78445" lon="6.64398">
        <ele>1626</ele>
        <time>2022-08-16T11:35:22Z</time>
      </trkpt>
      <trkpt lat="45.7844" lon="6.64398">
        <ele>1626</ele>
        <time>2022-08-16T11:35:23Z</time>
      </trkpt>
      <trkpt lat="45.78435" lon="6.64398">
        <ele>1626</ele>
        <time>2022-08-16T11:35:24Z</time>
      </trkpt>
      <trkpt lat="45.7843" lon="6.644">
        <ele>1626</ele>
        <time>2022-08-16T11:35:25Z</time>
      </trkpt>
      <trkpt lat="45.78426" lon="6.64402">
        <ele>1626</ele>
        <time>2022-08-16T11:35:26Z</time>
      </trkpt>
      <trkpt lat="45.78421" lon="6.64403">
        <ele>1626</ele>
        <time>2022-08-16T11:35:27Z</time>
      </trkpt>
      <trkpt lat="45.78417" lon="6.64404">
        <ele>1626</ele>
        <time>2022-08-16T11:35:28Z</time>
      </trkpt>
      <trkpt lat="45.78412" lon="6.64404">
        <ele>1626</ele>
        <time>2022-08-16T11:35:29Z</time>
      </trkpt>
      <trkpt lat="45.78408" lon="6.64404">
        <ele>1626</ele>
        <time>2022-08-16T11:35:30Z</time>
      </trkpt>
      <trkpt lat="45.78403" lon="6.64403">
        <ele>1627</ele>
        <time>2022-08-16T11:35:31Z</time>
      </trkpt>
      <trkpt lat="45.78398" lon="6.64403">
        <ele>1627</ele>
        <time>2022-08-16T11:35:32Z</time>
      </trkpt>
      <trkpt lat="45.78394" lon="6.64402">
        <ele>1628</ele>
        <time>2022-08-16T11:35:33Z</time>
      </trkpt>
      <trkpt lat="45.78389" lon="6.64401">
        <ele>1628</ele>
        <time>2022-08-16T11:35:34Z</time>
      </trkpt>
      <trkpt lat="45.78384" lon="6.644">
        <ele>1628</ele>
        <time>2022-08-16T11:35:35Z</time>
      </trkpt>
      <trkpt lat="45.7838" lon="6.64399">
        <ele>1628</ele>
        <time>2022-08-16T11:35:36Z</time>
      </trkpt>
      <trkpt lat="45.78376" lon="6.64398">
        <ele>1628</ele>
        <time>2022-08-16T11:35:37Z</time>
      </trkpt>
      <trkpt lat="45.78373" lon="6.64398">
        <ele>1628</ele>
        <time>2022-08-16T11:35:38Z</time>
      </trkpt>
      <trkpt lat="45.78369" lon="6.64396">
        <ele>1628</ele>
        <time>2022-08-16T11:35:39Z</time>
      </trkpt>
      <trkpt lat="45.78365" lon="6.64395">
        <ele>1628</ele>
        <time>2022-08-16T11:35:40Z</time>
      </trkpt>
      <trkpt lat="45.78361" lon="6.64394">
        <ele>1628</ele>
        <time>2022-08-16T11:35:41Z</time>
      </trkpt>
      <trkpt lat="45.78358" lon="6.64392">
        <ele>1628</ele>
        <time>2022-08-16T11:35:42Z</time>
      </trkpt>
      <trkpt lat="45.78354" lon="6.64391">
        <ele>1629</ele>
        <time>2022-08-16T11:35:43Z</time>
      </trkpt>
      <trkpt lat="45.7835" lon="6.64389">
        <ele>1629</ele>
        <time>2022-08-16T11:35:44Z</time>
      </trkpt>
      <trkpt lat="45.78346" lon="6.64386">
        <ele>1629</ele>
        <time>2022-08-16T11:35:45Z</time>
      </trkpt>
      <trkpt lat="45.78341" lon="6.64382">
        <ele>1629</ele>
        <time>2022-08-16T11:35:46Z</time>
      </trkpt>
      <trkpt lat="45.78337" lon="6.64379">
        <ele>1628</ele>
        <time>2022-08-16T11:35:47Z</time>
      </trkpt>
      <trkpt lat="45.78332" lon="6.64377">
        <ele>1628</ele>
        <time>2022-08-16T11:35:48Z</time>
      </trkpt>
      <trkpt lat="45.78326" lon="6.64373">
        <ele>1628</ele>
        <time>2022-08-16T11:35:49Z</time>
      </trkpt>
      <trkpt lat="45.78321" lon="6.64371">
        <ele>1628</ele>
        <time>2022-08-16T11:35:50Z</time>
      </trkpt>
      <trkpt lat="45.78316" lon="6.64368">
        <ele>1628</ele>
        <time>2022-08-16T11:35:51Z</time>
      </trkpt>
      <trkpt lat="45.7831" lon="6.64366">
        <ele>1627</ele>
        <time>2022-08-16T11:35:52Z</time>
      </trkpt>
      <trkpt lat="45.78305" lon="6.64363">
        <ele>1627</ele>
        <time>2022-08-16T11:35:53Z</time>
      </trkpt>
      <trkpt lat="45.783" lon="6.64359">
        <ele>1626</ele>
        <time>2022-08-16T11:35:54Z</time>
      </trkpt>
      <trkpt lat="45.78295" lon="6.64356">
        <ele>1626</ele>
        <time>2022-08-16T11:35:55Z</time>
      </trkpt>
      <trkpt lat="45.7829" lon="6.64352">
        <ele>1625</ele>
        <time>2022-08-16T11:35:56Z</time>
      </trkpt>
      <trkpt lat="45.78285" lon="6.64346">
        <ele>1624</ele>
        <time>2022-08-16T11:35:57Z</time>
      </trkpt>
      <trkpt lat="45.7828" lon="6.6434">
        <ele>1623</ele>
        <time>2022-08-16T11:35:58Z</time>
      </trkpt>
      <trkpt lat="45.78274" lon="6.64334">
        <ele>1622</ele>
        <time>2022-08-16T11:35:59Z</time>
      </trkpt>
      <trkpt lat="45.78268" lon="6.64327">
        <ele>1621</ele>
        <time>2022-08-16T11:36:00Z</time>
      </trkpt>
      <trkpt lat="45.78261" lon="6.64321">
        <ele>1620</ele>
        <time>2022-08-16T11:36:01Z</time>
      </trkpt>
      <trkpt lat="45.78254" lon="6.64313">
        <ele>1618</ele>
        <time>2022-08-16T11:36:02Z</time>
      </trkpt>
      <trkpt lat="45.78247" lon="6.64305">
        <ele>1617</ele>
        <time>2022-08-16T11:36:03Z</time>
      </trkpt>
      <trkpt lat="45.78239" lon="6.64298">
        <ele>1616</ele>
        <time>2022-08-16T11:36:04Z</time>
      </trkpt>
      <trkpt lat="45.7823" lon="6.6429">
        <ele>1615</ele>
        <time>2022-08-16T11:36:05Z</time>
      </trkpt>
      <trkpt lat="45.78222" lon="6.6428">
        <ele>1615</ele>
        <time>2022-08-16T11:36:06Z</time>
      </trkpt>
      <trkpt lat="45.78213" lon="6.64271">
        <ele>1614</ele>
        <time>2022-08-16T11:36:07Z</time>
      </trkpt>
      <trkpt lat="45.78204" lon="6.64261">
        <ele>1613</ele>
        <time>2022-08-16T11:36:08Z</time>
      </trkpt>
      <trkpt lat="45.78196" lon="6.6425">
        <ele>1612</ele>
        <time>2022-08-16T11:36:09Z</time>
      </trkpt>
      <trkpt lat="45.78188" lon="6.6424">
        <ele>1611</ele>
        <time>2022-08-16T11:36:10Z</time>
      </trkpt>
      <trkpt lat="45.7818" lon="6.64231">
        <ele>1611</ele>
        <time>2022-08-16T11:36:11Z</time>
      </trkpt>
      <trkpt lat="45.78171" lon="6.64222">
        <ele>1610</ele>
        <time>2022-08-16T11:36:12Z</time>
      </trkpt>
      <trkpt lat="45.78163" lon="6.64213">
        <ele>1609</ele>
        <time>2022-08-16T11:36:13Z</time>
      </trkpt>
      <trkpt lat="45.78155" lon="6.64204">
        <ele>1608</ele>
        <time>2022-08-16T11:36:14Z</time>
      </trkpt>
      <trkpt lat="45.78149" lon="6.64195">
        <ele>1607</ele>
        <time>2022-08-16T11:36:15Z</time>
      </trkpt>
      <trkpt lat="45.78144" lon="6.64184">
        <ele>1607</ele>
        <time>2022-08-16T11:36:16Z</time>
      </trkpt>
      <trkpt lat="45.78139" lon="6.64173">
        <ele>1606</ele>
        <time>2022-08-16T11:36:17Z</time>
      </trkpt>
      <trkpt lat="45.78135" lon="6.64161">
        <ele>1604</ele>
        <time>2022-08-16T11:36:18Z</time>
      </trkpt>
      <trkpt lat="45.78132" lon="6.64149">
        <ele>1603</ele>
        <time>2022-08-16T11:36:19Z</time>
      </trkpt>
      <trkpt lat="45.78129" lon="6.64137">
        <ele>1602</ele>
        <time>2022-08-16T11:36:20Z</time>
      </trkpt>
      <trkpt lat="45.78128" lon="6.64125">
        <ele>1601</ele>
        <time>2022-08-16T11:36:21Z</time>
      </trkpt>
      <trkpt lat="45.78128" lon="6.64113">
        <ele>1601</ele>
        <time>2022-08-16T11:36:22Z</time>
      </trkpt>
      <trkpt lat="45.78129" lon="6.64101">
        <ele>1600</ele>
        <time>2022-08-16T11:36:23Z</time>
      </trkpt>
      <trkpt lat="45.78128" lon="6.64089">
        <ele>1599</ele>
        <time>2022-08-16T11:36:24Z</time>
      </trkpt>
      <trkpt lat="45.78128" lon="6.64076">
        <ele>1599</ele>
        <time>2022-08-16T11:36:25Z</time>
      </trkpt>
      <trkpt lat="45.78127" lon="6.64064">
        <ele>1598</ele>
        <time>2022-08-16T11:36:26Z</time>
      </trkpt>
      <trkpt lat="45.78128" lon="6.64053">
        <ele>1596</ele>
        <time>2022-08-16T11:36:27Z</time>
      </trkpt>
      <trkpt lat="45.78129" lon="6.64042">
        <ele>1595</ele>
        <time>2022-08-16T11:36:28Z</time>
      </trkpt>
      <trkpt lat="45.78131" lon="6.64029">
        <ele>1594</ele>
        <time>2022-08-16T11:36:29Z</time>
      </trkpt>
      <trkpt lat="45.78131" lon="6.64017">
        <ele>1593</ele>
        <time>2022-08-16T11:36:30Z</time>
      </trkpt>
      <trkpt lat="45.78127" lon="6.64005">
        <ele>1593</ele>
        <time>2022-08-16T11:36:31Z</time>
      </trkpt>
      <trkpt lat="45.78121" lon="6.63994">
        <ele>1592</ele>
        <time>2022-08-16T11:36:32Z</time>
      </trkpt>
      <trkpt lat="45.78112" lon="6.63985">
        <ele>1591</ele>
        <time>2022-08-16T11:36:33Z</time>
      </trkpt>
      <trkpt lat="45.78104" lon="6.63975">
        <ele>1590</ele>
        <time>2022-08-16T11:36:34Z</time>
      </trkpt>
      <trkpt lat="45.78097" lon="6.63964">
        <ele>1588</ele>
        <time>2022-08-16T11:36:35Z</time>
      </trkpt>
      <trkpt lat="45.78089" lon="6.63953">
        <ele>1587</ele>
        <time>2022-08-16T11:36:36Z</time>
      </trkpt>
      <trkpt lat="45.78081" lon="6.63941">
        <ele>1585</ele>
        <time>2022-08-16T11:36:37Z</time>
      </trkpt>
      <trkpt lat="45.78072" lon="6.63931">
        <ele>1584</ele>
        <time>2022-08-16T11:36:38Z</time>
      </trkpt>
      <trkpt lat="45.78063" lon="6.63921">
        <ele>1583</ele>
        <time>2022-08-16T11:36:39Z</time>
      </trkpt>
      <trkpt lat="45.78054" lon="6.63913">
        <ele>1581</ele>
        <time>2022-08-16T11:36:40Z</time>
      </trkpt>
      <trkpt lat="45.78044" lon="6.63905">
        <ele>1579</ele>
        <time>2022-08-16T11:36:41Z</time>
      </trkpt>
      <trkpt lat="45.78035" lon="6.63897">
        <ele>1578</ele>
        <time>2022-08-16T11:36:42Z</time>
      </trkpt>
      <trkpt lat="45.78025" lon="6.6389">
        <ele>1577</ele>
        <time>2022-08-16T11:36:43Z</time>
      </trkpt>
      <trkpt lat="45.78015" lon="6.63883">
        <ele>1576</ele>
        <time>2022-08-16T11:36:44Z</time>
      </trkpt>
      <trkpt lat="45.78005" lon="6.63876">
        <ele>1575</ele>
        <time>2022-08-16T11:36:45Z</time>
      </trkpt>
      <trkpt lat="45.77996" lon="6.63868">
        <ele>1574</ele>
        <time>2022-08-16T11:36:46Z</time>
      </trkpt>
      <trkpt lat="45.77988" lon="6.63858">
        <ele>1573</ele>
        <time>2022-08-16T11:36:47Z</time>
      </trkpt>
      <trkpt lat="45.77982" lon="6.63847">
        <ele>1572</ele>
        <time>2022-08-16T11:36:48Z</time>
      </trkpt>
      <trkpt lat="45.77978" lon="6.63835">
        <ele>1571</ele>
        <time>2022-08-16T11:36:49Z</time>
      </trkpt>
      <trkpt lat="45.77976" lon="6.63823">
        <ele>1570</ele>
        <time>2022-08-16T11:36:50Z</time>
      </trkpt>
      <trkpt lat="45.77974" lon="6.6381">
        <ele>1569</ele>
        <time>2022-08-16T11:36:51Z</time>
      </trkpt>
      <trkpt lat="45.77973" lon="6.63799">
        <ele>1569</ele>
        <time>2022-08-16T11:36:52Z</time>
      </trkpt>
      <trkpt lat="45.77972" lon="6.63787">
        <ele>1568</ele>
        <time>2022-08-16T11:36:53Z</time>
      </trkpt>
      <trkpt lat="45.77972" lon="6.63775">
        <ele>1567</ele>
        <time>2022-08-16T11:36:54Z</time>
      </trkpt>
      <trkpt lat="45.77971" lon="6.63763">
        <ele>1567</ele>
        <time>2022-08-16T11:36:55Z</time>
      </trkpt>
      <trkpt lat="45.7797" lon="6.63752">
        <ele>1567</ele>
        <time>2022-08-16T11:36:56Z</time>
      </trkpt>
      <trkpt lat="45.77967" lon="6.63742">
        <ele>1566</ele>
        <time>2022-08-16T11:36:57Z</time>
      </trkpt>
      <trkpt lat="45.77965" lon="6.63734">
        <ele>1566</ele>
        <time>2022-08-16T11:36:58Z</time>
      </trkpt>
      <trkpt lat="45.77961" lon="6.63724">
        <ele>1565</ele>
        <time>2022-08-16T11:36:59Z</time>
      </trkpt>
      <trkpt lat="45.77957" lon="6.63714">
        <ele>1564</ele>
        <time>2022-08-16T11:37:00Z</time>
      </trkpt>
      <trkpt lat="45.77954" lon="6.63703">
        <ele>1563</ele>
        <time>2022-08-16T11:37:01Z</time>
      </trkpt>
      <trkpt lat="45.7795" lon="6.63692">
        <ele>1562</ele>
        <time>2022-08-16T11:37:02Z</time>
      </trkpt>
      <trkpt lat="45.77947" lon="6.6368">
        <ele>1561</ele>
        <time>2022-08-16T11:37:03Z</time>
      </trkpt>
      <trkpt lat="45.77945" lon="6.63668">
        <ele>1561</ele>
        <time>2022-08-16T11:37:04Z</time>
      </trkpt>
      <trkpt lat="45.77943" lon="6.63656">
        <ele>1560</ele>
        <time>2022-08-16T11:37:05Z</time>
      </trkpt>
      <trkpt lat="45.77939" lon="6.63644">
        <ele>1559</ele>
        <time>2022-08-16T11:37:06Z</time>
      </trkpt>
      <trkpt lat="45.77935" lon="6.63634">
        <ele>1559</ele>
        <time>2022-08-16T11:37:07Z</time>
      </trkpt>
      <trkpt lat="45.77931" lon="6.63624">
        <ele>1558</ele>
        <time>2022-08-16T11:37:08Z</time>
      </trkpt>
      <trkpt lat="45.77927" lon="6.63614">
        <ele>1557</ele>
        <time>2022-08-16T11:37:09Z</time>
      </trkpt>
      <trkpt lat="45.77923" lon="6.63604">
        <ele>1556</ele>
        <time>2022-08-16T11:37:10Z</time>
      </trkpt>
      <trkpt lat="45.77918" lon="6.63594">
        <ele>1555</ele>
        <time>2022-08-16T11:37:11Z</time>
      </trkpt>
      <trkpt lat="45.77914" lon="6.63584">
        <ele>1554</ele>
        <time>2022-08-16T11:37:12Z</time>
      </trkpt>
      <trkpt lat="45.77909" lon="6.63575">
        <ele>1552</ele>
        <time>2022-08-16T11:37:13Z</time>
      </trkpt>
      <trkpt lat="45.77905" lon="6.63564">
        <ele>1552</ele>
        <time>2022-08-16T11:37:14Z</time>
      </trkpt>
      <trkpt lat="45.77901" lon="6.63553">
        <ele>1551</ele>
        <time>2022-08-16T11:37:15Z</time>
      </trkpt>
      <trkpt lat="45.77897" lon="6.63543">
        <ele>1550</ele>
        <time>2022-08-16T11:37:16Z</time>
      </trkpt>
      <trkpt lat="45.77895" lon="6.63532">
        <ele>1548</ele>
        <time>2022-08-16T11:37:17Z</time>
      </trkpt>
      <trkpt lat="45.77893" lon="6.6352">
        <ele>1547</ele>
        <time>2022-08-16T11:37:18Z</time>
      </trkpt>
      <trkpt lat="45.77891" lon="6.63507">
        <ele>1546</ele>
        <time>2022-08-16T11:37:19Z</time>
      </trkpt>
      <trkpt lat="45.7789" lon="6.63494">
        <ele>1545</ele>
        <time>2022-08-16T11:37:20Z</time>
      </trkpt>
      <trkpt lat="45.77888" lon="6.63481">
        <ele>1544</ele>
        <time>2022-08-16T11:37:21Z</time>
      </trkpt>
      <trkpt lat="45.77884" lon="6.6347">
        <ele>1543</ele>
        <time>2022-08-16T11:37:22Z</time>
      </trkpt>
      <trkpt lat="45.77881" lon="6.63459">
        <ele>1542</ele>
        <time>2022-08-16T11:37:23Z</time>
      </trkpt>
      <trkpt lat="45.77877" lon="6.63447">
        <ele>1541</ele>
        <time>2022-08-16T11:37:24Z</time>
      </trkpt>
      <trkpt lat="45.77874" lon="6.63435">
        <ele>1540</ele>
        <time>2022-08-16T11:37:25Z</time>
      </trkpt>
      <trkpt lat="45.77871" lon="6.63422">
        <ele>1540</ele>
        <time>2022-08-16T11:37:26Z</time>
      </trkpt>
      <trkpt lat="45.77868" lon="6.63409">
        <ele>1539</ele>
        <time>2022-08-16T11:37:27Z</time>
      </trkpt>
      <trkpt lat="45.77866" lon="6.63396">
        <ele>1538</ele>
        <time>2022-08-16T11:37:28Z</time>
      </trkpt>
      <trkpt lat="45.77864" lon="6.63384">
        <ele>1538</ele>
        <time>2022-08-16T11:37:29Z</time>
      </trkpt>
      <trkpt lat="45.77862" lon="6.63375">
        <ele>1538</ele>
        <time>2022-08-16T11:37:30Z</time>
      </trkpt>
      <trkpt lat="45.7786" lon="6.63367">
        <ele>1537</ele>
        <time>2022-08-16T11:37:31Z</time>
      </trkpt>
      <trkpt lat="45.77855" lon="6.63361">
        <ele>1537</ele>
        <time>2022-08-16T11:37:32Z</time>
      </trkpt>
      <trkpt lat="45.77849" lon="6.63358">
        <ele>1537</ele>
        <time>2022-08-16T11:37:33Z</time>
      </trkpt>
      <trkpt lat="45.77843" lon="6.63361">
        <ele>1537</ele>
        <time>2022-08-16T11:37:34Z</time>
      </trkpt>
      <trkpt lat="45.77839" lon="6.63364">
        <ele>1536</ele>
        <time>2022-08-16T11:37:35Z</time>
      </trkpt>
      <trkpt lat="45.77837" lon="6.6337">
        <ele>1536</ele>
        <time>2022-08-16T11:37:36Z</time>
      </trkpt>
      <trkpt lat="45.77836" lon="6.63374">
        <ele>1535</ele>
        <time>2022-08-16T11:37:37Z</time>
      </trkpt>
      <trkpt lat="45.77835" lon="6.63378">
        <ele>1535</ele>
        <time>2022-08-16T11:37:38Z</time>
      </trkpt>
      <trkpt lat="45.77835" lon="6.6338">
        <ele>1535</ele>
        <time>2022-08-16T11:37:39Z</time>
      </trkpt>
      <trkpt lat="45.77835" lon="6.63382">
        <ele>1534</ele>
        <time>2022-08-16T11:37:40Z</time>
      </trkpt>
      <trkpt lat="45.77835" lon="6.63383">
        <ele>1534</ele>
        <time>2022-08-16T11:37:41Z</time>
      </trkpt>
      <trkpt lat="45.77835" lon="6.63383">
        <ele>1534</ele>
        <time>2022-08-16T11:37:42Z</time>
      </trkpt>
      <trkpt lat="45.77836" lon="6.63383">
        <ele>1534</ele>
        <time>2022-08-16T11:37:43Z</time>
      </trkpt>
      <trkpt lat="45.77835" lon="6.63382">
        <ele>1534</ele>
        <time>2022-08-16T11:37:44Z</time>
      </trkpt>
      <trkpt lat="45.77835" lon="6.63382">
        <ele>1534</ele>
        <time>2022-08-16T11:37:45Z</time>
      </trkpt>
      <trkpt lat="45.77835" lon="6.63382">
        <ele>1534</ele>
        <time>2022-08-16T11:37:46Z</time>
      </trkpt>
      <trkpt lat="45.77835" lon="6.63383">
        <ele>1533</ele>
        <time>2022-08-16T11:37:47Z</time>
      </trkpt>
      <trkpt lat="45.77835" lon="6.63383">
        <ele>1533</ele>
        <time>2022-08-16T11:37:48Z</time>
      </trkpt>
      <trkpt lat="45.77835" lon="6.63383">
        <ele>1533</ele>
        <time>2022-08-16T11:37:52Z</time>
      </trkpt>
      <trkpt lat="45.77835" lon="6.63383">
        <ele>1533</ele>
        <time>2022-08-16T11:37:56Z</time>
      </trkpt>
      <trkpt lat="45.77835" lon="6.63383">
        <ele>1533</ele>
        <time>2022-08-16T11:38:00Z</time>
      </trkpt>
      <trkpt lat="45.77835" lon="6.63383">
        <ele>1533</ele>
        <time>2022-08-16T11:38:04Z</time>
      </trkpt>
      <trkpt lat="45.77835" lon="6.63383">
        <ele>1533</ele>
        <time>2022-08-16T11:38:08Z</time>
      </trkpt>
      <trkpt lat="45.77835" lon="6.63383">
        <ele>1533</ele>
        <time>2022-08-16T11:38:12Z</time>
      </trkpt>
      <trkpt lat="45.77835" lon="6.63383">
        <ele>1533</ele>
        <time>2022-08-16T11:38:16Z</time>
      </trkpt>
      <trkpt lat="45.77835" lon="6.63383">
        <ele>1533</ele>
        <time>2022-08-16T11:38:20Z</time>
      </trkpt>
      <trkpt lat="45.77835" lon="6.63383">
        <ele>1533</ele>
        <time>2022-08-16T11:38:24Z</time>
      </trkpt>
      <trkpt lat="45.77835" lon="6.63383">
        <ele>1533</ele>
        <time>2022-08-16T11:38:28Z</time>
      </trkpt>
      <trkpt lat="45.77835" lon="6.63383">
        <ele>1533</ele>
        <time>2022-08-16T11:38:32Z</time>
      </trkpt>
      <trkpt lat="45.77835" lon="6.63383">
        <ele>1533</ele>
        <time>2022-08-16T11:38:36Z</time>
      </trkpt>
      <trkpt lat="45.77835" lon="6.63383">
        <ele>1533</ele>
        <time>2022-08-16T11:38:40Z</time>
      </trkpt>
      <trkpt lat="45.77835" lon="6.63383">
        <ele>1533</ele>
        <time>2022-08-16T11:38:44Z</time>
      </trkpt>
      <trkpt lat="45.77835" lon="6.63383">
        <ele>1533</ele>
        <time>2022-08-16T11:38:48Z</time>
      </trkpt>
      <trkpt lat="45.77836" lon="6.63383">
        <ele>1533</ele>
        <time>2022-08-16T11:38:50Z</time>
      </trkpt>
      <trkpt lat="45.77836" lon="6.63383">
        <ele>1534</ele>
        <time>2022-08-16T11:38:51Z</time>
      </trkpt>
      <trkpt lat="45.77836" lon="6.63383">
        <ele>1534</ele>
        <time>2022-08-16T11:38:52Z</time>
      </trkpt>
      <trkpt lat="45.77836" lon="6.63383">
        <ele>1534</ele>
        <time>2022-08-16T11:38:53Z</time>
      </trkpt>
      <trkpt lat="45.77835" lon="6.63384">
        <ele>1534</ele>
        <time>2022-08-16T11:38:54Z</time>
      </trkpt>
      <trkpt lat="45.77835" lon="6.63385">
        <ele>1534</ele>
        <time>2022-08-16T11:38:55Z</time>
      </trkpt>
      <trkpt lat="45.77835" lon="6.63389">
        <ele>1534</ele>
        <time>2022-08-16T11:38:56Z</time>
      </trkpt>
      <trkpt lat="45.77834" lon="6.63393">
        <ele>1534</ele>
        <time>2022-08-16T11:38:57Z</time>
      </trkpt>
      <trkpt lat="45.77833" lon="6.634">
        <ele>1534</ele>
        <time>2022-08-16T11:38:58Z</time>
      </trkpt>
      <trkpt lat="45.77833" lon="6.63407">
        <ele>1534</ele>
        <time>2022-08-16T11:38:59Z</time>
      </trkpt>
      <trkpt lat="45.77833" lon="6.63415">
        <ele>1533</ele>
        <time>2022-08-16T11:39:00Z</time>
      </trkpt>
      <trkpt lat="45.77834" lon="6.63424">
        <ele>1532</ele>
        <time>2022-08-16T11:39:01Z</time>
      </trkpt>
      <trkpt lat="45.77834" lon="6.63434">
        <ele>1531</ele>
        <time>2022-08-16T11:39:02Z</time>
      </trkpt>
      <trkpt lat="45.77834" lon="6.63444">
        <ele>1530</ele>
        <time>2022-08-16T11:39:03Z</time>
      </trkpt>
      <trkpt lat="45.77834" lon="6.63455">
        <ele>1529</ele>
        <time>2022-08-16T11:39:04Z</time>
      </trkpt>
      <trkpt lat="45.77834" lon="6.63467">
        <ele>1528</ele>
        <time>2022-08-16T11:39:05Z</time>
      </trkpt>
      <trkpt lat="45.77834" lon="6.63479">
        <ele>1527</ele>
        <time>2022-08-16T11:39:06Z</time>
      </trkpt>
      <trkpt lat="45.77834" lon="6.63492">
        <ele>1526</ele>
        <time>2022-08-16T11:39:07Z</time>
      </trkpt>
      <trkpt lat="45.77833" lon="6.63505">
        <ele>1525</ele>
        <time>2022-08-16T11:39:08Z</time>
      </trkpt>
      <trkpt lat="45.77832" lon="6.63519">
        <ele>1524</ele>
        <time>2022-08-16T11:39:09Z</time>
      </trkpt>
      <trkpt lat="45.77831" lon="6.63531">
        <ele>1523</ele>
        <time>2022-08-16T11:39:10Z</time>
      </trkpt>
      <trkpt lat="45.77831" lon="6.63542">
        <ele>1522</ele>
        <time>2022-08-16T11:39:11Z</time>
      </trkpt>
      <trkpt lat="45.77831" lon="6.63553">
        <ele>1521</ele>
        <time>2022-08-16T11:39:12Z</time>
      </trkpt>
      <trkpt lat="45.77832" lon="6.63564">
        <ele>1521</ele>
        <time>2022-08-16T11:39:13Z</time>
      </trkpt>
      <trkpt lat="45.77833" lon="6.63575">
        <ele>1520</ele>
        <time>2022-08-16T11:39:14Z</time>
      </trkpt>
      <trkpt lat="45.77834" lon="6.63587">
        <ele>1520</ele>
        <time>2022-08-16T11:39:15Z</time>
      </trkpt>
      <trkpt lat="45.77835" lon="6.63599">
        <ele>1519</ele>
        <time>2022-08-16T11:39:16Z</time>
      </trkpt>
      <trkpt lat="45.77838" lon="6.6361">
        <ele>1518</ele>
        <time>2022-08-16T11:39:17Z</time>
      </trkpt>
      <trkpt lat="45.77841" lon="6.6362">
        <ele>1517</ele>
        <time>2022-08-16T11:39:18Z</time>
      </trkpt>
      <trkpt lat="45.77844" lon="6.63629">
        <ele>1517</ele>
        <time>2022-08-16T11:39:19Z</time>
      </trkpt>
      <trkpt lat="45.77846" lon="6.63638">
        <ele>1516</ele>
        <time>2022-08-16T11:39:20Z</time>
      </trkpt>
      <trkpt lat="45.77845" lon="6.63648">
        <ele>1515</ele>
        <time>2022-08-16T11:39:21Z</time>
      </trkpt>
      <trkpt lat="45.77841" lon="6.63658">
        <ele>1514</ele>
        <time>2022-08-16T11:39:22Z</time>
      </trkpt>
      <trkpt lat="45.77836" lon="6.63665">
        <ele>1514</ele>
        <time>2022-08-16T11:39:23Z</time>
      </trkpt>
      <trkpt lat="45.77831" lon="6.63672">
        <ele>1513</ele>
        <time>2022-08-16T11:39:24Z</time>
      </trkpt>
      <trkpt lat="45.77828" lon="6.6368">
        <ele>1512</ele>
        <time>2022-08-16T11:39:25Z</time>
      </trkpt>
      <trkpt lat="45.77826" lon="6.6369">
        <ele>1512</ele>
        <time>2022-08-16T11:39:26Z</time>
      </trkpt>
      <trkpt lat="45.77825" lon="6.63702">
        <ele>1511</ele>
        <time>2022-08-16T11:39:27Z</time>
      </trkpt>
      <trkpt lat="45.77824" lon="6.63714">
        <ele>1510</ele>
        <time>2022-08-16T11:39:28Z</time>
      </trkpt>
      <trkpt lat="45.77823" lon="6.63727">
        <ele>1509</ele>
        <time>2022-08-16T11:39:29Z</time>
      </trkpt>
      <trkpt lat="45.77824" lon="6.63739">
        <ele>1508</ele>
        <time>2022-08-16T11:39:30Z</time>
      </trkpt>
      <trkpt lat="45.77826" lon="6.63749">
        <ele>1508</ele>
        <time>2022-08-16T11:39:31Z</time>
      </trkpt>
      <trkpt lat="45.7783" lon="6.6376">
        <ele>1507</ele>
        <time>2022-08-16T11:39:32Z</time>
      </trkpt>
      <trkpt lat="45.77834" lon="6.6377">
        <ele>1505</ele>
        <time>2022-08-16T11:39:33Z</time>
      </trkpt>
      <trkpt lat="45.77839" lon="6.6378">
        <ele>1504</ele>
        <time>2022-08-16T11:39:34Z</time>
      </trkpt>
      <trkpt lat="45.77844" lon="6.6379">
        <ele>1503</ele>
        <time>2022-08-16T11:39:35Z</time>
      </trkpt>
      <trkpt lat="45.77848" lon="6.63799">
        <ele>1502</ele>
        <time>2022-08-16T11:39:36Z</time>
      </trkpt>
      <trkpt lat="45.77854" lon="6.63808">
        <ele>1502</ele>
        <time>2022-08-16T11:39:37Z</time>
      </trkpt>
      <trkpt lat="45.77859" lon="6.63816">
        <ele>1500</ele>
        <time>2022-08-16T11:39:38Z</time>
      </trkpt>
      <trkpt lat="45.77865" lon="6.63825">
        <ele>1500</ele>
        <time>2022-08-16T11:39:39Z</time>
      </trkpt>
      <trkpt lat="45.77869" lon="6.63836">
        <ele>1499</ele>
        <time>2022-08-16T11:39:40Z</time>
      </trkpt>
      <trkpt lat="45.77873" lon="6.63847">
        <ele>1498</ele>
        <time>2022-08-16T11:39:41Z</time>
      </trkpt>
      <trkpt lat="45.77876" lon="6.6386">
        <ele>1497</ele>
        <time>2022-08-16T11:39:42Z</time>
      </trkpt>
      <trkpt lat="45.77878" lon="6.63872">
        <ele>1496</ele>
        <time>2022-08-16T11:39:43Z</time>
      </trkpt>
      <trkpt lat="45.77879" lon="6.63884">
        <ele>1495</ele>
        <time>2022-08-16T11:39:44Z</time>
      </trkpt>
      <trkpt lat="45.77881" lon="6.63896">
        <ele>1495</ele>
        <time>2022-08-16T11:39:45Z</time>
      </trkpt>
      <trkpt lat="45.77883" lon="6.63908">
        <ele>1494</ele>
        <time>2022-08-16T11:39:46Z</time>
      </trkpt>
      <trkpt lat="45.77886" lon="6.63919">
        <ele>1493</ele>
        <time>2022-08-16T11:39:47Z</time>
      </trkpt>
      <trkpt lat="45.77888" lon="6.63932">
        <ele>1491</ele>
        <time>2022-08-16T11:39:48Z</time>
      </trkpt>
      <trkpt lat="45.7789" lon="6.63945">
        <ele>1490</ele>
        <time>2022-08-16T11:39:49Z</time>
      </trkpt>
      <trkpt lat="45.77892" lon="6.63959">
        <ele>1490</ele>
        <time>2022-08-16T11:39:50Z</time>
      </trkpt>
      <trkpt lat="45.77894" lon="6.63972">
        <ele>1489</ele>
        <time>2022-08-16T11:39:51Z</time>
      </trkpt>
      <trkpt lat="45.77895" lon="6.63985">
        <ele>1488</ele>
        <time>2022-08-16T11:39:52Z</time>
      </trkpt>
      <trkpt lat="45.77896" lon="6.63997">
        <ele>1487</ele>
        <time>2022-08-16T11:39:53Z</time>
      </trkpt>
      <trkpt lat="45.77898" lon="6.64009">
        <ele>1487</ele>
        <time>2022-08-16T11:39:54Z</time>
      </trkpt>
      <trkpt lat="45.77901" lon="6.6402">
        <ele>1486</ele>
        <time>2022-08-16T11:39:55Z</time>
      </trkpt>
      <trkpt lat="45.77905" lon="6.64031">
        <ele>1485</ele>
        <time>2022-08-16T11:39:56Z</time>
      </trkpt>
      <trkpt lat="45.77909" lon="6.6404">
        <ele>1484</ele>
        <time>2022-08-16T11:39:57Z</time>
      </trkpt>
      <trkpt lat="45.77911" lon="6.64048">
        <ele>1484</ele>
        <time>2022-08-16T11:39:58Z</time>
      </trkpt>
      <trkpt lat="45.77907" lon="6.64054">
        <ele>1483</ele>
        <time>2022-08-16T11:39:59Z</time>
      </trkpt>
      <trkpt lat="45.779" lon="6.64054">
        <ele>1483</ele>
        <time>2022-08-16T11:40:00Z</time>
      </trkpt>
      <trkpt lat="45.77894" lon="6.64048">
        <ele>1482</ele>
        <time>2022-08-16T11:40:01Z</time>
      </trkpt>
      <trkpt lat="45.77889" lon="6.64038">
        <ele>1482</ele>
        <time>2022-08-16T11:40:02Z</time>
      </trkpt>
      <trkpt lat="45.77885" lon="6.64028">
        <ele>1483</ele>
        <time>2022-08-16T11:40:03Z</time>
      </trkpt>
      <trkpt lat="45.77881" lon="6.64017">
        <ele>1483</ele>
        <time>2022-08-16T11:40:04Z</time>
      </trkpt>
      <trkpt lat="45.77877" lon="6.64005">
        <ele>1483</ele>
        <time>2022-08-16T11:40:05Z</time>
      </trkpt>
      <trkpt lat="45.77873" lon="6.63994">
        <ele>1482</ele>
        <time>2022-08-16T11:40:06Z</time>
      </trkpt>
      <trkpt lat="45.7787" lon="6.63981">
        <ele>1482</ele>
        <time>2022-08-16T11:40:07Z</time>
      </trkpt>
      <trkpt lat="45.77866" lon="6.63969">
        <ele>1482</ele>
        <time>2022-08-16T11:40:08Z</time>
      </trkpt>
      <trkpt lat="45.77864" lon="6.63955">
        <ele>1481</ele>
        <time>2022-08-16T11:40:09Z</time>
      </trkpt>
      <trkpt lat="45.77861" lon="6.63941">
        <ele>1480</ele>
        <time>2022-08-16T11:40:10Z</time>
      </trkpt>
      <trkpt lat="45.77857" lon="6.63927">
        <ele>1479</ele>
        <time>2022-08-16T11:40:11Z</time>
      </trkpt>
      <trkpt lat="45.77854" lon="6.63913">
        <ele>1478</ele>
        <time>2022-08-16T11:40:12Z</time>
      </trkpt>
      <trkpt lat="45.7785" lon="6.639">
        <ele>1478</ele>
        <time>2022-08-16T11:40:13Z</time>
      </trkpt>
      <trkpt lat="45.77845" lon="6.63887">
        <ele>1477</ele>
        <time>2022-08-16T11:40:14Z</time>
      </trkpt>
      <trkpt lat="45.7784" lon="6.63876">
        <ele>1477</ele>
        <time>2022-08-16T11:40:15Z</time>
      </trkpt>
      <trkpt lat="45.77835" lon="6.63866">
        <ele>1476</ele>
        <time>2022-08-16T11:40:16Z</time>
      </trkpt>
      <trkpt lat="45.77829" lon="6.63855">
        <ele>1475</ele>
        <time>2022-08-16T11:40:17Z</time>
      </trkpt>
      <trkpt lat="45.77823" lon="6.63846">
        <ele>1474</ele>
        <time>2022-08-16T11:40:18Z</time>
      </trkpt>
      <trkpt lat="45.77817" lon="6.63837">
        <ele>1474</ele>
        <time>2022-08-16T11:40:19Z</time>
      </trkpt>
      <trkpt lat="45.7781" lon="6.63829">
        <ele>1473</ele>
        <time>2022-08-16T11:40:20Z</time>
      </trkpt>
      <trkpt lat="45.77803" lon="6.63822">
        <ele>1472</ele>
        <time>2022-08-16T11:40:21Z</time>
      </trkpt>
      <trkpt lat="45.77796" lon="6.63815">
        <ele>1471</ele>
        <time>2022-08-16T11:40:22Z</time>
      </trkpt>
      <trkpt lat="45.77789" lon="6.63808">
        <ele>1471</ele>
        <time>2022-08-16T11:40:23Z</time>
      </trkpt>
      <trkpt lat="45.77781" lon="6.63802">
        <ele>1470</ele>
        <time>2022-08-16T11:40:24Z</time>
      </trkpt>
      <trkpt lat="45.77775" lon="6.63797">
        <ele>1470</ele>
        <time>2022-08-16T11:40:25Z</time>
      </trkpt>
      <trkpt lat="45.77768" lon="6.63795">
        <ele>1469</ele>
        <time>2022-08-16T11:40:26Z</time>
      </trkpt>
      <trkpt lat="45.77762" lon="6.63792">
        <ele>1469</ele>
        <time>2022-08-16T11:40:27Z</time>
      </trkpt>
      <trkpt lat="45.77756" lon="6.63789">
        <ele>1468</ele>
        <time>2022-08-16T11:40:28Z</time>
      </trkpt>
      <trkpt lat="45.77751" lon="6.63785">
        <ele>1468</ele>
        <time>2022-08-16T11:40:29Z</time>
      </trkpt>
      <trkpt lat="45.77747" lon="6.6378">
        <ele>1467</ele>
        <time>2022-08-16T11:40:30Z</time>
      </trkpt>
      <trkpt lat="45.77744" lon="6.63773">
        <ele>1467</ele>
        <time>2022-08-16T11:40:31Z</time>
      </trkpt>
      <trkpt lat="45.77742" lon="6.63765">
        <ele>1467</ele>
        <time>2022-08-16T11:40:32Z</time>
      </trkpt>
      <trkpt lat="45.77741" lon="6.63755">
        <ele>1467</ele>
        <time>2022-08-16T11:40:33Z</time>
      </trkpt>
      <trkpt lat="45.7774" lon="6.63745">
        <ele>1466</ele>
        <time>2022-08-16T11:40:34Z</time>
      </trkpt>
      <trkpt lat="45.77739" lon="6.63734">
        <ele>1466</ele>
        <time>2022-08-16T11:40:35Z</time>
      </trkpt>
      <trkpt lat="45.77738" lon="6.63722">
        <ele>1465</ele>
        <time>2022-08-16T11:40:36Z</time>
      </trkpt>
      <trkpt lat="45.77738" lon="6.6371">
        <ele>1465</ele>
        <time>2022-08-16T11:40:37Z</time>
      </trkpt>
      <trkpt lat="45.77737" lon="6.63698">
        <ele>1464</ele>
        <time>2022-08-16T11:40:38Z</time>
      </trkpt>
      <trkpt lat="45.77737" lon="6.63686">
        <ele>1463</ele>
        <time>2022-08-16T11:40:39Z</time>
      </trkpt>
      <trkpt lat="45.77737" lon="6.63674">
        <ele>1462</ele>
        <time>2022-08-16T11:40:40Z</time>
      </trkpt>
      <trkpt lat="45.77738" lon="6.63661">
        <ele>1461</ele>
        <time>2022-08-16T11:40:41Z</time>
      </trkpt>
      <trkpt lat="45.77739" lon="6.6365">
        <ele>1461</ele>
        <time>2022-08-16T11:40:42Z</time>
      </trkpt>
      <trkpt lat="45.77737" lon="6.63639">
        <ele>1460</ele>
        <time>2022-08-16T11:40:43Z</time>
      </trkpt>
      <trkpt lat="45.77734" lon="6.63629">
        <ele>1460</ele>
        <time>2022-08-16T11:40:44Z</time>
      </trkpt>
      <trkpt lat="45.77729" lon="6.6362">
        <ele>1459</ele>
        <time>2022-08-16T11:40:45Z</time>
      </trkpt>
      <trkpt lat="45.77724" lon="6.63611">
        <ele>1458</ele>
        <time>2022-08-16T11:40:46Z</time>
      </trkpt>
      <trkpt lat="45.7772" lon="6.636">
        <ele>1457</ele>
        <time>2022-08-16T11:40:47Z</time>
      </trkpt>
      <trkpt lat="45.77716" lon="6.63588">
        <ele>1456</ele>
        <time>2022-08-16T11:40:48Z</time>
      </trkpt>
      <trkpt lat="45.77715" lon="6.63575">
        <ele>1455</ele>
        <time>2022-08-16T11:40:49Z</time>
      </trkpt>
      <trkpt lat="45.77715" lon="6.63563">
        <ele>1454</ele>
        <time>2022-08-16T11:40:50Z</time>
      </trkpt>
      <trkpt lat="45.77716" lon="6.63552">
        <ele>1454</ele>
        <time>2022-08-16T11:40:51Z</time>
      </trkpt>
      <trkpt lat="45.77718" lon="6.63543">
        <ele>1453</ele>
        <time>2022-08-16T11:40:52Z</time>
      </trkpt>
      <trkpt lat="45.7772" lon="6.63534">
        <ele>1452</ele>
        <time>2022-08-16T11:40:53Z</time>
      </trkpt>
      <trkpt lat="45.7772" lon="6.63526">
        <ele>1452</ele>
        <time>2022-08-16T11:40:54Z</time>
      </trkpt>
      <trkpt lat="45.77717" lon="6.63517">
        <ele>1452</ele>
        <time>2022-08-16T11:40:55Z</time>
      </trkpt>
      <trkpt lat="45.77713" lon="6.63514">
        <ele>1451</ele>
        <time>2022-08-16T11:40:56Z</time>
      </trkpt>
      <trkpt lat="45.77707" lon="6.63515">
        <ele>1451</ele>
        <time>2022-08-16T11:40:57Z</time>
      </trkpt>
      <trkpt lat="45.77702" lon="6.63519">
        <ele>1450</ele>
        <time>2022-08-16T11:40:58Z</time>
      </trkpt>
      <trkpt lat="45.777" lon="6.63526">
        <ele>1450</ele>
        <time>2022-08-16T11:40:59Z</time>
      </trkpt>
      <trkpt lat="45.77699" lon="6.63535">
        <ele>1449</ele>
        <time>2022-08-16T11:41:00Z</time>
      </trkpt>
      <trkpt lat="45.77698" lon="6.63544">
        <ele>1449</ele>
        <time>2022-08-16T11:41:01Z</time>
      </trkpt>
      <trkpt lat="45.77697" lon="6.63553">
        <ele>1448</ele>
        <time>2022-08-16T11:41:02Z</time>
      </trkpt>
      <trkpt lat="45.77695" lon="6.63563">
        <ele>1447</ele>
        <time>2022-08-16T11:41:03Z</time>
      </trkpt>
      <trkpt lat="45.77694" lon="6.63575">
        <ele>1446</ele>
        <time>2022-08-16T11:41:04Z</time>
      </trkpt>
      <trkpt lat="45.77694" lon="6.63587">
        <ele>1445</ele>
        <time>2022-08-16T11:41:05Z</time>
      </trkpt>
      <trkpt lat="45.77694" lon="6.63599">
        <ele>1445</ele>
        <time>2022-08-16T11:41:06Z</time>
      </trkpt>
      <trkpt lat="45.77696" lon="6.63611">
        <ele>1444</ele>
        <time>2022-08-16T11:41:07Z</time>
      </trkpt>
      <trkpt lat="45.77697" lon="6.63625">
        <ele>1443</ele>
        <time>2022-08-16T11:41:08Z</time>
      </trkpt>
      <trkpt lat="45.77699" lon="6.63639">
        <ele>1443</ele>
        <time>2022-08-16T11:41:09Z</time>
      </trkpt>
      <trkpt lat="45.77698" lon="6.63653">
        <ele>1442</ele>
        <time>2022-08-16T11:41:10Z</time>
      </trkpt>
      <trkpt lat="45.77696" lon="6.63666">
        <ele>1441</ele>
        <time>2022-08-16T11:41:11Z</time>
      </trkpt>
      <trkpt lat="45.77693" lon="6.63678">
        <ele>1441</ele>
        <time>2022-08-16T11:41:12Z</time>
      </trkpt>
      <trkpt lat="45.7769" lon="6.63689">
        <ele>1440</ele>
        <time>2022-08-16T11:41:13Z</time>
      </trkpt>
      <trkpt lat="45.77688" lon="6.637">
        <ele>1439</ele>
        <time>2022-08-16T11:41:14Z</time>
      </trkpt>
      <trkpt lat="45.77685" lon="6.6371">
        <ele>1438</ele>
        <time>2022-08-16T11:41:15Z</time>
      </trkpt>
      <trkpt lat="45.77683" lon="6.63721">
        <ele>1437</ele>
        <time>2022-08-16T11:41:16Z</time>
      </trkpt>
      <trkpt lat="45.77681" lon="6.63731">
        <ele>1436</ele>
        <time>2022-08-16T11:41:17Z</time>
      </trkpt>
      <trkpt lat="45.77678" lon="6.63742">
        <ele>1435</ele>
        <time>2022-08-16T11:41:18Z</time>
      </trkpt>
      <trkpt lat="45.77677" lon="6.63753">
        <ele>1435</ele>
        <time>2022-08-16T11:41:19Z</time>
      </trkpt>
      <trkpt lat="45.77675" lon="6.63762">
        <ele>1434</ele>
        <time>2022-08-16T11:41:20Z</time>
      </trkpt>
      <trkpt lat="45.77673" lon="6.63772">
        <ele>1434</ele>
        <time>2022-08-16T11:41:21Z</time>
      </trkpt>
      <trkpt lat="45.77671" lon="6.63781">
        <ele>1433</ele>
        <time>2022-08-16T11:41:22Z</time>
      </trkpt>
      <trkpt lat="45.77669" lon="6.63791">
        <ele>1433</ele>
        <time>2022-08-16T11:41:23Z</time>
      </trkpt>
      <trkpt lat="45.77667" lon="6.63802">
        <ele>1432</ele>
        <time>2022-08-16T11:41:24Z</time>
      </trkpt>
      <trkpt lat="45.77667" lon="6.63811">
        <ele>1432</ele>
        <time>2022-08-16T11:41:25Z</time>
      </trkpt>
      <trkpt lat="45.77667" lon="6.6382">
        <ele>1431</ele>
        <time>2022-08-16T11:41:26Z</time>
      </trkpt>
      <trkpt lat="45.77667" lon="6.63828">
        <ele>1430</ele>
        <time>2022-08-16T11:41:27Z</time>
      </trkpt>
      <trkpt lat="45.77667" lon="6.63835">
        <ele>1430</ele>
        <time>2022-08-16T11:41:28Z</time>
      </trkpt>
      <trkpt lat="45.77667" lon="6.63842">
        <ele>1429</ele>
        <time>2022-08-16T11:41:29Z</time>
      </trkpt>
      <trkpt lat="45.77668" lon="6.63848">
        <ele>1428</ele>
        <time>2022-08-16T11:41:30Z</time>
      </trkpt>
      <trkpt lat="45.77668" lon="6.63853">
        <ele>1427</ele>
        <time>2022-08-16T11:41:31Z</time>
      </trkpt>
      <trkpt lat="45.77668" lon="6.63856">
        <ele>1427</ele>
        <time>2022-08-16T11:41:32Z</time>
      </trkpt>
      <trkpt lat="45.77668" lon="6.6386">
        <ele>1427</ele>
        <time>2022-08-16T11:41:33Z</time>
      </trkpt>
      <trkpt lat="45.77668" lon="6.63862">
        <ele>1427</ele>
        <time>2022-08-16T11:41:34Z</time>
      </trkpt>
      <trkpt lat="45.77667" lon="6.63863">
        <ele>1426</ele>
        <time>2022-08-16T11:41:35Z</time>
      </trkpt>
      <trkpt lat="45.77666" lon="6.63864">
        <ele>1427</ele>
        <time>2022-08-16T11:41:36Z</time>
      </trkpt>
      <trkpt lat="45.77666" lon="6.63865">
        <ele>1426</ele>
        <time>2022-08-16T11:41:37Z</time>
      </trkpt>
      <trkpt lat="45.77667" lon="6.63865">
        <ele>1426</ele>
        <time>2022-08-16T11:41:38Z</time>
      </trkpt>
      <trkpt lat="45.77667" lon="6.63865">
        <ele>1426</ele>
        <time>2022-08-16T11:41:39Z</time>
      </trkpt>
      <trkpt lat="45.77667" lon="6.63866">
        <ele>1425</ele>
        <time>2022-08-16T11:41:40Z</time>
      </trkpt>
      <trkpt lat="45.77666" lon="6.63866">
        <ele>1426</ele>
        <time>2022-08-16T11:41:41Z</time>
      </trkpt>
      <trkpt lat="45.77666" lon="6.63866">
        <ele>1426</ele>
        <time>2022-08-16T11:41:42Z</time>
      </trkpt>
      <trkpt lat="45.77666" lon="6.63865">
        <ele>1426</ele>
        <time>2022-08-16T11:41:43Z</time>
      </trkpt>
      <trkpt lat="45.77665" lon="6.63865">
        <ele>1426</ele>
        <time>2022-08-16T11:41:44Z</time>
      </trkpt>
      <trkpt lat="45.77665" lon="6.63865">
        <ele>1426</ele>
        <time>2022-08-16T11:41:46Z</time>
      </trkpt>
      <trkpt lat="45.77665" lon="6.63866">
        <ele>1425</ele>
        <time>2022-08-16T11:41:47Z</time>
      </trkpt>
      <trkpt lat="45.77665" lon="6.63866">
        <ele>1425</ele>
        <time>2022-08-16T11:41:48Z</time>
      </trkpt>
      <trkpt lat="45.77665" lon="6.63866">
        <ele>1425</ele>
        <time>2022-08-16T11:41:49Z</time>
      </trkpt>
      <trkpt lat="45.77665" lon="6.63866">
        <ele>1425</ele>
        <time>2022-08-16T11:41:53Z</time>
      </trkpt>
      <trkpt lat="45.77665" lon="6.63866">
        <ele>1425</ele>
        <time>2022-08-16T11:41:57Z</time>
      </trkpt>
      <trkpt lat="45.77665" lon="6.63866">
        <ele>1425</ele>
        <time>2022-08-16T11:42:01Z</time>
      </trkpt>
      <trkpt lat="45.77665" lon="6.63866">
        <ele>1425</ele>
        <time>2022-08-16T11:42:05Z</time>
      </trkpt>
      <trkpt lat="45.77665" lon="6.63866">
        <ele>1425</ele>
        <time>2022-08-16T11:42:09Z</time>
      </trkpt>
      <trkpt lat="45.77665" lon="6.63866">
        <ele>1425</ele>
        <time>2022-08-16T11:42:13Z</time>
      </trkpt>
      <trkpt lat="45.77665" lon="6.63866">
        <ele>1425</ele>
        <time>2022-08-16T11:42:17Z</time>
      </trkpt>
      <trkpt lat="45.77665" lon="6.63866">
        <ele>1425</ele>
        <time>2022-08-16T11:42:21Z</time>
      </trkpt>
      <trkpt lat="45.77665" lon="6.63866">
        <ele>1425</ele>
        <time>2022-08-16T11:42:25Z</time>
      </trkpt>
      <trkpt lat="45.77665" lon="6.63866">
        <ele>1425</ele>
        <time>2022-08-16T11:42:29Z</time>
      </trkpt>
      <trkpt lat="45.77665" lon="6.63866">
        <ele>1425</ele>
        <time>2022-08-16T11:42:33Z</time>
      </trkpt>
      <trkpt lat="45.77665" lon="6.63866">
        <ele>1425</ele>
        <time>2022-08-16T11:42:37Z</time>
      </trkpt>
      <trkpt lat="45.77665" lon="6.63866">
        <ele>1425</ele>
        <time>2022-08-16T11:42:41Z</time>
      </trkpt>
      <trkpt lat="45.77665" lon="6.63866">
        <ele>1425</ele>
        <time>2022-08-16T11:42:45Z</time>
      </trkpt>
      <trkpt lat="45.77665" lon="6.63866">
        <ele>1425</ele>
        <time>2022-08-16T11:42:49Z</time>
      </trkpt>
      <trkpt lat="45.77665" lon="6.63866">
        <ele>1425</ele>
        <time>2022-08-16T11:42:53Z</time>
      </trkpt>
      <trkpt lat="45.77665" lon="6.63866">
        <ele>1425</ele>
        <time>2022-08-16T11:42:57Z</time>
      </trkpt>
      <trkpt lat="45.77665" lon="6.63866">
        <ele>1425</ele>
        <time>2022-08-16T11:43:01Z</time>
      </trkpt>
      <trkpt lat="45.77665" lon="6.63866">
        <ele>1425</ele>
        <time>2022-08-16T11:43:05Z</time>
      </trkpt>
      <trkpt lat="45.77665" lon="6.63866">
        <ele>1425</ele>
        <time>2022-08-16T11:43:09Z</time>
      </trkpt>
      <trkpt lat="45.77665" lon="6.63866">
        <ele>1425</ele>
        <time>2022-08-16T11:43:13Z</time>
      </trkpt>
      <trkpt lat="45.77665" lon="6.63866">
        <ele>1425</ele>
        <time>2022-08-16T11:43:17Z</time>
      </trkpt>
      <trkpt lat="45.77667" lon="6.63864">
        <ele>1425</ele>
        <time>2022-08-16T11:43:19Z</time>
      </trkpt>
      <trkpt lat="45.77667" lon="6.63864">
        <ele>1425</ele>
        <time>2022-08-16T11:43:20Z</time>
      </trkpt>
      <trkpt lat="45.77667" lon="6.63864">
        <ele>1425</ele>
        <time>2022-08-16T11:43:21Z</time>
      </trkpt>
      <trkpt lat="45.77667" lon="6.63864">
        <ele>1425</ele>
        <time>2022-08-16T11:43:22Z</time>
      </trkpt>
      <trkpt lat="45.77667" lon="6.63864">
        <ele>1425</ele>
        <time>2022-08-16T11:43:26Z</time>
      </trkpt>
      <trkpt lat="45.77667" lon="6.63864">
        <ele>1426</ele>
        <time>2022-08-16T11:43:28Z</time>
      </trkpt>
      <trkpt lat="45.77668" lon="6.63865">
        <ele>1427</ele>
        <time>2022-08-16T11:43:29Z</time>
      </trkpt>
      <trkpt lat="45.77668" lon="6.63865">
        <ele>1427</ele>
        <time>2022-08-16T11:43:30Z</time>
      </trkpt>
      <trkpt lat="45.77668" lon="6.63865">
        <ele>1427</ele>
        <time>2022-08-16T11:43:31Z</time>
      </trkpt>
      <trkpt lat="45.77668" lon="6.63865">
        <ele>1427</ele>
        <time>2022-08-16T11:43:35Z</time>
      </trkpt>
      <trkpt lat="45.77669" lon="6.63875">
        <ele>1421</ele>
        <time>2022-08-16T11:43:40.032Z</time>
      </trkpt>
      <trkpt lat="45.77672" lon="6.6387">
        <ele>1419</ele>
        <time>2022-08-16T11:43:41Z</time>
      </trkpt>
      <trkpt lat="45.7767" lon="6.63872">
        <ele>1424</ele>
        <time>2022-08-16T11:43:42Z</time>
      </trkpt>
      <trkpt lat="45.7767" lon="6.63872">
        <ele>1426</ele>
        <time>2022-08-16T11:43:43Z</time>
      </trkpt>
      <trkpt lat="45.77668" lon="6.6387">
        <ele>1429</ele>
        <time>2022-08-16T11:43:44Z</time>
      </trkpt>
      <trkpt lat="45.77668" lon="6.6387">
        <ele>1429</ele>
        <time>2022-08-16T11:43:45Z</time>
      </trkpt>
      <trkpt lat="45.77668" lon="6.6387">
        <ele>1429</ele>
        <time>2022-08-16T11:43:49Z</time>
      </trkpt>
      <trkpt lat="45.77669" lon="6.63868">
        <ele>1424</ele>
        <time>2022-08-16T11:43:50Z</time>
      </trkpt>
      <trkpt lat="45.77668" lon="6.63866">
        <ele>1423</ele>
        <time>2022-08-16T11:43:51Z</time>
      </trkpt>
      <trkpt lat="45.77668" lon="6.63866">
        <ele>1423</ele>
        <time>2022-08-16T11:43:52Z</time>
      </trkpt>
      <trkpt lat="45.77668" lon="6.63866">
        <ele>1422</ele>
        <time>2022-08-16T11:43:53Z</time>
      </trkpt>
      <trkpt lat="45.77668" lon="6.63867">
        <ele>1422</ele>
        <time>2022-08-16T11:43:54Z</time>
      </trkpt>
      <trkpt lat="45.77668" lon="6.63865">
        <ele>1422</ele>
        <time>2022-08-16T11:43:56Z</time>
      </trkpt>
      <trkpt lat="45.77668" lon="6.63864">
        <ele>1422</ele>
        <time>2022-08-16T11:43:57Z</time>
      </trkpt>
      <trkpt lat="45.77669" lon="6.63865">
        <ele>1420</ele>
        <time>2022-08-16T11:43:58Z</time>
      </trkpt>
      <trkpt lat="45.77669" lon="6.63865">
        <ele>1420</ele>
        <time>2022-08-16T11:43:59Z</time>
      </trkpt>
      <trkpt lat="45.77669" lon="6.63865">
        <ele>1420</ele>
        <time>2022-08-16T11:44:00Z</time>
      </trkpt>
      <trkpt lat="45.77669" lon="6.63865">
        <ele>1420</ele>
        <time>2022-08-16T11:44:01Z</time>
      </trkpt>
      <trkpt lat="45.77669" lon="6.63865">
        <ele>1419</ele>
        <time>2022-08-16T11:44:02Z</time>
      </trkpt>
      <trkpt lat="45.77668" lon="6.63863">
        <ele>1420</ele>
        <time>2022-08-16T11:44:03Z</time>
      </trkpt>
      <trkpt lat="45.77668" lon="6.6386">
        <ele>1420</ele>
        <time>2022-08-16T11:44:04Z</time>
      </trkpt>
      <trkpt lat="45.77667" lon="6.63857">
        <ele>1421</ele>
        <time>2022-08-16T11:44:05Z</time>
      </trkpt>
      <trkpt lat="45.77667" lon="6.63854">
        <ele>1421</ele>
        <time>2022-08-16T11:44:06Z</time>
      </trkpt>
      <trkpt lat="45.77666" lon="6.6385">
        <ele>1421</ele>
        <time>2022-08-16T11:44:07Z</time>
      </trkpt>
      <trkpt lat="45.77666" lon="6.63845">
        <ele>1421</ele>
        <time>2022-08-16T11:44:08Z</time>
      </trkpt>
      <trkpt lat="45.77666" lon="6.6384">
        <ele>1421</ele>
        <time>2022-08-16T11:44:09Z</time>
      </trkpt>
      <trkpt lat="45.77665" lon="6.63835">
        <ele>1421</ele>
        <time>2022-08-16T11:44:10Z</time>
      </trkpt>
      <trkpt lat="45.77664" lon="6.63829">
        <ele>1421</ele>
        <time>2022-08-16T11:44:11Z</time>
      </trkpt>
      <trkpt lat="45.77664" lon="6.63822">
        <ele>1421</ele>
        <time>2022-08-16T11:44:12Z</time>
      </trkpt>
      <trkpt lat="45.77663" lon="6.63815">
        <ele>1421</ele>
        <time>2022-08-16T11:44:13Z</time>
      </trkpt>
      <trkpt lat="45.77661" lon="6.63808">
        <ele>1421</ele>
        <time>2022-08-16T11:44:14Z</time>
      </trkpt>
      <trkpt lat="45.7766" lon="6.638">
        <ele>1421</ele>
        <time>2022-08-16T11:44:15Z</time>
      </trkpt>
      <trkpt lat="45.77658" lon="6.63792">
        <ele>1421</ele>
        <time>2022-08-16T11:44:16Z</time>
      </trkpt>
      <trkpt lat="45.77657" lon="6.63785">
        <ele>1421</ele>
        <time>2022-08-16T11:44:17Z</time>
      </trkpt>
      <trkpt lat="45.77655" lon="6.63777">
        <ele>1421</ele>
        <time>2022-08-16T11:44:18Z</time>
      </trkpt>
      <trkpt lat="45.77654" lon="6.63768">
        <ele>1420</ele>
        <time>2022-08-16T11:44:19Z</time>
      </trkpt>
      <trkpt lat="45.77653" lon="6.6376">
        <ele>1420</ele>
        <time>2022-08-16T11:44:20Z</time>
      </trkpt>
      <trkpt lat="45.77652" lon="6.63752">
        <ele>1420</ele>
        <time>2022-08-16T11:44:21Z</time>
      </trkpt>
      <trkpt lat="45.77651" lon="6.63744">
        <ele>1420</ele>
        <time>2022-08-16T11:44:22Z</time>
      </trkpt>
      <trkpt lat="45.7765" lon="6.63735">
        <ele>1420</ele>
        <time>2022-08-16T11:44:23Z</time>
      </trkpt>
      <trkpt lat="45.77649" lon="6.63727">
        <ele>1420</ele>
        <time>2022-08-16T11:44:24Z</time>
      </trkpt>
      <trkpt lat="45.77648" lon="6.63719">
        <ele>1419</ele>
        <time>2022-08-16T11:44:25Z</time>
      </trkpt>
      <trkpt lat="45.77646" lon="6.63712">
        <ele>1419</ele>
        <time>2022-08-16T11:44:26Z</time>
      </trkpt>
      <trkpt lat="45.77645" lon="6.63706">
        <ele>1419</ele>
        <time>2022-08-16T11:44:27Z</time>
      </trkpt>
      <trkpt lat="45.77645" lon="6.63702">
        <ele>1419</ele>
        <time>2022-08-16T11:44:28Z</time>
      </trkpt>
      <trkpt lat="45.77644" lon="6.63698">
        <ele>1419</ele>
        <time>2022-08-16T11:44:29Z</time>
      </trkpt>
      <trkpt lat="45.77644" lon="6.63694">
        <ele>1418</ele>
        <time>2022-08-16T11:44:30Z</time>
      </trkpt>
      <trkpt lat="45.77645" lon="6.6369">
        <ele>1418</ele>
        <time>2022-08-16T11:44:31Z</time>
      </trkpt>
      <trkpt lat="45.77645" lon="6.63686">
        <ele>1418</ele>
        <time>2022-08-16T11:44:32Z</time>
      </trkpt>
      <trkpt lat="45.77646" lon="6.63683">
        <ele>1418</ele>
        <time>2022-08-16T11:44:33Z</time>
      </trkpt>
      <trkpt lat="45.77646" lon="6.63681">
        <ele>1418</ele>
        <time>2022-08-16T11:44:34Z</time>
      </trkpt>
      <trkpt lat="45.77646" lon="6.63678">
        <ele>1418</ele>
        <time>2022-08-16T11:44:35Z</time>
      </trkpt>
      <trkpt lat="45.77646" lon="6.63676">
        <ele>1418</ele>
        <time>2022-08-16T11:44:36Z</time>
      </trkpt>
      <trkpt lat="45.77646" lon="6.63677">
        <ele>1419</ele>
        <time>2022-08-16T11:44:37Z</time>
      </trkpt>
      <trkpt lat="45.77646" lon="6.63677">
        <ele>1418</ele>
        <time>2022-08-16T11:44:38Z</time>
      </trkpt>
      <trkpt lat="45.77646" lon="6.63677">
        <ele>1418</ele>
        <time>2022-08-16T11:44:39Z</time>
      </trkpt>
      <trkpt lat="45.77646" lon="6.63678">
        <ele>1418</ele>
        <time>2022-08-16T11:44:40Z</time>
      </trkpt>
      <trkpt lat="45.77646" lon="6.63678">
        <ele>1418</ele>
        <time>2022-08-16T11:44:44Z</time>
      </trkpt>
      <trkpt lat="45.77646" lon="6.63678">
        <ele>1418</ele>
        <time>2022-08-16T11:44:48Z</time>
      </trkpt>
      <trkpt lat="45.77646" lon="6.63678">
        <ele>1418</ele>
        <time>2022-08-16T11:44:52Z</time>
      </trkpt>
      <trkpt lat="45.77646" lon="6.63678">
        <ele>1418</ele>
        <time>2022-08-16T11:44:56Z</time>
      </trkpt>
      <trkpt lat="45.77646" lon="6.63678">
        <ele>1418</ele>
        <time>2022-08-16T11:45:00Z</time>
      </trkpt>
      <trkpt lat="45.77646" lon="6.63678">
        <ele>1418</ele>
        <time>2022-08-16T11:45:04Z</time>
      </trkpt>
      <trkpt lat="45.77646" lon="6.63678">
        <ele>1418</ele>
        <time>2022-08-16T11:45:06Z</time>
      </trkpt>
      <trkpt lat="45.77647" lon="6.63678">
        <ele>1418</ele>
        <time>2022-08-16T11:45:07Z</time>
      </trkpt>
      <trkpt lat="45.77647" lon="6.63676">
        <ele>1418</ele>
        <time>2022-08-16T11:45:08Z</time>
      </trkpt>
      <trkpt lat="45.77648" lon="6.63674">
        <ele>1418</ele>
        <time>2022-08-16T11:45:09Z</time>
      </trkpt>
      <trkpt lat="45.77647" lon="6.63671">
        <ele>1418</ele>
        <time>2022-08-16T11:45:10Z</time>
      </trkpt>
      <trkpt lat="45.77647" lon="6.63668">
        <ele>1418</ele>
        <time>2022-08-16T11:45:11Z</time>
      </trkpt>
      <trkpt lat="45.77647" lon="6.63663">
        <ele>1418</ele>
        <time>2022-08-16T11:45:12Z</time>
      </trkpt>
      <trkpt lat="45.77647" lon="6.63658">
        <ele>1418</ele>
        <time>2022-08-16T11:45:13Z</time>
      </trkpt>
      <trkpt lat="45.77646" lon="6.63653">
        <ele>1418</ele>
        <time>2022-08-16T11:45:14Z</time>
      </trkpt>
      <trkpt lat="45.77645" lon="6.63647">
        <ele>1417</ele>
        <time>2022-08-16T11:45:15Z</time>
      </trkpt>
      <trkpt lat="45.77644" lon="6.63642">
        <ele>1417</ele>
        <time>2022-08-16T11:45:16Z</time>
      </trkpt>
      <trkpt lat="45.77642" lon="6.63636">
        <ele>1417</ele>
        <time>2022-08-16T11:45:17Z</time>
      </trkpt>
      <trkpt lat="45.77641" lon="6.6363">
        <ele>1417</ele>
        <time>2022-08-16T11:45:18Z</time>
      </trkpt>
      <trkpt lat="45.7764" lon="6.63624">
        <ele>1417</ele>
        <time>2022-08-16T11:45:19Z</time>
      </trkpt>
      <trkpt lat="45.77639" lon="6.63618">
        <ele>1417</ele>
        <time>2022-08-16T11:45:20Z</time>
      </trkpt>
      <trkpt lat="45.77637" lon="6.63611">
        <ele>1417</ele>
        <time>2022-08-16T11:45:21Z</time>
      </trkpt>
      <trkpt lat="45.77636" lon="6.63603">
        <ele>1417</ele>
        <time>2022-08-16T11:45:22Z</time>
      </trkpt>
      <trkpt lat="45.77635" lon="6.63595">
        <ele>1417</ele>
        <time>2022-08-16T11:45:23Z</time>
      </trkpt>
      <trkpt lat="45.77634" lon="6.63586">
        <ele>1417</ele>
        <time>2022-08-16T11:45:24Z</time>
      </trkpt>
      <trkpt lat="45.77634" lon="6.63579">
        <ele>1417</ele>
        <time>2022-08-16T11:45:25Z</time>
      </trkpt>
      <trkpt lat="45.77633" lon="6.63571">
        <ele>1417</ele>
        <time>2022-08-16T11:45:26Z</time>
      </trkpt>
      <trkpt lat="45.77632" lon="6.63564">
        <ele>1417</ele>
        <time>2022-08-16T11:45:27Z</time>
      </trkpt>
      <trkpt lat="45.77632" lon="6.63556">
        <ele>1417</ele>
        <time>2022-08-16T11:45:28Z</time>
      </trkpt>
      <trkpt lat="45.77632" lon="6.63548">
        <ele>1417</ele>
        <time>2022-08-16T11:45:29Z</time>
      </trkpt>
      <trkpt lat="45.77632" lon="6.6354">
        <ele>1417</ele>
        <time>2022-08-16T11:45:30Z</time>
      </trkpt>
      <trkpt lat="45.77633" lon="6.63531">
        <ele>1417</ele>
        <time>2022-08-16T11:45:31Z</time>
      </trkpt>
      <trkpt lat="45.77633" lon="6.63522">
        <ele>1416</ele>
        <time>2022-08-16T11:45:32Z</time>
      </trkpt>
      <trkpt lat="45.77634" lon="6.63514">
        <ele>1416</ele>
        <time>2022-08-16T11:45:33Z</time>
      </trkpt>
      <trkpt lat="45.77634" lon="6.63505">
        <ele>1416</ele>
        <time>2022-08-16T11:45:34Z</time>
      </trkpt>
      <trkpt lat="45.77634" lon="6.63497">
        <ele>1416</ele>
        <time>2022-08-16T11:45:35Z</time>
      </trkpt>
      <trkpt lat="45.77634" lon="6.63488">
        <ele>1416</ele>
        <time>2022-08-16T11:45:36Z</time>
      </trkpt>
      <trkpt lat="45.77633" lon="6.63478">
        <ele>1415</ele>
        <time>2022-08-16T11:45:37Z</time>
      </trkpt>
      <trkpt lat="45.77632" lon="6.63469">
        <ele>1415</ele>
        <time>2022-08-16T11:45:38Z</time>
      </trkpt>
      <trkpt lat="45.77632" lon="6.63459">
        <ele>1415</ele>
        <time>2022-08-16T11:45:39Z</time>
      </trkpt>
      <trkpt lat="45.7763" lon="6.63449">
        <ele>1414</ele>
        <time>2022-08-16T11:45:40Z</time>
      </trkpt>
      <trkpt lat="45.77629" lon="6.6344">
        <ele>1414</ele>
        <time>2022-08-16T11:45:41Z</time>
      </trkpt>
      <trkpt lat="45.77627" lon="6.63431">
        <ele>1413</ele>
        <time>2022-08-16T11:45:42Z</time>
      </trkpt>
      <trkpt lat="45.77626" lon="6.63422">
        <ele>1413</ele>
        <time>2022-08-16T11:45:43Z</time>
      </trkpt>
      <trkpt lat="45.77624" lon="6.63413">
        <ele>1413</ele>
        <time>2022-08-16T11:45:44Z</time>
      </trkpt>
      <trkpt lat="45.77622" lon="6.63405">
        <ele>1413</ele>
        <time>2022-08-16T11:45:45Z</time>
      </trkpt>
      <trkpt lat="45.77621" lon="6.63397">
        <ele>1413</ele>
        <time>2022-08-16T11:45:46Z</time>
      </trkpt>
      <trkpt lat="45.77619" lon="6.63388">
        <ele>1412</ele>
        <time>2022-08-16T11:45:47Z</time>
      </trkpt>
      <trkpt lat="45.77618" lon="6.63379">
        <ele>1412</ele>
        <time>2022-08-16T11:45:48Z</time>
      </trkpt>
      <trkpt lat="45.77617" lon="6.63369">
        <ele>1411</ele>
        <time>2022-08-16T11:45:49Z</time>
      </trkpt>
      <trkpt lat="45.77616" lon="6.63359">
        <ele>1411</ele>
        <time>2022-08-16T11:45:50Z</time>
      </trkpt>
      <trkpt lat="45.77616" lon="6.6335">
        <ele>1410</ele>
        <time>2022-08-16T11:45:51Z</time>
      </trkpt>
      <trkpt lat="45.77616" lon="6.6334">
        <ele>1410</ele>
        <time>2022-08-16T11:45:52Z</time>
      </trkpt>
      <trkpt lat="45.77618" lon="6.63332">
        <ele>1409</ele>
        <time>2022-08-16T11:45:53Z</time>
      </trkpt>
      <trkpt lat="45.7762" lon="6.63324">
        <ele>1409</ele>
        <time>2022-08-16T11:45:54Z</time>
      </trkpt>
      <trkpt lat="45.77624" lon="6.63318">
        <ele>1409</ele>
        <time>2022-08-16T11:45:55Z</time>
      </trkpt>
      <trkpt lat="45.77628" lon="6.63314">
        <ele>1408</ele>
        <time>2022-08-16T11:45:56Z</time>
      </trkpt>
      <trkpt lat="45.77631" lon="6.63311">
        <ele>1408</ele>
        <time>2022-08-16T11:45:57Z</time>
      </trkpt>
      <trkpt lat="45.77634" lon="6.63308">
        <ele>1407</ele>
        <time>2022-08-16T11:45:58Z</time>
      </trkpt>
      <trkpt lat="45.77635" lon="6.63303">
        <ele>1407</ele>
        <time>2022-08-16T11:45:59Z</time>
      </trkpt>
      <trkpt lat="45.77636" lon="6.63298">
        <ele>1407</ele>
        <time>2022-08-16T11:46:00Z</time>
      </trkpt>
      <trkpt lat="45.77636" lon="6.63293">
        <ele>1406</ele>
        <time>2022-08-16T11:46:01Z</time>
      </trkpt>
      <trkpt lat="45.77636" lon="6.63288">
        <ele>1406</ele>
        <time>2022-08-16T11:46:02Z</time>
      </trkpt>
      <trkpt lat="45.77635" lon="6.63284">
        <ele>1406</ele>
        <time>2022-08-16T11:46:03Z</time>
      </trkpt>
      <trkpt lat="45.77632" lon="6.63283">
        <ele>1407</ele>
        <time>2022-08-16T11:46:04Z</time>
      </trkpt>
      <trkpt lat="45.77628" lon="6.63283">
        <ele>1407</ele>
        <time>2022-08-16T11:46:05Z</time>
      </trkpt>
      <trkpt lat="45.77624" lon="6.63283">
        <ele>1407</ele>
        <time>2022-08-16T11:46:06Z</time>
      </trkpt>
      <trkpt lat="45.7762" lon="6.63282">
        <ele>1406</ele>
        <time>2022-08-16T11:46:07Z</time>
      </trkpt>
      <trkpt lat="45.77615" lon="6.63279">
        <ele>1406</ele>
        <time>2022-08-16T11:46:08Z</time>
      </trkpt>
      <trkpt lat="45.77611" lon="6.63275">
        <ele>1406</ele>
        <time>2022-08-16T11:46:09Z</time>
      </trkpt>
      <trkpt lat="45.77607" lon="6.6327">
        <ele>1406</ele>
        <time>2022-08-16T11:46:10Z</time>
      </trkpt>
      <trkpt lat="45.77602" lon="6.63263">
        <ele>1405</ele>
        <time>2022-08-16T11:46:11Z</time>
      </trkpt>
      <trkpt lat="45.77597" lon="6.63255">
        <ele>1405</ele>
        <time>2022-08-16T11:46:12Z</time>
      </trkpt>
      <trkpt lat="45.77593" lon="6.63245">
        <ele>1405</ele>
        <time>2022-08-16T11:46:13Z</time>
      </trkpt>
      <trkpt lat="45.7759" lon="6.63234">
        <ele>1405</ele>
        <time>2022-08-16T11:46:14Z</time>
      </trkpt>
      <trkpt lat="45.77586" lon="6.63223">
        <ele>1404</ele>
        <time>2022-08-16T11:46:15Z</time>
      </trkpt>
      <trkpt lat="45.77583" lon="6.63212">
        <ele>1404</ele>
        <time>2022-08-16T11:46:16Z</time>
      </trkpt>
      <trkpt lat="45.7758" lon="6.63203">
        <ele>1403</ele>
        <time>2022-08-16T11:46:17Z</time>
      </trkpt>
      <trkpt lat="45.77576" lon="6.63192">
        <ele>1403</ele>
        <time>2022-08-16T11:46:18Z</time>
      </trkpt>
      <trkpt lat="45.77572" lon="6.63182">
        <ele>1402</ele>
        <time>2022-08-16T11:46:19Z</time>
      </trkpt>
      <trkpt lat="45.77569" lon="6.63171">
        <ele>1401</ele>
        <time>2022-08-16T11:46:20Z</time>
      </trkpt>
      <trkpt lat="45.77567" lon="6.6316">
        <ele>1401</ele>
        <time>2022-08-16T11:46:21Z</time>
      </trkpt>
      <trkpt lat="45.77565" lon="6.63149">
        <ele>1400</ele>
        <time>2022-08-16T11:46:22Z</time>
      </trkpt>
      <trkpt lat="45.77562" lon="6.63137">
        <ele>1400</ele>
        <time>2022-08-16T11:46:23Z</time>
      </trkpt>
      <trkpt lat="45.7756" lon="6.63125">
        <ele>1400</ele>
        <time>2022-08-16T11:46:24Z</time>
      </trkpt>
      <trkpt lat="45.77558" lon="6.63114">
        <ele>1399</ele>
        <time>2022-08-16T11:46:25Z</time>
      </trkpt>
      <trkpt lat="45.77556" lon="6.63104">
        <ele>1398</ele>
        <time>2022-08-16T11:46:26Z</time>
      </trkpt>
      <trkpt lat="45.77553" lon="6.63095">
        <ele>1398</ele>
        <time>2022-08-16T11:46:27Z</time>
      </trkpt>
      <trkpt lat="45.7755" lon="6.63085">
        <ele>1397</ele>
        <time>2022-08-16T11:46:28Z</time>
      </trkpt>
      <trkpt lat="45.77546" lon="6.63075">
        <ele>1398</ele>
        <time>2022-08-16T11:46:29Z</time>
      </trkpt>
      <trkpt lat="45.77543" lon="6.63065">
        <ele>1397</ele>
        <time>2022-08-16T11:46:30Z</time>
      </trkpt>
      <trkpt lat="45.77539" lon="6.63056">
        <ele>1397</ele>
        <time>2022-08-16T11:46:31Z</time>
      </trkpt>
      <trkpt lat="45.77537" lon="6.63046">
        <ele>1397</ele>
        <time>2022-08-16T11:46:32Z</time>
      </trkpt>
      <trkpt lat="45.77534" lon="6.63037">
        <ele>1396</ele>
        <time>2022-08-16T11:46:33Z</time>
      </trkpt>
      <trkpt lat="45.77531" lon="6.6303">
        <ele>1396</ele>
        <time>2022-08-16T11:46:34Z</time>
      </trkpt>
      <trkpt lat="45.77528" lon="6.63024">
        <ele>1395</ele>
        <time>2022-08-16T11:46:35Z</time>
      </trkpt>
      <trkpt lat="45.77525" lon="6.63018">
        <ele>1395</ele>
        <time>2022-08-16T11:46:36Z</time>
      </trkpt>
      <trkpt lat="45.77522" lon="6.63014">
        <ele>1394</ele>
        <time>2022-08-16T11:46:37Z</time>
      </trkpt>
      <trkpt lat="45.7752" lon="6.6301">
        <ele>1393</ele>
        <time>2022-08-16T11:46:38Z</time>
      </trkpt>
      <trkpt lat="45.77518" lon="6.63007">
        <ele>1393</ele>
        <time>2022-08-16T11:46:39Z</time>
      </trkpt>
      <trkpt lat="45.77515" lon="6.63005">
        <ele>1393</ele>
        <time>2022-08-16T11:46:40Z</time>
      </trkpt>
      <trkpt lat="45.77512" lon="6.63007">
        <ele>1392</ele>
        <time>2022-08-16T11:46:41Z</time>
      </trkpt>
      <trkpt lat="45.7751" lon="6.63011">
        <ele>1392</ele>
        <time>2022-08-16T11:46:42Z</time>
      </trkpt>
      <trkpt lat="45.7751" lon="6.63018">
        <ele>1392</ele>
        <time>2022-08-16T11:46:43Z</time>
      </trkpt>
      <trkpt lat="45.77512" lon="6.63023">
        <ele>1391</ele>
        <time>2022-08-16T11:46:44Z</time>
      </trkpt>
      <trkpt lat="45.77515" lon="6.6303">
        <ele>1390</ele>
        <time>2022-08-16T11:46:45Z</time>
      </trkpt>
      <trkpt lat="45.77518" lon="6.63037">
        <ele>1389</ele>
        <time>2022-08-16T11:46:46Z</time>
      </trkpt>
      <trkpt lat="45.77521" lon="6.63043">
        <ele>1388</ele>
        <time>2022-08-16T11:46:47Z</time>
      </trkpt>
      <trkpt lat="45.77522" lon="6.6305">
        <ele>1387</ele>
        <time>2022-08-16T11:46:48Z</time>
      </trkpt>
      <trkpt lat="45.77523" lon="6.63059">
        <ele>1386</ele>
        <time>2022-08-16T11:46:49Z</time>
      </trkpt>
      <trkpt lat="45.77523" lon="6.63068">
        <ele>1386</ele>
        <time>2022-08-16T11:46:50Z</time>
      </trkpt>
      <trkpt lat="45.77524" lon="6.63078">
        <ele>1385</ele>
        <time>2022-08-16T11:46:51Z</time>
      </trkpt>
      <trkpt lat="45.77524" lon="6.63089">
        <ele>1384</ele>
        <time>2022-08-16T11:46:52Z</time>
      </trkpt>
      <trkpt lat="45.77525" lon="6.631">
        <ele>1384</ele>
        <time>2022-08-16T11:46:53Z</time>
      </trkpt>
      <trkpt lat="45.77526" lon="6.63111">
        <ele>1383</ele>
        <time>2022-08-16T11:46:54Z</time>
      </trkpt>
      <trkpt lat="45.77526" lon="6.63122">
        <ele>1383</ele>
        <time>2022-08-16T11:46:55Z</time>
      </trkpt>
      <trkpt lat="45.77527" lon="6.63134">
        <ele>1382</ele>
        <time>2022-08-16T11:46:56Z</time>
      </trkpt>
      <trkpt lat="45.77527" lon="6.63146">
        <ele>1382</ele>
        <time>2022-08-16T11:46:57Z</time>
      </trkpt>
      <trkpt lat="45.77527" lon="6.63158">
        <ele>1382</ele>
        <time>2022-08-16T11:46:58Z</time>
      </trkpt>
      <trkpt lat="45.77528" lon="6.63169">
        <ele>1381</ele>
        <time>2022-08-16T11:46:59Z</time>
      </trkpt>
      <trkpt lat="45.77528" lon="6.6318">
        <ele>1380</ele>
        <time>2022-08-16T11:47:00Z</time>
      </trkpt>
      <trkpt lat="45.77529" lon="6.6319">
        <ele>1379</ele>
        <time>2022-08-16T11:47:01Z</time>
      </trkpt>
      <trkpt lat="45.77529" lon="6.632">
        <ele>1379</ele>
        <time>2022-08-16T11:47:02Z</time>
      </trkpt>
      <trkpt lat="45.7753" lon="6.6321">
        <ele>1379</ele>
        <time>2022-08-16T11:47:03Z</time>
      </trkpt>
      <trkpt lat="45.77532" lon="6.6322">
        <ele>1378</ele>
        <time>2022-08-16T11:47:04Z</time>
      </trkpt>
      <trkpt lat="45.77534" lon="6.6323">
        <ele>1378</ele>
        <time>2022-08-16T11:47:05Z</time>
      </trkpt>
      <trkpt lat="45.77536" lon="6.63239">
        <ele>1377</ele>
        <time>2022-08-16T11:47:06Z</time>
      </trkpt>
      <trkpt lat="45.77538" lon="6.63249">
        <ele>1376</ele>
        <time>2022-08-16T11:47:07Z</time>
      </trkpt>
      <trkpt lat="45.77541" lon="6.63257">
        <ele>1376</ele>
        <time>2022-08-16T11:47:08Z</time>
      </trkpt>
      <trkpt lat="45.77543" lon="6.63263">
        <ele>1376</ele>
        <time>2022-08-16T11:47:09Z</time>
      </trkpt>
      <trkpt lat="45.77544" lon="6.63267">
        <ele>1376</ele>
        <time>2022-08-16T11:47:10Z</time>
      </trkpt>
      <trkpt lat="45.77543" lon="6.6327">
        <ele>1376</ele>
        <time>2022-08-16T11:47:11Z</time>
      </trkpt>
      <trkpt lat="45.7754" lon="6.63271">
        <ele>1375</ele>
        <time>2022-08-16T11:47:12Z</time>
      </trkpt>
      <trkpt lat="45.77538" lon="6.63269">
        <ele>1375</ele>
        <time>2022-08-16T11:47:13Z</time>
      </trkpt>
      <trkpt lat="45.77537" lon="6.63264">
        <ele>1375</ele>
        <time>2022-08-16T11:47:14Z</time>
      </trkpt>
      <trkpt lat="45.77536" lon="6.63259">
        <ele>1374</ele>
        <time>2022-08-16T11:47:15Z</time>
      </trkpt>
      <trkpt lat="45.77534" lon="6.63252">
        <ele>1375</ele>
        <time>2022-08-16T11:47:16Z</time>
      </trkpt>
      <trkpt lat="45.77533" lon="6.63245">
        <ele>1374</ele>
        <time>2022-08-16T11:47:17Z</time>
      </trkpt>
      <trkpt lat="45.77531" lon="6.63238">
        <ele>1374</ele>
        <time>2022-08-16T11:47:18Z</time>
      </trkpt>
      <trkpt lat="45.77528" lon="6.6323">
        <ele>1374</ele>
        <time>2022-08-16T11:47:19Z</time>
      </trkpt>
      <trkpt lat="45.77524" lon="6.63222">
        <ele>1374</ele>
        <time>2022-08-16T11:47:20Z</time>
      </trkpt>
      <trkpt lat="45.77521" lon="6.63214">
        <ele>1373</ele>
        <time>2022-08-16T11:47:21Z</time>
      </trkpt>
      <trkpt lat="45.77518" lon="6.63204">
        <ele>1373</ele>
        <time>2022-08-16T11:47:22Z</time>
      </trkpt>
      <trkpt lat="45.77514" lon="6.63194">
        <ele>1372</ele>
        <time>2022-08-16T11:47:23Z</time>
      </trkpt>
      <trkpt lat="45.77512" lon="6.63184">
        <ele>1371</ele>
        <time>2022-08-16T11:47:24Z</time>
      </trkpt>
      <trkpt lat="45.77509" lon="6.63174">
        <ele>1370</ele>
        <time>2022-08-16T11:47:25Z</time>
      </trkpt>
      <trkpt lat="45.77506" lon="6.63164">
        <ele>1369</ele>
        <time>2022-08-16T11:47:26Z</time>
      </trkpt>
      <trkpt lat="45.77503" lon="6.63156">
        <ele>1368</ele>
        <time>2022-08-16T11:47:27Z</time>
      </trkpt>
      <trkpt lat="45.77498" lon="6.63151">
        <ele>1367</ele>
        <time>2022-08-16T11:47:28Z</time>
      </trkpt>
      <trkpt lat="45.77493" lon="6.63147">
        <ele>1367</ele>
        <time>2022-08-16T11:47:29Z</time>
      </trkpt>
      <trkpt lat="45.77487" lon="6.63141">
        <ele>1367</ele>
        <time>2022-08-16T11:47:30Z</time>
      </trkpt>
      <trkpt lat="45.77482" lon="6.63134">
        <ele>1367</ele>
        <time>2022-08-16T11:47:31Z</time>
      </trkpt>
      <trkpt lat="45.77477" lon="6.63126">
        <ele>1367</ele>
        <time>2022-08-16T11:47:32Z</time>
      </trkpt>
      <trkpt lat="45.77473" lon="6.63119">
        <ele>1366</ele>
        <time>2022-08-16T11:47:33Z</time>
      </trkpt>
      <trkpt lat="45.77468" lon="6.6311">
        <ele>1365</ele>
        <time>2022-08-16T11:47:34Z</time>
      </trkpt>
      <trkpt lat="45.77464" lon="6.631">
        <ele>1364</ele>
        <time>2022-08-16T11:47:35Z</time>
      </trkpt>
      <trkpt lat="45.77459" lon="6.63091">
        <ele>1362</ele>
        <time>2022-08-16T11:47:36Z</time>
      </trkpt>
      <trkpt lat="45.77455" lon="6.63081">
        <ele>1360</ele>
        <time>2022-08-16T11:47:37Z</time>
      </trkpt>
      <trkpt lat="45.7745" lon="6.63071">
        <ele>1359</ele>
        <time>2022-08-16T11:47:38Z</time>
      </trkpt>
      <trkpt lat="45.77445" lon="6.6306">
        <ele>1357</ele>
        <time>2022-08-16T11:47:39Z</time>
      </trkpt>
      <trkpt lat="45.77441" lon="6.63048">
        <ele>1356</ele>
        <time>2022-08-16T11:47:40Z</time>
      </trkpt>
      <trkpt lat="45.77436" lon="6.63036">
        <ele>1355</ele>
        <time>2022-08-16T11:47:41Z</time>
      </trkpt>
      <trkpt lat="45.77431" lon="6.63024">
        <ele>1353</ele>
        <time>2022-08-16T11:47:42Z</time>
      </trkpt>
      <trkpt lat="45.77426" lon="6.63012">
        <ele>1353</ele>
        <time>2022-08-16T11:47:43Z</time>
      </trkpt>
      <trkpt lat="45.77422" lon="6.63001">
        <ele>1351</ele>
        <time>2022-08-16T11:47:44Z</time>
      </trkpt>
      <trkpt lat="45.77418" lon="6.6299">
        <ele>1350</ele>
        <time>2022-08-16T11:47:45Z</time>
      </trkpt>
      <trkpt lat="45.77415" lon="6.6298">
        <ele>1349</ele>
        <time>2022-08-16T11:47:46Z</time>
      </trkpt>
      <trkpt lat="45.77412" lon="6.6297">
        <ele>1348</ele>
        <time>2022-08-16T11:47:47Z</time>
      </trkpt>
      <trkpt lat="45.77411" lon="6.6296">
        <ele>1347</ele>
        <time>2022-08-16T11:47:48Z</time>
      </trkpt>
      <trkpt lat="45.77411" lon="6.6295">
        <ele>1346</ele>
        <time>2022-08-16T11:47:49Z</time>
      </trkpt>
      <trkpt lat="45.77411" lon="6.6294">
        <ele>1345</ele>
        <time>2022-08-16T11:47:50Z</time>
      </trkpt>
      <trkpt lat="45.7741" lon="6.6293">
        <ele>1344</ele>
        <time>2022-08-16T11:47:51Z</time>
      </trkpt>
      <trkpt lat="45.77409" lon="6.6292">
        <ele>1344</ele>
        <time>2022-08-16T11:47:52Z</time>
      </trkpt>
      <trkpt lat="45.77406" lon="6.62909">
        <ele>1343</ele>
        <time>2022-08-16T11:47:53Z</time>
      </trkpt>
      <trkpt lat="45.77401" lon="6.62899">
        <ele>1343</ele>
        <time>2022-08-16T11:47:54Z</time>
      </trkpt>
      <trkpt lat="45.77395" lon="6.62888">
        <ele>1342</ele>
        <time>2022-08-16T11:47:55Z</time>
      </trkpt>
      <trkpt lat="45.77389" lon="6.62878">
        <ele>1340</ele>
        <time>2022-08-16T11:47:56Z</time>
      </trkpt>
      <trkpt lat="45.77384" lon="6.62868">
        <ele>1339</ele>
        <time>2022-08-16T11:47:57Z</time>
      </trkpt>
      <trkpt lat="45.7738" lon="6.62857">
        <ele>1337</ele>
        <time>2022-08-16T11:47:58Z</time>
      </trkpt>
      <trkpt lat="45.77377" lon="6.62848">
        <ele>1336</ele>
        <time>2022-08-16T11:47:59Z</time>
      </trkpt>
      <trkpt lat="45.77376" lon="6.62837">
        <ele>1335</ele>
        <time>2022-08-16T11:48:00Z</time>
      </trkpt>
      <trkpt lat="45.77376" lon="6.62825">
        <ele>1334</ele>
        <time>2022-08-16T11:48:01Z</time>
      </trkpt>
      <trkpt lat="45.77376" lon="6.62813">
        <ele>1334</ele>
        <time>2022-08-16T11:48:02Z</time>
      </trkpt>
      <trkpt lat="45.77376" lon="6.628">
        <ele>1332</ele>
        <time>2022-08-16T11:48:03Z</time>
      </trkpt>
      <trkpt lat="45.77376" lon="6.62787">
        <ele>1331</ele>
        <time>2022-08-16T11:48:04Z</time>
      </trkpt>
      <trkpt lat="45.77376" lon="6.62775">
        <ele>1330</ele>
        <time>2022-08-16T11:48:05Z</time>
      </trkpt>
      <trkpt lat="45.77375" lon="6.62766">
        <ele>1329</ele>
        <time>2022-08-16T11:48:06Z</time>
      </trkpt>
      <trkpt lat="45.77374" lon="6.62757">
        <ele>1328</ele>
        <time>2022-08-16T11:48:07Z</time>
      </trkpt>
      <trkpt lat="45.77373" lon="6.62749">
        <ele>1327</ele>
        <time>2022-08-16T11:48:08Z</time>
      </trkpt>
      <trkpt lat="45.77373" lon="6.62741">
        <ele>1326</ele>
        <time>2022-08-16T11:48:09Z</time>
      </trkpt>
      <trkpt lat="45.77372" lon="6.62731">
        <ele>1325</ele>
        <time>2022-08-16T11:48:10Z</time>
      </trkpt>
      <trkpt lat="45.77371" lon="6.62723">
        <ele>1325</ele>
        <time>2022-08-16T11:48:11Z</time>
      </trkpt>
      <trkpt lat="45.77369" lon="6.62715">
        <ele>1325</ele>
        <time>2022-08-16T11:48:12Z</time>
      </trkpt>
      <trkpt lat="45.77367" lon="6.62706">
        <ele>1324</ele>
        <time>2022-08-16T11:48:13Z</time>
      </trkpt>
      <trkpt lat="45.77365" lon="6.62697">
        <ele>1323</ele>
        <time>2022-08-16T11:48:14Z</time>
      </trkpt>
      <trkpt lat="45.77364" lon="6.62688">
        <ele>1323</ele>
        <time>2022-08-16T11:48:15Z</time>
      </trkpt>
      <trkpt lat="45.77364" lon="6.62678">
        <ele>1323</ele>
        <time>2022-08-16T11:48:16Z</time>
      </trkpt>
      <trkpt lat="45.77363" lon="6.62668">
        <ele>1322</ele>
        <time>2022-08-16T11:48:17Z</time>
      </trkpt>
      <trkpt lat="45.77362" lon="6.62659">
        <ele>1321</ele>
        <time>2022-08-16T11:48:18Z</time>
      </trkpt>
      <trkpt lat="45.77361" lon="6.6265">
        <ele>1321</ele>
        <time>2022-08-16T11:48:19Z</time>
      </trkpt>
      <trkpt lat="45.77359" lon="6.62641">
        <ele>1320</ele>
        <time>2022-08-16T11:48:20Z</time>
      </trkpt>
      <trkpt lat="45.77355" lon="6.62632">
        <ele>1320</ele>
        <time>2022-08-16T11:48:21Z</time>
      </trkpt>
      <trkpt lat="45.77352" lon="6.62624">
        <ele>1319</ele>
        <time>2022-08-16T11:48:22Z</time>
      </trkpt>
      <trkpt lat="45.77348" lon="6.62615">
        <ele>1318</ele>
        <time>2022-08-16T11:48:23Z</time>
      </trkpt>
      <trkpt lat="45.77346" lon="6.62606">
        <ele>1317</ele>
        <time>2022-08-16T11:48:24Z</time>
      </trkpt>
      <trkpt lat="45.77344" lon="6.62598">
        <ele>1316</ele>
        <time>2022-08-16T11:48:25Z</time>
      </trkpt>
      <trkpt lat="45.77342" lon="6.62588">
        <ele>1315</ele>
        <time>2022-08-16T11:48:26Z</time>
      </trkpt>
      <trkpt lat="45.7734" lon="6.62577">
        <ele>1315</ele>
        <time>2022-08-16T11:48:27Z</time>
      </trkpt>
      <trkpt lat="45.77339" lon="6.62566">
        <ele>1314</ele>
        <time>2022-08-16T11:48:28Z</time>
      </trkpt>
      <trkpt lat="45.77339" lon="6.62555">
        <ele>1313</ele>
        <time>2022-08-16T11:48:29Z</time>
      </trkpt>
      <trkpt lat="45.77338" lon="6.62544">
        <ele>1312</ele>
        <time>2022-08-16T11:48:30Z</time>
      </trkpt>
      <trkpt lat="45.77338" lon="6.62533">
        <ele>1311</ele>
        <time>2022-08-16T11:48:31Z</time>
      </trkpt>
      <trkpt lat="45.77337" lon="6.62523">
        <ele>1310</ele>
        <time>2022-08-16T11:48:32Z</time>
      </trkpt>
      <trkpt lat="45.77335" lon="6.62513">
        <ele>1309</ele>
        <time>2022-08-16T11:48:33Z</time>
      </trkpt>
      <trkpt lat="45.77334" lon="6.62504">
        <ele>1308</ele>
        <time>2022-08-16T11:48:34Z</time>
      </trkpt>
      <trkpt lat="45.77331" lon="6.62496">
        <ele>1307</ele>
        <time>2022-08-16T11:48:35Z</time>
      </trkpt>
      <trkpt lat="45.77328" lon="6.62489">
        <ele>1307</ele>
        <time>2022-08-16T11:48:36Z</time>
      </trkpt>
      <trkpt lat="45.77323" lon="6.62484">
        <ele>1306</ele>
        <time>2022-08-16T11:48:37Z</time>
      </trkpt>
      <trkpt lat="45.77319" lon="6.6248">
        <ele>1306</ele>
        <time>2022-08-16T11:48:38Z</time>
      </trkpt>
      <trkpt lat="45.77314" lon="6.62476">
        <ele>1305</ele>
        <time>2022-08-16T11:48:39Z</time>
      </trkpt>
      <trkpt lat="45.7731" lon="6.62473">
        <ele>1305</ele>
        <time>2022-08-16T11:48:40Z</time>
      </trkpt>
      <trkpt lat="45.77307" lon="6.62469">
        <ele>1305</ele>
        <time>2022-08-16T11:48:41Z</time>
      </trkpt>
      <trkpt lat="45.77303" lon="6.62465">
        <ele>1304</ele>
        <time>2022-08-16T11:48:42Z</time>
      </trkpt>
      <trkpt lat="45.773" lon="6.6246">
        <ele>1304</ele>
        <time>2022-08-16T11:48:43Z</time>
      </trkpt>
      <trkpt lat="45.77297" lon="6.62455">
        <ele>1303</ele>
        <time>2022-08-16T11:48:44Z</time>
      </trkpt>
      <trkpt lat="45.77295" lon="6.6245">
        <ele>1303</ele>
        <time>2022-08-16T11:48:45Z</time>
      </trkpt>
      <trkpt lat="45.77294" lon="6.62447">
        <ele>1303</ele>
        <time>2022-08-16T11:48:46Z</time>
      </trkpt>
      <trkpt lat="45.77292" lon="6.62443">
        <ele>1302</ele>
        <time>2022-08-16T11:48:47Z</time>
      </trkpt>
      <trkpt lat="45.77291" lon="6.62439">
        <ele>1302</ele>
        <time>2022-08-16T11:48:48Z</time>
      </trkpt>
      <trkpt lat="45.7729" lon="6.62435">
        <ele>1302</ele>
        <time>2022-08-16T11:48:49Z</time>
      </trkpt>
      <trkpt lat="45.77289" lon="6.6243">
        <ele>1301</ele>
        <time>2022-08-16T11:48:50Z</time>
      </trkpt>
      <trkpt lat="45.77287" lon="6.62426">
        <ele>1301</ele>
        <time>2022-08-16T11:48:51Z</time>
      </trkpt>
      <trkpt lat="45.77285" lon="6.62421">
        <ele>1300</ele>
        <time>2022-08-16T11:48:52Z</time>
      </trkpt>
      <trkpt lat="45.77282" lon="6.62415">
        <ele>1300</ele>
        <time>2022-08-16T11:48:53Z</time>
      </trkpt>
      <trkpt lat="45.7728" lon="6.62409">
        <ele>1300</ele>
        <time>2022-08-16T11:48:54Z</time>
      </trkpt>
      <trkpt lat="45.77278" lon="6.62401">
        <ele>1299</ele>
        <time>2022-08-16T11:48:55Z</time>
      </trkpt>
      <trkpt lat="45.77276" lon="6.62394">
        <ele>1299</ele>
        <time>2022-08-16T11:48:56Z</time>
      </trkpt>
      <trkpt lat="45.77273" lon="6.62387">
        <ele>1298</ele>
        <time>2022-08-16T11:48:57Z</time>
      </trkpt>
      <trkpt lat="45.7727" lon="6.62381">
        <ele>1298</ele>
        <time>2022-08-16T11:48:58Z</time>
      </trkpt>
      <trkpt lat="45.77265" lon="6.62377">
        <ele>1298</ele>
        <time>2022-08-16T11:48:59Z</time>
      </trkpt>
      <trkpt lat="45.77261" lon="6.62372">
        <ele>1298</ele>
        <time>2022-08-16T11:49:00Z</time>
      </trkpt>
      <trkpt lat="45.77257" lon="6.62369">
        <ele>1297</ele>
        <time>2022-08-16T11:49:01Z</time>
      </trkpt>
      <trkpt lat="45.77253" lon="6.62365">
        <ele>1297</ele>
        <time>2022-08-16T11:49:02Z</time>
      </trkpt>
      <trkpt lat="45.77248" lon="6.6236">
        <ele>1296</ele>
        <time>2022-08-16T11:49:03Z</time>
      </trkpt>
      <trkpt lat="45.77244" lon="6.62356">
        <ele>1296</ele>
        <time>2022-08-16T11:49:04Z</time>
      </trkpt>
      <trkpt lat="45.7724" lon="6.6235">
        <ele>1295</ele>
        <time>2022-08-16T11:49:05Z</time>
      </trkpt>
      <trkpt lat="45.77236" lon="6.62343">
        <ele>1295</ele>
        <time>2022-08-16T11:49:06Z</time>
      </trkpt>
      <trkpt lat="45.77232" lon="6.62335">
        <ele>1294</ele>
        <time>2022-08-16T11:49:07Z</time>
      </trkpt>
      <trkpt lat="45.77228" lon="6.62327">
        <ele>1294</ele>
        <time>2022-08-16T11:49:08Z</time>
      </trkpt>
      <trkpt lat="45.77224" lon="6.6232">
        <ele>1293</ele>
        <time>2022-08-16T11:49:09Z</time>
      </trkpt>
      <trkpt lat="45.7722" lon="6.62313">
        <ele>1292</ele>
        <time>2022-08-16T11:49:10Z</time>
      </trkpt>
      <trkpt lat="45.77217" lon="6.62307">
        <ele>1292</ele>
        <time>2022-08-16T11:49:11Z</time>
      </trkpt>
      <trkpt lat="45.77213" lon="6.62304">
        <ele>1292</ele>
        <time>2022-08-16T11:49:12Z</time>
      </trkpt>
      <trkpt lat="45.77207" lon="6.62305">
        <ele>1292</ele>
        <time>2022-08-16T11:49:13Z</time>
      </trkpt>
      <trkpt lat="45.77203" lon="6.62309">
        <ele>1291</ele>
        <time>2022-08-16T11:49:14Z</time>
      </trkpt>
      <trkpt lat="45.772" lon="6.62316">
        <ele>1290</ele>
        <time>2022-08-16T11:49:15Z</time>
      </trkpt>
      <trkpt lat="45.77198" lon="6.62323">
        <ele>1289</ele>
        <time>2022-08-16T11:49:16Z</time>
      </trkpt>
      <trkpt lat="45.77197" lon="6.62331">
        <ele>1289</ele>
        <time>2022-08-16T11:49:17Z</time>
      </trkpt>
      <trkpt lat="45.77196" lon="6.62339">
        <ele>1288</ele>
        <time>2022-08-16T11:49:18Z</time>
      </trkpt>
      <trkpt lat="45.77196" lon="6.62346">
        <ele>1288</ele>
        <time>2022-08-16T11:49:19Z</time>
      </trkpt>
      <trkpt lat="45.77198" lon="6.62354">
        <ele>1287</ele>
        <time>2022-08-16T11:49:20Z</time>
      </trkpt>
      <trkpt lat="45.772" lon="6.6236">
        <ele>1287</ele>
        <time>2022-08-16T11:49:21Z</time>
      </trkpt>
      <trkpt lat="45.77202" lon="6.62364">
        <ele>1286</ele>
        <time>2022-08-16T11:49:22Z</time>
      </trkpt>
      <trkpt lat="45.77203" lon="6.62368">
        <ele>1286</ele>
        <time>2022-08-16T11:49:23Z</time>
      </trkpt>
      <trkpt lat="45.77204" lon="6.62372">
        <ele>1285</ele>
        <time>2022-08-16T11:49:24Z</time>
      </trkpt>
      <trkpt lat="45.77203" lon="6.62378">
        <ele>1285</ele>
        <time>2022-08-16T11:49:25Z</time>
      </trkpt>
      <trkpt lat="45.77201" lon="6.62382">
        <ele>1285</ele>
        <time>2022-08-16T11:49:26Z</time>
      </trkpt>
      <trkpt lat="45.77198" lon="6.62385">
        <ele>1284</ele>
        <time>2022-08-16T11:49:27Z</time>
      </trkpt>
      <trkpt lat="45.77193" lon="6.62386">
        <ele>1284</ele>
        <time>2022-08-16T11:49:28Z</time>
      </trkpt>
      <trkpt lat="45.77188" lon="6.62383">
        <ele>1283</ele>
        <time>2022-08-16T11:49:29Z</time>
      </trkpt>
      <trkpt lat="45.77183" lon="6.62376">
        <ele>1283</ele>
        <time>2022-08-16T11:49:30Z</time>
      </trkpt>
      <trkpt lat="45.77178" lon="6.6237">
        <ele>1282</ele>
        <time>2022-08-16T11:49:31Z</time>
      </trkpt>
      <trkpt lat="45.77173" lon="6.62364">
        <ele>1280</ele>
        <time>2022-08-16T11:49:32Z</time>
      </trkpt>
      <trkpt lat="45.77168" lon="6.62356">
        <ele>1280</ele>
        <time>2022-08-16T11:49:33Z</time>
      </trkpt>
      <trkpt lat="45.77162" lon="6.62349">
        <ele>1279</ele>
        <time>2022-08-16T11:49:34Z</time>
      </trkpt>
      <trkpt lat="45.77157" lon="6.62342">
        <ele>1278</ele>
        <time>2022-08-16T11:49:35Z</time>
      </trkpt>
      <trkpt lat="45.77152" lon="6.62334">
        <ele>1277</ele>
        <time>2022-08-16T11:49:36Z</time>
      </trkpt>
      <trkpt lat="45.77146" lon="6.62325">
        <ele>1276</ele>
        <time>2022-08-16T11:49:37Z</time>
      </trkpt>
      <trkpt lat="45.7714" lon="6.62317">
        <ele>1275</ele>
        <time>2022-08-16T11:49:38Z</time>
      </trkpt>
      <trkpt lat="45.77133" lon="6.62309">
        <ele>1274</ele>
        <time>2022-08-16T11:49:39Z</time>
      </trkpt>
      <trkpt lat="45.77127" lon="6.62301">
        <ele>1273</ele>
        <time>2022-08-16T11:49:40Z</time>
      </trkpt>
      <trkpt lat="45.77121" lon="6.62292">
        <ele>1273</ele>
        <time>2022-08-16T11:49:41Z</time>
      </trkpt>
      <trkpt lat="45.77116" lon="6.62282">
        <ele>1272</ele>
        <time>2022-08-16T11:49:42Z</time>
      </trkpt>
      <trkpt lat="45.7711" lon="6.62273">
        <ele>1271</ele>
        <time>2022-08-16T11:49:43Z</time>
      </trkpt>
      <trkpt lat="45.77105" lon="6.62263">
        <ele>1270</ele>
        <time>2022-08-16T11:49:44Z</time>
      </trkpt>
      <trkpt lat="45.77101" lon="6.62252">
        <ele>1270</ele>
        <time>2022-08-16T11:49:45Z</time>
      </trkpt>
      <trkpt lat="45.77096" lon="6.62242">
        <ele>1269</ele>
        <time>2022-08-16T11:49:46Z</time>
      </trkpt>
      <trkpt lat="45.77091" lon="6.62231">
        <ele>1267</ele>
        <time>2022-08-16T11:49:47Z</time>
      </trkpt>
      <trkpt lat="45.77085" lon="6.62221">
        <ele>1266</ele>
        <time>2022-08-16T11:49:48Z</time>
      </trkpt>
      <trkpt lat="45.77077" lon="6.62212">
        <ele>1265</ele>
        <time>2022-08-16T11:49:49Z</time>
      </trkpt>
      <trkpt lat="45.77069" lon="6.62205">
        <ele>1265</ele>
        <time>2022-08-16T11:49:50Z</time>
      </trkpt>
      <trkpt lat="45.77059" lon="6.62199">
        <ele>1264</ele>
        <time>2022-08-16T11:49:51Z</time>
      </trkpt>
      <trkpt lat="45.7705" lon="6.62192">
        <ele>1263</ele>
        <time>2022-08-16T11:49:52Z</time>
      </trkpt>
      <trkpt lat="45.77041" lon="6.62186">
        <ele>1262</ele>
        <time>2022-08-16T11:49:53Z</time>
      </trkpt>
      <trkpt lat="45.77033" lon="6.62179">
        <ele>1261</ele>
        <time>2022-08-16T11:49:54Z</time>
      </trkpt>
      <trkpt lat="45.77026" lon="6.62172">
        <ele>1259</ele>
        <time>2022-08-16T11:49:55Z</time>
      </trkpt>
      <trkpt lat="45.7702" lon="6.62163">
        <ele>1259</ele>
        <time>2022-08-16T11:49:56Z</time>
      </trkpt>
      <trkpt lat="45.77014" lon="6.62154">
        <ele>1258</ele>
        <time>2022-08-16T11:49:57Z</time>
      </trkpt>
      <trkpt lat="45.77009" lon="6.62143">
        <ele>1257</ele>
        <time>2022-08-16T11:49:58Z</time>
      </trkpt>
      <trkpt lat="45.77006" lon="6.62131">
        <ele>1256</ele>
        <time>2022-08-16T11:49:59Z</time>
      </trkpt>
      <trkpt lat="45.77003" lon="6.62121">
        <ele>1256</ele>
        <time>2022-08-16T11:50:00Z</time>
      </trkpt>
      <trkpt lat="45.77" lon="6.62111">
        <ele>1255</ele>
        <time>2022-08-16T11:50:01Z</time>
      </trkpt>
      <trkpt lat="45.76998" lon="6.62101">
        <ele>1254</ele>
        <time>2022-08-16T11:50:02Z</time>
      </trkpt>
      <trkpt lat="45.76995" lon="6.62092">
        <ele>1253</ele>
        <time>2022-08-16T11:50:03Z</time>
      </trkpt>
      <trkpt lat="45.76992" lon="6.62085">
        <ele>1252</ele>
        <time>2022-08-16T11:50:04Z</time>
      </trkpt>
      <trkpt lat="45.76987" lon="6.62081">
        <ele>1252</ele>
        <time>2022-08-16T11:50:05Z</time>
      </trkpt>
      <trkpt lat="45.76982" lon="6.62082">
        <ele>1252</ele>
        <time>2022-08-16T11:50:06Z</time>
      </trkpt>
      <trkpt lat="45.76976" lon="6.62086">
        <ele>1252</ele>
        <time>2022-08-16T11:50:07Z</time>
      </trkpt>
      <trkpt lat="45.76971" lon="6.62093">
        <ele>1252</ele>
        <time>2022-08-16T11:50:08Z</time>
      </trkpt>
      <trkpt lat="45.76967" lon="6.62101">
        <ele>1251</ele>
        <time>2022-08-16T11:50:09Z</time>
      </trkpt>
      <trkpt lat="45.76963" lon="6.62109">
        <ele>1251</ele>
        <time>2022-08-16T11:50:10Z</time>
      </trkpt>
      <trkpt lat="45.76958" lon="6.62116">
        <ele>1249</ele>
        <time>2022-08-16T11:50:11Z</time>
      </trkpt>
      <trkpt lat="45.76952" lon="6.62122">
        <ele>1248</ele>
        <time>2022-08-16T11:50:12Z</time>
      </trkpt>
      <trkpt lat="45.76945" lon="6.62127">
        <ele>1247</ele>
        <time>2022-08-16T11:50:13Z</time>
      </trkpt>
      <trkpt lat="45.76937" lon="6.62132">
        <ele>1246</ele>
        <time>2022-08-16T11:50:14Z</time>
      </trkpt>
      <trkpt lat="45.76929" lon="6.62136">
        <ele>1245</ele>
        <time>2022-08-16T11:50:15Z</time>
      </trkpt>
      <trkpt lat="45.76921" lon="6.62139">
        <ele>1244</ele>
        <time>2022-08-16T11:50:16Z</time>
      </trkpt>
      <trkpt lat="45.76912" lon="6.6214">
        <ele>1243</ele>
        <time>2022-08-16T11:50:17Z</time>
      </trkpt>
      <trkpt lat="45.76905" lon="6.6214">
        <ele>1243</ele>
        <time>2022-08-16T11:50:18Z</time>
      </trkpt>
      <trkpt lat="45.76897" lon="6.6214">
        <ele>1242</ele>
        <time>2022-08-16T11:50:19Z</time>
      </trkpt>
      <trkpt lat="45.76889" lon="6.6214">
        <ele>1241</ele>
        <time>2022-08-16T11:50:20Z</time>
      </trkpt>
      <trkpt lat="45.76882" lon="6.62139">
        <ele>1240</ele>
        <time>2022-08-16T11:50:21Z</time>
      </trkpt>
      <trkpt lat="45.76876" lon="6.62138">
        <ele>1240</ele>
        <time>2022-08-16T11:50:22Z</time>
      </trkpt>
      <trkpt lat="45.76871" lon="6.62137">
        <ele>1239</ele>
        <time>2022-08-16T11:50:23Z</time>
      </trkpt>
      <trkpt lat="45.76866" lon="6.62137">
        <ele>1238</ele>
        <time>2022-08-16T11:50:24Z</time>
      </trkpt>
      <trkpt lat="45.76861" lon="6.62137">
        <ele>1237</ele>
        <time>2022-08-16T11:50:25Z</time>
      </trkpt>
      <trkpt lat="45.76857" lon="6.62136">
        <ele>1236</ele>
        <time>2022-08-16T11:50:26Z</time>
      </trkpt>
      <trkpt lat="45.76852" lon="6.62133">
        <ele>1236</ele>
        <time>2022-08-16T11:50:27Z</time>
      </trkpt>
      <trkpt lat="45.76848" lon="6.62129">
        <ele>1236</ele>
        <time>2022-08-16T11:50:28Z</time>
      </trkpt>
      <trkpt lat="45.76844" lon="6.62125">
        <ele>1235</ele>
        <time>2022-08-16T11:50:29Z</time>
      </trkpt>
      <trkpt lat="45.7684" lon="6.6212">
        <ele>1235</ele>
        <time>2022-08-16T11:50:30Z</time>
      </trkpt>
      <trkpt lat="45.76836" lon="6.62116">
        <ele>1235</ele>
        <time>2022-08-16T11:50:31Z</time>
      </trkpt>
      <trkpt lat="45.76832" lon="6.62111">
        <ele>1235</ele>
        <time>2022-08-16T11:50:32Z</time>
      </trkpt>
      <trkpt lat="45.76829" lon="6.62106">
        <ele>1234</ele>
        <time>2022-08-16T11:50:33Z</time>
      </trkpt>
      <trkpt lat="45.76825" lon="6.62101">
        <ele>1234</ele>
        <time>2022-08-16T11:50:34Z</time>
      </trkpt>
      <trkpt lat="45.76821" lon="6.62097">
        <ele>1234</ele>
        <time>2022-08-16T11:50:35Z</time>
      </trkpt>
      <trkpt lat="45.76817" lon="6.62092">
        <ele>1234</ele>
        <time>2022-08-16T11:50:36Z</time>
      </trkpt>
      <trkpt lat="45.76814" lon="6.62087">
        <ele>1233</ele>
        <time>2022-08-16T11:50:37Z</time>
      </trkpt>
      <trkpt lat="45.7681" lon="6.62081">
        <ele>1233</ele>
        <time>2022-08-16T11:50:38Z</time>
      </trkpt>
      <trkpt lat="45.76806" lon="6.62076">
        <ele>1233</ele>
        <time>2022-08-16T11:50:39Z</time>
      </trkpt>
      <trkpt lat="45.76803" lon="6.62071">
        <ele>1232</ele>
        <time>2022-08-16T11:50:40Z</time>
      </trkpt>
      <trkpt lat="45.76799" lon="6.62066">
        <ele>1232</ele>
        <time>2022-08-16T11:50:41Z</time>
      </trkpt>
      <trkpt lat="45.76795" lon="6.62062">
        <ele>1232</ele>
        <time>2022-08-16T11:50:42Z</time>
      </trkpt>
      <trkpt lat="45.76791" lon="6.62057">
        <ele>1232</ele>
        <time>2022-08-16T11:50:43Z</time>
      </trkpt>
      <trkpt lat="45.76787" lon="6.62053">
        <ele>1231</ele>
        <time>2022-08-16T11:50:44Z</time>
      </trkpt>
      <trkpt lat="45.76783" lon="6.62049">
        <ele>1231</ele>
        <time>2022-08-16T11:50:45Z</time>
      </trkpt>
      <trkpt lat="45.76778" lon="6.62046">
        <ele>1231</ele>
        <time>2022-08-16T11:50:46Z</time>
      </trkpt>
      <trkpt lat="45.76774" lon="6.62042">
        <ele>1232</ele>
        <time>2022-08-16T11:50:47Z</time>
      </trkpt>
      <trkpt lat="45.76769" lon="6.62039">
        <ele>1232</ele>
        <time>2022-08-16T11:50:48Z</time>
      </trkpt>
      <trkpt lat="45.76765" lon="6.62035">
        <ele>1232</ele>
        <time>2022-08-16T11:50:49Z</time>
      </trkpt>
      <trkpt lat="45.7676" lon="6.62032">
        <ele>1232</ele>
        <time>2022-08-16T11:50:50Z</time>
      </trkpt>
      <trkpt lat="45.76755" lon="6.62029">
        <ele>1232</ele>
        <time>2022-08-16T11:50:51Z</time>
      </trkpt>
      <trkpt lat="45.7675" lon="6.62026">
        <ele>1232</ele>
        <time>2022-08-16T11:50:52Z</time>
      </trkpt>
      <trkpt lat="45.76745" lon="6.62023">
        <ele>1232</ele>
        <time>2022-08-16T11:50:53Z</time>
      </trkpt>
      <trkpt lat="45.76739" lon="6.6202">
        <ele>1232</ele>
        <time>2022-08-16T11:50:54Z</time>
      </trkpt>
      <trkpt lat="45.76734" lon="6.62018">
        <ele>1232</ele>
        <time>2022-08-16T11:50:55Z</time>
      </trkpt>
      <trkpt lat="45.76729" lon="6.62015">
        <ele>1233</ele>
        <time>2022-08-16T11:50:56Z</time>
      </trkpt>
      <trkpt lat="45.76724" lon="6.62012">
        <ele>1233</ele>
        <time>2022-08-16T11:50:57Z</time>
      </trkpt>
      <trkpt lat="45.76719" lon="6.6201">
        <ele>1233</ele>
        <time>2022-08-16T11:50:58Z</time>
      </trkpt>
      <trkpt lat="45.76713" lon="6.62007">
        <ele>1233</ele>
        <time>2022-08-16T11:50:59Z</time>
      </trkpt>
      <trkpt lat="45.76708" lon="6.62005">
        <ele>1233</ele>
        <time>2022-08-16T11:51:00Z</time>
      </trkpt>
      <trkpt lat="45.76703" lon="6.62003">
        <ele>1233</ele>
        <time>2022-08-16T11:51:01Z</time>
      </trkpt>
      <trkpt lat="45.76697" lon="6.62002">
        <ele>1233</ele>
        <time>2022-08-16T11:51:02Z</time>
      </trkpt>
      <trkpt lat="45.76692" lon="6.62001">
        <ele>1233</ele>
        <time>2022-08-16T11:51:03Z</time>
      </trkpt>
      <trkpt lat="45.76687" lon="6.62001">
        <ele>1233</ele>
        <time>2022-08-16T11:51:04Z</time>
      </trkpt>
      <trkpt lat="45.76681" lon="6.62">
        <ele>1233</ele>
        <time>2022-08-16T11:51:05Z</time>
      </trkpt>
      <trkpt lat="45.76677" lon="6.61999">
        <ele>1233</ele>
        <time>2022-08-16T11:51:06Z</time>
      </trkpt>
      <trkpt lat="45.76672" lon="6.61999">
        <ele>1232</ele>
        <time>2022-08-16T11:51:07Z</time>
      </trkpt>
      <trkpt lat="45.76667" lon="6.61999">
        <ele>1232</ele>
        <time>2022-08-16T11:51:08Z</time>
      </trkpt>
      <trkpt lat="45.76663" lon="6.61999">
        <ele>1232</ele>
        <time>2022-08-16T11:51:09Z</time>
      </trkpt>
      <trkpt lat="45.76658" lon="6.61998">
        <ele>1232</ele>
        <time>2022-08-16T11:51:10Z</time>
      </trkpt>
      <trkpt lat="45.76654" lon="6.61997">
        <ele>1232</ele>
        <time>2022-08-16T11:51:11Z</time>
      </trkpt>
      <trkpt lat="45.7665" lon="6.61997">
        <ele>1232</ele>
        <time>2022-08-16T11:51:12Z</time>
      </trkpt>
      <trkpt lat="45.76645" lon="6.61996">
        <ele>1231</ele>
        <time>2022-08-16T11:51:13Z</time>
      </trkpt>
      <trkpt lat="45.76641" lon="6.61995">
        <ele>1231</ele>
        <time>2022-08-16T11:51:14Z</time>
      </trkpt>
      <trkpt lat="45.76637" lon="6.61993">
        <ele>1231</ele>
        <time>2022-08-16T11:51:15Z</time>
      </trkpt>
      <trkpt lat="45.76633" lon="6.61991">
        <ele>1231</ele>
        <time>2022-08-16T11:51:16Z</time>
      </trkpt>
      <trkpt lat="45.76628" lon="6.61989">
        <ele>1231</ele>
        <time>2022-08-16T11:51:17Z</time>
      </trkpt>
      <trkpt lat="45.76624" lon="6.61988">
        <ele>1230</ele>
        <time>2022-08-16T11:51:18Z</time>
      </trkpt>
      <trkpt lat="45.7662" lon="6.61986">
        <ele>1230</ele>
        <time>2022-08-16T11:51:19Z</time>
      </trkpt>
      <trkpt lat="45.76615" lon="6.61985">
        <ele>1230</ele>
        <time>2022-08-16T11:51:20Z</time>
      </trkpt>
      <trkpt lat="45.76611" lon="6.61982">
        <ele>1230</ele>
        <time>2022-08-16T11:51:21Z</time>
      </trkpt>
      <trkpt lat="45.76606" lon="6.6198">
        <ele>1230</ele>
        <time>2022-08-16T11:51:22Z</time>
      </trkpt>
      <trkpt lat="45.76602" lon="6.61977">
        <ele>1230</ele>
        <time>2022-08-16T11:51:23Z</time>
      </trkpt>
      <trkpt lat="45.76598" lon="6.61975">
        <ele>1230</ele>
        <time>2022-08-16T11:51:24Z</time>
      </trkpt>
      <trkpt lat="45.76594" lon="6.61973">
        <ele>1230</ele>
        <time>2022-08-16T11:51:25Z</time>
      </trkpt>
      <trkpt lat="45.7659" lon="6.61971">
        <ele>1230</ele>
        <time>2022-08-16T11:51:26Z</time>
      </trkpt>
      <trkpt lat="45.76587" lon="6.61969">
        <ele>1230</ele>
        <time>2022-08-16T11:51:27Z</time>
      </trkpt>
      <trkpt lat="45.76583" lon="6.61967">
        <ele>1230</ele>
        <time>2022-08-16T11:51:28Z</time>
      </trkpt>
      <trkpt lat="45.7658" lon="6.61965">
        <ele>1231</ele>
        <time>2022-08-16T11:51:29Z</time>
      </trkpt>
      <trkpt lat="45.76577" lon="6.61961">
        <ele>1231</ele>
        <time>2022-08-16T11:51:30Z</time>
      </trkpt>
      <trkpt lat="45.76573" lon="6.61958">
        <ele>1231</ele>
        <time>2022-08-16T11:51:31Z</time>
      </trkpt>
      <trkpt lat="45.7657" lon="6.61955">
        <ele>1232</ele>
        <time>2022-08-16T11:51:32Z</time>
      </trkpt>
      <trkpt lat="45.76567" lon="6.61951">
        <ele>1232</ele>
        <time>2022-08-16T11:51:33Z</time>
      </trkpt>
      <trkpt lat="45.76564" lon="6.61948">
        <ele>1233</ele>
        <time>2022-08-16T11:51:34Z</time>
      </trkpt>
      <trkpt lat="45.76561" lon="6.61945">
        <ele>1233</ele>
        <time>2022-08-16T11:51:35Z</time>
      </trkpt>
      <trkpt lat="45.76557" lon="6.61941">
        <ele>1232</ele>
        <time>2022-08-16T11:51:36Z</time>
      </trkpt>
      <trkpt lat="45.76555" lon="6.61937">
        <ele>1233</ele>
        <time>2022-08-16T11:51:37Z</time>
      </trkpt>
      <trkpt lat="45.76552" lon="6.61934">
        <ele>1232</ele>
        <time>2022-08-16T11:51:38Z</time>
      </trkpt>
      <trkpt lat="45.76549" lon="6.61931">
        <ele>1232</ele>
        <time>2022-08-16T11:51:39Z</time>
      </trkpt>
      <trkpt lat="45.76547" lon="6.61927">
        <ele>1232</ele>
        <time>2022-08-16T11:51:40Z</time>
      </trkpt>
      <trkpt lat="45.76545" lon="6.61923">
        <ele>1232</ele>
        <time>2022-08-16T11:51:41Z</time>
      </trkpt>
      <trkpt lat="45.76542" lon="6.6192">
        <ele>1232</ele>
        <time>2022-08-16T11:51:42Z</time>
      </trkpt>
      <trkpt lat="45.7654" lon="6.61917">
        <ele>1233</ele>
        <time>2022-08-16T11:51:43Z</time>
      </trkpt>
      <trkpt lat="45.76537" lon="6.61913">
        <ele>1233</ele>
        <time>2022-08-16T11:51:44Z</time>
      </trkpt>
      <trkpt lat="45.76535" lon="6.6191">
        <ele>1233</ele>
        <time>2022-08-16T11:51:45Z</time>
      </trkpt>
      <trkpt lat="45.76532" lon="6.61908">
        <ele>1233</ele>
        <time>2022-08-16T11:51:46Z</time>
      </trkpt>
      <trkpt lat="45.76529" lon="6.61906">
        <ele>1233</ele>
        <time>2022-08-16T11:51:47Z</time>
      </trkpt>
      <trkpt lat="45.76526" lon="6.61903">
        <ele>1233</ele>
        <time>2022-08-16T11:51:48Z</time>
      </trkpt>
      <trkpt lat="45.76523" lon="6.61901">
        <ele>1233</ele>
        <time>2022-08-16T11:51:49Z</time>
      </trkpt>
      <trkpt lat="45.7652" lon="6.61899">
        <ele>1233</ele>
        <time>2022-08-16T11:51:50Z</time>
      </trkpt>
      <trkpt lat="45.76517" lon="6.61896">
        <ele>1233</ele>
        <time>2022-08-16T11:51:51Z</time>
      </trkpt>
      <trkpt lat="45.76514" lon="6.61894">
        <ele>1233</ele>
        <time>2022-08-16T11:51:52Z</time>
      </trkpt>
      <trkpt lat="45.76509" lon="6.61892">
        <ele>1234</ele>
        <time>2022-08-16T11:51:53Z</time>
      </trkpt>
      <trkpt lat="45.76506" lon="6.61889">
        <ele>1234</ele>
        <time>2022-08-16T11:51:54Z</time>
      </trkpt>
      <trkpt lat="45.76502" lon="6.61888">
        <ele>1234</ele>
        <time>2022-08-16T11:51:55Z</time>
      </trkpt>
      <trkpt lat="45.76499" lon="6.61886">
        <ele>1233</ele>
        <time>2022-08-16T11:51:56Z</time>
      </trkpt>
      <trkpt lat="45.76495" lon="6.61884">
        <ele>1233</ele>
        <time>2022-08-16T11:51:57Z</time>
      </trkpt>
      <trkpt lat="45.76492" lon="6.61881">
        <ele>1233</ele>
        <time>2022-08-16T11:51:58Z</time>
      </trkpt>
      <trkpt lat="45.76489" lon="6.61879">
        <ele>1233</ele>
        <time>2022-08-16T11:51:59Z</time>
      </trkpt>
      <trkpt lat="45.76486" lon="6.61876">
        <ele>1233</ele>
        <time>2022-08-16T11:52:00Z</time>
      </trkpt>
      <trkpt lat="45.76482" lon="6.61874">
        <ele>1233</ele>
        <time>2022-08-16T11:52:01Z</time>
      </trkpt>
      <trkpt lat="45.76479" lon="6.61872">
        <ele>1234</ele>
        <time>2022-08-16T11:52:02Z</time>
      </trkpt>
      <trkpt lat="45.76475" lon="6.61869">
        <ele>1234</ele>
        <time>2022-08-16T11:52:03Z</time>
      </trkpt>
      <trkpt lat="45.76472" lon="6.61867">
        <ele>1234</ele>
        <time>2022-08-16T11:52:04Z</time>
      </trkpt>
      <trkpt lat="45.76469" lon="6.61864">
        <ele>1234</ele>
        <time>2022-08-16T11:52:05Z</time>
      </trkpt>
      <trkpt lat="45.76466" lon="6.61861">
        <ele>1234</ele>
        <time>2022-08-16T11:52:06Z</time>
      </trkpt>
      <trkpt lat="45.76464" lon="6.61857">
        <ele>1234</ele>
        <time>2022-08-16T11:52:07Z</time>
      </trkpt>
      <trkpt lat="45.76461" lon="6.61853">
        <ele>1234</ele>
        <time>2022-08-16T11:52:08Z</time>
      </trkpt>
      <trkpt lat="45.76459" lon="6.61849">
        <ele>1235</ele>
        <time>2022-08-16T11:52:09Z</time>
      </trkpt>
      <trkpt lat="45.76457" lon="6.61845">
        <ele>1235</ele>
        <time>2022-08-16T11:52:10Z</time>
      </trkpt>
      <trkpt lat="45.76455" lon="6.6184">
        <ele>1235</ele>
        <time>2022-08-16T11:52:11Z</time>
      </trkpt>
      <trkpt lat="45.76453" lon="6.61835">
        <ele>1235</ele>
        <time>2022-08-16T11:52:12Z</time>
      </trkpt>
      <trkpt lat="45.76451" lon="6.6183">
        <ele>1235</ele>
        <time>2022-08-16T11:52:13Z</time>
      </trkpt>
      <trkpt lat="45.76449" lon="6.61825">
        <ele>1235</ele>
        <time>2022-08-16T11:52:14Z</time>
      </trkpt>
      <trkpt lat="45.76447" lon="6.61819">
        <ele>1235</ele>
        <time>2022-08-16T11:52:15Z</time>
      </trkpt>
      <trkpt lat="45.76446" lon="6.61814">
        <ele>1235</ele>
        <time>2022-08-16T11:52:16Z</time>
      </trkpt>
      <trkpt lat="45.76445" lon="6.61809">
        <ele>1235</ele>
        <time>2022-08-16T11:52:17Z</time>
      </trkpt>
      <trkpt lat="45.76444" lon="6.61803">
        <ele>1235</ele>
        <time>2022-08-16T11:52:18Z</time>
      </trkpt>
      <trkpt lat="45.76442" lon="6.61798">
        <ele>1235</ele>
        <time>2022-08-16T11:52:19Z</time>
      </trkpt>
      <trkpt lat="45.76441" lon="6.61793">
        <ele>1235</ele>
        <time>2022-08-16T11:52:20Z</time>
      </trkpt>
      <trkpt lat="45.76439" lon="6.61789">
        <ele>1235</ele>
        <time>2022-08-16T11:52:21Z</time>
      </trkpt>
      <trkpt lat="45.76438" lon="6.61785">
        <ele>1235</ele>
        <time>2022-08-16T11:52:22Z</time>
      </trkpt>
      <trkpt lat="45.76436" lon="6.61781">
        <ele>1236</ele>
        <time>2022-08-16T11:52:23Z</time>
      </trkpt>
      <trkpt lat="45.76433" lon="6.61777">
        <ele>1236</ele>
        <time>2022-08-16T11:52:24Z</time>
      </trkpt>
      <trkpt lat="45.7643" lon="6.61773">
        <ele>1236</ele>
        <time>2022-08-16T11:52:25Z</time>
      </trkpt>
      <trkpt lat="45.76427" lon="6.61771">
        <ele>1236</ele>
        <time>2022-08-16T11:52:26Z</time>
      </trkpt>
      <trkpt lat="45.76425" lon="6.61768">
        <ele>1236</ele>
        <time>2022-08-16T11:52:27Z</time>
      </trkpt>
      <trkpt lat="45.76422" lon="6.61764">
        <ele>1236</ele>
        <time>2022-08-16T11:52:28Z</time>
      </trkpt>
      <trkpt lat="45.76419" lon="6.61761">
        <ele>1236</ele>
        <time>2022-08-16T11:52:29Z</time>
      </trkpt>
      <trkpt lat="45.76416" lon="6.61758">
        <ele>1237</ele>
        <time>2022-08-16T11:52:30Z</time>
      </trkpt>
      <trkpt lat="45.76413" lon="6.61754">
        <ele>1237</ele>
        <time>2022-08-16T11:52:31Z</time>
      </trkpt>
      <trkpt lat="45.7641" lon="6.61751">
        <ele>1237</ele>
        <time>2022-08-16T11:52:32Z</time>
      </trkpt>
      <trkpt lat="45.76407" lon="6.61747">
        <ele>1237</ele>
        <time>2022-08-16T11:52:33Z</time>
      </trkpt>
      <trkpt lat="45.76405" lon="6.61743">
        <ele>1237</ele>
        <time>2022-08-16T11:52:34Z</time>
      </trkpt>
      <trkpt lat="45.76403" lon="6.61739">
        <ele>1237</ele>
        <time>2022-08-16T11:52:35Z</time>
      </trkpt>
      <trkpt lat="45.76401" lon="6.61735">
        <ele>1237</ele>
        <time>2022-08-16T11:52:36Z</time>
      </trkpt>
      <trkpt lat="45.76398" lon="6.61731">
        <ele>1237</ele>
        <time>2022-08-16T11:52:37Z</time>
      </trkpt>
      <trkpt lat="45.76395" lon="6.61727">
        <ele>1237</ele>
        <time>2022-08-16T11:52:38Z</time>
      </trkpt>
      <trkpt lat="45.76393" lon="6.61723">
        <ele>1237</ele>
        <time>2022-08-16T11:52:39Z</time>
      </trkpt>
      <trkpt lat="45.7639" lon="6.6172">
        <ele>1238</ele>
        <time>2022-08-16T11:52:40Z</time>
      </trkpt>
      <trkpt lat="45.76388" lon="6.61716">
        <ele>1238</ele>
        <time>2022-08-16T11:52:41Z</time>
      </trkpt>
      <trkpt lat="45.76384" lon="6.61712">
        <ele>1238</ele>
        <time>2022-08-16T11:52:42Z</time>
      </trkpt>
      <trkpt lat="45.76381" lon="6.61709">
        <ele>1238</ele>
        <time>2022-08-16T11:52:43Z</time>
      </trkpt>
      <trkpt lat="45.76378" lon="6.61706">
        <ele>1238</ele>
        <time>2022-08-16T11:52:44Z</time>
      </trkpt>
      <trkpt lat="45.76374" lon="6.61703">
        <ele>1238</ele>
        <time>2022-08-16T11:52:45Z</time>
      </trkpt>
      <trkpt lat="45.76371" lon="6.61701">
        <ele>1238</ele>
        <time>2022-08-16T11:52:46Z</time>
      </trkpt>
      <trkpt lat="45.76368" lon="6.61699">
        <ele>1238</ele>
        <time>2022-08-16T11:52:47Z</time>
      </trkpt>
      <trkpt lat="45.76364" lon="6.61697">
        <ele>1238</ele>
        <time>2022-08-16T11:52:48Z</time>
      </trkpt>
      <trkpt lat="45.7636" lon="6.61694">
        <ele>1238</ele>
        <time>2022-08-16T11:52:49Z</time>
      </trkpt>
      <trkpt lat="45.76356" lon="6.61692">
        <ele>1238</ele>
        <time>2022-08-16T11:52:50Z</time>
      </trkpt>
      <trkpt lat="45.76351" lon="6.6169">
        <ele>1238</ele>
        <time>2022-08-16T11:52:51Z</time>
      </trkpt>
      <trkpt lat="45.76347" lon="6.61688">
        <ele>1239</ele>
        <time>2022-08-16T11:52:52Z</time>
      </trkpt>
      <trkpt lat="45.76342" lon="6.61686">
        <ele>1239</ele>
        <time>2022-08-16T11:52:53Z</time>
      </trkpt>
      <trkpt lat="45.76338" lon="6.61683">
        <ele>1239</ele>
        <time>2022-08-16T11:52:54Z</time>
      </trkpt>
      <trkpt lat="45.76334" lon="6.6168">
        <ele>1239</ele>
        <time>2022-08-16T11:52:55Z</time>
      </trkpt>
      <trkpt lat="45.7633" lon="6.61676">
        <ele>1239</ele>
        <time>2022-08-16T11:52:56Z</time>
      </trkpt>
      <trkpt lat="45.76327" lon="6.61671">
        <ele>1238</ele>
        <time>2022-08-16T11:52:57Z</time>
      </trkpt>
      <trkpt lat="45.76325" lon="6.61666">
        <ele>1238</ele>
        <time>2022-08-16T11:52:58Z</time>
      </trkpt>
      <trkpt lat="45.76322" lon="6.61661">
        <ele>1237</ele>
        <time>2022-08-16T11:52:59Z</time>
      </trkpt>
      <trkpt lat="45.76321" lon="6.61655">
        <ele>1237</ele>
        <time>2022-08-16T11:53:00Z</time>
      </trkpt>
      <trkpt lat="45.7632" lon="6.61648">
        <ele>1237</ele>
        <time>2022-08-16T11:53:01Z</time>
      </trkpt>
      <trkpt lat="45.76319" lon="6.61641">
        <ele>1237</ele>
        <time>2022-08-16T11:53:02Z</time>
      </trkpt>
      <trkpt lat="45.76318" lon="6.61633">
        <ele>1237</ele>
        <time>2022-08-16T11:53:03Z</time>
      </trkpt>
      <trkpt lat="45.76317" lon="6.61626">
        <ele>1237</ele>
        <time>2022-08-16T11:53:04Z</time>
      </trkpt>
      <trkpt lat="45.76315" lon="6.61618">
        <ele>1237</ele>
        <time>2022-08-16T11:53:05Z</time>
      </trkpt>
      <trkpt lat="45.76313" lon="6.6161">
        <ele>1237</ele>
        <time>2022-08-16T11:53:06Z</time>
      </trkpt>
      <trkpt lat="45.76311" lon="6.61603">
        <ele>1237</ele>
        <time>2022-08-16T11:53:07Z</time>
      </trkpt>
      <trkpt lat="45.76307" lon="6.61596">
        <ele>1237</ele>
        <time>2022-08-16T11:53:08Z</time>
      </trkpt>
      <trkpt lat="45.76304" lon="6.61589">
        <ele>1237</ele>
        <time>2022-08-16T11:53:09Z</time>
      </trkpt>
      <trkpt lat="45.76301" lon="6.61582">
        <ele>1237</ele>
        <time>2022-08-16T11:53:10Z</time>
      </trkpt>
      <trkpt lat="45.76298" lon="6.61575">
        <ele>1237</ele>
        <time>2022-08-16T11:53:11Z</time>
      </trkpt>
      <trkpt lat="45.76296" lon="6.61569">
        <ele>1238</ele>
        <time>2022-08-16T11:53:12Z</time>
      </trkpt>
      <trkpt lat="45.76294" lon="6.61562">
        <ele>1238</ele>
        <time>2022-08-16T11:53:13Z</time>
      </trkpt>
      <trkpt lat="45.76292" lon="6.61556">
        <ele>1238</ele>
        <time>2022-08-16T11:53:14Z</time>
      </trkpt>
      <trkpt lat="45.7629" lon="6.61549">
        <ele>1238</ele>
        <time>2022-08-16T11:53:15Z</time>
      </trkpt>
      <trkpt lat="45.76287" lon="6.61544">
        <ele>1238</ele>
        <time>2022-08-16T11:53:16Z</time>
      </trkpt>
      <trkpt lat="45.76285" lon="6.61538">
        <ele>1238</ele>
        <time>2022-08-16T11:53:17Z</time>
      </trkpt>
      <trkpt lat="45.76282" lon="6.61534">
        <ele>1238</ele>
        <time>2022-08-16T11:53:18Z</time>
      </trkpt>
      <trkpt lat="45.76278" lon="6.61528">
        <ele>1237</ele>
        <time>2022-08-16T11:53:19Z</time>
      </trkpt>
      <trkpt lat="45.76274" lon="6.61523">
        <ele>1237</ele>
        <time>2022-08-16T11:53:20Z</time>
      </trkpt>
      <trkpt lat="45.76271" lon="6.61519">
        <ele>1236</ele>
        <time>2022-08-16T11:53:21Z</time>
      </trkpt>
      <trkpt lat="45.76267" lon="6.61515">
        <ele>1236</ele>
        <time>2022-08-16T11:53:22Z</time>
      </trkpt>
      <trkpt lat="45.76263" lon="6.6151">
        <ele>1236</ele>
        <time>2022-08-16T11:53:23Z</time>
      </trkpt>
      <trkpt lat="45.76258" lon="6.61506">
        <ele>1236</ele>
        <time>2022-08-16T11:53:24Z</time>
      </trkpt>
      <trkpt lat="45.76254" lon="6.61501">
        <ele>1236</ele>
        <time>2022-08-16T11:53:25Z</time>
      </trkpt>
      <trkpt lat="45.7625" lon="6.61495">
        <ele>1236</ele>
        <time>2022-08-16T11:53:26Z</time>
      </trkpt>
      <trkpt lat="45.76246" lon="6.61489">
        <ele>1235</ele>
        <time>2022-08-16T11:53:27Z</time>
      </trkpt>
      <trkpt lat="45.76243" lon="6.61481">
        <ele>1235</ele>
        <time>2022-08-16T11:53:28Z</time>
      </trkpt>
      <trkpt lat="45.7624" lon="6.61474">
        <ele>1235</ele>
        <time>2022-08-16T11:53:29Z</time>
      </trkpt>
      <trkpt lat="45.76237" lon="6.61465">
        <ele>1235</ele>
        <time>2022-08-16T11:53:30Z</time>
      </trkpt>
      <trkpt lat="45.76235" lon="6.61457">
        <ele>1235</ele>
        <time>2022-08-16T11:53:31Z</time>
      </trkpt>
      <trkpt lat="45.76232" lon="6.61449">
        <ele>1235</ele>
        <time>2022-08-16T11:53:32Z</time>
      </trkpt>
      <trkpt lat="45.76229" lon="6.61441">
        <ele>1235</ele>
        <time>2022-08-16T11:53:33Z</time>
      </trkpt>
      <trkpt lat="45.76226" lon="6.61434">
        <ele>1235</ele>
        <time>2022-08-16T11:53:34Z</time>
      </trkpt>
      <trkpt lat="45.76223" lon="6.61427">
        <ele>1235</ele>
        <time>2022-08-16T11:53:35Z</time>
      </trkpt>
      <trkpt lat="45.76219" lon="6.6142">
        <ele>1235</ele>
        <time>2022-08-16T11:53:36Z</time>
      </trkpt>
      <trkpt lat="45.76215" lon="6.61413">
        <ele>1235</ele>
        <time>2022-08-16T11:53:37Z</time>
      </trkpt>
      <trkpt lat="45.76211" lon="6.61407">
        <ele>1235</ele>
        <time>2022-08-16T11:53:38Z</time>
      </trkpt>
      <trkpt lat="45.76207" lon="6.61401">
        <ele>1235</ele>
        <time>2022-08-16T11:53:39Z</time>
      </trkpt>
      <trkpt lat="45.76202" lon="6.61395">
        <ele>1235</ele>
        <time>2022-08-16T11:53:40Z</time>
      </trkpt>
      <trkpt lat="45.76198" lon="6.6139">
        <ele>1234</ele>
        <time>2022-08-16T11:53:41Z</time>
      </trkpt>
      <trkpt lat="45.76193" lon="6.61385">
        <ele>1234</ele>
        <time>2022-08-16T11:53:42Z</time>
      </trkpt>
      <trkpt lat="45.76189" lon="6.61379">
        <ele>1233</ele>
        <time>2022-08-16T11:53:43Z</time>
      </trkpt>
      <trkpt lat="45.76185" lon="6.61373">
        <ele>1233</ele>
        <time>2022-08-16T11:53:44Z</time>
      </trkpt>
      <trkpt lat="45.76182" lon="6.61366">
        <ele>1233</ele>
        <time>2022-08-16T11:53:45Z</time>
      </trkpt>
      <trkpt lat="45.7618" lon="6.61359">
        <ele>1233</ele>
        <time>2022-08-16T11:53:46Z</time>
      </trkpt>
      <trkpt lat="45.76177" lon="6.61352">
        <ele>1232</ele>
        <time>2022-08-16T11:53:47Z</time>
      </trkpt>
      <trkpt lat="45.76175" lon="6.61345">
        <ele>1232</ele>
        <time>2022-08-16T11:53:48Z</time>
      </trkpt>
      <trkpt lat="45.76173" lon="6.61337">
        <ele>1232</ele>
        <time>2022-08-16T11:53:49Z</time>
      </trkpt>
      <trkpt lat="45.76172" lon="6.6133">
        <ele>1232</ele>
        <time>2022-08-16T11:53:50Z</time>
      </trkpt>
      <trkpt lat="45.76169" lon="6.61324">
        <ele>1232</ele>
        <time>2022-08-16T11:53:51Z</time>
      </trkpt>
      <trkpt lat="45.76167" lon="6.61317">
        <ele>1232</ele>
        <time>2022-08-16T11:53:52Z</time>
      </trkpt>
      <trkpt lat="45.76165" lon="6.6131">
        <ele>1232</ele>
        <time>2022-08-16T11:53:53Z</time>
      </trkpt>
      <trkpt lat="45.76163" lon="6.61303">
        <ele>1232</ele>
        <time>2022-08-16T11:53:54Z</time>
      </trkpt>
      <trkpt lat="45.7616" lon="6.61296">
        <ele>1232</ele>
        <time>2022-08-16T11:53:55Z</time>
      </trkpt>
      <trkpt lat="45.76157" lon="6.6129">
        <ele>1232</ele>
        <time>2022-08-16T11:53:56Z</time>
      </trkpt>
      <trkpt lat="45.76153" lon="6.61283">
        <ele>1232</ele>
        <time>2022-08-16T11:53:57Z</time>
      </trkpt>
      <trkpt lat="45.76149" lon="6.61277">
        <ele>1231</ele>
        <time>2022-08-16T11:53:58Z</time>
      </trkpt>
      <trkpt lat="45.76146" lon="6.6127">
        <ele>1231</ele>
        <time>2022-08-16T11:53:59Z</time>
      </trkpt>
      <trkpt lat="45.76143" lon="6.61264">
        <ele>1231</ele>
        <time>2022-08-16T11:54:00Z</time>
      </trkpt>
      <trkpt lat="45.76139" lon="6.61257">
        <ele>1231</ele>
        <time>2022-08-16T11:54:01Z</time>
      </trkpt>
      <trkpt lat="45.76137" lon="6.61249">
        <ele>1231</ele>
        <time>2022-08-16T11:54:02Z</time>
      </trkpt>
      <trkpt lat="45.76135" lon="6.61242">
        <ele>1231</ele>
        <time>2022-08-16T11:54:03Z</time>
      </trkpt>
      <trkpt lat="45.76134" lon="6.61235">
        <ele>1231</ele>
        <time>2022-08-16T11:54:04Z</time>
      </trkpt>
      <trkpt lat="45.76133" lon="6.61227">
        <ele>1231</ele>
        <time>2022-08-16T11:54:05Z</time>
      </trkpt>
      <trkpt lat="45.76132" lon="6.6122">
        <ele>1232</ele>
        <time>2022-08-16T11:54:06Z</time>
      </trkpt>
      <trkpt lat="45.76132" lon="6.61212">
        <ele>1232</ele>
        <time>2022-08-16T11:54:07Z</time>
      </trkpt>
      <trkpt lat="45.76131" lon="6.61205">
        <ele>1232</ele>
        <time>2022-08-16T11:54:08Z</time>
      </trkpt>
      <trkpt lat="45.7613" lon="6.61197">
        <ele>1232</ele>
        <time>2022-08-16T11:54:09Z</time>
      </trkpt>
      <trkpt lat="45.76128" lon="6.61189">
        <ele>1232</ele>
        <time>2022-08-16T11:54:10Z</time>
      </trkpt>
      <trkpt lat="45.76127" lon="6.61181">
        <ele>1232</ele>
        <time>2022-08-16T11:54:11Z</time>
      </trkpt>
      <trkpt lat="45.76125" lon="6.61173">
        <ele>1232</ele>
        <time>2022-08-16T11:54:12Z</time>
      </trkpt>
      <trkpt lat="45.76123" lon="6.61164">
        <ele>1232</ele>
        <time>2022-08-16T11:54:13Z</time>
      </trkpt>
      <trkpt lat="45.76121" lon="6.61156">
        <ele>1232</ele>
        <time>2022-08-16T11:54:14Z</time>
      </trkpt>
      <trkpt lat="45.76119" lon="6.61147">
        <ele>1233</ele>
        <time>2022-08-16T11:54:15Z</time>
      </trkpt>
      <trkpt lat="45.76118" lon="6.61138">
        <ele>1233</ele>
        <time>2022-08-16T11:54:16Z</time>
      </trkpt>
      <trkpt lat="45.76117" lon="6.61129">
        <ele>1233</ele>
        <time>2022-08-16T11:54:17Z</time>
      </trkpt>
      <trkpt lat="45.76115" lon="6.61121">
        <ele>1233</ele>
        <time>2022-08-16T11:54:18Z</time>
      </trkpt>
      <trkpt lat="45.76114" lon="6.61112">
        <ele>1232</ele>
        <time>2022-08-16T11:54:19Z</time>
      </trkpt>
      <trkpt lat="45.76113" lon="6.61103">
        <ele>1233</ele>
        <time>2022-08-16T11:54:20Z</time>
      </trkpt>
      <trkpt lat="45.76111" lon="6.61093">
        <ele>1232</ele>
        <time>2022-08-16T11:54:21Z</time>
      </trkpt>
      <trkpt lat="45.76109" lon="6.61084">
        <ele>1233</ele>
        <time>2022-08-16T11:54:22Z</time>
      </trkpt>
      <trkpt lat="45.76107" lon="6.61074">
        <ele>1233</ele>
        <time>2022-08-16T11:54:23Z</time>
      </trkpt>
      <trkpt lat="45.76106" lon="6.61063">
        <ele>1232</ele>
        <time>2022-08-16T11:54:24Z</time>
      </trkpt>
      <trkpt lat="45.76106" lon="6.61053">
        <ele>1232</ele>
        <time>2022-08-16T11:54:25Z</time>
      </trkpt>
      <trkpt lat="45.76105" lon="6.61042">
        <ele>1232</ele>
        <time>2022-08-16T11:54:26Z</time>
      </trkpt>
      <trkpt lat="45.76104" lon="6.61032">
        <ele>1231</ele>
        <time>2022-08-16T11:54:27Z</time>
      </trkpt>
      <trkpt lat="45.76103" lon="6.61021">
        <ele>1231</ele>
        <time>2022-08-16T11:54:28Z</time>
      </trkpt>
      <trkpt lat="45.76103" lon="6.6101">
        <ele>1231</ele>
        <time>2022-08-16T11:54:29Z</time>
      </trkpt>
      <trkpt lat="45.76102" lon="6.61">
        <ele>1231</ele>
        <time>2022-08-16T11:54:30Z</time>
      </trkpt>
      <trkpt lat="45.76102" lon="6.60988">
        <ele>1231</ele>
        <time>2022-08-16T11:54:31Z</time>
      </trkpt>
      <trkpt lat="45.76101" lon="6.60977">
        <ele>1231</ele>
        <time>2022-08-16T11:54:32Z</time>
      </trkpt>
      <trkpt lat="45.76101" lon="6.60966">
        <ele>1230</ele>
        <time>2022-08-16T11:54:33Z</time>
      </trkpt>
      <trkpt lat="45.76101" lon="6.60954">
        <ele>1230</ele>
        <time>2022-08-16T11:54:34Z</time>
      </trkpt>
      <trkpt lat="45.761" lon="6.60942">
        <ele>1230</ele>
        <time>2022-08-16T11:54:35Z</time>
      </trkpt>
      <trkpt lat="45.761" lon="6.60931">
        <ele>1230</ele>
        <time>2022-08-16T11:54:36Z</time>
      </trkpt>
      <trkpt lat="45.76099" lon="6.6092">
        <ele>1229</ele>
        <time>2022-08-16T11:54:37Z</time>
      </trkpt>
      <trkpt lat="45.761" lon="6.6091">
        <ele>1229</ele>
        <time>2022-08-16T11:54:38Z</time>
      </trkpt>
      <trkpt lat="45.76103" lon="6.60902">
        <ele>1229</ele>
        <time>2022-08-16T11:54:39Z</time>
      </trkpt>
      <trkpt lat="45.76107" lon="6.60895">
        <ele>1228</ele>
        <time>2022-08-16T11:54:40Z</time>
      </trkpt>
      <trkpt lat="45.76111" lon="6.60889">
        <ele>1229</ele>
        <time>2022-08-16T11:54:41Z</time>
      </trkpt>
      <trkpt lat="45.76116" lon="6.60884">
        <ele>1229</ele>
        <time>2022-08-16T11:54:42Z</time>
      </trkpt>
      <trkpt lat="45.76121" lon="6.60879">
        <ele>1228</ele>
        <time>2022-08-16T11:54:43Z</time>
      </trkpt>
      <trkpt lat="45.76126" lon="6.60875">
        <ele>1228</ele>
        <time>2022-08-16T11:54:44Z</time>
      </trkpt>
      <trkpt lat="45.7613" lon="6.6087">
        <ele>1228</ele>
        <time>2022-08-16T11:54:45Z</time>
      </trkpt>
      <trkpt lat="45.76133" lon="6.60864">
        <ele>1228</ele>
        <time>2022-08-16T11:54:46Z</time>
      </trkpt>
      <trkpt lat="45.76133" lon="6.60857">
        <ele>1228</ele>
        <time>2022-08-16T11:54:47Z</time>
      </trkpt>
      <trkpt lat="45.76132" lon="6.60851">
        <ele>1228</ele>
        <time>2022-08-16T11:54:48Z</time>
      </trkpt>
      <trkpt lat="45.7613" lon="6.60848">
        <ele>1228</ele>
        <time>2022-08-16T11:54:49Z</time>
      </trkpt>
      <trkpt lat="45.76126" lon="6.60844">
        <ele>1227</ele>
        <time>2022-08-16T11:54:50Z</time>
      </trkpt>
      <trkpt lat="45.76122" lon="6.60839">
        <ele>1227</ele>
        <time>2022-08-16T11:54:51Z</time>
      </trkpt>
      <trkpt lat="45.76119" lon="6.60836">
        <ele>1227</ele>
        <time>2022-08-16T11:54:52Z</time>
      </trkpt>
      <trkpt lat="45.76117" lon="6.60833">
        <ele>1226</ele>
        <time>2022-08-16T11:54:53Z</time>
      </trkpt>
      <trkpt lat="45.76115" lon="6.60831">
        <ele>1226</ele>
        <time>2022-08-16T11:54:54Z</time>
      </trkpt>
      <trkpt lat="45.76113" lon="6.60831">
        <ele>1226</ele>
        <time>2022-08-16T11:54:55Z</time>
      </trkpt>
      <trkpt lat="45.76112" lon="6.60831">
        <ele>1226</ele>
        <time>2022-08-16T11:54:56Z</time>
      </trkpt>
      <trkpt lat="45.76112" lon="6.60833">
        <ele>1225</ele>
        <time>2022-08-16T11:54:57Z</time>
      </trkpt>
      <trkpt lat="45.76112" lon="6.60833">
        <ele>1225</ele>
        <time>2022-08-16T11:54:58Z</time>
      </trkpt>
      <trkpt lat="45.76112" lon="6.60833">
        <ele>1225</ele>
        <time>2022-08-16T11:54:59Z</time>
      </trkpt>
      <trkpt lat="45.76112" lon="6.60833">
        <ele>1225</ele>
        <time>2022-08-16T11:55:00Z</time>
      </trkpt>
      <trkpt lat="45.76112" lon="6.60833">
        <ele>1225</ele>
        <time>2022-08-16T11:55:04Z</time>
      </trkpt>
      <trkpt lat="45.76112" lon="6.60831">
        <ele>1225</ele>
        <time>2022-08-16T11:55:07Z</time>
      </trkpt>
      <trkpt lat="45.76112" lon="6.6083">
        <ele>1225</ele>
        <time>2022-08-16T11:55:08Z</time>
      </trkpt>
      <trkpt lat="45.76111" lon="6.60827">
        <ele>1225</ele>
        <time>2022-08-16T11:55:09Z</time>
      </trkpt>
      <trkpt lat="45.7611" lon="6.60824">
        <ele>1225</ele>
        <time>2022-08-16T11:55:10Z</time>
      </trkpt>
      <trkpt lat="45.76108" lon="6.6082">
        <ele>1225</ele>
        <time>2022-08-16T11:55:11Z</time>
      </trkpt>
      <trkpt lat="45.76106" lon="6.60816">
        <ele>1225</ele>
        <time>2022-08-16T11:55:12Z</time>
      </trkpt>
      <trkpt lat="45.76104" lon="6.60811">
        <ele>1225</ele>
        <time>2022-08-16T11:55:13Z</time>
      </trkpt>
      <trkpt lat="45.76102" lon="6.60805">
        <ele>1225</ele>
        <time>2022-08-16T11:55:14Z</time>
      </trkpt>
      <trkpt lat="45.76099" lon="6.608">
        <ele>1225</ele>
        <time>2022-08-16T11:55:15Z</time>
      </trkpt>
      <trkpt lat="45.76097" lon="6.60793">
        <ele>1224</ele>
        <time>2022-08-16T11:55:16Z</time>
      </trkpt>
      <trkpt lat="45.76094" lon="6.60787">
        <ele>1224</ele>
        <time>2022-08-16T11:55:17Z</time>
      </trkpt>
      <trkpt lat="45.76091" lon="6.60781">
        <ele>1224</ele>
        <time>2022-08-16T11:55:18Z</time>
      </trkpt>
      <trkpt lat="45.76088" lon="6.60775">
        <ele>1224</ele>
        <time>2022-08-16T11:55:19Z</time>
      </trkpt>
      <trkpt lat="45.76085" lon="6.60769">
        <ele>1224</ele>
        <time>2022-08-16T11:55:20Z</time>
      </trkpt>
      <trkpt lat="45.76081" lon="6.60763">
        <ele>1225</ele>
        <time>2022-08-16T11:55:21Z</time>
      </trkpt>
      <trkpt lat="45.76078" lon="6.60758">
        <ele>1225</ele>
        <time>2022-08-16T11:55:22Z</time>
      </trkpt>
      <trkpt lat="45.76075" lon="6.60753">
        <ele>1225</ele>
        <time>2022-08-16T11:55:23Z</time>
      </trkpt>
      <trkpt lat="45.76071" lon="6.60749">
        <ele>1225</ele>
        <time>2022-08-16T11:55:24Z</time>
      </trkpt>
      <trkpt lat="45.76068" lon="6.60745">
        <ele>1225</ele>
        <time>2022-08-16T11:55:25Z</time>
      </trkpt>
      <trkpt lat="45.76064" lon="6.60741">
        <ele>1225</ele>
        <time>2022-08-16T11:55:26Z</time>
      </trkpt>
      <trkpt lat="45.76061" lon="6.60735">
        <ele>1225</ele>
        <time>2022-08-16T11:55:27Z</time>
      </trkpt>
      <trkpt lat="45.76058" lon="6.6073">
        <ele>1225</ele>
        <time>2022-08-16T11:55:28Z</time>
      </trkpt>
      <trkpt lat="45.76055" lon="6.60724">
        <ele>1225</ele>
        <time>2022-08-16T11:55:29Z</time>
      </trkpt>
      <trkpt lat="45.76052" lon="6.60718">
        <ele>1225</ele>
        <time>2022-08-16T11:55:30Z</time>
      </trkpt>
      <trkpt lat="45.76049" lon="6.60711">
        <ele>1225</ele>
        <time>2022-08-16T11:55:31Z</time>
      </trkpt>
      <trkpt lat="45.76046" lon="6.60704">
        <ele>1225</ele>
        <time>2022-08-16T11:55:32Z</time>
      </trkpt>
      <trkpt lat="45.76043" lon="6.60696">
        <ele>1225</ele>
        <time>2022-08-16T11:55:33Z</time>
      </trkpt>
      <trkpt lat="45.7604" lon="6.60689">
        <ele>1225</ele>
        <time>2022-08-16T11:55:34Z</time>
      </trkpt>
      <trkpt lat="45.76037" lon="6.60682">
        <ele>1225</ele>
        <time>2022-08-16T11:55:35Z</time>
      </trkpt>
      <trkpt lat="45.76034" lon="6.60674">
        <ele>1225</ele>
        <time>2022-08-16T11:55:36Z</time>
      </trkpt>
      <trkpt lat="45.76031" lon="6.60667">
        <ele>1224</ele>
        <time>2022-08-16T11:55:37Z</time>
      </trkpt>
      <trkpt lat="45.76027" lon="6.6066">
        <ele>1224</ele>
        <time>2022-08-16T11:55:38Z</time>
      </trkpt>
      <trkpt lat="45.76023" lon="6.60653">
        <ele>1224</ele>
        <time>2022-08-16T11:55:39Z</time>
      </trkpt>
      <trkpt lat="45.7602" lon="6.60644">
        <ele>1224</ele>
        <time>2022-08-16T11:55:40Z</time>
      </trkpt>
      <trkpt lat="45.76017" lon="6.60636">
        <ele>1224</ele>
        <time>2022-08-16T11:55:41Z</time>
      </trkpt>
      <trkpt lat="45.76014" lon="6.60627">
        <ele>1223</ele>
        <time>2022-08-16T11:55:42Z</time>
      </trkpt>
      <trkpt lat="45.76011" lon="6.60618">
        <ele>1223</ele>
        <time>2022-08-16T11:55:43Z</time>
      </trkpt>
      <trkpt lat="45.76008" lon="6.60609">
        <ele>1223</ele>
        <time>2022-08-16T11:55:44Z</time>
      </trkpt>
      <trkpt lat="45.76005" lon="6.60599">
        <ele>1223</ele>
        <time>2022-08-16T11:55:45Z</time>
      </trkpt>
      <trkpt lat="45.76002" lon="6.60589">
        <ele>1222</ele>
        <time>2022-08-16T11:55:46Z</time>
      </trkpt>
      <trkpt lat="45.75999" lon="6.6058">
        <ele>1222</ele>
        <time>2022-08-16T11:55:47Z</time>
      </trkpt>
      <trkpt lat="45.75994" lon="6.60572">
        <ele>1221</ele>
        <time>2022-08-16T11:55:48Z</time>
      </trkpt>
      <trkpt lat="45.7599" lon="6.60563">
        <ele>1221</ele>
        <time>2022-08-16T11:55:49Z</time>
      </trkpt>
      <trkpt lat="45.75985" lon="6.60555">
        <ele>1220</ele>
        <time>2022-08-16T11:55:50Z</time>
      </trkpt>
      <trkpt lat="45.75981" lon="6.60546">
        <ele>1220</ele>
        <time>2022-08-16T11:55:51Z</time>
      </trkpt>
      <trkpt lat="45.75978" lon="6.60537">
        <ele>1220</ele>
        <time>2022-08-16T11:55:52Z</time>
      </trkpt>
      <trkpt lat="45.75976" lon="6.60527">
        <ele>1220</ele>
        <time>2022-08-16T11:55:53Z</time>
      </trkpt>
      <trkpt lat="45.75974" lon="6.60517">
        <ele>1220</ele>
        <time>2022-08-16T11:55:54Z</time>
      </trkpt>
      <trkpt lat="45.7597" lon="6.60509">
        <ele>1220</ele>
        <time>2022-08-16T11:55:55Z</time>
      </trkpt>
      <trkpt lat="45.75965" lon="6.60503">
        <ele>1220</ele>
        <time>2022-08-16T11:55:56Z</time>
      </trkpt>
      <trkpt lat="45.75958" lon="6.605">
        <ele>1220</ele>
        <time>2022-08-16T11:55:57Z</time>
      </trkpt>
      <trkpt lat="45.75952" lon="6.60497">
        <ele>1220</ele>
        <time>2022-08-16T11:55:58Z</time>
      </trkpt>
      <trkpt lat="45.75945" lon="6.60495">
        <ele>1220</ele>
        <time>2022-08-16T11:55:59Z</time>
      </trkpt>
      <trkpt lat="45.7594" lon="6.60492">
        <ele>1220</ele>
        <time>2022-08-16T11:56:00Z</time>
      </trkpt>
      <trkpt lat="45.75935" lon="6.60489">
        <ele>1221</ele>
        <time>2022-08-16T11:56:01Z</time>
      </trkpt>
      <trkpt lat="45.75931" lon="6.60484">
        <ele>1221</ele>
        <time>2022-08-16T11:56:02Z</time>
      </trkpt>
      <trkpt lat="45.75927" lon="6.60479">
        <ele>1221</ele>
        <time>2022-08-16T11:56:03Z</time>
      </trkpt>
      <trkpt lat="45.75924" lon="6.60473">
        <ele>1221</ele>
        <time>2022-08-16T11:56:04Z</time>
      </trkpt>
      <trkpt lat="45.7592" lon="6.60468">
        <ele>1220</ele>
        <time>2022-08-16T11:56:05Z</time>
      </trkpt>
      <trkpt lat="45.75917" lon="6.60462">
        <ele>1221</ele>
        <time>2022-08-16T11:56:06Z</time>
      </trkpt>
      <trkpt lat="45.75914" lon="6.60456">
        <ele>1221</ele>
        <time>2022-08-16T11:56:07Z</time>
      </trkpt>
      <trkpt lat="45.75911" lon="6.6045">
        <ele>1221</ele>
        <time>2022-08-16T11:56:08Z</time>
      </trkpt>
      <trkpt lat="45.75908" lon="6.60445">
        <ele>1220</ele>
        <time>2022-08-16T11:56:09Z</time>
      </trkpt>
      <trkpt lat="45.75905" lon="6.6044">
        <ele>1220</ele>
        <time>2022-08-16T11:56:10Z</time>
      </trkpt>
      <trkpt lat="45.75902" lon="6.60435">
        <ele>1219</ele>
        <time>2022-08-16T11:56:11Z</time>
      </trkpt>
      <trkpt lat="45.75899" lon="6.6043">
        <ele>1219</ele>
        <time>2022-08-16T11:56:12Z</time>
      </trkpt>
      <trkpt lat="45.75895" lon="6.60425">
        <ele>1219</ele>
        <time>2022-08-16T11:56:13Z</time>
      </trkpt>
      <trkpt lat="45.75891" lon="6.6042">
        <ele>1218</ele>
        <time>2022-08-16T11:56:14Z</time>
      </trkpt>
      <trkpt lat="45.75887" lon="6.60414">
        <ele>1218</ele>
        <time>2022-08-16T11:56:15Z</time>
      </trkpt>
      <trkpt lat="45.75883" lon="6.6041">
        <ele>1218</ele>
        <time>2022-08-16T11:56:16Z</time>
      </trkpt>
      <trkpt lat="45.7588" lon="6.60405">
        <ele>1217</ele>
        <time>2022-08-16T11:56:17Z</time>
      </trkpt>
      <trkpt lat="45.75877" lon="6.60401">
        <ele>1217</ele>
        <time>2022-08-16T11:56:18Z</time>
      </trkpt>
      <trkpt lat="45.75873" lon="6.60397">
        <ele>1217</ele>
        <time>2022-08-16T11:56:19Z</time>
      </trkpt>
      <trkpt lat="45.7587" lon="6.60393">
        <ele>1216</ele>
        <time>2022-08-16T11:56:20Z</time>
      </trkpt>
      <trkpt lat="45.75866" lon="6.60389">
        <ele>1216</ele>
        <time>2022-08-16T11:56:21Z</time>
      </trkpt>
      <trkpt lat="45.75862" lon="6.60385">
        <ele>1216</ele>
        <time>2022-08-16T11:56:22Z</time>
      </trkpt>
      <trkpt lat="45.75857" lon="6.60381">
        <ele>1215</ele>
        <time>2022-08-16T11:56:23Z</time>
      </trkpt>
      <trkpt lat="45.75853" lon="6.60377">
        <ele>1215</ele>
        <time>2022-08-16T11:56:24Z</time>
      </trkpt>
      <trkpt lat="45.75849" lon="6.60371">
        <ele>1214</ele>
        <time>2022-08-16T11:56:25Z</time>
      </trkpt>
      <trkpt lat="45.75845" lon="6.60366">
        <ele>1214</ele>
        <time>2022-08-16T11:56:26Z</time>
      </trkpt>
      <trkpt lat="45.75841" lon="6.6036">
        <ele>1214</ele>
        <time>2022-08-16T11:56:27Z</time>
      </trkpt>
      <trkpt lat="45.75837" lon="6.60353">
        <ele>1214</ele>
        <time>2022-08-16T11:56:28Z</time>
      </trkpt>
      <trkpt lat="45.75832" lon="6.60347">
        <ele>1213</ele>
        <time>2022-08-16T11:56:29Z</time>
      </trkpt>
      <trkpt lat="45.75828" lon="6.6034">
        <ele>1213</ele>
        <time>2022-08-16T11:56:30Z</time>
      </trkpt>
      <trkpt lat="45.75824" lon="6.60332">
        <ele>1213</ele>
        <time>2022-08-16T11:56:31Z</time>
      </trkpt>
      <trkpt lat="45.7582" lon="6.60324">
        <ele>1212</ele>
        <time>2022-08-16T11:56:32Z</time>
      </trkpt>
      <trkpt lat="45.75816" lon="6.60316">
        <ele>1212</ele>
        <time>2022-08-16T11:56:33Z</time>
      </trkpt>
      <trkpt lat="45.75812" lon="6.60307">
        <ele>1211</ele>
        <time>2022-08-16T11:56:34Z</time>
      </trkpt>
      <trkpt lat="45.75809" lon="6.60298">
        <ele>1211</ele>
        <time>2022-08-16T11:56:35Z</time>
      </trkpt>
      <trkpt lat="45.75805" lon="6.60288">
        <ele>1211</ele>
        <time>2022-08-16T11:56:36Z</time>
      </trkpt>
      <trkpt lat="45.75802" lon="6.60279">
        <ele>1211</ele>
        <time>2022-08-16T11:56:37Z</time>
      </trkpt>
      <trkpt lat="45.75799" lon="6.60269">
        <ele>1211</ele>
        <time>2022-08-16T11:56:38Z</time>
      </trkpt>
      <trkpt lat="45.75795" lon="6.60259">
        <ele>1211</ele>
        <time>2022-08-16T11:56:39Z</time>
      </trkpt>
      <trkpt lat="45.75792" lon="6.60249">
        <ele>1210</ele>
        <time>2022-08-16T11:56:40Z</time>
      </trkpt>
      <trkpt lat="45.75789" lon="6.60239">
        <ele>1209</ele>
        <time>2022-08-16T11:56:41Z</time>
      </trkpt>
      <trkpt lat="45.75786" lon="6.60229">
        <ele>1209</ele>
        <time>2022-08-16T11:56:42Z</time>
      </trkpt>
      <trkpt lat="45.75785" lon="6.60218">
        <ele>1208</ele>
        <time>2022-08-16T11:56:43Z</time>
      </trkpt>
      <trkpt lat="45.75783" lon="6.60207">
        <ele>1208</ele>
        <time>2022-08-16T11:56:44Z</time>
      </trkpt>
      <trkpt lat="45.75782" lon="6.60195">
        <ele>1207</ele>
        <time>2022-08-16T11:56:45Z</time>
      </trkpt>
      <trkpt lat="45.7578" lon="6.60184">
        <ele>1207</ele>
        <time>2022-08-16T11:56:46Z</time>
      </trkpt>
      <trkpt lat="45.75777" lon="6.60172">
        <ele>1206</ele>
        <time>2022-08-16T11:56:47Z</time>
      </trkpt>
      <trkpt lat="45.75774" lon="6.6016">
        <ele>1206</ele>
        <time>2022-08-16T11:56:48Z</time>
      </trkpt>
      <trkpt lat="45.75768" lon="6.6015">
        <ele>1205</ele>
        <time>2022-08-16T11:56:49Z</time>
      </trkpt>
      <trkpt lat="45.75762" lon="6.6014">
        <ele>1205</ele>
        <time>2022-08-16T11:56:50Z</time>
      </trkpt>
      <trkpt lat="45.75754" lon="6.60131">
        <ele>1205</ele>
        <time>2022-08-16T11:56:51Z</time>
      </trkpt>
      <trkpt lat="45.75746" lon="6.60125">
        <ele>1205</ele>
        <time>2022-08-16T11:56:52Z</time>
      </trkpt>
      <trkpt lat="45.75738" lon="6.60119">
        <ele>1205</ele>
        <time>2022-08-16T11:56:53Z</time>
      </trkpt>
      <trkpt lat="45.7573" lon="6.60112">
        <ele>1204</ele>
        <time>2022-08-16T11:56:54Z</time>
      </trkpt>
      <trkpt lat="45.75723" lon="6.60105">
        <ele>1203</ele>
        <time>2022-08-16T11:56:55Z</time>
      </trkpt>
      <trkpt lat="45.75716" lon="6.60096">
        <ele>1203</ele>
        <time>2022-08-16T11:56:56Z</time>
      </trkpt>
      <trkpt lat="45.75709" lon="6.60086">
        <ele>1202</ele>
        <time>2022-08-16T11:56:57Z</time>
      </trkpt>
      <trkpt lat="45.75704" lon="6.60075">
        <ele>1201</ele>
        <time>2022-08-16T11:56:58Z</time>
      </trkpt>
      <trkpt lat="45.75698" lon="6.60064">
        <ele>1200</ele>
        <time>2022-08-16T11:56:59Z</time>
      </trkpt>
      <trkpt lat="45.75692" lon="6.60053">
        <ele>1199</ele>
        <time>2022-08-16T11:57:00Z</time>
      </trkpt>
      <trkpt lat="45.75687" lon="6.60042">
        <ele>1199</ele>
        <time>2022-08-16T11:57:01Z</time>
      </trkpt>
      <trkpt lat="45.75682" lon="6.60032">
        <ele>1198</ele>
        <time>2022-08-16T11:57:02Z</time>
      </trkpt>
      <trkpt lat="45.75679" lon="6.60021">
        <ele>1198</ele>
        <time>2022-08-16T11:57:03Z</time>
      </trkpt>
      <trkpt lat="45.75676" lon="6.6001">
        <ele>1198</ele>
        <time>2022-08-16T11:57:04Z</time>
      </trkpt>
      <trkpt lat="45.75675" lon="6.59999">
        <ele>1197</ele>
        <time>2022-08-16T11:57:05Z</time>
      </trkpt>
      <trkpt lat="45.75674" lon="6.59988">
        <ele>1197</ele>
        <time>2022-08-16T11:57:06Z</time>
      </trkpt>
      <trkpt lat="45.75671" lon="6.59976">
        <ele>1196</ele>
        <time>2022-08-16T11:57:07Z</time>
      </trkpt>
      <trkpt lat="45.75667" lon="6.59965">
        <ele>1195</ele>
        <time>2022-08-16T11:57:08Z</time>
      </trkpt>
      <trkpt lat="45.75663" lon="6.59954">
        <ele>1195</ele>
        <time>2022-08-16T11:57:09Z</time>
      </trkpt>
      <trkpt lat="45.75657" lon="6.59944">
        <ele>1194</ele>
        <time>2022-08-16T11:57:10Z</time>
      </trkpt>
      <trkpt lat="45.75651" lon="6.59933">
        <ele>1193</ele>
        <time>2022-08-16T11:57:11Z</time>
      </trkpt>
      <trkpt lat="45.75645" lon="6.59922">
        <ele>1192</ele>
        <time>2022-08-16T11:57:12Z</time>
      </trkpt>
      <trkpt lat="45.7564" lon="6.5991">
        <ele>1192</ele>
        <time>2022-08-16T11:57:13Z</time>
      </trkpt>
      <trkpt lat="45.75636" lon="6.59898">
        <ele>1192</ele>
        <time>2022-08-16T11:57:14Z</time>
      </trkpt>
      <trkpt lat="45.75633" lon="6.59886">
        <ele>1191</ele>
        <time>2022-08-16T11:57:15Z</time>
      </trkpt>
      <trkpt lat="45.75629" lon="6.59876">
        <ele>1191</ele>
        <time>2022-08-16T11:57:16Z</time>
      </trkpt>
      <trkpt lat="45.75627" lon="6.59865">
        <ele>1191</ele>
        <time>2022-08-16T11:57:17Z</time>
      </trkpt>
      <trkpt lat="45.75624" lon="6.59854">
        <ele>1190</ele>
        <time>2022-08-16T11:57:18Z</time>
      </trkpt>
      <trkpt lat="45.75621" lon="6.59844">
        <ele>1191</ele>
        <time>2022-08-16T11:57:19Z</time>
      </trkpt>
      <trkpt lat="45.75618" lon="6.59835">
        <ele>1191</ele>
        <time>2022-08-16T11:57:20Z</time>
      </trkpt>
      <trkpt lat="45.75614" lon="6.59825">
        <ele>1191</ele>
        <time>2022-08-16T11:57:21Z</time>
      </trkpt>
      <trkpt lat="45.75611" lon="6.59817">
        <ele>1191</ele>
        <time>2022-08-16T11:57:22Z</time>
      </trkpt>
      <trkpt lat="45.75607" lon="6.59807">
        <ele>1190</ele>
        <time>2022-08-16T11:57:23Z</time>
      </trkpt>
      <trkpt lat="45.75603" lon="6.59798">
        <ele>1190</ele>
        <time>2022-08-16T11:57:24Z</time>
      </trkpt>
      <trkpt lat="45.75599" lon="6.59789">
        <ele>1190</ele>
        <time>2022-08-16T11:57:25Z</time>
      </trkpt>
      <trkpt lat="45.75595" lon="6.59779">
        <ele>1189</ele>
        <time>2022-08-16T11:57:26Z</time>
      </trkpt>
      <trkpt lat="45.75591" lon="6.59768">
        <ele>1189</ele>
        <time>2022-08-16T11:57:27Z</time>
      </trkpt>
      <trkpt lat="45.75587" lon="6.59757">
        <ele>1188</ele>
        <time>2022-08-16T11:57:28Z</time>
      </trkpt>
      <trkpt lat="45.75583" lon="6.59746">
        <ele>1188</ele>
        <time>2022-08-16T11:57:29Z</time>
      </trkpt>
      <trkpt lat="45.75578" lon="6.59735">
        <ele>1187</ele>
        <time>2022-08-16T11:57:30Z</time>
      </trkpt>
      <trkpt lat="45.75574" lon="6.59724">
        <ele>1186</ele>
        <time>2022-08-16T11:57:31Z</time>
      </trkpt>
      <trkpt lat="45.7557" lon="6.59712">
        <ele>1185</ele>
        <time>2022-08-16T11:57:32Z</time>
      </trkpt>
      <trkpt lat="45.75565" lon="6.597">
        <ele>1185</ele>
        <time>2022-08-16T11:57:33Z</time>
      </trkpt>
      <trkpt lat="45.75561" lon="6.59688">
        <ele>1184</ele>
        <time>2022-08-16T11:57:34Z</time>
      </trkpt>
      <trkpt lat="45.75557" lon="6.59676">
        <ele>1184</ele>
        <time>2022-08-16T11:57:35Z</time>
      </trkpt>
      <trkpt lat="45.75554" lon="6.59664">
        <ele>1183</ele>
        <time>2022-08-16T11:57:36Z</time>
      </trkpt>
      <trkpt lat="45.75553" lon="6.59653">
        <ele>1182</ele>
        <time>2022-08-16T11:57:37Z</time>
      </trkpt>
      <trkpt lat="45.75553" lon="6.59643">
        <ele>1182</ele>
        <time>2022-08-16T11:57:38Z</time>
      </trkpt>
      <trkpt lat="45.75554" lon="6.59632">
        <ele>1182</ele>
        <time>2022-08-16T11:57:39Z</time>
      </trkpt>
      <trkpt lat="45.75555" lon="6.59621">
        <ele>1181</ele>
        <time>2022-08-16T11:57:40Z</time>
      </trkpt>
      <trkpt lat="45.75557" lon="6.59611">
        <ele>1181</ele>
        <time>2022-08-16T11:57:41Z</time>
      </trkpt>
      <trkpt lat="45.75559" lon="6.596">
        <ele>1181</ele>
        <time>2022-08-16T11:57:42Z</time>
      </trkpt>
      <trkpt lat="45.75561" lon="6.59589">
        <ele>1180</ele>
        <time>2022-08-16T11:57:43Z</time>
      </trkpt>
      <trkpt lat="45.75564" lon="6.59579">
        <ele>1179</ele>
        <time>2022-08-16T11:57:44Z</time>
      </trkpt>
      <trkpt lat="45.75567" lon="6.5957">
        <ele>1178</ele>
        <time>2022-08-16T11:57:45Z</time>
      </trkpt>
      <trkpt lat="45.75572" lon="6.59564">
        <ele>1178</ele>
        <time>2022-08-16T11:57:46Z</time>
      </trkpt>
      <trkpt lat="45.75576" lon="6.59559">
        <ele>1177</ele>
        <time>2022-08-16T11:57:47Z</time>
      </trkpt>
      <trkpt lat="45.7558" lon="6.59554">
        <ele>1176</ele>
        <time>2022-08-16T11:57:48Z</time>
      </trkpt>
      <trkpt lat="45.75585" lon="6.5955">
        <ele>1176</ele>
        <time>2022-08-16T11:57:49Z</time>
      </trkpt>
      <trkpt lat="45.75589" lon="6.59544">
        <ele>1176</ele>
        <time>2022-08-16T11:57:50Z</time>
      </trkpt>
      <trkpt lat="45.75591" lon="6.59537">
        <ele>1176</ele>
        <time>2022-08-16T11:57:51Z</time>
      </trkpt>
      <trkpt lat="45.75592" lon="6.59529">
        <ele>1176</ele>
        <time>2022-08-16T11:57:52Z</time>
      </trkpt>
      <trkpt lat="45.7559" lon="6.59521">
        <ele>1176</ele>
        <time>2022-08-16T11:57:53Z</time>
      </trkpt>
      <trkpt lat="45.75588" lon="6.59514">
        <ele>1176</ele>
        <time>2022-08-16T11:57:54Z</time>
      </trkpt>
      <trkpt lat="45.75583" lon="6.59508">
        <ele>1176</ele>
        <time>2022-08-16T11:57:55Z</time>
      </trkpt>
      <trkpt lat="45.75578" lon="6.59503">
        <ele>1176</ele>
        <time>2022-08-16T11:57:56Z</time>
      </trkpt>
      <trkpt lat="45.75572" lon="6.59499">
        <ele>1176</ele>
        <time>2022-08-16T11:57:57Z</time>
      </trkpt>
      <trkpt lat="45.75566" lon="6.59494">
        <ele>1176</ele>
        <time>2022-08-16T11:57:58Z</time>
      </trkpt>
      <trkpt lat="45.7556" lon="6.59488">
        <ele>1176</ele>
        <time>2022-08-16T11:57:59Z</time>
      </trkpt>
      <trkpt lat="45.75553" lon="6.59481">
        <ele>1176</ele>
        <time>2022-08-16T11:58:00Z</time>
      </trkpt>
      <trkpt lat="45.75547" lon="6.59473">
        <ele>1176</ele>
        <time>2022-08-16T11:58:01Z</time>
      </trkpt>
      <trkpt lat="45.75541" lon="6.59466">
        <ele>1176</ele>
        <time>2022-08-16T11:58:02Z</time>
      </trkpt>
      <trkpt lat="45.75536" lon="6.59459">
        <ele>1176</ele>
        <time>2022-08-16T11:58:03Z</time>
      </trkpt>
      <trkpt lat="45.75532" lon="6.59452">
        <ele>1176</ele>
        <time>2022-08-16T11:58:04Z</time>
      </trkpt>
      <trkpt lat="45.75528" lon="6.59445">
        <ele>1176</ele>
        <time>2022-08-16T11:58:05Z</time>
      </trkpt>
      <trkpt lat="45.75524" lon="6.59438">
        <ele>1175</ele>
        <time>2022-08-16T11:58:06Z</time>
      </trkpt>
      <trkpt lat="45.75521" lon="6.59429">
        <ele>1175</ele>
        <time>2022-08-16T11:58:07Z</time>
      </trkpt>
      <trkpt lat="45.75519" lon="6.59422">
        <ele>1175</ele>
        <time>2022-08-16T11:58:08Z</time>
      </trkpt>
      <trkpt lat="45.75517" lon="6.59414">
        <ele>1175</ele>
        <time>2022-08-16T11:58:09Z</time>
      </trkpt>
      <trkpt lat="45.75516" lon="6.59407">
        <ele>1174</ele>
        <time>2022-08-16T11:58:10Z</time>
      </trkpt>
      <trkpt lat="45.75515" lon="6.59398">
        <ele>1174</ele>
        <time>2022-08-16T11:58:11Z</time>
      </trkpt>
      <trkpt lat="45.75513" lon="6.59389">
        <ele>1174</ele>
        <time>2022-08-16T11:58:12Z</time>
      </trkpt>
      <trkpt lat="45.7551" lon="6.59381">
        <ele>1173</ele>
        <time>2022-08-16T11:58:13Z</time>
      </trkpt>
      <trkpt lat="45.75508" lon="6.59372">
        <ele>1172</ele>
        <time>2022-08-16T11:58:14Z</time>
      </trkpt>
      <trkpt lat="45.75505" lon="6.59363">
        <ele>1172</ele>
        <time>2022-08-16T11:58:15Z</time>
      </trkpt>
      <trkpt lat="45.75502" lon="6.59354">
        <ele>1171</ele>
        <time>2022-08-16T11:58:16Z</time>
      </trkpt>
      <trkpt lat="45.75499" lon="6.59345">
        <ele>1171</ele>
        <time>2022-08-16T11:58:17Z</time>
      </trkpt>
      <trkpt lat="45.75497" lon="6.59336">
        <ele>1170</ele>
        <time>2022-08-16T11:58:18Z</time>
      </trkpt>
      <trkpt lat="45.75494" lon="6.59327">
        <ele>1170</ele>
        <time>2022-08-16T11:58:19Z</time>
      </trkpt>
      <trkpt lat="45.7549" lon="6.59318">
        <ele>1169</ele>
        <time>2022-08-16T11:58:20Z</time>
      </trkpt>
      <trkpt lat="45.75487" lon="6.59309">
        <ele>1169</ele>
        <time>2022-08-16T11:58:21Z</time>
      </trkpt>
      <trkpt lat="45.75483" lon="6.59299">
        <ele>1168</ele>
        <time>2022-08-16T11:58:22Z</time>
      </trkpt>
      <trkpt lat="45.75479" lon="6.59288">
        <ele>1168</ele>
        <time>2022-08-16T11:58:23Z</time>
      </trkpt>
      <trkpt lat="45.75476" lon="6.59278">
        <ele>1168</ele>
        <time>2022-08-16T11:58:24Z</time>
      </trkpt>
      <trkpt lat="45.75472" lon="6.59267">
        <ele>1167</ele>
        <time>2022-08-16T11:58:25Z</time>
      </trkpt>
      <trkpt lat="45.75468" lon="6.59257">
        <ele>1167</ele>
        <time>2022-08-16T11:58:26Z</time>
      </trkpt>
      <trkpt lat="45.75464" lon="6.59247">
        <ele>1167</ele>
        <time>2022-08-16T11:58:27Z</time>
      </trkpt>
      <trkpt lat="45.7546" lon="6.59237">
        <ele>1166</ele>
        <time>2022-08-16T11:58:28Z</time>
      </trkpt>
      <trkpt lat="45.75455" lon="6.5923">
        <ele>1166</ele>
        <time>2022-08-16T11:58:29Z</time>
      </trkpt>
      <trkpt lat="45.75449" lon="6.59224">
        <ele>1166</ele>
        <time>2022-08-16T11:58:30Z</time>
      </trkpt>
      <trkpt lat="45.75443" lon="6.59219">
        <ele>1165</ele>
        <time>2022-08-16T11:58:31Z</time>
      </trkpt>
      <trkpt lat="45.75438" lon="6.59214">
        <ele>1165</ele>
        <time>2022-08-16T11:58:32Z</time>
      </trkpt>
      <trkpt lat="45.75435" lon="6.59209">
        <ele>1165</ele>
        <time>2022-08-16T11:58:33Z</time>
      </trkpt>
      <trkpt lat="45.75431" lon="6.59204">
        <ele>1165</ele>
        <time>2022-08-16T11:58:34Z</time>
      </trkpt>
      <trkpt lat="45.75428" lon="6.592">
        <ele>1166</ele>
        <time>2022-08-16T11:58:35Z</time>
      </trkpt>
      <trkpt lat="45.75425" lon="6.59196">
        <ele>1166</ele>
        <time>2022-08-16T11:58:36Z</time>
      </trkpt>
      <trkpt lat="45.75423" lon="6.59191">
        <ele>1165</ele>
        <time>2022-08-16T11:58:37Z</time>
      </trkpt>
      <trkpt lat="45.75422" lon="6.59188">
        <ele>1165</ele>
        <time>2022-08-16T11:58:38Z</time>
      </trkpt>
      <trkpt lat="45.7542" lon="6.59185">
        <ele>1165</ele>
        <time>2022-08-16T11:58:39Z</time>
      </trkpt>
      <trkpt lat="45.75419" lon="6.59182">
        <ele>1165</ele>
        <time>2022-08-16T11:58:40Z</time>
      </trkpt>
      <trkpt lat="45.75417" lon="6.59179">
        <ele>1165</ele>
        <time>2022-08-16T11:58:41Z</time>
      </trkpt>
      <trkpt lat="45.75416" lon="6.59177">
        <ele>1165</ele>
        <time>2022-08-16T11:58:42Z</time>
      </trkpt>
      <trkpt lat="45.75415" lon="6.59174">
        <ele>1166</ele>
        <time>2022-08-16T11:58:43Z</time>
      </trkpt>
      <trkpt lat="45.75413" lon="6.59172">
        <ele>1165</ele>
        <time>2022-08-16T11:58:44Z</time>
      </trkpt>
      <trkpt lat="45.75412" lon="6.59169">
        <ele>1165</ele>
        <time>2022-08-16T11:58:45Z</time>
      </trkpt>
      <trkpt lat="45.75411" lon="6.59166">
        <ele>1165</ele>
        <time>2022-08-16T11:58:46Z</time>
      </trkpt>
      <trkpt lat="45.7541" lon="6.59164">
        <ele>1165</ele>
        <time>2022-08-16T11:58:47Z</time>
      </trkpt>
      <trkpt lat="45.75409" lon="6.59161">
        <ele>1165</ele>
        <time>2022-08-16T11:58:48Z</time>
      </trkpt>
      <trkpt lat="45.75408" lon="6.59158">
        <ele>1165</ele>
        <time>2022-08-16T11:58:49Z</time>
      </trkpt>
      <trkpt lat="45.75406" lon="6.59156">
        <ele>1165</ele>
        <time>2022-08-16T11:58:50Z</time>
      </trkpt>
      <trkpt lat="45.75405" lon="6.59153">
        <ele>1165</ele>
        <time>2022-08-16T11:58:51Z</time>
      </trkpt>
      <trkpt lat="45.75404" lon="6.5915">
        <ele>1165</ele>
        <time>2022-08-16T11:58:52Z</time>
      </trkpt>
      <trkpt lat="45.75403" lon="6.59147">
        <ele>1165</ele>
        <time>2022-08-16T11:58:53Z</time>
      </trkpt>
      <trkpt lat="45.75402" lon="6.59144">
        <ele>1165</ele>
        <time>2022-08-16T11:58:54Z</time>
      </trkpt>
      <trkpt lat="45.75402" lon="6.59141">
        <ele>1165</ele>
        <time>2022-08-16T11:58:55Z</time>
      </trkpt>
      <trkpt lat="45.75401" lon="6.59138">
        <ele>1166</ele>
        <time>2022-08-16T11:58:56Z</time>
      </trkpt>
      <trkpt lat="45.754" lon="6.59135">
        <ele>1165</ele>
        <time>2022-08-16T11:58:57Z</time>
      </trkpt>
      <trkpt lat="45.754" lon="6.59132">
        <ele>1165</ele>
        <time>2022-08-16T11:58:58Z</time>
      </trkpt>
      <trkpt lat="45.75399" lon="6.59129">
        <ele>1165</ele>
        <time>2022-08-16T11:58:59Z</time>
      </trkpt>
      <trkpt lat="45.75399" lon="6.59126">
        <ele>1165</ele>
        <time>2022-08-16T11:59:00Z</time>
      </trkpt>
      <trkpt lat="45.75398" lon="6.59123">
        <ele>1165</ele>
        <time>2022-08-16T11:59:01Z</time>
      </trkpt>
      <trkpt lat="45.75398" lon="6.5912">
        <ele>1165</ele>
        <time>2022-08-16T11:59:02Z</time>
      </trkpt>
      <trkpt lat="45.75397" lon="6.59117">
        <ele>1165</ele>
        <time>2022-08-16T11:59:03Z</time>
      </trkpt>
      <trkpt lat="45.75397" lon="6.59114">
        <ele>1165</ele>
        <time>2022-08-16T11:59:04Z</time>
      </trkpt>
      <trkpt lat="45.75396" lon="6.59112">
        <ele>1165</ele>
        <time>2022-08-16T11:59:05Z</time>
      </trkpt>
      <trkpt lat="45.75395" lon="6.5911">
        <ele>1165</ele>
        <time>2022-08-16T11:59:06Z</time>
      </trkpt>
      <trkpt lat="45.75394" lon="6.59107">
        <ele>1165</ele>
        <time>2022-08-16T11:59:07Z</time>
      </trkpt>
      <trkpt lat="45.75393" lon="6.59105">
        <ele>1166</ele>
        <time>2022-08-16T11:59:08Z</time>
      </trkpt>
      <trkpt lat="45.75392" lon="6.59102">
        <ele>1165</ele>
        <time>2022-08-16T11:59:09Z</time>
      </trkpt>
      <trkpt lat="45.7539" lon="6.591">
        <ele>1165</ele>
        <time>2022-08-16T11:59:10Z</time>
      </trkpt>
      <trkpt lat="45.75389" lon="6.59098">
        <ele>1165</ele>
        <time>2022-08-16T11:59:11Z</time>
      </trkpt>
      <trkpt lat="45.75387" lon="6.59097">
        <ele>1165</ele>
        <time>2022-08-16T11:59:12Z</time>
      </trkpt>
      <trkpt lat="45.75385" lon="6.59095">
        <ele>1165</ele>
        <time>2022-08-16T11:59:13Z</time>
      </trkpt>
      <trkpt lat="45.75384" lon="6.59093">
        <ele>1165</ele>
        <time>2022-08-16T11:59:14Z</time>
      </trkpt>
      <trkpt lat="45.75383" lon="6.59092">
        <ele>1166</ele>
        <time>2022-08-16T11:59:15Z</time>
      </trkpt>
      <trkpt lat="45.75382" lon="6.5909">
        <ele>1166</ele>
        <time>2022-08-16T11:59:16Z</time>
      </trkpt>
      <trkpt lat="45.75381" lon="6.59089">
        <ele>1166</ele>
        <time>2022-08-16T11:59:17Z</time>
      </trkpt>
      <trkpt lat="45.7538" lon="6.59087">
        <ele>1167</ele>
        <time>2022-08-16T11:59:18Z</time>
      </trkpt>
      <trkpt lat="45.75378" lon="6.59085">
        <ele>1167</ele>
        <time>2022-08-16T11:59:19Z</time>
      </trkpt>
      <trkpt lat="45.75376" lon="6.59084">
        <ele>1167</ele>
        <time>2022-08-16T11:59:20Z</time>
      </trkpt>
      <trkpt lat="45.75375" lon="6.59082">
        <ele>1167</ele>
        <time>2022-08-16T11:59:21Z</time>
      </trkpt>
      <trkpt lat="45.75373" lon="6.59081">
        <ele>1168</ele>
        <time>2022-08-16T11:59:22Z</time>
      </trkpt>
      <trkpt lat="45.75371" lon="6.5908">
        <ele>1168</ele>
        <time>2022-08-16T11:59:23Z</time>
      </trkpt>
      <trkpt lat="45.75369" lon="6.59078">
        <ele>1168</ele>
        <time>2022-08-16T11:59:24Z</time>
      </trkpt>
      <trkpt lat="45.75368" lon="6.59077">
        <ele>1168</ele>
        <time>2022-08-16T11:59:25Z</time>
      </trkpt>
      <trkpt lat="45.75366" lon="6.59075">
        <ele>1169</ele>
        <time>2022-08-16T11:59:26Z</time>
      </trkpt>
      <trkpt lat="45.75365" lon="6.59073">
        <ele>1169</ele>
        <time>2022-08-16T11:59:27Z</time>
      </trkpt>
      <trkpt lat="45.75363" lon="6.59072">
        <ele>1169</ele>
        <time>2022-08-16T11:59:28Z</time>
      </trkpt>
      <trkpt lat="45.75362" lon="6.59071">
        <ele>1169</ele>
        <time>2022-08-16T11:59:29Z</time>
      </trkpt>
      <trkpt lat="45.7536" lon="6.59069">
        <ele>1169</ele>
        <time>2022-08-16T11:59:30Z</time>
      </trkpt>
      <trkpt lat="45.75359" lon="6.59068">
        <ele>1170</ele>
        <time>2022-08-16T11:59:31Z</time>
      </trkpt>
      <trkpt lat="45.75357" lon="6.59066">
        <ele>1170</ele>
        <time>2022-08-16T11:59:32Z</time>
      </trkpt>
      <trkpt lat="45.75356" lon="6.59065">
        <ele>1170</ele>
        <time>2022-08-16T11:59:33Z</time>
      </trkpt>
      <trkpt lat="45.75355" lon="6.59063">
        <ele>1171</ele>
        <time>2022-08-16T11:59:34Z</time>
      </trkpt>
      <trkpt lat="45.75354" lon="6.59061">
        <ele>1171</ele>
        <time>2022-08-16T11:59:35Z</time>
      </trkpt>
      <trkpt lat="45.75352" lon="6.5906">
        <ele>1171</ele>
        <time>2022-08-16T11:59:36Z</time>
      </trkpt>
      <trkpt lat="45.75351" lon="6.59058">
        <ele>1171</ele>
        <time>2022-08-16T11:59:37Z</time>
      </trkpt>
      <trkpt lat="45.7535" lon="6.59057">
        <ele>1171</ele>
        <time>2022-08-16T11:59:38Z</time>
      </trkpt>
      <trkpt lat="45.75349" lon="6.59055">
        <ele>1172</ele>
        <time>2022-08-16T11:59:39Z</time>
      </trkpt>
      <trkpt lat="45.75348" lon="6.59054">
        <ele>1172</ele>
        <time>2022-08-16T11:59:40Z</time>
      </trkpt>
      <trkpt lat="45.75347" lon="6.59052">
        <ele>1172</ele>
        <time>2022-08-16T11:59:41Z</time>
      </trkpt>
      <trkpt lat="45.75345" lon="6.5905">
        <ele>1173</ele>
        <time>2022-08-16T11:59:42Z</time>
      </trkpt>
      <trkpt lat="45.75344" lon="6.59048">
        <ele>1173</ele>
        <time>2022-08-16T11:59:43Z</time>
      </trkpt>
      <trkpt lat="45.75343" lon="6.59046">
        <ele>1173</ele>
        <time>2022-08-16T11:59:44Z</time>
      </trkpt>
      <trkpt lat="45.75342" lon="6.59044">
        <ele>1173</ele>
        <time>2022-08-16T11:59:45Z</time>
      </trkpt>
      <trkpt lat="45.7534" lon="6.59042">
        <ele>1173</ele>
        <time>2022-08-16T11:59:46Z</time>
      </trkpt>
      <trkpt lat="45.75339" lon="6.59041">
        <ele>1174</ele>
        <time>2022-08-16T11:59:47Z</time>
      </trkpt>
      <trkpt lat="45.75338" lon="6.59039">
        <ele>1174</ele>
        <time>2022-08-16T11:59:48Z</time>
      </trkpt>
      <trkpt lat="45.75336" lon="6.59038">
        <ele>1174</ele>
        <time>2022-08-16T11:59:49Z</time>
      </trkpt>
      <trkpt lat="45.75335" lon="6.59035">
        <ele>1174</ele>
        <time>2022-08-16T11:59:50Z</time>
      </trkpt>
      <trkpt lat="45.75333" lon="6.59033">
        <ele>1175</ele>
        <time>2022-08-16T11:59:51Z</time>
      </trkpt>
      <trkpt lat="45.75333" lon="6.5903">
        <ele>1175</ele>
        <time>2022-08-16T11:59:52Z</time>
      </trkpt>
      <trkpt lat="45.75331" lon="6.59028">
        <ele>1175</ele>
        <time>2022-08-16T11:59:53Z</time>
      </trkpt>
      <trkpt lat="45.7533" lon="6.59026">
        <ele>1176</ele>
        <time>2022-08-16T11:59:54Z</time>
      </trkpt>
      <trkpt lat="45.75329" lon="6.59024">
        <ele>1176</ele>
        <time>2022-08-16T11:59:55Z</time>
      </trkpt>
      <trkpt lat="45.75328" lon="6.59022">
        <ele>1176</ele>
        <time>2022-08-16T11:59:56Z</time>
      </trkpt>
      <trkpt lat="45.75327" lon="6.59019">
        <ele>1175</ele>
        <time>2022-08-16T11:59:57Z</time>
      </trkpt>
      <trkpt lat="45.75326" lon="6.59017">
        <ele>1175</ele>
        <time>2022-08-16T11:59:58Z</time>
      </trkpt>
      <trkpt lat="45.75325" lon="6.59015">
        <ele>1175</ele>
        <time>2022-08-16T11:59:59Z</time>
      </trkpt>
      <trkpt lat="45.75324" lon="6.59014">
        <ele>1175</ele>
        <time>2022-08-16T12:00:00Z</time>
      </trkpt>
      <trkpt lat="45.75322" lon="6.59011">
        <ele>1176</ele>
        <time>2022-08-16T12:00:01Z</time>
      </trkpt>
      <trkpt lat="45.75321" lon="6.59009">
        <ele>1176</ele>
        <time>2022-08-16T12:00:02Z</time>
      </trkpt>
      <trkpt lat="45.7532" lon="6.59007">
        <ele>1177</ele>
        <time>2022-08-16T12:00:03Z</time>
      </trkpt>
      <trkpt lat="45.75319" lon="6.59005">
        <ele>1176</ele>
        <time>2022-08-16T12:00:04Z</time>
      </trkpt>
      <trkpt lat="45.75318" lon="6.59002">
        <ele>1177</ele>
        <time>2022-08-16T12:00:05Z</time>
      </trkpt>
      <trkpt lat="45.75317" lon="6.59">
        <ele>1177</ele>
        <time>2022-08-16T12:00:06Z</time>
      </trkpt>
      <trkpt lat="45.75316" lon="6.58998">
        <ele>1178</ele>
        <time>2022-08-16T12:00:07Z</time>
      </trkpt>
      <trkpt lat="45.75315" lon="6.58996">
        <ele>1178</ele>
        <time>2022-08-16T12:00:08Z</time>
      </trkpt>
      <trkpt lat="45.75313" lon="6.58994">
        <ele>1178</ele>
        <time>2022-08-16T12:00:09Z</time>
      </trkpt>
      <trkpt lat="45.75313" lon="6.58991">
        <ele>1178</ele>
        <time>2022-08-16T12:00:10Z</time>
      </trkpt>
      <trkpt lat="45.75312" lon="6.58989">
        <ele>1178</ele>
        <time>2022-08-16T12:00:11Z</time>
      </trkpt>
      <trkpt lat="45.75311" lon="6.58986">
        <ele>1177</ele>
        <time>2022-08-16T12:00:12Z</time>
      </trkpt>
      <trkpt lat="45.7531" lon="6.58985">
        <ele>1178</ele>
        <time>2022-08-16T12:00:13Z</time>
      </trkpt>
      <trkpt lat="45.75308" lon="6.58983">
        <ele>1178</ele>
        <time>2022-08-16T12:00:14Z</time>
      </trkpt>
      <trkpt lat="45.75307" lon="6.58982">
        <ele>1178</ele>
        <time>2022-08-16T12:00:15Z</time>
      </trkpt>
      <trkpt lat="45.75306" lon="6.58979">
        <ele>1178</ele>
        <time>2022-08-16T12:00:16Z</time>
      </trkpt>
      <trkpt lat="45.75304" lon="6.58977">
        <ele>1178</ele>
        <time>2022-08-16T12:00:17Z</time>
      </trkpt>
      <trkpt lat="45.75303" lon="6.58975">
        <ele>1178</ele>
        <time>2022-08-16T12:00:18Z</time>
      </trkpt>
      <trkpt lat="45.75301" lon="6.58973">
        <ele>1177</ele>
        <time>2022-08-16T12:00:19Z</time>
      </trkpt>
      <trkpt lat="45.753" lon="6.58971">
        <ele>1177</ele>
        <time>2022-08-16T12:00:20Z</time>
      </trkpt>
      <trkpt lat="45.75299" lon="6.58969">
        <ele>1178</ele>
        <time>2022-08-16T12:00:21Z</time>
      </trkpt>
      <trkpt lat="45.75298" lon="6.58967">
        <ele>1177</ele>
        <time>2022-08-16T12:00:22Z</time>
      </trkpt>
      <trkpt lat="45.75296" lon="6.58965">
        <ele>1177</ele>
        <time>2022-08-16T12:00:23Z</time>
      </trkpt>
      <trkpt lat="45.75295" lon="6.58962">
        <ele>1178</ele>
        <time>2022-08-16T12:00:24Z</time>
      </trkpt>
      <trkpt lat="45.75294" lon="6.5896">
        <ele>1178</ele>
        <time>2022-08-16T12:00:25Z</time>
      </trkpt>
      <trkpt lat="45.75293" lon="6.58957">
        <ele>1178</ele>
        <time>2022-08-16T12:00:26Z</time>
      </trkpt>
      <trkpt lat="45.75292" lon="6.58955">
        <ele>1178</ele>
        <time>2022-08-16T12:00:27Z</time>
      </trkpt>
      <trkpt lat="45.7529" lon="6.58953">
        <ele>1177</ele>
        <time>2022-08-16T12:00:28Z</time>
      </trkpt>
      <trkpt lat="45.75289" lon="6.58951">
        <ele>1178</ele>
        <time>2022-08-16T12:00:29Z</time>
      </trkpt>
      <trkpt lat="45.75287" lon="6.58948">
        <ele>1178</ele>
        <time>2022-08-16T12:00:30Z</time>
      </trkpt>
      <trkpt lat="45.75286" lon="6.58945">
        <ele>1178</ele>
        <time>2022-08-16T12:00:31Z</time>
      </trkpt>
      <trkpt lat="45.75285" lon="6.58942">
        <ele>1178</ele>
        <time>2022-08-16T12:00:32Z</time>
      </trkpt>
      <trkpt lat="45.75284" lon="6.58939">
        <ele>1178</ele>
        <time>2022-08-16T12:00:33Z</time>
      </trkpt>
      <trkpt lat="45.75282" lon="6.58936">
        <ele>1178</ele>
        <time>2022-08-16T12:00:34Z</time>
      </trkpt>
      <trkpt lat="45.75281" lon="6.58934">
        <ele>1178</ele>
        <time>2022-08-16T12:00:35Z</time>
      </trkpt>
      <trkpt lat="45.7528" lon="6.58931">
        <ele>1177</ele>
        <time>2022-08-16T12:00:36Z</time>
      </trkpt>
      <trkpt lat="45.75279" lon="6.58929">
        <ele>1176</ele>
        <time>2022-08-16T12:00:37Z</time>
      </trkpt>
      <trkpt lat="45.75277" lon="6.58927">
        <ele>1176</ele>
        <time>2022-08-16T12:00:38Z</time>
      </trkpt>
      <trkpt lat="45.75276" lon="6.58924">
        <ele>1176</ele>
        <time>2022-08-16T12:00:39Z</time>
      </trkpt>
      <trkpt lat="45.75274" lon="6.58922">
        <ele>1176</ele>
        <time>2022-08-16T12:00:40Z</time>
      </trkpt>
      <trkpt lat="45.75273" lon="6.5892">
        <ele>1177</ele>
        <time>2022-08-16T12:00:41Z</time>
      </trkpt>
      <trkpt lat="45.75271" lon="6.58917">
        <ele>1177</ele>
        <time>2022-08-16T12:00:42Z</time>
      </trkpt>
      <trkpt lat="45.7527" lon="6.58914">
        <ele>1178</ele>
        <time>2022-08-16T12:00:43Z</time>
      </trkpt>
      <trkpt lat="45.75269" lon="6.58911">
        <ele>1178</ele>
        <time>2022-08-16T12:00:44Z</time>
      </trkpt>
      <trkpt lat="45.75267" lon="6.58908">
        <ele>1178</ele>
        <time>2022-08-16T12:00:45Z</time>
      </trkpt>
      <trkpt lat="45.75265" lon="6.58905">
        <ele>1178</ele>
        <time>2022-08-16T12:00:46Z</time>
      </trkpt>
      <trkpt lat="45.75263" lon="6.58902">
        <ele>1179</ele>
        <time>2022-08-16T12:00:47Z</time>
      </trkpt>
      <trkpt lat="45.75261" lon="6.58899">
        <ele>1179</ele>
        <time>2022-08-16T12:00:48Z</time>
      </trkpt>
      <trkpt lat="45.75259" lon="6.58896">
        <ele>1179</ele>
        <time>2022-08-16T12:00:49Z</time>
      </trkpt>
      <trkpt lat="45.75257" lon="6.58893">
        <ele>1180</ele>
        <time>2022-08-16T12:00:50Z</time>
      </trkpt>
      <trkpt lat="45.75256" lon="6.5889">
        <ele>1180</ele>
        <time>2022-08-16T12:00:51Z</time>
      </trkpt>
      <trkpt lat="45.75254" lon="6.58887">
        <ele>1180</ele>
        <time>2022-08-16T12:00:52Z</time>
      </trkpt>
      <trkpt lat="45.75252" lon="6.58883">
        <ele>1181</ele>
        <time>2022-08-16T12:00:53Z</time>
      </trkpt>
      <trkpt lat="45.7525" lon="6.5888">
        <ele>1182</ele>
        <time>2022-08-16T12:00:54Z</time>
      </trkpt>
      <trkpt lat="45.75248" lon="6.58877">
        <ele>1183</ele>
        <time>2022-08-16T12:00:55Z</time>
      </trkpt>
      <trkpt lat="45.75246" lon="6.58874">
        <ele>1183</ele>
        <time>2022-08-16T12:00:56Z</time>
      </trkpt>
      <trkpt lat="45.75244" lon="6.58871">
        <ele>1183</ele>
        <time>2022-08-16T12:00:57Z</time>
      </trkpt>
      <trkpt lat="45.75242" lon="6.58867">
        <ele>1183</ele>
        <time>2022-08-16T12:00:58Z</time>
      </trkpt>
      <trkpt lat="45.7524" lon="6.58864">
        <ele>1184</ele>
        <time>2022-08-16T12:00:59Z</time>
      </trkpt>
      <trkpt lat="45.75238" lon="6.5886">
        <ele>1184</ele>
        <time>2022-08-16T12:01:00Z</time>
      </trkpt>
      <trkpt lat="45.75236" lon="6.58857">
        <ele>1184</ele>
        <time>2022-08-16T12:01:01Z</time>
      </trkpt>
      <trkpt lat="45.75234" lon="6.58855">
        <ele>1185</ele>
        <time>2022-08-16T12:01:02Z</time>
      </trkpt>
      <trkpt lat="45.75232" lon="6.58851">
        <ele>1185</ele>
        <time>2022-08-16T12:01:03Z</time>
      </trkpt>
      <trkpt lat="45.75231" lon="6.58849">
        <ele>1186</ele>
        <time>2022-08-16T12:01:04Z</time>
      </trkpt>
      <trkpt lat="45.75229" lon="6.58846">
        <ele>1186</ele>
        <time>2022-08-16T12:01:05Z</time>
      </trkpt>
      <trkpt lat="45.75228" lon="6.58843">
        <ele>1187</ele>
        <time>2022-08-16T12:01:06Z</time>
      </trkpt>
      <trkpt lat="45.75226" lon="6.5884">
        <ele>1187</ele>
        <time>2022-08-16T12:01:07Z</time>
      </trkpt>
      <trkpt lat="45.75225" lon="6.58836">
        <ele>1187</ele>
        <time>2022-08-16T12:01:08Z</time>
      </trkpt>
      <trkpt lat="45.75223" lon="6.58833">
        <ele>1187</ele>
        <time>2022-08-16T12:01:09Z</time>
      </trkpt>
      <trkpt lat="45.75221" lon="6.58829">
        <ele>1188</ele>
        <time>2022-08-16T12:01:10Z</time>
      </trkpt>
      <trkpt lat="45.75219" lon="6.58825">
        <ele>1189</ele>
        <time>2022-08-16T12:01:11Z</time>
      </trkpt>
      <trkpt lat="45.75217" lon="6.58822">
        <ele>1189</ele>
        <time>2022-08-16T12:01:12Z</time>
      </trkpt>
      <trkpt lat="45.75215" lon="6.58818">
        <ele>1189</ele>
        <time>2022-08-16T12:01:13Z</time>
      </trkpt>
      <trkpt lat="45.75213" lon="6.58815">
        <ele>1189</ele>
        <time>2022-08-16T12:01:14Z</time>
      </trkpt>
      <trkpt lat="45.75211" lon="6.58812">
        <ele>1189</ele>
        <time>2022-08-16T12:01:15Z</time>
      </trkpt>
      <trkpt lat="45.75209" lon="6.58809">
        <ele>1189</ele>
        <time>2022-08-16T12:01:16Z</time>
      </trkpt>
      <trkpt lat="45.75207" lon="6.58807">
        <ele>1189</ele>
        <time>2022-08-16T12:01:17Z</time>
      </trkpt>
      <trkpt lat="45.75206" lon="6.58804">
        <ele>1189</ele>
        <time>2022-08-16T12:01:18Z</time>
      </trkpt>
      <trkpt lat="45.75204" lon="6.58802">
        <ele>1189</ele>
        <time>2022-08-16T12:01:19Z</time>
      </trkpt>
      <trkpt lat="45.75202" lon="6.58798">
        <ele>1189</ele>
        <time>2022-08-16T12:01:20Z</time>
      </trkpt>
      <trkpt lat="45.752" lon="6.58795">
        <ele>1189</ele>
        <time>2022-08-16T12:01:21Z</time>
      </trkpt>
      <trkpt lat="45.75198" lon="6.58792">
        <ele>1189</ele>
        <time>2022-08-16T12:01:22Z</time>
      </trkpt>
      <trkpt lat="45.75196" lon="6.58789">
        <ele>1189</ele>
        <time>2022-08-16T12:01:23Z</time>
      </trkpt>
      <trkpt lat="45.75194" lon="6.58785">
        <ele>1189</ele>
        <time>2022-08-16T12:01:24Z</time>
      </trkpt>
      <trkpt lat="45.75191" lon="6.58781">
        <ele>1189</ele>
        <time>2022-08-16T12:01:25Z</time>
      </trkpt>
      <trkpt lat="45.75189" lon="6.58777">
        <ele>1188</ele>
        <time>2022-08-16T12:01:26Z</time>
      </trkpt>
      <trkpt lat="45.75187" lon="6.58773">
        <ele>1188</ele>
        <time>2022-08-16T12:01:27Z</time>
      </trkpt>
      <trkpt lat="45.75185" lon="6.5877">
        <ele>1188</ele>
        <time>2022-08-16T12:01:28Z</time>
      </trkpt>
      <trkpt lat="45.75183" lon="6.58767">
        <ele>1188</ele>
        <time>2022-08-16T12:01:29Z</time>
      </trkpt>
      <trkpt lat="45.75181" lon="6.58764">
        <ele>1189</ele>
        <time>2022-08-16T12:01:30Z</time>
      </trkpt>
      <trkpt lat="45.75179" lon="6.5876">
        <ele>1189</ele>
        <time>2022-08-16T12:01:31Z</time>
      </trkpt>
      <trkpt lat="45.75178" lon="6.58757">
        <ele>1189</ele>
        <time>2022-08-16T12:01:32Z</time>
      </trkpt>
      <trkpt lat="45.75176" lon="6.58753">
        <ele>1189</ele>
        <time>2022-08-16T12:01:33Z</time>
      </trkpt>
      <trkpt lat="45.75174" lon="6.5875">
        <ele>1190</ele>
        <time>2022-08-16T12:01:34Z</time>
      </trkpt>
      <trkpt lat="45.75173" lon="6.58747">
        <ele>1190</ele>
        <time>2022-08-16T12:01:35Z</time>
      </trkpt>
      <trkpt lat="45.75171" lon="6.58745">
        <ele>1190</ele>
        <time>2022-08-16T12:01:36Z</time>
      </trkpt>
      <trkpt lat="45.75169" lon="6.58742">
        <ele>1190</ele>
        <time>2022-08-16T12:01:37Z</time>
      </trkpt>
      <trkpt lat="45.75167" lon="6.5874">
        <ele>1190</ele>
        <time>2022-08-16T12:01:38Z</time>
      </trkpt>
      <trkpt lat="45.75165" lon="6.58737">
        <ele>1190</ele>
        <time>2022-08-16T12:01:39Z</time>
      </trkpt>
      <trkpt lat="45.75163" lon="6.58734">
        <ele>1191</ele>
        <time>2022-08-16T12:01:40Z</time>
      </trkpt>
      <trkpt lat="45.75162" lon="6.58731">
        <ele>1191</ele>
        <time>2022-08-16T12:01:41Z</time>
      </trkpt>
      <trkpt lat="45.7516" lon="6.58728">
        <ele>1192</ele>
        <time>2022-08-16T12:01:42Z</time>
      </trkpt>
      <trkpt lat="45.75158" lon="6.58724">
        <ele>1192</ele>
        <time>2022-08-16T12:01:43Z</time>
      </trkpt>
      <trkpt lat="45.75157" lon="6.58721">
        <ele>1192</ele>
        <time>2022-08-16T12:01:44Z</time>
      </trkpt>
      <trkpt lat="45.75155" lon="6.58717">
        <ele>1193</ele>
        <time>2022-08-16T12:01:45Z</time>
      </trkpt>
      <trkpt lat="45.75154" lon="6.58714">
        <ele>1192</ele>
        <time>2022-08-16T12:01:46Z</time>
      </trkpt>
      <trkpt lat="45.75152" lon="6.58711">
        <ele>1193</ele>
        <time>2022-08-16T12:01:47Z</time>
      </trkpt>
      <trkpt lat="45.75151" lon="6.58708">
        <ele>1193</ele>
        <time>2022-08-16T12:01:48Z</time>
      </trkpt>
      <trkpt lat="45.75149" lon="6.58704">
        <ele>1193</ele>
        <time>2022-08-16T12:01:49Z</time>
      </trkpt>
      <trkpt lat="45.75147" lon="6.58702">
        <ele>1194</ele>
        <time>2022-08-16T12:01:50Z</time>
      </trkpt>
      <trkpt lat="45.75145" lon="6.58698">
        <ele>1194</ele>
        <time>2022-08-16T12:01:51Z</time>
      </trkpt>
      <trkpt lat="45.75144" lon="6.58695">
        <ele>1194</ele>
        <time>2022-08-16T12:01:52Z</time>
      </trkpt>
      <trkpt lat="45.75142" lon="6.58691">
        <ele>1194</ele>
        <time>2022-08-16T12:01:53Z</time>
      </trkpt>
      <trkpt lat="45.75141" lon="6.58688">
        <ele>1194</ele>
        <time>2022-08-16T12:01:54Z</time>
      </trkpt>
      <trkpt lat="45.75139" lon="6.58685">
        <ele>1193</ele>
        <time>2022-08-16T12:01:55Z</time>
      </trkpt>
      <trkpt lat="45.75137" lon="6.58682">
        <ele>1193</ele>
        <time>2022-08-16T12:01:56Z</time>
      </trkpt>
      <trkpt lat="45.75136" lon="6.58679">
        <ele>1193</ele>
        <time>2022-08-16T12:01:57Z</time>
      </trkpt>
      <trkpt lat="45.75134" lon="6.58675">
        <ele>1193</ele>
        <time>2022-08-16T12:01:58Z</time>
      </trkpt>
      <trkpt lat="45.75133" lon="6.58672">
        <ele>1193</ele>
        <time>2022-08-16T12:01:59Z</time>
      </trkpt>
      <trkpt lat="45.75131" lon="6.58669">
        <ele>1193</ele>
        <time>2022-08-16T12:02:00Z</time>
      </trkpt>
      <trkpt lat="45.7513" lon="6.58666">
        <ele>1193</ele>
        <time>2022-08-16T12:02:01Z</time>
      </trkpt>
      <trkpt lat="45.75128" lon="6.58663">
        <ele>1193</ele>
        <time>2022-08-16T12:02:02Z</time>
      </trkpt>
      <trkpt lat="45.75126" lon="6.5866">
        <ele>1193</ele>
        <time>2022-08-16T12:02:03Z</time>
      </trkpt>
      <trkpt lat="45.75125" lon="6.58657">
        <ele>1193</ele>
        <time>2022-08-16T12:02:04Z</time>
      </trkpt>
      <trkpt lat="45.75123" lon="6.58654">
        <ele>1194</ele>
        <time>2022-08-16T12:02:05Z</time>
      </trkpt>
      <trkpt lat="45.75122" lon="6.5865">
        <ele>1194</ele>
        <time>2022-08-16T12:02:06Z</time>
      </trkpt>
      <trkpt lat="45.7512" lon="6.58648">
        <ele>1194</ele>
        <time>2022-08-16T12:02:07Z</time>
      </trkpt>
      <trkpt lat="45.75117" lon="6.58647">
        <ele>1194</ele>
        <time>2022-08-16T12:02:08Z</time>
      </trkpt>
      <trkpt lat="45.75115" lon="6.58645">
        <ele>1195</ele>
        <time>2022-08-16T12:02:09Z</time>
      </trkpt>
      <trkpt lat="45.75113" lon="6.58643">
        <ele>1194</ele>
        <time>2022-08-16T12:02:10Z</time>
      </trkpt>
      <trkpt lat="45.75111" lon="6.58642">
        <ele>1194</ele>
        <time>2022-08-16T12:02:11Z</time>
      </trkpt>
      <trkpt lat="45.7511" lon="6.5864">
        <ele>1195</ele>
        <time>2022-08-16T12:02:12Z</time>
      </trkpt>
      <trkpt lat="45.75109" lon="6.58638">
        <ele>1195</ele>
        <time>2022-08-16T12:02:13Z</time>
      </trkpt>
      <trkpt lat="45.75108" lon="6.58635">
        <ele>1195</ele>
        <time>2022-08-16T12:02:14Z</time>
      </trkpt>
      <trkpt lat="45.75106" lon="6.58632">
        <ele>1195</ele>
        <time>2022-08-16T12:02:15Z</time>
      </trkpt>
      <trkpt lat="45.75105" lon="6.58629">
        <ele>1195</ele>
        <time>2022-08-16T12:02:16Z</time>
      </trkpt>
      <trkpt lat="45.75103" lon="6.58626">
        <ele>1195</ele>
        <time>2022-08-16T12:02:17Z</time>
      </trkpt>
      <trkpt lat="45.75102" lon="6.58623">
        <ele>1195</ele>
        <time>2022-08-16T12:02:18Z</time>
      </trkpt>
      <trkpt lat="45.75101" lon="6.5862">
        <ele>1195</ele>
        <time>2022-08-16T12:02:19Z</time>
      </trkpt>
      <trkpt lat="45.75099" lon="6.58616">
        <ele>1195</ele>
        <time>2022-08-16T12:02:20Z</time>
      </trkpt>
      <trkpt lat="45.75097" lon="6.58613">
        <ele>1195</ele>
        <time>2022-08-16T12:02:21Z</time>
      </trkpt>
      <trkpt lat="45.75096" lon="6.5861">
        <ele>1195</ele>
        <time>2022-08-16T12:02:22Z</time>
      </trkpt>
      <trkpt lat="45.75094" lon="6.58607">
        <ele>1195</ele>
        <time>2022-08-16T12:02:23Z</time>
      </trkpt>
      <trkpt lat="45.75093" lon="6.58604">
        <ele>1195</ele>
        <time>2022-08-16T12:02:24Z</time>
      </trkpt>
      <trkpt lat="45.75091" lon="6.58602">
        <ele>1195</ele>
        <time>2022-08-16T12:02:25Z</time>
      </trkpt>
      <trkpt lat="45.7509" lon="6.58599">
        <ele>1195</ele>
        <time>2022-08-16T12:02:26Z</time>
      </trkpt>
      <trkpt lat="45.75088" lon="6.58595">
        <ele>1194</ele>
        <time>2022-08-16T12:02:27Z</time>
      </trkpt>
      <trkpt lat="45.75087" lon="6.58592">
        <ele>1194</ele>
        <time>2022-08-16T12:02:28Z</time>
      </trkpt>
      <trkpt lat="45.75085" lon="6.58589">
        <ele>1194</ele>
        <time>2022-08-16T12:02:29Z</time>
      </trkpt>
      <trkpt lat="45.75083" lon="6.58586">
        <ele>1193</ele>
        <time>2022-08-16T12:02:30Z</time>
      </trkpt>
      <trkpt lat="45.75082" lon="6.58583">
        <ele>1194</ele>
        <time>2022-08-16T12:02:31Z</time>
      </trkpt>
      <trkpt lat="45.75081" lon="6.58579">
        <ele>1194</ele>
        <time>2022-08-16T12:02:32Z</time>
      </trkpt>
      <trkpt lat="45.75081" lon="6.58576">
        <ele>1194</ele>
        <time>2022-08-16T12:02:33Z</time>
      </trkpt>
      <trkpt lat="45.7508" lon="6.58574">
        <ele>1194</ele>
        <time>2022-08-16T12:02:34Z</time>
      </trkpt>
      <trkpt lat="45.75079" lon="6.58571">
        <ele>1194</ele>
        <time>2022-08-16T12:02:35Z</time>
      </trkpt>
      <trkpt lat="45.75078" lon="6.58568">
        <ele>1194</ele>
        <time>2022-08-16T12:02:36Z</time>
      </trkpt>
      <trkpt lat="45.75077" lon="6.58564">
        <ele>1193</ele>
        <time>2022-08-16T12:02:37Z</time>
      </trkpt>
      <trkpt lat="45.75076" lon="6.58562">
        <ele>1193</ele>
        <time>2022-08-16T12:02:38Z</time>
      </trkpt>
      <trkpt lat="45.75074" lon="6.58559">
        <ele>1192</ele>
        <time>2022-08-16T12:02:39Z</time>
      </trkpt>
      <trkpt lat="45.75073" lon="6.58556">
        <ele>1192</ele>
        <time>2022-08-16T12:02:40Z</time>
      </trkpt>
      <trkpt lat="45.75072" lon="6.58552">
        <ele>1192</ele>
        <time>2022-08-16T12:02:41Z</time>
      </trkpt>
      <trkpt lat="45.75071" lon="6.5855">
        <ele>1193</ele>
        <time>2022-08-16T12:02:42Z</time>
      </trkpt>
      <trkpt lat="45.75069" lon="6.58547">
        <ele>1193</ele>
        <time>2022-08-16T12:02:43Z</time>
      </trkpt>
      <trkpt lat="45.75068" lon="6.58545">
        <ele>1192</ele>
        <time>2022-08-16T12:02:44Z</time>
      </trkpt>
      <trkpt lat="45.75066" lon="6.58542">
        <ele>1192</ele>
        <time>2022-08-16T12:02:45Z</time>
      </trkpt>
      <trkpt lat="45.75064" lon="6.58539">
        <ele>1193</ele>
        <time>2022-08-16T12:02:46Z</time>
      </trkpt>
      <trkpt lat="45.75062" lon="6.58537">
        <ele>1193</ele>
        <time>2022-08-16T12:02:47Z</time>
      </trkpt>
      <trkpt lat="45.75059" lon="6.58535">
        <ele>1193</ele>
        <time>2022-08-16T12:02:48Z</time>
      </trkpt>
      <trkpt lat="45.75056" lon="6.58532">
        <ele>1194</ele>
        <time>2022-08-16T12:02:49Z</time>
      </trkpt>
      <trkpt lat="45.75052" lon="6.5853">
        <ele>1194</ele>
        <time>2022-08-16T12:02:50Z</time>
      </trkpt>
      <trkpt lat="45.7505" lon="6.58526">
        <ele>1193</ele>
        <time>2022-08-16T12:02:51Z</time>
      </trkpt>
      <trkpt lat="45.75047" lon="6.5852">
        <ele>1194</ele>
        <time>2022-08-16T12:02:52Z</time>
      </trkpt>
      <trkpt lat="45.75044" lon="6.58513">
        <ele>1195</ele>
        <time>2022-08-16T12:02:53Z</time>
      </trkpt>
      <trkpt lat="45.75041" lon="6.58507">
        <ele>1195</ele>
        <time>2022-08-16T12:02:54Z</time>
      </trkpt>
      <trkpt lat="45.7504" lon="6.58501">
        <ele>1194</ele>
        <time>2022-08-16T12:02:55Z</time>
      </trkpt>
      <trkpt lat="45.75038" lon="6.58496">
        <ele>1194</ele>
        <time>2022-08-16T12:02:56Z</time>
      </trkpt>
      <trkpt lat="45.75035" lon="6.58491">
        <ele>1195</ele>
        <time>2022-08-16T12:02:57Z</time>
      </trkpt>
      <trkpt lat="45.75033" lon="6.58486">
        <ele>1195</ele>
        <time>2022-08-16T12:02:58Z</time>
      </trkpt>
      <trkpt lat="45.75029" lon="6.58482">
        <ele>1194</ele>
        <time>2022-08-16T12:02:59Z</time>
      </trkpt>
      <trkpt lat="45.75026" lon="6.58476">
        <ele>1194</ele>
        <time>2022-08-16T12:03:00Z</time>
      </trkpt>
      <trkpt lat="45.75024" lon="6.58471">
        <ele>1194</ele>
        <time>2022-08-16T12:03:01Z</time>
      </trkpt>
      <trkpt lat="45.75022" lon="6.58466">
        <ele>1194</ele>
        <time>2022-08-16T12:03:02Z</time>
      </trkpt>
      <trkpt lat="45.75019" lon="6.58462">
        <ele>1193</ele>
        <time>2022-08-16T12:03:03Z</time>
      </trkpt>
      <trkpt lat="45.75016" lon="6.58459">
        <ele>1192</ele>
        <time>2022-08-16T12:03:04Z</time>
      </trkpt>
      <trkpt lat="45.75013" lon="6.58457">
        <ele>1192</ele>
        <time>2022-08-16T12:03:05Z</time>
      </trkpt>
      <trkpt lat="45.7501" lon="6.58454">
        <ele>1191</ele>
        <time>2022-08-16T12:03:06Z</time>
      </trkpt>
      <trkpt lat="45.75008" lon="6.58451">
        <ele>1191</ele>
        <time>2022-08-16T12:03:07Z</time>
      </trkpt>
      <trkpt lat="45.75005" lon="6.58449">
        <ele>1191</ele>
        <time>2022-08-16T12:03:08Z</time>
      </trkpt>
      <trkpt lat="45.75003" lon="6.58445">
        <ele>1191</ele>
        <time>2022-08-16T12:03:09Z</time>
      </trkpt>
      <trkpt lat="45.75" lon="6.58442">
        <ele>1191</ele>
        <time>2022-08-16T12:03:10Z</time>
      </trkpt>
      <trkpt lat="45.74996" lon="6.58436">
        <ele>1191</ele>
        <time>2022-08-16T12:03:11Z</time>
      </trkpt>
      <trkpt lat="45.74993" lon="6.58431">
        <ele>1191</ele>
        <time>2022-08-16T12:03:12Z</time>
      </trkpt>
      <trkpt lat="45.74989" lon="6.58427">
        <ele>1192</ele>
        <time>2022-08-16T12:03:13Z</time>
      </trkpt>
      <trkpt lat="45.74985" lon="6.58421">
        <ele>1192</ele>
        <time>2022-08-16T12:03:14Z</time>
      </trkpt>
      <trkpt lat="45.74983" lon="6.58415">
        <ele>1193</ele>
        <time>2022-08-16T12:03:15Z</time>
      </trkpt>
      <trkpt lat="45.74981" lon="6.58407">
        <ele>1193</ele>
        <time>2022-08-16T12:03:16Z</time>
      </trkpt>
      <trkpt lat="45.7498" lon="6.58399">
        <ele>1194</ele>
        <time>2022-08-16T12:03:17Z</time>
      </trkpt>
      <trkpt lat="45.74977" lon="6.58393">
        <ele>1194</ele>
        <time>2022-08-16T12:03:18Z</time>
      </trkpt>
      <trkpt lat="45.74974" lon="6.58388">
        <ele>1194</ele>
        <time>2022-08-16T12:03:19Z</time>
      </trkpt>
      <trkpt lat="45.7497" lon="6.58385">
        <ele>1194</ele>
        <time>2022-08-16T12:03:20Z</time>
      </trkpt>
      <trkpt lat="45.74966" lon="6.58383">
        <ele>1195</ele>
        <time>2022-08-16T12:03:21Z</time>
      </trkpt>
      <trkpt lat="45.74962" lon="6.58381">
        <ele>1195</ele>
        <time>2022-08-16T12:03:22Z</time>
      </trkpt>
      <trkpt lat="45.74958" lon="6.58379">
        <ele>1195</ele>
        <time>2022-08-16T12:03:23Z</time>
      </trkpt>
      <trkpt lat="45.74955" lon="6.58377">
        <ele>1195</ele>
        <time>2022-08-16T12:03:24Z</time>
      </trkpt>
      <trkpt lat="45.74952" lon="6.58375">
        <ele>1195</ele>
        <time>2022-08-16T12:03:25Z</time>
      </trkpt>
      <trkpt lat="45.7495" lon="6.58372">
        <ele>1195</ele>
        <time>2022-08-16T12:03:26Z</time>
      </trkpt>
      <trkpt lat="45.74947" lon="6.58369">
        <ele>1195</ele>
        <time>2022-08-16T12:03:27Z</time>
      </trkpt>
      <trkpt lat="45.74944" lon="6.58365">
        <ele>1195</ele>
        <time>2022-08-16T12:03:28Z</time>
      </trkpt>
      <trkpt lat="45.74942" lon="6.58361">
        <ele>1195</ele>
        <time>2022-08-16T12:03:29Z</time>
      </trkpt>
      <trkpt lat="45.74939" lon="6.58357">
        <ele>1195</ele>
        <time>2022-08-16T12:03:30Z</time>
      </trkpt>
      <trkpt lat="45.74937" lon="6.58353">
        <ele>1195</ele>
        <time>2022-08-16T12:03:31Z</time>
      </trkpt>
      <trkpt lat="45.74936" lon="6.58349">
        <ele>1195</ele>
        <time>2022-08-16T12:03:32Z</time>
      </trkpt>
      <trkpt lat="45.74934" lon="6.58345">
        <ele>1194</ele>
        <time>2022-08-16T12:03:33Z</time>
      </trkpt>
      <trkpt lat="45.74931" lon="6.58341">
        <ele>1194</ele>
        <time>2022-08-16T12:03:34Z</time>
      </trkpt>
      <trkpt lat="45.74928" lon="6.58336">
        <ele>1193</ele>
        <time>2022-08-16T12:03:35Z</time>
      </trkpt>
      <trkpt lat="45.74926" lon="6.58332">
        <ele>1193</ele>
        <time>2022-08-16T12:03:36Z</time>
      </trkpt>
      <trkpt lat="45.74924" lon="6.58328">
        <ele>1193</ele>
        <time>2022-08-16T12:03:37Z</time>
      </trkpt>
      <trkpt lat="45.74923" lon="6.58325">
        <ele>1193</ele>
        <time>2022-08-16T12:03:38Z</time>
      </trkpt>
      <trkpt lat="45.74921" lon="6.58322">
        <ele>1193</ele>
        <time>2022-08-16T12:03:39Z</time>
      </trkpt>
      <trkpt lat="45.74919" lon="6.58318">
        <ele>1193</ele>
        <time>2022-08-16T12:03:40Z</time>
      </trkpt>
      <trkpt lat="45.74918" lon="6.58315">
        <ele>1193</ele>
        <time>2022-08-16T12:03:41Z</time>
      </trkpt>
      <trkpt lat="45.74916" lon="6.58311">
        <ele>1193</ele>
        <time>2022-08-16T12:03:42Z</time>
      </trkpt>
      <trkpt lat="45.74915" lon="6.58307">
        <ele>1193</ele>
        <time>2022-08-16T12:03:43Z</time>
      </trkpt>
      <trkpt lat="45.74914" lon="6.58303">
        <ele>1194</ele>
        <time>2022-08-16T12:03:44Z</time>
      </trkpt>
      <trkpt lat="45.74912" lon="6.58298">
        <ele>1194</ele>
        <time>2022-08-16T12:03:45Z</time>
      </trkpt>
      <trkpt lat="45.74911" lon="6.58294">
        <ele>1194</ele>
        <time>2022-08-16T12:03:46Z</time>
      </trkpt>
      <trkpt lat="45.7491" lon="6.58289">
        <ele>1194</ele>
        <time>2022-08-16T12:03:47Z</time>
      </trkpt>
      <trkpt lat="45.74909" lon="6.58285">
        <ele>1194</ele>
        <time>2022-08-16T12:03:48Z</time>
      </trkpt>
      <trkpt lat="45.74908" lon="6.58281">
        <ele>1194</ele>
        <time>2022-08-16T12:03:49Z</time>
      </trkpt>
      <trkpt lat="45.74907" lon="6.58277">
        <ele>1194</ele>
        <time>2022-08-16T12:03:50Z</time>
      </trkpt>
      <trkpt lat="45.74906" lon="6.58273">
        <ele>1194</ele>
        <time>2022-08-16T12:03:51Z</time>
      </trkpt>
      <trkpt lat="45.74905" lon="6.58269">
        <ele>1194</ele>
        <time>2022-08-16T12:03:52Z</time>
      </trkpt>
      <trkpt lat="45.74904" lon="6.58265">
        <ele>1194</ele>
        <time>2022-08-16T12:03:53Z</time>
      </trkpt>
      <trkpt lat="45.74904" lon="6.58262">
        <ele>1194</ele>
        <time>2022-08-16T12:03:54Z</time>
      </trkpt>
      <trkpt lat="45.74903" lon="6.58259">
        <ele>1194</ele>
        <time>2022-08-16T12:03:55Z</time>
      </trkpt>
      <trkpt lat="45.74902" lon="6.58256">
        <ele>1194</ele>
        <time>2022-08-16T12:03:56Z</time>
      </trkpt>
      <trkpt lat="45.74901" lon="6.58254">
        <ele>1194</ele>
        <time>2022-08-16T12:03:57Z</time>
      </trkpt>
      <trkpt lat="45.74901" lon="6.58251">
        <ele>1195</ele>
        <time>2022-08-16T12:03:58Z</time>
      </trkpt>
      <trkpt lat="45.749" lon="6.58249">
        <ele>1195</ele>
        <time>2022-08-16T12:03:59Z</time>
      </trkpt>
      <trkpt lat="45.749" lon="6.58245">
        <ele>1194</ele>
        <time>2022-08-16T12:04:00Z</time>
      </trkpt>
      <trkpt lat="45.74899" lon="6.58243">
        <ele>1194</ele>
        <time>2022-08-16T12:04:01Z</time>
      </trkpt>
      <trkpt lat="45.74898" lon="6.5824">
        <ele>1195</ele>
        <time>2022-08-16T12:04:02Z</time>
      </trkpt>
      <trkpt lat="45.74897" lon="6.58238">
        <ele>1195</ele>
        <time>2022-08-16T12:04:03Z</time>
      </trkpt>
      <trkpt lat="45.74896" lon="6.58235">
        <ele>1195</ele>
        <time>2022-08-16T12:04:04Z</time>
      </trkpt>
      <trkpt lat="45.74895" lon="6.58233">
        <ele>1195</ele>
        <time>2022-08-16T12:04:05Z</time>
      </trkpt>
      <trkpt lat="45.74895" lon="6.5823">
        <ele>1195</ele>
        <time>2022-08-16T12:04:06Z</time>
      </trkpt>
      <trkpt lat="45.74894" lon="6.58227">
        <ele>1195</ele>
        <time>2022-08-16T12:04:07Z</time>
      </trkpt>
      <trkpt lat="45.74893" lon="6.58224">
        <ele>1195</ele>
        <time>2022-08-16T12:04:08Z</time>
      </trkpt>
      <trkpt lat="45.74892" lon="6.5822">
        <ele>1195</ele>
        <time>2022-08-16T12:04:09Z</time>
      </trkpt>
      <trkpt lat="45.74892" lon="6.58217">
        <ele>1196</ele>
        <time>2022-08-16T12:04:10Z</time>
      </trkpt>
      <trkpt lat="45.74891" lon="6.58214">
        <ele>1196</ele>
        <time>2022-08-16T12:04:11Z</time>
      </trkpt>
      <trkpt lat="45.7489" lon="6.58211">
        <ele>1196</ele>
        <time>2022-08-16T12:04:12Z</time>
      </trkpt>
      <trkpt lat="45.74889" lon="6.58208">
        <ele>1196</ele>
        <time>2022-08-16T12:04:13Z</time>
      </trkpt>
      <trkpt lat="45.74889" lon="6.58205">
        <ele>1196</ele>
        <time>2022-08-16T12:04:14Z</time>
      </trkpt>
      <trkpt lat="45.74888" lon="6.58202">
        <ele>1196</ele>
        <time>2022-08-16T12:04:15Z</time>
      </trkpt>
      <trkpt lat="45.74888" lon="6.58199">
        <ele>1196</ele>
        <time>2022-08-16T12:04:16Z</time>
      </trkpt>
      <trkpt lat="45.74888" lon="6.58196">
        <ele>1196</ele>
        <time>2022-08-16T12:04:17Z</time>
      </trkpt>
      <trkpt lat="45.74888" lon="6.58193">
        <ele>1196</ele>
        <time>2022-08-16T12:04:18Z</time>
      </trkpt>
      <trkpt lat="45.74887" lon="6.58189">
        <ele>1196</ele>
        <time>2022-08-16T12:04:19Z</time>
      </trkpt>
      <trkpt lat="45.74887" lon="6.58187">
        <ele>1196</ele>
        <time>2022-08-16T12:04:20Z</time>
      </trkpt>
      <trkpt lat="45.74888" lon="6.58184">
        <ele>1196</ele>
        <time>2022-08-16T12:04:21Z</time>
      </trkpt>
      <trkpt lat="45.74888" lon="6.58181">
        <ele>1196</ele>
        <time>2022-08-16T12:04:22Z</time>
      </trkpt>
      <trkpt lat="45.74888" lon="6.58177">
        <ele>1196</ele>
        <time>2022-08-16T12:04:23Z</time>
      </trkpt>
      <trkpt lat="45.74887" lon="6.58173">
        <ele>1196</ele>
        <time>2022-08-16T12:04:24Z</time>
      </trkpt>
      <trkpt lat="45.74887" lon="6.58169">
        <ele>1197</ele>
        <time>2022-08-16T12:04:25Z</time>
      </trkpt>
      <trkpt lat="45.74886" lon="6.58166">
        <ele>1197</ele>
        <time>2022-08-16T12:04:26Z</time>
      </trkpt>
      <trkpt lat="45.74886" lon="6.58163">
        <ele>1197</ele>
        <time>2022-08-16T12:04:27Z</time>
      </trkpt>
      <trkpt lat="45.74886" lon="6.58159">
        <ele>1198</ele>
        <time>2022-08-16T12:04:28Z</time>
      </trkpt>
      <trkpt lat="45.74885" lon="6.58157">
        <ele>1198</ele>
        <time>2022-08-16T12:04:29Z</time>
      </trkpt>
      <trkpt lat="45.74885" lon="6.58154">
        <ele>1198</ele>
        <time>2022-08-16T12:04:30Z</time>
      </trkpt>
      <trkpt lat="45.74885" lon="6.58151">
        <ele>1198</ele>
        <time>2022-08-16T12:04:31Z</time>
      </trkpt>
      <trkpt lat="45.74884" lon="6.58148">
        <ele>1198</ele>
        <time>2022-08-16T12:04:32Z</time>
      </trkpt>
      <trkpt lat="45.74884" lon="6.58145">
        <ele>1198</ele>
        <time>2022-08-16T12:04:33Z</time>
      </trkpt>
      <trkpt lat="45.74883" lon="6.58141">
        <ele>1198</ele>
        <time>2022-08-16T12:04:34Z</time>
      </trkpt>
      <trkpt lat="45.74883" lon="6.58138">
        <ele>1198</ele>
        <time>2022-08-16T12:04:35Z</time>
      </trkpt>
      <trkpt lat="45.74884" lon="6.58134">
        <ele>1198</ele>
        <time>2022-08-16T12:04:36Z</time>
      </trkpt>
      <trkpt lat="45.74883" lon="6.58131">
        <ele>1198</ele>
        <time>2022-08-16T12:04:37Z</time>
      </trkpt>
      <trkpt lat="45.74883" lon="6.58128">
        <ele>1199</ele>
        <time>2022-08-16T12:04:38Z</time>
      </trkpt>
      <trkpt lat="45.74882" lon="6.58125">
        <ele>1199</ele>
        <time>2022-08-16T12:04:39Z</time>
      </trkpt>
      <trkpt lat="45.74881" lon="6.58122">
        <ele>1199</ele>
        <time>2022-08-16T12:04:40Z</time>
      </trkpt>
      <trkpt lat="45.74881" lon="6.58119">
        <ele>1199</ele>
        <time>2022-08-16T12:04:41Z</time>
      </trkpt>
      <trkpt lat="45.74881" lon="6.58116">
        <ele>1200</ele>
        <time>2022-08-16T12:04:42Z</time>
      </trkpt>
      <trkpt lat="45.7488" lon="6.58113">
        <ele>1200</ele>
        <time>2022-08-16T12:04:43Z</time>
      </trkpt>
      <trkpt lat="45.7488" lon="6.5811">
        <ele>1200</ele>
        <time>2022-08-16T12:04:44Z</time>
      </trkpt>
      <trkpt lat="45.74879" lon="6.58106">
        <ele>1200</ele>
        <time>2022-08-16T12:04:45Z</time>
      </trkpt>
      <trkpt lat="45.74879" lon="6.58103">
        <ele>1200</ele>
        <time>2022-08-16T12:04:46Z</time>
      </trkpt>
      <trkpt lat="45.74878" lon="6.58099">
        <ele>1200</ele>
        <time>2022-08-16T12:04:47Z</time>
      </trkpt>
      <trkpt lat="45.74878" lon="6.58096">
        <ele>1200</ele>
        <time>2022-08-16T12:04:48Z</time>
      </trkpt>
      <trkpt lat="45.74877" lon="6.58093">
        <ele>1200</ele>
        <time>2022-08-16T12:04:49Z</time>
      </trkpt>
      <trkpt lat="45.74877" lon="6.5809">
        <ele>1201</ele>
        <time>2022-08-16T12:04:50Z</time>
      </trkpt>
      <trkpt lat="45.74876" lon="6.58087">
        <ele>1201</ele>
        <time>2022-08-16T12:04:51Z</time>
      </trkpt>
      <trkpt lat="45.74876" lon="6.58084">
        <ele>1201</ele>
        <time>2022-08-16T12:04:52Z</time>
      </trkpt>
      <trkpt lat="45.74875" lon="6.58081">
        <ele>1202</ele>
        <time>2022-08-16T12:04:53Z</time>
      </trkpt>
      <trkpt lat="45.74874" lon="6.58077">
        <ele>1202</ele>
        <time>2022-08-16T12:04:54Z</time>
      </trkpt>
      <trkpt lat="45.74873" lon="6.58073">
        <ele>1202</ele>
        <time>2022-08-16T12:04:55Z</time>
      </trkpt>
      <trkpt lat="45.74872" lon="6.5807">
        <ele>1203</ele>
        <time>2022-08-16T12:04:56Z</time>
      </trkpt>
      <trkpt lat="45.74871" lon="6.58067">
        <ele>1203</ele>
        <time>2022-08-16T12:04:57Z</time>
      </trkpt>
      <trkpt lat="45.7487" lon="6.58064">
        <ele>1203</ele>
        <time>2022-08-16T12:04:58Z</time>
      </trkpt>
      <trkpt lat="45.7487" lon="6.58061">
        <ele>1202</ele>
        <time>2022-08-16T12:04:59Z</time>
      </trkpt>
      <trkpt lat="45.74869" lon="6.58059">
        <ele>1203</ele>
        <time>2022-08-16T12:05:00Z</time>
      </trkpt>
      <trkpt lat="45.74868" lon="6.58056">
        <ele>1203</ele>
        <time>2022-08-16T12:05:01Z</time>
      </trkpt>
      <trkpt lat="45.74867" lon="6.58053">
        <ele>1203</ele>
        <time>2022-08-16T12:05:02Z</time>
      </trkpt>
      <trkpt lat="45.74866" lon="6.5805">
        <ele>1203</ele>
        <time>2022-08-16T12:05:03Z</time>
      </trkpt>
      <trkpt lat="45.74865" lon="6.58047">
        <ele>1203</ele>
        <time>2022-08-16T12:05:04Z</time>
      </trkpt>
      <trkpt lat="45.74864" lon="6.58043">
        <ele>1204</ele>
        <time>2022-08-16T12:05:05Z</time>
      </trkpt>
      <trkpt lat="45.74863" lon="6.58041">
        <ele>1204</ele>
        <time>2022-08-16T12:05:06Z</time>
      </trkpt>
      <trkpt lat="45.74862" lon="6.58038">
        <ele>1204</ele>
        <time>2022-08-16T12:05:07Z</time>
      </trkpt>
      <trkpt lat="45.74861" lon="6.58035">
        <ele>1204</ele>
        <time>2022-08-16T12:05:08Z</time>
      </trkpt>
      <trkpt lat="45.7486" lon="6.58031">
        <ele>1204</ele>
        <time>2022-08-16T12:05:09Z</time>
      </trkpt>
      <trkpt lat="45.7486" lon="6.58028">
        <ele>1204</ele>
        <time>2022-08-16T12:05:10Z</time>
      </trkpt>
      <trkpt lat="45.74858" lon="6.58025">
        <ele>1204</ele>
        <time>2022-08-16T12:05:11Z</time>
      </trkpt>
      <trkpt lat="45.74858" lon="6.58021">
        <ele>1203</ele>
        <time>2022-08-16T12:05:12Z</time>
      </trkpt>
      <trkpt lat="45.74857" lon="6.58017">
        <ele>1203</ele>
        <time>2022-08-16T12:05:13Z</time>
      </trkpt>
      <trkpt lat="45.74857" lon="6.58013">
        <ele>1203</ele>
        <time>2022-08-16T12:05:14Z</time>
      </trkpt>
      <trkpt lat="45.74857" lon="6.58008">
        <ele>1203</ele>
        <time>2022-08-16T12:05:15Z</time>
      </trkpt>
      <trkpt lat="45.74856" lon="6.58003">
        <ele>1203</ele>
        <time>2022-08-16T12:05:16Z</time>
      </trkpt>
      <trkpt lat="45.74856" lon="6.57999">
        <ele>1203</ele>
        <time>2022-08-16T12:05:17Z</time>
      </trkpt>
      <trkpt lat="45.74856" lon="6.57994">
        <ele>1204</ele>
        <time>2022-08-16T12:05:18Z</time>
      </trkpt>
      <trkpt lat="45.74856" lon="6.57989">
        <ele>1204</ele>
        <time>2022-08-16T12:05:19Z</time>
      </trkpt>
      <trkpt lat="45.74856" lon="6.57984">
        <ele>1204</ele>
        <time>2022-08-16T12:05:20Z</time>
      </trkpt>
      <trkpt lat="45.74858" lon="6.57979">
        <ele>1203</ele>
        <time>2022-08-16T12:05:21Z</time>
      </trkpt>
      <trkpt lat="45.74859" lon="6.57974">
        <ele>1204</ele>
        <time>2022-08-16T12:05:22Z</time>
      </trkpt>
      <trkpt lat="45.7486" lon="6.57968">
        <ele>1204</ele>
        <time>2022-08-16T12:05:23Z</time>
      </trkpt>
      <trkpt lat="45.74861" lon="6.57962">
        <ele>1203</ele>
        <time>2022-08-16T12:05:24Z</time>
      </trkpt>
      <trkpt lat="45.74864" lon="6.57958">
        <ele>1203</ele>
        <time>2022-08-16T12:05:25Z</time>
      </trkpt>
      <trkpt lat="45.74868" lon="6.57953">
        <ele>1204</ele>
        <time>2022-08-16T12:05:26Z</time>
      </trkpt>
      <trkpt lat="45.74873" lon="6.57949">
        <ele>1204</ele>
        <time>2022-08-16T12:05:27Z</time>
      </trkpt>
      <trkpt lat="45.74878" lon="6.57946">
        <ele>1204</ele>
        <time>2022-08-16T12:05:28Z</time>
      </trkpt>
      <trkpt lat="45.74884" lon="6.57943">
        <ele>1203</ele>
        <time>2022-08-16T12:05:29Z</time>
      </trkpt>
      <trkpt lat="45.7489" lon="6.57942">
        <ele>1203</ele>
        <time>2022-08-16T12:05:30Z</time>
      </trkpt>
      <trkpt lat="45.74896" lon="6.5794">
        <ele>1203</ele>
        <time>2022-08-16T12:05:31Z</time>
      </trkpt>
      <trkpt lat="45.74902" lon="6.57936">
        <ele>1202</ele>
        <time>2022-08-16T12:05:32Z</time>
      </trkpt>
      <trkpt lat="45.74907" lon="6.5793">
        <ele>1202</ele>
        <time>2022-08-16T12:05:33Z</time>
      </trkpt>
      <trkpt lat="45.7491" lon="6.57923">
        <ele>1203</ele>
        <time>2022-08-16T12:05:34Z</time>
      </trkpt>
      <trkpt lat="45.7491" lon="6.57913">
        <ele>1203</ele>
        <time>2022-08-16T12:05:35Z</time>
      </trkpt>
      <trkpt lat="45.74905" lon="6.57906">
        <ele>1204</ele>
        <time>2022-08-16T12:05:36Z</time>
      </trkpt>
      <trkpt lat="45.74901" lon="6.579">
        <ele>1204</ele>
        <time>2022-08-16T12:05:37Z</time>
      </trkpt>
      <trkpt lat="45.74895" lon="6.57895">
        <ele>1204</ele>
        <time>2022-08-16T12:05:38Z</time>
      </trkpt>
      <trkpt lat="45.7489" lon="6.57891">
        <ele>1204</ele>
        <time>2022-08-16T12:05:39Z</time>
      </trkpt>
      <trkpt lat="45.74886" lon="6.57888">
        <ele>1204</ele>
        <time>2022-08-16T12:05:40Z</time>
      </trkpt>
      <trkpt lat="45.74882" lon="6.57886">
        <ele>1204</ele>
        <time>2022-08-16T12:05:41Z</time>
      </trkpt>
      <trkpt lat="45.74878" lon="6.57885">
        <ele>1204</ele>
        <time>2022-08-16T12:05:42Z</time>
      </trkpt>
      <trkpt lat="45.74875" lon="6.57884">
        <ele>1204</ele>
        <time>2022-08-16T12:05:43Z</time>
      </trkpt>
      <trkpt lat="45.74872" lon="6.57883">
        <ele>1204</ele>
        <time>2022-08-16T12:05:44Z</time>
      </trkpt>
      <trkpt lat="45.7487" lon="6.57882">
        <ele>1204</ele>
        <time>2022-08-16T12:05:45Z</time>
      </trkpt>
      <trkpt lat="45.74868" lon="6.57881">
        <ele>1204</ele>
        <time>2022-08-16T12:05:46Z</time>
      </trkpt>
      <trkpt lat="45.74866" lon="6.57879">
        <ele>1204</ele>
        <time>2022-08-16T12:05:47Z</time>
      </trkpt>
      <trkpt lat="45.74863" lon="6.57877">
        <ele>1204</ele>
        <time>2022-08-16T12:05:48Z</time>
      </trkpt>
      <trkpt lat="45.74861" lon="6.57876">
        <ele>1204</ele>
        <time>2022-08-16T12:05:49Z</time>
      </trkpt>
      <trkpt lat="45.74859" lon="6.57874">
        <ele>1205</ele>
        <time>2022-08-16T12:05:50Z</time>
      </trkpt>
      <trkpt lat="45.74856" lon="6.57872">
        <ele>1205</ele>
        <time>2022-08-16T12:05:51Z</time>
      </trkpt>
      <trkpt lat="45.74854" lon="6.57871">
        <ele>1205</ele>
        <time>2022-08-16T12:05:52Z</time>
      </trkpt>
      <trkpt lat="45.74852" lon="6.5787">
        <ele>1205</ele>
        <time>2022-08-16T12:05:53Z</time>
      </trkpt>
      <trkpt lat="45.74849" lon="6.57869">
        <ele>1206</ele>
        <time>2022-08-16T12:05:54Z</time>
      </trkpt>
      <trkpt lat="45.74846" lon="6.57869">
        <ele>1206</ele>
        <time>2022-08-16T12:05:55Z</time>
      </trkpt>
      <trkpt lat="45.74843" lon="6.57868">
        <ele>1206</ele>
        <time>2022-08-16T12:05:56Z</time>
      </trkpt>
      <trkpt lat="45.7484" lon="6.57867">
        <ele>1206</ele>
        <time>2022-08-16T12:05:57Z</time>
      </trkpt>
      <trkpt lat="45.74837" lon="6.57866">
        <ele>1206</ele>
        <time>2022-08-16T12:05:58Z</time>
      </trkpt>
      <trkpt lat="45.74835" lon="6.57865">
        <ele>1206</ele>
        <time>2022-08-16T12:05:59Z</time>
      </trkpt>
      <trkpt lat="45.74833" lon="6.57864">
        <ele>1206</ele>
        <time>2022-08-16T12:06:00Z</time>
      </trkpt>
      <trkpt lat="45.74831" lon="6.57864">
        <ele>1206</ele>
        <time>2022-08-16T12:06:01Z</time>
      </trkpt>
      <trkpt lat="45.7483" lon="6.57863">
        <ele>1206</ele>
        <time>2022-08-16T12:06:02Z</time>
      </trkpt>
      <trkpt lat="45.74827" lon="6.57862">
        <ele>1206</ele>
        <time>2022-08-16T12:06:03Z</time>
      </trkpt>
      <trkpt lat="45.74825" lon="6.57862">
        <ele>1207</ele>
        <time>2022-08-16T12:06:04Z</time>
      </trkpt>
      <trkpt lat="45.74823" lon="6.57861">
        <ele>1207</ele>
        <time>2022-08-16T12:06:05Z</time>
      </trkpt>
      <trkpt lat="45.7482" lon="6.57861">
        <ele>1208</ele>
        <time>2022-08-16T12:06:06Z</time>
      </trkpt>
      <trkpt lat="45.74818" lon="6.5786">
        <ele>1208</ele>
        <time>2022-08-16T12:06:07Z</time>
      </trkpt>
      <trkpt lat="45.74816" lon="6.5786">
        <ele>1209</ele>
        <time>2022-08-16T12:06:08Z</time>
      </trkpt>
      <trkpt lat="45.74814" lon="6.57859">
        <ele>1210</ele>
        <time>2022-08-16T12:06:09Z</time>
      </trkpt>
      <trkpt lat="45.74812" lon="6.57858">
        <ele>1210</ele>
        <time>2022-08-16T12:06:10Z</time>
      </trkpt>
      <trkpt lat="45.7481" lon="6.57857">
        <ele>1210</ele>
        <time>2022-08-16T12:06:11Z</time>
      </trkpt>
      <trkpt lat="45.74808" lon="6.57856">
        <ele>1211</ele>
        <time>2022-08-16T12:06:12Z</time>
      </trkpt>
      <trkpt lat="45.74805" lon="6.57855">
        <ele>1211</ele>
        <time>2022-08-16T12:06:13Z</time>
      </trkpt>
      <trkpt lat="45.74803" lon="6.57854">
        <ele>1212</ele>
        <time>2022-08-16T12:06:14Z</time>
      </trkpt>
      <trkpt lat="45.74801" lon="6.57852">
        <ele>1212</ele>
        <time>2022-08-16T12:06:15Z</time>
      </trkpt>
      <trkpt lat="45.74799" lon="6.57851">
        <ele>1213</ele>
        <time>2022-08-16T12:06:16Z</time>
      </trkpt>
      <trkpt lat="45.74797" lon="6.57849">
        <ele>1213</ele>
        <time>2022-08-16T12:06:17Z</time>
      </trkpt>
      <trkpt lat="45.74795" lon="6.57847">
        <ele>1213</ele>
        <time>2022-08-16T12:06:18Z</time>
      </trkpt>
      <trkpt lat="45.74794" lon="6.57845">
        <ele>1214</ele>
        <time>2022-08-16T12:06:19Z</time>
      </trkpt>
      <trkpt lat="45.74793" lon="6.57842">
        <ele>1214</ele>
        <time>2022-08-16T12:06:20Z</time>
      </trkpt>
      <trkpt lat="45.74791" lon="6.57839">
        <ele>1214</ele>
        <time>2022-08-16T12:06:21Z</time>
      </trkpt>
      <trkpt lat="45.7479" lon="6.57837">
        <ele>1215</ele>
        <time>2022-08-16T12:06:22Z</time>
      </trkpt>
      <trkpt lat="45.74788" lon="6.57835">
        <ele>1215</ele>
        <time>2022-08-16T12:06:23Z</time>
      </trkpt>
      <trkpt lat="45.74787" lon="6.57833">
        <ele>1215</ele>
        <time>2022-08-16T12:06:24Z</time>
      </trkpt>
      <trkpt lat="45.74786" lon="6.5783">
        <ele>1214</ele>
        <time>2022-08-16T12:06:25Z</time>
      </trkpt>
      <trkpt lat="45.74784" lon="6.57828">
        <ele>1214</ele>
        <time>2022-08-16T12:06:26Z</time>
      </trkpt>
      <trkpt lat="45.74783" lon="6.57826">
        <ele>1215</ele>
        <time>2022-08-16T12:06:27Z</time>
      </trkpt>
      <trkpt lat="45.74783" lon="6.57824">
        <ele>1215</ele>
        <time>2022-08-16T12:06:28Z</time>
      </trkpt>
      <trkpt lat="45.74782" lon="6.57821">
        <ele>1215</ele>
        <time>2022-08-16T12:06:29Z</time>
      </trkpt>
      <trkpt lat="45.7478" lon="6.57818">
        <ele>1215</ele>
        <time>2022-08-16T12:06:30Z</time>
      </trkpt>
      <trkpt lat="45.74779" lon="6.57815">
        <ele>1216</ele>
        <time>2022-08-16T12:06:31Z</time>
      </trkpt>
      <trkpt lat="45.74779" lon="6.57813">
        <ele>1216</ele>
        <time>2022-08-16T12:06:32Z</time>
      </trkpt>
      <trkpt lat="45.74778" lon="6.57809">
        <ele>1216</ele>
        <time>2022-08-16T12:06:33Z</time>
      </trkpt>
      <trkpt lat="45.74777" lon="6.57806">
        <ele>1217</ele>
        <time>2022-08-16T12:06:34Z</time>
      </trkpt>
      <trkpt lat="45.74777" lon="6.57803">
        <ele>1217</ele>
        <time>2022-08-16T12:06:35Z</time>
      </trkpt>
      <trkpt lat="45.74776" lon="6.578">
        <ele>1217</ele>
        <time>2022-08-16T12:06:36Z</time>
      </trkpt>
      <trkpt lat="45.74775" lon="6.57797">
        <ele>1217</ele>
        <time>2022-08-16T12:06:37Z</time>
      </trkpt>
      <trkpt lat="45.74774" lon="6.57794">
        <ele>1217</ele>
        <time>2022-08-16T12:06:38Z</time>
      </trkpt>
      <trkpt lat="45.74773" lon="6.57792">
        <ele>1217</ele>
        <time>2022-08-16T12:06:39Z</time>
      </trkpt>
      <trkpt lat="45.74773" lon="6.57789">
        <ele>1217</ele>
        <time>2022-08-16T12:06:40Z</time>
      </trkpt>
      <trkpt lat="45.74773" lon="6.57785">
        <ele>1217</ele>
        <time>2022-08-16T12:06:41Z</time>
      </trkpt>
      <trkpt lat="45.74772" lon="6.57782">
        <ele>1218</ele>
        <time>2022-08-16T12:06:42Z</time>
      </trkpt>
      <trkpt lat="45.74772" lon="6.57779">
        <ele>1218</ele>
        <time>2022-08-16T12:06:43Z</time>
      </trkpt>
      <trkpt lat="45.74772" lon="6.57776">
        <ele>1218</ele>
        <time>2022-08-16T12:06:44Z</time>
      </trkpt>
      <trkpt lat="45.74771" lon="6.57773">
        <ele>1218</ele>
        <time>2022-08-16T12:06:45Z</time>
      </trkpt>
      <trkpt lat="45.74771" lon="6.57771">
        <ele>1218</ele>
        <time>2022-08-16T12:06:46Z</time>
      </trkpt>
      <trkpt lat="45.7477" lon="6.57768">
        <ele>1219</ele>
        <time>2022-08-16T12:06:47Z</time>
      </trkpt>
      <trkpt lat="45.7477" lon="6.57765">
        <ele>1219</ele>
        <time>2022-08-16T12:06:48Z</time>
      </trkpt>
      <trkpt lat="45.74769" lon="6.57762">
        <ele>1219</ele>
        <time>2022-08-16T12:06:49Z</time>
      </trkpt>
      <trkpt lat="45.74769" lon="6.57758">
        <ele>1219</ele>
        <time>2022-08-16T12:06:50Z</time>
      </trkpt>
      <trkpt lat="45.74769" lon="6.57755">
        <ele>1219</ele>
        <time>2022-08-16T12:06:51Z</time>
      </trkpt>
      <trkpt lat="45.74768" lon="6.57751">
        <ele>1218</ele>
        <time>2022-08-16T12:06:52Z</time>
      </trkpt>
      <trkpt lat="45.74768" lon="6.57748">
        <ele>1218</ele>
        <time>2022-08-16T12:06:53Z</time>
      </trkpt>
      <trkpt lat="45.74767" lon="6.57745">
        <ele>1218</ele>
        <time>2022-08-16T12:06:54Z</time>
      </trkpt>
      <trkpt lat="45.74766" lon="6.57742">
        <ele>1219</ele>
        <time>2022-08-16T12:06:55Z</time>
      </trkpt>
      <trkpt lat="45.74765" lon="6.57738">
        <ele>1220</ele>
        <time>2022-08-16T12:06:56Z</time>
      </trkpt>
      <trkpt lat="45.74764" lon="6.57735">
        <ele>1220</ele>
        <time>2022-08-16T12:06:57Z</time>
      </trkpt>
      <trkpt lat="45.74763" lon="6.57731">
        <ele>1220</ele>
        <time>2022-08-16T12:06:58Z</time>
      </trkpt>
      <trkpt lat="45.74763" lon="6.57728">
        <ele>1220</ele>
        <time>2022-08-16T12:06:59Z</time>
      </trkpt>
      <trkpt lat="45.74762" lon="6.57726">
        <ele>1221</ele>
        <time>2022-08-16T12:07:00Z</time>
      </trkpt>
      <trkpt lat="45.74761" lon="6.57723">
        <ele>1220</ele>
        <time>2022-08-16T12:07:01Z</time>
      </trkpt>
      <trkpt lat="45.7476" lon="6.5772">
        <ele>1221</ele>
        <time>2022-08-16T12:07:02Z</time>
      </trkpt>
      <trkpt lat="45.74759" lon="6.57717">
        <ele>1221</ele>
        <time>2022-08-16T12:07:03Z</time>
      </trkpt>
      <trkpt lat="45.74758" lon="6.57714">
        <ele>1222</ele>
        <time>2022-08-16T12:07:04Z</time>
      </trkpt>
      <trkpt lat="45.74757" lon="6.57711">
        <ele>1222</ele>
        <time>2022-08-16T12:07:05Z</time>
      </trkpt>
      <trkpt lat="45.74756" lon="6.57709">
        <ele>1223</ele>
        <time>2022-08-16T12:07:06Z</time>
      </trkpt>
      <trkpt lat="45.74755" lon="6.57707">
        <ele>1223</ele>
        <time>2022-08-16T12:07:07Z</time>
      </trkpt>
      <trkpt lat="45.74755" lon="6.57704">
        <ele>1224</ele>
        <time>2022-08-16T12:07:08Z</time>
      </trkpt>
      <trkpt lat="45.74754" lon="6.57703">
        <ele>1225</ele>
        <time>2022-08-16T12:07:09Z</time>
      </trkpt>
      <trkpt lat="45.74753" lon="6.577">
        <ele>1225</ele>
        <time>2022-08-16T12:07:10Z</time>
      </trkpt>
      <trkpt lat="45.74752" lon="6.57698">
        <ele>1225</ele>
        <time>2022-08-16T12:07:11Z</time>
      </trkpt>
      <trkpt lat="45.7475" lon="6.57696">
        <ele>1224</ele>
        <time>2022-08-16T12:07:12Z</time>
      </trkpt>
      <trkpt lat="45.74749" lon="6.57693">
        <ele>1225</ele>
        <time>2022-08-16T12:07:13Z</time>
      </trkpt>
      <trkpt lat="45.74747" lon="6.57691">
        <ele>1225</ele>
        <time>2022-08-16T12:07:14Z</time>
      </trkpt>
      <trkpt lat="45.74746" lon="6.57688">
        <ele>1225</ele>
        <time>2022-08-16T12:07:15Z</time>
      </trkpt>
      <trkpt lat="45.74745" lon="6.57685">
        <ele>1226</ele>
        <time>2022-08-16T12:07:16Z</time>
      </trkpt>
      <trkpt lat="45.74743" lon="6.57682">
        <ele>1226</ele>
        <time>2022-08-16T12:07:17Z</time>
      </trkpt>
      <trkpt lat="45.74742" lon="6.5768">
        <ele>1227</ele>
        <time>2022-08-16T12:07:18Z</time>
      </trkpt>
      <trkpt lat="45.7474" lon="6.57677">
        <ele>1227</ele>
        <time>2022-08-16T12:07:19Z</time>
      </trkpt>
      <trkpt lat="45.74739" lon="6.57675">
        <ele>1228</ele>
        <time>2022-08-16T12:07:20Z</time>
      </trkpt>
      <trkpt lat="45.74738" lon="6.57672">
        <ele>1228</ele>
        <time>2022-08-16T12:07:21Z</time>
      </trkpt>
      <trkpt lat="45.74736" lon="6.57669">
        <ele>1228</ele>
        <time>2022-08-16T12:07:22Z</time>
      </trkpt>
      <trkpt lat="45.74735" lon="6.57667">
        <ele>1228</ele>
        <time>2022-08-16T12:07:23Z</time>
      </trkpt>
      <trkpt lat="45.74733" lon="6.57664">
        <ele>1228</ele>
        <time>2022-08-16T12:07:24Z</time>
      </trkpt>
      <trkpt lat="45.74732" lon="6.57661">
        <ele>1228</ele>
        <time>2022-08-16T12:07:25Z</time>
      </trkpt>
      <trkpt lat="45.7473" lon="6.57659">
        <ele>1229</ele>
        <time>2022-08-16T12:07:26Z</time>
      </trkpt>
      <trkpt lat="45.74729" lon="6.57656">
        <ele>1229</ele>
        <time>2022-08-16T12:07:27Z</time>
      </trkpt>
      <trkpt lat="45.74727" lon="6.57653">
        <ele>1230</ele>
        <time>2022-08-16T12:07:28Z</time>
      </trkpt>
      <trkpt lat="45.74725" lon="6.5765">
        <ele>1230</ele>
        <time>2022-08-16T12:07:29Z</time>
      </trkpt>
      <trkpt lat="45.74724" lon="6.57648">
        <ele>1230</ele>
        <time>2022-08-16T12:07:30Z</time>
      </trkpt>
      <trkpt lat="45.74722" lon="6.57645">
        <ele>1230</ele>
        <time>2022-08-16T12:07:31Z</time>
      </trkpt>
      <trkpt lat="45.74721" lon="6.57643">
        <ele>1231</ele>
        <time>2022-08-16T12:07:32Z</time>
      </trkpt>
      <trkpt lat="45.74719" lon="6.5764">
        <ele>1231</ele>
        <time>2022-08-16T12:07:33Z</time>
      </trkpt>
      <trkpt lat="45.74718" lon="6.57638">
        <ele>1231</ele>
        <time>2022-08-16T12:07:34Z</time>
      </trkpt>
      <trkpt lat="45.74717" lon="6.57635">
        <ele>1231</ele>
        <time>2022-08-16T12:07:35Z</time>
      </trkpt>
      <trkpt lat="45.74715" lon="6.57633">
        <ele>1231</ele>
        <time>2022-08-16T12:07:36Z</time>
      </trkpt>
      <trkpt lat="45.74714" lon="6.5763">
        <ele>1232</ele>
        <time>2022-08-16T12:07:37Z</time>
      </trkpt>
      <trkpt lat="45.74712" lon="6.57627">
        <ele>1232</ele>
        <time>2022-08-16T12:07:38Z</time>
      </trkpt>
      <trkpt lat="45.74711" lon="6.57624">
        <ele>1231</ele>
        <time>2022-08-16T12:07:39Z</time>
      </trkpt>
      <trkpt lat="45.7471" lon="6.57621">
        <ele>1231</ele>
        <time>2022-08-16T12:07:40Z</time>
      </trkpt>
      <trkpt lat="45.74708" lon="6.57618">
        <ele>1231</ele>
        <time>2022-08-16T12:07:41Z</time>
      </trkpt>
      <trkpt lat="45.74707" lon="6.57615">
        <ele>1231</ele>
        <time>2022-08-16T12:07:42Z</time>
      </trkpt>
      <trkpt lat="45.74706" lon="6.57612">
        <ele>1231</ele>
        <time>2022-08-16T12:07:43Z</time>
      </trkpt>
      <trkpt lat="45.74704" lon="6.5761">
        <ele>1231</ele>
        <time>2022-08-16T12:07:44Z</time>
      </trkpt>
      <trkpt lat="45.74703" lon="6.57607">
        <ele>1231</ele>
        <time>2022-08-16T12:07:45Z</time>
      </trkpt>
      <trkpt lat="45.74701" lon="6.57605">
        <ele>1231</ele>
        <time>2022-08-16T12:07:46Z</time>
      </trkpt>
      <trkpt lat="45.747" lon="6.57602">
        <ele>1231</ele>
        <time>2022-08-16T12:07:47Z</time>
      </trkpt>
      <trkpt lat="45.74699" lon="6.57599">
        <ele>1231</ele>
        <time>2022-08-16T12:07:48Z</time>
      </trkpt>
      <trkpt lat="45.74698" lon="6.57597">
        <ele>1231</ele>
        <time>2022-08-16T12:07:49Z</time>
      </trkpt>
      <trkpt lat="45.74696" lon="6.57594">
        <ele>1232</ele>
        <time>2022-08-16T12:07:50Z</time>
      </trkpt>
      <trkpt lat="45.74695" lon="6.57591">
        <ele>1231</ele>
        <time>2022-08-16T12:07:51Z</time>
      </trkpt>
      <trkpt lat="45.74693" lon="6.57588">
        <ele>1231</ele>
        <time>2022-08-16T12:07:52Z</time>
      </trkpt>
      <trkpt lat="45.74692" lon="6.57585">
        <ele>1231</ele>
        <time>2022-08-16T12:07:53Z</time>
      </trkpt>
      <trkpt lat="45.74691" lon="6.57582">
        <ele>1231</ele>
        <time>2022-08-16T12:07:54Z</time>
      </trkpt>
      <trkpt lat="45.74689" lon="6.57579">
        <ele>1231</ele>
        <time>2022-08-16T12:07:55Z</time>
      </trkpt>
      <trkpt lat="45.74688" lon="6.57577">
        <ele>1231</ele>
        <time>2022-08-16T12:07:56Z</time>
      </trkpt>
      <trkpt lat="45.74687" lon="6.57574">
        <ele>1232</ele>
        <time>2022-08-16T12:07:57Z</time>
      </trkpt>
      <trkpt lat="45.74685" lon="6.57571">
        <ele>1232</ele>
        <time>2022-08-16T12:07:58Z</time>
      </trkpt>
      <trkpt lat="45.74683" lon="6.57568">
        <ele>1231</ele>
        <time>2022-08-16T12:07:59Z</time>
      </trkpt>
      <trkpt lat="45.74682" lon="6.57566">
        <ele>1232</ele>
        <time>2022-08-16T12:08:00Z</time>
      </trkpt>
      <trkpt lat="45.7468" lon="6.57563">
        <ele>1232</ele>
        <time>2022-08-16T12:08:01Z</time>
      </trkpt>
      <trkpt lat="45.74678" lon="6.57561">
        <ele>1233</ele>
        <time>2022-08-16T12:08:02Z</time>
      </trkpt>
      <trkpt lat="45.74677" lon="6.57558">
        <ele>1233</ele>
        <time>2022-08-16T12:08:03Z</time>
      </trkpt>
      <trkpt lat="45.74675" lon="6.57555">
        <ele>1233</ele>
        <time>2022-08-16T12:08:04Z</time>
      </trkpt>
      <trkpt lat="45.74674" lon="6.57552">
        <ele>1233</ele>
        <time>2022-08-16T12:08:05Z</time>
      </trkpt>
      <trkpt lat="45.74672" lon="6.57549">
        <ele>1234</ele>
        <time>2022-08-16T12:08:06Z</time>
      </trkpt>
      <trkpt lat="45.74672" lon="6.57545">
        <ele>1234</ele>
        <time>2022-08-16T12:08:07Z</time>
      </trkpt>
      <trkpt lat="45.7467" lon="6.57543">
        <ele>1234</ele>
        <time>2022-08-16T12:08:08Z</time>
      </trkpt>
      <trkpt lat="45.74669" lon="6.5754">
        <ele>1234</ele>
        <time>2022-08-16T12:08:09Z</time>
      </trkpt>
      <trkpt lat="45.74667" lon="6.57537">
        <ele>1234</ele>
        <time>2022-08-16T12:08:10Z</time>
      </trkpt>
      <trkpt lat="45.74666" lon="6.57534">
        <ele>1235</ele>
        <time>2022-08-16T12:08:11Z</time>
      </trkpt>
      <trkpt lat="45.74664" lon="6.57531">
        <ele>1235</ele>
        <time>2022-08-16T12:08:12Z</time>
      </trkpt>
      <trkpt lat="45.74663" lon="6.57528">
        <ele>1235</ele>
        <time>2022-08-16T12:08:13Z</time>
      </trkpt>
      <trkpt lat="45.74661" lon="6.57525">
        <ele>1235</ele>
        <time>2022-08-16T12:08:14Z</time>
      </trkpt>
      <trkpt lat="45.7466" lon="6.57523">
        <ele>1236</ele>
        <time>2022-08-16T12:08:15Z</time>
      </trkpt>
      <trkpt lat="45.74659" lon="6.5752">
        <ele>1237</ele>
        <time>2022-08-16T12:08:16Z</time>
      </trkpt>
      <trkpt lat="45.74657" lon="6.57518">
        <ele>1237</ele>
        <time>2022-08-16T12:08:17Z</time>
      </trkpt>
      <trkpt lat="45.74656" lon="6.57515">
        <ele>1237</ele>
        <time>2022-08-16T12:08:18Z</time>
      </trkpt>
      <trkpt lat="45.74654" lon="6.57512">
        <ele>1237</ele>
        <time>2022-08-16T12:08:19Z</time>
      </trkpt>
      <trkpt lat="45.74653" lon="6.5751">
        <ele>1237</ele>
        <time>2022-08-16T12:08:20Z</time>
      </trkpt>
      <trkpt lat="45.74652" lon="6.57507">
        <ele>1237</ele>
        <time>2022-08-16T12:08:21Z</time>
      </trkpt>
      <trkpt lat="45.74651" lon="6.57504">
        <ele>1238</ele>
        <time>2022-08-16T12:08:22Z</time>
      </trkpt>
      <trkpt lat="45.7465" lon="6.57501">
        <ele>1238</ele>
        <time>2022-08-16T12:08:23Z</time>
      </trkpt>
      <trkpt lat="45.74649" lon="6.57498">
        <ele>1239</ele>
        <time>2022-08-16T12:08:24Z</time>
      </trkpt>
      <trkpt lat="45.74648" lon="6.57495">
        <ele>1239</ele>
        <time>2022-08-16T12:08:25Z</time>
      </trkpt>
      <trkpt lat="45.74647" lon="6.57492">
        <ele>1239</ele>
        <time>2022-08-16T12:08:26Z</time>
      </trkpt>
      <trkpt lat="45.74646" lon="6.57489">
        <ele>1240</ele>
        <time>2022-08-16T12:08:27Z</time>
      </trkpt>
      <trkpt lat="45.74645" lon="6.57486">
        <ele>1240</ele>
        <time>2022-08-16T12:08:28Z</time>
      </trkpt>
      <trkpt lat="45.74644" lon="6.57482">
        <ele>1240</ele>
        <time>2022-08-16T12:08:29Z</time>
      </trkpt>
      <trkpt lat="45.74643" lon="6.57479">
        <ele>1240</ele>
        <time>2022-08-16T12:08:30Z</time>
      </trkpt>
      <trkpt lat="45.74642" lon="6.57476">
        <ele>1239</ele>
        <time>2022-08-16T12:08:31Z</time>
      </trkpt>
      <trkpt lat="45.74641" lon="6.57473">
        <ele>1239</ele>
        <time>2022-08-16T12:08:32Z</time>
      </trkpt>
      <trkpt lat="45.7464" lon="6.5747">
        <ele>1239</ele>
        <time>2022-08-16T12:08:33Z</time>
      </trkpt>
      <trkpt lat="45.74638" lon="6.57467">
        <ele>1239</ele>
        <time>2022-08-16T12:08:34Z</time>
      </trkpt>
      <trkpt lat="45.74637" lon="6.57464">
        <ele>1238</ele>
        <time>2022-08-16T12:08:35Z</time>
      </trkpt>
      <trkpt lat="45.74636" lon="6.5746">
        <ele>1239</ele>
        <time>2022-08-16T12:08:36Z</time>
      </trkpt>
      <trkpt lat="45.74635" lon="6.57457">
        <ele>1239</ele>
        <time>2022-08-16T12:08:37Z</time>
      </trkpt>
      <trkpt lat="45.74633" lon="6.57455">
        <ele>1239</ele>
        <time>2022-08-16T12:08:38Z</time>
      </trkpt>
      <trkpt lat="45.74632" lon="6.57452">
        <ele>1239</ele>
        <time>2022-08-16T12:08:39Z</time>
      </trkpt>
      <trkpt lat="45.74631" lon="6.57449">
        <ele>1239</ele>
        <time>2022-08-16T12:08:40Z</time>
      </trkpt>
      <trkpt lat="45.74629" lon="6.57447">
        <ele>1239</ele>
        <time>2022-08-16T12:08:41Z</time>
      </trkpt>
      <trkpt lat="45.74628" lon="6.57444">
        <ele>1239</ele>
        <time>2022-08-16T12:08:42Z</time>
      </trkpt>
      <trkpt lat="45.74627" lon="6.57441">
        <ele>1239</ele>
        <time>2022-08-16T12:08:43Z</time>
      </trkpt>
      <trkpt lat="45.74626" lon="6.57438">
        <ele>1240</ele>
        <time>2022-08-16T12:08:44Z</time>
      </trkpt>
      <trkpt lat="45.74625" lon="6.57435">
        <ele>1241</ele>
        <time>2022-08-16T12:08:45Z</time>
      </trkpt>
      <trkpt lat="45.74624" lon="6.57433">
        <ele>1241</ele>
        <time>2022-08-16T12:08:46Z</time>
      </trkpt>
      <trkpt lat="45.74623" lon="6.5743">
        <ele>1241</ele>
        <time>2022-08-16T12:08:47Z</time>
      </trkpt>
      <trkpt lat="45.74621" lon="6.57427">
        <ele>1241</ele>
        <time>2022-08-16T12:08:48Z</time>
      </trkpt>
      <trkpt lat="45.7462" lon="6.57425">
        <ele>1242</ele>
        <time>2022-08-16T12:08:49Z</time>
      </trkpt>
      <trkpt lat="45.74618" lon="6.57423">
        <ele>1243</ele>
        <time>2022-08-16T12:08:50Z</time>
      </trkpt>
      <trkpt lat="45.74616" lon="6.57421">
        <ele>1243</ele>
        <time>2022-08-16T12:08:51Z</time>
      </trkpt>
      <trkpt lat="45.74614" lon="6.57419">
        <ele>1244</ele>
        <time>2022-08-16T12:08:52Z</time>
      </trkpt>
      <trkpt lat="45.74612" lon="6.57418">
        <ele>1244</ele>
        <time>2022-08-16T12:08:53Z</time>
      </trkpt>
      <trkpt lat="45.7461" lon="6.57417">
        <ele>1244</ele>
        <time>2022-08-16T12:08:54Z</time>
      </trkpt>
      <trkpt lat="45.74608" lon="6.57417">
        <ele>1244</ele>
        <time>2022-08-16T12:08:55Z</time>
      </trkpt>
      <trkpt lat="45.74606" lon="6.57416">
        <ele>1245</ele>
        <time>2022-08-16T12:08:56Z</time>
      </trkpt>
      <trkpt lat="45.74604" lon="6.57415">
        <ele>1245</ele>
        <time>2022-08-16T12:08:57Z</time>
      </trkpt>
      <trkpt lat="45.74602" lon="6.57413">
        <ele>1246</ele>
        <time>2022-08-16T12:08:58Z</time>
      </trkpt>
      <trkpt lat="45.74601" lon="6.5741">
        <ele>1247</ele>
        <time>2022-08-16T12:08:59Z</time>
      </trkpt>
      <trkpt lat="45.746" lon="6.57408">
        <ele>1248</ele>
        <time>2022-08-16T12:09:00Z</time>
      </trkpt>
      <trkpt lat="45.74598" lon="6.57406">
        <ele>1248</ele>
        <time>2022-08-16T12:09:01Z</time>
      </trkpt>
      <trkpt lat="45.74597" lon="6.57403">
        <ele>1249</ele>
        <time>2022-08-16T12:09:02Z</time>
      </trkpt>
      <trkpt lat="45.74596" lon="6.57401">
        <ele>1249</ele>
        <time>2022-08-16T12:09:03Z</time>
      </trkpt>
      <trkpt lat="45.74594" lon="6.57399">
        <ele>1249</ele>
        <time>2022-08-16T12:09:04Z</time>
      </trkpt>
      <trkpt lat="45.74592" lon="6.57397">
        <ele>1249</ele>
        <time>2022-08-16T12:09:05Z</time>
      </trkpt>
      <trkpt lat="45.7459" lon="6.57395">
        <ele>1249</ele>
        <time>2022-08-16T12:09:06Z</time>
      </trkpt>
      <trkpt lat="45.74589" lon="6.57393">
        <ele>1249</ele>
        <time>2022-08-16T12:09:07Z</time>
      </trkpt>
      <trkpt lat="45.74586" lon="6.57391">
        <ele>1249</ele>
        <time>2022-08-16T12:09:08Z</time>
      </trkpt>
      <trkpt lat="45.74584" lon="6.57389">
        <ele>1249</ele>
        <time>2022-08-16T12:09:09Z</time>
      </trkpt>
      <trkpt lat="45.74582" lon="6.57387">
        <ele>1249</ele>
        <time>2022-08-16T12:09:10Z</time>
      </trkpt>
      <trkpt lat="45.7458" lon="6.57384">
        <ele>1249</ele>
        <time>2022-08-16T12:09:11Z</time>
      </trkpt>
      <trkpt lat="45.74579" lon="6.57382">
        <ele>1250</ele>
        <time>2022-08-16T12:09:12Z</time>
      </trkpt>
      <trkpt lat="45.74577" lon="6.57381">
        <ele>1251</ele>
        <time>2022-08-16T12:09:13Z</time>
      </trkpt>
      <trkpt lat="45.74575" lon="6.57379">
        <ele>1251</ele>
        <time>2022-08-16T12:09:14Z</time>
      </trkpt>
      <trkpt lat="45.74573" lon="6.57377">
        <ele>1252</ele>
        <time>2022-08-16T12:09:15Z</time>
      </trkpt>
      <trkpt lat="45.74571" lon="6.57374">
        <ele>1252</ele>
        <time>2022-08-16T12:09:16Z</time>
      </trkpt>
      <trkpt lat="45.74569" lon="6.57372">
        <ele>1252</ele>
        <time>2022-08-16T12:09:17Z</time>
      </trkpt>
      <trkpt lat="45.74567" lon="6.57369">
        <ele>1252</ele>
        <time>2022-08-16T12:09:18Z</time>
      </trkpt>
      <trkpt lat="45.74566" lon="6.57367">
        <ele>1252</ele>
        <time>2022-08-16T12:09:19Z</time>
      </trkpt>
      <trkpt lat="45.74564" lon="6.57365">
        <ele>1252</ele>
        <time>2022-08-16T12:09:20Z</time>
      </trkpt>
      <trkpt lat="45.74562" lon="6.57363">
        <ele>1253</ele>
        <time>2022-08-16T12:09:21Z</time>
      </trkpt>
      <trkpt lat="45.7456" lon="6.5736">
        <ele>1253</ele>
        <time>2022-08-16T12:09:22Z</time>
      </trkpt>
      <trkpt lat="45.74559" lon="6.57358">
        <ele>1253</ele>
        <time>2022-08-16T12:09:23Z</time>
      </trkpt>
      <trkpt lat="45.74557" lon="6.57355">
        <ele>1254</ele>
        <time>2022-08-16T12:09:24Z</time>
      </trkpt>
      <trkpt lat="45.74555" lon="6.57353">
        <ele>1254</ele>
        <time>2022-08-16T12:09:25Z</time>
      </trkpt>
      <trkpt lat="45.74553" lon="6.57351">
        <ele>1254</ele>
        <time>2022-08-16T12:09:26Z</time>
      </trkpt>
      <trkpt lat="45.74551" lon="6.57348">
        <ele>1254</ele>
        <time>2022-08-16T12:09:27Z</time>
      </trkpt>
      <trkpt lat="45.74549" lon="6.57346">
        <ele>1255</ele>
        <time>2022-08-16T12:09:28Z</time>
      </trkpt>
      <trkpt lat="45.74547" lon="6.57343">
        <ele>1255</ele>
        <time>2022-08-16T12:09:29Z</time>
      </trkpt>
      <trkpt lat="45.74545" lon="6.5734">
        <ele>1255</ele>
        <time>2022-08-16T12:09:30Z</time>
      </trkpt>
      <trkpt lat="45.74543" lon="6.57337">
        <ele>1255</ele>
        <time>2022-08-16T12:09:31Z</time>
      </trkpt>
      <trkpt lat="45.74541" lon="6.57335">
        <ele>1255</ele>
        <time>2022-08-16T12:09:32Z</time>
      </trkpt>
      <trkpt lat="45.74539" lon="6.57333">
        <ele>1254</ele>
        <time>2022-08-16T12:09:33Z</time>
      </trkpt>
      <trkpt lat="45.74537" lon="6.5733">
        <ele>1254</ele>
        <time>2022-08-16T12:09:34Z</time>
      </trkpt>
      <trkpt lat="45.74536" lon="6.57328">
        <ele>1254</ele>
        <time>2022-08-16T12:09:35Z</time>
      </trkpt>
      <trkpt lat="45.74534" lon="6.57325">
        <ele>1254</ele>
        <time>2022-08-16T12:09:36Z</time>
      </trkpt>
      <trkpt lat="45.74532" lon="6.57323">
        <ele>1254</ele>
        <time>2022-08-16T12:09:37Z</time>
      </trkpt>
      <trkpt lat="45.7453" lon="6.5732">
        <ele>1254</ele>
        <time>2022-08-16T12:09:38Z</time>
      </trkpt>
      <trkpt lat="45.74528" lon="6.57318">
        <ele>1254</ele>
        <time>2022-08-16T12:09:39Z</time>
      </trkpt>
      <trkpt lat="45.74526" lon="6.57316">
        <ele>1253</ele>
        <time>2022-08-16T12:09:40Z</time>
      </trkpt>
      <trkpt lat="45.74524" lon="6.57313">
        <ele>1253</ele>
        <time>2022-08-16T12:09:41Z</time>
      </trkpt>
      <trkpt lat="45.74522" lon="6.57311">
        <ele>1253</ele>
        <time>2022-08-16T12:09:42Z</time>
      </trkpt>
      <trkpt lat="45.7452" lon="6.57308">
        <ele>1253</ele>
        <time>2022-08-16T12:09:43Z</time>
      </trkpt>
      <trkpt lat="45.74518" lon="6.57306">
        <ele>1253</ele>
        <time>2022-08-16T12:09:44Z</time>
      </trkpt>
      <trkpt lat="45.74516" lon="6.57303">
        <ele>1253</ele>
        <time>2022-08-16T12:09:45Z</time>
      </trkpt>
      <trkpt lat="45.74514" lon="6.57301">
        <ele>1253</ele>
        <time>2022-08-16T12:09:46Z</time>
      </trkpt>
      <trkpt lat="45.74512" lon="6.57299">
        <ele>1254</ele>
        <time>2022-08-16T12:09:47Z</time>
      </trkpt>
      <trkpt lat="45.7451" lon="6.57297">
        <ele>1254</ele>
        <time>2022-08-16T12:09:48Z</time>
      </trkpt>
      <trkpt lat="45.74508" lon="6.57294">
        <ele>1254</ele>
        <time>2022-08-16T12:09:49Z</time>
      </trkpt>
      <trkpt lat="45.74506" lon="6.57292">
        <ele>1254</ele>
        <time>2022-08-16T12:09:50Z</time>
      </trkpt>
      <trkpt lat="45.74504" lon="6.5729">
        <ele>1254</ele>
        <time>2022-08-16T12:09:51Z</time>
      </trkpt>
      <trkpt lat="45.74502" lon="6.57287">
        <ele>1255</ele>
        <time>2022-08-16T12:09:52Z</time>
      </trkpt>
      <trkpt lat="45.745" lon="6.57285">
        <ele>1255</ele>
        <time>2022-08-16T12:09:53Z</time>
      </trkpt>
      <trkpt lat="45.74497" lon="6.57283">
        <ele>1256</ele>
        <time>2022-08-16T12:09:54Z</time>
      </trkpt>
      <trkpt lat="45.74495" lon="6.57282">
        <ele>1256</ele>
        <time>2022-08-16T12:09:55Z</time>
      </trkpt>
      <trkpt lat="45.74493" lon="6.57281">
        <ele>1256</ele>
        <time>2022-08-16T12:09:56Z</time>
      </trkpt>
      <trkpt lat="45.74491" lon="6.57279">
        <ele>1256</ele>
        <time>2022-08-16T12:09:57Z</time>
      </trkpt>
      <trkpt lat="45.74489" lon="6.57278">
        <ele>1256</ele>
        <time>2022-08-16T12:09:58Z</time>
      </trkpt>
      <trkpt lat="45.74487" lon="6.57277">
        <ele>1256</ele>
        <time>2022-08-16T12:09:59Z</time>
      </trkpt>
      <trkpt lat="45.74484" lon="6.57274">
        <ele>1256</ele>
        <time>2022-08-16T12:10:00Z</time>
      </trkpt>
      <trkpt lat="45.74482" lon="6.57273">
        <ele>1256</ele>
        <time>2022-08-16T12:10:01Z</time>
      </trkpt>
      <trkpt lat="45.7448" lon="6.5727">
        <ele>1256</ele>
        <time>2022-08-16T12:10:02Z</time>
      </trkpt>
      <trkpt lat="45.74479" lon="6.57268">
        <ele>1256</ele>
        <time>2022-08-16T12:10:03Z</time>
      </trkpt>
      <trkpt lat="45.74477" lon="6.57266">
        <ele>1256</ele>
        <time>2022-08-16T12:10:04Z</time>
      </trkpt>
      <trkpt lat="45.74475" lon="6.57264">
        <ele>1257</ele>
        <time>2022-08-16T12:10:05Z</time>
      </trkpt>
      <trkpt lat="45.74472" lon="6.57262">
        <ele>1257</ele>
        <time>2022-08-16T12:10:06Z</time>
      </trkpt>
      <trkpt lat="45.74471" lon="6.5726">
        <ele>1257</ele>
        <time>2022-08-16T12:10:07Z</time>
      </trkpt>
      <trkpt lat="45.74468" lon="6.57258">
        <ele>1257</ele>
        <time>2022-08-16T12:10:08Z</time>
      </trkpt>
      <trkpt lat="45.74466" lon="6.57256">
        <ele>1258</ele>
        <time>2022-08-16T12:10:09Z</time>
      </trkpt>
      <trkpt lat="45.74464" lon="6.57254">
        <ele>1258</ele>
        <time>2022-08-16T12:10:10Z</time>
      </trkpt>
      <trkpt lat="45.74462" lon="6.57253">
        <ele>1258</ele>
        <time>2022-08-16T12:10:11Z</time>
      </trkpt>
      <trkpt lat="45.7446" lon="6.5725">
        <ele>1258</ele>
        <time>2022-08-16T12:10:12Z</time>
      </trkpt>
      <trkpt lat="45.74458" lon="6.57248">
        <ele>1258</ele>
        <time>2022-08-16T12:10:13Z</time>
      </trkpt>
      <trkpt lat="45.74456" lon="6.57246">
        <ele>1258</ele>
        <time>2022-08-16T12:10:14Z</time>
      </trkpt>
      <trkpt lat="45.74454" lon="6.57243">
        <ele>1258</ele>
        <time>2022-08-16T12:10:15Z</time>
      </trkpt>
      <trkpt lat="45.74452" lon="6.57241">
        <ele>1258</ele>
        <time>2022-08-16T12:10:16Z</time>
      </trkpt>
      <trkpt lat="45.74449" lon="6.57239">
        <ele>1258</ele>
        <time>2022-08-16T12:10:17Z</time>
      </trkpt>
      <trkpt lat="45.74447" lon="6.57237">
        <ele>1258</ele>
        <time>2022-08-16T12:10:18Z</time>
      </trkpt>
      <trkpt lat="45.74445" lon="6.57235">
        <ele>1258</ele>
        <time>2022-08-16T12:10:19Z</time>
      </trkpt>
      <trkpt lat="45.74442" lon="6.57234">
        <ele>1258</ele>
        <time>2022-08-16T12:10:20Z</time>
      </trkpt>
      <trkpt lat="45.7444" lon="6.57233">
        <ele>1258</ele>
        <time>2022-08-16T12:10:21Z</time>
      </trkpt>
      <trkpt lat="45.74438" lon="6.57231">
        <ele>1258</ele>
        <time>2022-08-16T12:10:22Z</time>
      </trkpt>
      <trkpt lat="45.74436" lon="6.5723">
        <ele>1259</ele>
        <time>2022-08-16T12:10:23Z</time>
      </trkpt>
      <trkpt lat="45.74433" lon="6.57228">
        <ele>1259</ele>
        <time>2022-08-16T12:10:24Z</time>
      </trkpt>
      <trkpt lat="45.74431" lon="6.57226">
        <ele>1260</ele>
        <time>2022-08-16T12:10:25Z</time>
      </trkpt>
      <trkpt lat="45.74428" lon="6.57225">
        <ele>1260</ele>
        <time>2022-08-16T12:10:26Z</time>
      </trkpt>
      <trkpt lat="45.74426" lon="6.57223">
        <ele>1259</ele>
        <time>2022-08-16T12:10:27Z</time>
      </trkpt>
      <trkpt lat="45.74424" lon="6.5722">
        <ele>1260</ele>
        <time>2022-08-16T12:10:28Z</time>
      </trkpt>
      <trkpt lat="45.74421" lon="6.57218">
        <ele>1260</ele>
        <time>2022-08-16T12:10:29Z</time>
      </trkpt>
      <trkpt lat="45.74419" lon="6.57216">
        <ele>1261</ele>
        <time>2022-08-16T12:10:30Z</time>
      </trkpt>
      <trkpt lat="45.74417" lon="6.57214">
        <ele>1261</ele>
        <time>2022-08-16T12:10:31Z</time>
      </trkpt>
      <trkpt lat="45.74415" lon="6.57212">
        <ele>1262</ele>
        <time>2022-08-16T12:10:32Z</time>
      </trkpt>
      <trkpt lat="45.74413" lon="6.5721">
        <ele>1262</ele>
        <time>2022-08-16T12:10:33Z</time>
      </trkpt>
      <trkpt lat="45.74411" lon="6.57207">
        <ele>1262</ele>
        <time>2022-08-16T12:10:34Z</time>
      </trkpt>
      <trkpt lat="45.74409" lon="6.57205">
        <ele>1263</ele>
        <time>2022-08-16T12:10:35Z</time>
      </trkpt>
      <trkpt lat="45.74407" lon="6.57202">
        <ele>1263</ele>
        <time>2022-08-16T12:10:36Z</time>
      </trkpt>
      <trkpt lat="45.74405" lon="6.572">
        <ele>1263</ele>
        <time>2022-08-16T12:10:37Z</time>
      </trkpt>
      <trkpt lat="45.74403" lon="6.57197">
        <ele>1264</ele>
        <time>2022-08-16T12:10:38Z</time>
      </trkpt>
      <trkpt lat="45.744" lon="6.57195">
        <ele>1264</ele>
        <time>2022-08-16T12:10:39Z</time>
      </trkpt>
      <trkpt lat="45.74398" lon="6.57192">
        <ele>1264</ele>
        <time>2022-08-16T12:10:40Z</time>
      </trkpt>
      <trkpt lat="45.74396" lon="6.5719">
        <ele>1265</ele>
        <time>2022-08-16T12:10:41Z</time>
      </trkpt>
      <trkpt lat="45.74394" lon="6.57187">
        <ele>1265</ele>
        <time>2022-08-16T12:10:42Z</time>
      </trkpt>
      <trkpt lat="45.74392" lon="6.57185">
        <ele>1265</ele>
        <time>2022-08-16T12:10:43Z</time>
      </trkpt>
      <trkpt lat="45.7439" lon="6.57182">
        <ele>1266</ele>
        <time>2022-08-16T12:10:44Z</time>
      </trkpt>
      <trkpt lat="45.74388" lon="6.5718">
        <ele>1266</ele>
        <time>2022-08-16T12:10:45Z</time>
      </trkpt>
      <trkpt lat="45.74385" lon="6.57178">
        <ele>1266</ele>
        <time>2022-08-16T12:10:46Z</time>
      </trkpt>
      <trkpt lat="45.74383" lon="6.57176">
        <ele>1266</ele>
        <time>2022-08-16T12:10:47Z</time>
      </trkpt>
      <trkpt lat="45.7438" lon="6.57173">
        <ele>1266</ele>
        <time>2022-08-16T12:10:48Z</time>
      </trkpt>
      <trkpt lat="45.74379" lon="6.5717">
        <ele>1266</ele>
        <time>2022-08-16T12:10:49Z</time>
      </trkpt>
      <trkpt lat="45.74376" lon="6.57168">
        <ele>1266</ele>
        <time>2022-08-16T12:10:50Z</time>
      </trkpt>
      <trkpt lat="45.74374" lon="6.57166">
        <ele>1266</ele>
        <time>2022-08-16T12:10:51Z</time>
      </trkpt>
      <trkpt lat="45.74373" lon="6.57163">
        <ele>1267</ele>
        <time>2022-08-16T12:10:52Z</time>
      </trkpt>
      <trkpt lat="45.7437" lon="6.57162">
        <ele>1267</ele>
        <time>2022-08-16T12:10:53Z</time>
      </trkpt>
      <trkpt lat="45.74368" lon="6.5716">
        <ele>1267</ele>
        <time>2022-08-16T12:10:54Z</time>
      </trkpt>
      <trkpt lat="45.74365" lon="6.57158">
        <ele>1268</ele>
        <time>2022-08-16T12:10:55Z</time>
      </trkpt>
      <trkpt lat="45.74363" lon="6.57155">
        <ele>1268</ele>
        <time>2022-08-16T12:10:56Z</time>
      </trkpt>
      <trkpt lat="45.74361" lon="6.57153">
        <ele>1268</ele>
        <time>2022-08-16T12:10:57Z</time>
      </trkpt>
      <trkpt lat="45.74359" lon="6.57151">
        <ele>1267</ele>
        <time>2022-08-16T12:10:58Z</time>
      </trkpt>
      <trkpt lat="45.74357" lon="6.5715">
        <ele>1267</ele>
        <time>2022-08-16T12:10:59Z</time>
      </trkpt>
      <trkpt lat="45.74355" lon="6.57148">
        <ele>1267</ele>
        <time>2022-08-16T12:11:00Z</time>
      </trkpt>
      <trkpt lat="45.74352" lon="6.57147">
        <ele>1267</ele>
        <time>2022-08-16T12:11:01Z</time>
      </trkpt>
      <trkpt lat="45.74351" lon="6.57145">
        <ele>1267</ele>
        <time>2022-08-16T12:11:02Z</time>
      </trkpt>
      <trkpt lat="45.74349" lon="6.57143">
        <ele>1267</ele>
        <time>2022-08-16T12:11:03Z</time>
      </trkpt>
      <trkpt lat="45.74347" lon="6.5714">
        <ele>1268</ele>
        <time>2022-08-16T12:11:04Z</time>
      </trkpt>
      <trkpt lat="45.74345" lon="6.57138">
        <ele>1268</ele>
        <time>2022-08-16T12:11:05Z</time>
      </trkpt>
      <trkpt lat="45.74344" lon="6.57136">
        <ele>1268</ele>
        <time>2022-08-16T12:11:06Z</time>
      </trkpt>
      <trkpt lat="45.74341" lon="6.57134">
        <ele>1268</ele>
        <time>2022-08-16T12:11:07Z</time>
      </trkpt>
      <trkpt lat="45.74339" lon="6.57132">
        <ele>1268</ele>
        <time>2022-08-16T12:11:08Z</time>
      </trkpt>
      <trkpt lat="45.74336" lon="6.5713">
        <ele>1268</ele>
        <time>2022-08-16T12:11:09Z</time>
      </trkpt>
      <trkpt lat="45.74334" lon="6.57127">
        <ele>1268</ele>
        <time>2022-08-16T12:11:10Z</time>
      </trkpt>
      <trkpt lat="45.74332" lon="6.57125">
        <ele>1268</ele>
        <time>2022-08-16T12:11:11Z</time>
      </trkpt>
      <trkpt lat="45.7433" lon="6.57123">
        <ele>1268</ele>
        <time>2022-08-16T12:11:12Z</time>
      </trkpt>
      <trkpt lat="45.74329" lon="6.57122">
        <ele>1268</ele>
        <time>2022-08-16T12:11:13Z</time>
      </trkpt>
      <trkpt lat="45.74328" lon="6.5712">
        <ele>1267</ele>
        <time>2022-08-16T12:11:14Z</time>
      </trkpt>
      <trkpt lat="45.74327" lon="6.57119">
        <ele>1267</ele>
        <time>2022-08-16T12:11:15Z</time>
      </trkpt>
      <trkpt lat="45.74327" lon="6.57118">
        <ele>1267</ele>
        <time>2022-08-16T12:11:16Z</time>
      </trkpt>
      <trkpt lat="45.74326" lon="6.57118">
        <ele>1267</ele>
        <time>2022-08-16T12:11:17Z</time>
      </trkpt>
      <trkpt lat="45.74326" lon="6.57118">
        <ele>1267</ele>
        <time>2022-08-16T12:11:18Z</time>
      </trkpt>
      <trkpt lat="45.74326" lon="6.57118">
        <ele>1267</ele>
        <time>2022-08-16T12:11:19Z</time>
      </trkpt>
      <trkpt lat="45.74326" lon="6.57118">
        <ele>1267</ele>
        <time>2022-08-16T12:11:20Z</time>
      </trkpt>
      <trkpt lat="45.74326" lon="6.57117">
        <ele>1267</ele>
        <time>2022-08-16T12:11:21Z</time>
      </trkpt>
      <trkpt lat="45.74326" lon="6.57117">
        <ele>1267</ele>
        <time>2022-08-16T12:11:22Z</time>
      </trkpt>
      <trkpt lat="45.74326" lon="6.57117">
        <ele>1267</ele>
        <time>2022-08-16T12:11:23Z</time>
      </trkpt>
      <trkpt lat="45.74326" lon="6.57117">
        <ele>1267</ele>
        <time>2022-08-16T12:11:27Z</time>
      </trkpt>
      <trkpt lat="45.74326" lon="6.57117">
        <ele>1267</ele>
        <time>2022-08-16T12:11:29Z</time>
      </trkpt>
      <trkpt lat="45.74325" lon="6.57118">
        <ele>1266</ele>
        <time>2022-08-16T12:11:30Z</time>
      </trkpt>
      <trkpt lat="45.74325" lon="6.57117">
        <ele>1266</ele>
        <time>2022-08-16T12:11:31Z</time>
      </trkpt>
      <trkpt lat="45.74325" lon="6.57117">
        <ele>1267</ele>
        <time>2022-08-16T12:11:32Z</time>
      </trkpt>
      <trkpt lat="45.74324" lon="6.57118">
        <ele>1267</ele>
        <time>2022-08-16T12:11:33Z</time>
      </trkpt>
      <trkpt lat="45.74324" lon="6.57117">
        <ele>1268</ele>
        <time>2022-08-16T12:11:34Z</time>
      </trkpt>
      <trkpt lat="45.74323" lon="6.57117">
        <ele>1268</ele>
        <time>2022-08-16T12:11:37Z</time>
      </trkpt>
      <trkpt lat="45.74323" lon="6.57117">
        <ele>1268</ele>
        <time>2022-08-16T12:11:38Z</time>
      </trkpt>
      <trkpt lat="45.74323" lon="6.57116">
        <ele>1268</ele>
        <time>2022-08-16T12:11:39Z</time>
      </trkpt>
      <trkpt lat="45.74323" lon="6.57116">
        <ele>1268</ele>
        <time>2022-08-16T12:11:40Z</time>
      </trkpt>
      <trkpt lat="45.74324" lon="6.57116">
        <ele>1268</ele>
        <time>2022-08-16T12:11:41Z</time>
      </trkpt>
      <trkpt lat="45.74323" lon="6.57116">
        <ele>1269</ele>
        <time>2022-08-16T12:11:42Z</time>
      </trkpt>
      <trkpt lat="45.74324" lon="6.57116">
        <ele>1269</ele>
        <time>2022-08-16T12:11:43Z</time>
      </trkpt>
      <trkpt lat="45.74324" lon="6.57115">
        <ele>1269</ele>
        <time>2022-08-16T12:11:44Z</time>
      </trkpt>
      <trkpt lat="45.74324" lon="6.57115">
        <ele>1269</ele>
        <time>2022-08-16T12:11:45Z</time>
      </trkpt>
      <trkpt lat="45.74325" lon="6.57115">
        <ele>1269</ele>
        <time>2022-08-16T12:11:48Z</time>
      </trkpt>
      <trkpt lat="45.74323" lon="6.57116">
        <ele>1269</ele>
        <time>2022-08-16T12:11:49Z</time>
      </trkpt>
      <trkpt lat="45.74322" lon="6.57117">
        <ele>1269</ele>
        <time>2022-08-16T12:11:50Z</time>
      </trkpt>
      <trkpt lat="45.74322" lon="6.57117">
        <ele>1269</ele>
        <time>2022-08-16T12:11:51Z</time>
      </trkpt>
      <trkpt lat="45.74322" lon="6.57117">
        <ele>1269</ele>
        <time>2022-08-16T12:11:52Z</time>
      </trkpt>
      <trkpt lat="45.74322" lon="6.57117">
        <ele>1269</ele>
        <time>2022-08-16T12:11:56Z</time>
      </trkpt>
      <trkpt lat="45.74322" lon="6.57117">
        <ele>1269</ele>
        <time>2022-08-16T12:12:00Z</time>
      </trkpt>
      <trkpt lat="45.74322" lon="6.57117">
        <ele>1269</ele>
        <time>2022-08-16T12:12:04Z</time>
      </trkpt>
      <trkpt lat="45.74322" lon="6.57117">
        <ele>1269</ele>
        <time>2022-08-16T12:12:08Z</time>
      </trkpt>
      <trkpt lat="45.74322" lon="6.57117">
        <ele>1269</ele>
        <time>2022-08-16T12:12:12Z</time>
      </trkpt>
      <trkpt lat="45.74322" lon="6.57117">
        <ele>1269</ele>
        <time>2022-08-16T12:12:16Z</time>
      </trkpt>
      <trkpt lat="45.74322" lon="6.57117">
        <ele>1269</ele>
        <time>2022-08-16T12:12:20Z</time>
      </trkpt>
      <trkpt lat="45.74322" lon="6.57117">
        <ele>1269</ele>
        <time>2022-08-16T12:12:24Z</time>
      </trkpt>
      <trkpt lat="45.74322" lon="6.57117">
        <ele>1269</ele>
        <time>2022-08-16T12:12:28Z</time>
      </trkpt>
      <trkpt lat="45.74323" lon="6.57117">
        <ele>1269</ele>
        <time>2022-08-16T12:12:31Z</time>
      </trkpt>
      <trkpt lat="45.74323" lon="6.57117">
        <ele>1269</ele>
        <time>2022-08-16T12:12:32Z</time>
      </trkpt>
      <trkpt lat="45.74323" lon="6.57117">
        <ele>1269</ele>
        <time>2022-08-16T12:12:33Z</time>
      </trkpt>
      <trkpt lat="45.74323" lon="6.57117">
        <ele>1269</ele>
        <time>2022-08-16T12:12:34Z</time>
      </trkpt>
      <trkpt lat="45.74323" lon="6.57117">
        <ele>1269</ele>
        <time>2022-08-16T12:12:38Z</time>
      </trkpt>
      <trkpt lat="45.74323" lon="6.57117">
        <ele>1269</ele>
        <time>2022-08-16T12:12:42Z</time>
      </trkpt>
      <trkpt lat="45.74323" lon="6.57117">
        <ele>1269</ele>
        <time>2022-08-16T12:12:46Z</time>
      </trkpt>
      <trkpt lat="45.74323" lon="6.57117">
        <ele>1269</ele>
        <time>2022-08-16T12:12:50Z</time>
      </trkpt>
      <trkpt lat="45.74323" lon="6.57117">
        <ele>1269</ele>
        <time>2022-08-16T12:12:54Z</time>
      </trkpt>
      <trkpt lat="45.74323" lon="6.57117">
        <ele>1269</ele>
        <time>2022-08-16T12:12:58Z</time>
      </trkpt>
      <trkpt lat="45.74323" lon="6.57117">
        <ele>1269</ele>
        <time>2022-08-16T12:13:02Z</time>
      </trkpt>
      <trkpt lat="45.74323" lon="6.57117">
        <ele>1269</ele>
        <time>2022-08-16T12:13:06Z</time>
      </trkpt>
      <trkpt lat="45.74323" lon="6.57117">
        <ele>1269</ele>
        <time>2022-08-16T12:13:10Z</time>
      </trkpt>
      <trkpt lat="45.74323" lon="6.57117">
        <ele>1269</ele>
        <time>2022-08-16T12:13:14Z</time>
      </trkpt>
      <trkpt lat="45.74323" lon="6.57117">
        <ele>1269</ele>
        <time>2022-08-16T12:13:18Z</time>
      </trkpt>
      <trkpt lat="45.74323" lon="6.57117">
        <ele>1269</ele>
        <time>2022-08-16T12:13:22Z</time>
      </trkpt>
      <trkpt lat="45.74323" lon="6.57117">
        <ele>1269</ele>
        <time>2022-08-16T12:13:26Z</time>
      </trkpt>
      <trkpt lat="45.74323" lon="6.57117">
        <ele>1269</ele>
        <time>2022-08-16T12:13:30Z</time>
      </trkpt>
      <trkpt lat="45.74323" lon="6.57117">
        <ele>1269</ele>
        <time>2022-08-16T12:13:34Z</time>
      </trkpt>
      <trkpt lat="45.74323" lon="6.57117">
        <ele>1269</ele>
        <time>2022-08-16T12:13:38Z</time>
      </trkpt>
      <trkpt lat="45.74323" lon="6.57117">
        <ele>1269</ele>
        <time>2022-08-16T12:13:42Z</time>
      </trkpt>
      <trkpt lat="45.74323" lon="6.57117">
        <ele>1269</ele>
        <time>2022-08-16T12:13:46Z</time>
      </trkpt>
      <trkpt lat="45.74323" lon="6.57117">
        <ele>1269</ele>
        <time>2022-08-16T12:13:50Z</time>
      </trkpt>
      <trkpt lat="45.74323" lon="6.57117">
        <ele>1269</ele>
        <time>2022-08-16T12:13:54Z</time>
      </trkpt>
      <trkpt lat="45.74323" lon="6.57117">
        <ele>1269</ele>
        <time>2022-08-16T12:13:58Z</time>
      </trkpt>
      <trkpt lat="45.74323" lon="6.57117">
        <ele>1269</ele>
        <time>2022-08-16T12:14:02Z</time>
      </trkpt>
      <trkpt lat="45.74323" lon="6.57117">
        <ele>1269</ele>
        <time>2022-08-16T12:14:06Z</time>
      </trkpt>
      <trkpt lat="45.74323" lon="6.57117">
        <ele>1269</ele>
        <time>2022-08-16T12:14:10Z</time>
      </trkpt>
      <trkpt lat="45.74323" lon="6.57117">
        <ele>1269</ele>
        <time>2022-08-16T12:14:14Z</time>
      </trkpt>
      <trkpt lat="45.74323" lon="6.57117">
        <ele>1269</ele>
        <time>2022-08-16T12:14:18Z</time>
      </trkpt>
      <trkpt lat="45.74323" lon="6.57117">
        <ele>1269</ele>
        <time>2022-08-16T12:14:22Z</time>
      </trkpt>
      <trkpt lat="45.74323" lon="6.57117">
        <ele>1269</ele>
        <time>2022-08-16T12:14:26Z</time>
      </trkpt>
      <trkpt lat="45.74323" lon="6.57118">
        <ele>1270</ele>
        <time>2022-08-16T12:14:29Z</time>
      </trkpt>
      <trkpt lat="45.74323" lon="6.57118">
        <ele>1270</ele>
        <time>2022-08-16T12:14:30Z</time>
      </trkpt>
      <trkpt lat="45.74323" lon="6.57118">
        <ele>1270</ele>
        <time>2022-08-16T12:14:31Z</time>
      </trkpt>
      <trkpt lat="45.74323" lon="6.57118">
        <ele>1270</ele>
        <time>2022-08-16T12:14:32Z</time>
      </trkpt>
      <trkpt lat="45.74323" lon="6.57118">
        <ele>1270</ele>
        <time>2022-08-16T12:14:36Z</time>
      </trkpt>
      <trkpt lat="45.74323" lon="6.57118">
        <ele>1270</ele>
        <time>2022-08-16T12:14:40Z</time>
      </trkpt>
      <trkpt lat="45.74323" lon="6.57118">
        <ele>1270</ele>
        <time>2022-08-16T12:14:44Z</time>
      </trkpt>
      <trkpt lat="45.74323" lon="6.57118">
        <ele>1270</ele>
        <time>2022-08-16T12:14:48Z</time>
      </trkpt>
      <trkpt lat="45.74323" lon="6.57118">
        <ele>1270</ele>
        <time>2022-08-16T12:14:52Z</time>
      </trkpt>
      <trkpt lat="45.74323" lon="6.57118">
        <ele>1271</ele>
        <time>2022-08-16T12:14:56Z</time>
      </trkpt>
      <trkpt lat="45.74323" lon="6.57118">
        <ele>1271</ele>
        <time>2022-08-16T12:14:57Z</time>
      </trkpt>
      <trkpt lat="45.74323" lon="6.57118">
        <ele>1271</ele>
        <time>2022-08-16T12:14:58Z</time>
      </trkpt>
      <trkpt lat="45.74323" lon="6.57118">
        <ele>1271</ele>
        <time>2022-08-16T12:14:59Z</time>
      </trkpt>
      <trkpt lat="45.74323" lon="6.57118">
        <ele>1271</ele>
        <time>2022-08-16T12:15:03Z</time>
      </trkpt>
      <trkpt lat="45.74323" lon="6.57118">
        <ele>1271</ele>
        <time>2022-08-16T12:15:07Z</time>
      </trkpt>
      <trkpt lat="45.74323" lon="6.57118">
        <ele>1271</ele>
        <time>2022-08-16T12:15:11Z</time>
      </trkpt>
      <trkpt lat="45.74322" lon="6.57118">
        <ele>1271</ele>
        <time>2022-08-16T12:15:12Z</time>
      </trkpt>
      <trkpt lat="45.74323" lon="6.57118">
        <ele>1271</ele>
        <time>2022-08-16T12:15:13Z</time>
      </trkpt>
      <trkpt lat="45.74323" lon="6.57118">
        <ele>1271</ele>
        <time>2022-08-16T12:15:14Z</time>
      </trkpt>
      <trkpt lat="45.74324" lon="6.57118">
        <ele>1272</ele>
        <time>2022-08-16T12:15:15Z</time>
      </trkpt>
      <trkpt lat="45.74324" lon="6.57118">
        <ele>1272</ele>
        <time>2022-08-16T12:15:16Z</time>
      </trkpt>
      <trkpt lat="45.74324" lon="6.57118">
        <ele>1272</ele>
        <time>2022-08-16T12:15:17Z</time>
      </trkpt>
      <trkpt lat="45.74324" lon="6.57118">
        <ele>1272</ele>
        <time>2022-08-16T12:15:18Z</time>
      </trkpt>
      <trkpt lat="45.74324" lon="6.57118">
        <ele>1273</ele>
        <time>2022-08-16T12:15:19Z</time>
      </trkpt>
      <trkpt lat="45.74324" lon="6.57118">
        <ele>1273</ele>
        <time>2022-08-16T12:15:23Z</time>
      </trkpt>
      <trkpt lat="45.74324" lon="6.57118">
        <ele>1273</ele>
        <time>2022-08-16T12:15:27Z</time>
      </trkpt>
      <trkpt lat="45.74324" lon="6.57118">
        <ele>1273</ele>
        <time>2022-08-16T12:15:31Z</time>
      </trkpt>
      <trkpt lat="45.74324" lon="6.57118">
        <ele>1273</ele>
        <time>2022-08-16T12:15:35Z</time>
      </trkpt>
      <trkpt lat="45.74324" lon="6.57118">
        <ele>1273</ele>
        <time>2022-08-16T12:15:39Z</time>
      </trkpt>
      <trkpt lat="45.74324" lon="6.57118">
        <ele>1273</ele>
        <time>2022-08-16T12:15:43Z</time>
      </trkpt>
      <trkpt lat="45.74324" lon="6.57118">
        <ele>1273</ele>
        <time>2022-08-16T12:15:47Z</time>
      </trkpt>
      <trkpt lat="45.74324" lon="6.57118">
        <ele>1273</ele>
        <time>2022-08-16T12:15:51Z</time>
      </trkpt>
      <trkpt lat="45.74324" lon="6.57118">
        <ele>1273</ele>
        <time>2022-08-16T12:15:55Z</time>
      </trkpt>
      <trkpt lat="45.74324" lon="6.57118">
        <ele>1273</ele>
        <time>2022-08-16T12:15:59Z</time>
      </trkpt>
      <trkpt lat="45.74325" lon="6.57118">
        <ele>1272</ele>
        <time>2022-08-16T12:16:00Z</time>
      </trkpt>
      <trkpt lat="45.74325" lon="6.57119">
        <ele>1272</ele>
        <time>2022-08-16T12:16:01Z</time>
      </trkpt>
      <trkpt lat="45.74324" lon="6.57118">
        <ele>1272</ele>
        <time>2022-08-16T12:16:02Z</time>
      </trkpt>
      <trkpt lat="45.74324" lon="6.57117">
        <ele>1272</ele>
        <time>2022-08-16T12:16:03Z</time>
      </trkpt>
      <trkpt lat="45.74324" lon="6.57117">
        <ele>1272</ele>
        <time>2022-08-16T12:16:07Z</time>
      </trkpt>
      <trkpt lat="45.74324" lon="6.57117">
        <ele>1272</ele>
        <time>2022-08-16T12:16:11Z</time>
      </trkpt>
      <trkpt lat="45.74324" lon="6.57117">
        <ele>1272</ele>
        <time>2022-08-16T12:16:15Z</time>
      </trkpt>
      <trkpt lat="45.74324" lon="6.57117">
        <ele>1272</ele>
        <time>2022-08-16T12:16:19Z</time>
      </trkpt>
      <trkpt lat="45.74324" lon="6.57118">
        <ele>1274</ele>
        <time>2022-08-16T12:16:20Z</time>
      </trkpt>
      <trkpt lat="45.74323" lon="6.57117">
        <ele>1275</ele>
        <time>2022-08-16T12:16:21Z</time>
      </trkpt>
      <trkpt lat="45.74323" lon="6.57117">
        <ele>1274</ele>
        <time>2022-08-16T12:16:22Z</time>
      </trkpt>
      <trkpt lat="45.74322" lon="6.57117">
        <ele>1274</ele>
        <time>2022-08-16T12:16:23Z</time>
      </trkpt>
      <trkpt lat="45.74322" lon="6.57117">
        <ele>1275</ele>
        <time>2022-08-16T12:16:24Z</time>
      </trkpt>
      <trkpt lat="45.74322" lon="6.57116">
        <ele>1275</ele>
        <time>2022-08-16T12:16:25Z</time>
      </trkpt>
      <trkpt lat="45.74322" lon="6.57116">
        <ele>1274</ele>
        <time>2022-08-16T12:16:26Z</time>
      </trkpt>
      <trkpt lat="45.74321" lon="6.57116">
        <ele>1275</ele>
        <time>2022-08-16T12:16:27Z</time>
      </trkpt>
      <trkpt lat="45.74321" lon="6.57116">
        <ele>1274</ele>
        <time>2022-08-16T12:16:28Z</time>
      </trkpt>
      <trkpt lat="45.74322" lon="6.57116">
        <ele>1274</ele>
        <time>2022-08-16T12:16:29Z</time>
      </trkpt>
      <trkpt lat="45.74322" lon="6.57116">
        <ele>1273</ele>
        <time>2022-08-16T12:16:30Z</time>
      </trkpt>
      <trkpt lat="45.74322" lon="6.57116">
        <ele>1273</ele>
        <time>2022-08-16T12:16:31Z</time>
      </trkpt>
      <trkpt lat="45.74322" lon="6.57116">
        <ele>1273</ele>
        <time>2022-08-16T12:16:32Z</time>
      </trkpt>
      <trkpt lat="45.74322" lon="6.57116">
        <ele>1273</ele>
        <time>2022-08-16T12:16:33Z</time>
      </trkpt>
      <trkpt lat="45.74323" lon="6.57113">
        <ele>1274</ele>
        <time>2022-08-16T12:16:36Z</time>
      </trkpt>
      <trkpt lat="45.74322" lon="6.57111">
        <ele>1274</ele>
        <time>2022-08-16T12:16:37Z</time>
      </trkpt>
      <trkpt lat="45.74322" lon="6.57107">
        <ele>1275</ele>
        <time>2022-08-16T12:16:38Z</time>
      </trkpt>
      <trkpt lat="45.74322" lon="6.57103">
        <ele>1275</ele>
        <time>2022-08-16T12:16:39Z</time>
      </trkpt>
      <trkpt lat="45.74321" lon="6.57098">
        <ele>1275</ele>
        <time>2022-08-16T12:16:40Z</time>
      </trkpt>
      <trkpt lat="45.7432" lon="6.57094">
        <ele>1274</ele>
        <time>2022-08-16T12:16:41Z</time>
      </trkpt>
      <trkpt lat="45.74318" lon="6.57091">
        <ele>1273</ele>
        <time>2022-08-16T12:16:42Z</time>
      </trkpt>
      <trkpt lat="45.74317" lon="6.57087">
        <ele>1273</ele>
        <time>2022-08-16T12:16:43Z</time>
      </trkpt>
      <trkpt lat="45.74314" lon="6.57086">
        <ele>1272</ele>
        <time>2022-08-16T12:16:44Z</time>
      </trkpt>
      <trkpt lat="45.74312" lon="6.57084">
        <ele>1273</ele>
        <time>2022-08-16T12:16:45Z</time>
      </trkpt>
      <trkpt lat="45.74309" lon="6.57083">
        <ele>1272</ele>
        <time>2022-08-16T12:16:46Z</time>
      </trkpt>
      <trkpt lat="45.74307" lon="6.57081">
        <ele>1272</ele>
        <time>2022-08-16T12:16:47Z</time>
      </trkpt>
      <trkpt lat="45.74304" lon="6.5708">
        <ele>1271</ele>
        <time>2022-08-16T12:16:48Z</time>
      </trkpt>
      <trkpt lat="45.74301" lon="6.57079">
        <ele>1271</ele>
        <time>2022-08-16T12:16:49Z</time>
      </trkpt>
      <trkpt lat="45.74299" lon="6.57078">
        <ele>1271</ele>
        <time>2022-08-16T12:16:50Z</time>
      </trkpt>
      <trkpt lat="45.74295" lon="6.57078">
        <ele>1271</ele>
        <time>2022-08-16T12:16:51Z</time>
      </trkpt>
      <trkpt lat="45.74292" lon="6.57077">
        <ele>1270</ele>
        <time>2022-08-16T12:16:52Z</time>
      </trkpt>
      <trkpt lat="45.74288" lon="6.57076">
        <ele>1270</ele>
        <time>2022-08-16T12:16:53Z</time>
      </trkpt>
      <trkpt lat="45.74285" lon="6.57076">
        <ele>1270</ele>
        <time>2022-08-16T12:16:54Z</time>
      </trkpt>
      <trkpt lat="45.74281" lon="6.57074">
        <ele>1270</ele>
        <time>2022-08-16T12:16:55Z</time>
      </trkpt>
      <trkpt lat="45.74277" lon="6.57073">
        <ele>1270</ele>
        <time>2022-08-16T12:16:56Z</time>
      </trkpt>
      <trkpt lat="45.74273" lon="6.5707">
        <ele>1269</ele>
        <time>2022-08-16T12:16:57Z</time>
      </trkpt>
      <trkpt lat="45.74268" lon="6.57067">
        <ele>1269</ele>
        <time>2022-08-16T12:16:58Z</time>
      </trkpt>
      <trkpt lat="45.74264" lon="6.57064">
        <ele>1267</ele>
        <time>2022-08-16T12:16:59Z</time>
      </trkpt>
      <trkpt lat="45.74259" lon="6.5706">
        <ele>1267</ele>
        <time>2022-08-16T12:17:00Z</time>
      </trkpt>
      <trkpt lat="45.74254" lon="6.57056">
        <ele>1268</ele>
        <time>2022-08-16T12:17:01Z</time>
      </trkpt>
      <trkpt lat="45.74248" lon="6.57053">
        <ele>1268</ele>
        <time>2022-08-16T12:17:02Z</time>
      </trkpt>
      <trkpt lat="45.74242" lon="6.57049">
        <ele>1268</ele>
        <time>2022-08-16T12:17:03Z</time>
      </trkpt>
      <trkpt lat="45.74235" lon="6.57046">
        <ele>1268</ele>
        <time>2022-08-16T12:17:04Z</time>
      </trkpt>
      <trkpt lat="45.74227" lon="6.57042">
        <ele>1268</ele>
        <time>2022-08-16T12:17:05Z</time>
      </trkpt>
      <trkpt lat="45.7422" lon="6.57039">
        <ele>1268</ele>
        <time>2022-08-16T12:17:06Z</time>
      </trkpt>
      <trkpt lat="45.74212" lon="6.57035">
        <ele>1267</ele>
        <time>2022-08-16T12:17:07Z</time>
      </trkpt>
      <trkpt lat="45.74204" lon="6.57031">
        <ele>1267</ele>
        <time>2022-08-16T12:17:08Z</time>
      </trkpt>
      <trkpt lat="45.74195" lon="6.57027">
        <ele>1267</ele>
        <time>2022-08-16T12:17:09Z</time>
      </trkpt>
      <trkpt lat="45.74186" lon="6.57023">
        <ele>1266</ele>
        <time>2022-08-16T12:17:10Z</time>
      </trkpt>
      <trkpt lat="45.74176" lon="6.57019">
        <ele>1266</ele>
        <time>2022-08-16T12:17:11Z</time>
      </trkpt>
      <trkpt lat="45.74166" lon="6.57014">
        <ele>1265</ele>
        <time>2022-08-16T12:17:12Z</time>
      </trkpt>
      <trkpt lat="45.74156" lon="6.57009">
        <ele>1264</ele>
        <time>2022-08-16T12:17:13Z</time>
      </trkpt>
      <trkpt lat="45.74146" lon="6.57004">
        <ele>1263</ele>
        <time>2022-08-16T12:17:14Z</time>
      </trkpt>
      <trkpt lat="45.74135" lon="6.56999">
        <ele>1263</ele>
        <time>2022-08-16T12:17:15Z</time>
      </trkpt>
      <trkpt lat="45.74124" lon="6.56993">
        <ele>1262</ele>
        <time>2022-08-16T12:17:16Z</time>
      </trkpt>
      <trkpt lat="45.74113" lon="6.56986">
        <ele>1261</ele>
        <time>2022-08-16T12:17:17Z</time>
      </trkpt>
      <trkpt lat="45.74101" lon="6.56978">
        <ele>1259</ele>
        <time>2022-08-16T12:17:18Z</time>
      </trkpt>
      <trkpt lat="45.7409" lon="6.56968">
        <ele>1257</ele>
        <time>2022-08-16T12:17:19Z</time>
      </trkpt>
      <trkpt lat="45.7408" lon="6.56957">
        <ele>1256</ele>
        <time>2022-08-16T12:17:20Z</time>
      </trkpt>
      <trkpt lat="45.74069" lon="6.56944">
        <ele>1254</ele>
        <time>2022-08-16T12:17:21Z</time>
      </trkpt>
      <trkpt lat="45.74058" lon="6.5693">
        <ele>1252</ele>
        <time>2022-08-16T12:17:22Z</time>
      </trkpt>
      <trkpt lat="45.74049" lon="6.56916">
        <ele>1251</ele>
        <time>2022-08-16T12:17:23Z</time>
      </trkpt>
      <trkpt lat="45.74038" lon="6.56902">
        <ele>1250</ele>
        <time>2022-08-16T12:17:24Z</time>
      </trkpt>
      <trkpt lat="45.74026" lon="6.5689">
        <ele>1249</ele>
        <time>2022-08-16T12:17:25Z</time>
      </trkpt>
      <trkpt lat="45.74013" lon="6.56882">
        <ele>1248</ele>
        <time>2022-08-16T12:17:26Z</time>
      </trkpt>
      <trkpt lat="45.73999" lon="6.56875">
        <ele>1247</ele>
        <time>2022-08-16T12:17:27Z</time>
      </trkpt>
      <trkpt lat="45.73985" lon="6.56866">
        <ele>1246</ele>
        <time>2022-08-16T12:17:28Z</time>
      </trkpt>
      <trkpt lat="45.73971" lon="6.56856">
        <ele>1244</ele>
        <time>2022-08-16T12:17:29Z</time>
      </trkpt>
      <trkpt lat="45.73958" lon="6.56846">
        <ele>1243</ele>
        <time>2022-08-16T12:17:30Z</time>
      </trkpt>
      <trkpt lat="45.73945" lon="6.56835">
        <ele>1241</ele>
        <time>2022-08-16T12:17:31Z</time>
      </trkpt>
      <trkpt lat="45.73932" lon="6.56824">
        <ele>1240</ele>
        <time>2022-08-16T12:17:32Z</time>
      </trkpt>
      <trkpt lat="45.73921" lon="6.56812">
        <ele>1237</ele>
        <time>2022-08-16T12:17:33Z</time>
      </trkpt>
      <trkpt lat="45.73912" lon="6.56796">
        <ele>1236</ele>
        <time>2022-08-16T12:17:34Z</time>
      </trkpt>
      <trkpt lat="45.73904" lon="6.56777">
        <ele>1235</ele>
        <time>2022-08-16T12:17:35Z</time>
      </trkpt>
      <trkpt lat="45.73897" lon="6.56758">
        <ele>1234</ele>
        <time>2022-08-16T12:17:36Z</time>
      </trkpt>
      <trkpt lat="45.73888" lon="6.5674">
        <ele>1233</ele>
        <time>2022-08-16T12:17:37Z</time>
      </trkpt>
      <trkpt lat="45.73879" lon="6.56722">
        <ele>1232</ele>
        <time>2022-08-16T12:17:38Z</time>
      </trkpt>
      <trkpt lat="45.7387" lon="6.56705">
        <ele>1230</ele>
        <time>2022-08-16T12:17:39Z</time>
      </trkpt>
      <trkpt lat="45.73862" lon="6.56687">
        <ele>1229</ele>
        <time>2022-08-16T12:17:40Z</time>
      </trkpt>
      <trkpt lat="45.73853" lon="6.56667">
        <ele>1227</ele>
        <time>2022-08-16T12:17:41Z</time>
      </trkpt>
      <trkpt lat="45.73846" lon="6.56648">
        <ele>1226</ele>
        <time>2022-08-16T12:17:42Z</time>
      </trkpt>
      <trkpt lat="45.73838" lon="6.5663">
        <ele>1224</ele>
        <time>2022-08-16T12:17:43Z</time>
      </trkpt>
      <trkpt lat="45.7383" lon="6.56614">
        <ele>1222</ele>
        <time>2022-08-16T12:17:44Z</time>
      </trkpt>
      <trkpt lat="45.73821" lon="6.56602">
        <ele>1221</ele>
        <time>2022-08-16T12:17:45Z</time>
      </trkpt>
      <trkpt lat="45.73809" lon="6.56592">
        <ele>1220</ele>
        <time>2022-08-16T12:17:46Z</time>
      </trkpt>
      <trkpt lat="45.73797" lon="6.56586">
        <ele>1219</ele>
        <time>2022-08-16T12:17:47Z</time>
      </trkpt>
      <trkpt lat="45.73784" lon="6.5658">
        <ele>1218</ele>
        <time>2022-08-16T12:17:48Z</time>
      </trkpt>
      <trkpt lat="45.73773" lon="6.56572">
        <ele>1217</ele>
        <time>2022-08-16T12:17:49Z</time>
      </trkpt>
      <trkpt lat="45.73761" lon="6.56564">
        <ele>1216</ele>
        <time>2022-08-16T12:17:50Z</time>
      </trkpt>
      <trkpt lat="45.73751" lon="6.56555">
        <ele>1216</ele>
        <time>2022-08-16T12:17:51Z</time>
      </trkpt>
      <trkpt lat="45.7374" lon="6.56544">
        <ele>1215</ele>
        <time>2022-08-16T12:17:52Z</time>
      </trkpt>
      <trkpt lat="45.73729" lon="6.56534">
        <ele>1215</ele>
        <time>2022-08-16T12:17:53Z</time>
      </trkpt>
      <trkpt lat="45.73719" lon="6.56523">
        <ele>1213</ele>
        <time>2022-08-16T12:17:54Z</time>
      </trkpt>
      <trkpt lat="45.73709" lon="6.56512">
        <ele>1212</ele>
        <time>2022-08-16T12:17:55Z</time>
      </trkpt>
      <trkpt lat="45.73698" lon="6.56502">
        <ele>1211</ele>
        <time>2022-08-16T12:17:56Z</time>
      </trkpt>
      <trkpt lat="45.73688" lon="6.56492">
        <ele>1210</ele>
        <time>2022-08-16T12:17:57Z</time>
      </trkpt>
      <trkpt lat="45.73676" lon="6.56484">
        <ele>1210</ele>
        <time>2022-08-16T12:17:58Z</time>
      </trkpt>
      <trkpt lat="45.73665" lon="6.56477">
        <ele>1209</ele>
        <time>2022-08-16T12:17:59Z</time>
      </trkpt>
      <trkpt lat="45.73652" lon="6.56471">
        <ele>1208</ele>
        <time>2022-08-16T12:18:00Z</time>
      </trkpt>
      <trkpt lat="45.7364" lon="6.56465">
        <ele>1206</ele>
        <time>2022-08-16T12:18:01Z</time>
      </trkpt>
      <trkpt lat="45.73626" lon="6.5646">
        <ele>1205</ele>
        <time>2022-08-16T12:18:02Z</time>
      </trkpt>
      <trkpt lat="45.73613" lon="6.56455">
        <ele>1203</ele>
        <time>2022-08-16T12:18:03Z</time>
      </trkpt>
      <trkpt lat="45.73599" lon="6.5645">
        <ele>1202</ele>
        <time>2022-08-16T12:18:04Z</time>
      </trkpt>
      <trkpt lat="45.73585" lon="6.56445">
        <ele>1201</ele>
        <time>2022-08-16T12:18:05Z</time>
      </trkpt>
      <trkpt lat="45.73572" lon="6.56441">
        <ele>1200</ele>
        <time>2022-08-16T12:18:06Z</time>
      </trkpt>
      <trkpt lat="45.73558" lon="6.56435">
        <ele>1199</ele>
        <time>2022-08-16T12:18:07Z</time>
      </trkpt>
      <trkpt lat="45.73545" lon="6.5643">
        <ele>1198</ele>
        <time>2022-08-16T12:18:08Z</time>
      </trkpt>
      <trkpt lat="45.73531" lon="6.56425">
        <ele>1197</ele>
        <time>2022-08-16T12:18:09Z</time>
      </trkpt>
      <trkpt lat="45.73517" lon="6.56419">
        <ele>1197</ele>
        <time>2022-08-16T12:18:10Z</time>
      </trkpt>
      <trkpt lat="45.73503" lon="6.56413">
        <ele>1195</ele>
        <time>2022-08-16T12:18:11Z</time>
      </trkpt>
      <trkpt lat="45.73488" lon="6.56407">
        <ele>1193</ele>
        <time>2022-08-16T12:18:12Z</time>
      </trkpt>
      <trkpt lat="45.73474" lon="6.56399">
        <ele>1192</ele>
        <time>2022-08-16T12:18:13Z</time>
      </trkpt>
      <trkpt lat="45.73462" lon="6.56387">
        <ele>1190</ele>
        <time>2022-08-16T12:18:14Z</time>
      </trkpt>
      <trkpt lat="45.73452" lon="6.56372">
        <ele>1189</ele>
        <time>2022-08-16T12:18:15Z</time>
      </trkpt>
      <trkpt lat="45.73443" lon="6.56355">
        <ele>1187</ele>
        <time>2022-08-16T12:18:16Z</time>
      </trkpt>
      <trkpt lat="45.73436" lon="6.56337">
        <ele>1186</ele>
        <time>2022-08-16T12:18:17Z</time>
      </trkpt>
      <trkpt lat="45.73429" lon="6.56318">
        <ele>1186</ele>
        <time>2022-08-16T12:18:18Z</time>
      </trkpt>
      <trkpt lat="45.73421" lon="6.563">
        <ele>1185</ele>
        <time>2022-08-16T12:18:19Z</time>
      </trkpt>
      <trkpt lat="45.73413" lon="6.56282">
        <ele>1184</ele>
        <time>2022-08-16T12:18:20Z</time>
      </trkpt>
      <trkpt lat="45.73405" lon="6.56265">
        <ele>1183</ele>
        <time>2022-08-16T12:18:21Z</time>
      </trkpt>
      <trkpt lat="45.73395" lon="6.56248">
        <ele>1182</ele>
        <time>2022-08-16T12:18:22Z</time>
      </trkpt>
      <trkpt lat="45.73385" lon="6.56233">
        <ele>1181</ele>
        <time>2022-08-16T12:18:23Z</time>
      </trkpt>
      <trkpt lat="45.73373" lon="6.56219">
        <ele>1179</ele>
        <time>2022-08-16T12:18:24Z</time>
      </trkpt>
      <trkpt lat="45.73362" lon="6.56206">
        <ele>1177</ele>
        <time>2022-08-16T12:18:25Z</time>
      </trkpt>
      <trkpt lat="45.73351" lon="6.56192">
        <ele>1176</ele>
        <time>2022-08-16T12:18:26Z</time>
      </trkpt>
      <trkpt lat="45.7334" lon="6.5618">
        <ele>1175</ele>
        <time>2022-08-16T12:18:27Z</time>
      </trkpt>
      <trkpt lat="45.73329" lon="6.56167">
        <ele>1174</ele>
        <time>2022-08-16T12:18:28Z</time>
      </trkpt>
      <trkpt lat="45.73317" lon="6.56154">
        <ele>1173</ele>
        <time>2022-08-16T12:18:29Z</time>
      </trkpt>
      <trkpt lat="45.73305" lon="6.56142">
        <ele>1172</ele>
        <time>2022-08-16T12:18:30Z</time>
      </trkpt>
      <trkpt lat="45.73294" lon="6.5613">
        <ele>1172</ele>
        <time>2022-08-16T12:18:31Z</time>
      </trkpt>
      <trkpt lat="45.73283" lon="6.56119">
        <ele>1171</ele>
        <time>2022-08-16T12:18:32Z</time>
      </trkpt>
      <trkpt lat="45.73272" lon="6.56107">
        <ele>1171</ele>
        <time>2022-08-16T12:18:33Z</time>
      </trkpt>
      <trkpt lat="45.73262" lon="6.56095">
        <ele>1169</ele>
        <time>2022-08-16T12:18:34Z</time>
      </trkpt>
      <trkpt lat="45.73257" lon="6.56078">
        <ele>1167</ele>
        <time>2022-08-16T12:18:35Z</time>
      </trkpt>
      <trkpt lat="45.73257" lon="6.56059">
        <ele>1167</ele>
        <time>2022-08-16T12:18:36Z</time>
      </trkpt>
      <trkpt lat="45.7326" lon="6.56039">
        <ele>1167</ele>
        <time>2022-08-16T12:18:37Z</time>
      </trkpt>
      <trkpt lat="45.73265" lon="6.56023">
        <ele>1168</ele>
        <time>2022-08-16T12:18:38Z</time>
      </trkpt>
      <trkpt lat="45.73271" lon="6.56008">
        <ele>1167</ele>
        <time>2022-08-16T12:18:39Z</time>
      </trkpt>
      <trkpt lat="45.73278" lon="6.55994">
        <ele>1168</ele>
        <time>2022-08-16T12:18:40Z</time>
      </trkpt>
      <trkpt lat="45.73285" lon="6.55979">
        <ele>1167</ele>
        <time>2022-08-16T12:18:41Z</time>
      </trkpt>
      <trkpt lat="45.73291" lon="6.55964">
        <ele>1166</ele>
        <time>2022-08-16T12:18:42Z</time>
      </trkpt>
      <trkpt lat="45.73295" lon="6.55947">
        <ele>1165</ele>
        <time>2022-08-16T12:18:43Z</time>
      </trkpt>
      <trkpt lat="45.73297" lon="6.5593">
        <ele>1165</ele>
        <time>2022-08-16T12:18:44Z</time>
      </trkpt>
      <trkpt lat="45.73297" lon="6.55913">
        <ele>1164</ele>
        <time>2022-08-16T12:18:45Z</time>
      </trkpt>
      <trkpt lat="45.73297" lon="6.55895">
        <ele>1164</ele>
        <time>2022-08-16T12:18:46Z</time>
      </trkpt>
      <trkpt lat="45.73297" lon="6.55877">
        <ele>1163</ele>
        <time>2022-08-16T12:18:47Z</time>
      </trkpt>
      <trkpt lat="45.73298" lon="6.55859">
        <ele>1162</ele>
        <time>2022-08-16T12:18:48Z</time>
      </trkpt>
      <trkpt lat="45.73298" lon="6.5584">
        <ele>1161</ele>
        <time>2022-08-16T12:18:49Z</time>
      </trkpt>
      <trkpt lat="45.73299" lon="6.55822">
        <ele>1160</ele>
        <time>2022-08-16T12:18:50Z</time>
      </trkpt>
      <trkpt lat="45.733" lon="6.55803">
        <ele>1159</ele>
        <time>2022-08-16T12:18:51Z</time>
      </trkpt>
      <trkpt lat="45.73302" lon="6.55784">
        <ele>1158</ele>
        <time>2022-08-16T12:18:52Z</time>
      </trkpt>
      <trkpt lat="45.73307" lon="6.55766">
        <ele>1158</ele>
        <time>2022-08-16T12:18:53Z</time>
      </trkpt>
      <trkpt lat="45.73315" lon="6.55751">
        <ele>1157</ele>
        <time>2022-08-16T12:18:54Z</time>
      </trkpt>
      <trkpt lat="45.73324" lon="6.55738">
        <ele>1156</ele>
        <time>2022-08-16T12:18:55Z</time>
      </trkpt>
      <trkpt lat="45.73334" lon="6.55725">
        <ele>1156</ele>
        <time>2022-08-16T12:18:56Z</time>
      </trkpt>
      <trkpt lat="45.73343" lon="6.55713">
        <ele>1155</ele>
        <time>2022-08-16T12:18:57Z</time>
      </trkpt>
      <trkpt lat="45.73352" lon="6.55699">
        <ele>1155</ele>
        <time>2022-08-16T12:18:58Z</time>
      </trkpt>
      <trkpt lat="45.73361" lon="6.55684">
        <ele>1154</ele>
        <time>2022-08-16T12:18:59Z</time>
      </trkpt>
      <trkpt lat="45.73367" lon="6.55668">
        <ele>1153</ele>
        <time>2022-08-16T12:19:00Z</time>
      </trkpt>
      <trkpt lat="45.73373" lon="6.55651">
        <ele>1152</ele>
        <time>2022-08-16T12:19:01Z</time>
      </trkpt>
      <trkpt lat="45.73378" lon="6.55634">
        <ele>1151</ele>
        <time>2022-08-16T12:19:02Z</time>
      </trkpt>
      <trkpt lat="45.73381" lon="6.55616">
        <ele>1150</ele>
        <time>2022-08-16T12:19:03Z</time>
      </trkpt>
      <trkpt lat="45.73383" lon="6.55598">
        <ele>1149</ele>
        <time>2022-08-16T12:19:04Z</time>
      </trkpt>
      <trkpt lat="45.73384" lon="6.5558">
        <ele>1148</ele>
        <time>2022-08-16T12:19:05Z</time>
      </trkpt>
      <trkpt lat="45.73385" lon="6.55562">
        <ele>1146</ele>
        <time>2022-08-16T12:19:06Z</time>
      </trkpt>
      <trkpt lat="45.73384" lon="6.55544">
        <ele>1144</ele>
        <time>2022-08-16T12:19:07Z</time>
      </trkpt>
      <trkpt lat="45.73382" lon="6.55527">
        <ele>1143</ele>
        <time>2022-08-16T12:19:08Z</time>
      </trkpt>
      <trkpt lat="45.7338" lon="6.55509">
        <ele>1143</ele>
        <time>2022-08-16T12:19:09Z</time>
      </trkpt>
      <trkpt lat="45.7338" lon="6.55491">
        <ele>1142</ele>
        <time>2022-08-16T12:19:10Z</time>
      </trkpt>
      <trkpt lat="45.7338" lon="6.55472">
        <ele>1142</ele>
        <time>2022-08-16T12:19:11Z</time>
      </trkpt>
      <trkpt lat="45.7338" lon="6.55453">
        <ele>1141</ele>
        <time>2022-08-16T12:19:12Z</time>
      </trkpt>
      <trkpt lat="45.73381" lon="6.55434">
        <ele>1140</ele>
        <time>2022-08-16T12:19:13Z</time>
      </trkpt>
      <trkpt lat="45.73382" lon="6.55415">
        <ele>1139</ele>
        <time>2022-08-16T12:19:14Z</time>
      </trkpt>
      <trkpt lat="45.73385" lon="6.55395">
        <ele>1137</ele>
        <time>2022-08-16T12:19:15Z</time>
      </trkpt>
      <trkpt lat="45.73389" lon="6.55376">
        <ele>1135</ele>
        <time>2022-08-16T12:19:16Z</time>
      </trkpt>
      <trkpt lat="45.73392" lon="6.55356">
        <ele>1135</ele>
        <time>2022-08-16T12:19:17Z</time>
      </trkpt>
      <trkpt lat="45.73393" lon="6.55336">
        <ele>1133</ele>
        <time>2022-08-16T12:19:18Z</time>
      </trkpt>
      <trkpt lat="45.73394" lon="6.55317">
        <ele>1132</ele>
        <time>2022-08-16T12:19:19Z</time>
      </trkpt>
      <trkpt lat="45.73394" lon="6.55297">
        <ele>1131</ele>
        <time>2022-08-16T12:19:20Z</time>
      </trkpt>
      <trkpt lat="45.73394" lon="6.55277">
        <ele>1130</ele>
        <time>2022-08-16T12:19:21Z</time>
      </trkpt>
      <trkpt lat="45.73395" lon="6.55258">
        <ele>1128</ele>
        <time>2022-08-16T12:19:22Z</time>
      </trkpt>
      <trkpt lat="45.73397" lon="6.55239">
        <ele>1126</ele>
        <time>2022-08-16T12:19:23Z</time>
      </trkpt>
      <trkpt lat="45.734" lon="6.55219">
        <ele>1125</ele>
        <time>2022-08-16T12:19:24Z</time>
      </trkpt>
      <trkpt lat="45.73405" lon="6.55201">
        <ele>1124</ele>
        <time>2022-08-16T12:19:25Z</time>
      </trkpt>
      <trkpt lat="45.73411" lon="6.55185">
        <ele>1124</ele>
        <time>2022-08-16T12:19:26Z</time>
      </trkpt>
      <trkpt lat="45.73418" lon="6.55169">
        <ele>1124</ele>
        <time>2022-08-16T12:19:27Z</time>
      </trkpt>
      <trkpt lat="45.73424" lon="6.55154">
        <ele>1123</ele>
        <time>2022-08-16T12:19:28Z</time>
      </trkpt>
      <trkpt lat="45.73427" lon="6.55137">
        <ele>1123</ele>
        <time>2022-08-16T12:19:29Z</time>
      </trkpt>
      <trkpt lat="45.73427" lon="6.55119">
        <ele>1123</ele>
        <time>2022-08-16T12:19:30Z</time>
      </trkpt>
      <trkpt lat="45.73422" lon="6.55104">
        <ele>1123</ele>
        <time>2022-08-16T12:19:31Z</time>
      </trkpt>
      <trkpt lat="45.73414" lon="6.55094">
        <ele>1122</ele>
        <time>2022-08-16T12:19:32Z</time>
      </trkpt>
      <trkpt lat="45.73405" lon="6.55085">
        <ele>1122</ele>
        <time>2022-08-16T12:19:33Z</time>
      </trkpt>
      <trkpt lat="45.73396" lon="6.55078">
        <ele>1121</ele>
        <time>2022-08-16T12:19:34Z</time>
      </trkpt>
      <trkpt lat="45.73388" lon="6.5507">
        <ele>1119</ele>
        <time>2022-08-16T12:19:35Z</time>
      </trkpt>
      <trkpt lat="45.7338" lon="6.55062">
        <ele>1117</ele>
        <time>2022-08-16T12:19:36Z</time>
      </trkpt>
      <trkpt lat="45.73373" lon="6.55053">
        <ele>1116</ele>
        <time>2022-08-16T12:19:37Z</time>
      </trkpt>
      <trkpt lat="45.73367" lon="6.55042">
        <ele>1116</ele>
        <time>2022-08-16T12:19:38Z</time>
      </trkpt>
      <trkpt lat="45.73361" lon="6.5503">
        <ele>1115</ele>
        <time>2022-08-16T12:19:39Z</time>
      </trkpt>
      <trkpt lat="45.73355" lon="6.55018">
        <ele>1114</ele>
        <time>2022-08-16T12:19:40Z</time>
      </trkpt>
      <trkpt lat="45.7335" lon="6.55006">
        <ele>1113</ele>
        <time>2022-08-16T12:19:41Z</time>
      </trkpt>
      <trkpt lat="45.73345" lon="6.54994">
        <ele>1112</ele>
        <time>2022-08-16T12:19:42Z</time>
      </trkpt>
      <trkpt lat="45.73341" lon="6.5498">
        <ele>1112</ele>
        <time>2022-08-16T12:19:43Z</time>
      </trkpt>
      <trkpt lat="45.73339" lon="6.54967">
        <ele>1112</ele>
        <time>2022-08-16T12:19:44Z</time>
      </trkpt>
      <trkpt lat="45.73338" lon="6.54953">
        <ele>1112</ele>
        <time>2022-08-16T12:19:45Z</time>
      </trkpt>
      <trkpt lat="45.73339" lon="6.54938">
        <ele>1112</ele>
        <time>2022-08-16T12:19:46Z</time>
      </trkpt>
      <trkpt lat="45.73342" lon="6.54925">
        <ele>1112</ele>
        <time>2022-08-16T12:19:47Z</time>
      </trkpt>
      <trkpt lat="45.73345" lon="6.54912">
        <ele>1111</ele>
        <time>2022-08-16T12:19:48Z</time>
      </trkpt>
      <trkpt lat="45.73348" lon="6.549">
        <ele>1111</ele>
        <time>2022-08-16T12:19:49Z</time>
      </trkpt>
      <trkpt lat="45.73351" lon="6.54887">
        <ele>1111</ele>
        <time>2022-08-16T12:19:50Z</time>
      </trkpt>
      <trkpt lat="45.73356" lon="6.54874">
        <ele>1111</ele>
        <time>2022-08-16T12:19:51Z</time>
      </trkpt>
      <trkpt lat="45.73359" lon="6.5486">
        <ele>1111</ele>
        <time>2022-08-16T12:19:52Z</time>
      </trkpt>
      <trkpt lat="45.73362" lon="6.54846">
        <ele>1111</ele>
        <time>2022-08-16T12:19:53Z</time>
      </trkpt>
      <trkpt lat="45.73365" lon="6.54831">
        <ele>1110</ele>
        <time>2022-08-16T12:19:54Z</time>
      </trkpt>
      <trkpt lat="45.73366" lon="6.54816">
        <ele>1110</ele>
        <time>2022-08-16T12:19:55Z</time>
      </trkpt>
      <trkpt lat="45.73365" lon="6.54801">
        <ele>1109</ele>
        <time>2022-08-16T12:19:56Z</time>
      </trkpt>
      <trkpt lat="45.73362" lon="6.54786">
        <ele>1109</ele>
        <time>2022-08-16T12:19:57Z</time>
      </trkpt>
      <trkpt lat="45.73359" lon="6.54772">
        <ele>1109</ele>
        <time>2022-08-16T12:19:58Z</time>
      </trkpt>
      <trkpt lat="45.73354" lon="6.54759">
        <ele>1108</ele>
        <time>2022-08-16T12:19:59Z</time>
      </trkpt>
      <trkpt lat="45.73349" lon="6.54746">
        <ele>1107</ele>
        <time>2022-08-16T12:20:00Z</time>
      </trkpt>
      <trkpt lat="45.73345" lon="6.54733">
        <ele>1106</ele>
        <time>2022-08-16T12:20:01Z</time>
      </trkpt>
      <trkpt lat="45.7334" lon="6.54719">
        <ele>1106</ele>
        <time>2022-08-16T12:20:02Z</time>
      </trkpt>
      <trkpt lat="45.73336" lon="6.54704">
        <ele>1105</ele>
        <time>2022-08-16T12:20:03Z</time>
      </trkpt>
      <trkpt lat="45.73332" lon="6.54689">
        <ele>1103</ele>
        <time>2022-08-16T12:20:04Z</time>
      </trkpt>
      <trkpt lat="45.73327" lon="6.54675">
        <ele>1103</ele>
        <time>2022-08-16T12:20:05Z</time>
      </trkpt>
      <trkpt lat="45.73323" lon="6.5466">
        <ele>1101</ele>
        <time>2022-08-16T12:20:06Z</time>
      </trkpt>
      <trkpt lat="45.73318" lon="6.54645">
        <ele>1099</ele>
        <time>2022-08-16T12:20:07Z</time>
      </trkpt>
      <trkpt lat="45.73313" lon="6.54628">
        <ele>1097</ele>
        <time>2022-08-16T12:20:08Z</time>
      </trkpt>
      <trkpt lat="45.73308" lon="6.54612">
        <ele>1097</ele>
        <time>2022-08-16T12:20:09Z</time>
      </trkpt>
      <trkpt lat="45.73303" lon="6.54596">
        <ele>1097</ele>
        <time>2022-08-16T12:20:10Z</time>
      </trkpt>
      <trkpt lat="45.73297" lon="6.5458">
        <ele>1096</ele>
        <time>2022-08-16T12:20:11Z</time>
      </trkpt>
      <trkpt lat="45.73291" lon="6.54563">
        <ele>1094</ele>
        <time>2022-08-16T12:20:12Z</time>
      </trkpt>
      <trkpt lat="45.73283" lon="6.54548">
        <ele>1092</ele>
        <time>2022-08-16T12:20:13Z</time>
      </trkpt>
      <trkpt lat="45.73275" lon="6.54533">
        <ele>1091</ele>
        <time>2022-08-16T12:20:14Z</time>
      </trkpt>
      <trkpt lat="45.73267" lon="6.54517">
        <ele>1090</ele>
        <time>2022-08-16T12:20:15Z</time>
      </trkpt>
      <trkpt lat="45.7326" lon="6.54502">
        <ele>1090</ele>
        <time>2022-08-16T12:20:16Z</time>
      </trkpt>
      <trkpt lat="45.73253" lon="6.54485">
        <ele>1089</ele>
        <time>2022-08-16T12:20:17Z</time>
      </trkpt>
      <trkpt lat="45.73249" lon="6.54467">
        <ele>1088</ele>
        <time>2022-08-16T12:20:18Z</time>
      </trkpt>
      <trkpt lat="45.73244" lon="6.54449">
        <ele>1087</ele>
        <time>2022-08-16T12:20:19Z</time>
      </trkpt>
      <trkpt lat="45.73239" lon="6.54431">
        <ele>1086</ele>
        <time>2022-08-16T12:20:20Z</time>
      </trkpt>
      <trkpt lat="45.73233" lon="6.54414">
        <ele>1086</ele>
        <time>2022-08-16T12:20:21Z</time>
      </trkpt>
      <trkpt lat="45.73227" lon="6.54397">
        <ele>1085</ele>
        <time>2022-08-16T12:20:22Z</time>
      </trkpt>
      <trkpt lat="45.7322" lon="6.5438">
        <ele>1084</ele>
        <time>2022-08-16T12:20:23Z</time>
      </trkpt>
      <trkpt lat="45.73213" lon="6.54364">
        <ele>1083</ele>
        <time>2022-08-16T12:20:24Z</time>
      </trkpt>
      <trkpt lat="45.73206" lon="6.54348">
        <ele>1082</ele>
        <time>2022-08-16T12:20:25Z</time>
      </trkpt>
      <trkpt lat="45.73198" lon="6.54333">
        <ele>1082</ele>
        <time>2022-08-16T12:20:26Z</time>
      </trkpt>
      <trkpt lat="45.7319" lon="6.54317">
        <ele>1082</ele>
        <time>2022-08-16T12:20:27Z</time>
      </trkpt>
      <trkpt lat="45.73183" lon="6.54302">
        <ele>1081</ele>
        <time>2022-08-16T12:20:28Z</time>
      </trkpt>
      <trkpt lat="45.73177" lon="6.54285">
        <ele>1081</ele>
        <time>2022-08-16T12:20:29Z</time>
      </trkpt>
      <trkpt lat="45.73173" lon="6.54268">
        <ele>1080</ele>
        <time>2022-08-16T12:20:30Z</time>
      </trkpt>
      <trkpt lat="45.73174" lon="6.5425">
        <ele>1079</ele>
        <time>2022-08-16T12:20:31Z</time>
      </trkpt>
      <trkpt lat="45.73178" lon="6.54233">
        <ele>1078</ele>
        <time>2022-08-16T12:20:32Z</time>
      </trkpt>
      <trkpt lat="45.73181" lon="6.54215">
        <ele>1078</ele>
        <time>2022-08-16T12:20:33Z</time>
      </trkpt>
      <trkpt lat="45.73184" lon="6.54199">
        <ele>1078</ele>
        <time>2022-08-16T12:20:34Z</time>
      </trkpt>
      <trkpt lat="45.73187" lon="6.54182">
        <ele>1078</ele>
        <time>2022-08-16T12:20:35Z</time>
      </trkpt>
      <trkpt lat="45.73191" lon="6.54165">
        <ele>1077</ele>
        <time>2022-08-16T12:20:36Z</time>
      </trkpt>
      <trkpt lat="45.73195" lon="6.54149">
        <ele>1077</ele>
        <time>2022-08-16T12:20:37Z</time>
      </trkpt>
      <trkpt lat="45.73199" lon="6.54133">
        <ele>1077</ele>
        <time>2022-08-16T12:20:38Z</time>
      </trkpt>
      <trkpt lat="45.73205" lon="6.54119">
        <ele>1076</ele>
        <time>2022-08-16T12:20:39Z</time>
      </trkpt>
      <trkpt lat="45.73211" lon="6.54105">
        <ele>1076</ele>
        <time>2022-08-16T12:20:40Z</time>
      </trkpt>
      <trkpt lat="45.73219" lon="6.54093">
        <ele>1076</ele>
        <time>2022-08-16T12:20:41Z</time>
      </trkpt>
      <trkpt lat="45.73226" lon="6.54082">
        <ele>1076</ele>
        <time>2022-08-16T12:20:42Z</time>
      </trkpt>
      <trkpt lat="45.73231" lon="6.5407">
        <ele>1075</ele>
        <time>2022-08-16T12:20:43Z</time>
      </trkpt>
      <trkpt lat="45.73231" lon="6.54058">
        <ele>1075</ele>
        <time>2022-08-16T12:20:44Z</time>
      </trkpt>
      <trkpt lat="45.73227" lon="6.54051">
        <ele>1074</ele>
        <time>2022-08-16T12:20:45Z</time>
      </trkpt>
      <trkpt lat="45.73218" lon="6.54047">
        <ele>1074</ele>
        <time>2022-08-16T12:20:46Z</time>
      </trkpt>
      <trkpt lat="45.7321" lon="6.5405">
        <ele>1074</ele>
        <time>2022-08-16T12:20:47Z</time>
      </trkpt>
      <trkpt lat="45.73203" lon="6.54058">
        <ele>1074</ele>
        <time>2022-08-16T12:20:48Z</time>
      </trkpt>
      <trkpt lat="45.73199" lon="6.54069">
        <ele>1073</ele>
        <time>2022-08-16T12:20:49Z</time>
      </trkpt>
      <trkpt lat="45.73196" lon="6.5408">
        <ele>1072</ele>
        <time>2022-08-16T12:20:50Z</time>
      </trkpt>
      <trkpt lat="45.73192" lon="6.54092">
        <ele>1072</ele>
        <time>2022-08-16T12:20:51Z</time>
      </trkpt>
      <trkpt lat="45.73188" lon="6.54104">
        <ele>1071</ele>
        <time>2022-08-16T12:20:52Z</time>
      </trkpt>
      <trkpt lat="45.73184" lon="6.54117">
        <ele>1070</ele>
        <time>2022-08-16T12:20:53Z</time>
      </trkpt>
      <trkpt lat="45.7318" lon="6.54129">
        <ele>1070</ele>
        <time>2022-08-16T12:20:54Z</time>
      </trkpt>
      <trkpt lat="45.73175" lon="6.54142">
        <ele>1070</ele>
        <time>2022-08-16T12:20:55Z</time>
      </trkpt>
      <trkpt lat="45.73172" lon="6.54156">
        <ele>1069</ele>
        <time>2022-08-16T12:20:56Z</time>
      </trkpt>
      <trkpt lat="45.73168" lon="6.5417">
        <ele>1068</ele>
        <time>2022-08-16T12:20:57Z</time>
      </trkpt>
      <trkpt lat="45.73164" lon="6.54185">
        <ele>1067</ele>
        <time>2022-08-16T12:20:58Z</time>
      </trkpt>
      <trkpt lat="45.7316" lon="6.542">
        <ele>1066</ele>
        <time>2022-08-16T12:20:59Z</time>
      </trkpt>
      <trkpt lat="45.73156" lon="6.54216">
        <ele>1065</ele>
        <time>2022-08-16T12:21:00Z</time>
      </trkpt>
      <trkpt lat="45.73152" lon="6.54232">
        <ele>1064</ele>
        <time>2022-08-16T12:21:01Z</time>
      </trkpt>
      <trkpt lat="45.73148" lon="6.54248">
        <ele>1064</ele>
        <time>2022-08-16T12:21:02Z</time>
      </trkpt>
      <trkpt lat="45.73143" lon="6.54265">
        <ele>1063</ele>
        <time>2022-08-16T12:21:03Z</time>
      </trkpt>
      <trkpt lat="45.73139" lon="6.54281">
        <ele>1063</ele>
        <time>2022-08-16T12:21:04Z</time>
      </trkpt>
      <trkpt lat="45.73136" lon="6.54298">
        <ele>1062</ele>
        <time>2022-08-16T12:21:05Z</time>
      </trkpt>
      <trkpt lat="45.73136" lon="6.54316">
        <ele>1061</ele>
        <time>2022-08-16T12:21:06Z</time>
      </trkpt>
      <trkpt lat="45.73139" lon="6.54335">
        <ele>1060</ele>
        <time>2022-08-16T12:21:07Z</time>
      </trkpt>
      <trkpt lat="45.73145" lon="6.54354">
        <ele>1060</ele>
        <time>2022-08-16T12:21:08Z</time>
      </trkpt>
      <trkpt lat="45.73151" lon="6.54372">
        <ele>1059</ele>
        <time>2022-08-16T12:21:09Z</time>
      </trkpt>
      <trkpt lat="45.73158" lon="6.54389">
        <ele>1058</ele>
        <time>2022-08-16T12:21:10Z</time>
      </trkpt>
      <trkpt lat="45.73164" lon="6.54408">
        <ele>1057</ele>
        <time>2022-08-16T12:21:11Z</time>
      </trkpt>
      <trkpt lat="45.7317" lon="6.54427">
        <ele>1055</ele>
        <time>2022-08-16T12:21:12Z</time>
      </trkpt>
      <trkpt lat="45.73175" lon="6.54447">
        <ele>1055</ele>
        <time>2022-08-16T12:21:13Z</time>
      </trkpt>
      <trkpt lat="45.73177" lon="6.54468">
        <ele>1054</ele>
        <time>2022-08-16T12:21:14Z</time>
      </trkpt>
      <trkpt lat="45.73176" lon="6.54488">
        <ele>1054</ele>
        <time>2022-08-16T12:21:15Z</time>
      </trkpt>
      <trkpt lat="45.73173" lon="6.54507">
        <ele>1052</ele>
        <time>2022-08-16T12:21:16Z</time>
      </trkpt>
      <trkpt lat="45.73171" lon="6.54528">
        <ele>1051</ele>
        <time>2022-08-16T12:21:17Z</time>
      </trkpt>
      <trkpt lat="45.73169" lon="6.54548">
        <ele>1050</ele>
        <time>2022-08-16T12:21:18Z</time>
      </trkpt>
      <trkpt lat="45.73167" lon="6.54569">
        <ele>1049</ele>
        <time>2022-08-16T12:21:19Z</time>
      </trkpt>
      <trkpt lat="45.73166" lon="6.54589">
        <ele>1048</ele>
        <time>2022-08-16T12:21:20Z</time>
      </trkpt>
      <trkpt lat="45.73166" lon="6.5461">
        <ele>1047</ele>
        <time>2022-08-16T12:21:21Z</time>
      </trkpt>
      <trkpt lat="45.73168" lon="6.54631">
        <ele>1045</ele>
        <time>2022-08-16T12:21:22Z</time>
      </trkpt>
      <trkpt lat="45.7317" lon="6.54653">
        <ele>1044</ele>
        <time>2022-08-16T12:21:23Z</time>
      </trkpt>
      <trkpt lat="45.73173" lon="6.54673">
        <ele>1043</ele>
        <time>2022-08-16T12:21:24Z</time>
      </trkpt>
      <trkpt lat="45.73176" lon="6.54693">
        <ele>1042</ele>
        <time>2022-08-16T12:21:25Z</time>
      </trkpt>
      <trkpt lat="45.73179" lon="6.54713">
        <ele>1041</ele>
        <time>2022-08-16T12:21:26Z</time>
      </trkpt>
      <trkpt lat="45.73183" lon="6.54733">
        <ele>1040</ele>
        <time>2022-08-16T12:21:27Z</time>
      </trkpt>
      <trkpt lat="45.73187" lon="6.54754">
        <ele>1038</ele>
        <time>2022-08-16T12:21:28Z</time>
      </trkpt>
      <trkpt lat="45.7319" lon="6.54774">
        <ele>1037</ele>
        <time>2022-08-16T12:21:29Z</time>
      </trkpt>
      <trkpt lat="45.73193" lon="6.54795">
        <ele>1036</ele>
        <time>2022-08-16T12:21:30Z</time>
      </trkpt>
      <trkpt lat="45.73196" lon="6.54815">
        <ele>1035</ele>
        <time>2022-08-16T12:21:31Z</time>
      </trkpt>
      <trkpt lat="45.732" lon="6.54836">
        <ele>1034</ele>
        <time>2022-08-16T12:21:32Z</time>
      </trkpt>
      <trkpt lat="45.73203" lon="6.54857">
        <ele>1032</ele>
        <time>2022-08-16T12:21:33Z</time>
      </trkpt>
      <trkpt lat="45.73207" lon="6.54877">
        <ele>1031</ele>
        <time>2022-08-16T12:21:34Z</time>
      </trkpt>
      <trkpt lat="45.73208" lon="6.54898">
        <ele>1029</ele>
        <time>2022-08-16T12:21:35Z</time>
      </trkpt>
      <trkpt lat="45.73205" lon="6.54917">
        <ele>1028</ele>
        <time>2022-08-16T12:21:36Z</time>
      </trkpt>
      <trkpt lat="45.73201" lon="6.54936">
        <ele>1026</ele>
        <time>2022-08-16T12:21:37Z</time>
      </trkpt>
      <trkpt lat="45.73197" lon="6.54955">
        <ele>1025</ele>
        <time>2022-08-16T12:21:38Z</time>
      </trkpt>
      <trkpt lat="45.73196" lon="6.54976">
        <ele>1023</ele>
        <time>2022-08-16T12:21:39Z</time>
      </trkpt>
      <trkpt lat="45.73196" lon="6.54997">
        <ele>1021</ele>
        <time>2022-08-16T12:21:40Z</time>
      </trkpt>
      <trkpt lat="45.73196" lon="6.55017">
        <ele>1020</ele>
        <time>2022-08-16T12:21:41Z</time>
      </trkpt>
      <trkpt lat="45.73198" lon="6.55037">
        <ele>1019</ele>
        <time>2022-08-16T12:21:42Z</time>
      </trkpt>
      <trkpt lat="45.732" lon="6.55058">
        <ele>1018</ele>
        <time>2022-08-16T12:21:43Z</time>
      </trkpt>
      <trkpt lat="45.73204" lon="6.55078">
        <ele>1017</ele>
        <time>2022-08-16T12:21:44Z</time>
      </trkpt>
      <trkpt lat="45.73207" lon="6.55098">
        <ele>1016</ele>
        <time>2022-08-16T12:21:45Z</time>
      </trkpt>
      <trkpt lat="45.73211" lon="6.55117">
        <ele>1015</ele>
        <time>2022-08-16T12:21:46Z</time>
      </trkpt>
      <trkpt lat="45.73215" lon="6.55135">
        <ele>1014</ele>
        <time>2022-08-16T12:21:47Z</time>
      </trkpt>
      <trkpt lat="45.73216" lon="6.55153">
        <ele>1013</ele>
        <time>2022-08-16T12:21:48Z</time>
      </trkpt>
      <trkpt lat="45.73213" lon="6.5517">
        <ele>1013</ele>
        <time>2022-08-16T12:21:49Z</time>
      </trkpt>
      <trkpt lat="45.73206" lon="6.55185">
        <ele>1012</ele>
        <time>2022-08-16T12:21:50Z</time>
      </trkpt>
      <trkpt lat="45.73198" lon="6.55198">
        <ele>1011</ele>
        <time>2022-08-16T12:21:51Z</time>
      </trkpt>
      <trkpt lat="45.73188" lon="6.5521">
        <ele>1011</ele>
        <time>2022-08-16T12:21:52Z</time>
      </trkpt>
      <trkpt lat="45.73178" lon="6.55221">
        <ele>1010</ele>
        <time>2022-08-16T12:21:53Z</time>
      </trkpt>
      <trkpt lat="45.73167" lon="6.55232">
        <ele>1008</ele>
        <time>2022-08-16T12:21:54Z</time>
      </trkpt>
      <trkpt lat="45.73157" lon="6.55243">
        <ele>1007</ele>
        <time>2022-08-16T12:21:55Z</time>
      </trkpt>
      <trkpt lat="45.73148" lon="6.55254">
        <ele>1005</ele>
        <time>2022-08-16T12:21:56Z</time>
      </trkpt>
      <trkpt lat="45.73138" lon="6.55265">
        <ele>1005</ele>
        <time>2022-08-16T12:21:57Z</time>
      </trkpt>
      <trkpt lat="45.7313" lon="6.5528">
        <ele>1004</ele>
        <time>2022-08-16T12:21:58Z</time>
      </trkpt>
      <trkpt lat="45.73123" lon="6.55296">
        <ele>1003</ele>
        <time>2022-08-16T12:21:59Z</time>
      </trkpt>
      <trkpt lat="45.73115" lon="6.55312">
        <ele>1001</ele>
        <time>2022-08-16T12:22:00Z</time>
      </trkpt>
      <trkpt lat="45.73106" lon="6.55328">
        <ele>1000</ele>
        <time>2022-08-16T12:22:01Z</time>
      </trkpt>
      <trkpt lat="45.73098" lon="6.55345">
        <ele>999</ele>
        <time>2022-08-16T12:22:02Z</time>
      </trkpt>
      <trkpt lat="45.7309" lon="6.55363">
        <ele>998</ele>
        <time>2022-08-16T12:22:03Z</time>
      </trkpt>
      <trkpt lat="45.73082" lon="6.5538">
        <ele>997</ele>
        <time>2022-08-16T12:22:04Z</time>
      </trkpt>
      <trkpt lat="45.73073" lon="6.55398">
        <ele>996</ele>
        <time>2022-08-16T12:22:05Z</time>
      </trkpt>
      <trkpt lat="45.73065" lon="6.55416">
        <ele>995</ele>
        <time>2022-08-16T12:22:06Z</time>
      </trkpt>
      <trkpt lat="45.73057" lon="6.55434">
        <ele>993</ele>
        <time>2022-08-16T12:22:07Z</time>
      </trkpt>
      <trkpt lat="45.73048" lon="6.55453">
        <ele>991</ele>
        <time>2022-08-16T12:22:08Z</time>
      </trkpt>
      <trkpt lat="45.7304" lon="6.55472">
        <ele>990</ele>
        <time>2022-08-16T12:22:09Z</time>
      </trkpt>
      <trkpt lat="45.73033" lon="6.55493">
        <ele>989</ele>
        <time>2022-08-16T12:22:10Z</time>
      </trkpt>
      <trkpt lat="45.73029" lon="6.55515">
        <ele>988</ele>
        <time>2022-08-16T12:22:11Z</time>
      </trkpt>
      <trkpt lat="45.73027" lon="6.55538">
        <ele>987</ele>
        <time>2022-08-16T12:22:12Z</time>
      </trkpt>
      <trkpt lat="45.73027" lon="6.5556">
        <ele>986</ele>
        <time>2022-08-16T12:22:13Z</time>
      </trkpt>
      <trkpt lat="45.73027" lon="6.55583">
        <ele>986</ele>
        <time>2022-08-16T12:22:14Z</time>
      </trkpt>
      <trkpt lat="45.73027" lon="6.55606">
        <ele>985</ele>
        <time>2022-08-16T12:22:15Z</time>
      </trkpt>
      <trkpt lat="45.73026" lon="6.55628">
        <ele>983</ele>
        <time>2022-08-16T12:22:16Z</time>
      </trkpt>
      <trkpt lat="45.73026" lon="6.55651">
        <ele>983</ele>
        <time>2022-08-16T12:22:17Z</time>
      </trkpt>
      <trkpt lat="45.73026" lon="6.55673">
        <ele>982</ele>
        <time>2022-08-16T12:22:18Z</time>
      </trkpt>
      <trkpt lat="45.73025" lon="6.55695">
        <ele>981</ele>
        <time>2022-08-16T12:22:19Z</time>
      </trkpt>
      <trkpt lat="45.73023" lon="6.55717">
        <ele>980</ele>
        <time>2022-08-16T12:22:20Z</time>
      </trkpt>
      <trkpt lat="45.73019" lon="6.5574">
        <ele>979</ele>
        <time>2022-08-16T12:22:21Z</time>
      </trkpt>
      <trkpt lat="45.73015" lon="6.55762">
        <ele>977</ele>
        <time>2022-08-16T12:22:22Z</time>
      </trkpt>
      <trkpt lat="45.73011" lon="6.55785">
        <ele>977</ele>
        <time>2022-08-16T12:22:23Z</time>
      </trkpt>
      <trkpt lat="45.73008" lon="6.55807">
        <ele>976</ele>
        <time>2022-08-16T12:22:24Z</time>
      </trkpt>
      <trkpt lat="45.73004" lon="6.55829">
        <ele>975</ele>
        <time>2022-08-16T12:22:25Z</time>
      </trkpt>
      <trkpt lat="45.73" lon="6.55851">
        <ele>973</ele>
        <time>2022-08-16T12:22:26Z</time>
      </trkpt>
      <trkpt lat="45.72996" lon="6.55873">
        <ele>972</ele>
        <time>2022-08-16T12:22:27Z</time>
      </trkpt>
      <trkpt lat="45.72992" lon="6.55895">
        <ele>971</ele>
        <time>2022-08-16T12:22:28Z</time>
      </trkpt>
      <trkpt lat="45.72989" lon="6.55918">
        <ele>970</ele>
        <time>2022-08-16T12:22:29Z</time>
      </trkpt>
      <trkpt lat="45.72986" lon="6.55941">
        <ele>969</ele>
        <time>2022-08-16T12:22:30Z</time>
      </trkpt>
      <trkpt lat="45.72983" lon="6.55963">
        <ele>967</ele>
        <time>2022-08-16T12:22:31Z</time>
      </trkpt>
      <trkpt lat="45.7298" lon="6.55985">
        <ele>966</ele>
        <time>2022-08-16T12:22:32Z</time>
      </trkpt>
      <trkpt lat="45.72977" lon="6.56006">
        <ele>964</ele>
        <time>2022-08-16T12:22:33Z</time>
      </trkpt>
      <trkpt lat="45.72974" lon="6.56028">
        <ele>963</ele>
        <time>2022-08-16T12:22:34Z</time>
      </trkpt>
      <trkpt lat="45.72972" lon="6.5605">
        <ele>961</ele>
        <time>2022-08-16T12:22:35Z</time>
      </trkpt>
      <trkpt lat="45.7297" lon="6.5607">
        <ele>960</ele>
        <time>2022-08-16T12:22:36Z</time>
      </trkpt>
      <trkpt lat="45.72969" lon="6.56089">
        <ele>960</ele>
        <time>2022-08-16T12:22:37Z</time>
      </trkpt>
      <trkpt lat="45.72969" lon="6.56108">
        <ele>959</ele>
        <time>2022-08-16T12:22:38Z</time>
      </trkpt>
      <trkpt lat="45.72969" lon="6.56128">
        <ele>958</ele>
        <time>2022-08-16T12:22:39Z</time>
      </trkpt>
      <trkpt lat="45.72969" lon="6.56147">
        <ele>957</ele>
        <time>2022-08-16T12:22:40Z</time>
      </trkpt>
      <trkpt lat="45.7297" lon="6.56164">
        <ele>956</ele>
        <time>2022-08-16T12:22:41Z</time>
      </trkpt>
      <trkpt lat="45.7297" lon="6.56178">
        <ele>956</ele>
        <time>2022-08-16T12:22:42Z</time>
      </trkpt>
      <trkpt lat="45.72971" lon="6.56191">
        <ele>956</ele>
        <time>2022-08-16T12:22:43Z</time>
      </trkpt>
      <trkpt lat="45.72971" lon="6.56203">
        <ele>955</ele>
        <time>2022-08-16T12:22:44Z</time>
      </trkpt>
      <trkpt lat="45.72971" lon="6.56213">
        <ele>954</ele>
        <time>2022-08-16T12:22:45Z</time>
      </trkpt>
      <trkpt lat="45.72968" lon="6.5622">
        <ele>954</ele>
        <time>2022-08-16T12:22:46Z</time>
      </trkpt>
      <trkpt lat="45.72961" lon="6.56222">
        <ele>953</ele>
        <time>2022-08-16T12:22:47Z</time>
      </trkpt>
      <trkpt lat="45.72954" lon="6.56218">
        <ele>952</ele>
        <time>2022-08-16T12:22:48Z</time>
      </trkpt>
      <trkpt lat="45.72949" lon="6.56209">
        <ele>953</ele>
        <time>2022-08-16T12:22:49Z</time>
      </trkpt>
      <trkpt lat="45.72949" lon="6.56199">
        <ele>951</ele>
        <time>2022-08-16T12:22:50Z</time>
      </trkpt>
      <trkpt lat="45.72949" lon="6.5619">
        <ele>950</ele>
        <time>2022-08-16T12:22:51Z</time>
      </trkpt>
      <trkpt lat="45.7295" lon="6.56179">
        <ele>949</ele>
        <time>2022-08-16T12:22:52Z</time>
      </trkpt>
      <trkpt lat="45.72951" lon="6.56168">
        <ele>947</ele>
        <time>2022-08-16T12:22:53Z</time>
      </trkpt>
      <trkpt lat="45.72953" lon="6.56156">
        <ele>945</ele>
        <time>2022-08-16T12:22:54Z</time>
      </trkpt>
      <trkpt lat="45.72954" lon="6.56143">
        <ele>944</ele>
        <time>2022-08-16T12:22:55Z</time>
      </trkpt>
      <trkpt lat="45.72954" lon="6.56131">
        <ele>942</ele>
        <time>2022-08-16T12:22:56Z</time>
      </trkpt>
      <trkpt lat="45.72955" lon="6.56118">
        <ele>941</ele>
        <time>2022-08-16T12:22:57Z</time>
      </trkpt>
      <trkpt lat="45.72955" lon="6.56104">
        <ele>941</ele>
        <time>2022-08-16T12:22:58Z</time>
      </trkpt>
      <trkpt lat="45.72955" lon="6.56091">
        <ele>940</ele>
        <time>2022-08-16T12:22:59Z</time>
      </trkpt>
      <trkpt lat="45.72954" lon="6.56077">
        <ele>940</ele>
        <time>2022-08-16T12:23:00Z</time>
      </trkpt>
      <trkpt lat="45.72953" lon="6.56064">
        <ele>939</ele>
        <time>2022-08-16T12:23:01Z</time>
      </trkpt>
      <trkpt lat="45.72951" lon="6.5605">
        <ele>939</ele>
        <time>2022-08-16T12:23:02Z</time>
      </trkpt>
      <trkpt lat="45.7295" lon="6.56036">
        <ele>939</ele>
        <time>2022-08-16T12:23:03Z</time>
      </trkpt>
      <trkpt lat="45.72949" lon="6.56021">
        <ele>938</ele>
        <time>2022-08-16T12:23:04Z</time>
      </trkpt>
      <trkpt lat="45.72949" lon="6.56006">
        <ele>938</ele>
        <time>2022-08-16T12:23:05Z</time>
      </trkpt>
      <trkpt lat="45.72948" lon="6.55991">
        <ele>937</ele>
        <time>2022-08-16T12:23:06Z</time>
      </trkpt>
      <trkpt lat="45.72946" lon="6.55975">
        <ele>937</ele>
        <time>2022-08-16T12:23:07Z</time>
      </trkpt>
      <trkpt lat="45.72945" lon="6.55958">
        <ele>936</ele>
        <time>2022-08-16T12:23:08Z</time>
      </trkpt>
      <trkpt lat="45.72943" lon="6.5594">
        <ele>935</ele>
        <time>2022-08-16T12:23:09Z</time>
      </trkpt>
      <trkpt lat="45.72942" lon="6.55923">
        <ele>935</ele>
        <time>2022-08-16T12:23:10Z</time>
      </trkpt>
      <trkpt lat="45.72941" lon="6.55904">
        <ele>934</ele>
        <time>2022-08-16T12:23:11Z</time>
      </trkpt>
      <trkpt lat="45.72939" lon="6.55887">
        <ele>932</ele>
        <time>2022-08-16T12:23:12Z</time>
      </trkpt>
      <trkpt lat="45.72937" lon="6.55869">
        <ele>932</ele>
        <time>2022-08-16T12:23:13Z</time>
      </trkpt>
      <trkpt lat="45.72935" lon="6.55851">
        <ele>931</ele>
        <time>2022-08-16T12:23:14Z</time>
      </trkpt>
      <trkpt lat="45.72934" lon="6.55833">
        <ele>930</ele>
        <time>2022-08-16T12:23:15Z</time>
      </trkpt>
      <trkpt lat="45.72933" lon="6.55815">
        <ele>928</ele>
        <time>2022-08-16T12:23:16Z</time>
      </trkpt>
      <trkpt lat="45.72932" lon="6.55797">
        <ele>927</ele>
        <time>2022-08-16T12:23:17Z</time>
      </trkpt>
      <trkpt lat="45.72931" lon="6.55779">
        <ele>926</ele>
        <time>2022-08-16T12:23:18Z</time>
      </trkpt>
      <trkpt lat="45.72931" lon="6.5576">
        <ele>924</ele>
        <time>2022-08-16T12:23:19Z</time>
      </trkpt>
      <trkpt lat="45.72931" lon="6.55742">
        <ele>923</ele>
        <time>2022-08-16T12:23:20Z</time>
      </trkpt>
      <trkpt lat="45.7293" lon="6.55723">
        <ele>921</ele>
        <time>2022-08-16T12:23:21Z</time>
      </trkpt>
      <trkpt lat="45.72929" lon="6.55704">
        <ele>920</ele>
        <time>2022-08-16T12:23:22Z</time>
      </trkpt>
      <trkpt lat="45.72928" lon="6.55686">
        <ele>918</ele>
        <time>2022-08-16T12:23:23Z</time>
      </trkpt>
      <trkpt lat="45.72925" lon="6.55667">
        <ele>917</ele>
        <time>2022-08-16T12:23:24Z</time>
      </trkpt>
      <trkpt lat="45.72922" lon="6.55649">
        <ele>916</ele>
        <time>2022-08-16T12:23:25Z</time>
      </trkpt>
      <trkpt lat="45.72921" lon="6.55631">
        <ele>914</ele>
        <time>2022-08-16T12:23:26Z</time>
      </trkpt>
      <trkpt lat="45.72921" lon="6.55613">
        <ele>912</ele>
        <time>2022-08-16T12:23:27Z</time>
      </trkpt>
      <trkpt lat="45.72923" lon="6.55594">
        <ele>912</ele>
        <time>2022-08-16T12:23:28Z</time>
      </trkpt>
      <trkpt lat="45.72925" lon="6.55575">
        <ele>911</ele>
        <time>2022-08-16T12:23:29Z</time>
      </trkpt>
      <trkpt lat="45.72927" lon="6.55556">
        <ele>911</ele>
        <time>2022-08-16T12:23:30Z</time>
      </trkpt>
      <trkpt lat="45.72929" lon="6.55537">
        <ele>910</ele>
        <time>2022-08-16T12:23:31Z</time>
      </trkpt>
      <trkpt lat="45.72928" lon="6.55517">
        <ele>908</ele>
        <time>2022-08-16T12:23:32Z</time>
      </trkpt>
      <trkpt lat="45.72928" lon="6.55498">
        <ele>907</ele>
        <time>2022-08-16T12:23:33Z</time>
      </trkpt>
      <trkpt lat="45.72926" lon="6.55478">
        <ele>906</ele>
        <time>2022-08-16T12:23:34Z</time>
      </trkpt>
      <trkpt lat="45.72922" lon="6.55459">
        <ele>905</ele>
        <time>2022-08-16T12:23:35Z</time>
      </trkpt>
      <trkpt lat="45.72919" lon="6.5544">
        <ele>903</ele>
        <time>2022-08-16T12:23:36Z</time>
      </trkpt>
      <trkpt lat="45.72915" lon="6.55421">
        <ele>900</ele>
        <time>2022-08-16T12:23:37Z</time>
      </trkpt>
      <trkpt lat="45.72911" lon="6.55402">
        <ele>899</ele>
        <time>2022-08-16T12:23:38Z</time>
      </trkpt>
      <trkpt lat="45.72907" lon="6.55383">
        <ele>898</ele>
        <time>2022-08-16T12:23:39Z</time>
      </trkpt>
      <trkpt lat="45.72904" lon="6.55363">
        <ele>895</ele>
        <time>2022-08-16T12:23:40Z</time>
      </trkpt>
      <trkpt lat="45.729" lon="6.55343">
        <ele>894</ele>
        <time>2022-08-16T12:23:41Z</time>
      </trkpt>
      <trkpt lat="45.72898" lon="6.55323">
        <ele>892</ele>
        <time>2022-08-16T12:23:42Z</time>
      </trkpt>
      <trkpt lat="45.72897" lon="6.55302">
        <ele>891</ele>
        <time>2022-08-16T12:23:43Z</time>
      </trkpt>
      <trkpt lat="45.72896" lon="6.55282">
        <ele>889</ele>
        <time>2022-08-16T12:23:44Z</time>
      </trkpt>
      <trkpt lat="45.72896" lon="6.55262">
        <ele>888</ele>
        <time>2022-08-16T12:23:45Z</time>
      </trkpt>
      <trkpt lat="45.72895" lon="6.55242">
        <ele>886</ele>
        <time>2022-08-16T12:23:46Z</time>
      </trkpt>
      <trkpt lat="45.72895" lon="6.55222">
        <ele>884</ele>
        <time>2022-08-16T12:23:47Z</time>
      </trkpt>
      <trkpt lat="45.72896" lon="6.55203">
        <ele>882</ele>
        <time>2022-08-16T12:23:48Z</time>
      </trkpt>
      <trkpt lat="45.72898" lon="6.55184">
        <ele>881</ele>
        <time>2022-08-16T12:23:49Z</time>
      </trkpt>
      <trkpt lat="45.72899" lon="6.55165">
        <ele>880</ele>
        <time>2022-08-16T12:23:50Z</time>
      </trkpt>
      <trkpt lat="45.72897" lon="6.55146">
        <ele>880</ele>
        <time>2022-08-16T12:23:51Z</time>
      </trkpt>
      <trkpt lat="45.72894" lon="6.55128">
        <ele>879</ele>
        <time>2022-08-16T12:23:52Z</time>
      </trkpt>
      <trkpt lat="45.72891" lon="6.5511">
        <ele>879</ele>
        <time>2022-08-16T12:23:53Z</time>
      </trkpt>
      <trkpt lat="45.72889" lon="6.55092">
        <ele>878</ele>
        <time>2022-08-16T12:23:54Z</time>
      </trkpt>
      <trkpt lat="45.72887" lon="6.55075">
        <ele>877</ele>
        <time>2022-08-16T12:23:55Z</time>
      </trkpt>
      <trkpt lat="45.72887" lon="6.55058">
        <ele>879</ele>
        <time>2022-08-16T12:23:56Z</time>
      </trkpt>
      <trkpt lat="45.72889" lon="6.55042">
        <ele>879</ele>
        <time>2022-08-16T12:23:57Z</time>
      </trkpt>
      <trkpt lat="45.72894" lon="6.55029">
        <ele>880</ele>
        <time>2022-08-16T12:23:58Z</time>
      </trkpt>
      <trkpt lat="45.729" lon="6.55019">
        <ele>880</ele>
        <time>2022-08-16T12:23:59Z</time>
      </trkpt>
      <trkpt lat="45.7291" lon="6.55013">
        <ele>881</ele>
        <time>2022-08-16T12:24:00Z</time>
      </trkpt>
      <trkpt lat="45.72917" lon="6.55007">
        <ele>880</ele>
        <time>2022-08-16T12:24:01Z</time>
      </trkpt>
      <trkpt lat="45.72918" lon="6.54999">
        <ele>880</ele>
        <time>2022-08-16T12:24:02Z</time>
      </trkpt>
      <trkpt lat="45.72914" lon="6.54992">
        <ele>878</ele>
        <time>2022-08-16T12:24:03Z</time>
      </trkpt>
      <trkpt lat="45.72907" lon="6.54992">
        <ele>878</ele>
        <time>2022-08-16T12:24:04Z</time>
      </trkpt>
      <trkpt lat="45.72898" lon="6.54999">
        <ele>879</ele>
        <time>2022-08-16T12:24:05Z</time>
      </trkpt>
      <trkpt lat="45.7289" lon="6.55007">
        <ele>878</ele>
        <time>2022-08-16T12:24:06Z</time>
      </trkpt>
      <trkpt lat="45.72883" lon="6.55014">
        <ele>877</ele>
        <time>2022-08-16T12:24:07Z</time>
      </trkpt>
      <trkpt lat="45.72876" lon="6.55021">
        <ele>876</ele>
        <time>2022-08-16T12:24:08Z</time>
      </trkpt>
      <trkpt lat="45.7287" lon="6.55029">
        <ele>875</ele>
        <time>2022-08-16T12:24:09Z</time>
      </trkpt>
      <trkpt lat="45.72865" lon="6.55041">
        <ele>875</ele>
        <time>2022-08-16T12:24:10Z</time>
      </trkpt>
      <trkpt lat="45.72862" lon="6.55055">
        <ele>874</ele>
        <time>2022-08-16T12:24:11Z</time>
      </trkpt>
      <trkpt lat="45.72861" lon="6.5507">
        <ele>873</ele>
        <time>2022-08-16T12:24:12Z</time>
      </trkpt>
      <trkpt lat="45.72862" lon="6.55085">
        <ele>872</ele>
        <time>2022-08-16T12:24:13Z</time>
      </trkpt>
      <trkpt lat="45.72863" lon="6.551">
        <ele>871</ele>
        <time>2022-08-16T12:24:14Z</time>
      </trkpt>
      <trkpt lat="45.72863" lon="6.55116">
        <ele>870</ele>
        <time>2022-08-16T12:24:15Z</time>
      </trkpt>
      <trkpt lat="45.72864" lon="6.55131">
        <ele>869</ele>
        <time>2022-08-16T12:24:16Z</time>
      </trkpt>
      <trkpt lat="45.72864" lon="6.55147">
        <ele>868</ele>
        <time>2022-08-16T12:24:17Z</time>
      </trkpt>
      <trkpt lat="45.72863" lon="6.55163">
        <ele>867</ele>
        <time>2022-08-16T12:24:18Z</time>
      </trkpt>
      <trkpt lat="45.72861" lon="6.5518">
        <ele>866</ele>
        <time>2022-08-16T12:24:19Z</time>
      </trkpt>
      <trkpt lat="45.72859" lon="6.55197">
        <ele>865</ele>
        <time>2022-08-16T12:24:20Z</time>
      </trkpt>
      <trkpt lat="45.72857" lon="6.55214">
        <ele>864</ele>
        <time>2022-08-16T12:24:21Z</time>
      </trkpt>
      <trkpt lat="45.72854" lon="6.55232">
        <ele>864</ele>
        <time>2022-08-16T12:24:22Z</time>
      </trkpt>
      <trkpt lat="45.72851" lon="6.55249">
        <ele>863</ele>
        <time>2022-08-16T12:24:23Z</time>
      </trkpt>
      <trkpt lat="45.72848" lon="6.55267">
        <ele>862</ele>
        <time>2022-08-16T12:24:24Z</time>
      </trkpt>
      <trkpt lat="45.72845" lon="6.55286">
        <ele>861</ele>
        <time>2022-08-16T12:24:25Z</time>
      </trkpt>
      <trkpt lat="45.72843" lon="6.55305">
        <ele>860</ele>
        <time>2022-08-16T12:24:26Z</time>
      </trkpt>
      <trkpt lat="45.72841" lon="6.55323">
        <ele>859</ele>
        <time>2022-08-16T12:24:27Z</time>
      </trkpt>
      <trkpt lat="45.72838" lon="6.55341">
        <ele>859</ele>
        <time>2022-08-16T12:24:28Z</time>
      </trkpt>
      <trkpt lat="45.72835" lon="6.5536">
        <ele>858</ele>
        <time>2022-08-16T12:24:29Z</time>
      </trkpt>
      <trkpt lat="45.72832" lon="6.55379">
        <ele>857</ele>
        <time>2022-08-16T12:24:30Z</time>
      </trkpt>
      <trkpt lat="45.72828" lon="6.55397">
        <ele>856</ele>
        <time>2022-08-16T12:24:31Z</time>
      </trkpt>
      <trkpt lat="45.72822" lon="6.55416">
        <ele>855</ele>
        <time>2022-08-16T12:24:32Z</time>
      </trkpt>
      <trkpt lat="45.72815" lon="6.55433">
        <ele>855</ele>
        <time>2022-08-16T12:24:33Z</time>
      </trkpt>
      <trkpt lat="45.72806" lon="6.55449">
        <ele>854</ele>
        <time>2022-08-16T12:24:34Z</time>
      </trkpt>
      <trkpt lat="45.72797" lon="6.55465">
        <ele>853</ele>
        <time>2022-08-16T12:24:35Z</time>
      </trkpt>
      <trkpt lat="45.72789" lon="6.5548">
        <ele>852</ele>
        <time>2022-08-16T12:24:36Z</time>
      </trkpt>
      <trkpt lat="45.72781" lon="6.55496">
        <ele>850</ele>
        <time>2022-08-16T12:24:37Z</time>
      </trkpt>
      <trkpt lat="45.72773" lon="6.55511">
        <ele>849</ele>
        <time>2022-08-16T12:24:38Z</time>
      </trkpt>
      <trkpt lat="45.72767" lon="6.55526">
        <ele>847</ele>
        <time>2022-08-16T12:24:39Z</time>
      </trkpt>
      <trkpt lat="45.7276" lon="6.5554">
        <ele>846</ele>
        <time>2022-08-16T12:24:40Z</time>
      </trkpt>
      <trkpt lat="45.72755" lon="6.55554">
        <ele>845</ele>
        <time>2022-08-16T12:24:41Z</time>
      </trkpt>
      <trkpt lat="45.72751" lon="6.55567">
        <ele>845</ele>
        <time>2022-08-16T12:24:42Z</time>
      </trkpt>
      <trkpt lat="45.72747" lon="6.55579">
        <ele>845</ele>
        <time>2022-08-16T12:24:43Z</time>
      </trkpt>
      <trkpt lat="45.72744" lon="6.5559">
        <ele>845</ele>
        <time>2022-08-16T12:24:44Z</time>
      </trkpt>
      <trkpt lat="45.7274" lon="6.55598">
        <ele>844</ele>
        <time>2022-08-16T12:24:45Z</time>
      </trkpt>
      <trkpt lat="45.72734" lon="6.55599">
        <ele>843</ele>
        <time>2022-08-16T12:24:46Z</time>
      </trkpt>
      <trkpt lat="45.72728" lon="6.55594">
        <ele>844</ele>
        <time>2022-08-16T12:24:47Z</time>
      </trkpt>
      <trkpt lat="45.72726" lon="6.55582">
        <ele>842</ele>
        <time>2022-08-16T12:24:48Z</time>
      </trkpt>
      <trkpt lat="45.72729" lon="6.55571">
        <ele>842</ele>
        <time>2022-08-16T12:24:49Z</time>
      </trkpt>
      <trkpt lat="45.72733" lon="6.55562">
        <ele>842</ele>
        <time>2022-08-16T12:24:50Z</time>
      </trkpt>
      <trkpt lat="45.72738" lon="6.55554">
        <ele>841</ele>
        <time>2022-08-16T12:24:51Z</time>
      </trkpt>
      <trkpt lat="45.72743" lon="6.55544">
        <ele>840</ele>
        <time>2022-08-16T12:24:52Z</time>
      </trkpt>
      <trkpt lat="45.72747" lon="6.55534">
        <ele>839</ele>
        <time>2022-08-16T12:24:53Z</time>
      </trkpt>
      <trkpt lat="45.72751" lon="6.55523">
        <ele>838</ele>
        <time>2022-08-16T12:24:54Z</time>
      </trkpt>
      <trkpt lat="45.72755" lon="6.55512">
        <ele>837</ele>
        <time>2022-08-16T12:24:55Z</time>
      </trkpt>
      <trkpt lat="45.72757" lon="6.55499">
        <ele>836</ele>
        <time>2022-08-16T12:24:56Z</time>
      </trkpt>
      <trkpt lat="45.72759" lon="6.55485">
        <ele>835</ele>
        <time>2022-08-16T12:24:57Z</time>
      </trkpt>
      <trkpt lat="45.72761" lon="6.55472">
        <ele>834</ele>
        <time>2022-08-16T12:24:58Z</time>
      </trkpt>
      <trkpt lat="45.72761" lon="6.55458">
        <ele>833</ele>
        <time>2022-08-16T12:24:59Z</time>
      </trkpt>
      <trkpt lat="45.72761" lon="6.55443">
        <ele>832</ele>
        <time>2022-08-16T12:25:00Z</time>
      </trkpt>
      <trkpt lat="45.72761" lon="6.55429">
        <ele>832</ele>
        <time>2022-08-16T12:25:01Z</time>
      </trkpt>
      <trkpt lat="45.72761" lon="6.55413">
        <ele>831</ele>
        <time>2022-08-16T12:25:02Z</time>
      </trkpt>
      <trkpt lat="45.72762" lon="6.55398">
        <ele>830</ele>
        <time>2022-08-16T12:25:03Z</time>
      </trkpt>
      <trkpt lat="45.72764" lon="6.55383">
        <ele>829</ele>
        <time>2022-08-16T12:25:04Z</time>
      </trkpt>
      <trkpt lat="45.72766" lon="6.55368">
        <ele>827</ele>
        <time>2022-08-16T12:25:05Z</time>
      </trkpt>
      <trkpt lat="45.72768" lon="6.55352">
        <ele>827</ele>
        <time>2022-08-16T12:25:06Z</time>
      </trkpt>
      <trkpt lat="45.7277" lon="6.55337">
        <ele>826</ele>
        <time>2022-08-16T12:25:07Z</time>
      </trkpt>
      <trkpt lat="45.72772" lon="6.55321">
        <ele>825</ele>
        <time>2022-08-16T12:25:08Z</time>
      </trkpt>
      <trkpt lat="45.72772" lon="6.55305">
        <ele>824</ele>
        <time>2022-08-16T12:25:09Z</time>
      </trkpt>
      <trkpt lat="45.72773" lon="6.55288">
        <ele>824</ele>
        <time>2022-08-16T12:25:10Z</time>
      </trkpt>
      <trkpt lat="45.72774" lon="6.5527">
        <ele>823</ele>
        <time>2022-08-16T12:25:11Z</time>
      </trkpt>
      <trkpt lat="45.72776" lon="6.55253">
        <ele>822</ele>
        <time>2022-08-16T12:25:12Z</time>
      </trkpt>
      <trkpt lat="45.72779" lon="6.55237">
        <ele>822</ele>
        <time>2022-08-16T12:25:13Z</time>
      </trkpt>
      <trkpt lat="45.72781" lon="6.5522">
        <ele>820</ele>
        <time>2022-08-16T12:25:14Z</time>
      </trkpt>
      <trkpt lat="45.72782" lon="6.55204">
        <ele>819</ele>
        <time>2022-08-16T12:25:15Z</time>
      </trkpt>
      <trkpt lat="45.72782" lon="6.55189">
        <ele>818</ele>
        <time>2022-08-16T12:25:16Z</time>
      </trkpt>
      <trkpt lat="45.72783" lon="6.55174">
        <ele>817</ele>
        <time>2022-08-16T12:25:17Z</time>
      </trkpt>
      <trkpt lat="45.72784" lon="6.5516">
        <ele>817</ele>
        <time>2022-08-16T12:25:18Z</time>
      </trkpt>
      <trkpt lat="45.72786" lon="6.55148">
        <ele>816</ele>
        <time>2022-08-16T12:25:19Z</time>
      </trkpt>
      <trkpt lat="45.72787" lon="6.55136">
        <ele>816</ele>
        <time>2022-08-16T12:25:20Z</time>
      </trkpt>
      <trkpt lat="45.72788" lon="6.55124">
        <ele>816</ele>
        <time>2022-08-16T12:25:21Z</time>
      </trkpt>
      <trkpt lat="45.72786" lon="6.55115">
        <ele>815</ele>
        <time>2022-08-16T12:25:22Z</time>
      </trkpt>
      <trkpt lat="45.72781" lon="6.55108">
        <ele>815</ele>
        <time>2022-08-16T12:25:23Z</time>
      </trkpt>
      <trkpt lat="45.72773" lon="6.55107">
        <ele>814</ele>
        <time>2022-08-16T12:25:24Z</time>
      </trkpt>
      <trkpt lat="45.72768" lon="6.55115">
        <ele>814</ele>
        <time>2022-08-16T12:25:25Z</time>
      </trkpt>
      <trkpt lat="45.72765" lon="6.55127">
        <ele>814</ele>
        <time>2022-08-16T12:25:26Z</time>
      </trkpt>
      <trkpt lat="45.72765" lon="6.5514">
        <ele>813</ele>
        <time>2022-08-16T12:25:27Z</time>
      </trkpt>
      <trkpt lat="45.72766" lon="6.55151">
        <ele>812</ele>
        <time>2022-08-16T12:25:28Z</time>
      </trkpt>
      <trkpt lat="45.72765" lon="6.55163">
        <ele>812</ele>
        <time>2022-08-16T12:25:29Z</time>
      </trkpt>
      <trkpt lat="45.72764" lon="6.55175">
        <ele>811</ele>
        <time>2022-08-16T12:25:30Z</time>
      </trkpt>
      <trkpt lat="45.72763" lon="6.55188">
        <ele>811</ele>
        <time>2022-08-16T12:25:31Z</time>
      </trkpt>
      <trkpt lat="45.72761" lon="6.552">
        <ele>810</ele>
        <time>2022-08-16T12:25:32Z</time>
      </trkpt>
      <trkpt lat="45.72759" lon="6.55213">
        <ele>810</ele>
        <time>2022-08-16T12:25:33Z</time>
      </trkpt>
      <trkpt lat="45.72756" lon="6.55227">
        <ele>809</ele>
        <time>2022-08-16T12:25:34Z</time>
      </trkpt>
      <trkpt lat="45.72753" lon="6.5524">
        <ele>809</ele>
        <time>2022-08-16T12:25:35Z</time>
      </trkpt>
      <trkpt lat="45.7275" lon="6.55254">
        <ele>808</ele>
        <time>2022-08-16T12:25:36Z</time>
      </trkpt>
      <trkpt lat="45.72746" lon="6.55268">
        <ele>806</ele>
        <time>2022-08-16T12:25:37Z</time>
      </trkpt>
      <trkpt lat="45.72741" lon="6.55282">
        <ele>806</ele>
        <time>2022-08-16T12:25:38Z</time>
      </trkpt>
      <trkpt lat="45.72736" lon="6.55296">
        <ele>805</ele>
        <time>2022-08-16T12:25:39Z</time>
      </trkpt>
      <trkpt lat="45.72731" lon="6.5531">
        <ele>803</ele>
        <time>2022-08-16T12:25:40Z</time>
      </trkpt>
      <trkpt lat="45.72726" lon="6.55325">
        <ele>802</ele>
        <time>2022-08-16T12:25:41Z</time>
      </trkpt>
      <trkpt lat="45.72723" lon="6.55339">
        <ele>801</ele>
        <time>2022-08-16T12:25:42Z</time>
      </trkpt>
      <trkpt lat="45.72721" lon="6.55353">
        <ele>800</ele>
        <time>2022-08-16T12:25:43Z</time>
      </trkpt>
      <trkpt lat="45.7272" lon="6.55365">
        <ele>800</ele>
        <time>2022-08-16T12:25:44Z</time>
      </trkpt>
      <trkpt lat="45.7272" lon="6.55376">
        <ele>800</ele>
        <time>2022-08-16T12:25:45Z</time>
      </trkpt>
      <trkpt lat="45.72718" lon="6.55385">
        <ele>800</ele>
        <time>2022-08-16T12:25:46Z</time>
      </trkpt>
      <trkpt lat="45.72713" lon="6.5539">
        <ele>799</ele>
        <time>2022-08-16T12:25:47Z</time>
      </trkpt>
      <trkpt lat="45.72707" lon="6.55389">
        <ele>800</ele>
        <time>2022-08-16T12:25:48Z</time>
      </trkpt>
      <trkpt lat="45.72702" lon="6.5538">
        <ele>800</ele>
        <time>2022-08-16T12:25:49Z</time>
      </trkpt>
      <trkpt lat="45.727" lon="6.55368">
        <ele>799</ele>
        <time>2022-08-16T12:25:50Z</time>
      </trkpt>
      <trkpt lat="45.727" lon="6.55355">
        <ele>799</ele>
        <time>2022-08-16T12:25:51Z</time>
      </trkpt>
      <trkpt lat="45.72701" lon="6.55343">
        <ele>798</ele>
        <time>2022-08-16T12:25:52Z</time>
      </trkpt>
      <trkpt lat="45.72701" lon="6.55333">
        <ele>797</ele>
        <time>2022-08-16T12:25:53Z</time>
      </trkpt>
      <trkpt lat="45.72701" lon="6.55321">
        <ele>795</ele>
        <time>2022-08-16T12:25:54Z</time>
      </trkpt>
      <trkpt lat="45.72701" lon="6.55309">
        <ele>794</ele>
        <time>2022-08-16T12:25:55Z</time>
      </trkpt>
      <trkpt lat="45.72701" lon="6.55297">
        <ele>793</ele>
        <time>2022-08-16T12:25:56Z</time>
      </trkpt>
      <trkpt lat="45.727" lon="6.55284">
        <ele>792</ele>
        <time>2022-08-16T12:25:57Z</time>
      </trkpt>
      <trkpt lat="45.72698" lon="6.55271">
        <ele>791</ele>
        <time>2022-08-16T12:25:58Z</time>
      </trkpt>
      <trkpt lat="45.72697" lon="6.55258">
        <ele>789</ele>
        <time>2022-08-16T12:25:59Z</time>
      </trkpt>
      <trkpt lat="45.72696" lon="6.55245">
        <ele>788</ele>
        <time>2022-08-16T12:26:00Z</time>
      </trkpt>
      <trkpt lat="45.72694" lon="6.55232">
        <ele>787</ele>
        <time>2022-08-16T12:26:01Z</time>
      </trkpt>
      <trkpt lat="45.72693" lon="6.55218">
        <ele>786</ele>
        <time>2022-08-16T12:26:02Z</time>
      </trkpt>
      <trkpt lat="45.72692" lon="6.55203">
        <ele>786</ele>
        <time>2022-08-16T12:26:03Z</time>
      </trkpt>
      <trkpt lat="45.72692" lon="6.5519">
        <ele>785</ele>
        <time>2022-08-16T12:26:04Z</time>
      </trkpt>
      <trkpt lat="45.72693" lon="6.55176">
        <ele>785</ele>
        <time>2022-08-16T12:26:05Z</time>
      </trkpt>
      <trkpt lat="45.72695" lon="6.55162">
        <ele>784</ele>
        <time>2022-08-16T12:26:06Z</time>
      </trkpt>
      <trkpt lat="45.72696" lon="6.55148">
        <ele>784</ele>
        <time>2022-08-16T12:26:07Z</time>
      </trkpt>
      <trkpt lat="45.72696" lon="6.55134">
        <ele>783</ele>
        <time>2022-08-16T12:26:08Z</time>
      </trkpt>
      <trkpt lat="45.72694" lon="6.5512">
        <ele>782</ele>
        <time>2022-08-16T12:26:09Z</time>
      </trkpt>
      <trkpt lat="45.72691" lon="6.55106">
        <ele>781</ele>
        <time>2022-08-16T12:26:10Z</time>
      </trkpt>
      <trkpt lat="45.72689" lon="6.55093">
        <ele>780</ele>
        <time>2022-08-16T12:26:11Z</time>
      </trkpt>
      <trkpt lat="45.72687" lon="6.5508">
        <ele>779</ele>
        <time>2022-08-16T12:26:12Z</time>
      </trkpt>
      <trkpt lat="45.72687" lon="6.55067">
        <ele>779</ele>
        <time>2022-08-16T12:26:13Z</time>
      </trkpt>
      <trkpt lat="45.72689" lon="6.55054">
        <ele>778</ele>
        <time>2022-08-16T12:26:14Z</time>
      </trkpt>
      <trkpt lat="45.72693" lon="6.55041">
        <ele>777</ele>
        <time>2022-08-16T12:26:15Z</time>
      </trkpt>
      <trkpt lat="45.72697" lon="6.55029">
        <ele>777</ele>
        <time>2022-08-16T12:26:16Z</time>
      </trkpt>
      <trkpt lat="45.72704" lon="6.55018">
        <ele>776</ele>
        <time>2022-08-16T12:26:17Z</time>
      </trkpt>
      <trkpt lat="45.72711" lon="6.55008">
        <ele>775</ele>
        <time>2022-08-16T12:26:18Z</time>
      </trkpt>
      <trkpt lat="45.72719" lon="6.54998">
        <ele>774</ele>
        <time>2022-08-16T12:26:19Z</time>
      </trkpt>
      <trkpt lat="45.72725" lon="6.54988">
        <ele>773</ele>
        <time>2022-08-16T12:26:20Z</time>
      </trkpt>
      <trkpt lat="45.72731" lon="6.54975">
        <ele>772</ele>
        <time>2022-08-16T12:26:21Z</time>
      </trkpt>
      <trkpt lat="45.72735" lon="6.5496">
        <ele>772</ele>
        <time>2022-08-16T12:26:22Z</time>
      </trkpt>
      <trkpt lat="45.72736" lon="6.54943">
        <ele>771</ele>
        <time>2022-08-16T12:26:23Z</time>
      </trkpt>
      <trkpt lat="45.72735" lon="6.54927">
        <ele>770</ele>
        <time>2022-08-16T12:26:24Z</time>
      </trkpt>
      <trkpt lat="45.72732" lon="6.5491">
        <ele>768</ele>
        <time>2022-08-16T12:26:25Z</time>
      </trkpt>
      <trkpt lat="45.72729" lon="6.54893">
        <ele>767</ele>
        <time>2022-08-16T12:26:26Z</time>
      </trkpt>
      <trkpt lat="45.72725" lon="6.54877">
        <ele>765</ele>
        <time>2022-08-16T12:26:27Z</time>
      </trkpt>
      <trkpt lat="45.72721" lon="6.54859">
        <ele>764</ele>
        <time>2022-08-16T12:26:28Z</time>
      </trkpt>
      <trkpt lat="45.72716" lon="6.5484">
        <ele>763</ele>
        <time>2022-08-16T12:26:29Z</time>
      </trkpt>
      <trkpt lat="45.72712" lon="6.54821">
        <ele>761</ele>
        <time>2022-08-16T12:26:30Z</time>
      </trkpt>
      <trkpt lat="45.72708" lon="6.54803">
        <ele>760</ele>
        <time>2022-08-16T12:26:31Z</time>
      </trkpt>
      <trkpt lat="45.72704" lon="6.54783">
        <ele>759</ele>
        <time>2022-08-16T12:26:32Z</time>
      </trkpt>
      <trkpt lat="45.72701" lon="6.54763">
        <ele>758</ele>
        <time>2022-08-16T12:26:33Z</time>
      </trkpt>
      <trkpt lat="45.72699" lon="6.54743">
        <ele>756</ele>
        <time>2022-08-16T12:26:34Z</time>
      </trkpt>
      <trkpt lat="45.72697" lon="6.54723">
        <ele>755</ele>
        <time>2022-08-16T12:26:35Z</time>
      </trkpt>
      <trkpt lat="45.72697" lon="6.54702">
        <ele>753</ele>
        <time>2022-08-16T12:26:36Z</time>
      </trkpt>
      <trkpt lat="45.72696" lon="6.54682">
        <ele>752</ele>
        <time>2022-08-16T12:26:37Z</time>
      </trkpt>
      <trkpt lat="45.72695" lon="6.54661">
        <ele>751</ele>
        <time>2022-08-16T12:26:38Z</time>
      </trkpt>
      <trkpt lat="45.72694" lon="6.5464">
        <ele>750</ele>
        <time>2022-08-16T12:26:39Z</time>
      </trkpt>
      <trkpt lat="45.72692" lon="6.5462">
        <ele>749</ele>
        <time>2022-08-16T12:26:40Z</time>
      </trkpt>
      <trkpt lat="45.72691" lon="6.546">
        <ele>748</ele>
        <time>2022-08-16T12:26:41Z</time>
      </trkpt>
      <trkpt lat="45.72691" lon="6.54581">
        <ele>747</ele>
        <time>2022-08-16T12:26:42Z</time>
      </trkpt>
      <trkpt lat="45.72691" lon="6.54561">
        <ele>747</ele>
        <time>2022-08-16T12:26:43Z</time>
      </trkpt>
      <trkpt lat="45.7269" lon="6.54541">
        <ele>747</ele>
        <time>2022-08-16T12:26:44Z</time>
      </trkpt>
      <trkpt lat="45.7269" lon="6.54523">
        <ele>747</ele>
        <time>2022-08-16T12:26:45Z</time>
      </trkpt>
      <trkpt lat="45.72688" lon="6.54506">
        <ele>747</ele>
        <time>2022-08-16T12:26:46Z</time>
      </trkpt>
      <trkpt lat="45.72686" lon="6.5449">
        <ele>747</ele>
        <time>2022-08-16T12:26:47Z</time>
      </trkpt>
      <trkpt lat="45.72683" lon="6.54474">
        <ele>747</ele>
        <time>2022-08-16T12:26:48Z</time>
      </trkpt>
      <trkpt lat="45.72681" lon="6.54458">
        <ele>747</ele>
        <time>2022-08-16T12:26:49Z</time>
      </trkpt>
      <trkpt lat="45.72678" lon="6.54443">
        <ele>747</ele>
        <time>2022-08-16T12:26:50Z</time>
      </trkpt>
      <trkpt lat="45.72676" lon="6.54428">
        <ele>746</ele>
        <time>2022-08-16T12:26:51Z</time>
      </trkpt>
      <trkpt lat="45.72674" lon="6.54414">
        <ele>747</ele>
        <time>2022-08-16T12:26:52Z</time>
      </trkpt>
      <trkpt lat="45.72671" lon="6.544">
        <ele>746</ele>
        <time>2022-08-16T12:26:53Z</time>
      </trkpt>
      <trkpt lat="45.7267" lon="6.54387">
        <ele>746</ele>
        <time>2022-08-16T12:26:54Z</time>
      </trkpt>
      <trkpt lat="45.72668" lon="6.54373">
        <ele>746</ele>
        <time>2022-08-16T12:26:55Z</time>
      </trkpt>
      <trkpt lat="45.72666" lon="6.5436">
        <ele>745</ele>
        <time>2022-08-16T12:26:56Z</time>
      </trkpt>
      <trkpt lat="45.72664" lon="6.54348">
        <ele>745</ele>
        <time>2022-08-16T12:26:57Z</time>
      </trkpt>
      <trkpt lat="45.72662" lon="6.54337">
        <ele>745</ele>
        <time>2022-08-16T12:26:58Z</time>
      </trkpt>
      <trkpt lat="45.72659" lon="6.54326">
        <ele>745</ele>
        <time>2022-08-16T12:26:59Z</time>
      </trkpt>
      <trkpt lat="45.72656" lon="6.54316">
        <ele>745</ele>
        <time>2022-08-16T12:27:00Z</time>
      </trkpt>
      <trkpt lat="45.72653" lon="6.54306">
        <ele>745</ele>
        <time>2022-08-16T12:27:01Z</time>
      </trkpt>
      <trkpt lat="45.7265" lon="6.54297">
        <ele>745</ele>
        <time>2022-08-16T12:27:02Z</time>
      </trkpt>
      <trkpt lat="45.72646" lon="6.54289">
        <ele>745</ele>
        <time>2022-08-16T12:27:03Z</time>
      </trkpt>
      <trkpt lat="45.72642" lon="6.54281">
        <ele>746</ele>
        <time>2022-08-16T12:27:04Z</time>
      </trkpt>
      <trkpt lat="45.72638" lon="6.54273">
        <ele>746</ele>
        <time>2022-08-16T12:27:05Z</time>
      </trkpt>
      <trkpt lat="45.72634" lon="6.54266">
        <ele>746</ele>
        <time>2022-08-16T12:27:06Z</time>
      </trkpt>
      <trkpt lat="45.72631" lon="6.5426">
        <ele>746</ele>
        <time>2022-08-16T12:27:07Z</time>
      </trkpt>
      <trkpt lat="45.72627" lon="6.54253">
        <ele>747</ele>
        <time>2022-08-16T12:27:08Z</time>
      </trkpt>
      <trkpt lat="45.72622" lon="6.54246">
        <ele>747</ele>
        <time>2022-08-16T12:27:09Z</time>
      </trkpt>
      <trkpt lat="45.72618" lon="6.54239">
        <ele>747</ele>
        <time>2022-08-16T12:27:10Z</time>
      </trkpt>
      <trkpt lat="45.72614" lon="6.54232">
        <ele>747</ele>
        <time>2022-08-16T12:27:11Z</time>
      </trkpt>
      <trkpt lat="45.7261" lon="6.54226">
        <ele>747</ele>
        <time>2022-08-16T12:27:12Z</time>
      </trkpt>
      <trkpt lat="45.72606" lon="6.5422">
        <ele>746</ele>
        <time>2022-08-16T12:27:13Z</time>
      </trkpt>
      <trkpt lat="45.72601" lon="6.54213">
        <ele>746</ele>
        <time>2022-08-16T12:27:14Z</time>
      </trkpt>
      <trkpt lat="45.72597" lon="6.54207">
        <ele>746</ele>
        <time>2022-08-16T12:27:15Z</time>
      </trkpt>
      <trkpt lat="45.72592" lon="6.542">
        <ele>746</ele>
        <time>2022-08-16T12:27:16Z</time>
      </trkpt>
      <trkpt lat="45.72588" lon="6.54193">
        <ele>746</ele>
        <time>2022-08-16T12:27:17Z</time>
      </trkpt>
      <trkpt lat="45.72583" lon="6.54187">
        <ele>746</ele>
        <time>2022-08-16T12:27:18Z</time>
      </trkpt>
      <trkpt lat="45.72579" lon="6.54179">
        <ele>746</ele>
        <time>2022-08-16T12:27:19Z</time>
      </trkpt>
      <trkpt lat="45.72575" lon="6.54172">
        <ele>746</ele>
        <time>2022-08-16T12:27:20Z</time>
      </trkpt>
      <trkpt lat="45.72571" lon="6.54166">
        <ele>746</ele>
        <time>2022-08-16T12:27:21Z</time>
      </trkpt>
      <trkpt lat="45.72567" lon="6.54159">
        <ele>746</ele>
        <time>2022-08-16T12:27:22Z</time>
      </trkpt>
      <trkpt lat="45.72563" lon="6.54153">
        <ele>747</ele>
        <time>2022-08-16T12:27:23Z</time>
      </trkpt>
      <trkpt lat="45.72558" lon="6.54146">
        <ele>747</ele>
        <time>2022-08-16T12:27:24Z</time>
      </trkpt>
      <trkpt lat="45.72555" lon="6.5414">
        <ele>747</ele>
        <time>2022-08-16T12:27:25Z</time>
      </trkpt>
      <trkpt lat="45.72551" lon="6.54134">
        <ele>747</ele>
        <time>2022-08-16T12:27:26Z</time>
      </trkpt>
      <trkpt lat="45.72547" lon="6.54127">
        <ele>747</ele>
        <time>2022-08-16T12:27:27Z</time>
      </trkpt>
      <trkpt lat="45.72544" lon="6.5412">
        <ele>747</ele>
        <time>2022-08-16T12:27:28Z</time>
      </trkpt>
      <trkpt lat="45.72541" lon="6.54114">
        <ele>747</ele>
        <time>2022-08-16T12:27:29Z</time>
      </trkpt>
      <trkpt lat="45.72538" lon="6.54107">
        <ele>747</ele>
        <time>2022-08-16T12:27:30Z</time>
      </trkpt>
      <trkpt lat="45.72536" lon="6.541">
        <ele>747</ele>
        <time>2022-08-16T12:27:31Z</time>
      </trkpt>
      <trkpt lat="45.72533" lon="6.54093">
        <ele>747</ele>
        <time>2022-08-16T12:27:32Z</time>
      </trkpt>
      <trkpt lat="45.72531" lon="6.54086">
        <ele>748</ele>
        <time>2022-08-16T12:27:33Z</time>
      </trkpt>
      <trkpt lat="45.72529" lon="6.54078">
        <ele>748</ele>
        <time>2022-08-16T12:27:34Z</time>
      </trkpt>
      <trkpt lat="45.72528" lon="6.54072">
        <ele>747</ele>
        <time>2022-08-16T12:27:35Z</time>
      </trkpt>
      <trkpt lat="45.72527" lon="6.54065">
        <ele>747</ele>
        <time>2022-08-16T12:27:36Z</time>
      </trkpt>
      <trkpt lat="45.72525" lon="6.54058">
        <ele>748</ele>
        <time>2022-08-16T12:27:37Z</time>
      </trkpt>
      <trkpt lat="45.72524" lon="6.54051">
        <ele>748</ele>
        <time>2022-08-16T12:27:38Z</time>
      </trkpt>
      <trkpt lat="45.72523" lon="6.54044">
        <ele>748</ele>
        <time>2022-08-16T12:27:39Z</time>
      </trkpt>
      <trkpt lat="45.72522" lon="6.54037">
        <ele>748</ele>
        <time>2022-08-16T12:27:40Z</time>
      </trkpt>
      <trkpt lat="45.72522" lon="6.54031">
        <ele>749</ele>
        <time>2022-08-16T12:27:41Z</time>
      </trkpt>
      <trkpt lat="45.72521" lon="6.54024">
        <ele>749</ele>
        <time>2022-08-16T12:27:42Z</time>
      </trkpt>
      <trkpt lat="45.7252" lon="6.54018">
        <ele>749</ele>
        <time>2022-08-16T12:27:43Z</time>
      </trkpt>
      <trkpt lat="45.72519" lon="6.54011">
        <ele>749</ele>
        <time>2022-08-16T12:27:44Z</time>
      </trkpt>
      <trkpt lat="45.72518" lon="6.54006">
        <ele>749</ele>
        <time>2022-08-16T12:27:45Z</time>
      </trkpt>
      <trkpt lat="45.72518" lon="6.54">
        <ele>749</ele>
        <time>2022-08-16T12:27:46Z</time>
      </trkpt>
      <trkpt lat="45.72518" lon="6.53994">
        <ele>749</ele>
        <time>2022-08-16T12:27:47Z</time>
      </trkpt>
      <trkpt lat="45.72518" lon="6.53988">
        <ele>749</ele>
        <time>2022-08-16T12:27:48Z</time>
      </trkpt>
      <trkpt lat="45.72518" lon="6.53982">
        <ele>748</ele>
        <time>2022-08-16T12:27:49Z</time>
      </trkpt>
      <trkpt lat="45.72518" lon="6.53976">
        <ele>748</ele>
        <time>2022-08-16T12:27:50Z</time>
      </trkpt>
      <trkpt lat="45.72517" lon="6.5397">
        <ele>748</ele>
        <time>2022-08-16T12:27:51Z</time>
      </trkpt>
      <trkpt lat="45.72517" lon="6.53964">
        <ele>749</ele>
        <time>2022-08-16T12:27:52Z</time>
      </trkpt>
      <trkpt lat="45.72517" lon="6.53958">
        <ele>749</ele>
        <time>2022-08-16T12:27:53Z</time>
      </trkpt>
      <trkpt lat="45.72517" lon="6.53952">
        <ele>749</ele>
        <time>2022-08-16T12:27:54Z</time>
      </trkpt>
      <trkpt lat="45.72517" lon="6.53946">
        <ele>749</ele>
        <time>2022-08-16T12:27:55Z</time>
      </trkpt>
      <trkpt lat="45.72517" lon="6.5394">
        <ele>749</ele>
        <time>2022-08-16T12:27:56Z</time>
      </trkpt>
      <trkpt lat="45.72516" lon="6.53934">
        <ele>749</ele>
        <time>2022-08-16T12:27:57Z</time>
      </trkpt>
      <trkpt lat="45.72516" lon="6.53927">
        <ele>749</ele>
        <time>2022-08-16T12:27:58Z</time>
      </trkpt>
      <trkpt lat="45.72516" lon="6.53921">
        <ele>749</ele>
        <time>2022-08-16T12:27:59Z</time>
      </trkpt>
      <trkpt lat="45.72516" lon="6.53915">
        <ele>749</ele>
        <time>2022-08-16T12:28:00Z</time>
      </trkpt>
      <trkpt lat="45.72515" lon="6.53908">
        <ele>749</ele>
        <time>2022-08-16T12:28:01Z</time>
      </trkpt>
      <trkpt lat="45.72515" lon="6.53902">
        <ele>749</ele>
        <time>2022-08-16T12:28:02Z</time>
      </trkpt>
      <trkpt lat="45.72515" lon="6.53895">
        <ele>750</ele>
        <time>2022-08-16T12:28:03Z</time>
      </trkpt>
      <trkpt lat="45.72515" lon="6.53889">
        <ele>750</ele>
        <time>2022-08-16T12:28:04Z</time>
      </trkpt>
      <trkpt lat="45.72515" lon="6.53882">
        <ele>750</ele>
        <time>2022-08-16T12:28:05Z</time>
      </trkpt>
      <trkpt lat="45.72514" lon="6.53876">
        <ele>751</ele>
        <time>2022-08-16T12:28:06Z</time>
      </trkpt>
      <trkpt lat="45.72514" lon="6.53871">
        <ele>751</ele>
        <time>2022-08-16T12:28:07Z</time>
      </trkpt>
      <trkpt lat="45.72514" lon="6.53865">
        <ele>751</ele>
        <time>2022-08-16T12:28:08Z</time>
      </trkpt>
      <trkpt lat="45.72514" lon="6.5386">
        <ele>751</ele>
        <time>2022-08-16T12:28:09Z</time>
      </trkpt>
      <trkpt lat="45.72515" lon="6.53854">
        <ele>751</ele>
        <time>2022-08-16T12:28:10Z</time>
      </trkpt>
      <trkpt lat="45.72515" lon="6.53849">
        <ele>751</ele>
        <time>2022-08-16T12:28:11Z</time>
      </trkpt>
      <trkpt lat="45.72515" lon="6.53845">
        <ele>751</ele>
        <time>2022-08-16T12:28:12Z</time>
      </trkpt>
      <trkpt lat="45.72516" lon="6.5384">
        <ele>751</ele>
        <time>2022-08-16T12:28:13Z</time>
      </trkpt>
      <trkpt lat="45.72516" lon="6.53836">
        <ele>751</ele>
        <time>2022-08-16T12:28:14Z</time>
      </trkpt>
      <trkpt lat="45.72517" lon="6.53831">
        <ele>751</ele>
        <time>2022-08-16T12:28:15Z</time>
      </trkpt>
      <trkpt lat="45.72518" lon="6.53826">
        <ele>751</ele>
        <time>2022-08-16T12:28:16Z</time>
      </trkpt>
      <trkpt lat="45.72519" lon="6.53821">
        <ele>751</ele>
        <time>2022-08-16T12:28:17Z</time>
      </trkpt>
      <trkpt lat="45.7252" lon="6.53816">
        <ele>751</ele>
        <time>2022-08-16T12:28:18Z</time>
      </trkpt>
      <trkpt lat="45.7252" lon="6.53811">
        <ele>752</ele>
        <time>2022-08-16T12:28:19Z</time>
      </trkpt>
      <trkpt lat="45.72521" lon="6.53806">
        <ele>752</ele>
        <time>2022-08-16T12:28:20Z</time>
      </trkpt>
      <trkpt lat="45.72523" lon="6.538">
        <ele>751</ele>
        <time>2022-08-16T12:28:21Z</time>
      </trkpt>
      <trkpt lat="45.72524" lon="6.53795">
        <ele>751</ele>
        <time>2022-08-16T12:28:22Z</time>
      </trkpt>
      <trkpt lat="45.72525" lon="6.53789">
        <ele>751</ele>
        <time>2022-08-16T12:28:23Z</time>
      </trkpt>
      <trkpt lat="45.72527" lon="6.53783">
        <ele>751</ele>
        <time>2022-08-16T12:28:24Z</time>
      </trkpt>
      <trkpt lat="45.72529" lon="6.53778">
        <ele>752</ele>
        <time>2022-08-16T12:28:25Z</time>
      </trkpt>
      <trkpt lat="45.7253" lon="6.53773">
        <ele>752</ele>
        <time>2022-08-16T12:28:26Z</time>
      </trkpt>
      <trkpt lat="45.72532" lon="6.53768">
        <ele>752</ele>
        <time>2022-08-16T12:28:27Z</time>
      </trkpt>
      <trkpt lat="45.72534" lon="6.53762">
        <ele>752</ele>
        <time>2022-08-16T12:28:28Z</time>
      </trkpt>
      <trkpt lat="45.72536" lon="6.53757">
        <ele>752</ele>
        <time>2022-08-16T12:28:29Z</time>
      </trkpt>
      <trkpt lat="45.72537" lon="6.53752">
        <ele>753</ele>
        <time>2022-08-16T12:28:30Z</time>
      </trkpt>
      <trkpt lat="45.72539" lon="6.53747">
        <ele>753</ele>
        <time>2022-08-16T12:28:31Z</time>
      </trkpt>
      <trkpt lat="45.72541" lon="6.53742">
        <ele>753</ele>
        <time>2022-08-16T12:28:32Z</time>
      </trkpt>
      <trkpt lat="45.72543" lon="6.53737">
        <ele>753</ele>
        <time>2022-08-16T12:28:33Z</time>
      </trkpt>
      <trkpt lat="45.72545" lon="6.53732">
        <ele>753</ele>
        <time>2022-08-16T12:28:34Z</time>
      </trkpt>
      <trkpt lat="45.72546" lon="6.53727">
        <ele>754</ele>
        <time>2022-08-16T12:28:35Z</time>
      </trkpt>
      <trkpt lat="45.72549" lon="6.53722">
        <ele>754</ele>
        <time>2022-08-16T12:28:36Z</time>
      </trkpt>
      <trkpt lat="45.7255" lon="6.53718">
        <ele>755</ele>
        <time>2022-08-16T12:28:37Z</time>
      </trkpt>
      <trkpt lat="45.72552" lon="6.53713">
        <ele>755</ele>
        <time>2022-08-16T12:28:38Z</time>
      </trkpt>
      <trkpt lat="45.72554" lon="6.53708">
        <ele>755</ele>
        <time>2022-08-16T12:28:39Z</time>
      </trkpt>
      <trkpt lat="45.72556" lon="6.53704">
        <ele>755</ele>
        <time>2022-08-16T12:28:40Z</time>
      </trkpt>
      <trkpt lat="45.72558" lon="6.53699">
        <ele>755</ele>
        <time>2022-08-16T12:28:41Z</time>
      </trkpt>
      <trkpt lat="45.7256" lon="6.53694">
        <ele>755</ele>
        <time>2022-08-16T12:28:42Z</time>
      </trkpt>
      <trkpt lat="45.72561" lon="6.53689">
        <ele>755</ele>
        <time>2022-08-16T12:28:43Z</time>
      </trkpt>
      <trkpt lat="45.72563" lon="6.53684">
        <ele>755</ele>
        <time>2022-08-16T12:28:44Z</time>
      </trkpt>
      <trkpt lat="45.72564" lon="6.53679">
        <ele>756</ele>
        <time>2022-08-16T12:28:45Z</time>
      </trkpt>
      <trkpt lat="45.72566" lon="6.53674">
        <ele>756</ele>
        <time>2022-08-16T12:28:46Z</time>
      </trkpt>
      <trkpt lat="45.72567" lon="6.53669">
        <ele>756</ele>
        <time>2022-08-16T12:28:47Z</time>
      </trkpt>
      <trkpt lat="45.72569" lon="6.53664">
        <ele>756</ele>
        <time>2022-08-16T12:28:48Z</time>
      </trkpt>
      <trkpt lat="45.72571" lon="6.53659">
        <ele>756</ele>
        <time>2022-08-16T12:28:49Z</time>
      </trkpt>
      <trkpt lat="45.72573" lon="6.53654">
        <ele>757</ele>
        <time>2022-08-16T12:28:50Z</time>
      </trkpt>
      <trkpt lat="45.72575" lon="6.53648">
        <ele>757</ele>
        <time>2022-08-16T12:28:51Z</time>
      </trkpt>
      <trkpt lat="45.72577" lon="6.53643">
        <ele>757</ele>
        <time>2022-08-16T12:28:52Z</time>
      </trkpt>
      <trkpt lat="45.72579" lon="6.53637">
        <ele>757</ele>
        <time>2022-08-16T12:28:53Z</time>
      </trkpt>
      <trkpt lat="45.72581" lon="6.53632">
        <ele>757</ele>
        <time>2022-08-16T12:28:54Z</time>
      </trkpt>
      <trkpt lat="45.72584" lon="6.53627">
        <ele>757</ele>
        <time>2022-08-16T12:28:55Z</time>
      </trkpt>
      <trkpt lat="45.72586" lon="6.53622">
        <ele>757</ele>
        <time>2022-08-16T12:28:56Z</time>
      </trkpt>
      <trkpt lat="45.72588" lon="6.53617">
        <ele>758</ele>
        <time>2022-08-16T12:28:57Z</time>
      </trkpt>
      <trkpt lat="45.7259" lon="6.53613">
        <ele>758</ele>
        <time>2022-08-16T12:28:58Z</time>
      </trkpt>
      <trkpt lat="45.72592" lon="6.53608">
        <ele>758</ele>
        <time>2022-08-16T12:28:59Z</time>
      </trkpt>
      <trkpt lat="45.72594" lon="6.53604">
        <ele>758</ele>
        <time>2022-08-16T12:29:00Z</time>
      </trkpt>
      <trkpt lat="45.72597" lon="6.536">
        <ele>758</ele>
        <time>2022-08-16T12:29:01Z</time>
      </trkpt>
      <trkpt lat="45.726" lon="6.53595">
        <ele>758</ele>
        <time>2022-08-16T12:29:02Z</time>
      </trkpt>
      <trkpt lat="45.72603" lon="6.53591">
        <ele>758</ele>
        <time>2022-08-16T12:29:03Z</time>
      </trkpt>
      <trkpt lat="45.72606" lon="6.53586">
        <ele>758</ele>
        <time>2022-08-16T12:29:04Z</time>
      </trkpt>
      <trkpt lat="45.72609" lon="6.53581">
        <ele>758</ele>
        <time>2022-08-16T12:29:05Z</time>
      </trkpt>
      <trkpt lat="45.72612" lon="6.53577">
        <ele>758</ele>
        <time>2022-08-16T12:29:06Z</time>
      </trkpt>
      <trkpt lat="45.72616" lon="6.53572">
        <ele>758</ele>
        <time>2022-08-16T12:29:07Z</time>
      </trkpt>
      <trkpt lat="45.7262" lon="6.53568">
        <ele>759</ele>
        <time>2022-08-16T12:29:08Z</time>
      </trkpt>
      <trkpt lat="45.72625" lon="6.53564">
        <ele>759</ele>
        <time>2022-08-16T12:29:09Z</time>
      </trkpt>
      <trkpt lat="45.72629" lon="6.5356">
        <ele>759</ele>
        <time>2022-08-16T12:29:10Z</time>
      </trkpt>
      <trkpt lat="45.72633" lon="6.53556">
        <ele>760</ele>
        <time>2022-08-16T12:29:11Z</time>
      </trkpt>
      <trkpt lat="45.72637" lon="6.53552">
        <ele>760</ele>
        <time>2022-08-16T12:29:12Z</time>
      </trkpt>
      <trkpt lat="45.72641" lon="6.53547">
        <ele>760</ele>
        <time>2022-08-16T12:29:13Z</time>
      </trkpt>
      <trkpt lat="45.72645" lon="6.53543">
        <ele>760</ele>
        <time>2022-08-16T12:29:14Z</time>
      </trkpt>
      <trkpt lat="45.72649" lon="6.53538">
        <ele>760</ele>
        <time>2022-08-16T12:29:15Z</time>
      </trkpt>
      <trkpt lat="45.72653" lon="6.53533">
        <ele>760</ele>
        <time>2022-08-16T12:29:16Z</time>
      </trkpt>
      <trkpt lat="45.72656" lon="6.53527">
        <ele>760</ele>
        <time>2022-08-16T12:29:17Z</time>
      </trkpt>
      <trkpt lat="45.72659" lon="6.53522">
        <ele>760</ele>
        <time>2022-08-16T12:29:18Z</time>
      </trkpt>
      <trkpt lat="45.72662" lon="6.53516">
        <ele>760</ele>
        <time>2022-08-16T12:29:19Z</time>
      </trkpt>
      <trkpt lat="45.72664" lon="6.53509">
        <ele>760</ele>
        <time>2022-08-16T12:29:20Z</time>
      </trkpt>
      <trkpt lat="45.72667" lon="6.53502">
        <ele>760</ele>
        <time>2022-08-16T12:29:21Z</time>
      </trkpt>
      <trkpt lat="45.72669" lon="6.53496">
        <ele>760</ele>
        <time>2022-08-16T12:29:22Z</time>
      </trkpt>
      <trkpt lat="45.7267" lon="6.5349">
        <ele>760</ele>
        <time>2022-08-16T12:29:23Z</time>
      </trkpt>
      <trkpt lat="45.72672" lon="6.53484">
        <ele>760</ele>
        <time>2022-08-16T12:29:24Z</time>
      </trkpt>
      <trkpt lat="45.72673" lon="6.53478">
        <ele>760</ele>
        <time>2022-08-16T12:29:25Z</time>
      </trkpt>
      <trkpt lat="45.72674" lon="6.53472">
        <ele>760</ele>
        <time>2022-08-16T12:29:26Z</time>
      </trkpt>
      <trkpt lat="45.72676" lon="6.53465">
        <ele>760</ele>
        <time>2022-08-16T12:29:27Z</time>
      </trkpt>
      <trkpt lat="45.72677" lon="6.53458">
        <ele>760</ele>
        <time>2022-08-16T12:29:28Z</time>
      </trkpt>
      <trkpt lat="45.72678" lon="6.53451">
        <ele>760</ele>
        <time>2022-08-16T12:29:29Z</time>
      </trkpt>
      <trkpt lat="45.72678" lon="6.53444">
        <ele>760</ele>
        <time>2022-08-16T12:29:30Z</time>
      </trkpt>
      <trkpt lat="45.72679" lon="6.53437">
        <ele>759</ele>
        <time>2022-08-16T12:29:31Z</time>
      </trkpt>
      <trkpt lat="45.72681" lon="6.53429">
        <ele>759</ele>
        <time>2022-08-16T12:29:32Z</time>
      </trkpt>
      <trkpt lat="45.72682" lon="6.53422">
        <ele>759</ele>
        <time>2022-08-16T12:29:33Z</time>
      </trkpt>
      <trkpt lat="45.72684" lon="6.53414">
        <ele>759</ele>
        <time>2022-08-16T12:29:34Z</time>
      </trkpt>
      <trkpt lat="45.72685" lon="6.53406">
        <ele>758</ele>
        <time>2022-08-16T12:29:35Z</time>
      </trkpt>
      <trkpt lat="45.72687" lon="6.53398">
        <ele>758</ele>
        <time>2022-08-16T12:29:36Z</time>
      </trkpt>
      <trkpt lat="45.72688" lon="6.5339">
        <ele>758</ele>
        <time>2022-08-16T12:29:37Z</time>
      </trkpt>
      <trkpt lat="45.72689" lon="6.53382">
        <ele>758</ele>
        <time>2022-08-16T12:29:38Z</time>
      </trkpt>
      <trkpt lat="45.7269" lon="6.53374">
        <ele>757</ele>
        <time>2022-08-16T12:29:39Z</time>
      </trkpt>
      <trkpt lat="45.72691" lon="6.53366">
        <ele>757</ele>
        <time>2022-08-16T12:29:40Z</time>
      </trkpt>
      <trkpt lat="45.72692" lon="6.53357">
        <ele>756</ele>
        <time>2022-08-16T12:29:41Z</time>
      </trkpt>
      <trkpt lat="45.72694" lon="6.53349">
        <ele>756</ele>
        <time>2022-08-16T12:29:42Z</time>
      </trkpt>
      <trkpt lat="45.72695" lon="6.5334">
        <ele>756</ele>
        <time>2022-08-16T12:29:43Z</time>
      </trkpt>
      <trkpt lat="45.72696" lon="6.53331">
        <ele>756</ele>
        <time>2022-08-16T12:29:44Z</time>
      </trkpt>
      <trkpt lat="45.72697" lon="6.53321">
        <ele>756</ele>
        <time>2022-08-16T12:29:45Z</time>
      </trkpt>
      <trkpt lat="45.72697" lon="6.53312">
        <ele>756</ele>
        <time>2022-08-16T12:29:46Z</time>
      </trkpt>
      <trkpt lat="45.72697" lon="6.53303">
        <ele>756</ele>
        <time>2022-08-16T12:29:47Z</time>
      </trkpt>
      <trkpt lat="45.72697" lon="6.53294">
        <ele>755</ele>
        <time>2022-08-16T12:29:48Z</time>
      </trkpt>
      <trkpt lat="45.72697" lon="6.53285">
        <ele>755</ele>
        <time>2022-08-16T12:29:49Z</time>
      </trkpt>
      <trkpt lat="45.72696" lon="6.53275">
        <ele>754</ele>
        <time>2022-08-16T12:29:50Z</time>
      </trkpt>
      <trkpt lat="45.72694" lon="6.53265">
        <ele>754</ele>
        <time>2022-08-16T12:29:51Z</time>
      </trkpt>
      <trkpt lat="45.72692" lon="6.53255">
        <ele>754</ele>
        <time>2022-08-16T12:29:52Z</time>
      </trkpt>
      <trkpt lat="45.72689" lon="6.53246">
        <ele>754</ele>
        <time>2022-08-16T12:29:53Z</time>
      </trkpt>
      <trkpt lat="45.72686" lon="6.53237">
        <ele>754</ele>
        <time>2022-08-16T12:29:54Z</time>
      </trkpt>
      <trkpt lat="45.72682" lon="6.53227">
        <ele>753</ele>
        <time>2022-08-16T12:29:55Z</time>
      </trkpt>
      <trkpt lat="45.72678" lon="6.53218">
        <ele>753</ele>
        <time>2022-08-16T12:29:56Z</time>
      </trkpt>
      <trkpt lat="45.72674" lon="6.53209">
        <ele>753</ele>
        <time>2022-08-16T12:29:57Z</time>
      </trkpt>
      <trkpt lat="45.72669" lon="6.532">
        <ele>753</ele>
        <time>2022-08-16T12:29:58Z</time>
      </trkpt>
      <trkpt lat="45.72665" lon="6.53191">
        <ele>753</ele>
        <time>2022-08-16T12:29:59Z</time>
      </trkpt>
      <trkpt lat="45.7266" lon="6.53183">
        <ele>753</ele>
        <time>2022-08-16T12:30:00Z</time>
      </trkpt>
      <trkpt lat="45.72656" lon="6.53174">
        <ele>753</ele>
        <time>2022-08-16T12:30:01Z</time>
      </trkpt>
      <trkpt lat="45.72651" lon="6.53166">
        <ele>752</ele>
        <time>2022-08-16T12:30:02Z</time>
      </trkpt>
      <trkpt lat="45.72646" lon="6.53158">
        <ele>752</ele>
        <time>2022-08-16T12:30:03Z</time>
      </trkpt>
      <trkpt lat="45.72641" lon="6.5315">
        <ele>752</ele>
        <time>2022-08-16T12:30:04Z</time>
      </trkpt>
      <trkpt lat="45.72636" lon="6.53142">
        <ele>752</ele>
        <time>2022-08-16T12:30:05Z</time>
      </trkpt>
      <trkpt lat="45.72632" lon="6.53133">
        <ele>752</ele>
        <time>2022-08-16T12:30:06Z</time>
      </trkpt>
      <trkpt lat="45.72628" lon="6.53124">
        <ele>752</ele>
        <time>2022-08-16T12:30:07Z</time>
      </trkpt>
      <trkpt lat="45.72624" lon="6.53116">
        <ele>751</ele>
        <time>2022-08-16T12:30:08Z</time>
      </trkpt>
      <trkpt lat="45.7262" lon="6.53106">
        <ele>751</ele>
        <time>2022-08-16T12:30:09Z</time>
      </trkpt>
      <trkpt lat="45.72616" lon="6.53097">
        <ele>751</ele>
        <time>2022-08-16T12:30:10Z</time>
      </trkpt>
      <trkpt lat="45.72613" lon="6.53088">
        <ele>751</ele>
        <time>2022-08-16T12:30:11Z</time>
      </trkpt>
      <trkpt lat="45.72609" lon="6.53079">
        <ele>750</ele>
        <time>2022-08-16T12:30:12Z</time>
      </trkpt>
      <trkpt lat="45.72606" lon="6.53069">
        <ele>750</ele>
        <time>2022-08-16T12:30:13Z</time>
      </trkpt>
      <trkpt lat="45.72602" lon="6.5306">
        <ele>749</ele>
        <time>2022-08-16T12:30:14Z</time>
      </trkpt>
      <trkpt lat="45.72599" lon="6.5305">
        <ele>749</ele>
        <time>2022-08-16T12:30:15Z</time>
      </trkpt>
      <trkpt lat="45.72595" lon="6.53041">
        <ele>749</ele>
        <time>2022-08-16T12:30:16Z</time>
      </trkpt>
      <trkpt lat="45.72591" lon="6.53032">
        <ele>748</ele>
        <time>2022-08-16T12:30:17Z</time>
      </trkpt>
      <trkpt lat="45.72587" lon="6.53023">
        <ele>748</ele>
        <time>2022-08-16T12:30:18Z</time>
      </trkpt>
      <trkpt lat="45.72582" lon="6.53014">
        <ele>748</ele>
        <time>2022-08-16T12:30:19Z</time>
      </trkpt>
      <trkpt lat="45.72578" lon="6.53004">
        <ele>747</ele>
        <time>2022-08-16T12:30:20Z</time>
      </trkpt>
      <trkpt lat="45.72573" lon="6.52995">
        <ele>747</ele>
        <time>2022-08-16T12:30:21Z</time>
      </trkpt>
      <trkpt lat="45.72568" lon="6.52986">
        <ele>747</ele>
        <time>2022-08-16T12:30:22Z</time>
      </trkpt>
      <trkpt lat="45.72564" lon="6.52978">
        <ele>746</ele>
        <time>2022-08-16T12:30:23Z</time>
      </trkpt>
      <trkpt lat="45.72559" lon="6.52969">
        <ele>746</ele>
        <time>2022-08-16T12:30:24Z</time>
      </trkpt>
      <trkpt lat="45.72554" lon="6.5296">
        <ele>746</ele>
        <time>2022-08-16T12:30:25Z</time>
      </trkpt>
      <trkpt lat="45.7255" lon="6.52951">
        <ele>745</ele>
        <time>2022-08-16T12:30:26Z</time>
      </trkpt>
      <trkpt lat="45.72545" lon="6.52941">
        <ele>745</ele>
        <time>2022-08-16T12:30:27Z</time>
      </trkpt>
      <trkpt lat="45.72541" lon="6.52932">
        <ele>745</ele>
        <time>2022-08-16T12:30:28Z</time>
      </trkpt>
      <trkpt lat="45.72536" lon="6.52923">
        <ele>745</ele>
        <time>2022-08-16T12:30:29Z</time>
      </trkpt>
      <trkpt lat="45.72532" lon="6.52915">
        <ele>744</ele>
        <time>2022-08-16T12:30:30Z</time>
      </trkpt>
      <trkpt lat="45.72528" lon="6.52906">
        <ele>744</ele>
        <time>2022-08-16T12:30:31Z</time>
      </trkpt>
      <trkpt lat="45.72524" lon="6.52897">
        <ele>744</ele>
        <time>2022-08-16T12:30:32Z</time>
      </trkpt>
      <trkpt lat="45.7252" lon="6.52887">
        <ele>743</ele>
        <time>2022-08-16T12:30:33Z</time>
      </trkpt>
      <trkpt lat="45.72515" lon="6.52878">
        <ele>743</ele>
        <time>2022-08-16T12:30:34Z</time>
      </trkpt>
      <trkpt lat="45.72511" lon="6.52869">
        <ele>743</ele>
        <time>2022-08-16T12:30:35Z</time>
      </trkpt>
      <trkpt lat="45.72507" lon="6.52859">
        <ele>742</ele>
        <time>2022-08-16T12:30:36Z</time>
      </trkpt>
      <trkpt lat="45.72504" lon="6.5285">
        <ele>742</ele>
        <time>2022-08-16T12:30:37Z</time>
      </trkpt>
      <trkpt lat="45.725" lon="6.5284">
        <ele>741</ele>
        <time>2022-08-16T12:30:38Z</time>
      </trkpt>
      <trkpt lat="45.72496" lon="6.52831">
        <ele>741</ele>
        <time>2022-08-16T12:30:39Z</time>
      </trkpt>
      <trkpt lat="45.72492" lon="6.52821">
        <ele>741</ele>
        <time>2022-08-16T12:30:40Z</time>
      </trkpt>
      <trkpt lat="45.72489" lon="6.52812">
        <ele>741</ele>
        <time>2022-08-16T12:30:41Z</time>
      </trkpt>
      <trkpt lat="45.72485" lon="6.52802">
        <ele>741</ele>
        <time>2022-08-16T12:30:42Z</time>
      </trkpt>
      <trkpt lat="45.72481" lon="6.52792">
        <ele>740</ele>
        <time>2022-08-16T12:30:43Z</time>
      </trkpt>
      <trkpt lat="45.72477" lon="6.52782">
        <ele>740</ele>
        <time>2022-08-16T12:30:44Z</time>
      </trkpt>
      <trkpt lat="45.72473" lon="6.52772">
        <ele>739</ele>
        <time>2022-08-16T12:30:45Z</time>
      </trkpt>
      <trkpt lat="45.72469" lon="6.52762">
        <ele>739</ele>
        <time>2022-08-16T12:30:46Z</time>
      </trkpt>
      <trkpt lat="45.72466" lon="6.52751">
        <ele>739</ele>
        <time>2022-08-16T12:30:47Z</time>
      </trkpt>
      <trkpt lat="45.72462" lon="6.52741">
        <ele>739</ele>
        <time>2022-08-16T12:30:48Z</time>
      </trkpt>
      <trkpt lat="45.72458" lon="6.5273">
        <ele>739</ele>
        <time>2022-08-16T12:30:49Z</time>
      </trkpt>
      <trkpt lat="45.72455" lon="6.5272">
        <ele>738</ele>
        <time>2022-08-16T12:30:50Z</time>
      </trkpt>
      <trkpt lat="45.72452" lon="6.52709">
        <ele>738</ele>
        <time>2022-08-16T12:30:51Z</time>
      </trkpt>
      <trkpt lat="45.72449" lon="6.52697">
        <ele>737</ele>
        <time>2022-08-16T12:30:52Z</time>
      </trkpt>
      <trkpt lat="45.72447" lon="6.52686">
        <ele>737</ele>
        <time>2022-08-16T12:30:53Z</time>
      </trkpt>
      <trkpt lat="45.72444" lon="6.52674">
        <ele>737</ele>
        <time>2022-08-16T12:30:54Z</time>
      </trkpt>
      <trkpt lat="45.72442" lon="6.52661">
        <ele>736</ele>
        <time>2022-08-16T12:30:55Z</time>
      </trkpt>
      <trkpt lat="45.72439" lon="6.52648">
        <ele>736</ele>
        <time>2022-08-16T12:30:56Z</time>
      </trkpt>
      <trkpt lat="45.72437" lon="6.52636">
        <ele>735</ele>
        <time>2022-08-16T12:30:57Z</time>
      </trkpt>
      <trkpt lat="45.72435" lon="6.52623">
        <ele>734</ele>
        <time>2022-08-16T12:30:58Z</time>
      </trkpt>
      <trkpt lat="45.72433" lon="6.52609">
        <ele>733</ele>
        <time>2022-08-16T12:30:59Z</time>
      </trkpt>
      <trkpt lat="45.72431" lon="6.52596">
        <ele>733</ele>
        <time>2022-08-16T12:31:00Z</time>
      </trkpt>
      <trkpt lat="45.72429" lon="6.52583">
        <ele>732</ele>
        <time>2022-08-16T12:31:01Z</time>
      </trkpt>
      <trkpt lat="45.72426" lon="6.5257">
        <ele>731</ele>
        <time>2022-08-16T12:31:02Z</time>
      </trkpt>
      <trkpt lat="45.72424" lon="6.52557">
        <ele>731</ele>
        <time>2022-08-16T12:31:03Z</time>
      </trkpt>
      <trkpt lat="45.72421" lon="6.52545">
        <ele>730</ele>
        <time>2022-08-16T12:31:04Z</time>
      </trkpt>
      <trkpt lat="45.72418" lon="6.52533">
        <ele>730</ele>
        <time>2022-08-16T12:31:05Z</time>
      </trkpt>
      <trkpt lat="45.72414" lon="6.5252">
        <ele>729</ele>
        <time>2022-08-16T12:31:06Z</time>
      </trkpt>
      <trkpt lat="45.72409" lon="6.52509">
        <ele>728</ele>
        <time>2022-08-16T12:31:07Z</time>
      </trkpt>
      <trkpt lat="45.72404" lon="6.52497">
        <ele>728</ele>
        <time>2022-08-16T12:31:08Z</time>
      </trkpt>
      <trkpt lat="45.72399" lon="6.52485">
        <ele>727</ele>
        <time>2022-08-16T12:31:09Z</time>
      </trkpt>
      <trkpt lat="45.72394" lon="6.52473">
        <ele>726</ele>
        <time>2022-08-16T12:31:10Z</time>
      </trkpt>
      <trkpt lat="45.72389" lon="6.52461">
        <ele>725</ele>
        <time>2022-08-16T12:31:11Z</time>
      </trkpt>
      <trkpt lat="45.72384" lon="6.52449">
        <ele>725</ele>
        <time>2022-08-16T12:31:12Z</time>
      </trkpt>
      <trkpt lat="45.72378" lon="6.52436">
        <ele>725</ele>
        <time>2022-08-16T12:31:13Z</time>
      </trkpt>
      <trkpt lat="45.72373" lon="6.52424">
        <ele>724</ele>
        <time>2022-08-16T12:31:14Z</time>
      </trkpt>
      <trkpt lat="45.72367" lon="6.52411">
        <ele>724</ele>
        <time>2022-08-16T12:31:15Z</time>
      </trkpt>
      <trkpt lat="45.72362" lon="6.52398">
        <ele>723</ele>
        <time>2022-08-16T12:31:16Z</time>
      </trkpt>
      <trkpt lat="45.72356" lon="6.52385">
        <ele>723</ele>
        <time>2022-08-16T12:31:17Z</time>
      </trkpt>
      <trkpt lat="45.72351" lon="6.52371">
        <ele>722</ele>
        <time>2022-08-16T12:31:18Z</time>
      </trkpt>
      <trkpt lat="45.72345" lon="6.52358">
        <ele>722</ele>
        <time>2022-08-16T12:31:19Z</time>
      </trkpt>
      <trkpt lat="45.72339" lon="6.52344">
        <ele>722</ele>
        <time>2022-08-16T12:31:20Z</time>
      </trkpt>
      <trkpt lat="45.72333" lon="6.5233">
        <ele>721</ele>
        <time>2022-08-16T12:31:21Z</time>
      </trkpt>
      <trkpt lat="45.72326" lon="6.52317">
        <ele>721</ele>
        <time>2022-08-16T12:31:22Z</time>
      </trkpt>
      <trkpt lat="45.7232" lon="6.52304">
        <ele>720</ele>
        <time>2022-08-16T12:31:23Z</time>
      </trkpt>
      <trkpt lat="45.72313" lon="6.52291">
        <ele>720</ele>
        <time>2022-08-16T12:31:24Z</time>
      </trkpt>
      <trkpt lat="45.72307" lon="6.52279">
        <ele>719</ele>
        <time>2022-08-16T12:31:25Z</time>
      </trkpt>
      <trkpt lat="45.72299" lon="6.52266">
        <ele>719</ele>
        <time>2022-08-16T12:31:26Z</time>
      </trkpt>
      <trkpt lat="45.72292" lon="6.52254">
        <ele>719</ele>
        <time>2022-08-16T12:31:27Z</time>
      </trkpt>
      <trkpt lat="45.72284" lon="6.52243">
        <ele>718</ele>
        <time>2022-08-16T12:31:28Z</time>
      </trkpt>
      <trkpt lat="45.72276" lon="6.52232">
        <ele>718</ele>
        <time>2022-08-16T12:31:29Z</time>
      </trkpt>
      <trkpt lat="45.72268" lon="6.52221">
        <ele>717</ele>
        <time>2022-08-16T12:31:30Z</time>
      </trkpt>
      <trkpt lat="45.7226" lon="6.5221">
        <ele>717</ele>
        <time>2022-08-16T12:31:31Z</time>
      </trkpt>
      <trkpt lat="45.72252" lon="6.52199">
        <ele>716</ele>
        <time>2022-08-16T12:31:32Z</time>
      </trkpt>
      <trkpt lat="45.72243" lon="6.5219">
        <ele>716</ele>
        <time>2022-08-16T12:31:33Z</time>
      </trkpt>
      <trkpt lat="45.72234" lon="6.52181">
        <ele>715</ele>
        <time>2022-08-16T12:31:34Z</time>
      </trkpt>
      <trkpt lat="45.72224" lon="6.52174">
        <ele>715</ele>
        <time>2022-08-16T12:31:35Z</time>
      </trkpt>
      <trkpt lat="45.72214" lon="6.52169">
        <ele>715</ele>
        <time>2022-08-16T12:31:36Z</time>
      </trkpt>
      <trkpt lat="45.72203" lon="6.52166">
        <ele>715</ele>
        <time>2022-08-16T12:31:37Z</time>
      </trkpt>
      <trkpt lat="45.72192" lon="6.52166">
        <ele>714</ele>
        <time>2022-08-16T12:31:38Z</time>
      </trkpt>
      <trkpt lat="45.72181" lon="6.52166">
        <ele>714</ele>
        <time>2022-08-16T12:31:39Z</time>
      </trkpt>
      <trkpt lat="45.72171" lon="6.52168">
        <ele>714</ele>
        <time>2022-08-16T12:31:40Z</time>
      </trkpt>
      <trkpt lat="45.7216" lon="6.52171">
        <ele>714</ele>
        <time>2022-08-16T12:31:41Z</time>
      </trkpt>
      <trkpt lat="45.72149" lon="6.52174">
        <ele>713</ele>
        <time>2022-08-16T12:31:42Z</time>
      </trkpt>
      <trkpt lat="45.72139" lon="6.52176">
        <ele>713</ele>
        <time>2022-08-16T12:31:43Z</time>
      </trkpt>
      <trkpt lat="45.72128" lon="6.52176">
        <ele>712</ele>
        <time>2022-08-16T12:31:44Z</time>
      </trkpt>
      <trkpt lat="45.72118" lon="6.52172">
        <ele>712</ele>
        <time>2022-08-16T12:31:45Z</time>
      </trkpt>
      <trkpt lat="45.72109" lon="6.52165">
        <ele>712</ele>
        <time>2022-08-16T12:31:46Z</time>
      </trkpt>
      <trkpt lat="45.721" lon="6.52157">
        <ele>712</ele>
        <time>2022-08-16T12:31:47Z</time>
      </trkpt>
      <trkpt lat="45.72092" lon="6.52148">
        <ele>712</ele>
        <time>2022-08-16T12:31:48Z</time>
      </trkpt>
      <trkpt lat="45.72084" lon="6.52139">
        <ele>712</ele>
        <time>2022-08-16T12:31:49Z</time>
      </trkpt>
      <trkpt lat="45.72076" lon="6.52128">
        <ele>712</ele>
        <time>2022-08-16T12:31:50Z</time>
      </trkpt>
      <trkpt lat="45.72069" lon="6.52119">
        <ele>711</ele>
        <time>2022-08-16T12:31:51Z</time>
      </trkpt>
      <trkpt lat="45.72062" lon="6.52109">
        <ele>711</ele>
        <time>2022-08-16T12:31:52Z</time>
      </trkpt>
      <trkpt lat="45.72055" lon="6.52098">
        <ele>711</ele>
        <time>2022-08-16T12:31:53Z</time>
      </trkpt>
      <trkpt lat="45.72048" lon="6.52087">
        <ele>710</ele>
        <time>2022-08-16T12:31:54Z</time>
      </trkpt>
      <trkpt lat="45.72042" lon="6.52076">
        <ele>710</ele>
        <time>2022-08-16T12:31:55Z</time>
      </trkpt>
      <trkpt lat="45.72036" lon="6.52064">
        <ele>710</ele>
        <time>2022-08-16T12:31:56Z</time>
      </trkpt>
      <trkpt lat="45.7203" lon="6.52052">
        <ele>710</ele>
        <time>2022-08-16T12:31:57Z</time>
      </trkpt>
      <trkpt lat="45.72025" lon="6.52039">
        <ele>709</ele>
        <time>2022-08-16T12:31:58Z</time>
      </trkpt>
      <trkpt lat="45.72021" lon="6.52026">
        <ele>709</ele>
        <time>2022-08-16T12:31:59Z</time>
      </trkpt>
      <trkpt lat="45.72017" lon="6.52013">
        <ele>708</ele>
        <time>2022-08-16T12:32:00Z</time>
      </trkpt>
      <trkpt lat="45.72014" lon="6.51999">
        <ele>708</ele>
        <time>2022-08-16T12:32:01Z</time>
      </trkpt>
      <trkpt lat="45.72012" lon="6.51986">
        <ele>708</ele>
        <time>2022-08-16T12:32:02Z</time>
      </trkpt>
      <trkpt lat="45.72011" lon="6.51972">
        <ele>707</ele>
        <time>2022-08-16T12:32:03Z</time>
      </trkpt>
      <trkpt lat="45.72009" lon="6.51959">
        <ele>707</ele>
        <time>2022-08-16T12:32:04Z</time>
      </trkpt>
      <trkpt lat="45.72008" lon="6.51946">
        <ele>707</ele>
        <time>2022-08-16T12:32:05Z</time>
      </trkpt>
      <trkpt lat="45.72007" lon="6.51934">
        <ele>706</ele>
        <time>2022-08-16T12:32:06Z</time>
      </trkpt>
      <trkpt lat="45.72007" lon="6.51921">
        <ele>706</ele>
        <time>2022-08-16T12:32:07Z</time>
      </trkpt>
      <trkpt lat="45.72008" lon="6.51909">
        <ele>706</ele>
        <time>2022-08-16T12:32:08Z</time>
      </trkpt>
      <trkpt lat="45.72009" lon="6.51896">
        <ele>706</ele>
        <time>2022-08-16T12:32:09Z</time>
      </trkpt>
      <trkpt lat="45.72009" lon="6.51884">
        <ele>705</ele>
        <time>2022-08-16T12:32:10Z</time>
      </trkpt>
      <trkpt lat="45.7201" lon="6.51873">
        <ele>705</ele>
        <time>2022-08-16T12:32:11Z</time>
      </trkpt>
      <trkpt lat="45.7201" lon="6.5186">
        <ele>705</ele>
        <time>2022-08-16T12:32:12Z</time>
      </trkpt>
      <trkpt lat="45.7201" lon="6.51848">
        <ele>704</ele>
        <time>2022-08-16T12:32:13Z</time>
      </trkpt>
      <trkpt lat="45.72011" lon="6.51837">
        <ele>704</ele>
        <time>2022-08-16T12:32:14Z</time>
      </trkpt>
      <trkpt lat="45.72011" lon="6.51825">
        <ele>703</ele>
        <time>2022-08-16T12:32:15Z</time>
      </trkpt>
      <trkpt lat="45.72012" lon="6.51813">
        <ele>703</ele>
        <time>2022-08-16T12:32:16Z</time>
      </trkpt>
      <trkpt lat="45.72011" lon="6.51801">
        <ele>702</ele>
        <time>2022-08-16T12:32:17Z</time>
      </trkpt>
      <trkpt lat="45.72011" lon="6.5179">
        <ele>702</ele>
        <time>2022-08-16T12:32:18Z</time>
      </trkpt>
      <trkpt lat="45.72012" lon="6.51778">
        <ele>702</ele>
        <time>2022-08-16T12:32:19Z</time>
      </trkpt>
      <trkpt lat="45.72012" lon="6.51767">
        <ele>702</ele>
        <time>2022-08-16T12:32:20Z</time>
      </trkpt>
      <trkpt lat="45.72013" lon="6.51756">
        <ele>702</ele>
        <time>2022-08-16T12:32:21Z</time>
      </trkpt>
      <trkpt lat="45.72013" lon="6.51745">
        <ele>701</ele>
        <time>2022-08-16T12:32:22Z</time>
      </trkpt>
      <trkpt lat="45.72014" lon="6.51734">
        <ele>701</ele>
        <time>2022-08-16T12:32:23Z</time>
      </trkpt>
      <trkpt lat="45.72015" lon="6.51723">
        <ele>701</ele>
        <time>2022-08-16T12:32:24Z</time>
      </trkpt>
      <trkpt lat="45.72015" lon="6.51712">
        <ele>701</ele>
        <time>2022-08-16T12:32:25Z</time>
      </trkpt>
      <trkpt lat="45.72015" lon="6.51701">
        <ele>701</ele>
        <time>2022-08-16T12:32:26Z</time>
      </trkpt>
      <trkpt lat="45.72016" lon="6.51689">
        <ele>701</ele>
        <time>2022-08-16T12:32:27Z</time>
      </trkpt>
      <trkpt lat="45.72016" lon="6.51679">
        <ele>701</ele>
        <time>2022-08-16T12:32:28Z</time>
      </trkpt>
      <trkpt lat="45.72015" lon="6.51667">
        <ele>700</ele>
        <time>2022-08-16T12:32:29Z</time>
      </trkpt>
      <trkpt lat="45.72015" lon="6.51656">
        <ele>700</ele>
        <time>2022-08-16T12:32:30Z</time>
      </trkpt>
      <trkpt lat="45.72013" lon="6.51645">
        <ele>700</ele>
        <time>2022-08-16T12:32:31Z</time>
      </trkpt>
      <trkpt lat="45.72012" lon="6.51633">
        <ele>700</ele>
        <time>2022-08-16T12:32:32Z</time>
      </trkpt>
      <trkpt lat="45.7201" lon="6.51622">
        <ele>700</ele>
        <time>2022-08-16T12:32:33Z</time>
      </trkpt>
      <trkpt lat="45.72009" lon="6.5161">
        <ele>699</ele>
        <time>2022-08-16T12:32:34Z</time>
      </trkpt>
      <trkpt lat="45.72007" lon="6.516">
        <ele>699</ele>
        <time>2022-08-16T12:32:35Z</time>
      </trkpt>
      <trkpt lat="45.72005" lon="6.51589">
        <ele>699</ele>
        <time>2022-08-16T12:32:36Z</time>
      </trkpt>
      <trkpt lat="45.72003" lon="6.51578">
        <ele>698</ele>
        <time>2022-08-16T12:32:37Z</time>
      </trkpt>
      <trkpt lat="45.72" lon="6.51567">
        <ele>698</ele>
        <time>2022-08-16T12:32:38Z</time>
      </trkpt>
      <trkpt lat="45.71996" lon="6.51556">
        <ele>698</ele>
        <time>2022-08-16T12:32:39Z</time>
      </trkpt>
      <trkpt lat="45.71993" lon="6.51545">
        <ele>698</ele>
        <time>2022-08-16T12:32:40Z</time>
      </trkpt>
      <trkpt lat="45.71989" lon="6.51533">
        <ele>698</ele>
        <time>2022-08-16T12:32:41Z</time>
      </trkpt>
      <trkpt lat="45.71986" lon="6.51523">
        <ele>697</ele>
        <time>2022-08-16T12:32:42Z</time>
      </trkpt>
      <trkpt lat="45.71982" lon="6.51512">
        <ele>696</ele>
        <time>2022-08-16T12:32:43Z</time>
      </trkpt>
      <trkpt lat="45.71978" lon="6.51501">
        <ele>696</ele>
        <time>2022-08-16T12:32:44Z</time>
      </trkpt>
      <trkpt lat="45.71975" lon="6.51491">
        <ele>695</ele>
        <time>2022-08-16T12:32:45Z</time>
      </trkpt>
      <trkpt lat="45.71971" lon="6.51479">
        <ele>695</ele>
        <time>2022-08-16T12:32:46Z</time>
      </trkpt>
      <trkpt lat="45.71967" lon="6.51468">
        <ele>695</ele>
        <time>2022-08-16T12:32:47Z</time>
      </trkpt>
      <trkpt lat="45.71964" lon="6.51457">
        <ele>695</ele>
        <time>2022-08-16T12:32:48Z</time>
      </trkpt>
      <trkpt lat="45.7196" lon="6.51447">
        <ele>695</ele>
        <time>2022-08-16T12:32:49Z</time>
      </trkpt>
      <trkpt lat="45.71957" lon="6.51436">
        <ele>695</ele>
        <time>2022-08-16T12:32:50Z</time>
      </trkpt>
      <trkpt lat="45.71953" lon="6.51425">
        <ele>695</ele>
        <time>2022-08-16T12:32:51Z</time>
      </trkpt>
      <trkpt lat="45.7195" lon="6.51415">
        <ele>695</ele>
        <time>2022-08-16T12:32:52Z</time>
      </trkpt>
      <trkpt lat="45.71946" lon="6.51403">
        <ele>694</ele>
        <time>2022-08-16T12:32:53Z</time>
      </trkpt>
      <trkpt lat="45.71943" lon="6.51392">
        <ele>694</ele>
        <time>2022-08-16T12:32:54Z</time>
      </trkpt>
      <trkpt lat="45.7194" lon="6.51382">
        <ele>693</ele>
        <time>2022-08-16T12:32:55Z</time>
      </trkpt>
      <trkpt lat="45.71936" lon="6.51371">
        <ele>693</ele>
        <time>2022-08-16T12:32:56Z</time>
      </trkpt>
      <trkpt lat="45.71933" lon="6.51361">
        <ele>693</ele>
        <time>2022-08-16T12:32:57Z</time>
      </trkpt>
      <trkpt lat="45.7193" lon="6.51351">
        <ele>693</ele>
        <time>2022-08-16T12:32:58Z</time>
      </trkpt>
      <trkpt lat="45.71926" lon="6.51341">
        <ele>693</ele>
        <time>2022-08-16T12:32:59Z</time>
      </trkpt>
      <trkpt lat="45.71923" lon="6.51331">
        <ele>693</ele>
        <time>2022-08-16T12:33:00Z</time>
      </trkpt>
      <trkpt lat="45.7192" lon="6.51321">
        <ele>692</ele>
        <time>2022-08-16T12:33:01Z</time>
      </trkpt>
      <trkpt lat="45.71917" lon="6.51311">
        <ele>692</ele>
        <time>2022-08-16T12:33:02Z</time>
      </trkpt>
      <trkpt lat="45.71913" lon="6.51302">
        <ele>692</ele>
        <time>2022-08-16T12:33:03Z</time>
      </trkpt>
      <trkpt lat="45.7191" lon="6.51293">
        <ele>692</ele>
        <time>2022-08-16T12:33:04Z</time>
      </trkpt>
      <trkpt lat="45.71907" lon="6.51283">
        <ele>692</ele>
        <time>2022-08-16T12:33:05Z</time>
      </trkpt>
      <trkpt lat="45.71904" lon="6.51273">
        <ele>691</ele>
        <time>2022-08-16T12:33:06Z</time>
      </trkpt>
      <trkpt lat="45.71901" lon="6.51263">
        <ele>691</ele>
        <time>2022-08-16T12:33:07Z</time>
      </trkpt>
      <trkpt lat="45.71898" lon="6.51253">
        <ele>691</ele>
        <time>2022-08-16T12:33:08Z</time>
      </trkpt>
      <trkpt lat="45.71895" lon="6.51243">
        <ele>691</ele>
        <time>2022-08-16T12:33:09Z</time>
      </trkpt>
      <trkpt lat="45.71892" lon="6.51234">
        <ele>691</ele>
        <time>2022-08-16T12:33:10Z</time>
      </trkpt>
      <trkpt lat="45.71889" lon="6.51224">
        <ele>690</ele>
        <time>2022-08-16T12:33:11Z</time>
      </trkpt>
      <trkpt lat="45.71886" lon="6.51215">
        <ele>690</ele>
        <time>2022-08-16T12:33:12Z</time>
      </trkpt>
      <trkpt lat="45.71883" lon="6.51206">
        <ele>690</ele>
        <time>2022-08-16T12:33:13Z</time>
      </trkpt>
      <trkpt lat="45.7188" lon="6.51196">
        <ele>690</ele>
        <time>2022-08-16T12:33:14Z</time>
      </trkpt>
      <trkpt lat="45.71877" lon="6.51186">
        <ele>690</ele>
        <time>2022-08-16T12:33:15Z</time>
      </trkpt>
      <trkpt lat="45.71874" lon="6.51177">
        <ele>689</ele>
        <time>2022-08-16T12:33:16Z</time>
      </trkpt>
      <trkpt lat="45.71871" lon="6.51168">
        <ele>689</ele>
        <time>2022-08-16T12:33:17Z</time>
      </trkpt>
      <trkpt lat="45.71868" lon="6.51158">
        <ele>689</ele>
        <time>2022-08-16T12:33:18Z</time>
      </trkpt>
      <trkpt lat="45.71865" lon="6.51148">
        <ele>689</ele>
        <time>2022-08-16T12:33:19Z</time>
      </trkpt>
      <trkpt lat="45.71862" lon="6.51138">
        <ele>689</ele>
        <time>2022-08-16T12:33:20Z</time>
      </trkpt>
      <trkpt lat="45.71858" lon="6.51127">
        <ele>689</ele>
        <time>2022-08-16T12:33:21Z</time>
      </trkpt>
      <trkpt lat="45.71855" lon="6.51117">
        <ele>688</ele>
        <time>2022-08-16T12:33:22Z</time>
      </trkpt>
      <trkpt lat="45.71852" lon="6.51107">
        <ele>688</ele>
        <time>2022-08-16T12:33:23Z</time>
      </trkpt>
      <trkpt lat="45.71848" lon="6.51097">
        <ele>688</ele>
        <time>2022-08-16T12:33:24Z</time>
      </trkpt>
      <trkpt lat="45.71844" lon="6.51086">
        <ele>688</ele>
        <time>2022-08-16T12:33:25Z</time>
      </trkpt>
      <trkpt lat="45.71841" lon="6.51077">
        <ele>687</ele>
        <time>2022-08-16T12:33:26Z</time>
      </trkpt>
      <trkpt lat="45.71838" lon="6.51066">
        <ele>687</ele>
        <time>2022-08-16T12:33:27Z</time>
      </trkpt>
      <trkpt lat="45.71835" lon="6.51055">
        <ele>687</ele>
        <time>2022-08-16T12:33:28Z</time>
      </trkpt>
      <trkpt lat="45.71831" lon="6.51045">
        <ele>687</ele>
        <time>2022-08-16T12:33:29Z</time>
      </trkpt>
      <trkpt lat="45.71828" lon="6.51035">
        <ele>687</ele>
        <time>2022-08-16T12:33:30Z</time>
      </trkpt>
      <trkpt lat="45.71825" lon="6.51025">
        <ele>686</ele>
        <time>2022-08-16T12:33:31Z</time>
      </trkpt>
      <trkpt lat="45.71821" lon="6.51014">
        <ele>686</ele>
        <time>2022-08-16T12:33:32Z</time>
      </trkpt>
      <trkpt lat="45.71818" lon="6.51003">
        <ele>686</ele>
        <time>2022-08-16T12:33:33Z</time>
      </trkpt>
      <trkpt lat="45.71814" lon="6.50993">
        <ele>686</ele>
        <time>2022-08-16T12:33:34Z</time>
      </trkpt>
      <trkpt lat="45.71811" lon="6.50981">
        <ele>686</ele>
        <time>2022-08-16T12:33:35Z</time>
      </trkpt>
      <trkpt lat="45.71808" lon="6.5097">
        <ele>686</ele>
        <time>2022-08-16T12:33:36Z</time>
      </trkpt>
      <trkpt lat="45.71805" lon="6.50959">
        <ele>686</ele>
        <time>2022-08-16T12:33:37Z</time>
      </trkpt>
      <trkpt lat="45.71801" lon="6.50948">
        <ele>687</ele>
        <time>2022-08-16T12:33:38Z</time>
      </trkpt>
      <trkpt lat="45.71799" lon="6.50937">
        <ele>687</ele>
        <time>2022-08-16T12:33:39Z</time>
      </trkpt>
      <trkpt lat="45.71796" lon="6.50925">
        <ele>687</ele>
        <time>2022-08-16T12:33:40Z</time>
      </trkpt>
      <trkpt lat="45.71794" lon="6.50913">
        <ele>687</ele>
        <time>2022-08-16T12:33:41Z</time>
      </trkpt>
      <trkpt lat="45.71793" lon="6.50901">
        <ele>687</ele>
        <time>2022-08-16T12:33:42Z</time>
      </trkpt>
      <trkpt lat="45.71791" lon="6.50889">
        <ele>687</ele>
        <time>2022-08-16T12:33:43Z</time>
      </trkpt>
      <trkpt lat="45.7179" lon="6.50877">
        <ele>686</ele>
        <time>2022-08-16T12:33:44Z</time>
      </trkpt>
      <trkpt lat="45.71789" lon="6.50865">
        <ele>686</ele>
        <time>2022-08-16T12:33:45Z</time>
      </trkpt>
      <trkpt lat="45.71789" lon="6.50853">
        <ele>686</ele>
        <time>2022-08-16T12:33:46Z</time>
      </trkpt>
      <trkpt lat="45.71789" lon="6.50841">
        <ele>686</ele>
        <time>2022-08-16T12:33:47Z</time>
      </trkpt>
      <trkpt lat="45.71789" lon="6.50829">
        <ele>686</ele>
        <time>2022-08-16T12:33:48Z</time>
      </trkpt>
      <trkpt lat="45.71788" lon="6.50817">
        <ele>686</ele>
        <time>2022-08-16T12:33:49Z</time>
      </trkpt>
      <trkpt lat="45.71788" lon="6.50805">
        <ele>686</ele>
        <time>2022-08-16T12:33:50Z</time>
      </trkpt>
      <trkpt lat="45.71787" lon="6.50794">
        <ele>685</ele>
        <time>2022-08-16T12:33:51Z</time>
      </trkpt>
      <trkpt lat="45.71786" lon="6.50783">
        <ele>685</ele>
        <time>2022-08-16T12:33:52Z</time>
      </trkpt>
      <trkpt lat="45.71785" lon="6.50771">
        <ele>685</ele>
        <time>2022-08-16T12:33:53Z</time>
      </trkpt>
      <trkpt lat="45.71784" lon="6.5076">
        <ele>685</ele>
        <time>2022-08-16T12:33:54Z</time>
      </trkpt>
      <trkpt lat="45.71782" lon="6.50748">
        <ele>685</ele>
        <time>2022-08-16T12:33:55Z</time>
      </trkpt>
      <trkpt lat="45.71779" lon="6.50737">
        <ele>685</ele>
        <time>2022-08-16T12:33:56Z</time>
      </trkpt>
      <trkpt lat="45.71777" lon="6.50726">
        <ele>685</ele>
        <time>2022-08-16T12:33:57Z</time>
      </trkpt>
      <trkpt lat="45.71774" lon="6.50716">
        <ele>685</ele>
        <time>2022-08-16T12:33:58Z</time>
      </trkpt>
      <trkpt lat="45.7177" lon="6.50706">
        <ele>685</ele>
        <time>2022-08-16T12:33:59Z</time>
      </trkpt>
      <trkpt lat="45.71767" lon="6.50697">
        <ele>685</ele>
        <time>2022-08-16T12:34:00Z</time>
      </trkpt>
      <trkpt lat="45.71763" lon="6.50687">
        <ele>685</ele>
        <time>2022-08-16T12:34:01Z</time>
      </trkpt>
      <trkpt lat="45.71759" lon="6.50678">
        <ele>685</ele>
        <time>2022-08-16T12:34:02Z</time>
      </trkpt>
      <trkpt lat="45.71755" lon="6.50669">
        <ele>685</ele>
        <time>2022-08-16T12:34:03Z</time>
      </trkpt>
      <trkpt lat="45.71751" lon="6.5066">
        <ele>685</ele>
        <time>2022-08-16T12:34:04Z</time>
      </trkpt>
      <trkpt lat="45.71747" lon="6.50651">
        <ele>685</ele>
        <time>2022-08-16T12:34:05Z</time>
      </trkpt>
      <trkpt lat="45.71744" lon="6.50643">
        <ele>685</ele>
        <time>2022-08-16T12:34:06Z</time>
      </trkpt>
      <trkpt lat="45.7174" lon="6.50634">
        <ele>686</ele>
        <time>2022-08-16T12:34:07Z</time>
      </trkpt>
      <trkpt lat="45.71736" lon="6.50626">
        <ele>686</ele>
        <time>2022-08-16T12:34:08Z</time>
      </trkpt>
      <trkpt lat="45.71732" lon="6.50618">
        <ele>686</ele>
        <time>2022-08-16T12:34:09Z</time>
      </trkpt>
      <trkpt lat="45.71729" lon="6.50609">
        <ele>686</ele>
        <time>2022-08-16T12:34:10Z</time>
      </trkpt>
      <trkpt lat="45.71726" lon="6.50601">
        <ele>686</ele>
        <time>2022-08-16T12:34:11Z</time>
      </trkpt>
      <trkpt lat="45.71722" lon="6.50592">
        <ele>686</ele>
        <time>2022-08-16T12:34:12Z</time>
      </trkpt>
      <trkpt lat="45.71719" lon="6.50582">
        <ele>686</ele>
        <time>2022-08-16T12:34:13Z</time>
      </trkpt>
      <trkpt lat="45.71715" lon="6.50573">
        <ele>686</ele>
        <time>2022-08-16T12:34:14Z</time>
      </trkpt>
      <trkpt lat="45.71712" lon="6.50562">
        <ele>686</ele>
        <time>2022-08-16T12:34:15Z</time>
      </trkpt>
      <trkpt lat="45.71709" lon="6.50552">
        <ele>686</ele>
        <time>2022-08-16T12:34:16Z</time>
      </trkpt>
      <trkpt lat="45.71707" lon="6.5054">
        <ele>687</ele>
        <time>2022-08-16T12:34:17Z</time>
      </trkpt>
      <trkpt lat="45.71705" lon="6.50529">
        <ele>687</ele>
        <time>2022-08-16T12:34:18Z</time>
      </trkpt>
      <trkpt lat="45.71704" lon="6.50517">
        <ele>686</ele>
        <time>2022-08-16T12:34:19Z</time>
      </trkpt>
      <trkpt lat="45.71703" lon="6.50505">
        <ele>686</ele>
        <time>2022-08-16T12:34:20Z</time>
      </trkpt>
      <trkpt lat="45.71702" lon="6.50492">
        <ele>686</ele>
        <time>2022-08-16T12:34:21Z</time>
      </trkpt>
      <trkpt lat="45.71702" lon="6.50479">
        <ele>686</ele>
        <time>2022-08-16T12:34:22Z</time>
      </trkpt>
      <trkpt lat="45.71703" lon="6.50467">
        <ele>685</ele>
        <time>2022-08-16T12:34:23Z</time>
      </trkpt>
      <trkpt lat="45.71705" lon="6.50455">
        <ele>685</ele>
        <time>2022-08-16T12:34:24Z</time>
      </trkpt>
      <trkpt lat="45.71707" lon="6.50442">
        <ele>685</ele>
        <time>2022-08-16T12:34:25Z</time>
      </trkpt>
      <trkpt lat="45.71709" lon="6.50431">
        <ele>684</ele>
        <time>2022-08-16T12:34:26Z</time>
      </trkpt>
      <trkpt lat="45.71711" lon="6.5042">
        <ele>684</ele>
        <time>2022-08-16T12:34:27Z</time>
      </trkpt>
      <trkpt lat="45.71714" lon="6.50408">
        <ele>684</ele>
        <time>2022-08-16T12:34:28Z</time>
      </trkpt>
      <trkpt lat="45.71717" lon="6.50397">
        <ele>684</ele>
        <time>2022-08-16T12:34:29Z</time>
      </trkpt>
      <trkpt lat="45.71719" lon="6.50386">
        <ele>684</ele>
        <time>2022-08-16T12:34:30Z</time>
      </trkpt>
      <trkpt lat="45.71722" lon="6.50374">
        <ele>684</ele>
        <time>2022-08-16T12:34:31Z</time>
      </trkpt>
      <trkpt lat="45.71725" lon="6.50363">
        <ele>684</ele>
        <time>2022-08-16T12:34:32Z</time>
      </trkpt>
      <trkpt lat="45.71728" lon="6.50352">
        <ele>684</ele>
        <time>2022-08-16T12:34:33Z</time>
      </trkpt>
      <trkpt lat="45.71731" lon="6.50342">
        <ele>684</ele>
        <time>2022-08-16T12:34:34Z</time>
      </trkpt>
      <trkpt lat="45.71733" lon="6.50331">
        <ele>684</ele>
        <time>2022-08-16T12:34:35Z</time>
      </trkpt>
      <trkpt lat="45.71736" lon="6.50321">
        <ele>684</ele>
        <time>2022-08-16T12:34:36Z</time>
      </trkpt>
      <trkpt lat="45.71739" lon="6.50311">
        <ele>684</ele>
        <time>2022-08-16T12:34:37Z</time>
      </trkpt>
      <trkpt lat="45.71741" lon="6.503">
        <ele>684</ele>
        <time>2022-08-16T12:34:38Z</time>
      </trkpt>
      <trkpt lat="45.71744" lon="6.50289">
        <ele>684</ele>
        <time>2022-08-16T12:34:39Z</time>
      </trkpt>
      <trkpt lat="45.71747" lon="6.50278">
        <ele>684</ele>
        <time>2022-08-16T12:34:40Z</time>
      </trkpt>
      <trkpt lat="45.71749" lon="6.50268">
        <ele>684</ele>
        <time>2022-08-16T12:34:41Z</time>
      </trkpt>
      <trkpt lat="45.71752" lon="6.50258">
        <ele>684</ele>
        <time>2022-08-16T12:34:42Z</time>
      </trkpt>
      <trkpt lat="45.71755" lon="6.50247">
        <ele>684</ele>
        <time>2022-08-16T12:34:43Z</time>
      </trkpt>
      <trkpt lat="45.71758" lon="6.50237">
        <ele>684</ele>
        <time>2022-08-16T12:34:44Z</time>
      </trkpt>
      <trkpt lat="45.71761" lon="6.50227">
        <ele>684</ele>
        <time>2022-08-16T12:34:45Z</time>
      </trkpt>
      <trkpt lat="45.71764" lon="6.50216">
        <ele>684</ele>
        <time>2022-08-16T12:34:46Z</time>
      </trkpt>
      <trkpt lat="45.71766" lon="6.50206">
        <ele>684</ele>
        <time>2022-08-16T12:34:47Z</time>
      </trkpt>
      <trkpt lat="45.71768" lon="6.50197">
        <ele>684</ele>
        <time>2022-08-16T12:34:48Z</time>
      </trkpt>
      <trkpt lat="45.71771" lon="6.50187">
        <ele>684</ele>
        <time>2022-08-16T12:34:49Z</time>
      </trkpt>
      <trkpt lat="45.71773" lon="6.50177">
        <ele>684</ele>
        <time>2022-08-16T12:34:50Z</time>
      </trkpt>
      <trkpt lat="45.71775" lon="6.50168">
        <ele>684</ele>
        <time>2022-08-16T12:34:51Z</time>
      </trkpt>
      <trkpt lat="45.71778" lon="6.50158">
        <ele>684</ele>
        <time>2022-08-16T12:34:52Z</time>
      </trkpt>
      <trkpt lat="45.71781" lon="6.50148">
        <ele>684</ele>
        <time>2022-08-16T12:34:53Z</time>
      </trkpt>
      <trkpt lat="45.71783" lon="6.50138">
        <ele>684</ele>
        <time>2022-08-16T12:34:54Z</time>
      </trkpt>
      <trkpt lat="45.71786" lon="6.50128">
        <ele>684</ele>
        <time>2022-08-16T12:34:55Z</time>
      </trkpt>
      <trkpt lat="45.71788" lon="6.50119">
        <ele>684</ele>
        <time>2022-08-16T12:34:56Z</time>
      </trkpt>
      <trkpt lat="45.71791" lon="6.50109">
        <ele>684</ele>
        <time>2022-08-16T12:34:57Z</time>
      </trkpt>
      <trkpt lat="45.71794" lon="6.501">
        <ele>685</ele>
        <time>2022-08-16T12:34:58Z</time>
      </trkpt>
      <trkpt lat="45.71797" lon="6.5009">
        <ele>685</ele>
        <time>2022-08-16T12:34:59Z</time>
      </trkpt>
      <trkpt lat="45.718" lon="6.5008">
        <ele>685</ele>
        <time>2022-08-16T12:35:00Z</time>
      </trkpt>
      <trkpt lat="45.71803" lon="6.50071">
        <ele>685</ele>
        <time>2022-08-16T12:35:01Z</time>
      </trkpt>
      <trkpt lat="45.71805" lon="6.50061">
        <ele>685</ele>
        <time>2022-08-16T12:35:02Z</time>
      </trkpt>
      <trkpt lat="45.71808" lon="6.50051">
        <ele>685</ele>
        <time>2022-08-16T12:35:03Z</time>
      </trkpt>
      <trkpt lat="45.71811" lon="6.50042">
        <ele>685</ele>
        <time>2022-08-16T12:35:04Z</time>
      </trkpt>
      <trkpt lat="45.71814" lon="6.50032">
        <ele>685</ele>
        <time>2022-08-16T12:35:05Z</time>
      </trkpt>
      <trkpt lat="45.71817" lon="6.50023">
        <ele>685</ele>
        <time>2022-08-16T12:35:06Z</time>
      </trkpt>
      <trkpt lat="45.7182" lon="6.50015">
        <ele>685</ele>
        <time>2022-08-16T12:35:07Z</time>
      </trkpt>
      <trkpt lat="45.71824" lon="6.50005">
        <ele>686</ele>
        <time>2022-08-16T12:35:08Z</time>
      </trkpt>
      <trkpt lat="45.71827" lon="6.49996">
        <ele>686</ele>
        <time>2022-08-16T12:35:09Z</time>
      </trkpt>
      <trkpt lat="45.71831" lon="6.49986">
        <ele>686</ele>
        <time>2022-08-16T12:35:10Z</time>
      </trkpt>
      <trkpt lat="45.71835" lon="6.49977">
        <ele>686</ele>
        <time>2022-08-16T12:35:11Z</time>
      </trkpt>
      <trkpt lat="45.71838" lon="6.49968">
        <ele>686</ele>
        <time>2022-08-16T12:35:12Z</time>
      </trkpt>
      <trkpt lat="45.71842" lon="6.49959">
        <ele>686</ele>
        <time>2022-08-16T12:35:13Z</time>
      </trkpt>
      <trkpt lat="45.71845" lon="6.4995">
        <ele>686</ele>
        <time>2022-08-16T12:35:14Z</time>
      </trkpt>
      <trkpt lat="45.71848" lon="6.49941">
        <ele>685</ele>
        <time>2022-08-16T12:35:15Z</time>
      </trkpt>
      <trkpt lat="45.71851" lon="6.49932">
        <ele>685</ele>
        <time>2022-08-16T12:35:16Z</time>
      </trkpt>
      <trkpt lat="45.71854" lon="6.49922">
        <ele>685</ele>
        <time>2022-08-16T12:35:17Z</time>
      </trkpt>
      <trkpt lat="45.71856" lon="6.49912">
        <ele>685</ele>
        <time>2022-08-16T12:35:18Z</time>
      </trkpt>
      <trkpt lat="45.71859" lon="6.49902">
        <ele>685</ele>
        <time>2022-08-16T12:35:19Z</time>
      </trkpt>
      <trkpt lat="45.71861" lon="6.49891">
        <ele>685</ele>
        <time>2022-08-16T12:35:20Z</time>
      </trkpt>
      <trkpt lat="45.71862" lon="6.4988">
        <ele>685</ele>
        <time>2022-08-16T12:35:21Z</time>
      </trkpt>
      <trkpt lat="45.71863" lon="6.4987">
        <ele>684</ele>
        <time>2022-08-16T12:35:22Z</time>
      </trkpt>
      <trkpt lat="45.71864" lon="6.4986">
        <ele>684</ele>
        <time>2022-08-16T12:35:23Z</time>
      </trkpt>
      <trkpt lat="45.71865" lon="6.49851">
        <ele>684</ele>
        <time>2022-08-16T12:35:24Z</time>
      </trkpt>
      <trkpt lat="45.71865" lon="6.49841">
        <ele>683</ele>
        <time>2022-08-16T12:35:25Z</time>
      </trkpt>
      <trkpt lat="45.71866" lon="6.49831">
        <ele>683</ele>
        <time>2022-08-16T12:35:26Z</time>
      </trkpt>
      <trkpt lat="45.71867" lon="6.49821">
        <ele>683</ele>
        <time>2022-08-16T12:35:27Z</time>
      </trkpt>
      <trkpt lat="45.71867" lon="6.49811">
        <ele>683</ele>
        <time>2022-08-16T12:35:28Z</time>
      </trkpt>
      <trkpt lat="45.71867" lon="6.49801">
        <ele>683</ele>
        <time>2022-08-16T12:35:29Z</time>
      </trkpt>
      <trkpt lat="45.71867" lon="6.4979">
        <ele>683</ele>
        <time>2022-08-16T12:35:30Z</time>
      </trkpt>
      <trkpt lat="45.71866" lon="6.4978">
        <ele>683</ele>
        <time>2022-08-16T12:35:31Z</time>
      </trkpt>
      <trkpt lat="45.71866" lon="6.49769">
        <ele>683</ele>
        <time>2022-08-16T12:35:32Z</time>
      </trkpt>
      <trkpt lat="45.71864" lon="6.49759">
        <ele>683</ele>
        <time>2022-08-16T12:35:33Z</time>
      </trkpt>
      <trkpt lat="45.71864" lon="6.49749">
        <ele>682</ele>
        <time>2022-08-16T12:35:34Z</time>
      </trkpt>
      <trkpt lat="45.71863" lon="6.49738">
        <ele>682</ele>
        <time>2022-08-16T12:35:35Z</time>
      </trkpt>
      <trkpt lat="45.71862" lon="6.49728">
        <ele>682</ele>
        <time>2022-08-16T12:35:36Z</time>
      </trkpt>
      <trkpt lat="45.71861" lon="6.49717">
        <ele>682</ele>
        <time>2022-08-16T12:35:37Z</time>
      </trkpt>
      <trkpt lat="45.71859" lon="6.49706">
        <ele>682</ele>
        <time>2022-08-16T12:35:38Z</time>
      </trkpt>
      <trkpt lat="45.71858" lon="6.49695">
        <ele>682</ele>
        <time>2022-08-16T12:35:39Z</time>
      </trkpt>
      <trkpt lat="45.71857" lon="6.49685">
        <ele>682</ele>
        <time>2022-08-16T12:35:40Z</time>
      </trkpt>
      <trkpt lat="45.71856" lon="6.49674">
        <ele>682</ele>
        <time>2022-08-16T12:35:41Z</time>
      </trkpt>
      <trkpt lat="45.71856" lon="6.49663">
        <ele>682</ele>
        <time>2022-08-16T12:35:42Z</time>
      </trkpt>
      <trkpt lat="45.71855" lon="6.49652">
        <ele>682</ele>
        <time>2022-08-16T12:35:43Z</time>
      </trkpt>
      <trkpt lat="45.71855" lon="6.49642">
        <ele>683</ele>
        <time>2022-08-16T12:35:44Z</time>
      </trkpt>
      <trkpt lat="45.71856" lon="6.49631">
        <ele>683</ele>
        <time>2022-08-16T12:35:45Z</time>
      </trkpt>
      <trkpt lat="45.71857" lon="6.49621">
        <ele>683</ele>
        <time>2022-08-16T12:35:46Z</time>
      </trkpt>
      <trkpt lat="45.71859" lon="6.4961">
        <ele>683</ele>
        <time>2022-08-16T12:35:47Z</time>
      </trkpt>
      <trkpt lat="45.71862" lon="6.49599">
        <ele>683</ele>
        <time>2022-08-16T12:35:48Z</time>
      </trkpt>
      <trkpt lat="45.71865" lon="6.4959">
        <ele>683</ele>
        <time>2022-08-16T12:35:49Z</time>
      </trkpt>
      <trkpt lat="45.71868" lon="6.4958">
        <ele>683</ele>
        <time>2022-08-16T12:35:50Z</time>
      </trkpt>
      <trkpt lat="45.71873" lon="6.49571">
        <ele>683</ele>
        <time>2022-08-16T12:35:51Z</time>
      </trkpt>
      <trkpt lat="45.71876" lon="6.49561">
        <ele>682</ele>
        <time>2022-08-16T12:35:52Z</time>
      </trkpt>
      <trkpt lat="45.71878" lon="6.49551">
        <ele>682</ele>
        <time>2022-08-16T12:35:53Z</time>
      </trkpt>
      <trkpt lat="45.71876" lon="6.49541">
        <ele>682</ele>
        <time>2022-08-16T12:35:54Z</time>
      </trkpt>
      <trkpt lat="45.71871" lon="6.49534">
        <ele>682</ele>
        <time>2022-08-16T12:35:55Z</time>
      </trkpt>
      <trkpt lat="45.71864" lon="6.49527">
        <ele>681</ele>
        <time>2022-08-16T12:35:56Z</time>
      </trkpt>
      <trkpt lat="45.71858" lon="6.4952">
        <ele>681</ele>
        <time>2022-08-16T12:35:57Z</time>
      </trkpt>
      <trkpt lat="45.71852" lon="6.49513">
        <ele>680</ele>
        <time>2022-08-16T12:35:58Z</time>
      </trkpt>
      <trkpt lat="45.71846" lon="6.49505">
        <ele>680</ele>
        <time>2022-08-16T12:35:59Z</time>
      </trkpt>
      <trkpt lat="45.71839" lon="6.49497">
        <ele>681</ele>
        <time>2022-08-16T12:36:00Z</time>
      </trkpt>
      <trkpt lat="45.71833" lon="6.49489">
        <ele>681</ele>
        <time>2022-08-16T12:36:01Z</time>
      </trkpt>
      <trkpt lat="45.71827" lon="6.4948">
        <ele>681</ele>
        <time>2022-08-16T12:36:02Z</time>
      </trkpt>
      <trkpt lat="45.71822" lon="6.4947">
        <ele>681</ele>
        <time>2022-08-16T12:36:03Z</time>
      </trkpt>
      <trkpt lat="45.71818" lon="6.49459">
        <ele>681</ele>
        <time>2022-08-16T12:36:04Z</time>
      </trkpt>
      <trkpt lat="45.71814" lon="6.49448">
        <ele>681</ele>
        <time>2022-08-16T12:36:05Z</time>
      </trkpt>
      <trkpt lat="45.71811" lon="6.49436">
        <ele>680</ele>
        <time>2022-08-16T12:36:06Z</time>
      </trkpt>
      <trkpt lat="45.71808" lon="6.49423">
        <ele>680</ele>
        <time>2022-08-16T12:36:07Z</time>
      </trkpt>
      <trkpt lat="45.71804" lon="6.49411">
        <ele>680</ele>
        <time>2022-08-16T12:36:08Z</time>
      </trkpt>
      <trkpt lat="45.71801" lon="6.49399">
        <ele>679</ele>
        <time>2022-08-16T12:36:09Z</time>
      </trkpt>
      <trkpt lat="45.71798" lon="6.49386">
        <ele>678</ele>
        <time>2022-08-16T12:36:10Z</time>
      </trkpt>
      <trkpt lat="45.71795" lon="6.49374">
        <ele>678</ele>
        <time>2022-08-16T12:36:11Z</time>
      </trkpt>
      <trkpt lat="45.71791" lon="6.49361">
        <ele>678</ele>
        <time>2022-08-16T12:36:12Z</time>
      </trkpt>
      <trkpt lat="45.71787" lon="6.49349">
        <ele>678</ele>
        <time>2022-08-16T12:36:13Z</time>
      </trkpt>
      <trkpt lat="45.71784" lon="6.49337">
        <ele>677</ele>
        <time>2022-08-16T12:36:14Z</time>
      </trkpt>
      <trkpt lat="45.71781" lon="6.49324">
        <ele>677</ele>
        <time>2022-08-16T12:36:15Z</time>
      </trkpt>
      <trkpt lat="45.71778" lon="6.49311">
        <ele>676</ele>
        <time>2022-08-16T12:36:16Z</time>
      </trkpt>
      <trkpt lat="45.71777" lon="6.49297">
        <ele>676</ele>
        <time>2022-08-16T12:36:17Z</time>
      </trkpt>
      <trkpt lat="45.71777" lon="6.49283">
        <ele>676</ele>
        <time>2022-08-16T12:36:18Z</time>
      </trkpt>
      <trkpt lat="45.71778" lon="6.49267">
        <ele>676</ele>
        <time>2022-08-16T12:36:19Z</time>
      </trkpt>
      <trkpt lat="45.71777" lon="6.49251">
        <ele>675</ele>
        <time>2022-08-16T12:36:20Z</time>
      </trkpt>
      <trkpt lat="45.71773" lon="6.49235">
        <ele>675</ele>
        <time>2022-08-16T12:36:21Z</time>
      </trkpt>
      <trkpt lat="45.71768" lon="6.4922">
        <ele>675</ele>
        <time>2022-08-16T12:36:22Z</time>
      </trkpt>
      <trkpt lat="45.71761" lon="6.49208">
        <ele>674</ele>
        <time>2022-08-16T12:36:23Z</time>
      </trkpt>
      <trkpt lat="45.71755" lon="6.49194">
        <ele>673</ele>
        <time>2022-08-16T12:36:24Z</time>
      </trkpt>
      <trkpt lat="45.71749" lon="6.49181">
        <ele>672</ele>
        <time>2022-08-16T12:36:25Z</time>
      </trkpt>
      <trkpt lat="45.71742" lon="6.49168">
        <ele>671</ele>
        <time>2022-08-16T12:36:26Z</time>
      </trkpt>
      <trkpt lat="45.71736" lon="6.49154">
        <ele>669</ele>
        <time>2022-08-16T12:36:27Z</time>
      </trkpt>
      <trkpt lat="45.71729" lon="6.49139">
        <ele>668</ele>
        <time>2022-08-16T12:36:28Z</time>
      </trkpt>
      <trkpt lat="45.71723" lon="6.49124">
        <ele>667</ele>
        <time>2022-08-16T12:36:29Z</time>
      </trkpt>
      <trkpt lat="45.71718" lon="6.49109">
        <ele>666</ele>
        <time>2022-08-16T12:36:30Z</time>
      </trkpt>
      <trkpt lat="45.71713" lon="6.49093">
        <ele>666</ele>
        <time>2022-08-16T12:36:31Z</time>
      </trkpt>
      <trkpt lat="45.71708" lon="6.49077">
        <ele>665</ele>
        <time>2022-08-16T12:36:32Z</time>
      </trkpt>
      <trkpt lat="45.71704" lon="6.49061">
        <ele>665</ele>
        <time>2022-08-16T12:36:33Z</time>
      </trkpt>
      <trkpt lat="45.71702" lon="6.49044">
        <ele>664</ele>
        <time>2022-08-16T12:36:34Z</time>
      </trkpt>
      <trkpt lat="45.71703" lon="6.49026">
        <ele>663</ele>
        <time>2022-08-16T12:36:35Z</time>
      </trkpt>
      <trkpt lat="45.71707" lon="6.49007">
        <ele>662</ele>
        <time>2022-08-16T12:36:36Z</time>
      </trkpt>
      <trkpt lat="45.7171" lon="6.4899">
        <ele>662</ele>
        <time>2022-08-16T12:36:37Z</time>
      </trkpt>
      <trkpt lat="45.71716" lon="6.48972">
        <ele>661</ele>
        <time>2022-08-16T12:36:38Z</time>
      </trkpt>
      <trkpt lat="45.71721" lon="6.48955">
        <ele>661</ele>
        <time>2022-08-16T12:36:39Z</time>
      </trkpt>
      <trkpt lat="45.71726" lon="6.48939">
        <ele>660</ele>
        <time>2022-08-16T12:36:40Z</time>
      </trkpt>
      <trkpt lat="45.71731" lon="6.48921">
        <ele>660</ele>
        <time>2022-08-16T12:36:41Z</time>
      </trkpt>
      <trkpt lat="45.71734" lon="6.48902">
        <ele>659</ele>
        <time>2022-08-16T12:36:42Z</time>
      </trkpt>
      <trkpt lat="45.71735" lon="6.48884">
        <ele>659</ele>
        <time>2022-08-16T12:36:43Z</time>
      </trkpt>
      <trkpt lat="45.71735" lon="6.48864">
        <ele>658</ele>
        <time>2022-08-16T12:36:44Z</time>
      </trkpt>
      <trkpt lat="45.71735" lon="6.48846">
        <ele>657</ele>
        <time>2022-08-16T12:36:45Z</time>
      </trkpt>
      <trkpt lat="45.71735" lon="6.48827">
        <ele>657</ele>
        <time>2022-08-16T12:36:46Z</time>
      </trkpt>
      <trkpt lat="45.71736" lon="6.48808">
        <ele>656</ele>
        <time>2022-08-16T12:36:47Z</time>
      </trkpt>
      <trkpt lat="45.71735" lon="6.4879">
        <ele>656</ele>
        <time>2022-08-16T12:36:48Z</time>
      </trkpt>
      <trkpt lat="45.71733" lon="6.48771">
        <ele>656</ele>
        <time>2022-08-16T12:36:49Z</time>
      </trkpt>
      <trkpt lat="45.71728" lon="6.48754">
        <ele>656</ele>
        <time>2022-08-16T12:36:50Z</time>
      </trkpt>
      <trkpt lat="45.71721" lon="6.48739">
        <ele>656</ele>
        <time>2022-08-16T12:36:51Z</time>
      </trkpt>
      <trkpt lat="45.71714" lon="6.48724">
        <ele>655</ele>
        <time>2022-08-16T12:36:52Z</time>
      </trkpt>
      <trkpt lat="45.71706" lon="6.48709">
        <ele>654</ele>
        <time>2022-08-16T12:36:53Z</time>
      </trkpt>
      <trkpt lat="45.717" lon="6.48693">
        <ele>652</ele>
        <time>2022-08-16T12:36:54Z</time>
      </trkpt>
      <trkpt lat="45.71696" lon="6.48677">
        <ele>650</ele>
        <time>2022-08-16T12:36:55Z</time>
      </trkpt>
      <trkpt lat="45.71695" lon="6.48659">
        <ele>649</ele>
        <time>2022-08-16T12:36:56Z</time>
      </trkpt>
      <trkpt lat="45.71696" lon="6.48639">
        <ele>648</ele>
        <time>2022-08-16T12:36:57Z</time>
      </trkpt>
      <trkpt lat="45.71697" lon="6.4862">
        <ele>648</ele>
        <time>2022-08-16T12:36:58Z</time>
      </trkpt>
      <trkpt lat="45.71696" lon="6.48601">
        <ele>647</ele>
        <time>2022-08-16T12:36:59Z</time>
      </trkpt>
      <trkpt lat="45.71693" lon="6.48582">
        <ele>647</ele>
        <time>2022-08-16T12:37:00Z</time>
      </trkpt>
      <trkpt lat="45.71689" lon="6.48565">
        <ele>646</ele>
        <time>2022-08-16T12:37:01Z</time>
      </trkpt>
      <trkpt lat="45.71686" lon="6.48547">
        <ele>644</ele>
        <time>2022-08-16T12:37:02Z</time>
      </trkpt>
      <trkpt lat="45.71681" lon="6.4853">
        <ele>643</ele>
        <time>2022-08-16T12:37:03Z</time>
      </trkpt>
      <trkpt lat="45.71677" lon="6.48513">
        <ele>641</ele>
        <time>2022-08-16T12:37:04Z</time>
      </trkpt>
      <trkpt lat="45.71674" lon="6.48496">
        <ele>639</ele>
        <time>2022-08-16T12:37:05Z</time>
      </trkpt>
      <trkpt lat="45.7167" lon="6.4848">
        <ele>639</ele>
        <time>2022-08-16T12:37:06Z</time>
      </trkpt>
      <trkpt lat="45.71667" lon="6.48463">
        <ele>639</ele>
        <time>2022-08-16T12:37:07Z</time>
      </trkpt>
      <trkpt lat="45.71663" lon="6.48447">
        <ele>638</ele>
        <time>2022-08-16T12:37:08Z</time>
      </trkpt>
      <trkpt lat="45.71659" lon="6.48431">
        <ele>637</ele>
        <time>2022-08-16T12:37:09Z</time>
      </trkpt>
      <trkpt lat="45.71654" lon="6.48416">
        <ele>637</ele>
        <time>2022-08-16T12:37:10Z</time>
      </trkpt>
      <trkpt lat="45.71648" lon="6.48401">
        <ele>636</ele>
        <time>2022-08-16T12:37:11Z</time>
      </trkpt>
      <trkpt lat="45.7164" lon="6.48389">
        <ele>635</ele>
        <time>2022-08-16T12:37:12Z</time>
      </trkpt>
      <trkpt lat="45.7163" lon="6.48379">
        <ele>634</ele>
        <time>2022-08-16T12:37:13Z</time>
      </trkpt>
      <trkpt lat="45.7162" lon="6.48368">
        <ele>634</ele>
        <time>2022-08-16T12:37:14Z</time>
      </trkpt>
      <trkpt lat="45.71611" lon="6.4836">
        <ele>634</ele>
        <time>2022-08-16T12:37:15Z</time>
      </trkpt>
      <trkpt lat="45.71601" lon="6.48353">
        <ele>634</ele>
        <time>2022-08-16T12:37:16Z</time>
      </trkpt>
      <trkpt lat="45.7159" lon="6.48347">
        <ele>634</ele>
        <time>2022-08-16T12:37:17Z</time>
      </trkpt>
      <trkpt lat="45.71579" lon="6.48343">
        <ele>634</ele>
        <time>2022-08-16T12:37:18Z</time>
      </trkpt>
      <trkpt lat="45.71568" lon="6.48339">
        <ele>634</ele>
        <time>2022-08-16T12:37:19Z</time>
      </trkpt>
      <trkpt lat="45.71558" lon="6.48335">
        <ele>634</ele>
        <time>2022-08-16T12:37:20Z</time>
      </trkpt>
      <trkpt lat="45.71547" lon="6.4833">
        <ele>633</ele>
        <time>2022-08-16T12:37:21Z</time>
      </trkpt>
      <trkpt lat="45.71537" lon="6.48325">
        <ele>633</ele>
        <time>2022-08-16T12:37:22Z</time>
      </trkpt>
      <trkpt lat="45.71528" lon="6.48318">
        <ele>632</ele>
        <time>2022-08-16T12:37:23Z</time>
      </trkpt>
      <trkpt lat="45.71519" lon="6.48307">
        <ele>632</ele>
        <time>2022-08-16T12:37:24Z</time>
      </trkpt>
      <trkpt lat="45.7151" lon="6.48295">
        <ele>632</ele>
        <time>2022-08-16T12:37:25Z</time>
      </trkpt>
      <trkpt lat="45.71503" lon="6.48282">
        <ele>632</ele>
        <time>2022-08-16T12:37:26Z</time>
      </trkpt>
      <trkpt lat="45.71495" lon="6.48269">
        <ele>632</ele>
        <time>2022-08-16T12:37:27Z</time>
      </trkpt>
      <trkpt lat="45.71486" lon="6.48257">
        <ele>631</ele>
        <time>2022-08-16T12:37:28Z</time>
      </trkpt>
      <trkpt lat="45.71478" lon="6.48244">
        <ele>631</ele>
        <time>2022-08-16T12:37:29Z</time>
      </trkpt>
      <trkpt lat="45.71471" lon="6.48231">
        <ele>630</ele>
        <time>2022-08-16T12:37:30Z</time>
      </trkpt>
      <trkpt lat="45.71462" lon="6.4822">
        <ele>630</ele>
        <time>2022-08-16T12:37:31Z</time>
      </trkpt>
      <trkpt lat="45.71454" lon="6.48208">
        <ele>629</ele>
        <time>2022-08-16T12:37:32Z</time>
      </trkpt>
      <trkpt lat="45.71447" lon="6.48195">
        <ele>629</ele>
        <time>2022-08-16T12:37:33Z</time>
      </trkpt>
      <trkpt lat="45.71442" lon="6.48181">
        <ele>629</ele>
        <time>2022-08-16T12:37:34Z</time>
      </trkpt>
      <trkpt lat="45.7144" lon="6.48164">
        <ele>628</ele>
        <time>2022-08-16T12:37:35Z</time>
      </trkpt>
      <trkpt lat="45.7144" lon="6.48147">
        <ele>628</ele>
        <time>2022-08-16T12:37:36Z</time>
      </trkpt>
      <trkpt lat="45.71442" lon="6.48132">
        <ele>627</ele>
        <time>2022-08-16T12:37:37Z</time>
      </trkpt>
      <trkpt lat="45.71446" lon="6.48117">
        <ele>627</ele>
        <time>2022-08-16T12:37:38Z</time>
      </trkpt>
      <trkpt lat="45.71453" lon="6.48104">
        <ele>627</ele>
        <time>2022-08-16T12:37:39Z</time>
      </trkpt>
      <trkpt lat="45.71461" lon="6.48094">
        <ele>626</ele>
        <time>2022-08-16T12:37:40Z</time>
      </trkpt>
      <trkpt lat="45.71469" lon="6.48084">
        <ele>625</ele>
        <time>2022-08-16T12:37:41Z</time>
      </trkpt>
      <trkpt lat="45.71477" lon="6.48075">
        <ele>625</ele>
        <time>2022-08-16T12:37:42Z</time>
      </trkpt>
      <trkpt lat="45.71484" lon="6.48066">
        <ele>624</ele>
        <time>2022-08-16T12:37:43Z</time>
      </trkpt>
      <trkpt lat="45.71492" lon="6.48056">
        <ele>624</ele>
        <time>2022-08-16T12:37:44Z</time>
      </trkpt>
      <trkpt lat="45.71499" lon="6.48047">
        <ele>623</ele>
        <time>2022-08-16T12:37:45Z</time>
      </trkpt>
      <trkpt lat="45.71506" lon="6.48038">
        <ele>622</ele>
        <time>2022-08-16T12:37:46Z</time>
      </trkpt>
      <trkpt lat="45.71513" lon="6.48028">
        <ele>622</ele>
        <time>2022-08-16T12:37:47Z</time>
      </trkpt>
      <trkpt lat="45.7152" lon="6.48018">
        <ele>622</ele>
        <time>2022-08-16T12:37:48Z</time>
      </trkpt>
      <trkpt lat="45.71526" lon="6.48008">
        <ele>621</ele>
        <time>2022-08-16T12:37:49Z</time>
      </trkpt>
      <trkpt lat="45.71534" lon="6.47998">
        <ele>621</ele>
        <time>2022-08-16T12:37:50Z</time>
      </trkpt>
      <trkpt lat="45.71541" lon="6.47988">
        <ele>620</ele>
        <time>2022-08-16T12:37:51Z</time>
      </trkpt>
      <trkpt lat="45.71548" lon="6.47977">
        <ele>620</ele>
        <time>2022-08-16T12:37:52Z</time>
      </trkpt>
      <trkpt lat="45.71555" lon="6.47968">
        <ele>620</ele>
        <time>2022-08-16T12:37:53Z</time>
      </trkpt>
      <trkpt lat="45.71562" lon="6.47957">
        <ele>619</ele>
        <time>2022-08-16T12:37:54Z</time>
      </trkpt>
      <trkpt lat="45.71569" lon="6.47947">
        <ele>619</ele>
        <time>2022-08-16T12:37:55Z</time>
      </trkpt>
      <trkpt lat="45.71576" lon="6.47938">
        <ele>618</ele>
        <time>2022-08-16T12:37:56Z</time>
      </trkpt>
      <trkpt lat="45.71582" lon="6.47928">
        <ele>618</ele>
        <time>2022-08-16T12:37:57Z</time>
      </trkpt>
      <trkpt lat="45.71588" lon="6.47917">
        <ele>618</ele>
        <time>2022-08-16T12:37:58Z</time>
      </trkpt>
      <trkpt lat="45.71595" lon="6.47907">
        <ele>618</ele>
        <time>2022-08-16T12:37:59Z</time>
      </trkpt>
      <trkpt lat="45.71601" lon="6.47896">
        <ele>617</ele>
        <time>2022-08-16T12:38:00Z</time>
      </trkpt>
      <trkpt lat="45.71607" lon="6.47885">
        <ele>617</ele>
        <time>2022-08-16T12:38:01Z</time>
      </trkpt>
      <trkpt lat="45.71611" lon="6.47872">
        <ele>617</ele>
        <time>2022-08-16T12:38:02Z</time>
      </trkpt>
      <trkpt lat="45.71615" lon="6.47858">
        <ele>617</ele>
        <time>2022-08-16T12:38:03Z</time>
      </trkpt>
      <trkpt lat="45.71618" lon="6.47844">
        <ele>617</ele>
        <time>2022-08-16T12:38:04Z</time>
      </trkpt>
      <trkpt lat="45.7162" lon="6.47829">
        <ele>617</ele>
        <time>2022-08-16T12:38:05Z</time>
      </trkpt>
      <trkpt lat="45.7162" lon="6.47815">
        <ele>617</ele>
        <time>2022-08-16T12:38:06Z</time>
      </trkpt>
      <trkpt lat="45.7162" lon="6.47801">
        <ele>617</ele>
        <time>2022-08-16T12:38:07Z</time>
      </trkpt>
      <trkpt lat="45.71618" lon="6.47787">
        <ele>618</ele>
        <time>2022-08-16T12:38:08Z</time>
      </trkpt>
      <trkpt lat="45.71616" lon="6.47772">
        <ele>618</ele>
        <time>2022-08-16T12:38:09Z</time>
      </trkpt>
      <trkpt lat="45.71613" lon="6.47758">
        <ele>618</ele>
        <time>2022-08-16T12:38:10Z</time>
      </trkpt>
      <trkpt lat="45.71611" lon="6.47744">
        <ele>618</ele>
        <time>2022-08-16T12:38:11Z</time>
      </trkpt>
      <trkpt lat="45.71608" lon="6.4773">
        <ele>618</ele>
        <time>2022-08-16T12:38:12Z</time>
      </trkpt>
      <trkpt lat="45.71606" lon="6.47715">
        <ele>618</ele>
        <time>2022-08-16T12:38:13Z</time>
      </trkpt>
      <trkpt lat="45.71604" lon="6.477">
        <ele>618</ele>
        <time>2022-08-16T12:38:14Z</time>
      </trkpt>
      <trkpt lat="45.71602" lon="6.47685">
        <ele>618</ele>
        <time>2022-08-16T12:38:15Z</time>
      </trkpt>
      <trkpt lat="45.716" lon="6.47671">
        <ele>618</ele>
        <time>2022-08-16T12:38:16Z</time>
      </trkpt>
      <trkpt lat="45.71598" lon="6.47656">
        <ele>618</ele>
        <time>2022-08-16T12:38:17Z</time>
      </trkpt>
      <trkpt lat="45.71595" lon="6.47641">
        <ele>618</ele>
        <time>2022-08-16T12:38:18Z</time>
      </trkpt>
      <trkpt lat="45.71592" lon="6.47626">
        <ele>618</ele>
        <time>2022-08-16T12:38:19Z</time>
      </trkpt>
      <trkpt lat="45.71589" lon="6.47613">
        <ele>618</ele>
        <time>2022-08-16T12:38:20Z</time>
      </trkpt>
      <trkpt lat="45.71583" lon="6.476">
        <ele>618</ele>
        <time>2022-08-16T12:38:21Z</time>
      </trkpt>
      <trkpt lat="45.71577" lon="6.4759">
        <ele>616</ele>
        <time>2022-08-16T12:38:22Z</time>
      </trkpt>
      <trkpt lat="45.71569" lon="6.47579">
        <ele>616</ele>
        <time>2022-08-16T12:38:23Z</time>
      </trkpt>
      <trkpt lat="45.71561" lon="6.4757">
        <ele>616</ele>
        <time>2022-08-16T12:38:24Z</time>
      </trkpt>
      <trkpt lat="45.71553" lon="6.4756">
        <ele>616</ele>
        <time>2022-08-16T12:38:25Z</time>
      </trkpt>
      <trkpt lat="45.71545" lon="6.47551">
        <ele>616</ele>
        <time>2022-08-16T12:38:26Z</time>
      </trkpt>
      <trkpt lat="45.71538" lon="6.47541">
        <ele>614</ele>
        <time>2022-08-16T12:38:27Z</time>
      </trkpt>
      <trkpt lat="45.71533" lon="6.47531">
        <ele>613</ele>
        <time>2022-08-16T12:38:28Z</time>
      </trkpt>
      <trkpt lat="45.71528" lon="6.47519">
        <ele>613</ele>
        <time>2022-08-16T12:38:29Z</time>
      </trkpt>
      <trkpt lat="45.71525" lon="6.47506">
        <ele>612</ele>
        <time>2022-08-16T12:38:30Z</time>
      </trkpt>
      <trkpt lat="45.71525" lon="6.47493">
        <ele>611</ele>
        <time>2022-08-16T12:38:31Z</time>
      </trkpt>
      <trkpt lat="45.71525" lon="6.47478">
        <ele>611</ele>
        <time>2022-08-16T12:38:32Z</time>
      </trkpt>
      <trkpt lat="45.71526" lon="6.47464">
        <ele>610</ele>
        <time>2022-08-16T12:38:33Z</time>
      </trkpt>
      <trkpt lat="45.71528" lon="6.4745">
        <ele>610</ele>
        <time>2022-08-16T12:38:34Z</time>
      </trkpt>
      <trkpt lat="45.71529" lon="6.47437">
        <ele>610</ele>
        <time>2022-08-16T12:38:35Z</time>
      </trkpt>
      <trkpt lat="45.7153" lon="6.47424">
        <ele>610</ele>
        <time>2022-08-16T12:38:36Z</time>
      </trkpt>
      <trkpt lat="45.7153" lon="6.47411">
        <ele>610</ele>
        <time>2022-08-16T12:38:37Z</time>
      </trkpt>
      <trkpt lat="45.7153" lon="6.47398">
        <ele>609</ele>
        <time>2022-08-16T12:38:38Z</time>
      </trkpt>
      <trkpt lat="45.71529" lon="6.47384">
        <ele>609</ele>
        <time>2022-08-16T12:38:39Z</time>
      </trkpt>
      <trkpt lat="45.71527" lon="6.4737">
        <ele>609</ele>
        <time>2022-08-16T12:38:40Z</time>
      </trkpt>
      <trkpt lat="45.71523" lon="6.47357">
        <ele>608</ele>
        <time>2022-08-16T12:38:41Z</time>
      </trkpt>
      <trkpt lat="45.71519" lon="6.47344">
        <ele>608</ele>
        <time>2022-08-16T12:38:42Z</time>
      </trkpt>
      <trkpt lat="45.71514" lon="6.47333">
        <ele>608</ele>
        <time>2022-08-16T12:38:43Z</time>
      </trkpt>
      <trkpt lat="45.71509" lon="6.47321">
        <ele>607</ele>
        <time>2022-08-16T12:38:44Z</time>
      </trkpt>
      <trkpt lat="45.71505" lon="6.47309">
        <ele>605</ele>
        <time>2022-08-16T12:38:45Z</time>
      </trkpt>
      <trkpt lat="45.71501" lon="6.47296">
        <ele>605</ele>
        <time>2022-08-16T12:38:46Z</time>
      </trkpt>
      <trkpt lat="45.71497" lon="6.47283">
        <ele>604</ele>
        <time>2022-08-16T12:38:47Z</time>
      </trkpt>
      <trkpt lat="45.71493" lon="6.47271">
        <ele>604</ele>
        <time>2022-08-16T12:38:48Z</time>
      </trkpt>
      <trkpt lat="45.71489" lon="6.47258">
        <ele>603</ele>
        <time>2022-08-16T12:38:49Z</time>
      </trkpt>
      <trkpt lat="45.71486" lon="6.47244">
        <ele>603</ele>
        <time>2022-08-16T12:38:50Z</time>
      </trkpt>
      <trkpt lat="45.71485" lon="6.4723">
        <ele>603</ele>
        <time>2022-08-16T12:38:51Z</time>
      </trkpt>
      <trkpt lat="45.71484" lon="6.47215">
        <ele>602</ele>
        <time>2022-08-16T12:38:52Z</time>
      </trkpt>
      <trkpt lat="45.71483" lon="6.472">
        <ele>602</ele>
        <time>2022-08-16T12:38:53Z</time>
      </trkpt>
      <trkpt lat="45.71483" lon="6.47185">
        <ele>602</ele>
        <time>2022-08-16T12:38:54Z</time>
      </trkpt>
      <trkpt lat="45.71482" lon="6.47171">
        <ele>601</ele>
        <time>2022-08-16T12:38:55Z</time>
      </trkpt>
      <trkpt lat="45.71482" lon="6.47156">
        <ele>601</ele>
        <time>2022-08-16T12:38:56Z</time>
      </trkpt>
      <trkpt lat="45.71483" lon="6.47142">
        <ele>600</ele>
        <time>2022-08-16T12:38:57Z</time>
      </trkpt>
      <trkpt lat="45.71485" lon="6.47129">
        <ele>601</ele>
        <time>2022-08-16T12:38:58Z</time>
      </trkpt>
      <trkpt lat="45.71488" lon="6.47115">
        <ele>601</ele>
        <time>2022-08-16T12:38:59Z</time>
      </trkpt>
      <trkpt lat="45.71491" lon="6.47102">
        <ele>600</ele>
        <time>2022-08-16T12:39:00Z</time>
      </trkpt>
      <trkpt lat="45.71495" lon="6.47089">
        <ele>600</ele>
        <time>2022-08-16T12:39:01Z</time>
      </trkpt>
      <trkpt lat="45.715" lon="6.47075">
        <ele>600</ele>
        <time>2022-08-16T12:39:02Z</time>
      </trkpt>
      <trkpt lat="45.71505" lon="6.47064">
        <ele>600</ele>
        <time>2022-08-16T12:39:03Z</time>
      </trkpt>
      <trkpt lat="45.71511" lon="6.47053">
        <ele>601</ele>
        <time>2022-08-16T12:39:04Z</time>
      </trkpt>
      <trkpt lat="45.71516" lon="6.47041">
        <ele>601</ele>
        <time>2022-08-16T12:39:05Z</time>
      </trkpt>
      <trkpt lat="45.7152" lon="6.47029">
        <ele>600</ele>
        <time>2022-08-16T12:39:06Z</time>
      </trkpt>
      <trkpt lat="45.71524" lon="6.47016">
        <ele>600</ele>
        <time>2022-08-16T12:39:07Z</time>
      </trkpt>
      <trkpt lat="45.71529" lon="6.47004">
        <ele>600</ele>
        <time>2022-08-16T12:39:08Z</time>
      </trkpt>
      <trkpt lat="45.71533" lon="6.46992">
        <ele>600</ele>
        <time>2022-08-16T12:39:09Z</time>
      </trkpt>
      <trkpt lat="45.71537" lon="6.4698">
        <ele>599</ele>
        <time>2022-08-16T12:39:10Z</time>
      </trkpt>
      <trkpt lat="45.71541" lon="6.46968">
        <ele>600</ele>
        <time>2022-08-16T12:39:11Z</time>
      </trkpt>
      <trkpt lat="45.71545" lon="6.46955">
        <ele>600</ele>
        <time>2022-08-16T12:39:12Z</time>
      </trkpt>
      <trkpt lat="45.71549" lon="6.46942">
        <ele>600</ele>
        <time>2022-08-16T12:39:13Z</time>
      </trkpt>
      <trkpt lat="45.71553" lon="6.4693">
        <ele>600</ele>
        <time>2022-08-16T12:39:14Z</time>
      </trkpt>
      <trkpt lat="45.71557" lon="6.46918">
        <ele>600</ele>
        <time>2022-08-16T12:39:15Z</time>
      </trkpt>
      <trkpt lat="45.71561" lon="6.46905">
        <ele>599</ele>
        <time>2022-08-16T12:39:16Z</time>
      </trkpt>
      <trkpt lat="45.71565" lon="6.46893">
        <ele>599</ele>
        <time>2022-08-16T12:39:17Z</time>
      </trkpt>
      <trkpt lat="45.7157" lon="6.4688">
        <ele>600</ele>
        <time>2022-08-16T12:39:18Z</time>
      </trkpt>
      <trkpt lat="45.71574" lon="6.46868">
        <ele>600</ele>
        <time>2022-08-16T12:39:19Z</time>
      </trkpt>
      <trkpt lat="45.71578" lon="6.46856">
        <ele>600</ele>
        <time>2022-08-16T12:39:20Z</time>
      </trkpt>
      <trkpt lat="45.71582" lon="6.46844">
        <ele>600</ele>
        <time>2022-08-16T12:39:21Z</time>
      </trkpt>
      <trkpt lat="45.71586" lon="6.46832">
        <ele>599</ele>
        <time>2022-08-16T12:39:22Z</time>
      </trkpt>
      <trkpt lat="45.7159" lon="6.4682">
        <ele>599</ele>
        <time>2022-08-16T12:39:23Z</time>
      </trkpt>
      <trkpt lat="45.71594" lon="6.46809">
        <ele>599</ele>
        <time>2022-08-16T12:39:24Z</time>
      </trkpt>
      <trkpt lat="45.71598" lon="6.46798">
        <ele>599</ele>
        <time>2022-08-16T12:39:25Z</time>
      </trkpt>
      <trkpt lat="45.71603" lon="6.46786">
        <ele>598</ele>
        <time>2022-08-16T12:39:26Z</time>
      </trkpt>
      <trkpt lat="45.71609" lon="6.46775">
        <ele>598</ele>
        <time>2022-08-16T12:39:27Z</time>
      </trkpt>
      <trkpt lat="45.71615" lon="6.46764">
        <ele>597</ele>
        <time>2022-08-16T12:39:28Z</time>
      </trkpt>
      <trkpt lat="45.71622" lon="6.46754">
        <ele>597</ele>
        <time>2022-08-16T12:39:29Z</time>
      </trkpt>
      <trkpt lat="45.71629" lon="6.46744">
        <ele>597</ele>
        <time>2022-08-16T12:39:30Z</time>
      </trkpt>
      <trkpt lat="45.71635" lon="6.46733">
        <ele>597</ele>
        <time>2022-08-16T12:39:31Z</time>
      </trkpt>
      <trkpt lat="45.71641" lon="6.46723">
        <ele>596</ele>
        <time>2022-08-16T12:39:32Z</time>
      </trkpt>
      <trkpt lat="45.71647" lon="6.46713">
        <ele>596</ele>
        <time>2022-08-16T12:39:33Z</time>
      </trkpt>
      <trkpt lat="45.71654" lon="6.46704">
        <ele>596</ele>
        <time>2022-08-16T12:39:34Z</time>
      </trkpt>
      <trkpt lat="45.71661" lon="6.46696">
        <ele>595</ele>
        <time>2022-08-16T12:39:35Z</time>
      </trkpt>
      <trkpt lat="45.71667" lon="6.46688">
        <ele>595</ele>
        <time>2022-08-16T12:39:36Z</time>
      </trkpt>
      <trkpt lat="45.71675" lon="6.4668">
        <ele>595</ele>
        <time>2022-08-16T12:39:37Z</time>
      </trkpt>
      <trkpt lat="45.71682" lon="6.46673">
        <ele>595</ele>
        <time>2022-08-16T12:39:38Z</time>
      </trkpt>
      <trkpt lat="45.71689" lon="6.46665">
        <ele>595</ele>
        <time>2022-08-16T12:39:39Z</time>
      </trkpt>
      <trkpt lat="45.71695" lon="6.46656">
        <ele>595</ele>
        <time>2022-08-16T12:39:40Z</time>
      </trkpt>
      <trkpt lat="45.71701" lon="6.46648">
        <ele>595</ele>
        <time>2022-08-16T12:39:41Z</time>
      </trkpt>
      <trkpt lat="45.71706" lon="6.4664">
        <ele>596</ele>
        <time>2022-08-16T12:39:42Z</time>
      </trkpt>
      <trkpt lat="45.71711" lon="6.46631">
        <ele>596</ele>
        <time>2022-08-16T12:39:43Z</time>
      </trkpt>
      <trkpt lat="45.71716" lon="6.46621">
        <ele>597</ele>
        <time>2022-08-16T12:39:44Z</time>
      </trkpt>
      <trkpt lat="45.71721" lon="6.46611">
        <ele>598</ele>
        <time>2022-08-16T12:39:45Z</time>
      </trkpt>
      <trkpt lat="45.71726" lon="6.46601">
        <ele>599</ele>
        <time>2022-08-16T12:39:46Z</time>
      </trkpt>
      <trkpt lat="45.7173" lon="6.46591">
        <ele>599</ele>
        <time>2022-08-16T12:39:47Z</time>
      </trkpt>
      <trkpt lat="45.71734" lon="6.4658">
        <ele>599</ele>
        <time>2022-08-16T12:39:48Z</time>
      </trkpt>
      <trkpt lat="45.71738" lon="6.46569">
        <ele>599</ele>
        <time>2022-08-16T12:39:49Z</time>
      </trkpt>
      <trkpt lat="45.71741" lon="6.46558">
        <ele>599</ele>
        <time>2022-08-16T12:39:50Z</time>
      </trkpt>
      <trkpt lat="45.71743" lon="6.46547">
        <ele>598</ele>
        <time>2022-08-16T12:39:51Z</time>
      </trkpt>
      <trkpt lat="45.71744" lon="6.46534">
        <ele>599</ele>
        <time>2022-08-16T12:39:52Z</time>
      </trkpt>
      <trkpt lat="45.71744" lon="6.46522">
        <ele>598</ele>
        <time>2022-08-16T12:39:53Z</time>
      </trkpt>
      <trkpt lat="45.71743" lon="6.46509">
        <ele>598</ele>
        <time>2022-08-16T12:39:54Z</time>
      </trkpt>
      <trkpt lat="45.71741" lon="6.46497">
        <ele>598</ele>
        <time>2022-08-16T12:39:55Z</time>
      </trkpt>
      <trkpt lat="45.7174" lon="6.46485">
        <ele>597</ele>
        <time>2022-08-16T12:39:56Z</time>
      </trkpt>
      <trkpt lat="45.71736" lon="6.46473">
        <ele>598</ele>
        <time>2022-08-16T12:39:57Z</time>
      </trkpt>
      <trkpt lat="45.71733" lon="6.46462">
        <ele>597</ele>
        <time>2022-08-16T12:39:58Z</time>
      </trkpt>
      <trkpt lat="45.7173" lon="6.4645">
        <ele>597</ele>
        <time>2022-08-16T12:39:59Z</time>
      </trkpt>
      <trkpt lat="45.71726" lon="6.46438">
        <ele>597</ele>
        <time>2022-08-16T12:40:00Z</time>
      </trkpt>
      <trkpt lat="45.71723" lon="6.46426">
        <ele>597</ele>
        <time>2022-08-16T12:40:01Z</time>
      </trkpt>
      <trkpt lat="45.71719" lon="6.46414">
        <ele>597</ele>
        <time>2022-08-16T12:40:02Z</time>
      </trkpt>
      <trkpt lat="45.71715" lon="6.46402">
        <ele>597</ele>
        <time>2022-08-16T12:40:03Z</time>
      </trkpt>
      <trkpt lat="45.71712" lon="6.4639">
        <ele>597</ele>
        <time>2022-08-16T12:40:04Z</time>
      </trkpt>
      <trkpt lat="45.71708" lon="6.46378">
        <ele>597</ele>
        <time>2022-08-16T12:40:05Z</time>
      </trkpt>
      <trkpt lat="45.71704" lon="6.46365">
        <ele>597</ele>
        <time>2022-08-16T12:40:06Z</time>
      </trkpt>
      <trkpt lat="45.717" lon="6.46352">
        <ele>596</ele>
        <time>2022-08-16T12:40:07Z</time>
      </trkpt>
      <trkpt lat="45.71697" lon="6.46337">
        <ele>596</ele>
        <time>2022-08-16T12:40:08Z</time>
      </trkpt>
      <trkpt lat="45.71695" lon="6.46323">
        <ele>595</ele>
        <time>2022-08-16T12:40:09Z</time>
      </trkpt>
      <trkpt lat="45.71694" lon="6.46308">
        <ele>595</ele>
        <time>2022-08-16T12:40:10Z</time>
      </trkpt>
      <trkpt lat="45.71692" lon="6.46294">
        <ele>594</ele>
        <time>2022-08-16T12:40:11Z</time>
      </trkpt>
      <trkpt lat="45.7169" lon="6.4628">
        <ele>594</ele>
        <time>2022-08-16T12:40:12Z</time>
      </trkpt>
      <trkpt lat="45.71689" lon="6.46266">
        <ele>593</ele>
        <time>2022-08-16T12:40:13Z</time>
      </trkpt>
      <trkpt lat="45.71687" lon="6.46252">
        <ele>593</ele>
        <time>2022-08-16T12:40:14Z</time>
      </trkpt>
      <trkpt lat="45.71686" lon="6.46238">
        <ele>592</ele>
        <time>2022-08-16T12:40:15Z</time>
      </trkpt>
      <trkpt lat="45.71685" lon="6.46225">
        <ele>592</ele>
        <time>2022-08-16T12:40:16Z</time>
      </trkpt>
      <trkpt lat="45.71683" lon="6.46212">
        <ele>592</ele>
        <time>2022-08-16T12:40:17Z</time>
      </trkpt>
      <trkpt lat="45.71682" lon="6.462">
        <ele>592</ele>
        <time>2022-08-16T12:40:18Z</time>
      </trkpt>
      <trkpt lat="45.7168" lon="6.46188">
        <ele>591</ele>
        <time>2022-08-16T12:40:19Z</time>
      </trkpt>
      <trkpt lat="45.71679" lon="6.46176">
        <ele>590</ele>
        <time>2022-08-16T12:40:20Z</time>
      </trkpt>
      <trkpt lat="45.71677" lon="6.46164">
        <ele>590</ele>
        <time>2022-08-16T12:40:21Z</time>
      </trkpt>
      <trkpt lat="45.71676" lon="6.46152">
        <ele>589</ele>
        <time>2022-08-16T12:40:22Z</time>
      </trkpt>
      <trkpt lat="45.71676" lon="6.4614">
        <ele>589</ele>
        <time>2022-08-16T12:40:23Z</time>
      </trkpt>
      <trkpt lat="45.71675" lon="6.46128">
        <ele>589</ele>
        <time>2022-08-16T12:40:24Z</time>
      </trkpt>
      <trkpt lat="45.71675" lon="6.46117">
        <ele>590</ele>
        <time>2022-08-16T12:40:25Z</time>
      </trkpt>
      <trkpt lat="45.71675" lon="6.46106">
        <ele>589</ele>
        <time>2022-08-16T12:40:26Z</time>
      </trkpt>
      <trkpt lat="45.71674" lon="6.46096">
        <ele>589</ele>
        <time>2022-08-16T12:40:27Z</time>
      </trkpt>
      <trkpt lat="45.71674" lon="6.46086">
        <ele>588</ele>
        <time>2022-08-16T12:40:28Z</time>
      </trkpt>
      <trkpt lat="45.71674" lon="6.46076">
        <ele>587</ele>
        <time>2022-08-16T12:40:29Z</time>
      </trkpt>
      <trkpt lat="45.71674" lon="6.46066">
        <ele>587</ele>
        <time>2022-08-16T12:40:30Z</time>
      </trkpt>
      <trkpt lat="45.71674" lon="6.46055">
        <ele>587</ele>
        <time>2022-08-16T12:40:31Z</time>
      </trkpt>
      <trkpt lat="45.71674" lon="6.46045">
        <ele>587</ele>
        <time>2022-08-16T12:40:32Z</time>
      </trkpt>
      <trkpt lat="45.71674" lon="6.46035">
        <ele>586</ele>
        <time>2022-08-16T12:40:33Z</time>
      </trkpt>
      <trkpt lat="45.71674" lon="6.46024">
        <ele>586</ele>
        <time>2022-08-16T12:40:34Z</time>
      </trkpt>
      <trkpt lat="45.71676" lon="6.46012">
        <ele>585</ele>
        <time>2022-08-16T12:40:35Z</time>
      </trkpt>
      <trkpt lat="45.71678" lon="6.46001">
        <ele>585</ele>
        <time>2022-08-16T12:40:36Z</time>
      </trkpt>
      <trkpt lat="45.71681" lon="6.45989">
        <ele>585</ele>
        <time>2022-08-16T12:40:37Z</time>
      </trkpt>
      <trkpt lat="45.71684" lon="6.45979">
        <ele>584</ele>
        <time>2022-08-16T12:40:38Z</time>
      </trkpt>
      <trkpt lat="45.71688" lon="6.45969">
        <ele>583</ele>
        <time>2022-08-16T12:40:39Z</time>
      </trkpt>
      <trkpt lat="45.71694" lon="6.45961">
        <ele>582</ele>
        <time>2022-08-16T12:40:40Z</time>
      </trkpt>
      <trkpt lat="45.71699" lon="6.45952">
        <ele>582</ele>
        <time>2022-08-16T12:40:41Z</time>
      </trkpt>
      <trkpt lat="45.71705" lon="6.45943">
        <ele>582</ele>
        <time>2022-08-16T12:40:42Z</time>
      </trkpt>
      <trkpt lat="45.71712" lon="6.45935">
        <ele>583</ele>
        <time>2022-08-16T12:40:43Z</time>
      </trkpt>
      <trkpt lat="45.71718" lon="6.45927">
        <ele>583</ele>
        <time>2022-08-16T12:40:44Z</time>
      </trkpt>
      <trkpt lat="45.71724" lon="6.4592">
        <ele>583</ele>
        <time>2022-08-16T12:40:45Z</time>
      </trkpt>
      <trkpt lat="45.7173" lon="6.45913">
        <ele>583</ele>
        <time>2022-08-16T12:40:46Z</time>
      </trkpt>
      <trkpt lat="45.71735" lon="6.45905">
        <ele>583</ele>
        <time>2022-08-16T12:40:47Z</time>
      </trkpt>
      <trkpt lat="45.71741" lon="6.45898">
        <ele>583</ele>
        <time>2022-08-16T12:40:48Z</time>
      </trkpt>
      <trkpt lat="45.71747" lon="6.4589">
        <ele>583</ele>
        <time>2022-08-16T12:40:49Z</time>
      </trkpt>
      <trkpt lat="45.71751" lon="6.45881">
        <ele>583</ele>
        <time>2022-08-16T12:40:50Z</time>
      </trkpt>
      <trkpt lat="45.71756" lon="6.45873">
        <ele>583</ele>
        <time>2022-08-16T12:40:51Z</time>
      </trkpt>
      <trkpt lat="45.7176" lon="6.45865">
        <ele>583</ele>
        <time>2022-08-16T12:40:52Z</time>
      </trkpt>
      <trkpt lat="45.71765" lon="6.45858">
        <ele>583</ele>
        <time>2022-08-16T12:40:53Z</time>
      </trkpt>
      <trkpt lat="45.7177" lon="6.45852">
        <ele>584</ele>
        <time>2022-08-16T12:40:54Z</time>
      </trkpt>
      <trkpt lat="45.71774" lon="6.45846">
        <ele>584</ele>
        <time>2022-08-16T12:40:55Z</time>
      </trkpt>
      <trkpt lat="45.71776" lon="6.45837">
        <ele>584</ele>
        <time>2022-08-16T12:40:56Z</time>
      </trkpt>
      <trkpt lat="45.71773" lon="6.45828">
        <ele>584</ele>
        <time>2022-08-16T12:40:57Z</time>
      </trkpt>
      <trkpt lat="45.71766" lon="6.45825">
        <ele>584</ele>
        <time>2022-08-16T12:40:58Z</time>
      </trkpt>
      <trkpt lat="45.71761" lon="6.45819">
        <ele>584</ele>
        <time>2022-08-16T12:40:59Z</time>
      </trkpt>
      <trkpt lat="45.71758" lon="6.45811">
        <ele>583</ele>
        <time>2022-08-16T12:41:00Z</time>
      </trkpt>
      <trkpt lat="45.71757" lon="6.45803">
        <ele>584</ele>
        <time>2022-08-16T12:41:01Z</time>
      </trkpt>
      <trkpt lat="45.71757" lon="6.45795">
        <ele>584</ele>
        <time>2022-08-16T12:41:02Z</time>
      </trkpt>
      <trkpt lat="45.71758" lon="6.45788">
        <ele>584</ele>
        <time>2022-08-16T12:41:03Z</time>
      </trkpt>
      <trkpt lat="45.71759" lon="6.45785">
        <ele>584</ele>
        <time>2022-08-16T12:41:04Z</time>
      </trkpt>
      <trkpt lat="45.71759" lon="6.45784">
        <ele>584</ele>
        <time>2022-08-16T12:41:05Z</time>
      </trkpt>
      <trkpt lat="45.71759" lon="6.45783">
        <ele>583</ele>
        <time>2022-08-16T12:41:06Z</time>
      </trkpt>
      <trkpt lat="45.71759" lon="6.45783">
        <ele>583</ele>
        <time>2022-08-16T12:41:07Z</time>
      </trkpt>
      <trkpt lat="45.71758" lon="6.45784">
        <ele>583</ele>
        <time>2022-08-16T12:41:08Z</time>
      </trkpt>
      <trkpt lat="45.71758" lon="6.45784">
        <ele>583</ele>
        <time>2022-08-16T12:41:09Z</time>
      </trkpt>
      <trkpt lat="45.71758" lon="6.45785">
        <ele>583</ele>
        <time>2022-08-16T12:41:10Z</time>
      </trkpt>
      <trkpt lat="45.71758" lon="6.45785">
        <ele>583</ele>
        <time>2022-08-16T12:41:11Z</time>
      </trkpt>
      <trkpt lat="45.71758" lon="6.45785">
        <ele>583</ele>
        <time>2022-08-16T12:41:12Z</time>
      </trkpt>
      <trkpt lat="45.71759" lon="6.45785">
        <ele>583</ele>
        <time>2022-08-16T12:41:13Z</time>
      </trkpt>
      <trkpt lat="45.7176" lon="6.45785">
        <ele>584</ele>
        <time>2022-08-16T12:41:16Z</time>
      </trkpt>
      <trkpt lat="45.71761" lon="6.45785">
        <ele>584</ele>
        <time>2022-08-16T12:41:17Z</time>
      </trkpt>
      <trkpt lat="45.71762" lon="6.45786">
        <ele>584</ele>
        <time>2022-08-16T12:41:18Z</time>
      </trkpt>
      <trkpt lat="45.71763" lon="6.45787">
        <ele>584</ele>
        <time>2022-08-16T12:41:19Z</time>
      </trkpt>
      <trkpt lat="45.71763" lon="6.45787">
        <ele>584</ele>
        <time>2022-08-16T12:41:23Z</time>
      </trkpt>
      <trkpt lat="45.71763" lon="6.45788">
        <ele>585</ele>
        <time>2022-08-16T12:41:24Z</time>
      </trkpt>
      <trkpt lat="45.71763" lon="6.45789">
        <ele>585</ele>
        <time>2022-08-16T12:41:25Z</time>
      </trkpt>
      <trkpt lat="45.71763" lon="6.45789">
        <ele>585</ele>
        <time>2022-08-16T12:41:26Z</time>
      </trkpt>
      <trkpt lat="45.71764" lon="6.45789">
        <ele>585</ele>
        <time>2022-08-16T12:41:27Z</time>
      </trkpt>
      <trkpt lat="45.71764" lon="6.45789">
        <ele>585</ele>
        <time>2022-08-16T12:41:31Z</time>
      </trkpt>
      <trkpt lat="45.71764" lon="6.45789">
        <ele>585</ele>
        <time>2022-08-16T12:41:35Z</time>
      </trkpt>
      <trkpt lat="45.71764" lon="6.45789">
        <ele>585</ele>
        <time>2022-08-16T12:41:39Z</time>
      </trkpt>
      <trkpt lat="45.71764" lon="6.45789">
        <ele>585</ele>
        <time>2022-08-16T12:41:43Z</time>
      </trkpt>
      <trkpt lat="45.71764" lon="6.45789">
        <ele>585</ele>
        <time>2022-08-16T12:41:47Z</time>
      </trkpt>
      <trkpt lat="45.71764" lon="6.45789">
        <ele>585</ele>
        <time>2022-08-16T12:41:48Z</time>
      </trkpt>
      <trkpt lat="45.71764" lon="6.45789">
        <ele>585</ele>
        <time>2022-08-16T12:41:49Z</time>
      </trkpt>
      <trkpt lat="45.71764" lon="6.45787">
        <ele>585</ele>
        <time>2022-08-16T12:41:50Z</time>
      </trkpt>
      <trkpt lat="45.71764" lon="6.45786">
        <ele>584</ele>
        <time>2022-08-16T12:41:51Z</time>
      </trkpt>
      <trkpt lat="45.71765" lon="6.45786">
        <ele>584</ele>
        <time>2022-08-16T12:41:52Z</time>
      </trkpt>
      <trkpt lat="45.71765" lon="6.45787">
        <ele>584</ele>
        <time>2022-08-16T12:41:53Z</time>
      </trkpt>
      <trkpt lat="45.71765" lon="6.45787">
        <ele>584</ele>
        <time>2022-08-16T12:41:54Z</time>
      </trkpt>
      <trkpt lat="45.71765" lon="6.45788">
        <ele>584</ele>
        <time>2022-08-16T12:41:55Z</time>
      </trkpt>
      <trkpt lat="45.71765" lon="6.45789">
        <ele>584</ele>
        <time>2022-08-16T12:41:56Z</time>
      </trkpt>
      <trkpt lat="45.71765" lon="6.4579">
        <ele>584</ele>
        <time>2022-08-16T12:41:57Z</time>
      </trkpt>
      <trkpt lat="45.71765" lon="6.4579">
        <ele>584</ele>
        <time>2022-08-16T12:41:58Z</time>
      </trkpt>
      <trkpt lat="45.71765" lon="6.4579">
        <ele>584</ele>
        <time>2022-08-16T12:42:02Z</time>
      </trkpt>
      <trkpt lat="45.71765" lon="6.4579">
        <ele>584</ele>
        <time>2022-08-16T12:42:06Z</time>
      </trkpt>
      <trkpt lat="45.71765" lon="6.4579">
        <ele>584</ele>
        <time>2022-08-16T12:42:10Z</time>
      </trkpt>
      <trkpt lat="45.71765" lon="6.4579">
        <ele>584</ele>
        <time>2022-08-16T12:42:14Z</time>
      </trkpt>
      <trkpt lat="45.71765" lon="6.4579">
        <ele>584</ele>
        <time>2022-08-16T12:42:15Z</time>
      </trkpt>
      <trkpt lat="45.71765" lon="6.4579">
        <ele>584</ele>
        <time>2022-08-16T12:42:16Z</time>
      </trkpt>
      <trkpt lat="45.71766" lon="6.4579">
        <ele>583</ele>
        <time>2022-08-16T12:42:17Z</time>
      </trkpt>
      <trkpt lat="45.71766" lon="6.4579">
        <ele>583</ele>
        <time>2022-08-16T12:42:18Z</time>
      </trkpt>
      <trkpt lat="45.71766" lon="6.4579">
        <ele>583</ele>
        <time>2022-08-16T12:42:19Z</time>
      </trkpt>
      <trkpt lat="45.71766" lon="6.4579">
        <ele>583</ele>
        <time>2022-08-16T12:42:20Z</time>
      </trkpt>
      <trkpt lat="45.71766" lon="6.4579">
        <ele>583</ele>
        <time>2022-08-16T12:42:24Z</time>
      </trkpt>
      <trkpt lat="45.71767" lon="6.45792">
        <ele>583</ele>
        <time>2022-08-16T12:42:26Z</time>
      </trkpt>
      <trkpt lat="45.71767" lon="6.45793">
        <ele>583</ele>
        <time>2022-08-16T12:42:27Z</time>
      </trkpt>
      <trkpt lat="45.71767" lon="6.45793">
        <ele>583</ele>
        <time>2022-08-16T12:42:28Z</time>
      </trkpt>
      <trkpt lat="45.71767" lon="6.45792">
        <ele>584</ele>
        <time>2022-08-16T12:42:29Z</time>
      </trkpt>
      <trkpt lat="45.71767" lon="6.45792">
        <ele>582</ele>
        <time>2022-08-16T12:42:32Z</time>
      </trkpt>
      <trkpt lat="45.71767" lon="6.45791">
        <ele>582</ele>
        <time>2022-08-16T12:42:33Z</time>
      </trkpt>
      <trkpt lat="45.71767" lon="6.45791">
        <ele>582</ele>
        <time>2022-08-16T12:42:34Z</time>
      </trkpt>
      <trkpt lat="45.71768" lon="6.45792">
        <ele>582</ele>
        <time>2022-08-16T12:42:35Z</time>
      </trkpt>
      <trkpt lat="45.71768" lon="6.45792">
        <ele>582</ele>
        <time>2022-08-16T12:42:39Z</time>
      </trkpt>
      <trkpt lat="45.71768" lon="6.45792">
        <ele>582</ele>
        <time>2022-08-16T12:42:43Z</time>
      </trkpt>
      <trkpt lat="45.71768" lon="6.45792">
        <ele>582</ele>
        <time>2022-08-16T12:42:47Z</time>
      </trkpt>
      <trkpt lat="45.71766" lon="6.45793">
        <ele>582</ele>
        <time>2022-08-16T12:42:49Z</time>
      </trkpt>
      <trkpt lat="45.71766" lon="6.45793">
        <ele>582</ele>
        <time>2022-08-16T12:42:50Z</time>
      </trkpt>
      <trkpt lat="45.71766" lon="6.45794">
        <ele>582</ele>
        <time>2022-08-16T12:42:51Z</time>
      </trkpt>
      <trkpt lat="45.71765" lon="6.45794">
        <ele>582</ele>
        <time>2022-08-16T12:42:52Z</time>
      </trkpt>
      <trkpt lat="45.71765" lon="6.45795">
        <ele>583</ele>
        <time>2022-08-16T12:42:55Z</time>
      </trkpt>
      <trkpt lat="45.71766" lon="6.45796">
        <ele>583</ele>
        <time>2022-08-16T12:42:56Z</time>
      </trkpt>
      <trkpt lat="45.71767" lon="6.45796">
        <ele>584</ele>
        <time>2022-08-16T12:42:57Z</time>
      </trkpt>
      <trkpt lat="45.71767" lon="6.45796">
        <ele>584</ele>
        <time>2022-08-16T12:42:58Z</time>
      </trkpt>
      <trkpt lat="45.71767" lon="6.45794">
        <ele>585</ele>
        <time>2022-08-16T12:43:02Z</time>
      </trkpt>
      <trkpt lat="45.71767" lon="6.45794">
        <ele>586</ele>
        <time>2022-08-16T12:43:03Z</time>
      </trkpt>
      <trkpt lat="45.71767" lon="6.45794">
        <ele>586</ele>
        <time>2022-08-16T12:43:04Z</time>
      </trkpt>
      <trkpt lat="45.71767" lon="6.45794">
        <ele>586</ele>
        <time>2022-08-16T12:43:05Z</time>
      </trkpt>
      <trkpt lat="45.71766" lon="6.45796">
        <ele>587</ele>
        <time>2022-08-16T12:43:08Z</time>
      </trkpt>
      <trkpt lat="45.71766" lon="6.45796">
        <ele>587</ele>
        <time>2022-08-16T12:43:09Z</time>
      </trkpt>
      <trkpt lat="45.71766" lon="6.45796">
        <ele>587</ele>
        <time>2022-08-16T12:43:10Z</time>
      </trkpt>
      <trkpt lat="45.71766" lon="6.45796">
        <ele>588</ele>
        <time>2022-08-16T12:43:11Z</time>
      </trkpt>
      <trkpt lat="45.71766" lon="6.45795">
        <ele>588</ele>
        <time>2022-08-16T12:43:14Z</time>
      </trkpt>
      <trkpt lat="45.71766" lon="6.45794">
        <ele>588</ele>
        <time>2022-08-16T12:43:15Z</time>
      </trkpt>
      <trkpt lat="45.71766" lon="6.45794">
        <ele>588</ele>
        <time>2022-08-16T12:43:16Z</time>
      </trkpt>
      <trkpt lat="45.71766" lon="6.45796">
        <ele>587</ele>
        <time>2022-08-16T12:43:17Z</time>
      </trkpt>
      <trkpt lat="45.71766" lon="6.45795">
        <ele>587</ele>
        <time>2022-08-16T12:43:18Z</time>
      </trkpt>
      <trkpt lat="45.71766" lon="6.45796">
        <ele>588</ele>
        <time>2022-08-16T12:43:19Z</time>
      </trkpt>
      <trkpt lat="45.71767" lon="6.45795">
        <ele>587</ele>
        <time>2022-08-16T12:43:22Z</time>
      </trkpt>
      <trkpt lat="45.71767" lon="6.45795">
        <ele>587</ele>
        <time>2022-08-16T12:43:23Z</time>
      </trkpt>
      <trkpt lat="45.71768" lon="6.45794">
        <ele>587</ele>
        <time>2022-08-16T12:43:24Z</time>
      </trkpt>
      <trkpt lat="45.71768" lon="6.45794">
        <ele>587</ele>
        <time>2022-08-16T12:43:25Z</time>
      </trkpt>
      <trkpt lat="45.71768" lon="6.45795">
        <ele>587</ele>
        <time>2022-08-16T12:43:26Z</time>
      </trkpt>
      <trkpt lat="45.71767" lon="6.45795">
        <ele>587</ele>
        <time>2022-08-16T12:43:27Z</time>
      </trkpt>
      <trkpt lat="45.71767" lon="6.45795">
        <ele>588</ele>
        <time>2022-08-16T12:43:28Z</time>
      </trkpt>
      <trkpt lat="45.71767" lon="6.45795">
        <ele>588</ele>
        <time>2022-08-16T12:43:29Z</time>
      </trkpt>
      <trkpt lat="45.71767" lon="6.45796">
        <ele>588</ele>
        <time>2022-08-16T12:43:30Z</time>
      </trkpt>
      <trkpt lat="45.71767" lon="6.45796">
        <ele>588</ele>
        <time>2022-08-16T12:43:31Z</time>
      </trkpt>
      <trkpt lat="45.71767" lon="6.45796">
        <ele>588</ele>
        <time>2022-08-16T12:43:35Z</time>
      </trkpt>
      <trkpt lat="45.71767" lon="6.45796">
        <ele>588</ele>
        <time>2022-08-16T12:43:39Z</time>
      </trkpt>
      <trkpt lat="45.71767" lon="6.45797">
        <ele>585</ele>
        <time>2022-08-16T12:43:41Z</time>
      </trkpt>
      <trkpt lat="45.71767" lon="6.45797">
        <ele>585</ele>
        <time>2022-08-16T12:43:42Z</time>
      </trkpt>
      <trkpt lat="45.71767" lon="6.45798">
        <ele>585</ele>
        <time>2022-08-16T12:43:43Z</time>
      </trkpt>
      <trkpt lat="45.71767" lon="6.45798">
        <ele>585</ele>
        <time>2022-08-16T12:43:44Z</time>
      </trkpt>
      <trkpt lat="45.71767" lon="6.45799">
        <ele>584</ele>
        <time>2022-08-16T12:43:45Z</time>
      </trkpt>
      <trkpt lat="45.71767" lon="6.45798">
        <ele>583</ele>
        <time>2022-08-16T12:43:49Z</time>
      </trkpt>
      <trkpt lat="45.71767" lon="6.45798">
        <ele>583</ele>
        <time>2022-08-16T12:43:50Z</time>
      </trkpt>
      <trkpt lat="45.71766" lon="6.45797">
        <ele>582</ele>
        <time>2022-08-16T12:43:51Z</time>
      </trkpt>
      <trkpt lat="45.71766" lon="6.45797">
        <ele>582</ele>
        <time>2022-08-16T12:43:52Z</time>
      </trkpt>
      <trkpt lat="45.71765" lon="6.45796">
        <ele>581</ele>
        <time>2022-08-16T12:43:56Z</time>
      </trkpt>
      <trkpt lat="45.71764" lon="6.45796">
        <ele>580</ele>
        <time>2022-08-16T12:43:57Z</time>
      </trkpt>
      <trkpt lat="45.71764" lon="6.45796">
        <ele>580</ele>
        <time>2022-08-16T12:43:58Z</time>
      </trkpt>
      <trkpt lat="45.71764" lon="6.45796">
        <ele>580</ele>
        <time>2022-08-16T12:43:59Z</time>
      </trkpt>
      <trkpt lat="45.71764" lon="6.45795">
        <ele>579</ele>
        <time>2022-08-16T12:44:03Z</time>
      </trkpt>
      <trkpt lat="45.71764" lon="6.45795">
        <ele>579</ele>
        <time>2022-08-16T12:44:04Z</time>
      </trkpt>
      <trkpt lat="45.71763" lon="6.45795">
        <ele>579</ele>
        <time>2022-08-16T12:44:05Z</time>
      </trkpt>
      <trkpt lat="45.71762" lon="6.45795">
        <ele>579</ele>
        <time>2022-08-16T12:44:06Z</time>
      </trkpt>
      <trkpt lat="45.71762" lon="6.45795">
        <ele>579</ele>
        <time>2022-08-16T12:44:10Z</time>
      </trkpt>
      <trkpt lat="45.71762" lon="6.45795">
        <ele>579</ele>
        <time>2022-08-16T12:44:14Z</time>
      </trkpt>
      <trkpt lat="45.71762" lon="6.45795">
        <ele>579</ele>
        <time>2022-08-16T12:44:18Z</time>
      </trkpt>
      <trkpt lat="45.71762" lon="6.45795">
        <ele>579</ele>
        <time>2022-08-16T12:44:22Z</time>
      </trkpt>
      <trkpt lat="45.71762" lon="6.45795">
        <ele>579</ele>
        <time>2022-08-16T12:44:26Z</time>
      </trkpt>
      <trkpt lat="45.71762" lon="6.45795">
        <ele>579</ele>
        <time>2022-08-16T12:44:30Z</time>
      </trkpt>
      <trkpt lat="45.71762" lon="6.45795">
        <ele>579</ele>
        <time>2022-08-16T12:44:34Z</time>
      </trkpt>
      <trkpt lat="45.71764" lon="6.45794">
        <ele>578</ele>
        <time>2022-08-16T12:44:37Z</time>
      </trkpt>
      <trkpt lat="45.71764" lon="6.45794">
        <ele>579</ele>
        <time>2022-08-16T12:44:38Z</time>
      </trkpt>
      <trkpt lat="45.71764" lon="6.45792">
        <ele>578</ele>
        <time>2022-08-16T12:44:39Z</time>
      </trkpt>
      <trkpt lat="45.71765" lon="6.45793">
        <ele>579</ele>
        <time>2022-08-16T12:44:40Z</time>
      </trkpt>
      <trkpt lat="45.71767" lon="6.45794">
        <ele>578</ele>
        <time>2022-08-16T12:44:43Z</time>
      </trkpt>
      <trkpt lat="45.71767" lon="6.45794">
        <ele>578</ele>
        <time>2022-08-16T12:44:44Z</time>
      </trkpt>
      <trkpt lat="45.71768" lon="6.45795">
        <ele>579</ele>
        <time>2022-08-16T12:44:45Z</time>
      </trkpt>
      <trkpt lat="45.71768" lon="6.45796">
        <ele>578</ele>
        <time>2022-08-16T12:44:46Z</time>
      </trkpt>
      <trkpt lat="45.71768" lon="6.45795">
        <ele>579</ele>
        <time>2022-08-16T12:44:47Z</time>
      </trkpt>
      <trkpt lat="45.71769" lon="6.45794">
        <ele>578</ele>
        <time>2022-08-16T12:44:48Z</time>
      </trkpt>
      <trkpt lat="45.71769" lon="6.45794">
        <ele>579</ele>
        <time>2022-08-16T12:44:49Z</time>
      </trkpt>
      <trkpt lat="45.71769" lon="6.45794">
        <ele>579</ele>
        <time>2022-08-16T12:44:53Z</time>
      </trkpt>
      <trkpt lat="45.71769" lon="6.45794">
        <ele>579</ele>
        <time>2022-08-16T12:44:57Z</time>
      </trkpt>
      <trkpt lat="45.71769" lon="6.45794">
        <ele>579</ele>
        <time>2022-08-16T12:45:01Z</time>
      </trkpt>
      <trkpt lat="45.71769" lon="6.45794">
        <ele>579</ele>
        <time>2022-08-16T12:45:05Z</time>
      </trkpt>
      <trkpt lat="45.71768" lon="6.45793">
        <ele>579</ele>
        <time>2022-08-16T12:45:06Z</time>
      </trkpt>
      <trkpt lat="45.71768" lon="6.45792">
        <ele>579</ele>
        <time>2022-08-16T12:45:07Z</time>
      </trkpt>
      <trkpt lat="45.71767" lon="6.45791">
        <ele>579</ele>
        <time>2022-08-16T12:45:08Z</time>
      </trkpt>
      <trkpt lat="45.71766" lon="6.45791">
        <ele>579</ele>
        <time>2022-08-16T12:45:09Z</time>
      </trkpt>
      <trkpt lat="45.71766" lon="6.45792">
        <ele>579</ele>
        <time>2022-08-16T12:45:12Z</time>
      </trkpt>
      <trkpt lat="45.71766" lon="6.45792">
        <ele>579</ele>
        <time>2022-08-16T12:45:13Z</time>
      </trkpt>
      <trkpt lat="45.71766" lon="6.45792">
        <ele>579</ele>
        <time>2022-08-16T12:45:14Z</time>
      </trkpt>
      <trkpt lat="45.71766" lon="6.45792">
        <ele>579</ele>
        <time>2022-08-16T12:45:15Z</time>
      </trkpt>
      <trkpt lat="45.71766" lon="6.45792">
        <ele>579</ele>
        <time>2022-08-16T12:45:19Z</time>
      </trkpt>
      <trkpt lat="45.71764" lon="6.45793">
        <ele>578</ele>
        <time>2022-08-16T12:45:22Z</time>
      </trkpt>
      <trkpt lat="45.71764" lon="6.45793">
        <ele>578</ele>
        <time>2022-08-16T12:45:23Z</time>
      </trkpt>
      <trkpt lat="45.71764" lon="6.45793">
        <ele>578</ele>
        <time>2022-08-16T12:45:24Z</time>
      </trkpt>
      <trkpt lat="45.71765" lon="6.45793">
        <ele>579</ele>
        <time>2022-08-16T12:45:25Z</time>
      </trkpt>
      <trkpt lat="45.71765" lon="6.45793">
        <ele>579</ele>
        <time>2022-08-16T12:45:26Z</time>
      </trkpt>
      <trkpt lat="45.71766" lon="6.45794">
        <ele>580</ele>
        <time>2022-08-16T12:45:28Z</time>
      </trkpt>
      <trkpt lat="45.71766" lon="6.45794">
        <ele>580</ele>
        <time>2022-08-16T12:45:29Z</time>
      </trkpt>
      <trkpt lat="45.71766" lon="6.45795">
        <ele>580</ele>
        <time>2022-08-16T12:45:30Z</time>
      </trkpt>
      <trkpt lat="45.71766" lon="6.45794">
        <ele>580</ele>
        <time>2022-08-16T12:45:31Z</time>
      </trkpt>
      <trkpt lat="45.71766" lon="6.45792">
        <ele>581</ele>
        <time>2022-08-16T12:45:34Z</time>
      </trkpt>
      <trkpt lat="45.71765" lon="6.45792">
        <ele>581</ele>
        <time>2022-08-16T12:45:35Z</time>
      </trkpt>
      <trkpt lat="45.71765" lon="6.45792">
        <ele>581</ele>
        <time>2022-08-16T12:45:36Z</time>
      </trkpt>
      <trkpt lat="45.71765" lon="6.45792">
        <ele>581</ele>
        <time>2022-08-16T12:45:37Z</time>
      </trkpt>
      <trkpt lat="45.71765" lon="6.45792">
        <ele>581</ele>
        <time>2022-08-16T12:45:41Z</time>
      </trkpt>
      <trkpt lat="45.71765" lon="6.45792">
        <ele>581</ele>
        <time>2022-08-16T12:45:45Z</time>
      </trkpt>
      <trkpt lat="45.71764" lon="6.4579">
        <ele>580</ele>
        <time>2022-08-16T12:45:49Z</time>
      </trkpt>
      <trkpt lat="45.71764" lon="6.4579">
        <ele>580</ele>
        <time>2022-08-16T12:45:50Z</time>
      </trkpt>
      <trkpt lat="45.71764" lon="6.4579">
        <ele>580</ele>
        <time>2022-08-16T12:45:51Z</time>
      </trkpt>
      <trkpt lat="45.71763" lon="6.4579">
        <ele>580</ele>
        <time>2022-08-16T12:45:52Z</time>
      </trkpt>
      <trkpt lat="45.71763" lon="6.45789">
        <ele>580</ele>
        <time>2022-08-16T12:45:54Z</time>
      </trkpt>
      <trkpt lat="45.71763" lon="6.45789">
        <ele>579</ele>
        <time>2022-08-16T12:45:55Z</time>
      </trkpt>
      <trkpt lat="45.71763" lon="6.45787">
        <ele>579</ele>
        <time>2022-08-16T12:45:56Z</time>
      </trkpt>
      <trkpt lat="45.71762" lon="6.45786">
        <ele>580</ele>
        <time>2022-08-16T12:45:57Z</time>
      </trkpt>
      <trkpt lat="45.71762" lon="6.45788">
        <ele>580</ele>
        <time>2022-08-16T12:45:59Z</time>
      </trkpt>
      <trkpt lat="45.71762" lon="6.45789">
        <ele>580</ele>
        <time>2022-08-16T12:46:00Z</time>
      </trkpt>
      <trkpt lat="45.71762" lon="6.4579">
        <ele>580</ele>
        <time>2022-08-16T12:46:01Z</time>
      </trkpt>
      <trkpt lat="45.71763" lon="6.45791">
        <ele>581</ele>
        <time>2022-08-16T12:46:02Z</time>
      </trkpt>
      <trkpt lat="45.71763" lon="6.45791">
        <ele>582</ele>
        <time>2022-08-16T12:46:03Z</time>
      </trkpt>
      <trkpt lat="45.71763" lon="6.45791">
        <ele>582</ele>
        <time>2022-08-16T12:46:07Z</time>
      </trkpt>
      <trkpt lat="45.71764" lon="6.4579">
        <ele>583</ele>
        <time>2022-08-16T12:46:11Z</time>
      </trkpt>
      <trkpt lat="45.71764" lon="6.4579">
        <ele>583</ele>
        <time>2022-08-16T12:46:12Z</time>
      </trkpt>
      <trkpt lat="45.71764" lon="6.4579">
        <ele>583</ele>
        <time>2022-08-16T12:46:13Z</time>
      </trkpt>
      <trkpt lat="45.71765" lon="6.45789">
        <ele>583</ele>
        <time>2022-08-16T12:46:14Z</time>
      </trkpt>
      <trkpt lat="45.71765" lon="6.45789">
        <ele>582</ele>
        <time>2022-08-16T12:46:15Z</time>
      </trkpt>
      <trkpt lat="45.71766" lon="6.45789">
        <ele>582</ele>
        <time>2022-08-16T12:46:16Z</time>
      </trkpt>
      <trkpt lat="45.71767" lon="6.4579">
        <ele>582</ele>
        <time>2022-08-16T12:46:17Z</time>
      </trkpt>
      <trkpt lat="45.71768" lon="6.4579">
        <ele>582</ele>
        <time>2022-08-16T12:46:20Z</time>
      </trkpt>
      <trkpt lat="45.71767" lon="6.4579">
        <ele>582</ele>
        <time>2022-08-16T12:46:21Z</time>
      </trkpt>
      <trkpt lat="45.71766" lon="6.45791">
        <ele>582</ele>
        <time>2022-08-16T12:46:22Z</time>
      </trkpt>
      <trkpt lat="45.71766" lon="6.45791">
        <ele>583</ele>
        <time>2022-08-16T12:46:23Z</time>
      </trkpt>
      <trkpt lat="45.71766" lon="6.45792">
        <ele>583</ele>
        <time>2022-08-16T12:46:24Z</time>
      </trkpt>
      <trkpt lat="45.71766" lon="6.45791">
        <ele>584</ele>
        <time>2022-08-16T12:46:25Z</time>
      </trkpt>
      <trkpt lat="45.7177" lon="6.45799">
        <ele>609</ele>
        <time>2022-08-16T12:46:27.644Z</time>
      </trkpt>
      <trkpt lat="45.71757" lon="6.45781">
        <ele>631</ele>
        <time>2022-08-16T12:46:29Z</time>
      </trkpt>
      <trkpt lat="45.71751" lon="6.45767">
        <ele>645</ele>
        <time>2022-08-16T12:46:30Z</time>
      </trkpt>
      <trkpt lat="45.7176" lon="6.45784">
        <ele>610</ele>
        <time>2022-08-16T12:46:31Z</time>
      </trkpt>
      <trkpt lat="45.71761" lon="6.45788">
        <ele>602</ele>
        <time>2022-08-16T12:46:32Z</time>
      </trkpt>
      <trkpt lat="45.71761" lon="6.45788">
        <ele>602</ele>
        <time>2022-08-16T12:46:33Z</time>
      </trkpt>
      <trkpt lat="45.71761" lon="6.45788">
        <ele>602</ele>
        <time>2022-08-16T12:46:37Z</time>
      </trkpt>
      <trkpt lat="45.71761" lon="6.45788">
        <ele>602</ele>
        <time>2022-08-16T12:46:41Z</time>
      </trkpt>
      <trkpt lat="45.71761" lon="6.45788">
        <ele>602</ele>
        <time>2022-08-16T12:46:45Z</time>
      </trkpt>
      <trkpt lat="45.71761" lon="6.45788">
        <ele>602</ele>
        <time>2022-08-16T12:46:49Z</time>
      </trkpt>
    </trkseg>
  </trk>
</gpx>